<?xml version='1.0' encoding='UTF-8'?><gpx version="1.1" creator="JPX - https://github.com/jenetics/jpx" xmlns="http://www.topografix.com/GPX/1/1"><trk><trkseg><trkpt lat="45.8874855" lon="8.8917432"><ele>350.1666666666667</ele><time>2026-05-01T13:24:59.851Z</time></trkpt><trkpt lat="45.8875747" lon="8.8918036"><ele>350.33333333333337</ele><time>2026-05-01T13:25:01.852Z</time></trkpt><trkpt lat="45.8876273" lon="8.8918722"><ele>350.5</ele><time>2026-05-01T13:25:03.852Z</time></trkpt><trkpt lat="45.8875839" lon="8.8919561"><ele>350.6666666666667</ele><time>2026-05-01T13:25:07.852Z</time></trkpt><trkpt lat="45.8875049" lon="8.8919133"><ele>350.8333333333333</ele><time>2026-05-01T13:25:10.853Z</time></trkpt><trkpt lat="45.8874039" lon="8.8918197"><ele>351.0</ele><time>2026-05-01T13:25:12.852Z</time></trkpt><trkpt lat="45.8873435" lon="8.8917574"><ele>350.8333333333333</ele><time>2026-05-01T13:25:13.851Z</time></trkpt><trkpt lat="45.8872717" lon="8.891697"><ele>350.6666666666667</ele><time>2026-05-01T13:25:14.852Z</time></trkpt><trkpt lat="45.8872046" lon="8.8916299"><ele>350.5</ele><time>2026-05-01T13:25:15.851Z</time></trkpt><trkpt lat="45.8871385" lon="8.8915532"><ele>350.33333333333337</ele><time>2026-05-01T13:25:16.852Z</time></trkpt><trkpt lat="45.8870641" lon="8.8914722"><ele>350.1666666666667</ele><time>2026-05-01T13:25:17.851Z</time></trkpt><trkpt lat="45.8869897" lon="8.8913994"><ele>350.0</ele><time>2026-05-01T13:25:18.852Z</time></trkpt><trkpt lat="45.8869307" lon="8.8913407"><ele>350.0</ele><time>2026-05-01T13:25:19.852Z</time></trkpt><trkpt lat="45.8868495" lon="8.8912133"><ele>350.0</ele><time>2026-05-01T13:25:21.852Z</time></trkpt><trkpt lat="45.8868333" lon="8.8910806"><ele>350.0</ele><time>2026-05-01T13:25:23.852Z</time></trkpt><trkpt lat="45.8868984" lon="8.8909146"><ele>350.0</ele><time>2026-05-01T13:25:25.852Z</time></trkpt><trkpt lat="45.8869326" lon="8.8908212"><ele>350.0</ele><time>2026-05-01T13:25:26.852Z</time></trkpt><trkpt lat="45.8869935" lon="8.8907182"><ele>350.0</ele><time>2026-05-01T13:25:27.852Z</time></trkpt><trkpt lat="45.8870692" lon="8.8906176"><ele>350.0</ele><time>2026-05-01T13:25:28.852Z</time></trkpt><trkpt lat="45.8871426" lon="8.8905086"><ele>350.0</ele><time>2026-05-01T13:25:29.852Z</time></trkpt><trkpt lat="45.887218" lon="8.8904104"><ele>350.0</ele><time>2026-05-01T13:25:30.851Z</time></trkpt><trkpt lat="45.8872849" lon="8.8903281"><ele>350.0</ele><time>2026-05-01T13:25:31.852Z</time></trkpt><trkpt lat="45.887348" lon="8.8902445"><ele>350.0</ele><time>2026-05-01T13:25:32.852Z</time></trkpt><trkpt lat="45.8874078" lon="8.8901629"><ele>350.0</ele><time>2026-05-01T13:25:33.852Z</time></trkpt><trkpt lat="45.8874771" lon="8.8900696"><ele>350.0</ele><time>2026-05-01T13:25:34.851Z</time></trkpt><trkpt lat="45.8875283" lon="8.8900038"><ele>350.0</ele><time>2026-05-01T13:25:35.851Z</time></trkpt><trkpt lat="45.8875914" lon="8.8899336"><ele>350.0</ele><time>2026-05-01T13:25:36.852Z</time></trkpt><trkpt lat="45.8876548" lon="8.8898811"><ele>350.0</ele><time>2026-05-01T13:25:37.852Z</time></trkpt><trkpt lat="45.8877129" lon="8.8898427"><ele>349.6</ele><time>2026-05-01T13:25:38.852Z</time></trkpt><trkpt lat="45.8878431" lon="8.8897998"><ele>349.2</ele><time>2026-05-01T13:25:40.851Z</time></trkpt><trkpt lat="45.8879139" lon="8.8897991"><ele>348.79999999999995</ele><time>2026-05-01T13:25:41.852Z</time></trkpt><trkpt lat="45.8880315" lon="8.8897322"><ele>348.4</ele><time>2026-05-01T13:25:43.851Z</time></trkpt><trkpt lat="45.8880805" lon="8.8896576"><ele>348.0</ele><time>2026-05-01T13:25:44.851Z</time></trkpt><trkpt lat="45.8881261" lon="8.8895574"><ele>348.0</ele><time>2026-05-01T13:25:45.851Z</time></trkpt><trkpt lat="45.8881728" lon="8.8894313"><ele>348.0</ele><time>2026-05-01T13:25:46.852Z</time></trkpt><trkpt lat="45.8881951" lon="8.8893263"><ele>348.0</ele><time>2026-05-01T13:25:47.852Z</time></trkpt><trkpt lat="45.8882373" lon="8.889196"><ele>348.0</ele><time>2026-05-01T13:25:49.852Z</time></trkpt><trkpt lat="45.8882643" lon="8.889093"><ele>348.0</ele><time>2026-05-01T13:25:51.852Z</time></trkpt><trkpt lat="45.8883012" lon="8.8889995"><ele>348.0</ele><time>2026-05-01T13:25:54.852Z</time></trkpt><trkpt lat="45.8883288" lon="8.8888458"><ele>348.1666666666667</ele><time>2026-05-01T13:25:57.851Z</time></trkpt><trkpt lat="45.8883438" lon="8.8887476"><ele>348.3333333333333</ele><time>2026-05-01T13:25:58.852Z</time></trkpt><trkpt lat="45.888358" lon="8.8886552"><ele>348.5</ele><time>2026-05-01T13:25:59.85Z</time></trkpt><trkpt lat="45.8883825" lon="8.8885659"><ele>348.66666666666663</ele><time>2026-05-01T13:26:00.852Z</time></trkpt><trkpt lat="45.8883918" lon="8.8884286"><ele>348.8333333333333</ele><time>2026-05-01T13:26:02.851Z</time></trkpt><trkpt lat="45.8883553" lon="8.8883279"><ele>349.0</ele><time>2026-05-01T13:26:03.852Z</time></trkpt><trkpt lat="45.888313" lon="8.8882241"><ele>349.79999999999995</ele><time>2026-05-01T13:26:04.852Z</time></trkpt><trkpt lat="45.888269" lon="8.8881219"><ele>350.59999999999997</ele><time>2026-05-01T13:26:05.852Z</time></trkpt><trkpt lat="45.8882264" lon="8.888001"><ele>351.4</ele><time>2026-05-01T13:26:06.852Z</time></trkpt><trkpt lat="45.8881688" lon="8.8878731"><ele>352.2</ele><time>2026-05-01T13:26:07.851Z</time></trkpt><trkpt lat="45.8881178" lon="8.8877497"><ele>353.0</ele><time>2026-05-01T13:26:08.851Z</time></trkpt><trkpt lat="45.8880622" lon="8.8876198"><ele>353.0</ele><time>2026-05-01T13:26:09.852Z</time></trkpt><trkpt lat="45.8879989" lon="8.8874815"><ele>353.0</ele><time>2026-05-01T13:26:10.85Z</time></trkpt><trkpt lat="45.8879338" lon="8.88733"><ele>353.0</ele><time>2026-05-01T13:26:11.853Z</time></trkpt><trkpt lat="45.8878562" lon="8.8871676"><ele>353.0</ele><time>2026-05-01T13:26:12.852Z</time></trkpt><trkpt lat="45.8877841" lon="8.8870112"><ele>353.0</ele><time>2026-05-01T13:26:13.852Z</time></trkpt><trkpt lat="45.8877125" lon="8.8868389"><ele>353.0</ele><time>2026-05-01T13:26:14.852Z</time></trkpt><trkpt lat="45.8876383" lon="8.8866769"><ele>353.0</ele><time>2026-05-01T13:26:15.851Z</time></trkpt><trkpt lat="45.887573" lon="8.8865201"><ele>353.0</ele><time>2026-05-01T13:26:16.852Z</time></trkpt><trkpt lat="45.8875161" lon="8.8863654"><ele>352.2</ele><time>2026-05-01T13:26:17.852Z</time></trkpt><trkpt lat="45.8874532" lon="8.8862276"><ele>351.4</ele><time>2026-05-01T13:26:18.852Z</time></trkpt><trkpt lat="45.8873941" lon="8.8860903"><ele>350.59999999999997</ele><time>2026-05-01T13:26:19.851Z</time></trkpt><trkpt lat="45.8873397" lon="8.8859741"><ele>349.79999999999995</ele><time>2026-05-01T13:26:20.852Z</time></trkpt><trkpt lat="45.8872951" lon="8.8858726"><ele>349.0</ele><time>2026-05-01T13:26:21.852Z</time></trkpt><trkpt lat="45.8872547" lon="8.8857812"><ele>347.16666666666663</ele><time>2026-05-01T13:26:22.85Z</time></trkpt><trkpt lat="45.8872216" lon="8.8856953"><ele>345.3333333333333</ele><time>2026-05-01T13:26:23.852Z</time></trkpt><trkpt lat="45.8871624" lon="8.8855665"><ele>343.5</ele><time>2026-05-01T13:26:25.851Z</time></trkpt><trkpt lat="45.8871302" lon="8.8854809"><ele>341.6666666666667</ele><time>2026-05-01T13:26:28.852Z</time></trkpt><trkpt lat="45.8872001" lon="8.8854481"><ele>339.83333333333337</ele><time>2026-05-01T13:26:33.853Z</time></trkpt><trkpt lat="45.8872601" lon="8.885488"><ele>338.0</ele><time>2026-05-01T13:26:34.852Z</time></trkpt><trkpt lat="45.8873252" lon="8.8855717"><ele>338.0</ele><time>2026-05-01T13:26:35.852Z</time></trkpt><trkpt lat="45.8873932" lon="8.885666"><ele>338.0</ele><time>2026-05-01T13:26:36.852Z</time></trkpt><trkpt lat="45.887473" lon="8.8857635"><ele>338.0</ele><time>2026-05-01T13:26:37.852Z</time></trkpt><trkpt lat="45.8875541" lon="8.8858653"><ele>338.0</ele><time>2026-05-01T13:26:38.852Z</time></trkpt><trkpt lat="45.8876431" lon="8.8859618"><ele>338.0</ele><time>2026-05-01T13:26:39.853Z</time></trkpt><trkpt lat="45.8877557" lon="8.886046"><ele>340.0</ele><time>2026-05-01T13:26:40.852Z</time></trkpt><trkpt lat="45.8878983" lon="8.886101"><ele>342.0</ele><time>2026-05-01T13:26:41.851Z</time></trkpt><trkpt lat="45.8880333" lon="8.8861463"><ele>344.0</ele><time>2026-05-01T13:26:42.85Z</time></trkpt><trkpt lat="45.8881708" lon="8.8861586"><ele>346.0</ele><time>2026-05-01T13:26:43.851Z</time></trkpt><trkpt lat="45.8883092" lon="8.8861542"><ele>345.5</ele><time>2026-05-01T13:26:44.852Z</time></trkpt><trkpt lat="45.8884631" lon="8.8861375"><ele>345.0</ele><time>2026-05-01T13:26:45.852Z</time></trkpt><trkpt lat="45.8886035" lon="8.8861427"><ele>344.5</ele><time>2026-05-01T13:26:46.851Z</time></trkpt><trkpt lat="45.8887377" lon="8.8861604"><ele>344.0</ele><time>2026-05-01T13:26:47.852Z</time></trkpt><trkpt lat="45.88886" lon="8.8861981"><ele>344.0</ele><time>2026-05-01T13:26:48.852Z</time></trkpt><trkpt lat="45.888991" lon="8.8862397"><ele>344.0</ele><time>2026-05-01T13:26:49.852Z</time></trkpt><trkpt lat="45.8891238" lon="8.8862892"><ele>344.0</ele><time>2026-05-01T13:26:50.852Z</time></trkpt><trkpt lat="45.8892555" lon="8.8863502"><ele>344.0</ele><time>2026-05-01T13:26:51.852Z</time></trkpt><trkpt lat="45.8894014" lon="8.8864094"><ele>343.0</ele><time>2026-05-01T13:26:52.852Z</time></trkpt><trkpt lat="45.8895508" lon="8.886427"><ele>342.0</ele><time>2026-05-01T13:26:53.852Z</time></trkpt><trkpt lat="45.8896898" lon="8.8864516"><ele>341.0</ele><time>2026-05-01T13:26:54.852Z</time></trkpt><trkpt lat="45.8898312" lon="8.8864927"><ele>340.0</ele><time>2026-05-01T13:26:55.851Z</time></trkpt><trkpt lat="45.8899634" lon="8.8865468"><ele>340.0</ele><time>2026-05-01T13:26:56.851Z</time></trkpt><trkpt lat="45.890079" lon="8.8866353"><ele>340.0</ele><time>2026-05-01T13:26:57.852Z</time></trkpt><trkpt lat="45.8901748" lon="8.8867178"><ele>340.0</ele><time>2026-05-01T13:26:58.85Z</time></trkpt><trkpt lat="45.8902756" lon="8.8867985"><ele>340.0</ele><time>2026-05-01T13:26:59.851Z</time></trkpt><trkpt lat="45.8903891" lon="8.8868796"><ele>342.25</ele><time>2026-05-01T13:27:00.852Z</time></trkpt><trkpt lat="45.8905075" lon="8.8869518"><ele>344.5</ele><time>2026-05-01T13:27:01.852Z</time></trkpt><trkpt lat="45.8906134" lon="8.8870181"><ele>346.75</ele><time>2026-05-01T13:27:02.851Z</time></trkpt><trkpt lat="45.8907122" lon="8.8870927"><ele>349.0</ele><time>2026-05-01T13:27:03.852Z</time></trkpt><trkpt lat="45.8908086" lon="8.8871597"><ele>349.0</ele><time>2026-05-01T13:27:04.852Z</time></trkpt><trkpt lat="45.8909034" lon="8.8872312"><ele>349.0</ele><time>2026-05-01T13:27:05.852Z</time></trkpt><trkpt lat="45.8909972" lon="8.887301"><ele>349.0</ele><time>2026-05-01T13:27:06.851Z</time></trkpt><trkpt lat="45.8910929" lon="8.8873781"><ele>349.0</ele><time>2026-05-01T13:27:07.85Z</time></trkpt><trkpt lat="45.8911866" lon="8.887457"><ele>349.0</ele><time>2026-05-01T13:27:08.852Z</time></trkpt><trkpt lat="45.8912751" lon="8.887536"><ele>346.0</ele><time>2026-05-01T13:27:09.852Z</time></trkpt><trkpt lat="45.8913603" lon="8.8876175"><ele>343.0</ele><time>2026-05-01T13:27:10.851Z</time></trkpt><trkpt lat="45.8914455" lon="8.8877035"><ele>340.0</ele><time>2026-05-01T13:27:11.852Z</time></trkpt><trkpt lat="45.8915353" lon="8.8877857"><ele>337.0</ele><time>2026-05-01T13:27:12.851Z</time></trkpt><trkpt lat="45.8916297" lon="8.8878822"><ele>334.0</ele><time>2026-05-01T13:27:13.85Z</time></trkpt><trkpt lat="45.8917394" lon="8.8879908"><ele>329.25</ele><time>2026-05-01T13:27:14.852Z</time></trkpt><trkpt lat="45.8918513" lon="8.8880987"><ele>324.5</ele><time>2026-05-01T13:27:15.852Z</time></trkpt><trkpt lat="45.8919607" lon="8.8882052"><ele>319.75</ele><time>2026-05-01T13:27:16.852Z</time></trkpt><trkpt lat="45.8920627" lon="8.8882927"><ele>315.0</ele><time>2026-05-01T13:27:17.852Z</time></trkpt><trkpt lat="45.8921579" lon="8.8883865"><ele>317.75</ele><time>2026-05-01T13:27:18.852Z</time></trkpt><trkpt lat="45.8922618" lon="8.8884817"><ele>320.5</ele><time>2026-05-01T13:27:19.851Z</time></trkpt><trkpt lat="45.8923613" lon="8.8885843"><ele>323.25</ele><time>2026-05-01T13:27:20.852Z</time></trkpt><trkpt lat="45.8924583" lon="8.8886906"><ele>326.0</ele><time>2026-05-01T13:27:21.851Z</time></trkpt><trkpt lat="45.8925609" lon="8.8888125"><ele>323.75</ele><time>2026-05-01T13:27:22.85Z</time></trkpt><trkpt lat="45.8926563" lon="8.8889345"><ele>321.5</ele><time>2026-05-01T13:27:23.852Z</time></trkpt><trkpt lat="45.8927473" lon="8.8890658"><ele>319.25</ele><time>2026-05-01T13:27:24.851Z</time></trkpt><trkpt lat="45.8928354" lon="8.8891904"><ele>317.0</ele><time>2026-05-01T13:27:25.851Z</time></trkpt><trkpt lat="45.8929258" lon="8.8893118"><ele>317.0</ele><time>2026-05-01T13:27:26.851Z</time></trkpt><trkpt lat="45.8930221" lon="8.8894163"><ele>317.0</ele><time>2026-05-01T13:27:27.851Z</time></trkpt><trkpt lat="45.8931237" lon="8.8895083"><ele>317.0</ele><time>2026-05-01T13:27:28.851Z</time></trkpt><trkpt lat="45.8932213" lon="8.8895752"><ele>317.0</ele><time>2026-05-01T13:27:29.851Z</time></trkpt><trkpt lat="45.8933132" lon="8.8896545"><ele>317.0</ele><time>2026-05-01T13:27:30.851Z</time></trkpt><trkpt lat="45.8934089" lon="8.8897522"><ele>317.0</ele><time>2026-05-01T13:27:31.852Z</time></trkpt><trkpt lat="45.8935064" lon="8.8898691"><ele>317.0</ele><time>2026-05-01T13:27:32.852Z</time></trkpt><trkpt lat="45.8935951" lon="8.8900064"><ele>317.0</ele><time>2026-05-01T13:27:33.852Z</time></trkpt><trkpt lat="45.8936854" lon="8.8901531"><ele>312.5</ele><time>2026-05-01T13:27:34.852Z</time></trkpt><trkpt lat="45.8937819" lon="8.8903049"><ele>308.0</ele><time>2026-05-01T13:27:35.851Z</time></trkpt><trkpt lat="45.8938687" lon="8.8904516"><ele>303.5</ele><time>2026-05-01T13:27:36.851Z</time></trkpt><trkpt lat="45.8939436" lon="8.8905982"><ele>299.0</ele><time>2026-05-01T13:27:37.851Z</time></trkpt><trkpt lat="45.894032" lon="8.8907378"><ele>299.0</ele><time>2026-05-01T13:27:38.851Z</time></trkpt><trkpt lat="45.8941235" lon="8.8908874"><ele>299.0</ele><time>2026-05-01T13:27:39.851Z</time></trkpt><trkpt lat="45.8942027" lon="8.8910449"><ele>299.0</ele><time>2026-05-01T13:27:40.851Z</time></trkpt><trkpt lat="45.894276" lon="8.891212"><ele>299.0</ele><time>2026-05-01T13:27:41.852Z</time></trkpt><trkpt lat="45.8943352" lon="8.8913803"><ele>297.0</ele><time>2026-05-01T13:27:42.852Z</time></trkpt><trkpt lat="45.8943876" lon="8.8915476"><ele>295.0</ele><time>2026-05-01T13:27:43.852Z</time></trkpt><trkpt lat="45.8944328" lon="8.8917291"><ele>293.0</ele><time>2026-05-01T13:27:44.851Z</time></trkpt><trkpt lat="45.8944848" lon="8.8919212"><ele>291.0</ele><time>2026-05-01T13:27:45.852Z</time></trkpt><trkpt lat="45.8945348" lon="8.8921107"><ele>291.0</ele><time>2026-05-01T13:27:46.851Z</time></trkpt><trkpt lat="45.8945829" lon="8.8922895"><ele>291.0</ele><time>2026-05-01T13:27:47.851Z</time></trkpt><trkpt lat="45.8946269" lon="8.892458"><ele>291.0</ele><time>2026-05-01T13:27:48.852Z</time></trkpt><trkpt lat="45.894666" lon="8.8926182"><ele>291.0</ele><time>2026-05-01T13:27:49.853Z</time></trkpt><trkpt lat="45.8947092" lon="8.89278"><ele>291.0</ele><time>2026-05-01T13:27:50.853Z</time></trkpt><trkpt lat="45.8947547" lon="8.8929506"><ele>291.0</ele><time>2026-05-01T13:27:51.852Z</time></trkpt><trkpt lat="45.8948039" lon="8.8931233"><ele>291.0</ele><time>2026-05-01T13:27:52.852Z</time></trkpt><trkpt lat="45.8948581" lon="8.893299"><ele>291.0</ele><time>2026-05-01T13:27:53.852Z</time></trkpt><trkpt lat="45.8949163" lon="8.893469"><ele>290.25</ele><time>2026-05-01T13:27:54.851Z</time></trkpt><trkpt lat="45.8949841" lon="8.8936266"><ele>289.5</ele><time>2026-05-01T13:27:55.851Z</time></trkpt><trkpt lat="45.8950612" lon="8.8937725"><ele>288.75</ele><time>2026-05-01T13:27:56.852Z</time></trkpt><trkpt lat="45.8951389" lon="8.8939096"><ele>288.0</ele><time>2026-05-01T13:27:57.851Z</time></trkpt><trkpt lat="45.8952158" lon="8.8940478"><ele>288.0</ele><time>2026-05-01T13:27:58.85Z</time></trkpt><trkpt lat="45.8952949" lon="8.8941786"><ele>288.0</ele><time>2026-05-01T13:27:59.852Z</time></trkpt><trkpt lat="45.8953781" lon="8.8943182"><ele>288.0</ele><time>2026-05-01T13:28:00.851Z</time></trkpt><trkpt lat="45.8954639" lon="8.8944505"><ele>288.0</ele><time>2026-05-01T13:28:01.851Z</time></trkpt><trkpt lat="45.8955548" lon="8.8945877"><ele>288.25</ele><time>2026-05-01T13:28:02.85Z</time></trkpt><trkpt lat="45.895638" lon="8.8947235"><ele>288.5</ele><time>2026-05-01T13:28:03.852Z</time></trkpt><trkpt lat="45.8957231" lon="8.8948477"><ele>288.75</ele><time>2026-05-01T13:28:04.851Z</time></trkpt><trkpt lat="45.8958034" lon="8.8949702"><ele>289.0</ele><time>2026-05-01T13:28:05.851Z</time></trkpt><trkpt lat="45.8958863" lon="8.8950926"><ele>288.0</ele><time>2026-05-01T13:28:06.851Z</time></trkpt><trkpt lat="45.8959583" lon="8.8952099"><ele>287.0</ele><time>2026-05-01T13:28:07.852Z</time></trkpt><trkpt lat="45.8960415" lon="8.8953213"><ele>286.0</ele><time>2026-05-01T13:28:08.852Z</time></trkpt><trkpt lat="45.8961259" lon="8.8954422"><ele>285.0</ele><time>2026-05-01T13:28:09.851Z</time></trkpt><trkpt lat="45.8962074" lon="8.8955661"><ele>285.0</ele><time>2026-05-01T13:28:10.852Z</time></trkpt><trkpt lat="45.8962796" lon="8.8956971"><ele>285.0</ele><time>2026-05-01T13:28:11.851Z</time></trkpt><trkpt lat="45.8963582" lon="8.8958194"><ele>285.0</ele><time>2026-05-01T13:28:12.851Z</time></trkpt><trkpt lat="45.8964313" lon="8.8959358"><ele>285.0</ele><time>2026-05-01T13:28:13.851Z</time></trkpt><trkpt lat="45.8965165" lon="8.8960402"><ele>285.75</ele><time>2026-05-01T13:28:14.852Z</time></trkpt><trkpt lat="45.8966095" lon="8.8961407"><ele>286.5</ele><time>2026-05-01T13:28:15.851Z</time></trkpt><trkpt lat="45.8967003" lon="8.8962333"><ele>287.25</ele><time>2026-05-01T13:28:16.851Z</time></trkpt><trkpt lat="45.896799" lon="8.8963314"><ele>288.0</ele><time>2026-05-01T13:28:17.852Z</time></trkpt><trkpt lat="45.8968993" lon="8.8964272"><ele>287.5</ele><time>2026-05-01T13:28:18.851Z</time></trkpt><trkpt lat="45.8969982" lon="8.8965273"><ele>287.0</ele><time>2026-05-01T13:28:19.851Z</time></trkpt><trkpt lat="45.8970966" lon="8.8966493"><ele>286.5</ele><time>2026-05-01T13:28:20.851Z</time></trkpt><trkpt lat="45.8971972" lon="8.8967656"><ele>286.0</ele><time>2026-05-01T13:28:21.852Z</time></trkpt><trkpt lat="45.8972925" lon="8.8968848"><ele>286.0</ele><time>2026-05-01T13:28:22.852Z</time></trkpt><trkpt lat="45.8973799" lon="8.8970074"><ele>286.0</ele><time>2026-05-01T13:28:23.852Z</time></trkpt><trkpt lat="45.8974698" lon="8.8971291"><ele>286.0</ele><time>2026-05-01T13:28:24.851Z</time></trkpt><trkpt lat="45.8975565" lon="8.8972506"><ele>286.0</ele><time>2026-05-01T13:28:25.851Z</time></trkpt><trkpt lat="45.8976397" lon="8.8973675"><ele>285.6</ele><time>2026-05-01T13:28:26.851Z</time></trkpt><trkpt lat="45.8977168" lon="8.8974855"><ele>285.20000000000005</ele><time>2026-05-01T13:28:27.852Z</time></trkpt><trkpt lat="45.8977948" lon="8.8975907"><ele>284.79999999999995</ele><time>2026-05-01T13:28:28.852Z</time></trkpt><trkpt lat="45.8978744" lon="8.8976959"><ele>284.4</ele><time>2026-05-01T13:28:29.851Z</time></trkpt><trkpt lat="45.8979601" lon="8.8978048"><ele>284.0</ele><time>2026-05-01T13:28:30.851Z</time></trkpt><trkpt lat="45.8980451" lon="8.8979197"><ele>284.0</ele><time>2026-05-01T13:28:31.851Z</time></trkpt><trkpt lat="45.8981324" lon="8.8980369"><ele>284.0</ele><time>2026-05-01T13:28:32.852Z</time></trkpt><trkpt lat="45.89822" lon="8.8981526"><ele>284.0</ele><time>2026-05-01T13:28:33.852Z</time></trkpt><trkpt lat="45.8983079" lon="8.8982645"><ele>284.0</ele><time>2026-05-01T13:28:34.852Z</time></trkpt><trkpt lat="45.8983874" lon="8.8983769"><ele>283.4</ele><time>2026-05-01T13:28:35.852Z</time></trkpt><trkpt lat="45.8984681" lon="8.8984924"><ele>282.79999999999995</ele><time>2026-05-01T13:28:36.852Z</time></trkpt><trkpt lat="45.8985425" lon="8.8986012"><ele>282.20000000000005</ele><time>2026-05-01T13:28:37.851Z</time></trkpt><trkpt lat="45.8986183" lon="8.8987036"><ele>281.6</ele><time>2026-05-01T13:28:38.853Z</time></trkpt><trkpt lat="45.8986931" lon="8.8988137"><ele>281.0</ele><time>2026-05-01T13:28:39.852Z</time></trkpt><trkpt lat="45.89877" lon="8.8989356"><ele>281.0</ele><time>2026-05-01T13:28:40.853Z</time></trkpt><trkpt lat="45.8988443" lon="8.8990546"><ele>281.0</ele><time>2026-05-01T13:28:41.851Z</time></trkpt><trkpt lat="45.8989271" lon="8.8991716"><ele>281.0</ele><time>2026-05-01T13:28:42.851Z</time></trkpt><trkpt lat="45.8990101" lon="8.8992884"><ele>281.0</ele><time>2026-05-01T13:28:43.852Z</time></trkpt><trkpt lat="45.8990934" lon="8.8994109"><ele>281.5</ele><time>2026-05-01T13:28:44.851Z</time></trkpt><trkpt lat="45.8991801" lon="8.8995311"><ele>282.0</ele><time>2026-05-01T13:28:45.852Z</time></trkpt><trkpt lat="45.8992599" lon="8.8996632"><ele>282.5</ele><time>2026-05-01T13:28:46.85Z</time></trkpt><trkpt lat="45.8993421" lon="8.8997903"><ele>283.0</ele><time>2026-05-01T13:28:47.852Z</time></trkpt><trkpt lat="45.8994142" lon="8.8999243"><ele>283.0</ele><time>2026-05-01T13:28:48.851Z</time></trkpt><trkpt lat="45.8994871" lon="8.9000634"><ele>283.0</ele><time>2026-05-01T13:28:49.852Z</time></trkpt><trkpt lat="45.8995701" lon="8.9002013"><ele>283.0</ele><time>2026-05-01T13:28:50.852Z</time></trkpt><trkpt lat="45.8996441" lon="8.9003256"><ele>283.0</ele><time>2026-05-01T13:28:51.852Z</time></trkpt><trkpt lat="45.8997134" lon="8.9004535"><ele>283.0</ele><time>2026-05-01T13:28:52.852Z</time></trkpt><trkpt lat="45.8997805" lon="8.9005764"><ele>283.0</ele><time>2026-05-01T13:28:53.852Z</time></trkpt><trkpt lat="45.8998542" lon="8.9006973"><ele>283.0</ele><time>2026-05-01T13:28:54.851Z</time></trkpt><trkpt lat="45.8999225" lon="8.9008123"><ele>283.0</ele><time>2026-05-01T13:28:55.851Z</time></trkpt><trkpt lat="45.8999863" lon="8.9009371"><ele>283.0</ele><time>2026-05-01T13:28:56.852Z</time></trkpt><trkpt lat="45.900052" lon="8.9010547"><ele>282.2</ele><time>2026-05-01T13:28:57.852Z</time></trkpt><trkpt lat="45.9001115" lon="8.9011728"><ele>281.4</ele><time>2026-05-01T13:28:58.852Z</time></trkpt><trkpt lat="45.9001787" lon="8.9012974"><ele>280.59999999999997</ele><time>2026-05-01T13:28:59.851Z</time></trkpt><trkpt lat="45.9002467" lon="8.9014119"><ele>279.8</ele><time>2026-05-01T13:29:00.851Z</time></trkpt><trkpt lat="45.900306" lon="8.9015236"><ele>279.0</ele><time>2026-05-01T13:29:01.852Z</time></trkpt><trkpt lat="45.9003623" lon="8.901627"><ele>279.0</ele><time>2026-05-01T13:29:02.851Z</time></trkpt><trkpt lat="45.9004166" lon="8.901728"><ele>279.0</ele><time>2026-05-01T13:29:03.851Z</time></trkpt><trkpt lat="45.9004692" lon="8.9018206"><ele>279.0</ele><time>2026-05-01T13:29:04.851Z</time></trkpt><trkpt lat="45.9005247" lon="8.9019235"><ele>279.0</ele><time>2026-05-01T13:29:05.852Z</time></trkpt><trkpt lat="45.9005774" lon="8.9020175"><ele>279.0</ele><time>2026-05-01T13:29:06.851Z</time></trkpt><trkpt lat="45.9006299" lon="8.9021148"><ele>279.0</ele><time>2026-05-01T13:29:07.851Z</time></trkpt><trkpt lat="45.9006796" lon="8.9022028"><ele>279.2</ele><time>2026-05-01T13:29:08.851Z</time></trkpt><trkpt lat="45.9007231" lon="8.9022759"><ele>279.4</ele><time>2026-05-01T13:29:09.851Z</time></trkpt><trkpt lat="45.9007974" lon="8.9023954"><ele>279.6</ele><time>2026-05-01T13:29:11.852Z</time></trkpt><trkpt lat="45.9008685" lon="8.9025298"><ele>279.8</ele><time>2026-05-01T13:29:13.852Z</time></trkpt><trkpt lat="45.9009202" lon="8.9026151"><ele>280.0</ele><time>2026-05-01T13:29:14.851Z</time></trkpt><trkpt lat="45.9009725" lon="8.9027048"><ele>280.0</ele><time>2026-05-01T13:29:15.851Z</time></trkpt><trkpt lat="45.901033" lon="8.9027996"><ele>280.0</ele><time>2026-05-01T13:29:16.852Z</time></trkpt><trkpt lat="45.9011064" lon="8.9029212"><ele>280.0</ele><time>2026-05-01T13:29:17.852Z</time></trkpt><trkpt lat="45.9011975" lon="8.9030552"><ele>280.0</ele><time>2026-05-01T13:29:18.852Z</time></trkpt><trkpt lat="45.9012891" lon="8.9031749"><ele>280.0</ele><time>2026-05-01T13:29:19.85Z</time></trkpt><trkpt lat="45.9013658" lon="8.9032726"><ele>280.0</ele><time>2026-05-01T13:29:20.852Z</time></trkpt><trkpt lat="45.9014498" lon="8.9033537"><ele>280.0</ele><time>2026-05-01T13:29:21.852Z</time></trkpt><trkpt lat="45.9015425" lon="8.9034323"><ele>280.0</ele><time>2026-05-01T13:29:22.851Z</time></trkpt><trkpt lat="45.9016325" lon="8.9035037"><ele>280.0</ele><time>2026-05-01T13:29:23.852Z</time></trkpt><trkpt lat="45.9017193" lon="8.9035661"><ele>279.8333333333333</ele><time>2026-05-01T13:29:24.852Z</time></trkpt><trkpt lat="45.901793" lon="8.9036184"><ele>279.66666666666663</ele><time>2026-05-01T13:29:25.852Z</time></trkpt><trkpt lat="45.9018672" lon="8.9036631"><ele>279.5</ele><time>2026-05-01T13:29:26.851Z</time></trkpt><trkpt lat="45.9019417" lon="8.9037107"><ele>279.3333333333333</ele><time>2026-05-01T13:29:27.849Z</time></trkpt><trkpt lat="45.9020224" lon="8.9037409"><ele>279.1666666666667</ele><time>2026-05-01T13:29:28.851Z</time></trkpt><trkpt lat="45.9020965" lon="8.9038022"><ele>279.0</ele><time>2026-05-01T13:29:29.851Z</time></trkpt><trkpt lat="45.9021646" lon="8.9038607"><ele>279.0</ele><time>2026-05-01T13:29:30.851Z</time></trkpt><trkpt lat="45.9022313" lon="8.903917"><ele>279.0</ele><time>2026-05-01T13:29:31.85Z</time></trkpt><trkpt lat="45.902293" lon="8.9039711"><ele>279.0</ele><time>2026-05-01T13:29:32.851Z</time></trkpt><trkpt lat="45.902384" lon="8.9040415"><ele>279.0</ele><time>2026-05-01T13:29:34.852Z</time></trkpt><trkpt lat="45.90246" lon="8.904106"><ele>279.0</ele><time>2026-05-01T13:29:36.851Z</time></trkpt><trkpt lat="45.9025319" lon="8.9041271"><ele>279.0</ele><time>2026-05-01T13:29:38.85Z</time></trkpt><trkpt lat="45.9025814" lon="8.904034"><ele>278.0</ele><time>2026-05-01T13:29:40.851Z</time></trkpt><trkpt lat="45.9025948" lon="8.9039421"><ele>277.0</ele><time>2026-05-01T13:29:41.852Z</time></trkpt><trkpt lat="45.902602" lon="8.9038361"><ele>276.0</ele><time>2026-05-01T13:29:42.852Z</time></trkpt><trkpt lat="45.9026076" lon="8.90371"><ele>275.0</ele><time>2026-05-01T13:29:43.852Z</time></trkpt><trkpt lat="45.9026194" lon="8.9035714"><ele>274.0</ele><time>2026-05-01T13:29:44.851Z</time></trkpt><trkpt lat="45.9026349" lon="8.903412"><ele>273.0</ele><time>2026-05-01T13:29:45.851Z</time></trkpt><trkpt lat="45.9026472" lon="8.9032416"><ele>272.75</ele><time>2026-05-01T13:29:46.851Z</time></trkpt><trkpt lat="45.9026674" lon="8.9030558"><ele>272.5</ele><time>2026-05-01T13:29:47.851Z</time></trkpt><trkpt lat="45.9027086" lon="8.9028424"><ele>272.25</ele><time>2026-05-01T13:29:48.852Z</time></trkpt><trkpt lat="45.9027538" lon="8.9026177"><ele>272.0</ele><time>2026-05-01T13:29:49.852Z</time></trkpt><trkpt lat="45.9027983" lon="8.9024015"><ele>272.25</ele><time>2026-05-01T13:29:50.852Z</time></trkpt><trkpt lat="45.902834" lon="8.9022103"><ele>272.5</ele><time>2026-05-01T13:29:51.851Z</time></trkpt><trkpt lat="45.9028735" lon="8.9020155"><ele>272.75</ele><time>2026-05-01T13:29:52.851Z</time></trkpt><trkpt lat="45.9029303" lon="8.901871"><ele>273.0</ele><time>2026-05-01T13:29:53.851Z</time></trkpt><trkpt lat="45.9029982" lon="8.9017211"><ele>273.0</ele><time>2026-05-01T13:29:54.853Z</time></trkpt><trkpt lat="45.9030767" lon="8.9015992"><ele>273.0</ele><time>2026-05-01T13:29:55.852Z</time></trkpt><trkpt lat="45.9031622" lon="8.9014896"><ele>273.0</ele><time>2026-05-01T13:29:56.851Z</time></trkpt><trkpt lat="45.9032613" lon="8.9013919"><ele>273.0</ele><time>2026-05-01T13:29:57.851Z</time></trkpt><trkpt lat="45.9033691" lon="8.9012879"><ele>273.0</ele><time>2026-05-01T13:29:58.851Z</time></trkpt><trkpt lat="45.90348" lon="8.9011801"><ele>273.0</ele><time>2026-05-01T13:29:59.852Z</time></trkpt><trkpt lat="45.9035923" lon="8.901052"><ele>273.0</ele><time>2026-05-01T13:30:00.852Z</time></trkpt><trkpt lat="45.9037022" lon="8.9009226"><ele>273.0</ele><time>2026-05-01T13:30:01.851Z</time></trkpt><trkpt lat="45.9038073" lon="8.9007805"><ele>273.0</ele><time>2026-05-01T13:30:02.851Z</time></trkpt><trkpt lat="45.9039095" lon="8.9006334"><ele>273.0</ele><time>2026-05-01T13:30:03.852Z</time></trkpt><trkpt lat="45.9040092" lon="8.9004884"><ele>273.0</ele><time>2026-05-01T13:30:04.852Z</time></trkpt><trkpt lat="45.9041115" lon="8.9003338"><ele>273.0</ele><time>2026-05-01T13:30:05.852Z</time></trkpt><trkpt lat="45.9042001" lon="8.9001667"><ele>271.3333333333333</ele><time>2026-05-01T13:30:06.852Z</time></trkpt><trkpt lat="45.904275" lon="8.8999832"><ele>269.66666666666663</ele><time>2026-05-01T13:30:07.85Z</time></trkpt><trkpt lat="45.9043363" lon="8.8997817"><ele>268.0</ele><time>2026-05-01T13:30:08.852Z</time></trkpt><trkpt lat="45.9043974" lon="8.8995614"><ele>268.0</ele><time>2026-05-01T13:30:09.851Z</time></trkpt><trkpt lat="45.904465" lon="8.8993467"><ele>268.0</ele><time>2026-05-01T13:30:10.851Z</time></trkpt><trkpt lat="45.9045337" lon="8.8991375"><ele>268.0</ele><time>2026-05-01T13:30:11.85Z</time></trkpt><trkpt lat="45.904613" lon="8.8989336"><ele>268.75</ele><time>2026-05-01T13:30:12.852Z</time></trkpt><trkpt lat="45.9046866" lon="8.8987513"><ele>269.5</ele><time>2026-05-01T13:30:13.851Z</time></trkpt><trkpt lat="45.9047611" lon="8.8985823"><ele>270.25</ele><time>2026-05-01T13:30:14.852Z</time></trkpt><trkpt lat="45.904833" lon="8.8984263"><ele>271.0</ele><time>2026-05-01T13:30:15.852Z</time></trkpt><trkpt lat="45.9049066" lon="8.8982737"><ele>271.2</ele><time>2026-05-01T13:30:16.851Z</time></trkpt><trkpt lat="45.9049817" lon="8.8981298"><ele>271.40000000000003</ele><time>2026-05-01T13:30:17.852Z</time></trkpt><trkpt lat="45.9050402" lon="8.8979902"><ele>271.6</ele><time>2026-05-01T13:30:18.852Z</time></trkpt><trkpt lat="45.9051013" lon="8.8978667"><ele>271.8</ele><time>2026-05-01T13:30:19.851Z</time></trkpt><trkpt lat="45.905159" lon="8.8977592"><ele>272.0</ele><time>2026-05-01T13:30:20.852Z</time></trkpt><trkpt lat="45.9052204" lon="8.8976597"><ele>272.2</ele><time>2026-05-01T13:30:21.85Z</time></trkpt><trkpt lat="45.9052884" lon="8.8975738"><ele>272.4</ele><time>2026-05-01T13:30:22.853Z</time></trkpt><trkpt lat="45.9053478" lon="8.8974572"><ele>272.6</ele><time>2026-05-01T13:30:23.85Z</time></trkpt><trkpt lat="45.9053952" lon="8.8973146"><ele>272.8</ele><time>2026-05-01T13:30:24.851Z</time></trkpt><trkpt lat="45.9054558" lon="8.8971601"><ele>273.0</ele><time>2026-05-01T13:30:25.852Z</time></trkpt><trkpt lat="45.9055306" lon="8.8970052"><ele>273.0</ele><time>2026-05-01T13:30:26.85Z</time></trkpt><trkpt lat="45.9056067" lon="8.8968583"><ele>273.0</ele><time>2026-05-01T13:30:27.852Z</time></trkpt><trkpt lat="45.9056806" lon="8.8967282"><ele>273.0</ele><time>2026-05-01T13:30:28.851Z</time></trkpt><trkpt lat="45.9057475" lon="8.8966193"><ele>273.0</ele><time>2026-05-01T13:30:29.852Z</time></trkpt><trkpt lat="45.9058146" lon="8.8965176"><ele>273.0</ele><time>2026-05-01T13:30:30.852Z</time></trkpt><trkpt lat="45.9058759" lon="8.896423"><ele>272.8333333333333</ele><time>2026-05-01T13:30:31.852Z</time></trkpt><trkpt lat="45.9059402" lon="8.8963237"><ele>272.6666666666667</ele><time>2026-05-01T13:30:32.85Z</time></trkpt><trkpt lat="45.906005" lon="8.8962238"><ele>272.5</ele><time>2026-05-01T13:30:33.852Z</time></trkpt><trkpt lat="45.9060699" lon="8.8961412"><ele>272.33333333333337</ele><time>2026-05-01T13:30:34.851Z</time></trkpt><trkpt lat="45.9061278" lon="8.8960486"><ele>272.1666666666667</ele><time>2026-05-01T13:30:35.852Z</time></trkpt><trkpt lat="45.9061815" lon="8.8959568"><ele>272.0</ele><time>2026-05-01T13:30:36.851Z</time></trkpt><trkpt lat="45.9062375" lon="8.895865"><ele>272.8</ele><time>2026-05-01T13:30:37.851Z</time></trkpt><trkpt lat="45.9062988" lon="8.8957821"><ele>273.6</ele><time>2026-05-01T13:30:38.851Z</time></trkpt><trkpt lat="45.9063722" lon="8.8957021"><ele>274.40000000000003</ele><time>2026-05-01T13:30:39.852Z</time></trkpt><trkpt lat="45.906457" lon="8.8956355"><ele>275.2</ele><time>2026-05-01T13:30:40.851Z</time></trkpt><trkpt lat="45.9065528" lon="8.8955656"><ele>276.0</ele><time>2026-05-01T13:30:41.851Z</time></trkpt><trkpt lat="45.9066402" lon="8.895512"><ele>276.0</ele><time>2026-05-01T13:30:42.851Z</time></trkpt><trkpt lat="45.9067317" lon="8.8954815"><ele>276.0</ele><time>2026-05-01T13:30:43.851Z</time></trkpt><trkpt lat="45.9068133" lon="8.8954629"><ele>276.0</ele><time>2026-05-01T13:30:44.851Z</time></trkpt><trkpt lat="45.9068931" lon="8.8954695"><ele>276.0</ele><time>2026-05-01T13:30:45.853Z</time></trkpt><trkpt lat="45.9069688" lon="8.8954941"><ele>276.0</ele><time>2026-05-01T13:30:46.851Z</time></trkpt><trkpt lat="45.9070505" lon="8.8955406"><ele>276.0</ele><time>2026-05-01T13:30:47.851Z</time></trkpt><trkpt lat="45.9071358" lon="8.8955806"><ele>277.0</ele><time>2026-05-01T13:30:48.851Z</time></trkpt><trkpt lat="45.9072179" lon="8.8956267"><ele>278.0</ele><time>2026-05-01T13:30:49.85Z</time></trkpt><trkpt lat="45.9073032" lon="8.8956784"><ele>279.0</ele><time>2026-05-01T13:30:50.852Z</time></trkpt><trkpt lat="45.9073795" lon="8.8957107"><ele>280.0</ele><time>2026-05-01T13:30:51.852Z</time></trkpt><trkpt lat="45.9074475" lon="8.8957448"><ele>281.0</ele><time>2026-05-01T13:30:52.85Z</time></trkpt><trkpt lat="45.9075191" lon="8.8957783"><ele>282.0</ele><time>2026-05-01T13:30:53.852Z</time></trkpt><trkpt lat="45.907581" lon="8.895821"><ele>282.3333333333333</ele><time>2026-05-01T13:30:54.852Z</time></trkpt><trkpt lat="45.90765" lon="8.8958643"><ele>282.6666666666667</ele><time>2026-05-01T13:30:55.852Z</time></trkpt><trkpt lat="45.9077195" lon="8.8959023"><ele>283.0</ele><time>2026-05-01T13:30:56.851Z</time></trkpt><trkpt lat="45.9077984" lon="8.8959447"><ele>283.33333333333337</ele><time>2026-05-01T13:30:57.852Z</time></trkpt><trkpt lat="45.907884" lon="8.8959825"><ele>283.6666666666667</ele><time>2026-05-01T13:30:58.852Z</time></trkpt><trkpt lat="45.9079583" lon="8.8960279"><ele>284.0</ele><time>2026-05-01T13:30:59.851Z</time></trkpt><trkpt lat="45.9080331" lon="8.8960788"><ele>284.0</ele><time>2026-05-01T13:31:00.85Z</time></trkpt><trkpt lat="45.9081114" lon="8.8961604"><ele>284.0</ele><time>2026-05-01T13:31:01.851Z</time></trkpt><trkpt lat="45.9081853" lon="8.8962667"><ele>284.0</ele><time>2026-05-01T13:31:02.851Z</time></trkpt><trkpt lat="45.9082773" lon="8.8963653"><ele>284.0</ele><time>2026-05-01T13:31:03.852Z</time></trkpt><trkpt lat="45.9083691" lon="8.8964715"><ele>284.0</ele><time>2026-05-01T13:31:04.852Z</time></trkpt><trkpt lat="45.9084587" lon="8.8965911"><ele>284.75</ele><time>2026-05-01T13:31:05.852Z</time></trkpt><trkpt lat="45.9085613" lon="8.896715"><ele>285.5</ele><time>2026-05-01T13:31:06.851Z</time></trkpt><trkpt lat="45.9086649" lon="8.8968415"><ele>286.25</ele><time>2026-05-01T13:31:07.851Z</time></trkpt><trkpt lat="45.9087608" lon="8.8969647"><ele>287.0</ele><time>2026-05-01T13:31:08.851Z</time></trkpt><trkpt lat="45.9088578" lon="8.8970851"><ele>287.0</ele><time>2026-05-01T13:31:09.851Z</time></trkpt><trkpt lat="45.9089468" lon="8.8972044"><ele>287.0</ele><time>2026-05-01T13:31:10.852Z</time></trkpt><trkpt lat="45.9090333" lon="8.8973212"><ele>287.0</ele><time>2026-05-01T13:31:11.852Z</time></trkpt><trkpt lat="45.9091079" lon="8.8974329"><ele>287.0</ele><time>2026-05-01T13:31:12.851Z</time></trkpt><trkpt lat="45.9091774" lon="8.8975441"><ele>285.0</ele><time>2026-05-01T13:31:13.852Z</time></trkpt><trkpt lat="45.9092569" lon="8.8976419"><ele>283.0</ele><time>2026-05-01T13:31:14.851Z</time></trkpt><trkpt lat="45.909338" lon="8.8977212"><ele>281.0</ele><time>2026-05-01T13:31:15.852Z</time></trkpt><trkpt lat="45.909424" lon="8.89778"><ele>279.0</ele><time>2026-05-01T13:31:16.852Z</time></trkpt><trkpt lat="45.9095396" lon="8.8977775"><ele>277.0</ele><time>2026-05-01T13:31:17.851Z</time></trkpt><trkpt lat="45.909651" lon="8.8977696"><ele>277.0</ele><time>2026-05-01T13:31:18.851Z</time></trkpt><trkpt lat="45.9097688" lon="8.8977478"><ele>277.0</ele><time>2026-05-01T13:31:19.852Z</time></trkpt><trkpt lat="45.9098937" lon="8.8977506"><ele>277.0</ele><time>2026-05-01T13:31:20.85Z</time></trkpt><trkpt lat="45.9100342" lon="8.897762"><ele>277.0</ele><time>2026-05-01T13:31:21.851Z</time></trkpt><trkpt lat="45.9101637" lon="8.8977813"><ele>276.8</ele><time>2026-05-01T13:31:22.851Z</time></trkpt><trkpt lat="45.910281" lon="8.8978032"><ele>276.6</ele><time>2026-05-01T13:31:23.852Z</time></trkpt><trkpt lat="45.9103915" lon="8.8978225"><ele>276.40000000000003</ele><time>2026-05-01T13:31:24.851Z</time></trkpt><trkpt lat="45.9104965" lon="8.897836"><ele>276.2</ele><time>2026-05-01T13:31:25.852Z</time></trkpt><trkpt lat="45.910608" lon="8.8978584"><ele>276.0</ele><time>2026-05-01T13:31:26.852Z</time></trkpt><trkpt lat="45.9107149" lon="8.8978853"><ele>276.0</ele><time>2026-05-01T13:31:27.851Z</time></trkpt><trkpt lat="45.9108229" lon="8.897904"><ele>276.0</ele><time>2026-05-01T13:31:28.851Z</time></trkpt><trkpt lat="45.910935" lon="8.8979083"><ele>276.0</ele><time>2026-05-01T13:31:29.852Z</time></trkpt><trkpt lat="45.9110524" lon="8.8979063"><ele>276.0</ele><time>2026-05-01T13:31:30.85Z</time></trkpt><trkpt lat="45.9111848" lon="8.8978997"><ele>276.3333333333333</ele><time>2026-05-01T13:31:31.852Z</time></trkpt><trkpt lat="45.9113417" lon="8.8978936"><ele>276.66666666666663</ele><time>2026-05-01T13:31:32.852Z</time></trkpt><trkpt lat="45.9115176" lon="8.8978806"><ele>277.0</ele><time>2026-05-01T13:31:33.85Z</time></trkpt><trkpt lat="45.9117028" lon="8.8978709"><ele>278.0</ele><time>2026-05-01T13:31:34.852Z</time></trkpt><trkpt lat="45.9118928" lon="8.8978604"><ele>279.0</ele><time>2026-05-01T13:31:35.851Z</time></trkpt><trkpt lat="45.9120677" lon="8.8978398"><ele>280.0</ele><time>2026-05-01T13:31:36.85Z</time></trkpt><trkpt lat="45.9122159" lon="8.8978294"><ele>280.0</ele><time>2026-05-01T13:31:37.851Z</time></trkpt><trkpt lat="45.9123561" lon="8.8978196"><ele>280.0</ele><time>2026-05-01T13:31:38.851Z</time></trkpt><trkpt lat="45.9124892" lon="8.8978128"><ele>280.0</ele><time>2026-05-01T13:31:39.852Z</time></trkpt><trkpt lat="45.9126175" lon="8.8978086"><ele>280.0</ele><time>2026-05-01T13:31:40.852Z</time></trkpt><trkpt lat="45.9127487" lon="8.8978"><ele>281.0</ele><time>2026-05-01T13:31:41.851Z</time></trkpt><trkpt lat="45.9128815" lon="8.8977954"><ele>282.0</ele><time>2026-05-01T13:31:42.852Z</time></trkpt><trkpt lat="45.9130107" lon="8.8977939"><ele>283.0</ele><time>2026-05-01T13:31:43.85Z</time></trkpt><trkpt lat="45.913129" lon="8.8978118"><ele>284.0</ele><time>2026-05-01T13:31:44.851Z</time></trkpt><trkpt lat="45.9132468" lon="8.8978256"><ele>284.0</ele><time>2026-05-01T13:31:45.851Z</time></trkpt><trkpt lat="45.9133669" lon="8.8978513"><ele>284.0</ele><time>2026-05-01T13:31:46.851Z</time></trkpt><trkpt lat="45.9134855" lon="8.8978851"><ele>284.0</ele><time>2026-05-01T13:31:47.851Z</time></trkpt><trkpt lat="45.9135994" lon="8.8979164"><ele>284.0</ele><time>2026-05-01T13:31:48.851Z</time></trkpt><trkpt lat="45.9137169" lon="8.8979378"><ele>285.25</ele><time>2026-05-01T13:31:49.85Z</time></trkpt><trkpt lat="45.9138441" lon="8.8979526"><ele>286.5</ele><time>2026-05-01T13:31:50.851Z</time></trkpt><trkpt lat="45.9139708" lon="8.8979595"><ele>287.75</ele><time>2026-05-01T13:31:51.851Z</time></trkpt><trkpt lat="45.914101" lon="8.8979679"><ele>289.0</ele><time>2026-05-01T13:31:52.852Z</time></trkpt><trkpt lat="45.9142255" lon="8.8979745"><ele>289.75</ele><time>2026-05-01T13:31:53.852Z</time></trkpt><trkpt lat="45.9143455" lon="8.8979862"><ele>290.5</ele><time>2026-05-01T13:31:54.852Z</time></trkpt><trkpt lat="45.9144644" lon="8.8979966"><ele>291.25</ele><time>2026-05-01T13:31:55.85Z</time></trkpt><trkpt lat="45.9145868" lon="8.8980134"><ele>292.0</ele><time>2026-05-01T13:31:56.851Z</time></trkpt><trkpt lat="45.9147091" lon="8.8980482"><ele>292.0</ele><time>2026-05-01T13:31:57.85Z</time></trkpt><trkpt lat="45.9148349" lon="8.8981024"><ele>292.0</ele><time>2026-05-01T13:31:58.853Z</time></trkpt><trkpt lat="45.9149601" lon="8.8981633"><ele>292.0</ele><time>2026-05-01T13:31:59.85Z</time></trkpt><trkpt lat="45.9150812" lon="8.8982347"><ele>292.0</ele><time>2026-05-01T13:32:00.851Z</time></trkpt><trkpt lat="45.9151981" lon="8.8983053"><ele>294.75</ele><time>2026-05-01T13:32:01.852Z</time></trkpt><trkpt lat="45.9153144" lon="8.8983763"><ele>297.5</ele><time>2026-05-01T13:32:02.85Z</time></trkpt><trkpt lat="45.9154231" lon="8.8984512"><ele>300.25</ele><time>2026-05-01T13:32:03.851Z</time></trkpt><trkpt lat="45.915533" lon="8.8985277"><ele>303.0</ele><time>2026-05-01T13:32:04.85Z</time></trkpt><trkpt lat="45.91564" lon="8.8986028"><ele>294.5</ele><time>2026-05-01T13:32:05.851Z</time></trkpt><trkpt lat="45.9157484" lon="8.8986719"><ele>286.0</ele><time>2026-05-01T13:32:06.851Z</time></trkpt><trkpt lat="45.9158666" lon="8.898735"><ele>277.5</ele><time>2026-05-01T13:32:07.851Z</time></trkpt><trkpt lat="45.9160179" lon="8.8987543"><ele>269.0</ele><time>2026-05-01T13:32:08.852Z</time></trkpt><trkpt lat="45.9161761" lon="8.8987766"><ele>262.33333333333337</ele><time>2026-05-01T13:32:09.851Z</time></trkpt><trkpt lat="45.9163721" lon="8.8987895"><ele>255.66666666666669</ele><time>2026-05-01T13:32:10.851Z</time></trkpt><trkpt lat="45.9165549" lon="8.8988094"><ele>249.0</ele><time>2026-05-01T13:32:11.851Z</time></trkpt><trkpt lat="45.9167308" lon="8.8988292"><ele>249.0</ele><time>2026-05-01T13:32:12.851Z</time></trkpt><trkpt lat="45.9168869" lon="8.898844"><ele>249.0</ele><time>2026-05-01T13:32:13.851Z</time></trkpt><trkpt lat="45.9170355" lon="8.8988616"><ele>249.0</ele><time>2026-05-01T13:32:14.851Z</time></trkpt><trkpt lat="45.9171791" lon="8.8988728"><ele>249.0</ele><time>2026-05-01T13:32:15.851Z</time></trkpt><trkpt lat="45.9173165" lon="8.8988789"><ele>256.25</ele><time>2026-05-01T13:32:16.852Z</time></trkpt><trkpt lat="45.9174399" lon="8.8988949"><ele>263.5</ele><time>2026-05-01T13:32:17.851Z</time></trkpt><trkpt lat="45.9175601" lon="8.8989258"><ele>270.75</ele><time>2026-05-01T13:32:18.852Z</time></trkpt><trkpt lat="45.9176784" lon="8.8989603"><ele>278.0</ele><time>2026-05-01T13:32:19.851Z</time></trkpt><trkpt lat="45.917795" lon="8.898991"><ele>278.0</ele><time>2026-05-01T13:32:20.851Z</time></trkpt><trkpt lat="45.9179108" lon="8.8990254"><ele>278.0</ele><time>2026-05-01T13:32:21.851Z</time></trkpt><trkpt lat="45.9180237" lon="8.8990561"><ele>278.0</ele><time>2026-05-01T13:32:22.852Z</time></trkpt><trkpt lat="45.9181289" lon="8.8990923"><ele>278.0</ele><time>2026-05-01T13:32:23.852Z</time></trkpt><trkpt lat="45.9182263" lon="8.8991176"><ele>278.0</ele><time>2026-05-01T13:32:24.851Z</time></trkpt><trkpt lat="45.918324" lon="8.8991408"><ele>277.4</ele><time>2026-05-01T13:32:25.851Z</time></trkpt><trkpt lat="45.9184171" lon="8.8991524"><ele>276.8</ele><time>2026-05-01T13:32:26.852Z</time></trkpt><trkpt lat="45.9185231" lon="8.899146"><ele>276.2</ele><time>2026-05-01T13:32:27.852Z</time></trkpt><trkpt lat="45.9186222" lon="8.899117"><ele>275.6</ele><time>2026-05-01T13:32:28.85Z</time></trkpt><trkpt lat="45.9187144" lon="8.8990501"><ele>275.0</ele><time>2026-05-01T13:32:29.85Z</time></trkpt><trkpt lat="45.9188034" lon="8.8989713"><ele>275.0</ele><time>2026-05-01T13:32:30.851Z</time></trkpt><trkpt lat="45.9188901" lon="8.8988541"><ele>275.0</ele><time>2026-05-01T13:32:31.85Z</time></trkpt><trkpt lat="45.9189807" lon="8.8987174"><ele>275.0</ele><time>2026-05-01T13:32:32.851Z</time></trkpt><trkpt lat="45.9190728" lon="8.8985647"><ele>275.0</ele><time>2026-05-01T13:32:33.852Z</time></trkpt><trkpt lat="45.9191642" lon="8.8984088"><ele>275.25</ele><time>2026-05-01T13:32:34.851Z</time></trkpt><trkpt lat="45.9192561" lon="8.8982508"><ele>275.5</ele><time>2026-05-01T13:32:35.853Z</time></trkpt><trkpt lat="45.9193395" lon="8.8980963"><ele>275.75</ele><time>2026-05-01T13:32:36.851Z</time></trkpt><trkpt lat="45.919419" lon="8.8979511"><ele>276.0</ele><time>2026-05-01T13:32:37.851Z</time></trkpt><trkpt lat="45.9194926" lon="8.8978197"><ele>276.0</ele><time>2026-05-01T13:32:38.851Z</time></trkpt><trkpt lat="45.919572" lon="8.8976901"><ele>276.0</ele><time>2026-05-01T13:32:39.851Z</time></trkpt><trkpt lat="45.9196197" lon="8.8975194"><ele>276.0</ele><time>2026-05-01T13:32:40.851Z</time></trkpt><trkpt lat="45.9196677" lon="8.8973592"><ele>276.0</ele><time>2026-05-01T13:32:41.851Z</time></trkpt><trkpt lat="45.919705" lon="8.8972025"><ele>275.8</ele><time>2026-05-01T13:32:42.851Z</time></trkpt><trkpt lat="45.9197387" lon="8.8970595"><ele>275.6</ele><time>2026-05-01T13:32:43.85Z</time></trkpt><trkpt lat="45.91976" lon="8.8969026"><ele>275.4</ele><time>2026-05-01T13:32:44.851Z</time></trkpt><trkpt lat="45.9197965" lon="8.8967499"><ele>275.2</ele><time>2026-05-01T13:32:45.852Z</time></trkpt><trkpt lat="45.919841" lon="8.8965944"><ele>275.0</ele><time>2026-05-01T13:32:46.852Z</time></trkpt><trkpt lat="45.9198825" lon="8.8964415"><ele>275.25</ele><time>2026-05-01T13:32:47.852Z</time></trkpt><trkpt lat="45.9199448" lon="8.8962971"><ele>275.5</ele><time>2026-05-01T13:32:48.852Z</time></trkpt><trkpt lat="45.92001" lon="8.8961471"><ele>275.75</ele><time>2026-05-01T13:32:49.852Z</time></trkpt><trkpt lat="45.9200829" lon="8.8960111"><ele>276.0</ele><time>2026-05-01T13:32:50.852Z</time></trkpt><trkpt lat="45.9201553" lon="8.8958719"><ele>276.0</ele><time>2026-05-01T13:32:51.851Z</time></trkpt><trkpt lat="45.9202376" lon="8.8957387"><ele>276.0</ele><time>2026-05-01T13:32:52.851Z</time></trkpt><trkpt lat="45.9203239" lon="8.8956034"><ele>276.0</ele><time>2026-05-01T13:32:53.85Z</time></trkpt><trkpt lat="45.9204218" lon="8.8954604"><ele>276.0</ele><time>2026-05-01T13:32:54.852Z</time></trkpt><trkpt lat="45.9205136" lon="8.8953314"><ele>276.0</ele><time>2026-05-01T13:32:55.852Z</time></trkpt><trkpt lat="45.9205967" lon="8.8952141"><ele>276.0</ele><time>2026-05-01T13:32:56.852Z</time></trkpt><trkpt lat="45.9206866" lon="8.8951119"><ele>276.0</ele><time>2026-05-01T13:32:57.851Z</time></trkpt><trkpt lat="45.9207745" lon="8.8950092"><ele>276.0</ele><time>2026-05-01T13:32:58.85Z</time></trkpt><trkpt lat="45.9208749" lon="8.8949005"><ele>276.5</ele><time>2026-05-01T13:32:59.851Z</time></trkpt><trkpt lat="45.9209765" lon="8.8947837"><ele>277.0</ele><time>2026-05-01T13:33:00.851Z</time></trkpt><trkpt lat="45.9210737" lon="8.8946641"><ele>277.5</ele><time>2026-05-01T13:33:01.851Z</time></trkpt><trkpt lat="45.9211722" lon="8.8945313"><ele>278.0</ele><time>2026-05-01T13:33:02.851Z</time></trkpt><trkpt lat="45.9212659" lon="8.8944214"><ele>278.0</ele><time>2026-05-01T13:33:03.851Z</time></trkpt><trkpt lat="45.9213604" lon="8.8943144"><ele>278.0</ele><time>2026-05-01T13:33:04.851Z</time></trkpt><trkpt lat="45.9214411" lon="8.8942006"><ele>278.0</ele><time>2026-05-01T13:33:05.851Z</time></trkpt><trkpt lat="45.9215217" lon="8.8940923"><ele>278.0</ele><time>2026-05-01T13:33:06.851Z</time></trkpt><trkpt lat="45.9215879" lon="8.8939989"><ele>278.0</ele><time>2026-05-01T13:33:07.852Z</time></trkpt><trkpt lat="45.9216554" lon="8.8938916"><ele>278.75</ele><time>2026-05-01T13:33:08.852Z</time></trkpt><trkpt lat="45.9217199" lon="8.8937885"><ele>279.5</ele><time>2026-05-01T13:33:09.851Z</time></trkpt><trkpt lat="45.9217889" lon="8.8936506"><ele>280.25</ele><time>2026-05-01T13:33:10.851Z</time></trkpt><trkpt lat="45.9218558" lon="8.8934848"><ele>281.0</ele><time>2026-05-01T13:33:11.852Z</time></trkpt><trkpt lat="45.9219223" lon="8.8933046"><ele>277.6666666666667</ele><time>2026-05-01T13:33:12.852Z</time></trkpt><trkpt lat="45.9219917" lon="8.8930902"><ele>274.3333333333333</ele><time>2026-05-01T13:33:13.851Z</time></trkpt><trkpt lat="45.9220588" lon="8.8928523"><ele>271.0</ele><time>2026-05-01T13:33:14.85Z</time></trkpt><trkpt lat="45.9221115" lon="8.8926308"><ele>271.0</ele><time>2026-05-01T13:33:15.85Z</time></trkpt><trkpt lat="45.9221596" lon="8.8924209"><ele>271.0</ele><time>2026-05-01T13:33:16.851Z</time></trkpt><trkpt lat="45.9222117" lon="8.8922255"><ele>271.0</ele><time>2026-05-01T13:33:17.851Z</time></trkpt><trkpt lat="45.9222667" lon="8.8920479"><ele>271.0</ele><time>2026-05-01T13:33:18.852Z</time></trkpt><trkpt lat="45.9223283" lon="8.8918742"><ele>271.25</ele><time>2026-05-01T13:33:19.851Z</time></trkpt><trkpt lat="45.9224215" lon="8.891728"><ele>271.5</ele><time>2026-05-01T13:33:20.851Z</time></trkpt><trkpt lat="45.9225151" lon="8.8915862"><ele>271.75</ele><time>2026-05-01T13:33:21.852Z</time></trkpt><trkpt lat="45.9226321" lon="8.8914621"><ele>272.0</ele><time>2026-05-01T13:33:22.85Z</time></trkpt><trkpt lat="45.922751" lon="8.8913337"><ele>272.0</ele><time>2026-05-01T13:33:23.851Z</time></trkpt><trkpt lat="45.9228768" lon="8.8912137"><ele>272.0</ele><time>2026-05-01T13:33:24.851Z</time></trkpt><trkpt lat="45.9230038" lon="8.8911034"><ele>272.0</ele><time>2026-05-01T13:33:25.852Z</time></trkpt><trkpt lat="45.9231338" lon="8.8909988"><ele>272.0</ele><time>2026-05-01T13:33:26.851Z</time></trkpt><trkpt lat="45.923279" lon="8.8909073"><ele>275.0</ele><time>2026-05-01T13:33:27.851Z</time></trkpt><trkpt lat="45.923426" lon="8.8908291"><ele>278.0</ele><time>2026-05-01T13:33:28.852Z</time></trkpt><trkpt lat="45.9235789" lon="8.8907709"><ele>281.0</ele><time>2026-05-01T13:33:29.85Z</time></trkpt><trkpt lat="45.9237363" lon="8.8907295"><ele>281.0</ele><time>2026-05-01T13:33:30.851Z</time></trkpt><trkpt lat="45.9238946" lon="8.8907004"><ele>281.0</ele><time>2026-05-01T13:33:31.85Z</time></trkpt><trkpt lat="45.9240469" lon="8.8906718"><ele>281.0</ele><time>2026-05-01T13:33:32.851Z</time></trkpt><trkpt lat="45.9242061" lon="8.8906232"><ele>278.0</ele><time>2026-05-01T13:33:33.851Z</time></trkpt><trkpt lat="45.9243787" lon="8.8905443"><ele>275.0</ele><time>2026-05-01T13:33:34.851Z</time></trkpt><trkpt lat="45.9245776" lon="8.8904312"><ele>272.0</ele><time>2026-05-01T13:33:35.852Z</time></trkpt><trkpt lat="45.9247809" lon="8.8903125"><ele>272.0</ele><time>2026-05-01T13:33:36.85Z</time></trkpt><trkpt lat="45.9249987" lon="8.8901816"><ele>272.0</ele><time>2026-05-01T13:33:37.851Z</time></trkpt><trkpt lat="45.9252546" lon="8.8900869"><ele>281.5</ele><time>2026-05-01T13:33:38.851Z</time></trkpt><trkpt lat="45.9255004" lon="8.8899982"><ele>291.0</ele><time>2026-05-01T13:33:39.851Z</time></trkpt><trkpt lat="45.925748" lon="8.8898993"><ele>284.0</ele><time>2026-05-01T13:33:40.852Z</time></trkpt><trkpt lat="45.9259759" lon="8.889796"><ele>277.0</ele><time>2026-05-01T13:33:41.852Z</time></trkpt><trkpt lat="45.9261875" lon="8.8896946"><ele>277.0</ele><time>2026-05-01T13:33:42.85Z</time></trkpt><trkpt lat="45.9263777" lon="8.8895971"><ele>277.0</ele><time>2026-05-01T13:33:43.851Z</time></trkpt><trkpt lat="45.9265488" lon="8.8895147"><ele>277.0</ele><time>2026-05-01T13:33:44.852Z</time></trkpt><trkpt lat="45.9267074" lon="8.889464"><ele>275.3333333333333</ele><time>2026-05-01T13:33:45.851Z</time></trkpt><trkpt lat="45.9268676" lon="8.8894445"><ele>273.6666666666667</ele><time>2026-05-01T13:33:46.851Z</time></trkpt><trkpt lat="45.9270381" lon="8.8894482"><ele>272.0</ele><time>2026-05-01T13:33:47.851Z</time></trkpt><trkpt lat="45.9272206" lon="8.8894471"><ele>272.0</ele><time>2026-05-01T13:33:48.852Z</time></trkpt><trkpt lat="45.9274025" lon="8.8894411"><ele>272.0</ele><time>2026-05-01T13:33:49.85Z</time></trkpt><trkpt lat="45.9275935" lon="8.889429"><ele>272.0</ele><time>2026-05-01T13:33:50.851Z</time></trkpt><trkpt lat="45.927787" lon="8.8894139"><ele>271.6666666666667</ele><time>2026-05-01T13:33:51.851Z</time></trkpt><trkpt lat="45.927983" lon="8.8893966"><ele>271.3333333333333</ele><time>2026-05-01T13:33:52.851Z</time></trkpt><trkpt lat="45.9281818" lon="8.8893861"><ele>271.0</ele><time>2026-05-01T13:33:53.851Z</time></trkpt><trkpt lat="45.9283777" lon="8.8893665"><ele>271.66666666666663</ele><time>2026-05-01T13:33:54.852Z</time></trkpt><trkpt lat="45.9285599" lon="8.8893492"><ele>272.3333333333333</ele><time>2026-05-01T13:33:55.852Z</time></trkpt><trkpt lat="45.9287343" lon="8.8893314"><ele>273.0</ele><time>2026-05-01T13:33:56.852Z</time></trkpt><trkpt lat="45.9288972" lon="8.889304"><ele>273.0</ele><time>2026-05-01T13:33:57.851Z</time></trkpt><trkpt lat="45.9290504" lon="8.8892614"><ele>273.0</ele><time>2026-05-01T13:33:58.85Z</time></trkpt><trkpt lat="45.9291998" lon="8.8892023"><ele>273.0</ele><time>2026-05-01T13:33:59.851Z</time></trkpt><trkpt lat="45.9293462" lon="8.889111"><ele>273.6666666666667</ele><time>2026-05-01T13:34:00.851Z</time></trkpt><trkpt lat="45.9294851" lon="8.8889867"><ele>274.33333333333337</ele><time>2026-05-01T13:34:01.851Z</time></trkpt><trkpt lat="45.9296158" lon="8.8888328"><ele>275.0</ele><time>2026-05-01T13:34:02.85Z</time></trkpt><trkpt lat="45.9297502" lon="8.888679"><ele>275.0</ele><time>2026-05-01T13:34:03.852Z</time></trkpt><trkpt lat="45.9298837" lon="8.8885512"><ele>275.0</ele><time>2026-05-01T13:34:04.851Z</time></trkpt><trkpt lat="45.9300197" lon="8.8884541"><ele>275.0</ele><time>2026-05-01T13:34:05.852Z</time></trkpt><trkpt lat="45.9301515" lon="8.888363"><ele>276.6666666666667</ele><time>2026-05-01T13:34:06.851Z</time></trkpt><trkpt lat="45.9303111" lon="8.8883377"><ele>278.3333333333333</ele><time>2026-05-01T13:34:07.851Z</time></trkpt><trkpt lat="45.9304652" lon="8.8883125"><ele>280.0</ele><time>2026-05-01T13:34:08.851Z</time></trkpt><trkpt lat="45.9306243" lon="8.8882736"><ele>280.0</ele><time>2026-05-01T13:34:09.851Z</time></trkpt><trkpt lat="45.9308019" lon="8.8882081"><ele>280.0</ele><time>2026-05-01T13:34:10.85Z</time></trkpt><trkpt lat="45.9309849" lon="8.8881479"><ele>280.0</ele><time>2026-05-01T13:34:11.851Z</time></trkpt><trkpt lat="45.9311768" lon="8.8880889"><ele>280.3333333333333</ele><time>2026-05-01T13:34:12.85Z</time></trkpt><trkpt lat="45.9313632" lon="8.8880321"><ele>280.6666666666667</ele><time>2026-05-01T13:34:13.851Z</time></trkpt><trkpt lat="45.9315499" lon="8.8879876"><ele>281.0</ele><time>2026-05-01T13:34:14.851Z</time></trkpt><trkpt lat="45.9317309" lon="8.887958"><ele>281.0</ele><time>2026-05-01T13:34:15.851Z</time></trkpt><trkpt lat="45.9319082" lon="8.887937"><ele>281.0</ele><time>2026-05-01T13:34:16.852Z</time></trkpt><trkpt lat="45.9320689" lon="8.8879505"><ele>281.0</ele><time>2026-05-01T13:34:17.851Z</time></trkpt><trkpt lat="45.9322226" lon="8.8879538"><ele>281.0</ele><time>2026-05-01T13:34:18.851Z</time></trkpt><trkpt lat="45.9323693" lon="8.8879569"><ele>281.0</ele><time>2026-05-01T13:34:19.851Z</time></trkpt><trkpt lat="45.9325078" lon="8.8879541"><ele>281.0</ele><time>2026-05-01T13:34:20.851Z</time></trkpt><trkpt lat="45.9326411" lon="8.8879297"><ele>281.0</ele><time>2026-05-01T13:34:21.852Z</time></trkpt><trkpt lat="45.9327774" lon="8.8879035"><ele>279.25</ele><time>2026-05-01T13:34:22.852Z</time></trkpt><trkpt lat="45.932917" lon="8.8878746"><ele>277.5</ele><time>2026-05-01T13:34:23.85Z</time></trkpt><trkpt lat="45.9330628" lon="8.8878412"><ele>275.75</ele><time>2026-05-01T13:34:24.85Z</time></trkpt><trkpt lat="45.9332119" lon="8.8877966"><ele>274.0</ele><time>2026-05-01T13:34:25.851Z</time></trkpt><trkpt lat="45.933361" lon="8.8877564"><ele>273.3333333333333</ele><time>2026-05-01T13:34:26.852Z</time></trkpt><trkpt lat="45.9335209" lon="8.8877229"><ele>272.6666666666667</ele><time>2026-05-01T13:34:27.851Z</time></trkpt><trkpt lat="45.9336888" lon="8.887694"><ele>272.0</ele><time>2026-05-01T13:34:28.852Z</time></trkpt><trkpt lat="45.9338655" lon="8.8876725"><ele>272.0</ele><time>2026-05-01T13:34:29.85Z</time></trkpt><trkpt lat="45.9340578" lon="8.8876565"><ele>272.0</ele><time>2026-05-01T13:34:30.851Z</time></trkpt><trkpt lat="45.9342558" lon="8.8876453"><ele>272.0</ele><time>2026-05-01T13:34:31.851Z</time></trkpt><trkpt lat="45.9344589" lon="8.88766"><ele>272.0</ele><time>2026-05-01T13:34:32.851Z</time></trkpt><trkpt lat="45.9346678" lon="8.8876818"><ele>272.0</ele><time>2026-05-01T13:34:33.85Z</time></trkpt><trkpt lat="45.9348816" lon="8.8876987"><ele>272.0</ele><time>2026-05-01T13:34:34.85Z</time></trkpt><trkpt lat="45.9351092" lon="8.8877163"><ele>272.0</ele><time>2026-05-01T13:34:35.851Z</time></trkpt><trkpt lat="45.9353393" lon="8.8877357"><ele>272.0</ele><time>2026-05-01T13:34:36.851Z</time></trkpt><trkpt lat="45.9355584" lon="8.887756"><ele>272.0</ele><time>2026-05-01T13:34:37.851Z</time></trkpt><trkpt lat="45.9357701" lon="8.887761"><ele>272.0</ele><time>2026-05-01T13:34:38.852Z</time></trkpt><trkpt lat="45.935965" lon="8.8877779"><ele>272.0</ele><time>2026-05-01T13:34:39.851Z</time></trkpt><trkpt lat="45.9361585" lon="8.8877937"><ele>273.0</ele><time>2026-05-01T13:34:40.851Z</time></trkpt><trkpt lat="45.9363395" lon="8.8878211"><ele>274.0</ele><time>2026-05-01T13:34:41.851Z</time></trkpt><trkpt lat="45.936518" lon="8.8878599"><ele>275.0</ele><time>2026-05-01T13:34:42.851Z</time></trkpt><trkpt lat="45.9366914" lon="8.8879172"><ele>277.6666666666667</ele><time>2026-05-01T13:34:43.851Z</time></trkpt><trkpt lat="45.9368708" lon="8.8879855"><ele>280.3333333333333</ele><time>2026-05-01T13:34:44.851Z</time></trkpt><trkpt lat="45.9370535" lon="8.888064"><ele>283.0</ele><time>2026-05-01T13:34:45.851Z</time></trkpt><trkpt lat="45.9372456" lon="8.8881619"><ele>283.0</ele><time>2026-05-01T13:34:46.852Z</time></trkpt><trkpt lat="45.9374439" lon="8.8882405"><ele>283.0</ele><time>2026-05-01T13:34:47.851Z</time></trkpt><trkpt lat="45.9376487" lon="8.8882978"><ele>283.0</ele><time>2026-05-01T13:34:48.852Z</time></trkpt><trkpt lat="45.9378542" lon="8.8883454"><ele>284.0</ele><time>2026-05-01T13:34:49.851Z</time></trkpt><trkpt lat="45.9380585" lon="8.8883862"><ele>285.0</ele><time>2026-05-01T13:34:50.852Z</time></trkpt><trkpt lat="45.9382469" lon="8.8884344"><ele>286.0</ele><time>2026-05-01T13:34:51.851Z</time></trkpt><trkpt lat="45.9384219" lon="8.8884869"><ele>286.0</ele><time>2026-05-01T13:34:52.851Z</time></trkpt><trkpt lat="45.9385924" lon="8.8885609"><ele>286.0</ele><time>2026-05-01T13:34:53.849Z</time></trkpt><trkpt lat="45.9387644" lon="8.8886705"><ele>286.0</ele><time>2026-05-01T13:34:54.852Z</time></trkpt><trkpt lat="45.9389399" lon="8.8887765"><ele>286.0</ele><time>2026-05-01T13:34:55.851Z</time></trkpt><trkpt lat="45.9391179" lon="8.888886"><ele>286.0</ele><time>2026-05-01T13:34:56.852Z</time></trkpt><trkpt lat="45.9392967" lon="8.8890021"><ele>286.0</ele><time>2026-05-01T13:34:57.851Z</time></trkpt><trkpt lat="45.9394735" lon="8.889132"><ele>282.0</ele><time>2026-05-01T13:34:58.851Z</time></trkpt><trkpt lat="45.9396481" lon="8.8892702"><ele>278.0</ele><time>2026-05-01T13:34:59.852Z</time></trkpt><trkpt lat="45.9398186" lon="8.8894039"><ele>274.0</ele><time>2026-05-01T13:35:00.851Z</time></trkpt><trkpt lat="45.9399814" lon="8.8895291"><ele>277.3333333333333</ele><time>2026-05-01T13:35:01.85Z</time></trkpt><trkpt lat="45.9401326" lon="8.8896456"><ele>280.6666666666667</ele><time>2026-05-01T13:35:02.852Z</time></trkpt><trkpt lat="45.9402724" lon="8.8897422"><ele>284.0</ele><time>2026-05-01T13:35:03.85Z</time></trkpt><trkpt lat="45.9404165" lon="8.889817"><ele>284.0</ele><time>2026-05-01T13:35:04.851Z</time></trkpt><trkpt lat="45.9405653" lon="8.889862"><ele>284.0</ele><time>2026-05-01T13:35:05.851Z</time></trkpt><trkpt lat="45.9407257" lon="8.8898766"><ele>284.0</ele><time>2026-05-01T13:35:06.851Z</time></trkpt><trkpt lat="45.9408939" lon="8.8898709"><ele>284.0</ele><time>2026-05-01T13:35:07.851Z</time></trkpt><trkpt lat="45.9410529" lon="8.8898526"><ele>284.0</ele><time>2026-05-01T13:35:08.851Z</time></trkpt><trkpt lat="45.9412067" lon="8.8898558"><ele>284.0</ele><time>2026-05-01T13:35:09.851Z</time></trkpt><trkpt lat="45.941359" lon="8.8898852"><ele>284.0</ele><time>2026-05-01T13:35:10.852Z</time></trkpt><trkpt lat="45.9415107" lon="8.8899267"><ele>284.0</ele><time>2026-05-01T13:35:11.851Z</time></trkpt><trkpt lat="45.9416503" lon="8.8899614"><ele>284.0</ele><time>2026-05-01T13:35:12.851Z</time></trkpt><trkpt lat="45.941779" lon="8.8899977"><ele>284.0</ele><time>2026-05-01T13:35:13.85Z</time></trkpt><trkpt lat="45.9418979" lon="8.8900531"><ele>282.5</ele><time>2026-05-01T13:35:14.851Z</time></trkpt><trkpt lat="45.9420091" lon="8.8901444"><ele>281.0</ele><time>2026-05-01T13:35:15.85Z</time></trkpt><trkpt lat="45.9421161" lon="8.8902627"><ele>279.5</ele><time>2026-05-01T13:35:16.852Z</time></trkpt><trkpt lat="45.94222" lon="8.8904174"><ele>278.0</ele><time>2026-05-01T13:35:17.851Z</time></trkpt><trkpt lat="45.9423124" lon="8.8905905"><ele>278.0</ele><time>2026-05-01T13:35:18.85Z</time></trkpt><trkpt lat="45.9424046" lon="8.8907768"><ele>278.0</ele><time>2026-05-01T13:35:19.851Z</time></trkpt><trkpt lat="45.942497" lon="8.8909687"><ele>278.0</ele><time>2026-05-01T13:35:20.851Z</time></trkpt><trkpt lat="45.9425828" lon="8.8911376"><ele>278.6666666666667</ele><time>2026-05-01T13:35:21.852Z</time></trkpt><trkpt lat="45.9426791" lon="8.8912978"><ele>279.3333333333333</ele><time>2026-05-01T13:35:22.851Z</time></trkpt><trkpt lat="45.9427938" lon="8.891444"><ele>280.0</ele><time>2026-05-01T13:35:23.851Z</time></trkpt><trkpt lat="45.9429177" lon="8.8915828"><ele>280.0</ele><time>2026-05-01T13:35:24.85Z</time></trkpt><trkpt lat="45.9430412" lon="8.8917075"><ele>280.0</ele><time>2026-05-01T13:35:25.851Z</time></trkpt><trkpt lat="45.9431798" lon="8.8918383"><ele>280.0</ele><time>2026-05-01T13:35:26.851Z</time></trkpt><trkpt lat="45.9433239" lon="8.8919637"><ele>280.66666666666663</ele><time>2026-05-01T13:35:27.851Z</time></trkpt><trkpt lat="45.943464" lon="8.8920923"><ele>281.3333333333333</ele><time>2026-05-01T13:35:28.85Z</time></trkpt><trkpt lat="45.9436095" lon="8.892214"><ele>282.0</ele><time>2026-05-01T13:35:29.85Z</time></trkpt><trkpt lat="45.9437502" lon="8.8923201"><ele>282.0</ele><time>2026-05-01T13:35:30.851Z</time></trkpt><trkpt lat="45.9438977" lon="8.8924188"><ele>282.0</ele><time>2026-05-01T13:35:31.852Z</time></trkpt><trkpt lat="45.9440468" lon="8.8925057"><ele>282.0</ele><time>2026-05-01T13:35:32.851Z</time></trkpt><trkpt lat="45.9442008" lon="8.8925694"><ele>280.3333333333333</ele><time>2026-05-01T13:35:33.851Z</time></trkpt><trkpt lat="45.944366" lon="8.8926294"><ele>278.66666666666663</ele><time>2026-05-01T13:35:34.851Z</time></trkpt><trkpt lat="45.9445151" lon="8.8926754"><ele>277.0</ele><time>2026-05-01T13:35:35.851Z</time></trkpt><trkpt lat="45.9446639" lon="8.8927188"><ele>277.0</ele><time>2026-05-01T13:35:36.852Z</time></trkpt><trkpt lat="45.9448039" lon="8.8927554"><ele>277.0</ele><time>2026-05-01T13:35:37.851Z</time></trkpt><trkpt lat="45.9449303" lon="8.8927754"><ele>277.0</ele><time>2026-05-01T13:35:38.85Z</time></trkpt><trkpt lat="45.9450585" lon="8.8927841"><ele>277.0</ele><time>2026-05-01T13:35:39.851Z</time></trkpt><trkpt lat="45.9451898" lon="8.8927726"><ele>277.5</ele><time>2026-05-01T13:35:40.851Z</time></trkpt><trkpt lat="45.9453262" lon="8.8927166"><ele>278.0</ele><time>2026-05-01T13:35:41.85Z</time></trkpt><trkpt lat="45.9454558" lon="8.892639"><ele>278.5</ele><time>2026-05-01T13:35:42.852Z</time></trkpt><trkpt lat="45.9455809" lon="8.8925353"><ele>279.0</ele><time>2026-05-01T13:35:43.851Z</time></trkpt><trkpt lat="45.9457112" lon="8.8924186"><ele>279.0</ele><time>2026-05-01T13:35:44.852Z</time></trkpt><trkpt lat="45.9458437" lon="8.8923087"><ele>279.0</ele><time>2026-05-01T13:35:45.851Z</time></trkpt><trkpt lat="45.9459775" lon="8.8921935"><ele>279.0</ele><time>2026-05-01T13:35:46.852Z</time></trkpt><trkpt lat="45.9461083" lon="8.8920789"><ele>279.0</ele><time>2026-05-01T13:35:47.852Z</time></trkpt><trkpt lat="45.9462397" lon="8.8919583"><ele>279.0</ele><time>2026-05-01T13:35:48.851Z</time></trkpt><trkpt lat="45.946362" lon="8.8918495"><ele>279.0</ele><time>2026-05-01T13:35:49.851Z</time></trkpt><trkpt lat="45.9464805" lon="8.891742"><ele>279.0</ele><time>2026-05-01T13:35:50.851Z</time></trkpt><trkpt lat="45.9465898" lon="8.8916562"><ele>279.0</ele><time>2026-05-01T13:35:51.85Z</time></trkpt><trkpt lat="45.9466981" lon="8.8915706"><ele>279.0</ele><time>2026-05-01T13:35:52.85Z</time></trkpt><trkpt lat="45.9468056" lon="8.8914787"><ele>279.0</ele><time>2026-05-01T13:35:53.851Z</time></trkpt><trkpt lat="45.9469126" lon="8.8913874"><ele>279.0</ele><time>2026-05-01T13:35:54.851Z</time></trkpt><trkpt lat="45.9470233" lon="8.8912933"><ele>279.0</ele><time>2026-05-01T13:35:55.85Z</time></trkpt><trkpt lat="45.9471387" lon="8.8912062"><ele>279.0</ele><time>2026-05-01T13:35:56.851Z</time></trkpt><trkpt lat="45.9472527" lon="8.8911136"><ele>279.0</ele><time>2026-05-01T13:35:57.852Z</time></trkpt><trkpt lat="45.9473666" lon="8.8910185"><ele>279.0</ele><time>2026-05-01T13:35:58.852Z</time></trkpt><trkpt lat="45.9474817" lon="8.8909294"><ele>277.75</ele><time>2026-05-01T13:35:59.85Z</time></trkpt><trkpt lat="45.9475904" lon="8.8908354"><ele>276.5</ele><time>2026-05-01T13:36:00.85Z</time></trkpt><trkpt lat="45.9476927" lon="8.8907543"><ele>275.25</ele><time>2026-05-01T13:36:01.851Z</time></trkpt><trkpt lat="45.9477931" lon="8.8906717"><ele>274.0</ele><time>2026-05-01T13:36:02.851Z</time></trkpt><trkpt lat="45.9478979" lon="8.8905801"><ele>274.0</ele><time>2026-05-01T13:36:03.852Z</time></trkpt><trkpt lat="45.9480013" lon="8.890485"><ele>274.0</ele><time>2026-05-01T13:36:04.85Z</time></trkpt><trkpt lat="45.9481085" lon="8.890375"><ele>274.0</ele><time>2026-05-01T13:36:05.851Z</time></trkpt><trkpt lat="45.9482155" lon="8.890263"><ele>274.0</ele><time>2026-05-01T13:36:06.851Z</time></trkpt><trkpt lat="45.9483318" lon="8.8901538"><ele>274.5</ele><time>2026-05-01T13:36:07.851Z</time></trkpt><trkpt lat="45.9484399" lon="8.8900458"><ele>275.0</ele><time>2026-05-01T13:36:08.852Z</time></trkpt><trkpt lat="45.9485439" lon="8.8899366"><ele>275.5</ele><time>2026-05-01T13:36:09.851Z</time></trkpt><trkpt lat="45.9486422" lon="8.889844"><ele>276.0</ele><time>2026-05-01T13:36:10.851Z</time></trkpt><trkpt lat="45.9487357" lon="8.8897754"><ele>276.0</ele><time>2026-05-01T13:36:11.85Z</time></trkpt><trkpt lat="45.9488218" lon="8.8897089"><ele>276.0</ele><time>2026-05-01T13:36:12.85Z</time></trkpt><trkpt lat="45.9489115" lon="8.8896416"><ele>276.0</ele><time>2026-05-01T13:36:13.852Z</time></trkpt><trkpt lat="45.9490075" lon="8.8895698"><ele>276.0</ele><time>2026-05-01T13:36:14.851Z</time></trkpt><trkpt lat="45.9491005" lon="8.8894996"><ele>276.0</ele><time>2026-05-01T13:36:15.851Z</time></trkpt><trkpt lat="45.9491997" lon="8.8894248"><ele>277.0</ele><time>2026-05-01T13:36:16.852Z</time></trkpt><trkpt lat="45.9493126" lon="8.8893774"><ele>278.0</ele><time>2026-05-01T13:36:17.85Z</time></trkpt><trkpt lat="45.9494398" lon="8.8893594"><ele>279.0</ele><time>2026-05-01T13:36:18.85Z</time></trkpt><trkpt lat="45.9495683" lon="8.8893658"><ele>280.0</ele><time>2026-05-01T13:36:19.852Z</time></trkpt><trkpt lat="45.9497049" lon="8.8893919"><ele>280.0</ele><time>2026-05-01T13:36:20.85Z</time></trkpt><trkpt lat="45.9498398" lon="8.8894402"><ele>280.0</ele><time>2026-05-01T13:36:21.851Z</time></trkpt><trkpt lat="45.9499826" lon="8.8894938"><ele>280.0</ele><time>2026-05-01T13:36:22.852Z</time></trkpt><trkpt lat="45.9501276" lon="8.88954"><ele>280.0</ele><time>2026-05-01T13:36:23.851Z</time></trkpt><trkpt lat="45.9502708" lon="8.8896089"><ele>283.25</ele><time>2026-05-01T13:36:24.851Z</time></trkpt><trkpt lat="45.9504045" lon="8.8896769"><ele>286.5</ele><time>2026-05-01T13:36:25.851Z</time></trkpt><trkpt lat="45.9505379" lon="8.8897391"><ele>289.75</ele><time>2026-05-01T13:36:26.851Z</time></trkpt><trkpt lat="45.9506632" lon="8.8898148"><ele>293.0</ele><time>2026-05-01T13:36:27.851Z</time></trkpt><trkpt lat="45.9507799" lon="8.8899088"><ele>289.75</ele><time>2026-05-01T13:36:28.851Z</time></trkpt><trkpt lat="45.9508938" lon="8.8900058"><ele>286.5</ele><time>2026-05-01T13:36:29.85Z</time></trkpt><trkpt lat="45.9510061" lon="8.8900891"><ele>283.25</ele><time>2026-05-01T13:36:30.851Z</time></trkpt><trkpt lat="45.9511199" lon="8.8901709"><ele>280.0</ele><time>2026-05-01T13:36:31.85Z</time></trkpt><trkpt lat="45.9512398" lon="8.8902427"><ele>280.0</ele><time>2026-05-01T13:36:32.852Z</time></trkpt><trkpt lat="45.9513617" lon="8.8903003"><ele>280.0</ele><time>2026-05-01T13:36:33.85Z</time></trkpt><trkpt lat="45.9514846" lon="8.8903584"><ele>280.0</ele><time>2026-05-01T13:36:34.851Z</time></trkpt><trkpt lat="45.9516185" lon="8.8904043"><ele>280.0</ele><time>2026-05-01T13:36:35.85Z</time></trkpt><trkpt lat="45.9517628" lon="8.8904305"><ele>279.25</ele><time>2026-05-01T13:36:36.85Z</time></trkpt><trkpt lat="45.951896" lon="8.8904746"><ele>278.5</ele><time>2026-05-01T13:36:37.851Z</time></trkpt><trkpt lat="45.9520247" lon="8.8905132"><ele>277.75</ele><time>2026-05-01T13:36:38.851Z</time></trkpt><trkpt lat="45.9521549" lon="8.89055"><ele>277.0</ele><time>2026-05-01T13:36:39.851Z</time></trkpt><trkpt lat="45.9522901" lon="8.89059"><ele>277.0</ele><time>2026-05-01T13:36:40.851Z</time></trkpt><trkpt lat="45.9524146" lon="8.8906161"><ele>277.0</ele><time>2026-05-01T13:36:41.852Z</time></trkpt><trkpt lat="45.9525397" lon="8.8906501"><ele>277.0</ele><time>2026-05-01T13:36:42.851Z</time></trkpt><trkpt lat="45.9526626" lon="8.8906642"><ele>277.0</ele><time>2026-05-01T13:36:43.851Z</time></trkpt><trkpt lat="45.9527911" lon="8.890663"><ele>278.5</ele><time>2026-05-01T13:36:44.851Z</time></trkpt><trkpt lat="45.9529099" lon="8.8906413"><ele>280.0</ele><time>2026-05-01T13:36:45.85Z</time></trkpt><trkpt lat="45.9530298" lon="8.8905794"><ele>281.5</ele><time>2026-05-01T13:36:46.85Z</time></trkpt><trkpt lat="45.9531439" lon="8.8905287"><ele>283.0</ele><time>2026-05-01T13:36:47.851Z</time></trkpt><trkpt lat="45.9532754" lon="8.8905496"><ele>280.75</ele><time>2026-05-01T13:36:48.851Z</time></trkpt><trkpt lat="45.9534088" lon="8.8905744"><ele>278.5</ele><time>2026-05-01T13:36:49.853Z</time></trkpt><trkpt lat="45.9535313" lon="8.8906095"><ele>276.25</ele><time>2026-05-01T13:36:50.852Z</time></trkpt><trkpt lat="45.9536543" lon="8.8906383"><ele>274.0</ele><time>2026-05-01T13:36:51.852Z</time></trkpt><trkpt lat="45.9537467" lon="8.8906464"><ele>274.0</ele><time>2026-05-01T13:36:52.852Z</time></trkpt><trkpt lat="45.9538393" lon="8.8906508"><ele>274.0</ele><time>2026-05-01T13:36:53.851Z</time></trkpt><trkpt lat="45.9539401" lon="8.8906634"><ele>274.0</ele><time>2026-05-01T13:36:54.851Z</time></trkpt><trkpt lat="45.9540263" lon="8.8906132"><ele>274.0</ele><time>2026-05-01T13:36:55.85Z</time></trkpt><trkpt lat="45.9541146" lon="8.8905291"><ele>274.0</ele><time>2026-05-01T13:36:56.85Z</time></trkpt><trkpt lat="45.9542068" lon="8.8904178"><ele>273.8</ele><time>2026-05-01T13:36:57.851Z</time></trkpt><trkpt lat="45.9542917" lon="8.8903013"><ele>273.59999999999997</ele><time>2026-05-01T13:36:58.851Z</time></trkpt><trkpt lat="45.9543673" lon="8.8901903"><ele>273.4</ele><time>2026-05-01T13:36:59.851Z</time></trkpt><trkpt lat="45.9544466" lon="8.8900853"><ele>273.2</ele><time>2026-05-01T13:37:00.851Z</time></trkpt><trkpt lat="45.9545213" lon="8.8899767"><ele>273.0</ele><time>2026-05-01T13:37:01.851Z</time></trkpt><trkpt lat="45.9545653" lon="8.889842"><ele>273.0</ele><time>2026-05-01T13:37:02.851Z</time></trkpt><trkpt lat="45.9545895" lon="8.8896799"><ele>273.0</ele><time>2026-05-01T13:37:03.85Z</time></trkpt><trkpt lat="45.9545994" lon="8.8895051"><ele>273.0</ele><time>2026-05-01T13:37:04.853Z</time></trkpt><trkpt lat="45.9546112" lon="8.8893406"><ele>273.0</ele><time>2026-05-01T13:37:05.851Z</time></trkpt><trkpt lat="45.9546414" lon="8.8891925"><ele>273.2</ele><time>2026-05-01T13:37:06.852Z</time></trkpt><trkpt lat="45.9546868" lon="8.8890592"><ele>273.4</ele><time>2026-05-01T13:37:07.851Z</time></trkpt><trkpt lat="45.9547208" lon="8.8889222"><ele>273.59999999999997</ele><time>2026-05-01T13:37:08.85Z</time></trkpt><trkpt lat="45.9547332" lon="8.8887726"><ele>273.8</ele><time>2026-05-01T13:37:09.851Z</time></trkpt><trkpt lat="45.9547408" lon="8.8886096"><ele>274.0</ele><time>2026-05-01T13:37:10.851Z</time></trkpt><trkpt lat="45.9547408" lon="8.8884448"><ele>275.59999999999997</ele><time>2026-05-01T13:37:11.85Z</time></trkpt><trkpt lat="45.9547384" lon="8.8882825"><ele>277.2</ele><time>2026-05-01T13:37:12.851Z</time></trkpt><trkpt lat="45.9547355" lon="8.8881319"><ele>278.79999999999995</ele><time>2026-05-01T13:37:13.85Z</time></trkpt><trkpt lat="45.9547229" lon="8.8879811"><ele>280.4</ele><time>2026-05-01T13:37:14.851Z</time></trkpt><trkpt lat="45.9547007" lon="8.8878167"><ele>282.0</ele><time>2026-05-01T13:37:15.851Z</time></trkpt><trkpt lat="45.954665" lon="8.8876514"><ele>281.5</ele><time>2026-05-01T13:37:16.85Z</time></trkpt><trkpt lat="45.9546399" lon="8.8874962"><ele>281.0</ele><time>2026-05-01T13:37:17.849Z</time></trkpt><trkpt lat="45.9546206" lon="8.8873506"><ele>280.5</ele><time>2026-05-01T13:37:18.85Z</time></trkpt><trkpt lat="45.9545975" lon="8.88718"><ele>280.0</ele><time>2026-05-01T13:37:19.85Z</time></trkpt><trkpt lat="45.9545761" lon="8.8870011"><ele>280.0</ele><time>2026-05-01T13:37:20.851Z</time></trkpt><trkpt lat="45.9545822" lon="8.8868055"><ele>280.0</ele><time>2026-05-01T13:37:21.85Z</time></trkpt><trkpt lat="45.9545844" lon="8.8866112"><ele>280.0</ele><time>2026-05-01T13:37:22.851Z</time></trkpt><trkpt lat="45.9545887" lon="8.8864141"><ele>280.0</ele><time>2026-05-01T13:37:23.851Z</time></trkpt><trkpt lat="45.9545889" lon="8.8862098"><ele>278.5</ele><time>2026-05-01T13:37:24.851Z</time></trkpt><trkpt lat="45.9545864" lon="8.8860098"><ele>277.0</ele><time>2026-05-01T13:37:25.851Z</time></trkpt><trkpt lat="45.9545811" lon="8.8858126"><ele>275.5</ele><time>2026-05-01T13:37:26.85Z</time></trkpt><trkpt lat="45.9545692" lon="8.8856105"><ele>274.0</ele><time>2026-05-01T13:37:27.851Z</time></trkpt><trkpt lat="45.9545602" lon="8.8854178"><ele>273.75</ele><time>2026-05-01T13:37:28.852Z</time></trkpt><trkpt lat="45.954555" lon="8.8852318"><ele>273.5</ele><time>2026-05-01T13:37:29.851Z</time></trkpt><trkpt lat="45.9545451" lon="8.885048"><ele>273.25</ele><time>2026-05-01T13:37:30.851Z</time></trkpt><trkpt lat="45.954529" lon="8.8848617"><ele>273.0</ele><time>2026-05-01T13:37:31.85Z</time></trkpt><trkpt lat="45.9545083" lon="8.8846719"><ele>272.75</ele><time>2026-05-01T13:37:32.851Z</time></trkpt><trkpt lat="45.9544918" lon="8.8844909"><ele>272.5</ele><time>2026-05-01T13:37:33.851Z</time></trkpt><trkpt lat="45.9544695" lon="8.8843195"><ele>272.25</ele><time>2026-05-01T13:37:34.851Z</time></trkpt><trkpt lat="45.9544484" lon="8.8841581"><ele>272.0</ele><time>2026-05-01T13:37:35.85Z</time></trkpt><trkpt lat="45.9544179" lon="8.8839916"><ele>271.5</ele><time>2026-05-01T13:37:36.851Z</time></trkpt><trkpt lat="45.9543843" lon="8.8838279"><ele>271.0</ele><time>2026-05-01T13:37:37.849Z</time></trkpt><trkpt lat="45.9543459" lon="8.8836589"><ele>270.5</ele><time>2026-05-01T13:37:38.85Z</time></trkpt><trkpt lat="45.954296" lon="8.8834937"><ele>270.0</ele><time>2026-05-01T13:37:39.851Z</time></trkpt><trkpt lat="45.9542434" lon="8.8833276"><ele>274.25</ele><time>2026-05-01T13:37:40.852Z</time></trkpt><trkpt lat="45.9541871" lon="8.8831662"><ele>278.5</ele><time>2026-05-01T13:37:41.851Z</time></trkpt><trkpt lat="45.9541395" lon="8.8830004"><ele>282.75</ele><time>2026-05-01T13:37:42.851Z</time></trkpt><trkpt lat="45.9541054" lon="8.882831"><ele>287.0</ele><time>2026-05-01T13:37:43.851Z</time></trkpt><trkpt lat="45.9540833" lon="8.8826581"><ele>289.0</ele><time>2026-05-01T13:37:44.849Z</time></trkpt><trkpt lat="45.9540689" lon="8.8824848"><ele>291.0</ele><time>2026-05-01T13:37:45.851Z</time></trkpt><trkpt lat="45.9540673" lon="8.8823129"><ele>293.0</ele><time>2026-05-01T13:37:46.851Z</time></trkpt><trkpt lat="45.9540893" lon="8.8821447"><ele>295.0</ele><time>2026-05-01T13:37:47.85Z</time></trkpt><trkpt lat="45.954122" lon="8.8819732"><ele>295.0</ele><time>2026-05-01T13:37:48.851Z</time></trkpt><trkpt lat="45.954146" lon="8.8817958"><ele>295.0</ele><time>2026-05-01T13:37:49.849Z</time></trkpt><trkpt lat="45.9541594" lon="8.8816036"><ele>295.0</ele><time>2026-05-01T13:37:50.85Z</time></trkpt><trkpt lat="45.9541801" lon="8.8814249"><ele>295.0</ele><time>2026-05-01T13:37:51.85Z</time></trkpt><trkpt lat="45.9542004" lon="8.8812272"><ele>290.0</ele><time>2026-05-01T13:37:52.851Z</time></trkpt><trkpt lat="45.9542159" lon="8.8810645"><ele>285.0</ele><time>2026-05-01T13:37:53.851Z</time></trkpt><trkpt lat="45.9542352" lon="8.8809083"><ele>280.0</ele><time>2026-05-01T13:37:54.851Z</time></trkpt><trkpt lat="45.9542591" lon="8.8807642"><ele>275.0</ele><time>2026-05-01T13:37:55.851Z</time></trkpt><trkpt lat="45.95427" lon="8.8806115"><ele>270.0</ele><time>2026-05-01T13:37:56.851Z</time></trkpt><trkpt lat="45.9542638" lon="8.880456"><ele>270.0</ele><time>2026-05-01T13:37:57.85Z</time></trkpt><trkpt lat="45.9542441" lon="8.8802917"><ele>270.0</ele><time>2026-05-01T13:37:58.85Z</time></trkpt><trkpt lat="45.9542091" lon="8.880118"><ele>270.0</ele><time>2026-05-01T13:37:59.85Z</time></trkpt><trkpt lat="45.954172" lon="8.8799448"><ele>270.0</ele><time>2026-05-01T13:38:00.851Z</time></trkpt><trkpt lat="45.9541385" lon="8.8797623"><ele>272.75</ele><time>2026-05-01T13:38:01.851Z</time></trkpt><trkpt lat="45.9541069" lon="8.8795717"><ele>275.5</ele><time>2026-05-01T13:38:02.85Z</time></trkpt><trkpt lat="45.9540792" lon="8.8793889"><ele>278.25</ele><time>2026-05-01T13:38:03.851Z</time></trkpt><trkpt lat="45.9540506" lon="8.8792029"><ele>281.0</ele><time>2026-05-01T13:38:04.851Z</time></trkpt><trkpt lat="45.9540267" lon="8.8790149"><ele>281.0</ele><time>2026-05-01T13:38:05.851Z</time></trkpt><trkpt lat="45.9540072" lon="8.8788281"><ele>281.0</ele><time>2026-05-01T13:38:06.851Z</time></trkpt><trkpt lat="45.9539913" lon="8.8786438"><ele>281.0</ele><time>2026-05-01T13:38:07.851Z</time></trkpt><trkpt lat="45.9539734" lon="8.8784647"><ele>281.0</ele><time>2026-05-01T13:38:08.851Z</time></trkpt><trkpt lat="45.9539626" lon="8.878298"><ele>279.75</ele><time>2026-05-01T13:38:09.851Z</time></trkpt><trkpt lat="45.9539459" lon="8.8781266"><ele>278.5</ele><time>2026-05-01T13:38:10.851Z</time></trkpt><trkpt lat="45.9539354" lon="8.8779582"><ele>277.25</ele><time>2026-05-01T13:38:11.85Z</time></trkpt><trkpt lat="45.9539239" lon="8.8777927"><ele>276.0</ele><time>2026-05-01T13:38:12.851Z</time></trkpt><trkpt lat="45.9539134" lon="8.87763"><ele>275.25</ele><time>2026-05-01T13:38:13.851Z</time></trkpt><trkpt lat="45.9538995" lon="8.8774698"><ele>274.5</ele><time>2026-05-01T13:38:14.851Z</time></trkpt><trkpt lat="45.9538879" lon="8.8773038"><ele>273.75</ele><time>2026-05-01T13:38:15.85Z</time></trkpt><trkpt lat="45.9538675" lon="8.8771358"><ele>273.0</ele><time>2026-05-01T13:38:16.851Z</time></trkpt><trkpt lat="45.953852" lon="8.8769674"><ele>273.0</ele><time>2026-05-01T13:38:17.851Z</time></trkpt><trkpt lat="45.9538397" lon="8.8768089"><ele>273.0</ele><time>2026-05-01T13:38:18.851Z</time></trkpt><trkpt lat="45.9538369" lon="8.8766588"><ele>273.0</ele><time>2026-05-01T13:38:19.851Z</time></trkpt><trkpt lat="45.9538467" lon="8.8765141"><ele>273.0</ele><time>2026-05-01T13:38:20.851Z</time></trkpt><trkpt lat="45.9538742" lon="8.8763848"><ele>273.0</ele><time>2026-05-01T13:38:21.851Z</time></trkpt><trkpt lat="45.9539052" lon="8.8762494"><ele>273.0</ele><time>2026-05-01T13:38:22.85Z</time></trkpt><trkpt lat="45.9539425" lon="8.8761108"><ele>273.0</ele><time>2026-05-01T13:38:23.852Z</time></trkpt><trkpt lat="45.9539907" lon="8.8759737"><ele>273.0</ele><time>2026-05-01T13:38:24.851Z</time></trkpt><trkpt lat="45.9540536" lon="8.8758416"><ele>273.0</ele><time>2026-05-01T13:38:25.851Z</time></trkpt><trkpt lat="45.9541373" lon="8.8757152"><ele>273.0</ele><time>2026-05-01T13:38:26.85Z</time></trkpt><trkpt lat="45.9542301" lon="8.8755935"><ele>272.3333333333333</ele><time>2026-05-01T13:38:27.851Z</time></trkpt><trkpt lat="45.9543377" lon="8.8754646"><ele>271.66666666666663</ele><time>2026-05-01T13:38:28.851Z</time></trkpt><trkpt lat="45.954467" lon="8.8753356"><ele>271.0</ele><time>2026-05-01T13:38:29.849Z</time></trkpt><trkpt lat="45.9546033" lon="8.8752043"><ele>271.25</ele><time>2026-05-01T13:38:30.85Z</time></trkpt><trkpt lat="45.9547346" lon="8.8750834"><ele>271.5</ele><time>2026-05-01T13:38:31.851Z</time></trkpt><trkpt lat="45.9548564" lon="8.8749743"><ele>271.75</ele><time>2026-05-01T13:38:32.85Z</time></trkpt><trkpt lat="45.9549755" lon="8.8748586"><ele>272.0</ele><time>2026-05-01T13:38:33.85Z</time></trkpt><trkpt lat="45.9550979" lon="8.8747493"><ele>272.25</ele><time>2026-05-01T13:38:34.851Z</time></trkpt><trkpt lat="45.9552234" lon="8.8746389"><ele>272.5</ele><time>2026-05-01T13:38:35.85Z</time></trkpt><trkpt lat="45.9553471" lon="8.8745294"><ele>272.75</ele><time>2026-05-01T13:38:36.85Z</time></trkpt><trkpt lat="45.9554655" lon="8.8744178"><ele>273.0</ele><time>2026-05-01T13:38:37.85Z</time></trkpt><trkpt lat="45.9555855" lon="8.8743007"><ele>273.5</ele><time>2026-05-01T13:38:38.851Z</time></trkpt><trkpt lat="45.955701" lon="8.8741898"><ele>274.0</ele><time>2026-05-01T13:38:39.851Z</time></trkpt><trkpt lat="45.9558155" lon="8.8740712"><ele>274.5</ele><time>2026-05-01T13:38:40.851Z</time></trkpt><trkpt lat="45.9559279" lon="8.873941"><ele>275.0</ele><time>2026-05-01T13:38:41.852Z</time></trkpt><trkpt lat="45.9560326" lon="8.8738207"><ele>275.25</ele><time>2026-05-01T13:38:42.851Z</time></trkpt><trkpt lat="45.9561262" lon="8.8736841"><ele>275.5</ele><time>2026-05-01T13:38:43.85Z</time></trkpt><trkpt lat="45.9562142" lon="8.8735432"><ele>275.75</ele><time>2026-05-01T13:38:44.851Z</time></trkpt><trkpt lat="45.9562945" lon="8.8733951"><ele>276.0</ele><time>2026-05-01T13:38:45.851Z</time></trkpt><trkpt lat="45.9563624" lon="8.8732435"><ele>276.5</ele><time>2026-05-01T13:38:46.85Z</time></trkpt><trkpt lat="45.9564206" lon="8.8730929"><ele>277.0</ele><time>2026-05-01T13:38:47.851Z</time></trkpt><trkpt lat="45.9564717" lon="8.872947"><ele>277.5</ele><time>2026-05-01T13:38:48.851Z</time></trkpt><trkpt lat="45.9565192" lon="8.8728038"><ele>278.0</ele><time>2026-05-01T13:38:49.851Z</time></trkpt><trkpt lat="45.9565693" lon="8.8726483"><ele>277.75</ele><time>2026-05-01T13:38:50.851Z</time></trkpt><trkpt lat="45.9566159" lon="8.8724944"><ele>277.5</ele><time>2026-05-01T13:38:51.852Z</time></trkpt><trkpt lat="45.9566646" lon="8.8723304"><ele>277.25</ele><time>2026-05-01T13:38:52.851Z</time></trkpt><trkpt lat="45.9567114" lon="8.8721675"><ele>277.0</ele><time>2026-05-01T13:38:53.85Z</time></trkpt><trkpt lat="45.9567627" lon="8.8720068"><ele>277.0</ele><time>2026-05-01T13:38:54.851Z</time></trkpt><trkpt lat="45.9568148" lon="8.8718438"><ele>277.0</ele><time>2026-05-01T13:38:55.851Z</time></trkpt><trkpt lat="45.9568633" lon="8.871687"><ele>277.0</ele><time>2026-05-01T13:38:56.85Z</time></trkpt><trkpt lat="45.9569115" lon="8.8715348"><ele>277.0</ele><time>2026-05-01T13:38:57.851Z</time></trkpt><trkpt lat="45.9569593" lon="8.8713834"><ele>277.2</ele><time>2026-05-01T13:38:58.851Z</time></trkpt><trkpt lat="45.9570058" lon="8.8712391"><ele>277.4</ele><time>2026-05-01T13:38:59.851Z</time></trkpt><trkpt lat="45.9570431" lon="8.8711062"><ele>277.6</ele><time>2026-05-01T13:39:00.851Z</time></trkpt><trkpt lat="45.957087" lon="8.8709817"><ele>277.8</ele><time>2026-05-01T13:39:01.85Z</time></trkpt><trkpt lat="45.9571313" lon="8.8708468"><ele>278.0</ele><time>2026-05-01T13:39:02.849Z</time></trkpt><trkpt lat="45.9571698" lon="8.8707136"><ele>278.8</ele><time>2026-05-01T13:39:03.85Z</time></trkpt><trkpt lat="45.9572092" lon="8.8705754"><ele>279.6</ele><time>2026-05-01T13:39:04.851Z</time></trkpt><trkpt lat="45.957246" lon="8.8704302"><ele>280.4</ele><time>2026-05-01T13:39:05.85Z</time></trkpt><trkpt lat="45.957286" lon="8.8702895"><ele>281.2</ele><time>2026-05-01T13:39:06.849Z</time></trkpt><trkpt lat="45.9573296" lon="8.8701452"><ele>282.0</ele><time>2026-05-01T13:39:07.85Z</time></trkpt><trkpt lat="45.9573773" lon="8.8699974"><ele>282.2</ele><time>2026-05-01T13:39:08.851Z</time></trkpt><trkpt lat="45.957423" lon="8.8698563"><ele>282.4</ele><time>2026-05-01T13:39:09.851Z</time></trkpt><trkpt lat="45.9574694" lon="8.8697142"><ele>282.6</ele><time>2026-05-01T13:39:10.851Z</time></trkpt><trkpt lat="45.9575091" lon="8.8695783"><ele>282.8</ele><time>2026-05-01T13:39:11.851Z</time></trkpt><trkpt lat="45.957546" lon="8.8694493"><ele>283.0</ele><time>2026-05-01T13:39:12.85Z</time></trkpt><trkpt lat="45.9575796" lon="8.8693365"><ele>283.4</ele><time>2026-05-01T13:39:13.851Z</time></trkpt><trkpt lat="45.9576153" lon="8.8692261"><ele>283.8</ele><time>2026-05-01T13:39:14.851Z</time></trkpt><trkpt lat="45.9576528" lon="8.8691048"><ele>284.2</ele><time>2026-05-01T13:39:15.851Z</time></trkpt><trkpt lat="45.9576913" lon="8.8689846"><ele>284.6</ele><time>2026-05-01T13:39:16.851Z</time></trkpt><trkpt lat="45.9577287" lon="8.8688693"><ele>285.0</ele><time>2026-05-01T13:39:17.85Z</time></trkpt><trkpt lat="45.9577677" lon="8.8687321"><ele>285.0</ele><time>2026-05-01T13:39:18.851Z</time></trkpt><trkpt lat="45.9578074" lon="8.8685952"><ele>285.0</ele><time>2026-05-01T13:39:19.851Z</time></trkpt><trkpt lat="45.9578497" lon="8.8684463"><ele>285.0</ele><time>2026-05-01T13:39:20.851Z</time></trkpt><trkpt lat="45.9578987" lon="8.868305"><ele>285.0</ele><time>2026-05-01T13:39:21.851Z</time></trkpt><trkpt lat="45.9579421" lon="8.8681676"><ele>285.0</ele><time>2026-05-01T13:39:22.851Z</time></trkpt><trkpt lat="45.9579834" lon="8.8680226"><ele>284.8</ele><time>2026-05-01T13:39:23.851Z</time></trkpt><trkpt lat="45.9580202" lon="8.8678794"><ele>284.6</ele><time>2026-05-01T13:39:24.85Z</time></trkpt><trkpt lat="45.9580486" lon="8.8677191"><ele>284.4</ele><time>2026-05-01T13:39:25.851Z</time></trkpt><trkpt lat="45.95808" lon="8.8675583"><ele>284.2</ele><time>2026-05-01T13:39:26.851Z</time></trkpt><trkpt lat="45.9581034" lon="8.867403"><ele>284.0</ele><time>2026-05-01T13:39:27.85Z</time></trkpt><trkpt lat="45.9581279" lon="8.8672531"><ele>283.8</ele><time>2026-05-01T13:39:28.85Z</time></trkpt><trkpt lat="45.9581494" lon="8.8671013"><ele>283.59999999999997</ele><time>2026-05-01T13:39:29.851Z</time></trkpt><trkpt lat="45.9581753" lon="8.8669466"><ele>283.4</ele><time>2026-05-01T13:39:30.851Z</time></trkpt><trkpt lat="45.9582054" lon="8.8667967"><ele>283.2</ele><time>2026-05-01T13:39:31.851Z</time></trkpt><trkpt lat="45.9582301" lon="8.866649"><ele>283.0</ele><time>2026-05-01T13:39:32.85Z</time></trkpt><trkpt lat="45.958245" lon="8.866515"><ele>282.6</ele><time>2026-05-01T13:39:33.85Z</time></trkpt><trkpt lat="45.9582632" lon="8.8663866"><ele>282.20000000000005</ele><time>2026-05-01T13:39:34.851Z</time></trkpt><trkpt lat="45.9582806" lon="8.8662795"><ele>281.8</ele><time>2026-05-01T13:39:35.85Z</time></trkpt><trkpt lat="45.9582913" lon="8.8661893"><ele>281.40000000000003</ele><time>2026-05-01T13:39:36.851Z</time></trkpt><trkpt lat="45.9583188" lon="8.866025"><ele>281.0</ele><time>2026-05-01T13:39:38.851Z</time></trkpt><trkpt lat="45.9583548" lon="8.8658342"><ele>280.40000000000003</ele><time>2026-05-01T13:39:40.851Z</time></trkpt><trkpt lat="45.9583753" lon="8.8657217"><ele>279.8</ele><time>2026-05-01T13:39:41.85Z</time></trkpt><trkpt lat="45.9583979" lon="8.8655994"><ele>279.20000000000005</ele><time>2026-05-01T13:39:42.85Z</time></trkpt><trkpt lat="45.958428" lon="8.86547"><ele>278.6</ele><time>2026-05-01T13:39:43.851Z</time></trkpt><trkpt lat="45.9584662" lon="8.8653412"><ele>278.0</ele><time>2026-05-01T13:39:44.851Z</time></trkpt><trkpt lat="45.9585382" lon="8.865211"><ele>277.75</ele><time>2026-05-01T13:39:45.85Z</time></trkpt><trkpt lat="45.958604" lon="8.8650847"><ele>277.5</ele><time>2026-05-01T13:39:46.851Z</time></trkpt><trkpt lat="45.9586707" lon="8.8649604"><ele>277.25</ele><time>2026-05-01T13:39:47.851Z</time></trkpt><trkpt lat="45.9587411" lon="8.8648325"><ele>277.0</ele><time>2026-05-01T13:39:48.85Z</time></trkpt><trkpt lat="45.9588189" lon="8.8646953"><ele>277.0</ele><time>2026-05-01T13:39:49.85Z</time></trkpt><trkpt lat="45.9588955" lon="8.8645581"><ele>277.0</ele><time>2026-05-01T13:39:50.851Z</time></trkpt><trkpt lat="45.9589778" lon="8.864419"><ele>277.0</ele><time>2026-05-01T13:39:51.851Z</time></trkpt><trkpt lat="45.9590641" lon="8.8642719"><ele>277.0</ele><time>2026-05-01T13:39:52.85Z</time></trkpt><trkpt lat="45.959145" lon="8.8641354"><ele>276.75</ele><time>2026-05-01T13:39:53.851Z</time></trkpt><trkpt lat="45.9592211" lon="8.8639968"><ele>276.5</ele><time>2026-05-01T13:39:54.85Z</time></trkpt><trkpt lat="45.9592958" lon="8.863859"><ele>276.25</ele><time>2026-05-01T13:39:55.851Z</time></trkpt><trkpt lat="45.9593729" lon="8.8637198"><ele>276.0</ele><time>2026-05-01T13:39:56.851Z</time></trkpt><trkpt lat="45.9594621" lon="8.863586"><ele>276.75</ele><time>2026-05-01T13:39:57.851Z</time></trkpt><trkpt lat="45.959544" lon="8.8634425"><ele>277.5</ele><time>2026-05-01T13:39:58.85Z</time></trkpt><trkpt lat="45.9596304" lon="8.8632984"><ele>278.25</ele><time>2026-05-01T13:39:59.851Z</time></trkpt><trkpt lat="45.9597187" lon="8.8631557"><ele>279.0</ele><time>2026-05-01T13:40:00.85Z</time></trkpt><trkpt lat="45.9598028" lon="8.863022"><ele>279.0</ele><time>2026-05-01T13:40:01.85Z</time></trkpt><trkpt lat="45.9598844" lon="8.8628888"><ele>279.0</ele><time>2026-05-01T13:40:02.851Z</time></trkpt><trkpt lat="45.959969" lon="8.8627518"><ele>279.0</ele><time>2026-05-01T13:40:03.851Z</time></trkpt><trkpt lat="45.9600577" lon="8.8626248"><ele>279.0</ele><time>2026-05-01T13:40:04.851Z</time></trkpt><trkpt lat="45.9601484" lon="8.8625043"><ele>278.75</ele><time>2026-05-01T13:40:05.851Z</time></trkpt><trkpt lat="45.9602345" lon="8.8623726"><ele>278.5</ele><time>2026-05-01T13:40:06.851Z</time></trkpt><trkpt lat="45.9603318" lon="8.8622442"><ele>278.25</ele><time>2026-05-01T13:40:07.851Z</time></trkpt><trkpt lat="45.9604217" lon="8.862117"><ele>278.0</ele><time>2026-05-01T13:40:08.851Z</time></trkpt><trkpt lat="45.9605229" lon="8.8619918"><ele>278.0</ele><time>2026-05-01T13:40:09.849Z</time></trkpt><trkpt lat="45.9606186" lon="8.8618748"><ele>278.0</ele><time>2026-05-01T13:40:10.851Z</time></trkpt><trkpt lat="45.9607105" lon="8.8617599"><ele>278.0</ele><time>2026-05-01T13:40:11.85Z</time></trkpt><trkpt lat="45.9607974" lon="8.8616541"><ele>278.0</ele><time>2026-05-01T13:40:12.85Z</time></trkpt><trkpt lat="45.9608936" lon="8.8615695"><ele>277.5</ele><time>2026-05-01T13:40:13.851Z</time></trkpt><trkpt lat="45.9609939" lon="8.8614888"><ele>277.0</ele><time>2026-05-01T13:40:14.851Z</time></trkpt><trkpt lat="45.9611047" lon="8.8614169"><ele>276.5</ele><time>2026-05-01T13:40:15.85Z</time></trkpt><trkpt lat="45.9612295" lon="8.8613542"><ele>276.0</ele><time>2026-05-01T13:40:16.851Z</time></trkpt><trkpt lat="45.9613561" lon="8.8612937"><ele>276.0</ele><time>2026-05-01T13:40:17.851Z</time></trkpt><trkpt lat="45.9614888" lon="8.8612324"><ele>276.0</ele><time>2026-05-01T13:40:18.851Z</time></trkpt><trkpt lat="45.9616131" lon="8.8611918"><ele>276.0</ele><time>2026-05-01T13:40:19.851Z</time></trkpt><trkpt lat="45.9617305" lon="8.8611209"><ele>276.0</ele><time>2026-05-01T13:40:20.85Z</time></trkpt><trkpt lat="45.9618394" lon="8.8610395"><ele>275.0</ele><time>2026-05-01T13:40:21.85Z</time></trkpt><trkpt lat="45.9619427" lon="8.8609351"><ele>274.0</ele><time>2026-05-01T13:40:22.85Z</time></trkpt><trkpt lat="45.9620302" lon="8.8608314"><ele>273.0</ele><time>2026-05-01T13:40:23.85Z</time></trkpt><trkpt lat="45.9621119" lon="8.8607255"><ele>272.0</ele><time>2026-05-01T13:40:24.851Z</time></trkpt><trkpt lat="45.962187" lon="8.8606074"><ele>272.0</ele><time>2026-05-01T13:40:25.85Z</time></trkpt><trkpt lat="45.962263" lon="8.8604918"><ele>272.0</ele><time>2026-05-01T13:40:26.85Z</time></trkpt><trkpt lat="45.9623429" lon="8.8603777"><ele>272.0</ele><time>2026-05-01T13:40:27.85Z</time></trkpt><trkpt lat="45.9624265" lon="8.8602698"><ele>272.0</ele><time>2026-05-01T13:40:28.851Z</time></trkpt><trkpt lat="45.9625137" lon="8.8601748"><ele>272.0</ele><time>2026-05-01T13:40:29.851Z</time></trkpt><trkpt lat="45.9626084" lon="8.8600886"><ele>272.0</ele><time>2026-05-01T13:40:30.851Z</time></trkpt><trkpt lat="45.9627123" lon="8.8600151"><ele>272.0</ele><time>2026-05-01T13:40:31.851Z</time></trkpt><trkpt lat="45.962818" lon="8.8599564"><ele>272.0</ele><time>2026-05-01T13:40:32.85Z</time></trkpt><trkpt lat="45.9629219" lon="8.8598987"><ele>272.0</ele><time>2026-05-01T13:40:33.851Z</time></trkpt><trkpt lat="45.9630269" lon="8.8598453"><ele>272.0</ele><time>2026-05-01T13:40:34.851Z</time></trkpt><trkpt lat="45.9631392" lon="8.8597868"><ele>272.0</ele><time>2026-05-01T13:40:35.851Z</time></trkpt><trkpt lat="45.9632482" lon="8.85973"><ele>272.0</ele><time>2026-05-01T13:40:36.852Z</time></trkpt><trkpt lat="45.9633608" lon="8.8596761"><ele>272.0</ele><time>2026-05-01T13:40:37.851Z</time></trkpt><trkpt lat="45.9634784" lon="8.8596134"><ele>271.75</ele><time>2026-05-01T13:40:38.851Z</time></trkpt><trkpt lat="45.9635951" lon="8.8595535"><ele>271.5</ele><time>2026-05-01T13:40:39.851Z</time></trkpt><trkpt lat="45.9637135" lon="8.8594972"><ele>271.25</ele><time>2026-05-01T13:40:40.85Z</time></trkpt><trkpt lat="45.9638383" lon="8.8594326"><ele>271.0</ele><time>2026-05-01T13:40:41.851Z</time></trkpt><trkpt lat="45.9639616" lon="8.8593675"><ele>271.0</ele><time>2026-05-01T13:40:42.851Z</time></trkpt><trkpt lat="45.9640873" lon="8.8592984"><ele>271.0</ele><time>2026-05-01T13:40:43.851Z</time></trkpt><trkpt lat="45.9642064" lon="8.8592277"><ele>271.0</ele><time>2026-05-01T13:40:44.85Z</time></trkpt><trkpt lat="45.9643216" lon="8.8591579"><ele>271.0</ele><time>2026-05-01T13:40:45.851Z</time></trkpt><trkpt lat="45.9644283" lon="8.8590934"><ele>272.40000000000003</ele><time>2026-05-01T13:40:46.851Z</time></trkpt><trkpt lat="45.9645304" lon="8.8590292"><ele>273.8</ele><time>2026-05-01T13:40:47.851Z</time></trkpt><trkpt lat="45.9646228" lon="8.8589721"><ele>275.20000000000005</ele><time>2026-05-01T13:40:48.85Z</time></trkpt><trkpt lat="45.964706" lon="8.8589145"><ele>276.6</ele><time>2026-05-01T13:40:49.851Z</time></trkpt><trkpt lat="45.9647887" lon="8.8588646"><ele>278.0</ele><time>2026-05-01T13:40:50.85Z</time></trkpt><trkpt lat="45.9648711" lon="8.8588156"><ele>278.0</ele><time>2026-05-01T13:40:51.851Z</time></trkpt><trkpt lat="45.9649542" lon="8.8587699"><ele>278.0</ele><time>2026-05-01T13:40:52.851Z</time></trkpt><trkpt lat="45.9650397" lon="8.8587091"><ele>278.0</ele><time>2026-05-01T13:40:53.85Z</time></trkpt><trkpt lat="45.9651318" lon="8.8586503"><ele>278.0</ele><time>2026-05-01T13:40:54.851Z</time></trkpt><trkpt lat="45.9652309" lon="8.8585992"><ele>278.0</ele><time>2026-05-01T13:40:55.85Z</time></trkpt><trkpt lat="45.9653355" lon="8.8585482"><ele>278.4</ele><time>2026-05-01T13:40:56.851Z</time></trkpt><trkpt lat="45.9654374" lon="8.8585007"><ele>278.8</ele><time>2026-05-01T13:40:57.849Z</time></trkpt><trkpt lat="45.9655342" lon="8.8584615"><ele>279.2</ele><time>2026-05-01T13:40:58.851Z</time></trkpt><trkpt lat="45.9656214" lon="8.8584218"><ele>279.6</ele><time>2026-05-01T13:40:59.849Z</time></trkpt><trkpt lat="45.9657014" lon="8.8583848"><ele>280.0</ele><time>2026-05-01T13:41:00.851Z</time></trkpt><trkpt lat="45.9657744" lon="8.8583476"><ele>280.0</ele><time>2026-05-01T13:41:01.85Z</time></trkpt><trkpt lat="45.9658454" lon="8.8583143"><ele>280.0</ele><time>2026-05-01T13:41:02.851Z</time></trkpt><trkpt lat="45.9659146" lon="8.8582531"><ele>280.0</ele><time>2026-05-01T13:41:03.851Z</time></trkpt><trkpt lat="45.9659706" lon="8.8581818"><ele>280.0</ele><time>2026-05-01T13:41:04.851Z</time></trkpt><trkpt lat="45.9660149" lon="8.8581162"><ele>280.0</ele><time>2026-05-01T13:41:05.851Z</time></trkpt><trkpt lat="45.9660674" lon="8.8580147"><ele>280.0</ele><time>2026-05-01T13:41:07.851Z</time></trkpt><trkpt lat="45.9661234" lon="8.8579326"><ele>279.8</ele><time>2026-05-01T13:41:10.85Z</time></trkpt><trkpt lat="45.966178" lon="8.8578427"><ele>279.6</ele><time>2026-05-01T13:41:13.852Z</time></trkpt><trkpt lat="45.9662475" lon="8.8577597"><ele>279.4</ele><time>2026-05-01T13:41:22.851Z</time></trkpt><trkpt lat="45.9663258" lon="8.8576767"><ele>279.2</ele><time>2026-05-01T13:41:24.85Z</time></trkpt><trkpt lat="45.9663988" lon="8.8576039"><ele>279.0</ele><time>2026-05-01T13:41:26.851Z</time></trkpt><trkpt lat="45.9664897" lon="8.8574801"><ele>278.99999999999994</ele><time>2026-05-01T13:41:28.851Z</time></trkpt><trkpt lat="45.9665367" lon="8.8574071"><ele>279.0</ele><time>2026-05-01T13:41:29.85Z</time></trkpt><trkpt lat="45.9665804" lon="8.8573136"><ele>279.0</ele><time>2026-05-01T13:41:30.851Z</time></trkpt><trkpt lat="45.9666254" lon="8.8572303"><ele>279.0</ele><time>2026-05-01T13:41:31.851Z</time></trkpt><trkpt lat="45.9666665" lon="8.8571496"><ele>279.0</ele><time>2026-05-01T13:41:32.849Z</time></trkpt><trkpt lat="45.966703" lon="8.8570742"><ele>278.99999999999994</ele><time>2026-05-01T13:41:33.85Z</time></trkpt><trkpt lat="45.966739" lon="8.8569982"><ele>279.0</ele><time>2026-05-01T13:41:34.851Z</time></trkpt><trkpt lat="45.966809" lon="8.8568669"><ele>278.6666666666667</ele><time>2026-05-01T13:41:36.85Z</time></trkpt><trkpt lat="45.9668554" lon="8.856791"><ele>278.3333333333333</ele><time>2026-05-01T13:41:37.851Z</time></trkpt><trkpt lat="45.9669191" lon="8.8566582"><ele>278.0</ele><time>2026-05-01T13:41:39.851Z</time></trkpt><trkpt lat="45.9669643" lon="8.8565868"><ele>277.66666666666663</ele><time>2026-05-01T13:41:40.851Z</time></trkpt><trkpt lat="45.9670168" lon="8.8565018"><ele>277.3333333333333</ele><time>2026-05-01T13:41:41.851Z</time></trkpt><trkpt lat="45.9670638" lon="8.85643"><ele>277.0</ele><time>2026-05-01T13:41:42.85Z</time></trkpt><trkpt lat="45.967113" lon="8.8563401"><ele>276.8333333333333</ele><time>2026-05-01T13:41:43.851Z</time></trkpt><trkpt lat="45.9671748" lon="8.8562697"><ele>276.66666666666663</ele><time>2026-05-01T13:41:44.851Z</time></trkpt><trkpt lat="45.9672243" lon="8.856168"><ele>276.5</ele><time>2026-05-01T13:41:45.85Z</time></trkpt><trkpt lat="45.9672662" lon="8.856056"><ele>276.3333333333333</ele><time>2026-05-01T13:41:46.851Z</time></trkpt><trkpt lat="45.9672981" lon="8.8559424"><ele>276.1666666666667</ele><time>2026-05-01T13:41:47.85Z</time></trkpt><trkpt lat="45.967305" lon="8.8558161"><ele>276.0</ele><time>2026-05-01T13:41:48.851Z</time></trkpt><trkpt lat="45.9673056" lon="8.8556965"><ele>276.6666666666667</ele><time>2026-05-01T13:41:49.851Z</time></trkpt><trkpt lat="45.9673181" lon="8.8555795"><ele>277.3333333333333</ele><time>2026-05-01T13:41:50.851Z</time></trkpt><trkpt lat="45.9673252" lon="8.8554551"><ele>278.0</ele><time>2026-05-01T13:41:51.851Z</time></trkpt><trkpt lat="45.9673486" lon="8.8553312"><ele>278.66666666666663</ele><time>2026-05-01T13:41:52.851Z</time></trkpt><trkpt lat="45.967374" lon="8.855206"><ele>279.3333333333333</ele><time>2026-05-01T13:41:53.851Z</time></trkpt><trkpt lat="45.9673984" lon="8.8550786"><ele>280.0</ele><time>2026-05-01T13:41:54.851Z</time></trkpt><trkpt lat="45.9674237" lon="8.8549542"><ele>279.8333333333333</ele><time>2026-05-01T13:41:55.851Z</time></trkpt><trkpt lat="45.9674463" lon="8.8548342"><ele>279.66666666666663</ele><time>2026-05-01T13:41:56.851Z</time></trkpt><trkpt lat="45.9674698" lon="8.8547155"><ele>279.5</ele><time>2026-05-01T13:41:57.85Z</time></trkpt><trkpt lat="45.9674917" lon="8.8545961"><ele>279.3333333333333</ele><time>2026-05-01T13:41:58.85Z</time></trkpt><trkpt lat="45.9675125" lon="8.8544859"><ele>279.1666666666667</ele><time>2026-05-01T13:41:59.85Z</time></trkpt><trkpt lat="45.9675328" lon="8.854394"><ele>279.0</ele><time>2026-05-01T13:42:00.851Z</time></trkpt><trkpt lat="45.9675659" lon="8.854274"><ele>278.8333333333333</ele><time>2026-05-01T13:42:02.851Z</time></trkpt><trkpt lat="45.9675825" lon="8.854155"><ele>278.6666666666667</ele><time>2026-05-01T13:42:06.851Z</time></trkpt><trkpt lat="45.967594" lon="8.8540653"><ele>278.5</ele><time>2026-05-01T13:42:09.851Z</time></trkpt><trkpt lat="45.9676097" lon="8.8539437"><ele>278.33333333333337</ele><time>2026-05-01T13:42:13.851Z</time></trkpt><trkpt lat="45.9676407" lon="8.8537818"><ele>278.1666666666667</ele><time>2026-05-01T13:42:15.851Z</time></trkpt><trkpt lat="45.9676709" lon="8.8536647"><ele>278.0</ele><time>2026-05-01T13:42:16.851Z</time></trkpt><trkpt lat="45.9677053" lon="8.853532"><ele>278.25</ele><time>2026-05-01T13:42:17.85Z</time></trkpt><trkpt lat="45.9677698" lon="8.8533456"><ele>278.5</ele><time>2026-05-01T13:42:18.851Z</time></trkpt><trkpt lat="45.9678429" lon="8.8531671"><ele>278.75</ele><time>2026-05-01T13:42:19.851Z</time></trkpt><trkpt lat="45.967925" lon="8.8529926"><ele>279.0</ele><time>2026-05-01T13:42:20.85Z</time></trkpt><trkpt lat="45.9680121" lon="8.8528195"><ele>279.0</ele><time>2026-05-01T13:42:21.851Z</time></trkpt><trkpt lat="45.9681256" lon="8.8526624"><ele>279.0</ele><time>2026-05-01T13:42:22.85Z</time></trkpt><trkpt lat="45.9682445" lon="8.8525128"><ele>279.0</ele><time>2026-05-01T13:42:23.85Z</time></trkpt><trkpt lat="45.9683645" lon="8.8523573"><ele>278.75</ele><time>2026-05-01T13:42:24.85Z</time></trkpt><trkpt lat="45.9684846" lon="8.8522103"><ele>278.5</ele><time>2026-05-01T13:42:25.85Z</time></trkpt><trkpt lat="45.968601" lon="8.8520823"><ele>278.25</ele><time>2026-05-01T13:42:26.851Z</time></trkpt><trkpt lat="45.968703" lon="8.8519591"><ele>278.0</ele><time>2026-05-01T13:42:27.85Z</time></trkpt><trkpt lat="45.9688021" lon="8.8518473"><ele>277.75</ele><time>2026-05-01T13:42:28.849Z</time></trkpt><trkpt lat="45.9689123" lon="8.8517333"><ele>277.5</ele><time>2026-05-01T13:42:29.851Z</time></trkpt><trkpt lat="45.9690155" lon="8.8516134"><ele>277.25</ele><time>2026-05-01T13:42:30.851Z</time></trkpt><trkpt lat="45.9691198" lon="8.8514812"><ele>277.0</ele><time>2026-05-01T13:42:31.85Z</time></trkpt><trkpt lat="45.9692324" lon="8.8513555"><ele>277.0</ele><time>2026-05-01T13:42:32.852Z</time></trkpt><trkpt lat="45.9693495" lon="8.8512198"><ele>277.0</ele><time>2026-05-01T13:42:33.851Z</time></trkpt><trkpt lat="45.9694649" lon="8.8510821"><ele>277.0</ele><time>2026-05-01T13:42:34.851Z</time></trkpt><trkpt lat="45.9695857" lon="8.8509492"><ele>277.66666666666663</ele><time>2026-05-01T13:42:35.851Z</time></trkpt><trkpt lat="45.9697016" lon="8.85081"><ele>278.3333333333333</ele><time>2026-05-01T13:42:36.851Z</time></trkpt><trkpt lat="45.9698227" lon="8.8506605"><ele>279.0</ele><time>2026-05-01T13:42:37.85Z</time></trkpt><trkpt lat="45.9699434" lon="8.8505162"><ele>278.75</ele><time>2026-05-01T13:42:38.851Z</time></trkpt><trkpt lat="45.970068" lon="8.8503734"><ele>278.5</ele><time>2026-05-01T13:42:39.851Z</time></trkpt><trkpt lat="45.9701792" lon="8.8502366"><ele>278.25</ele><time>2026-05-01T13:42:40.851Z</time></trkpt><trkpt lat="45.9702872" lon="8.8501083"><ele>278.0</ele><time>2026-05-01T13:42:41.851Z</time></trkpt><trkpt lat="45.9703812" lon="8.8499736"><ele>278.0</ele><time>2026-05-01T13:42:42.851Z</time></trkpt><trkpt lat="45.9704767" lon="8.8498284"><ele>278.0</ele><time>2026-05-01T13:42:43.851Z</time></trkpt><trkpt lat="45.970569" lon="8.8496774"><ele>278.0</ele><time>2026-05-01T13:42:44.851Z</time></trkpt><trkpt lat="45.9706544" lon="8.8495137"><ele>278.0</ele><time>2026-05-01T13:42:45.851Z</time></trkpt><trkpt lat="45.970743" lon="8.849342"><ele>278.6666666666667</ele><time>2026-05-01T13:42:46.85Z</time></trkpt><trkpt lat="45.9708321" lon="8.8491652"><ele>279.3333333333333</ele><time>2026-05-01T13:42:47.851Z</time></trkpt><trkpt lat="45.9709203" lon="8.8489885"><ele>280.0</ele><time>2026-05-01T13:42:48.851Z</time></trkpt><trkpt lat="45.9710088" lon="8.8487992"><ele>279.3333333333333</ele><time>2026-05-01T13:42:49.851Z</time></trkpt><trkpt lat="45.9710927" lon="8.8486113"><ele>278.6666666666667</ele><time>2026-05-01T13:42:50.851Z</time></trkpt><trkpt lat="45.9711815" lon="8.8484233"><ele>278.0</ele><time>2026-05-01T13:42:51.85Z</time></trkpt><trkpt lat="45.9712724" lon="8.8482283"><ele>278.0</ele><time>2026-05-01T13:42:52.85Z</time></trkpt><trkpt lat="45.9713593" lon="8.8480398"><ele>278.0</ele><time>2026-05-01T13:42:53.851Z</time></trkpt><trkpt lat="45.9714553" lon="8.8478492"><ele>278.0</ele><time>2026-05-01T13:42:54.851Z</time></trkpt><trkpt lat="45.9715452" lon="8.8476582"><ele>277.6666666666667</ele><time>2026-05-01T13:42:55.851Z</time></trkpt><trkpt lat="45.9716325" lon="8.8474631"><ele>277.3333333333333</ele><time>2026-05-01T13:42:56.849Z</time></trkpt><trkpt lat="45.9717271" lon="8.847278"><ele>277.0</ele><time>2026-05-01T13:42:57.851Z</time></trkpt><trkpt lat="45.9718187" lon="8.847111"><ele>276.5</ele><time>2026-05-01T13:42:58.851Z</time></trkpt><trkpt lat="45.9719077" lon="8.8469581"><ele>276.0</ele><time>2026-05-01T13:42:59.851Z</time></trkpt><trkpt lat="45.9720052" lon="8.8468293"><ele>275.5</ele><time>2026-05-01T13:43:00.85Z</time></trkpt><trkpt lat="45.9721186" lon="8.8467252"><ele>275.0</ele><time>2026-05-01T13:43:01.851Z</time></trkpt><trkpt lat="45.9722412" lon="8.8466293"><ele>275.0</ele><time>2026-05-01T13:43:02.851Z</time></trkpt><trkpt lat="45.9723723" lon="8.8465459"><ele>275.0</ele><time>2026-05-01T13:43:03.85Z</time></trkpt><trkpt lat="45.9725097" lon="8.8464602"><ele>275.0</ele><time>2026-05-01T13:43:04.852Z</time></trkpt><trkpt lat="45.9726485" lon="8.8463791"><ele>275.0</ele><time>2026-05-01T13:43:05.851Z</time></trkpt><trkpt lat="45.9727774" lon="8.8462925"><ele>275.0</ele><time>2026-05-01T13:43:06.849Z</time></trkpt><trkpt lat="45.9729042" lon="8.8462074"><ele>275.0</ele><time>2026-05-01T13:43:07.849Z</time></trkpt><trkpt lat="45.9730247" lon="8.8461077"><ele>275.0</ele><time>2026-05-01T13:43:08.849Z</time></trkpt><trkpt lat="45.9731451" lon="8.8459961"><ele>275.0</ele><time>2026-05-01T13:43:09.851Z</time></trkpt><trkpt lat="45.9732598" lon="8.8458716"><ele>275.0</ele><time>2026-05-01T13:43:10.851Z</time></trkpt><trkpt lat="45.9733748" lon="8.8457396"><ele>275.0</ele><time>2026-05-01T13:43:11.85Z</time></trkpt><trkpt lat="45.973495" lon="8.8456169"><ele>275.0</ele><time>2026-05-01T13:43:12.851Z</time></trkpt><trkpt lat="45.9736188" lon="8.8455052"><ele>275.0</ele><time>2026-05-01T13:43:13.851Z</time></trkpt><trkpt lat="45.973752" lon="8.8454145"><ele>275.0</ele><time>2026-05-01T13:43:14.85Z</time></trkpt><trkpt lat="45.9738864" lon="8.8453404"><ele>275.0</ele><time>2026-05-01T13:43:15.851Z</time></trkpt><trkpt lat="45.9740233" lon="8.8452695"><ele>275.0</ele><time>2026-05-01T13:43:16.851Z</time></trkpt><trkpt lat="45.9741632" lon="8.8452089"><ele>275.0</ele><time>2026-05-01T13:43:17.851Z</time></trkpt><trkpt lat="45.9743036" lon="8.8451383"><ele>276.0</ele><time>2026-05-01T13:43:18.85Z</time></trkpt><trkpt lat="45.9744472" lon="8.845075"><ele>277.0</ele><time>2026-05-01T13:43:19.849Z</time></trkpt><trkpt lat="45.974595" lon="8.8450103"><ele>278.0</ele><time>2026-05-01T13:43:20.851Z</time></trkpt><trkpt lat="45.9747428" lon="8.8449412"><ele>278.0</ele><time>2026-05-01T13:43:21.851Z</time></trkpt><trkpt lat="45.9748927" lon="8.8448694"><ele>278.0</ele><time>2026-05-01T13:43:22.851Z</time></trkpt><trkpt lat="45.9750356" lon="8.844805"><ele>278.0</ele><time>2026-05-01T13:43:23.851Z</time></trkpt><trkpt lat="45.975176" lon="8.8447276"><ele>276.75</ele><time>2026-05-01T13:43:24.851Z</time></trkpt><trkpt lat="45.9753114" lon="8.844652"><ele>275.5</ele><time>2026-05-01T13:43:25.851Z</time></trkpt><trkpt lat="45.9754442" lon="8.8445636"><ele>274.25</ele><time>2026-05-01T13:43:26.852Z</time></trkpt><trkpt lat="45.9755745" lon="8.8444547"><ele>273.0</ele><time>2026-05-01T13:43:27.85Z</time></trkpt><trkpt lat="45.9757023" lon="8.8443417"><ele>273.0</ele><time>2026-05-01T13:43:28.85Z</time></trkpt><trkpt lat="45.9758434" lon="8.8442094"><ele>273.0</ele><time>2026-05-01T13:43:29.85Z</time></trkpt><trkpt lat="45.9759754" lon="8.8440598"><ele>273.0</ele><time>2026-05-01T13:43:30.85Z</time></trkpt><trkpt lat="45.9760998" lon="8.8438967"><ele>273.0</ele><time>2026-05-01T13:43:31.851Z</time></trkpt><trkpt lat="45.9762367" lon="8.8437205"><ele>273.0</ele><time>2026-05-01T13:43:32.851Z</time></trkpt><trkpt lat="45.9763716" lon="8.843555"><ele>273.0</ele><time>2026-05-01T13:43:33.851Z</time></trkpt><trkpt lat="45.9765137" lon="8.8434146"><ele>273.3333333333333</ele><time>2026-05-01T13:43:34.851Z</time></trkpt><trkpt lat="45.9766762" lon="8.8433187"><ele>273.66666666666663</ele><time>2026-05-01T13:43:35.85Z</time></trkpt><trkpt lat="45.976834" lon="8.8432124"><ele>274.0</ele><time>2026-05-01T13:43:36.85Z</time></trkpt><trkpt lat="45.977008" lon="8.8431281"><ele>274.0</ele><time>2026-05-01T13:43:37.851Z</time></trkpt><trkpt lat="45.9772037" lon="8.8430617"><ele>274.0</ele><time>2026-05-01T13:43:38.851Z</time></trkpt><trkpt lat="45.9773937" lon="8.8429818"><ele>274.0</ele><time>2026-05-01T13:43:39.85Z</time></trkpt><trkpt lat="45.977592" lon="8.8428858"><ele>274.0</ele><time>2026-05-01T13:43:40.851Z</time></trkpt><trkpt lat="45.9777941" lon="8.8427709"><ele>274.0</ele><time>2026-05-01T13:43:41.851Z</time></trkpt><trkpt lat="45.9779949" lon="8.842653"><ele>274.0</ele><time>2026-05-01T13:43:42.851Z</time></trkpt><trkpt lat="45.9781879" lon="8.8425399"><ele>274.3333333333333</ele><time>2026-05-01T13:43:43.851Z</time></trkpt><trkpt lat="45.9783655" lon="8.8424343"><ele>274.6666666666667</ele><time>2026-05-01T13:43:44.849Z</time></trkpt><trkpt lat="45.9785292" lon="8.8423362"><ele>275.0</ele><time>2026-05-01T13:43:45.851Z</time></trkpt><trkpt lat="45.9786833" lon="8.8422414"><ele>275.0</ele><time>2026-05-01T13:43:46.851Z</time></trkpt><trkpt lat="45.9788229" lon="8.8421571"><ele>275.0</ele><time>2026-05-01T13:43:47.85Z</time></trkpt><trkpt lat="45.9789561" lon="8.8420699"><ele>275.0</ele><time>2026-05-01T13:43:48.851Z</time></trkpt><trkpt lat="45.979095" lon="8.8419854"><ele>275.0</ele><time>2026-05-01T13:43:49.851Z</time></trkpt><trkpt lat="45.9792326" lon="8.8419069"><ele>275.5</ele><time>2026-05-01T13:43:50.851Z</time></trkpt><trkpt lat="45.9793698" lon="8.8418332"><ele>276.0</ele><time>2026-05-01T13:43:51.851Z</time></trkpt><trkpt lat="45.9795075" lon="8.8417525"><ele>276.5</ele><time>2026-05-01T13:43:52.851Z</time></trkpt><trkpt lat="45.979647" lon="8.8416622"><ele>277.0</ele><time>2026-05-01T13:43:53.85Z</time></trkpt><trkpt lat="45.9797833" lon="8.8415622"><ele>277.0</ele><time>2026-05-01T13:43:54.85Z</time></trkpt><trkpt lat="45.979918" lon="8.8414568"><ele>277.0</ele><time>2026-05-01T13:43:55.85Z</time></trkpt><trkpt lat="45.9800432" lon="8.8413476"><ele>277.0</ele><time>2026-05-01T13:43:56.851Z</time></trkpt><trkpt lat="45.9801698" lon="8.8412387"><ele>277.0</ele><time>2026-05-01T13:43:57.851Z</time></trkpt><trkpt lat="45.980294" lon="8.8411271"><ele>276.75</ele><time>2026-05-01T13:43:58.851Z</time></trkpt><trkpt lat="45.9804092" lon="8.8410037"><ele>276.5</ele><time>2026-05-01T13:43:59.851Z</time></trkpt><trkpt lat="45.9805211" lon="8.8408689"><ele>276.25</ele><time>2026-05-01T13:44:00.851Z</time></trkpt><trkpt lat="45.980631" lon="8.8407339"><ele>276.0</ele><time>2026-05-01T13:44:01.85Z</time></trkpt><trkpt lat="45.9807452" lon="8.8405892"><ele>274.6666666666667</ele><time>2026-05-01T13:44:02.85Z</time></trkpt><trkpt lat="45.9808633" lon="8.8404434"><ele>273.33333333333337</ele><time>2026-05-01T13:44:03.85Z</time></trkpt><trkpt lat="45.9809785" lon="8.8402902"><ele>272.0</ele><time>2026-05-01T13:44:04.851Z</time></trkpt><trkpt lat="45.9810912" lon="8.8401399"><ele>273.5</ele><time>2026-05-01T13:44:05.851Z</time></trkpt><trkpt lat="45.9812001" lon="8.8400001"><ele>275.0</ele><time>2026-05-01T13:44:06.85Z</time></trkpt><trkpt lat="45.981306" lon="8.8398696"><ele>276.5</ele><time>2026-05-01T13:44:07.849Z</time></trkpt><trkpt lat="45.9814173" lon="8.8397493"><ele>278.0</ele><time>2026-05-01T13:44:08.851Z</time></trkpt><trkpt lat="45.9815396" lon="8.8396419"><ele>278.0</ele><time>2026-05-01T13:44:09.849Z</time></trkpt><trkpt lat="45.9816816" lon="8.8395528"><ele>278.0</ele><time>2026-05-01T13:44:10.851Z</time></trkpt><trkpt lat="45.9818337" lon="8.8394687"><ele>278.0</ele><time>2026-05-01T13:44:11.851Z</time></trkpt><trkpt lat="45.9819941" lon="8.8393874"><ele>276.6666666666667</ele><time>2026-05-01T13:44:12.85Z</time></trkpt><trkpt lat="45.9821572" lon="8.8393012"><ele>275.3333333333333</ele><time>2026-05-01T13:44:13.851Z</time></trkpt><trkpt lat="45.9823269" lon="8.8392201"><ele>274.0</ele><time>2026-05-01T13:44:14.849Z</time></trkpt><trkpt lat="45.9824808" lon="8.8391517"><ele>274.0</ele><time>2026-05-01T13:44:15.851Z</time></trkpt><trkpt lat="45.982623" lon="8.8390762"><ele>274.0</ele><time>2026-05-01T13:44:16.849Z</time></trkpt><trkpt lat="45.9827596" lon="8.8389786"><ele>274.0</ele><time>2026-05-01T13:44:17.851Z</time></trkpt><trkpt lat="45.982893" lon="8.8388823"><ele>274.0</ele><time>2026-05-01T13:44:18.851Z</time></trkpt><trkpt lat="45.983022" lon="8.838771"><ele>274.0</ele><time>2026-05-01T13:44:19.851Z</time></trkpt><trkpt lat="45.9831491" lon="8.8386505"><ele>274.0</ele><time>2026-05-01T13:44:20.851Z</time></trkpt><trkpt lat="45.9832751" lon="8.838537"><ele>273.66666666666663</ele><time>2026-05-01T13:44:21.85Z</time></trkpt><trkpt lat="45.9834048" lon="8.8384262"><ele>273.3333333333333</ele><time>2026-05-01T13:44:22.85Z</time></trkpt><trkpt lat="45.9835356" lon="8.838307"><ele>273.0</ele><time>2026-05-01T13:44:23.851Z</time></trkpt><trkpt lat="45.9836556" lon="8.8381701"><ele>273.0</ele><time>2026-05-01T13:44:24.85Z</time></trkpt><trkpt lat="45.9837702" lon="8.8380234"><ele>273.0</ele><time>2026-05-01T13:44:25.849Z</time></trkpt><trkpt lat="45.9838768" lon="8.8378598"><ele>273.0</ele><time>2026-05-01T13:44:26.851Z</time></trkpt><trkpt lat="45.9839783" lon="8.837682"><ele>272.3333333333333</ele><time>2026-05-01T13:44:27.85Z</time></trkpt><trkpt lat="45.9840646" lon="8.8374871"><ele>271.66666666666663</ele><time>2026-05-01T13:44:28.849Z</time></trkpt><trkpt lat="45.9841404" lon="8.8372918"><ele>271.0</ele><time>2026-05-01T13:44:29.851Z</time></trkpt><trkpt lat="45.984214" lon="8.8370769"><ele>271.0</ele><time>2026-05-01T13:44:30.85Z</time></trkpt><trkpt lat="45.9842794" lon="8.8368591"><ele>271.0</ele><time>2026-05-01T13:44:31.849Z</time></trkpt><trkpt lat="45.9843304" lon="8.8366393"><ele>271.0</ele><time>2026-05-01T13:44:32.85Z</time></trkpt><trkpt lat="45.9843685" lon="8.8364048"><ele>270.66666666666663</ele><time>2026-05-01T13:44:33.851Z</time></trkpt><trkpt lat="45.9843919" lon="8.8361666"><ele>270.3333333333333</ele><time>2026-05-01T13:44:34.851Z</time></trkpt><trkpt lat="45.9844115" lon="8.8359246"><ele>270.0</ele><time>2026-05-01T13:44:35.85Z</time></trkpt><trkpt lat="45.9844363" lon="8.8357134"><ele>270.0</ele><time>2026-05-01T13:44:36.851Z</time></trkpt><trkpt lat="45.9844681" lon="8.8354989"><ele>270.0</ele><time>2026-05-01T13:44:37.85Z</time></trkpt><trkpt lat="45.9845079" lon="8.8352937"><ele>270.0</ele><time>2026-05-01T13:44:38.851Z</time></trkpt><trkpt lat="45.9845534" lon="8.8350958"><ele>270.0</ele><time>2026-05-01T13:44:39.85Z</time></trkpt><trkpt lat="45.984616" lon="8.8349022"><ele>269.75</ele><time>2026-05-01T13:44:40.85Z</time></trkpt><trkpt lat="45.9846835" lon="8.8347142"><ele>269.5</ele><time>2026-05-01T13:44:41.851Z</time></trkpt><trkpt lat="45.9847576" lon="8.8345232"><ele>269.25</ele><time>2026-05-01T13:44:42.851Z</time></trkpt><trkpt lat="45.9848422" lon="8.8343517"><ele>269.0</ele><time>2026-05-01T13:44:43.849Z</time></trkpt><trkpt lat="45.9849254" lon="8.8341846"><ele>269.75</ele><time>2026-05-01T13:44:44.85Z</time></trkpt><trkpt lat="45.9850245" lon="8.8340227"><ele>270.5</ele><time>2026-05-01T13:44:45.851Z</time></trkpt><trkpt lat="45.9851343" lon="8.8338755"><ele>271.25</ele><time>2026-05-01T13:44:46.85Z</time></trkpt><trkpt lat="45.9852447" lon="8.8337519"><ele>272.0</ele><time>2026-05-01T13:44:47.851Z</time></trkpt><trkpt lat="45.9853651" lon="8.8336635"><ele>272.0</ele><time>2026-05-01T13:44:48.85Z</time></trkpt><trkpt lat="45.9854897" lon="8.8336044"><ele>272.0</ele><time>2026-05-01T13:44:49.85Z</time></trkpt><trkpt lat="45.9856154" lon="8.8335522"><ele>272.0</ele><time>2026-05-01T13:44:50.85Z</time></trkpt><trkpt lat="45.9857202" lon="8.8334764"><ele>272.0</ele><time>2026-05-01T13:44:51.85Z</time></trkpt><trkpt lat="45.9858203" lon="8.8333854"><ele>273.0</ele><time>2026-05-01T13:44:52.849Z</time></trkpt><trkpt lat="45.9859294" lon="8.8332773"><ele>274.0</ele><time>2026-05-01T13:44:53.851Z</time></trkpt><trkpt lat="45.98602" lon="8.8331449"><ele>275.0</ele><time>2026-05-01T13:44:54.85Z</time></trkpt><trkpt lat="45.9861193" lon="8.8330143"><ele>276.0</ele><time>2026-05-01T13:44:55.85Z</time></trkpt><trkpt lat="45.98622" lon="8.8329337"><ele>276.0</ele><time>2026-05-01T13:44:56.85Z</time></trkpt><trkpt lat="45.9863318" lon="8.8328593"><ele>276.0</ele><time>2026-05-01T13:44:57.85Z</time></trkpt><trkpt lat="45.9864546" lon="8.8327986"><ele>276.0</ele><time>2026-05-01T13:44:58.849Z</time></trkpt><trkpt lat="45.9865781" lon="8.8327474"><ele>276.0</ele><time>2026-05-01T13:44:59.85Z</time></trkpt><trkpt lat="45.9867021" lon="8.8326878"><ele>274.5</ele><time>2026-05-01T13:45:00.851Z</time></trkpt><trkpt lat="45.9868184" lon="8.8326155"><ele>273.0</ele><time>2026-05-01T13:45:01.851Z</time></trkpt><trkpt lat="45.9869334" lon="8.8325354"><ele>271.5</ele><time>2026-05-01T13:45:02.851Z</time></trkpt><trkpt lat="45.9870444" lon="8.8324249"><ele>270.0</ele><time>2026-05-01T13:45:03.851Z</time></trkpt><trkpt lat="45.987144" lon="8.832306"><ele>270.0</ele><time>2026-05-01T13:45:04.85Z</time></trkpt><trkpt lat="45.98722" lon="8.8321557"><ele>270.0</ele><time>2026-05-01T13:45:05.85Z</time></trkpt><trkpt lat="45.987305" lon="8.8320034"><ele>270.0</ele><time>2026-05-01T13:45:06.85Z</time></trkpt><trkpt lat="45.9873792" lon="8.8318249"><ele>270.0</ele><time>2026-05-01T13:45:07.85Z</time></trkpt><trkpt lat="45.9874264" lon="8.8316316"><ele>270.3333333333333</ele><time>2026-05-01T13:45:08.849Z</time></trkpt><trkpt lat="45.9874611" lon="8.8314355"><ele>270.66666666666663</ele><time>2026-05-01T13:45:09.851Z</time></trkpt><trkpt lat="45.9874656" lon="8.8311957"><ele>271.0</ele><time>2026-05-01T13:45:10.85Z</time></trkpt><trkpt lat="45.9874675" lon="8.8309576"><ele>272.0</ele><time>2026-05-01T13:45:11.851Z</time></trkpt><trkpt lat="45.9874654" lon="8.8307172"><ele>273.0</ele><time>2026-05-01T13:45:12.85Z</time></trkpt><trkpt lat="45.9874606" lon="8.8304906"><ele>274.0</ele><time>2026-05-01T13:45:13.85Z</time></trkpt><trkpt lat="45.9874617" lon="8.8302795"><ele>273.75</ele><time>2026-05-01T13:45:14.851Z</time></trkpt><trkpt lat="45.9874607" lon="8.8300714"><ele>273.5</ele><time>2026-05-01T13:45:15.85Z</time></trkpt><trkpt lat="45.9874565" lon="8.8298646"><ele>273.25</ele><time>2026-05-01T13:45:16.851Z</time></trkpt><trkpt lat="45.9874684" lon="8.8296548"><ele>273.0</ele><time>2026-05-01T13:45:17.85Z</time></trkpt><trkpt lat="45.9874677" lon="8.8294546"><ele>272.25</ele><time>2026-05-01T13:45:18.849Z</time></trkpt><trkpt lat="45.9874709" lon="8.8292442"><ele>271.5</ele><time>2026-05-01T13:45:19.851Z</time></trkpt><trkpt lat="45.9874632" lon="8.8290366"><ele>270.75</ele><time>2026-05-01T13:45:20.85Z</time></trkpt><trkpt lat="45.9874178" lon="8.8288326"><ele>270.0</ele><time>2026-05-01T13:45:21.851Z</time></trkpt><trkpt lat="45.9873599" lon="8.8286351"><ele>268.75</ele><time>2026-05-01T13:45:22.851Z</time></trkpt><trkpt lat="45.9872954" lon="8.8284461"><ele>267.5</ele><time>2026-05-01T13:45:23.85Z</time></trkpt><trkpt lat="45.9872347" lon="8.8282489"><ele>266.25</ele><time>2026-05-01T13:45:24.851Z</time></trkpt><trkpt lat="45.987182" lon="8.8280498"><ele>265.0</ele><time>2026-05-01T13:45:25.851Z</time></trkpt><trkpt lat="45.9871394" lon="8.8278539"><ele>264.66666666666663</ele><time>2026-05-01T13:45:26.85Z</time></trkpt><trkpt lat="45.9871188" lon="8.8276366"><ele>264.3333333333333</ele><time>2026-05-01T13:45:27.851Z</time></trkpt><trkpt lat="45.9871094" lon="8.8274207"><ele>264.0</ele><time>2026-05-01T13:45:28.851Z</time></trkpt><trkpt lat="45.9871116" lon="8.8272054"><ele>264.0</ele><time>2026-05-01T13:45:29.85Z</time></trkpt><trkpt lat="45.9871142" lon="8.8270062"><ele>264.0</ele><time>2026-05-01T13:45:30.85Z</time></trkpt><trkpt lat="45.9871365" lon="8.8268155"><ele>264.0</ele><time>2026-05-01T13:45:31.85Z</time></trkpt><trkpt lat="45.9871873" lon="8.8266357"><ele>264.0</ele><time>2026-05-01T13:45:32.851Z</time></trkpt><trkpt lat="45.9872589" lon="8.8264528"><ele>264.5</ele><time>2026-05-01T13:45:33.851Z</time></trkpt><trkpt lat="45.9873232" lon="8.8262832"><ele>265.0</ele><time>2026-05-01T13:45:34.849Z</time></trkpt><trkpt lat="45.9873885" lon="8.826119"><ele>265.5</ele><time>2026-05-01T13:45:35.85Z</time></trkpt><trkpt lat="45.9874498" lon="8.8259512"><ele>266.0</ele><time>2026-05-01T13:45:36.851Z</time></trkpt><trkpt lat="45.9875069" lon="8.8257841"><ele>265.75</ele><time>2026-05-01T13:45:37.851Z</time></trkpt><trkpt lat="45.9875617" lon="8.8256117"><ele>265.5</ele><time>2026-05-01T13:45:38.85Z</time></trkpt><trkpt lat="45.9875951" lon="8.8254533"><ele>265.25</ele><time>2026-05-01T13:45:39.85Z</time></trkpt><trkpt lat="45.987617" lon="8.8252804"><ele>265.0</ele><time>2026-05-01T13:45:40.849Z</time></trkpt><trkpt lat="45.9876038" lon="8.8251163"><ele>264.5</ele><time>2026-05-01T13:45:41.85Z</time></trkpt><trkpt lat="45.9875664" lon="8.8249442"><ele>264.0</ele><time>2026-05-01T13:45:42.851Z</time></trkpt><trkpt lat="45.9875221" lon="8.8247784"><ele>263.5</ele><time>2026-05-01T13:45:43.85Z</time></trkpt><trkpt lat="45.9874692" lon="8.8246193"><ele>263.0</ele><time>2026-05-01T13:45:44.85Z</time></trkpt><trkpt lat="45.9874011" lon="8.8244585"><ele>263.25</ele><time>2026-05-01T13:45:45.851Z</time></trkpt><trkpt lat="45.9873341" lon="8.8243019"><ele>263.5</ele><time>2026-05-01T13:45:46.851Z</time></trkpt><trkpt lat="45.9872712" lon="8.8241403"><ele>263.75</ele><time>2026-05-01T13:45:47.85Z</time></trkpt><trkpt lat="45.9872208" lon="8.8239788"><ele>264.0</ele><time>2026-05-01T13:45:48.851Z</time></trkpt><trkpt lat="45.9871765" lon="8.8237996"><ele>264.0</ele><time>2026-05-01T13:45:49.851Z</time></trkpt><trkpt lat="45.987151" lon="8.8236011"><ele>264.0</ele><time>2026-05-01T13:45:50.85Z</time></trkpt><trkpt lat="45.9871334" lon="8.8233896"><ele>264.0</ele><time>2026-05-01T13:45:51.85Z</time></trkpt><trkpt lat="45.9871077" lon="8.8231746"><ele>264.0</ele><time>2026-05-01T13:45:52.849Z</time></trkpt><trkpt lat="45.9870843" lon="8.8229576"><ele>263.75</ele><time>2026-05-01T13:45:53.849Z</time></trkpt><trkpt lat="45.9870615" lon="8.8227451"><ele>263.5</ele><time>2026-05-01T13:45:54.851Z</time></trkpt><trkpt lat="45.9870411" lon="8.8225353"><ele>263.25</ele><time>2026-05-01T13:45:55.85Z</time></trkpt><trkpt lat="45.9870234" lon="8.8223227"><ele>263.0</ele><time>2026-05-01T13:45:56.851Z</time></trkpt><trkpt lat="45.9870227" lon="8.8221015"><ele>263.0</ele><time>2026-05-01T13:45:57.849Z</time></trkpt><trkpt lat="45.9870194" lon="8.8218578"><ele>263.0</ele><time>2026-05-01T13:45:58.85Z</time></trkpt><trkpt lat="45.9870166" lon="8.8215959"><ele>263.0</ele><time>2026-05-01T13:45:59.851Z</time></trkpt><trkpt lat="45.9870268" lon="8.8213021"><ele>261.0</ele><time>2026-05-01T13:46:00.85Z</time></trkpt><trkpt lat="45.9870539" lon="8.8209653"><ele>259.0</ele><time>2026-05-01T13:46:01.85Z</time></trkpt><trkpt lat="45.9870904" lon="8.8206278"><ele>259.0</ele><time>2026-05-01T13:46:02.851Z</time></trkpt><trkpt lat="45.9871225" lon="8.8202654"><ele>259.0</ele><time>2026-05-01T13:46:03.85Z</time></trkpt><trkpt lat="45.9871488" lon="8.8199018"><ele>260.5</ele><time>2026-05-01T13:46:04.849Z</time></trkpt><trkpt lat="45.9871742" lon="8.8195367"><ele>262.0</ele><time>2026-05-01T13:46:05.85Z</time></trkpt><trkpt lat="45.9872017" lon="8.8191756"><ele>262.5</ele><time>2026-05-01T13:46:06.849Z</time></trkpt><trkpt lat="45.9872165" lon="8.8188166"><ele>263.0</ele><time>2026-05-01T13:46:07.851Z</time></trkpt><trkpt lat="45.9872389" lon="8.8184664"><ele>263.33333333333337</ele><time>2026-05-01T13:46:08.849Z</time></trkpt><trkpt lat="45.987253" lon="8.8181314"><ele>263.6666666666667</ele><time>2026-05-01T13:46:09.851Z</time></trkpt><trkpt lat="45.9872719" lon="8.8178335"><ele>264.0</ele><time>2026-05-01T13:46:10.85Z</time></trkpt><trkpt lat="45.9872871" lon="8.8175626"><ele>265.0</ele><time>2026-05-01T13:46:11.851Z</time></trkpt><trkpt lat="45.9873016" lon="8.817311"><ele>266.0</ele><time>2026-05-01T13:46:12.851Z</time></trkpt><trkpt lat="45.9873282" lon="8.8170635"><ele>267.0</ele><time>2026-05-01T13:46:13.85Z</time></trkpt><trkpt lat="45.9873559" lon="8.8168322"><ele>267.3333333333333</ele><time>2026-05-01T13:46:14.851Z</time></trkpt><trkpt lat="45.9874098" lon="8.8166026"><ele>267.66666666666663</ele><time>2026-05-01T13:46:15.851Z</time></trkpt><trkpt lat="45.987478" lon="8.8163922"><ele>268.0</ele><time>2026-05-01T13:46:16.851Z</time></trkpt><trkpt lat="45.9875516" lon="8.8161856"><ele>266.5</ele><time>2026-05-01T13:46:17.851Z</time></trkpt><trkpt lat="45.9876331" lon="8.8160057"><ele>265.0</ele><time>2026-05-01T13:46:18.851Z</time></trkpt><trkpt lat="45.9877216" lon="8.8158432"><ele>263.5</ele><time>2026-05-01T13:46:19.851Z</time></trkpt><trkpt lat="45.9878239" lon="8.8156844"><ele>262.0</ele><time>2026-05-01T13:46:20.85Z</time></trkpt><trkpt lat="45.9879232" lon="8.8155283"><ele>262.0</ele><time>2026-05-01T13:46:21.851Z</time></trkpt><trkpt lat="45.9880086" lon="8.8153812"><ele>262.0</ele><time>2026-05-01T13:46:22.851Z</time></trkpt><trkpt lat="45.9880982" lon="8.815238"><ele>262.0</ele><time>2026-05-01T13:46:23.849Z</time></trkpt><trkpt lat="45.9881523" lon="8.8150844"><ele>262.0</ele><time>2026-05-01T13:46:24.85Z</time></trkpt><trkpt lat="45.9882083" lon="8.814913"><ele>262.5</ele><time>2026-05-01T13:46:25.85Z</time></trkpt><trkpt lat="45.9882465" lon="8.8147279"><ele>263.0</ele><time>2026-05-01T13:46:26.851Z</time></trkpt><trkpt lat="45.9882702" lon="8.8145342"><ele>263.5</ele><time>2026-05-01T13:46:27.85Z</time></trkpt><trkpt lat="45.9882926" lon="8.8143318"><ele>264.0</ele><time>2026-05-01T13:46:28.849Z</time></trkpt><trkpt lat="45.9883141" lon="8.814123"><ele>264.0</ele><time>2026-05-01T13:46:29.85Z</time></trkpt><trkpt lat="45.9883365" lon="8.8139075"><ele>264.0</ele><time>2026-05-01T13:46:30.851Z</time></trkpt><trkpt lat="45.9883579" lon="8.813687"><ele>264.0</ele><time>2026-05-01T13:46:31.851Z</time></trkpt><trkpt lat="45.9883804" lon="8.8134611"><ele>260.6666666666667</ele><time>2026-05-01T13:46:32.85Z</time></trkpt><trkpt lat="45.9884039" lon="8.8132349"><ele>257.33333333333337</ele><time>2026-05-01T13:46:33.85Z</time></trkpt><trkpt lat="45.9884201" lon="8.813005"><ele>254.0</ele><time>2026-05-01T13:46:34.851Z</time></trkpt><trkpt lat="45.9884233" lon="8.8127761"><ele>254.66666666666669</ele><time>2026-05-01T13:46:35.851Z</time></trkpt><trkpt lat="45.9884284" lon="8.8125419"><ele>255.33333333333331</ele><time>2026-05-01T13:46:36.851Z</time></trkpt><trkpt lat="45.9884292" lon="8.8123142"><ele>256.0</ele><time>2026-05-01T13:46:37.851Z</time></trkpt><trkpt lat="45.9884459" lon="8.8120878"><ele>256.0</ele><time>2026-05-01T13:46:38.849Z</time></trkpt><trkpt lat="45.988486" lon="8.8118597"><ele>256.0</ele><time>2026-05-01T13:46:39.85Z</time></trkpt><trkpt lat="45.9885255" lon="8.8116415"><ele>256.0</ele><time>2026-05-01T13:46:40.849Z</time></trkpt><trkpt lat="45.9885734" lon="8.8114132"><ele>256.0</ele><time>2026-05-01T13:46:41.85Z</time></trkpt><trkpt lat="45.9886173" lon="8.8111916"><ele>256.0</ele><time>2026-05-01T13:46:42.85Z</time></trkpt><trkpt lat="45.9886607" lon="8.8109775"><ele>256.0</ele><time>2026-05-01T13:46:43.85Z</time></trkpt><trkpt lat="45.9887044" lon="8.8107646"><ele>256.0</ele><time>2026-05-01T13:46:44.85Z</time></trkpt><trkpt lat="45.9887474" lon="8.8105643"><ele>256.0</ele><time>2026-05-01T13:46:45.851Z</time></trkpt><trkpt lat="45.9888019" lon="8.8103856"><ele>256.0</ele><time>2026-05-01T13:46:46.85Z</time></trkpt><trkpt lat="45.9888649" lon="8.8102278"><ele>256.0</ele><time>2026-05-01T13:46:47.851Z</time></trkpt><trkpt lat="45.9889502" lon="8.8100745"><ele>254.66666666666666</ele><time>2026-05-01T13:46:48.85Z</time></trkpt><trkpt lat="45.9890483" lon="8.8099326"><ele>253.33333333333331</ele><time>2026-05-01T13:46:49.851Z</time></trkpt><trkpt lat="45.9891647" lon="8.8097849"><ele>252.0</ele><time>2026-05-01T13:46:50.851Z</time></trkpt><trkpt lat="45.9892882" lon="8.8096372"><ele>252.0</ele><time>2026-05-01T13:46:51.85Z</time></trkpt><trkpt lat="45.9894135" lon="8.809481"><ele>252.0</ele><time>2026-05-01T13:46:52.851Z</time></trkpt><trkpt lat="45.9895354" lon="8.8093119"><ele>252.0</ele><time>2026-05-01T13:46:53.85Z</time></trkpt><trkpt lat="45.9896625" lon="8.8091394"><ele>252.66666666666669</ele><time>2026-05-01T13:46:54.85Z</time></trkpt><trkpt lat="45.9897772" lon="8.8089631"><ele>253.33333333333334</ele><time>2026-05-01T13:46:55.85Z</time></trkpt><trkpt lat="45.9898781" lon="8.8087877"><ele>254.0</ele><time>2026-05-01T13:46:56.849Z</time></trkpt><trkpt lat="45.9899696" lon="8.8086128"><ele>254.75</ele><time>2026-05-01T13:46:57.85Z</time></trkpt><trkpt lat="45.9900363" lon="8.8084294"><ele>255.5</ele><time>2026-05-01T13:46:58.85Z</time></trkpt><trkpt lat="45.9900861" lon="8.8082434"><ele>256.25</ele><time>2026-05-01T13:46:59.851Z</time></trkpt><trkpt lat="45.990122" lon="8.8080229"><ele>257.0</ele><time>2026-05-01T13:47:00.85Z</time></trkpt><trkpt lat="45.9901379" lon="8.8078134"><ele>257.0</ele><time>2026-05-01T13:47:01.85Z</time></trkpt><trkpt lat="45.9901395" lon="8.8075863"><ele>257.0</ele><time>2026-05-01T13:47:02.851Z</time></trkpt><trkpt lat="45.9901503" lon="8.8073737"><ele>257.0</ele><time>2026-05-01T13:47:03.85Z</time></trkpt><trkpt lat="45.9901544" lon="8.8071583"><ele>257.0</ele><time>2026-05-01T13:47:04.85Z</time></trkpt><trkpt lat="45.9901521" lon="8.8069352"><ele>257.0</ele><time>2026-05-01T13:47:05.849Z</time></trkpt><trkpt lat="45.9901529" lon="8.8067233"><ele>257.0</ele><time>2026-05-01T13:47:06.851Z</time></trkpt><trkpt lat="45.9901526" lon="8.8064996"><ele>257.0</ele><time>2026-05-01T13:47:07.85Z</time></trkpt><trkpt lat="45.9901559" lon="8.8062931"><ele>257.0</ele><time>2026-05-01T13:47:08.85Z</time></trkpt><trkpt lat="45.9901534" lon="8.8060899"><ele>257.0</ele><time>2026-05-01T13:47:09.851Z</time></trkpt><trkpt lat="45.9901521" lon="8.8058934"><ele>257.0</ele><time>2026-05-01T13:47:10.85Z</time></trkpt><trkpt lat="45.9901481" lon="8.8057005"><ele>257.25</ele><time>2026-05-01T13:47:11.85Z</time></trkpt><trkpt lat="45.9901499" lon="8.8055031"><ele>257.5</ele><time>2026-05-01T13:47:12.848Z</time></trkpt><trkpt lat="45.9901514" lon="8.8053126"><ele>257.75</ele><time>2026-05-01T13:47:13.85Z</time></trkpt><trkpt lat="45.9901578" lon="8.8051262"><ele>258.0</ele><time>2026-05-01T13:47:14.851Z</time></trkpt><trkpt lat="45.9901637" lon="8.8049318"><ele>257.0</ele><time>2026-05-01T13:47:15.851Z</time></trkpt><trkpt lat="45.9901679" lon="8.8047342"><ele>256.0</ele><time>2026-05-01T13:47:16.851Z</time></trkpt><trkpt lat="45.9901654" lon="8.8045362"><ele>255.0</ele><time>2026-05-01T13:47:17.85Z</time></trkpt><trkpt lat="45.9901712" lon="8.804335"><ele>254.0</ele><time>2026-05-01T13:47:18.85Z</time></trkpt><trkpt lat="45.9901814" lon="8.8041348"><ele>254.0</ele><time>2026-05-01T13:47:19.85Z</time></trkpt><trkpt lat="45.9901977" lon="8.8039342"><ele>254.0</ele><time>2026-05-01T13:47:20.851Z</time></trkpt><trkpt lat="45.9902128" lon="8.8037288"><ele>254.0</ele><time>2026-05-01T13:47:21.85Z</time></trkpt><trkpt lat="45.9902348" lon="8.8035191"><ele>254.0</ele><time>2026-05-01T13:47:22.851Z</time></trkpt><trkpt lat="45.9902537" lon="8.8033152"><ele>254.0</ele><time>2026-05-01T13:47:23.85Z</time></trkpt><trkpt lat="45.9902736" lon="8.8031197"><ele>254.0</ele><time>2026-05-01T13:47:24.85Z</time></trkpt><trkpt lat="45.9902996" lon="8.8029202"><ele>254.0</ele><time>2026-05-01T13:47:25.851Z</time></trkpt><trkpt lat="45.9903253" lon="8.8027223"><ele>254.0</ele><time>2026-05-01T13:47:26.85Z</time></trkpt><trkpt lat="45.9903544" lon="8.8025177"><ele>253.66666666666669</ele><time>2026-05-01T13:47:27.851Z</time></trkpt><trkpt lat="45.9903837" lon="8.8023029"><ele>253.33333333333331</ele><time>2026-05-01T13:47:28.85Z</time></trkpt><trkpt lat="45.9904133" lon="8.8020892"><ele>253.0</ele><time>2026-05-01T13:47:29.851Z</time></trkpt><trkpt lat="45.9904418" lon="8.8018798"><ele>252.75</ele><time>2026-05-01T13:47:30.85Z</time></trkpt><trkpt lat="45.9904703" lon="8.8016859"><ele>252.5</ele><time>2026-05-01T13:47:31.85Z</time></trkpt><trkpt lat="45.9904933" lon="8.8014951"><ele>252.25</ele><time>2026-05-01T13:47:32.85Z</time></trkpt><trkpt lat="45.990522" lon="8.8013"><ele>252.0</ele><time>2026-05-01T13:47:33.85Z</time></trkpt><trkpt lat="45.9905492" lon="8.8011038"><ele>252.25</ele><time>2026-05-01T13:47:34.85Z</time></trkpt><trkpt lat="45.9905798" lon="8.8009061"><ele>252.5</ele><time>2026-05-01T13:47:35.85Z</time></trkpt><trkpt lat="45.9906109" lon="8.8006976"><ele>252.75</ele><time>2026-05-01T13:47:36.85Z</time></trkpt><trkpt lat="45.9906393" lon="8.8004779"><ele>253.0</ele><time>2026-05-01T13:47:37.851Z</time></trkpt><trkpt lat="45.9906702" lon="8.8002355"><ele>253.0</ele><time>2026-05-01T13:47:38.85Z</time></trkpt><trkpt lat="45.990708" lon="8.7999604"><ele>253.0</ele><time>2026-05-01T13:47:39.85Z</time></trkpt><trkpt lat="45.9907523" lon="8.7996909"><ele>253.0</ele><time>2026-05-01T13:47:40.851Z</time></trkpt><trkpt lat="45.9907974" lon="8.7994338"><ele>253.33333333333331</ele><time>2026-05-01T13:47:41.851Z</time></trkpt><trkpt lat="45.9908322" lon="8.7992047"><ele>253.66666666666669</ele><time>2026-05-01T13:47:42.849Z</time></trkpt><trkpt lat="45.9908644" lon="8.7989824"><ele>254.0</ele><time>2026-05-01T13:47:43.85Z</time></trkpt><trkpt lat="45.9908951" lon="8.7987767"><ele>253.5</ele><time>2026-05-01T13:47:44.849Z</time></trkpt><trkpt lat="45.9909279" lon="8.7985735"><ele>253.0</ele><time>2026-05-01T13:47:45.85Z</time></trkpt><trkpt lat="45.9909582" lon="8.7983564"><ele>252.5</ele><time>2026-05-01T13:47:46.848Z</time></trkpt><trkpt lat="45.990992" lon="8.7981503"><ele>252.0</ele><time>2026-05-01T13:47:47.85Z</time></trkpt><trkpt lat="45.991025" lon="8.7979361"><ele>252.0</ele><time>2026-05-01T13:47:48.851Z</time></trkpt><trkpt lat="45.9910576" lon="8.7977235"><ele>252.0</ele><time>2026-05-01T13:47:49.851Z</time></trkpt><trkpt lat="45.991091" lon="8.7975209"><ele>252.0</ele><time>2026-05-01T13:47:50.85Z</time></trkpt><trkpt lat="45.991119" lon="8.7973216"><ele>252.0</ele><time>2026-05-01T13:47:51.85Z</time></trkpt><trkpt lat="45.9911437" lon="8.7971256"><ele>251.5</ele><time>2026-05-01T13:47:52.85Z</time></trkpt><trkpt lat="45.9911651" lon="8.7969257"><ele>251.0</ele><time>2026-05-01T13:47:53.851Z</time></trkpt><trkpt lat="45.9911762" lon="8.7967184"><ele>250.5</ele><time>2026-05-01T13:47:54.851Z</time></trkpt><trkpt lat="45.9911738" lon="8.7965073"><ele>250.0</ele><time>2026-05-01T13:47:55.85Z</time></trkpt><trkpt lat="45.9911732" lon="8.7963011"><ele>250.0</ele><time>2026-05-01T13:47:56.85Z</time></trkpt><trkpt lat="45.9911651" lon="8.7960969"><ele>250.0</ele><time>2026-05-01T13:47:57.849Z</time></trkpt><trkpt lat="45.9911468" lon="8.7958883"><ele>250.0</ele><time>2026-05-01T13:47:58.851Z</time></trkpt><trkpt lat="45.9911085" lon="8.7956835"><ele>250.0</ele><time>2026-05-01T13:47:59.849Z</time></trkpt><trkpt lat="45.9910598" lon="8.7954894"><ele>250.0</ele><time>2026-05-01T13:48:00.85Z</time></trkpt><trkpt lat="45.9909982" lon="8.7952978"><ele>250.0</ele><time>2026-05-01T13:48:01.85Z</time></trkpt><trkpt lat="45.9909208" lon="8.7951241"><ele>250.0</ele><time>2026-05-01T13:48:02.851Z</time></trkpt><trkpt lat="45.9908378" lon="8.7949678"><ele>250.0</ele><time>2026-05-01T13:48:03.851Z</time></trkpt><trkpt lat="45.9907403" lon="8.7948118"><ele>250.33333333333331</ele><time>2026-05-01T13:48:04.85Z</time></trkpt><trkpt lat="45.990638" lon="8.7946601"><ele>250.66666666666669</ele><time>2026-05-01T13:48:05.85Z</time></trkpt><trkpt lat="45.9905334" lon="8.7945007"><ele>251.0</ele><time>2026-05-01T13:48:06.85Z</time></trkpt><trkpt lat="45.99043" lon="8.7943382"><ele>250.0</ele><time>2026-05-01T13:48:07.851Z</time></trkpt><trkpt lat="45.9903233" lon="8.7941819"><ele>249.0</ele><time>2026-05-01T13:48:08.85Z</time></trkpt><trkpt lat="45.9902171" lon="8.7940204"><ele>248.0</ele><time>2026-05-01T13:48:09.85Z</time></trkpt><trkpt lat="45.9901097" lon="8.7938573"><ele>248.0</ele><time>2026-05-01T13:48:10.851Z</time></trkpt><trkpt lat="45.9899988" lon="8.7936883"><ele>248.0</ele><time>2026-05-01T13:48:11.849Z</time></trkpt><trkpt lat="45.9898853" lon="8.7935181"><ele>248.0</ele><time>2026-05-01T13:48:12.849Z</time></trkpt><trkpt lat="45.9897727" lon="8.7933412"><ele>248.0</ele><time>2026-05-01T13:48:13.85Z</time></trkpt><trkpt lat="45.9896575" lon="8.7931649"><ele>248.0</ele><time>2026-05-01T13:48:14.85Z</time></trkpt><trkpt lat="45.9895433" lon="8.7929896"><ele>248.0</ele><time>2026-05-01T13:48:15.85Z</time></trkpt><trkpt lat="45.9894326" lon="8.7928067"><ele>248.33333333333334</ele><time>2026-05-01T13:48:16.85Z</time></trkpt><trkpt lat="45.9893346" lon="8.7926144"><ele>248.66666666666669</ele><time>2026-05-01T13:48:17.85Z</time></trkpt><trkpt lat="45.9892539" lon="8.7924216"><ele>249.0</ele><time>2026-05-01T13:48:18.85Z</time></trkpt><trkpt lat="45.9891929" lon="8.7922306"><ele>250.25</ele><time>2026-05-01T13:48:19.85Z</time></trkpt><trkpt lat="45.9891319" lon="8.7920452"><ele>251.5</ele><time>2026-05-01T13:48:20.85Z</time></trkpt><trkpt lat="45.9890717" lon="8.7918877"><ele>252.75</ele><time>2026-05-01T13:48:21.851Z</time></trkpt><trkpt lat="45.9890158" lon="8.7917358"><ele>254.0</ele><time>2026-05-01T13:48:22.85Z</time></trkpt><trkpt lat="45.9889521" lon="8.7916044"><ele>254.0</ele><time>2026-05-01T13:48:23.851Z</time></trkpt><trkpt lat="45.9888799" lon="8.7914963"><ele>253.99999999999997</ele><time>2026-05-01T13:48:24.85Z</time></trkpt><trkpt lat="45.9888114" lon="8.7914006"><ele>253.99999999999997</ele><time>2026-05-01T13:48:25.85Z</time></trkpt><trkpt lat="45.9887453" lon="8.7913131"><ele>254.0</ele><time>2026-05-01T13:48:26.85Z</time></trkpt><trkpt lat="45.9886813" lon="8.7912184"><ele>254.0</ele><time>2026-05-01T13:48:27.849Z</time></trkpt><trkpt lat="45.9886121" lon="8.7910996"><ele>258.0</ele><time>2026-05-01T13:48:28.851Z</time></trkpt><trkpt lat="45.9885418" lon="8.7909654"><ele>262.0</ele><time>2026-05-01T13:48:29.851Z</time></trkpt><trkpt lat="45.9884685" lon="8.7908169"><ele>266.0</ele><time>2026-05-01T13:48:30.85Z</time></trkpt><trkpt lat="45.9883961" lon="8.7906679"><ele>270.0</ele><time>2026-05-01T13:48:31.85Z</time></trkpt><trkpt lat="45.9883305" lon="8.7905292"><ele>269.2</ele><time>2026-05-01T13:48:32.85Z</time></trkpt><trkpt lat="45.9882697" lon="8.7904022"><ele>268.4</ele><time>2026-05-01T13:48:33.851Z</time></trkpt><trkpt lat="45.9882242" lon="8.7902733"><ele>267.6</ele><time>2026-05-01T13:48:34.849Z</time></trkpt><trkpt lat="45.9881892" lon="8.7901499"><ele>266.8</ele><time>2026-05-01T13:48:35.85Z</time></trkpt><trkpt lat="45.9881578" lon="8.7900461"><ele>266.0</ele><time>2026-05-01T13:48:36.851Z</time></trkpt><trkpt lat="45.9881336" lon="8.7899387"><ele>266.0</ele><time>2026-05-01T13:48:37.85Z</time></trkpt><trkpt lat="45.9881117" lon="8.7898266"><ele>266.0</ele><time>2026-05-01T13:48:38.85Z</time></trkpt><trkpt lat="45.9880861" lon="8.7897169"><ele>266.0</ele><time>2026-05-01T13:48:39.848Z</time></trkpt><trkpt lat="45.9880505" lon="8.7896206"><ele>266.0</ele><time>2026-05-01T13:48:40.849Z</time></trkpt><trkpt lat="45.9879676" lon="8.7891368"><ele>266.0</ele><time>2026-05-01T13:48:41.85Z</time></trkpt><trkpt lat="45.9881739" lon="8.7889089"><ele>266.0</ele><time>2026-05-01T13:48:42.85Z</time></trkpt><trkpt lat="45.9882565" lon="8.7888361"><ele>266.0</ele><time>2026-05-01T13:48:43.85Z</time></trkpt><trkpt lat="45.9883338" lon="8.788708"><ele>265.0</ele><time>2026-05-01T13:48:44.85Z</time></trkpt><trkpt lat="45.9884085" lon="8.7885474"><ele>264.0</ele><time>2026-05-01T13:48:45.85Z</time></trkpt><trkpt lat="45.9884826" lon="8.788392"><ele>263.0</ele><time>2026-05-01T13:48:46.849Z</time></trkpt><trkpt lat="45.9885373" lon="8.7882419"><ele>262.0</ele><time>2026-05-01T13:48:47.85Z</time></trkpt><trkpt lat="45.9885682" lon="8.7880755"><ele>262.0</ele><time>2026-05-01T13:48:48.849Z</time></trkpt><trkpt lat="45.9885951" lon="8.7878933"><ele>262.0</ele><time>2026-05-01T13:48:49.849Z</time></trkpt><trkpt lat="45.9886147" lon="8.7877041"><ele>262.0</ele><time>2026-05-01T13:48:50.851Z</time></trkpt><trkpt lat="45.9886209" lon="8.7874937"><ele>262.0</ele><time>2026-05-01T13:48:51.849Z</time></trkpt><trkpt lat="45.9886327" lon="8.7872791"><ele>261.0</ele><time>2026-05-01T13:48:52.85Z</time></trkpt><trkpt lat="45.9886599" lon="8.7870596"><ele>260.0</ele><time>2026-05-01T13:48:53.85Z</time></trkpt><trkpt lat="45.9886932" lon="8.786847"><ele>259.0</ele><time>2026-05-01T13:48:54.851Z</time></trkpt><trkpt lat="45.9887293" lon="8.7866336"><ele>259.0</ele><time>2026-05-01T13:48:55.851Z</time></trkpt><trkpt lat="45.9887678" lon="8.7864223"><ele>259.0</ele><time>2026-05-01T13:48:56.85Z</time></trkpt><trkpt lat="45.9888087" lon="8.7862241"><ele>259.0</ele><time>2026-05-01T13:48:57.85Z</time></trkpt><trkpt lat="45.9888497" lon="8.7860243"><ele>259.0</ele><time>2026-05-01T13:48:58.851Z</time></trkpt><trkpt lat="45.9888881" lon="8.7858232"><ele>257.75</ele><time>2026-05-01T13:48:59.851Z</time></trkpt><trkpt lat="45.988941" lon="8.7856255"><ele>256.5</ele><time>2026-05-01T13:49:00.85Z</time></trkpt><trkpt lat="45.9890008" lon="8.7854394"><ele>255.25</ele><time>2026-05-01T13:49:01.85Z</time></trkpt><trkpt lat="45.9890571" lon="8.7852587"><ele>254.0</ele><time>2026-05-01T13:49:02.851Z</time></trkpt><trkpt lat="45.9891197" lon="8.785086"><ele>253.5</ele><time>2026-05-01T13:49:03.851Z</time></trkpt><trkpt lat="45.9891722" lon="8.7849273"><ele>253.0</ele><time>2026-05-01T13:49:04.85Z</time></trkpt><trkpt lat="45.9892273" lon="8.7847768"><ele>252.5</ele><time>2026-05-01T13:49:05.851Z</time></trkpt><trkpt lat="45.9892923" lon="8.7846421"><ele>252.0</ele><time>2026-05-01T13:49:06.85Z</time></trkpt><trkpt lat="45.9893717" lon="8.7845255"><ele>252.5</ele><time>2026-05-01T13:49:07.849Z</time></trkpt><trkpt lat="45.9894614" lon="8.784429"><ele>253.0</ele><time>2026-05-01T13:49:08.849Z</time></trkpt><trkpt lat="45.9895609" lon="8.7843595"><ele>253.5</ele><time>2026-05-01T13:49:09.85Z</time></trkpt><trkpt lat="45.9896818" lon="8.7843122"><ele>254.0</ele><time>2026-05-01T13:49:10.85Z</time></trkpt><trkpt lat="45.9898167" lon="8.7842742"><ele>254.0</ele><time>2026-05-01T13:49:11.85Z</time></trkpt><trkpt lat="45.9899539" lon="8.784246"><ele>254.0</ele><time>2026-05-01T13:49:12.852Z</time></trkpt><trkpt lat="45.9901001" lon="8.7842198"><ele>254.0</ele><time>2026-05-01T13:49:13.85Z</time></trkpt><trkpt lat="45.9902298" lon="8.7841943"><ele>254.0</ele><time>2026-05-01T13:49:14.849Z</time></trkpt><trkpt lat="45.9903514" lon="8.7841654"><ele>252.5</ele><time>2026-05-01T13:49:15.849Z</time></trkpt><trkpt lat="45.9904652" lon="8.7841358"><ele>251.0</ele><time>2026-05-01T13:49:16.849Z</time></trkpt><trkpt lat="45.9905788" lon="8.7841193"><ele>249.5</ele><time>2026-05-01T13:49:17.849Z</time></trkpt><trkpt lat="45.9906838" lon="8.7841372"><ele>248.0</ele><time>2026-05-01T13:49:18.85Z</time></trkpt><trkpt lat="45.9907987" lon="8.7841956"><ele>247.5</ele><time>2026-05-01T13:49:19.851Z</time></trkpt><trkpt lat="45.9909129" lon="8.7842878"><ele>247.0</ele><time>2026-05-01T13:49:20.85Z</time></trkpt><trkpt lat="45.991025" lon="8.7843998"><ele>246.5</ele><time>2026-05-01T13:49:21.85Z</time></trkpt><trkpt lat="45.9911098" lon="8.7845516"><ele>246.0</ele><time>2026-05-01T13:49:22.851Z</time></trkpt><trkpt lat="45.991183" lon="8.7846972"><ele>247.25</ele><time>2026-05-01T13:49:23.851Z</time></trkpt><trkpt lat="45.9912762" lon="8.7848141"><ele>248.5</ele><time>2026-05-01T13:49:24.849Z</time></trkpt><trkpt lat="45.9913807" lon="8.7849011"><ele>249.75</ele><time>2026-05-01T13:49:25.85Z</time></trkpt><trkpt lat="45.9915031" lon="8.7849599"><ele>251.0</ele><time>2026-05-01T13:49:26.85Z</time></trkpt><trkpt lat="45.9916438" lon="8.7850083"><ele>250.0</ele><time>2026-05-01T13:49:27.851Z</time></trkpt><trkpt lat="45.9917797" lon="8.7850544"><ele>249.0</ele><time>2026-05-01T13:49:28.851Z</time></trkpt><trkpt lat="45.9919063" lon="8.7850976"><ele>248.0</ele><time>2026-05-01T13:49:29.851Z</time></trkpt><trkpt lat="45.9920334" lon="8.7851351"><ele>247.0</ele><time>2026-05-01T13:49:30.851Z</time></trkpt><trkpt lat="45.9921659" lon="8.7851661"><ele>247.0</ele><time>2026-05-01T13:49:31.85Z</time></trkpt><trkpt lat="45.9922862" lon="8.7851769"><ele>247.0</ele><time>2026-05-01T13:49:32.849Z</time></trkpt><trkpt lat="45.9924094" lon="8.785158"><ele>247.0</ele><time>2026-05-01T13:49:33.85Z</time></trkpt><trkpt lat="45.992529" lon="8.7851227"><ele>247.0</ele><time>2026-05-01T13:49:34.851Z</time></trkpt><trkpt lat="45.9926606" lon="8.7850786"><ele>251.5</ele><time>2026-05-01T13:49:35.85Z</time></trkpt><trkpt lat="45.9927943" lon="8.7850411"><ele>256.0</ele><time>2026-05-01T13:49:36.849Z</time></trkpt><trkpt lat="45.9929159" lon="8.7849994"><ele>260.5</ele><time>2026-05-01T13:49:37.851Z</time></trkpt><trkpt lat="45.9930341" lon="8.7849526"><ele>265.0</ele><time>2026-05-01T13:49:38.849Z</time></trkpt><trkpt lat="45.9931421" lon="8.7848836"><ele>265.0</ele><time>2026-05-01T13:49:39.851Z</time></trkpt><trkpt lat="45.9932399" lon="8.7848049"><ele>265.0</ele><time>2026-05-01T13:49:40.85Z</time></trkpt><trkpt lat="45.9933187" lon="8.7846927"><ele>265.0</ele><time>2026-05-01T13:49:41.851Z</time></trkpt><trkpt lat="45.9933805" lon="8.7845567"><ele>265.0</ele><time>2026-05-01T13:49:42.851Z</time></trkpt><trkpt lat="45.9934227" lon="8.7844031"><ele>273.5</ele><time>2026-05-01T13:49:43.85Z</time></trkpt><trkpt lat="45.9934505" lon="8.7842494"><ele>282.0</ele><time>2026-05-01T13:49:44.851Z</time></trkpt><trkpt lat="45.9935013" lon="8.7840464"><ele>290.5</ele><time>2026-05-01T13:49:45.851Z</time></trkpt><trkpt lat="45.9935228" lon="8.7838565"><ele>299.0</ele><time>2026-05-01T13:49:46.851Z</time></trkpt><trkpt lat="45.9935224" lon="8.7836508"><ele>299.25</ele><time>2026-05-01T13:49:47.851Z</time></trkpt><trkpt lat="45.993485" lon="8.7834869"><ele>299.5</ele><time>2026-05-01T13:49:48.85Z</time></trkpt><trkpt lat="45.9934507" lon="8.7833097"><ele>299.75</ele><time>2026-05-01T13:49:49.85Z</time></trkpt><trkpt lat="45.9934143" lon="8.7831356"><ele>300.0</ele><time>2026-05-01T13:49:50.85Z</time></trkpt><trkpt lat="45.9934051" lon="8.7829573"><ele>300.0</ele><time>2026-05-01T13:49:51.85Z</time></trkpt><trkpt lat="45.9934051" lon="8.7827811"><ele>300.0</ele><time>2026-05-01T13:49:52.851Z</time></trkpt><trkpt lat="45.9934207" lon="8.7826114"><ele>300.0</ele><time>2026-05-01T13:49:53.851Z</time></trkpt><trkpt lat="45.9934429" lon="8.7824318"><ele>300.0</ele><time>2026-05-01T13:49:54.85Z</time></trkpt><trkpt lat="45.9934707" lon="8.7822548"><ele>298.0</ele><time>2026-05-01T13:49:55.85Z</time></trkpt><trkpt lat="45.9935012" lon="8.7820773"><ele>296.0</ele><time>2026-05-01T13:49:56.85Z</time></trkpt><trkpt lat="45.9935391" lon="8.781898"><ele>294.0</ele><time>2026-05-01T13:49:57.851Z</time></trkpt><trkpt lat="45.9935893" lon="8.7817138"><ele>292.0</ele><time>2026-05-01T13:49:58.85Z</time></trkpt><trkpt lat="45.9936387" lon="8.7815046"><ele>288.0</ele><time>2026-05-01T13:49:59.852Z</time></trkpt><trkpt lat="45.9936806" lon="8.781301"><ele>284.0</ele><time>2026-05-01T13:50:00.85Z</time></trkpt><trkpt lat="45.9937251" lon="8.7811049"><ele>280.0</ele><time>2026-05-01T13:50:01.85Z</time></trkpt><trkpt lat="45.993774" lon="8.7809137"><ele>276.0</ele><time>2026-05-01T13:50:02.85Z</time></trkpt><trkpt lat="45.9938193" lon="8.7807242"><ele>271.0</ele><time>2026-05-01T13:50:03.85Z</time></trkpt><trkpt lat="45.9938635" lon="8.7805381"><ele>266.0</ele><time>2026-05-01T13:50:04.851Z</time></trkpt><trkpt lat="45.9939056" lon="8.78035"><ele>261.0</ele><time>2026-05-01T13:50:05.849Z</time></trkpt><trkpt lat="45.9939526" lon="8.7801532"><ele>256.0</ele><time>2026-05-01T13:50:06.85Z</time></trkpt><trkpt lat="45.9940009" lon="8.7799574"><ele>253.5</ele><time>2026-05-01T13:50:07.85Z</time></trkpt><trkpt lat="45.9940474" lon="8.7797571"><ele>251.0</ele><time>2026-05-01T13:50:08.85Z</time></trkpt><trkpt lat="45.9940973" lon="8.7795595"><ele>248.5</ele><time>2026-05-01T13:50:09.85Z</time></trkpt><trkpt lat="45.994144" lon="8.7793727"><ele>246.0</ele><time>2026-05-01T13:50:10.85Z</time></trkpt><trkpt lat="45.9941842" lon="8.7791839"><ele>255.0</ele><time>2026-05-01T13:50:11.85Z</time></trkpt><trkpt lat="45.9942167" lon="8.7789974"><ele>264.0</ele><time>2026-05-01T13:50:12.851Z</time></trkpt><trkpt lat="45.9942276" lon="8.7788009"><ele>273.0</ele><time>2026-05-01T13:50:13.85Z</time></trkpt><trkpt lat="45.9942317" lon="8.7786061"><ele>282.0</ele><time>2026-05-01T13:50:14.85Z</time></trkpt><trkpt lat="45.9942166" lon="8.7784049"><ele>283.25</ele><time>2026-05-01T13:50:15.85Z</time></trkpt><trkpt lat="45.9941984" lon="8.7781909"><ele>284.5</ele><time>2026-05-01T13:50:16.85Z</time></trkpt><trkpt lat="45.9941728" lon="8.7779946"><ele>285.75</ele><time>2026-05-01T13:50:17.85Z</time></trkpt><trkpt lat="45.9941532" lon="8.7778063"><ele>287.0</ele><time>2026-05-01T13:50:18.851Z</time></trkpt><trkpt lat="45.9941296" lon="8.777632"><ele>277.5</ele><time>2026-05-01T13:50:19.85Z</time></trkpt><trkpt lat="45.9941048" lon="8.7774643"><ele>268.0</ele><time>2026-05-01T13:50:20.85Z</time></trkpt><trkpt lat="45.9940909" lon="8.7772912"><ele>258.5</ele><time>2026-05-01T13:50:21.85Z</time></trkpt><trkpt lat="45.9940531" lon="8.7771358"><ele>249.0</ele><time>2026-05-01T13:50:22.849Z</time></trkpt><trkpt lat="45.9940003" lon="8.7769864"><ele>250.75</ele><time>2026-05-01T13:50:23.85Z</time></trkpt><trkpt lat="45.9939281" lon="8.7768433"><ele>252.5</ele><time>2026-05-01T13:50:24.85Z</time></trkpt><trkpt lat="45.993846" lon="8.7767002"><ele>254.25</ele><time>2026-05-01T13:50:25.849Z</time></trkpt><trkpt lat="45.99375" lon="8.7765795"><ele>256.0</ele><time>2026-05-01T13:50:26.849Z</time></trkpt><trkpt lat="45.9936402" lon="8.7764756"><ele>256.0</ele><time>2026-05-01T13:50:27.85Z</time></trkpt><trkpt lat="45.9935064" lon="8.7763633"><ele>256.0</ele><time>2026-05-01T13:50:28.85Z</time></trkpt><trkpt lat="45.99337" lon="8.7762618"><ele>256.0</ele><time>2026-05-01T13:50:29.849Z</time></trkpt><trkpt lat="45.9932339" lon="8.7761667"><ele>252.0</ele><time>2026-05-01T13:50:30.85Z</time></trkpt><trkpt lat="45.9930953" lon="8.7760789"><ele>248.0</ele><time>2026-05-01T13:50:31.85Z</time></trkpt><trkpt lat="45.9929513" lon="8.7759884"><ele>244.0</ele><time>2026-05-01T13:50:32.85Z</time></trkpt><trkpt lat="45.9928117" lon="8.7759031"><ele>245.25</ele><time>2026-05-01T13:50:33.848Z</time></trkpt><trkpt lat="45.9926806" lon="8.7758024"><ele>246.5</ele><time>2026-05-01T13:50:34.851Z</time></trkpt><trkpt lat="45.9925509" lon="8.7757027"><ele>247.75</ele><time>2026-05-01T13:50:35.85Z</time></trkpt><trkpt lat="45.9924249" lon="8.7755802"><ele>249.0</ele><time>2026-05-01T13:50:36.851Z</time></trkpt><trkpt lat="45.9922987" lon="8.7754858"><ele>249.0</ele><time>2026-05-01T13:50:37.851Z</time></trkpt><trkpt lat="45.9921914" lon="8.7753478"><ele>249.0</ele><time>2026-05-01T13:50:38.851Z</time></trkpt><trkpt lat="45.9920826" lon="8.7752126"><ele>249.0</ele><time>2026-05-01T13:50:39.85Z</time></trkpt><trkpt lat="45.9919912" lon="8.7750744"><ele>249.0</ele><time>2026-05-01T13:50:40.851Z</time></trkpt><trkpt lat="45.9919122" lon="8.7749347"><ele>255.0</ele><time>2026-05-01T13:50:41.85Z</time></trkpt><trkpt lat="45.9918448" lon="8.7747805"><ele>261.0</ele><time>2026-05-01T13:50:42.85Z</time></trkpt><trkpt lat="45.9917817" lon="8.7746221"><ele>267.0</ele><time>2026-05-01T13:50:43.849Z</time></trkpt><trkpt lat="45.9917392" lon="8.7744367"><ele>273.0</ele><time>2026-05-01T13:50:44.849Z</time></trkpt><trkpt lat="45.991695" lon="8.7742552"><ele>277.0</ele><time>2026-05-01T13:50:45.85Z</time></trkpt><trkpt lat="45.9916736" lon="8.7740677"><ele>281.0</ele><time>2026-05-01T13:50:46.849Z</time></trkpt><trkpt lat="45.9916666" lon="8.7738666"><ele>285.0</ele><time>2026-05-01T13:50:47.85Z</time></trkpt><trkpt lat="45.9916706" lon="8.7736751"><ele>289.0</ele><time>2026-05-01T13:50:48.85Z</time></trkpt><trkpt lat="45.9916835" lon="8.7734714"><ele>289.0</ele><time>2026-05-01T13:50:49.85Z</time></trkpt><trkpt lat="45.9917083" lon="8.7732661"><ele>289.0</ele><time>2026-05-01T13:50:50.85Z</time></trkpt><trkpt lat="45.9917535" lon="8.7730622"><ele>289.0</ele><time>2026-05-01T13:50:51.851Z</time></trkpt><trkpt lat="45.9918184" lon="8.7728633"><ele>289.0</ele><time>2026-05-01T13:50:52.85Z</time></trkpt><trkpt lat="45.9918906" lon="8.772666"><ele>286.0</ele><time>2026-05-01T13:50:53.851Z</time></trkpt><trkpt lat="45.9919672" lon="8.7724672"><ele>283.0</ele><time>2026-05-01T13:50:54.85Z</time></trkpt><trkpt lat="45.9920379" lon="8.7722725"><ele>280.0</ele><time>2026-05-01T13:50:55.85Z</time></trkpt><trkpt lat="45.9921087" lon="8.7720851"><ele>280.0</ele><time>2026-05-01T13:50:56.85Z</time></trkpt><trkpt lat="45.9921771" lon="8.7719186"><ele>280.0</ele><time>2026-05-01T13:50:57.85Z</time></trkpt><trkpt lat="45.9922583" lon="8.7717551"><ele>280.0</ele><time>2026-05-01T13:50:58.85Z</time></trkpt><trkpt lat="45.9923454" lon="8.7715977"><ele>280.0</ele><time>2026-05-01T13:50:59.85Z</time></trkpt><trkpt lat="45.9924388" lon="8.7714401"><ele>280.0</ele><time>2026-05-01T13:51:00.849Z</time></trkpt><trkpt lat="45.9925354" lon="8.7712853"><ele>280.0</ele><time>2026-05-01T13:51:01.848Z</time></trkpt><trkpt lat="45.9926157" lon="8.7711376"><ele>280.0</ele><time>2026-05-01T13:51:02.851Z</time></trkpt><trkpt lat="45.992681" lon="8.7709911"><ele>280.0</ele><time>2026-05-01T13:51:03.85Z</time></trkpt><trkpt lat="45.9927384" lon="8.7708356"><ele>280.0</ele><time>2026-05-01T13:51:04.85Z</time></trkpt><trkpt lat="45.9927681" lon="8.7706727"><ele>280.0</ele><time>2026-05-01T13:51:05.85Z</time></trkpt><trkpt lat="45.9927841" lon="8.7705"><ele>280.0</ele><time>2026-05-01T13:51:06.85Z</time></trkpt><trkpt lat="45.9927636" lon="8.77034"><ele>280.0</ele><time>2026-05-01T13:51:07.849Z</time></trkpt><trkpt lat="45.9927214" lon="8.770181"><ele>282.5</ele><time>2026-05-01T13:51:08.85Z</time></trkpt><trkpt lat="45.9926493" lon="8.770031"><ele>285.0</ele><time>2026-05-01T13:51:09.85Z</time></trkpt><trkpt lat="45.9925541" lon="8.7699065"><ele>287.5</ele><time>2026-05-01T13:51:10.849Z</time></trkpt><trkpt lat="45.9924442" lon="8.7698017"><ele>290.0</ele><time>2026-05-01T13:51:11.85Z</time></trkpt><trkpt lat="45.9923438" lon="8.7697047"><ele>285.6</ele><time>2026-05-01T13:51:12.85Z</time></trkpt><trkpt lat="45.9922529" lon="8.7696113"><ele>281.2</ele><time>2026-05-01T13:51:13.851Z</time></trkpt><trkpt lat="45.9921802" lon="8.7695083"><ele>276.8</ele><time>2026-05-01T13:51:14.85Z</time></trkpt><trkpt lat="45.9921283" lon="8.7693797"><ele>272.4</ele><time>2026-05-01T13:51:15.85Z</time></trkpt><trkpt lat="45.9920898" lon="8.7692295"><ele>268.0</ele><time>2026-05-01T13:51:16.85Z</time></trkpt><trkpt lat="45.9920639" lon="8.7690631"><ele>268.0</ele><time>2026-05-01T13:51:17.85Z</time></trkpt><trkpt lat="45.9920471" lon="8.7688862"><ele>268.0</ele><time>2026-05-01T13:51:18.85Z</time></trkpt><trkpt lat="45.9920309" lon="8.7686871"><ele>268.0</ele><time>2026-05-01T13:51:19.85Z</time></trkpt><trkpt lat="45.9920092" lon="8.7684853"><ele>268.0</ele><time>2026-05-01T13:51:20.85Z</time></trkpt><trkpt lat="45.9919874" lon="8.7682869"><ele>269.25</ele><time>2026-05-01T13:51:21.85Z</time></trkpt><trkpt lat="45.9919624" lon="8.7680991"><ele>270.5</ele><time>2026-05-01T13:51:22.85Z</time></trkpt><trkpt lat="45.9919323" lon="8.767936"><ele>271.75</ele><time>2026-05-01T13:51:23.851Z</time></trkpt><trkpt lat="45.9919092" lon="8.7677759"><ele>273.0</ele><time>2026-05-01T13:51:24.85Z</time></trkpt><trkpt lat="45.9918792" lon="8.7676236"><ele>273.0</ele><time>2026-05-01T13:51:25.85Z</time></trkpt><trkpt lat="45.9918603" lon="8.7674666"><ele>273.0</ele><time>2026-05-01T13:51:26.85Z</time></trkpt><trkpt lat="45.9918583" lon="8.7673061"><ele>273.0</ele><time>2026-05-01T13:51:27.85Z</time></trkpt><trkpt lat="45.9918613" lon="8.7671563"><ele>273.0</ele><time>2026-05-01T13:51:28.85Z</time></trkpt><trkpt lat="45.9918628" lon="8.7670059"><ele>273.0</ele><time>2026-05-01T13:51:29.85Z</time></trkpt><trkpt lat="45.9918576" lon="8.7668638"><ele>273.75</ele><time>2026-05-01T13:51:30.85Z</time></trkpt><trkpt lat="45.9918347" lon="8.7667025"><ele>274.5</ele><time>2026-05-01T13:51:31.851Z</time></trkpt><trkpt lat="45.9917916" lon="8.766532"><ele>275.25</ele><time>2026-05-01T13:51:32.85Z</time></trkpt><trkpt lat="45.9917277" lon="8.7663665"><ele>276.0</ele><time>2026-05-01T13:51:33.85Z</time></trkpt><trkpt lat="45.9916478" lon="8.766202"><ele>273.25</ele><time>2026-05-01T13:51:34.85Z</time></trkpt><trkpt lat="45.991561" lon="8.7660305"><ele>270.5</ele><time>2026-05-01T13:51:35.85Z</time></trkpt><trkpt lat="45.9914743" lon="8.7658738"><ele>267.75</ele><time>2026-05-01T13:51:36.849Z</time></trkpt><trkpt lat="45.9913913" lon="8.7657289"><ele>265.0</ele><time>2026-05-01T13:51:37.849Z</time></trkpt><trkpt lat="45.9913062" lon="8.7656028"><ele>265.0</ele><time>2026-05-01T13:51:38.85Z</time></trkpt><trkpt lat="45.9912128" lon="8.7655048"><ele>265.0</ele><time>2026-05-01T13:51:39.849Z</time></trkpt><trkpt lat="45.9911021" lon="8.7654268"><ele>265.0</ele><time>2026-05-01T13:51:40.85Z</time></trkpt><trkpt lat="45.9909868" lon="8.7653443"><ele>265.0</ele><time>2026-05-01T13:51:41.85Z</time></trkpt><trkpt lat="45.9908891" lon="8.7652615"><ele>262.75</ele><time>2026-05-01T13:51:42.85Z</time></trkpt><trkpt lat="45.9907947" lon="8.7651765"><ele>260.5</ele><time>2026-05-01T13:51:43.85Z</time></trkpt><trkpt lat="45.9907263" lon="8.7650487"><ele>258.25</ele><time>2026-05-01T13:51:44.851Z</time></trkpt><trkpt lat="45.9906662" lon="8.7649155"><ele>256.0</ele><time>2026-05-01T13:51:45.85Z</time></trkpt><trkpt lat="45.9906223" lon="8.7647547"><ele>256.0</ele><time>2026-05-01T13:51:46.85Z</time></trkpt><trkpt lat="45.9906003" lon="8.7645804"><ele>256.0</ele><time>2026-05-01T13:51:47.85Z</time></trkpt><trkpt lat="45.990589" lon="8.764401"><ele>256.0</ele><time>2026-05-01T13:51:48.849Z</time></trkpt><trkpt lat="45.9905869" lon="8.7642181"><ele>256.0</ele><time>2026-05-01T13:51:49.85Z</time></trkpt><trkpt lat="45.9905943" lon="8.7640323"><ele>257.0</ele><time>2026-05-01T13:51:50.849Z</time></trkpt><trkpt lat="45.990605" lon="8.7638395"><ele>258.0</ele><time>2026-05-01T13:51:51.85Z</time></trkpt><trkpt lat="45.9906236" lon="8.7636548"><ele>259.0</ele><time>2026-05-01T13:51:52.85Z</time></trkpt><trkpt lat="45.9906387" lon="8.763503"><ele>260.0</ele><time>2026-05-01T13:51:53.85Z</time></trkpt><trkpt lat="45.9906508" lon="8.7633737"><ele>258.33333333333337</ele><time>2026-05-01T13:51:54.85Z</time></trkpt><trkpt lat="45.9906652" lon="8.7632624"><ele>256.6666666666667</ele><time>2026-05-01T13:51:55.85Z</time></trkpt><trkpt lat="45.9906803" lon="8.763153"><ele>255.0</ele><time>2026-05-01T13:51:56.85Z</time></trkpt><trkpt lat="45.9907048" lon="8.7629941"><ele>253.33333333333331</ele><time>2026-05-01T13:51:58.849Z</time></trkpt><trkpt lat="45.9907156" lon="8.7628821"><ele>251.66666666666666</ele><time>2026-05-01T13:52:00.85Z</time></trkpt><trkpt lat="45.9907333" lon="8.7627806"><ele>250.0</ele><time>2026-05-01T13:52:04.848Z</time></trkpt><trkpt lat="45.9907633" lon="8.762674"><ele>248.4</ele><time>2026-05-01T13:52:08.85Z</time></trkpt><trkpt lat="45.9907908" lon="8.7625226"><ele>246.8</ele><time>2026-05-01T13:52:10.851Z</time></trkpt><trkpt lat="45.9908231" lon="8.7623258"><ele>245.2</ele><time>2026-05-01T13:52:12.85Z</time></trkpt><trkpt lat="45.9908371" lon="8.7622374"><ele>243.6</ele><time>2026-05-01T13:52:13.849Z</time></trkpt><trkpt lat="45.9908563" lon="8.7621221"><ele>242.0</ele><time>2026-05-01T13:52:14.849Z</time></trkpt><trkpt lat="45.9908718" lon="8.7620182"><ele>244.16666666666669</ele><time>2026-05-01T13:52:15.85Z</time></trkpt><trkpt lat="45.9908863" lon="8.7618967"><ele>246.33333333333334</ele><time>2026-05-01T13:52:16.85Z</time></trkpt><trkpt lat="45.9908965" lon="8.7617709"><ele>248.5</ele><time>2026-05-01T13:52:17.85Z</time></trkpt><trkpt lat="45.9909167" lon="8.761641"><ele>250.66666666666669</ele><time>2026-05-01T13:52:18.85Z</time></trkpt><trkpt lat="45.9909339" lon="8.7615264"><ele>252.83333333333334</ele><time>2026-05-01T13:52:19.85Z</time></trkpt><trkpt lat="45.9909493" lon="8.7614007"><ele>255.0</ele><time>2026-05-01T13:52:20.85Z</time></trkpt><trkpt lat="45.9909647" lon="8.7612778"><ele>255.0</ele><time>2026-05-01T13:52:21.85Z</time></trkpt><trkpt lat="45.9909763" lon="8.7611622"><ele>255.0</ele><time>2026-05-01T13:52:22.85Z</time></trkpt><trkpt lat="45.9909922" lon="8.7610508"><ele>255.0</ele><time>2026-05-01T13:52:23.85Z</time></trkpt><trkpt lat="45.9910019" lon="8.7609474"><ele>255.0</ele><time>2026-05-01T13:52:24.85Z</time></trkpt><trkpt lat="45.9910126" lon="8.7608231"><ele>255.0</ele><time>2026-05-01T13:52:25.849Z</time></trkpt><trkpt lat="45.9910194" lon="8.7606983"><ele>255.0</ele><time>2026-05-01T13:52:26.85Z</time></trkpt><trkpt lat="45.9910328" lon="8.7605835"><ele>253.0</ele><time>2026-05-01T13:52:27.85Z</time></trkpt><trkpt lat="45.9910692" lon="8.7604538"><ele>251.0</ele><time>2026-05-01T13:52:28.85Z</time></trkpt><trkpt lat="45.991104" lon="8.7603192"><ele>249.0</ele><time>2026-05-01T13:52:29.85Z</time></trkpt><trkpt lat="45.991144" lon="8.7601905"><ele>247.0</ele><time>2026-05-01T13:52:30.851Z</time></trkpt><trkpt lat="45.9911842" lon="8.7600576"><ele>245.0</ele><time>2026-05-01T13:52:31.85Z</time></trkpt><trkpt lat="45.9912193" lon="8.7599298"><ele>243.2</ele><time>2026-05-01T13:52:32.85Z</time></trkpt><trkpt lat="45.9912669" lon="8.7597972"><ele>241.4</ele><time>2026-05-01T13:52:33.85Z</time></trkpt><trkpt lat="45.9913171" lon="8.7596714"><ele>239.60000000000002</ele><time>2026-05-01T13:52:34.849Z</time></trkpt><trkpt lat="45.9913647" lon="8.7595492"><ele>237.8</ele><time>2026-05-01T13:52:35.849Z</time></trkpt><trkpt lat="45.991422" lon="8.7594205"><ele>236.0</ele><time>2026-05-01T13:52:36.85Z</time></trkpt><trkpt lat="45.9914816" lon="8.7592983"><ele>235.4</ele><time>2026-05-01T13:52:37.85Z</time></trkpt><trkpt lat="45.9915446" lon="8.759192"><ele>234.8</ele><time>2026-05-01T13:52:38.849Z</time></trkpt><trkpt lat="45.9916101" lon="8.7590713"><ele>234.20000000000002</ele><time>2026-05-01T13:52:39.85Z</time></trkpt><trkpt lat="45.9916712" lon="8.7589623"><ele>233.60000000000002</ele><time>2026-05-01T13:52:40.849Z</time></trkpt><trkpt lat="45.9917467" lon="8.758838"><ele>233.0</ele><time>2026-05-01T13:52:41.85Z</time></trkpt><trkpt lat="45.9918205" lon="8.7587123"><ele>233.4</ele><time>2026-05-01T13:52:42.849Z</time></trkpt><trkpt lat="45.9918917" lon="8.7585803"><ele>233.8</ele><time>2026-05-01T13:52:43.85Z</time></trkpt><trkpt lat="45.9919649" lon="8.7584569"><ele>234.2</ele><time>2026-05-01T13:52:44.85Z</time></trkpt><trkpt lat="45.9920393" lon="8.7583398"><ele>234.6</ele><time>2026-05-01T13:52:45.85Z</time></trkpt><trkpt lat="45.9921068" lon="8.7582205"><ele>235.0</ele><time>2026-05-01T13:52:46.85Z</time></trkpt><trkpt lat="45.9921845" lon="8.7580964"><ele>235.0</ele><time>2026-05-01T13:52:47.85Z</time></trkpt><trkpt lat="45.9922569" lon="8.7579821"><ele>235.0</ele><time>2026-05-01T13:52:48.85Z</time></trkpt><trkpt lat="45.9923281" lon="8.7578622"><ele>235.0</ele><time>2026-05-01T13:52:49.85Z</time></trkpt><trkpt lat="45.9924011" lon="8.7577509"><ele>235.0</ele><time>2026-05-01T13:52:50.849Z</time></trkpt><trkpt lat="45.9924768" lon="8.7576261"><ele>235.0</ele><time>2026-05-01T13:52:51.85Z</time></trkpt><trkpt lat="45.9925511" lon="8.757508"><ele>235.4</ele><time>2026-05-01T13:52:52.85Z</time></trkpt><trkpt lat="45.9926253" lon="8.7573875"><ele>235.8</ele><time>2026-05-01T13:52:53.85Z</time></trkpt><trkpt lat="45.9927019" lon="8.75727"><ele>236.2</ele><time>2026-05-01T13:52:54.85Z</time></trkpt><trkpt lat="45.9927741" lon="8.757156"><ele>236.6</ele><time>2026-05-01T13:52:55.851Z</time></trkpt><trkpt lat="45.9928498" lon="8.7570515"><ele>237.0</ele><time>2026-05-01T13:52:56.851Z</time></trkpt><trkpt lat="45.9929209" lon="8.7569348"><ele>236.2</ele><time>2026-05-01T13:52:57.85Z</time></trkpt><trkpt lat="45.992987" lon="8.756828"><ele>235.39999999999998</ele><time>2026-05-01T13:52:58.849Z</time></trkpt><trkpt lat="45.9930564" lon="8.7567177"><ele>234.60000000000002</ele><time>2026-05-01T13:52:59.85Z</time></trkpt><trkpt lat="45.9931283" lon="8.7566003"><ele>233.8</ele><time>2026-05-01T13:53:00.85Z</time></trkpt><trkpt lat="45.9932051" lon="8.7564701"><ele>233.0</ele><time>2026-05-01T13:53:01.85Z</time></trkpt><trkpt lat="45.9932793" lon="8.7563471"><ele>233.4</ele><time>2026-05-01T13:53:02.85Z</time></trkpt><trkpt lat="45.9933572" lon="8.7562319"><ele>233.8</ele><time>2026-05-01T13:53:03.85Z</time></trkpt><trkpt lat="45.9934223" lon="8.7561145"><ele>234.2</ele><time>2026-05-01T13:53:04.85Z</time></trkpt><trkpt lat="45.9934858" lon="8.7560082"><ele>234.6</ele><time>2026-05-01T13:53:05.85Z</time></trkpt><trkpt lat="45.9935506" lon="8.7559059"><ele>235.0</ele><time>2026-05-01T13:53:06.85Z</time></trkpt><trkpt lat="45.9936057" lon="8.755819"><ele>235.0</ele><time>2026-05-01T13:53:07.85Z</time></trkpt><trkpt lat="45.9936581" lon="8.75574"><ele>235.0</ele><time>2026-05-01T13:53:08.85Z</time></trkpt><trkpt lat="45.9937378" lon="8.7555985"><ele>235.0</ele><time>2026-05-01T13:53:10.85Z</time></trkpt><trkpt lat="45.9937749" lon="8.7555117"><ele>235.0</ele><time>2026-05-01T13:53:11.85Z</time></trkpt><trkpt lat="45.9938279" lon="8.7554248"><ele>235.0</ele><time>2026-05-01T13:53:12.85Z</time></trkpt><trkpt lat="45.9938971" lon="8.7553276"><ele>234.99999999999997</ele><time>2026-05-01T13:53:13.85Z</time></trkpt><trkpt lat="45.9939566" lon="8.7552457"><ele>235.0</ele><time>2026-05-01T13:53:14.85Z</time></trkpt><trkpt lat="45.9940073" lon="8.7551696"><ele>235.0</ele><time>2026-05-01T13:53:15.85Z</time></trkpt><trkpt lat="45.9940579" lon="8.7551055"><ele>235.0</ele><time>2026-05-01T13:53:16.85Z</time></trkpt><trkpt lat="45.9941092" lon="8.7550385"><ele>234.99999999999997</ele><time>2026-05-01T13:53:17.85Z</time></trkpt><trkpt lat="45.9941715" lon="8.7549915"><ele>235.0</ele><time>2026-05-01T13:53:18.85Z</time></trkpt><trkpt lat="45.9942809" lon="8.7549326"><ele>235.33333333333331</ele><time>2026-05-01T13:53:20.849Z</time></trkpt><trkpt lat="45.9943157" lon="8.7547874"><ele>235.66666666666666</ele><time>2026-05-01T13:53:22.85Z</time></trkpt><trkpt lat="45.9943104" lon="8.7546918"><ele>236.0</ele><time>2026-05-01T13:53:23.85Z</time></trkpt><trkpt lat="45.9942965" lon="8.7545948"><ele>236.33333333333331</ele><time>2026-05-01T13:53:24.85Z</time></trkpt><trkpt lat="45.9942918" lon="8.7544906"><ele>236.66666666666666</ele><time>2026-05-01T13:53:25.849Z</time></trkpt><trkpt lat="45.9942992" lon="8.7543816"><ele>237.0</ele><time>2026-05-01T13:53:26.85Z</time></trkpt><trkpt lat="45.9943102" lon="8.7542684"><ele>236.33333333333334</ele><time>2026-05-01T13:53:27.849Z</time></trkpt><trkpt lat="45.9943189" lon="8.7541459"><ele>235.66666666666669</ele><time>2026-05-01T13:53:28.85Z</time></trkpt><trkpt lat="45.9943266" lon="8.7540187"><ele>235.0</ele><time>2026-05-01T13:53:29.85Z</time></trkpt><trkpt lat="45.9943347" lon="8.7538848"><ele>234.33333333333334</ele><time>2026-05-01T13:53:30.851Z</time></trkpt><trkpt lat="45.9943353" lon="8.7537544"><ele>233.66666666666669</ele><time>2026-05-01T13:53:31.85Z</time></trkpt><trkpt lat="45.994332" lon="8.7536257"><ele>233.0</ele><time>2026-05-01T13:53:32.85Z</time></trkpt><trkpt lat="45.9943265" lon="8.7534944"><ele>232.60000000000002</ele><time>2026-05-01T13:53:33.85Z</time></trkpt><trkpt lat="45.9943153" lon="8.7533526"><ele>232.20000000000002</ele><time>2026-05-01T13:53:34.85Z</time></trkpt><trkpt lat="45.9943085" lon="8.7532219"><ele>231.8</ele><time>2026-05-01T13:53:35.85Z</time></trkpt><trkpt lat="45.9943014" lon="8.7530795"><ele>231.4</ele><time>2026-05-01T13:53:36.85Z</time></trkpt><trkpt lat="45.9942922" lon="8.7529427"><ele>231.0</ele><time>2026-05-01T13:53:37.85Z</time></trkpt><trkpt lat="45.9942837" lon="8.7528085"><ele>230.8</ele><time>2026-05-01T13:53:38.85Z</time></trkpt><trkpt lat="45.994277" lon="8.7526737"><ele>230.60000000000002</ele><time>2026-05-01T13:53:39.85Z</time></trkpt><trkpt lat="45.9942729" lon="8.7525386"><ele>230.4</ele><time>2026-05-01T13:53:40.85Z</time></trkpt><trkpt lat="45.9942601" lon="8.7523867"><ele>230.2</ele><time>2026-05-01T13:53:41.849Z</time></trkpt><trkpt lat="45.9942473" lon="8.7522333"><ele>230.0</ele><time>2026-05-01T13:53:42.85Z</time></trkpt><trkpt lat="45.9942404" lon="8.7520921"><ele>230.0</ele><time>2026-05-01T13:53:43.849Z</time></trkpt><trkpt lat="45.9942311" lon="8.7519429"><ele>230.0</ele><time>2026-05-01T13:53:44.85Z</time></trkpt><trkpt lat="45.9942227" lon="8.7517914"><ele>230.0</ele><time>2026-05-01T13:53:45.85Z</time></trkpt><trkpt lat="45.9942162" lon="8.7516398"><ele>230.0</ele><time>2026-05-01T13:53:46.85Z</time></trkpt><trkpt lat="45.9942159" lon="8.7514832"><ele>230.0</ele><time>2026-05-01T13:53:47.85Z</time></trkpt><trkpt lat="45.9942199" lon="8.7513277"><ele>229.6</ele><time>2026-05-01T13:53:48.85Z</time></trkpt><trkpt lat="45.9942287" lon="8.7511732"><ele>229.2</ele><time>2026-05-01T13:53:49.85Z</time></trkpt><trkpt lat="45.9942358" lon="8.7510225"><ele>228.8</ele><time>2026-05-01T13:53:50.85Z</time></trkpt><trkpt lat="45.9942484" lon="8.7508718"><ele>228.4</ele><time>2026-05-01T13:53:51.85Z</time></trkpt><trkpt lat="45.9942651" lon="8.7507198"><ele>228.0</ele><time>2026-05-01T13:53:52.85Z</time></trkpt><trkpt lat="45.9942865" lon="8.7505669"><ele>227.5</ele><time>2026-05-01T13:53:53.849Z</time></trkpt><trkpt lat="45.9943173" lon="8.7504069"><ele>227.0</ele><time>2026-05-01T13:53:54.85Z</time></trkpt><trkpt lat="45.9943438" lon="8.7502475"><ele>226.5</ele><time>2026-05-01T13:53:55.849Z</time></trkpt><trkpt lat="45.9943832" lon="8.7500992"><ele>226.0</ele><time>2026-05-01T13:53:56.85Z</time></trkpt><trkpt lat="45.994425" lon="8.7499476"><ele>225.75</ele><time>2026-05-01T13:53:57.85Z</time></trkpt><trkpt lat="45.9944745" lon="8.7497963"><ele>225.5</ele><time>2026-05-01T13:53:58.849Z</time></trkpt><trkpt lat="45.994522" lon="8.7496415"><ele>225.25</ele><time>2026-05-01T13:53:59.85Z</time></trkpt><trkpt lat="45.9945757" lon="8.7494845"><ele>225.0</ele><time>2026-05-01T13:54:00.85Z</time></trkpt><trkpt lat="45.9946277" lon="8.7493398"><ele>225.0</ele><time>2026-05-01T13:54:01.85Z</time></trkpt><trkpt lat="45.9946738" lon="8.7491861"><ele>225.0</ele><time>2026-05-01T13:54:02.85Z</time></trkpt><trkpt lat="45.9947412" lon="8.7490337"><ele>225.0</ele><time>2026-05-01T13:54:03.85Z</time></trkpt><trkpt lat="45.9948015" lon="8.7488762"><ele>225.0</ele><time>2026-05-01T13:54:04.85Z</time></trkpt><trkpt lat="45.9948563" lon="8.7487202"><ele>225.0</ele><time>2026-05-01T13:54:05.85Z</time></trkpt><trkpt lat="45.9949165" lon="8.7485572"><ele>225.0</ele><time>2026-05-01T13:54:06.85Z</time></trkpt><trkpt lat="45.9949612" lon="8.7484302"><ele>225.0</ele><time>2026-05-01T13:54:07.85Z</time></trkpt><trkpt lat="45.9950206" lon="8.7482979"><ele>225.0</ele><time>2026-05-01T13:54:08.85Z</time></trkpt><trkpt lat="45.9950842" lon="8.7481727"><ele>225.0</ele><time>2026-05-01T13:54:09.85Z</time></trkpt><trkpt lat="45.995154" lon="8.7480379"><ele>224.5</ele><time>2026-05-01T13:54:10.85Z</time></trkpt><trkpt lat="45.9952244" lon="8.7479063"><ele>224.0</ele><time>2026-05-01T13:54:11.85Z</time></trkpt><trkpt lat="45.9953014" lon="8.7477887"><ele>223.5</ele><time>2026-05-01T13:54:12.85Z</time></trkpt><trkpt lat="45.9953841" lon="8.7476734"><ele>223.0</ele><time>2026-05-01T13:54:13.848Z</time></trkpt><trkpt lat="45.9954656" lon="8.7475664"><ele>222.25</ele><time>2026-05-01T13:54:14.849Z</time></trkpt><trkpt lat="45.995547" lon="8.7474606"><ele>221.5</ele><time>2026-05-01T13:54:15.849Z</time></trkpt><trkpt lat="45.9956364" lon="8.7473539"><ele>220.75</ele><time>2026-05-01T13:54:16.85Z</time></trkpt><trkpt lat="45.9957327" lon="8.7472545"><ele>220.0</ele><time>2026-05-01T13:54:17.849Z</time></trkpt><trkpt lat="45.9958374" lon="8.7471602"><ele>218.75</ele><time>2026-05-01T13:54:18.85Z</time></trkpt><trkpt lat="45.995944" lon="8.747071"><ele>217.5</ele><time>2026-05-01T13:54:19.849Z</time></trkpt><trkpt lat="45.9960536" lon="8.7469897"><ele>216.25</ele><time>2026-05-01T13:54:20.849Z</time></trkpt><trkpt lat="45.9961616" lon="8.7469177"><ele>215.0</ele><time>2026-05-01T13:54:21.85Z</time></trkpt><trkpt lat="45.9962615" lon="8.7468586"><ele>215.0</ele><time>2026-05-01T13:54:22.85Z</time></trkpt><trkpt lat="45.9963534" lon="8.7468201"><ele>215.0</ele><time>2026-05-01T13:54:23.85Z</time></trkpt><trkpt lat="45.9964505" lon="8.74677"><ele>215.0</ele><time>2026-05-01T13:54:24.849Z</time></trkpt><trkpt lat="45.9965437" lon="8.7467261"><ele>215.0</ele><time>2026-05-01T13:54:25.85Z</time></trkpt><trkpt lat="45.9966468" lon="8.7466852"><ele>215.0</ele><time>2026-05-01T13:54:26.85Z</time></trkpt><trkpt lat="45.996747" lon="8.7466504"><ele>214.16666666666669</ele><time>2026-05-01T13:54:27.85Z</time></trkpt><trkpt lat="45.9968406" lon="8.7466151"><ele>213.33333333333334</ele><time>2026-05-01T13:54:28.85Z</time></trkpt><trkpt lat="45.9969305" lon="8.7465862"><ele>212.5</ele><time>2026-05-01T13:54:29.849Z</time></trkpt><trkpt lat="45.9970147" lon="8.7465642"><ele>211.66666666666669</ele><time>2026-05-01T13:54:30.85Z</time></trkpt><trkpt lat="45.9970881" lon="8.7465348"><ele>210.83333333333334</ele><time>2026-05-01T13:54:31.85Z</time></trkpt><trkpt lat="45.9971659" lon="8.7465104"><ele>210.0</ele><time>2026-05-01T13:54:32.85Z</time></trkpt><trkpt lat="45.9972425" lon="8.7464948"><ele>210.0</ele><time>2026-05-01T13:54:33.85Z</time></trkpt><trkpt lat="45.9973147" lon="8.7464891"><ele>210.0</ele><time>2026-05-01T13:54:34.849Z</time></trkpt><trkpt lat="45.9973842" lon="8.7465049"><ele>210.0</ele><time>2026-05-01T13:54:35.85Z</time></trkpt><trkpt lat="45.9974898" lon="8.7465624"><ele>210.0</ele><time>2026-05-01T13:54:37.85Z</time></trkpt><trkpt lat="45.9975652" lon="8.7464689"><ele>210.0</ele><time>2026-05-01T13:54:39.85Z</time></trkpt><trkpt lat="45.9976011" lon="8.7463902"><ele>210.0</ele><time>2026-05-01T13:54:40.85Z</time></trkpt><trkpt lat="45.9976656" lon="8.7463411"><ele>209.8</ele><time>2026-05-01T13:54:41.85Z</time></trkpt><trkpt lat="45.997748" lon="8.7463092"><ele>209.6</ele><time>2026-05-01T13:54:42.85Z</time></trkpt><trkpt lat="45.9978437" lon="8.7462678"><ele>209.39999999999998</ele><time>2026-05-01T13:54:43.85Z</time></trkpt><trkpt lat="45.9979467" lon="8.7462235"><ele>209.2</ele><time>2026-05-01T13:54:44.849Z</time></trkpt><trkpt lat="45.9980639" lon="8.7461829"><ele>209.0</ele><time>2026-05-01T13:54:45.85Z</time></trkpt><trkpt lat="45.9981742" lon="8.746138"><ele>209.0</ele><time>2026-05-01T13:54:46.85Z</time></trkpt><trkpt lat="45.9982875" lon="8.7460951"><ele>209.0</ele><time>2026-05-01T13:54:47.849Z</time></trkpt><trkpt lat="45.9983936" lon="8.7460442"><ele>209.0</ele><time>2026-05-01T13:54:48.85Z</time></trkpt><trkpt lat="45.9984824" lon="8.745991"><ele>209.0</ele><time>2026-05-01T13:54:49.85Z</time></trkpt><trkpt lat="45.998575" lon="8.7459316"><ele>209.0</ele><time>2026-05-01T13:54:50.85Z</time></trkpt><trkpt lat="45.9986643" lon="8.7458651"><ele>208.83333333333334</ele><time>2026-05-01T13:54:51.85Z</time></trkpt><trkpt lat="45.9987418" lon="8.745806"><ele>208.66666666666669</ele><time>2026-05-01T13:54:52.85Z</time></trkpt><trkpt lat="45.9988149" lon="8.745738"><ele>208.5</ele><time>2026-05-01T13:54:53.85Z</time></trkpt><trkpt lat="45.9988782" lon="8.7456539"><ele>208.33333333333331</ele><time>2026-05-01T13:54:54.85Z</time></trkpt><trkpt lat="45.9989307" lon="8.7455595"><ele>208.16666666666666</ele><time>2026-05-01T13:54:55.85Z</time></trkpt><trkpt lat="45.99897" lon="8.7454751"><ele>208.0</ele><time>2026-05-01T13:54:56.85Z</time></trkpt><trkpt lat="45.9990052" lon="8.7453791"><ele>207.99999999999997</ele><time>2026-05-01T13:54:57.85Z</time></trkpt><trkpt lat="45.999049" lon="8.7452462"><ele>208.0</ele><time>2026-05-01T13:54:59.85Z</time></trkpt><trkpt lat="45.9990834" lon="8.7451471"><ele>208.0</ele><time>2026-05-01T13:55:01.85Z</time></trkpt><trkpt lat="45.9991193" lon="8.745056"><ele>208.0</ele><time>2026-05-01T13:55:04.849Z</time></trkpt><trkpt lat="45.9991614" lon="8.7449386"><ele>207.99999999999997</ele><time>2026-05-01T13:59:50.849Z</time></trkpt><trkpt lat="45.9992524" lon="8.7448695"><ele>208.0</ele><time>2026-05-01T13:59:53.849Z</time></trkpt><trkpt lat="45.9993382" lon="8.7448731"><ele>207.49999999999997</ele><time>2026-05-01T13:59:54.849Z</time></trkpt><trkpt lat="45.9994163" lon="8.7448612"><ele>207.0</ele><time>2026-05-01T13:59:55.849Z</time></trkpt><trkpt lat="45.999543" lon="8.7448567"><ele>206.5</ele><time>2026-05-01T13:59:57.849Z</time></trkpt><trkpt lat="45.9996106" lon="8.7448479"><ele>206.0</ele><time>2026-05-01T13:59:58.849Z</time></trkpt><trkpt lat="45.9996846" lon="8.7448384"><ele>205.49999999999997</ele><time>2026-05-01T13:59:59.85Z</time></trkpt><trkpt lat="45.9997616" lon="8.7448245"><ele>205.0</ele><time>2026-05-01T14:00:00.85Z</time></trkpt><trkpt lat="45.9998791" lon="8.744815"><ele>204.99999999999997</ele><time>2026-05-01T14:00:02.85Z</time></trkpt><trkpt lat="45.9999754" lon="8.7448123"><ele>205.0</ele><time>2026-05-01T14:00:04.85Z</time></trkpt><trkpt lat="46.0000737" lon="8.7448271"><ele>205.0</ele><time>2026-05-01T14:00:07.85Z</time></trkpt><trkpt lat="46.0001689" lon="8.7448438"><ele>205.0</ele><time>2026-05-01T14:00:09.849Z</time></trkpt><trkpt lat="46.0002455" lon="8.7448589"><ele>204.99999999999997</ele><time>2026-05-01T14:00:10.848Z</time></trkpt><trkpt lat="46.000322" lon="8.7448775"><ele>205.0</ele><time>2026-05-01T14:00:11.848Z</time></trkpt><trkpt lat="46.0004181" lon="8.7448864"><ele>204.99999999999997</ele><time>2026-05-01T14:00:13.849Z</time></trkpt><trkpt lat="46.0005076" lon="8.7448689"><ele>205.0</ele><time>2026-05-01T14:00:16.849Z</time></trkpt><trkpt lat="46.0005617" lon="8.7447416"><ele>205.0</ele><time>2026-05-01T14:00:18.849Z</time></trkpt><trkpt lat="46.0005717" lon="8.7445911"><ele>205.0</ele><time>2026-05-01T14:00:20.85Z</time></trkpt><trkpt lat="46.0005683" lon="8.74449"><ele>204.99999999999997</ele><time>2026-05-01T14:00:21.849Z</time></trkpt><trkpt lat="46.0005714" lon="8.7443963"><ele>205.0</ele><time>2026-05-01T14:00:22.85Z</time></trkpt><trkpt lat="46.0005727" lon="8.7442926"><ele>205.2</ele><time>2026-05-01T14:00:23.85Z</time></trkpt><trkpt lat="46.0005808" lon="8.7441866"><ele>205.4</ele><time>2026-05-01T14:00:24.849Z</time></trkpt><trkpt lat="46.0006118" lon="8.744077"><ele>205.60000000000002</ele><time>2026-05-01T14:00:25.85Z</time></trkpt><trkpt lat="46.0006326" lon="8.7439515"><ele>205.8</ele><time>2026-05-01T14:00:26.85Z</time></trkpt><trkpt lat="46.0006671" lon="8.7437843"><ele>206.0</ele><time>2026-05-01T14:00:27.849Z</time></trkpt><trkpt lat="46.0007308" lon="8.7436146"><ele>205.75</ele><time>2026-05-01T14:00:28.849Z</time></trkpt><trkpt lat="46.000789" lon="8.7434454"><ele>205.5</ele><time>2026-05-01T14:00:29.849Z</time></trkpt><trkpt lat="46.0008481" lon="8.7432912"><ele>205.25</ele><time>2026-05-01T14:00:30.848Z</time></trkpt><trkpt lat="46.0009158" lon="8.7431435"><ele>205.0</ele><time>2026-05-01T14:00:31.85Z</time></trkpt><trkpt lat="46.0009902" lon="8.7429998"><ele>204.8</ele><time>2026-05-01T14:00:32.849Z</time></trkpt><trkpt lat="46.0010606" lon="8.7428666"><ele>204.6</ele><time>2026-05-01T14:00:33.849Z</time></trkpt><trkpt lat="46.0011203" lon="8.7427416"><ele>204.39999999999998</ele><time>2026-05-01T14:00:34.85Z</time></trkpt><trkpt lat="46.0011739" lon="8.7426098"><ele>204.2</ele><time>2026-05-01T14:00:35.847Z</time></trkpt><trkpt lat="46.0012341" lon="8.7424777"><ele>204.0</ele><time>2026-05-01T14:00:36.849Z</time></trkpt><trkpt lat="46.0012927" lon="8.742352"><ele>203.83333333333334</ele><time>2026-05-01T14:00:37.85Z</time></trkpt><trkpt lat="46.0013454" lon="8.7422272"><ele>203.66666666666669</ele><time>2026-05-01T14:00:38.85Z</time></trkpt><trkpt lat="46.0013955" lon="8.74211"><ele>203.5</ele><time>2026-05-01T14:00:39.85Z</time></trkpt><trkpt lat="46.0014419" lon="8.7420047"><ele>203.33333333333334</ele><time>2026-05-01T14:00:40.849Z</time></trkpt><trkpt lat="46.0014771" lon="8.7419158"><ele>203.16666666666669</ele><time>2026-05-01T14:00:41.849Z</time></trkpt><trkpt lat="46.0015122" lon="8.7418328"><ele>203.0</ele><time>2026-05-01T14:00:42.85Z</time></trkpt><trkpt lat="46.0015448" lon="8.7417425"><ele>203.00000000000003</ele><time>2026-05-01T14:00:43.849Z</time></trkpt><trkpt lat="46.0015795" lon="8.7416551"><ele>203.0</ele><time>2026-05-01T14:00:44.849Z</time></trkpt><trkpt lat="46.0016578" lon="8.7415204"><ele>203.0</ele><time>2026-05-01T14:00:46.849Z</time></trkpt><trkpt lat="46.001695" lon="8.74144"><ele>203.0</ele><time>2026-05-01T14:00:47.848Z</time></trkpt><trkpt lat="46.0017324" lon="8.7413599"><ele>203.00000000000003</ele><time>2026-05-01T14:00:48.849Z</time></trkpt><trkpt lat="46.0017661" lon="8.7412801"><ele>203.0</ele><time>2026-05-01T14:00:49.849Z</time></trkpt><trkpt lat="46.0018004" lon="8.7411897"><ele>203.0</ele><time>2026-05-01T14:00:50.849Z</time></trkpt><trkpt lat="46.0017995" lon="8.7410778"><ele>203.0</ele><time>2026-05-01T14:00:51.85Z</time></trkpt><trkpt lat="46.0017556" lon="8.7409346"><ele>203.0</ele><time>2026-05-01T14:00:53.849Z</time></trkpt><trkpt lat="46.0017181" lon="8.7408591"><ele>203.0</ele><time>2026-05-01T14:00:56.849Z</time></trkpt><trkpt lat="46.0016636" lon="8.7407557"><ele>203.0</ele><time>2026-05-01T14:00:59.85Z</time></trkpt><trkpt lat="46.0015865" lon="8.7406161"><ele>203.16666666666669</ele><time>2026-05-01T14:01:01.85Z</time></trkpt><trkpt lat="46.0015412" lon="8.7405429"><ele>203.33333333333334</ele><time>2026-05-01T14:01:02.849Z</time></trkpt><trkpt lat="46.0014979" lon="8.7404584"><ele>203.5</ele><time>2026-05-01T14:01:03.85Z</time></trkpt><trkpt lat="46.0014424" lon="8.7403665"><ele>203.66666666666669</ele><time>2026-05-01T14:01:04.849Z</time></trkpt><trkpt lat="46.0013832" lon="8.7402596"><ele>203.83333333333334</ele><time>2026-05-01T14:01:05.85Z</time></trkpt><trkpt lat="46.001318" lon="8.7401424"><ele>204.0</ele><time>2026-05-01T14:01:06.85Z</time></trkpt><trkpt lat="46.0012505" lon="8.7400105"><ele>204.0</ele><time>2026-05-01T14:01:07.849Z</time></trkpt><trkpt lat="46.0011714" lon="8.7398819"><ele>204.0</ele><time>2026-05-01T14:01:08.849Z</time></trkpt><trkpt lat="46.0010991" lon="8.7397349"><ele>204.0</ele><time>2026-05-01T14:01:09.849Z</time></trkpt><trkpt lat="46.0010225" lon="8.7395802"><ele>204.0</ele><time>2026-05-01T14:01:10.849Z</time></trkpt><trkpt lat="46.000956" lon="8.739419"><ele>204.25</ele><time>2026-05-01T14:01:11.849Z</time></trkpt><trkpt lat="46.0008857" lon="8.7392497"><ele>204.5</ele><time>2026-05-01T14:01:12.85Z</time></trkpt><trkpt lat="46.0008171" lon="8.7390901"><ele>204.75</ele><time>2026-05-01T14:01:13.849Z</time></trkpt><trkpt lat="46.0007605" lon="8.7389424"><ele>205.0</ele><time>2026-05-01T14:01:14.849Z</time></trkpt><trkpt lat="46.000703" lon="8.7388046"><ele>205.0</ele><time>2026-05-01T14:01:15.848Z</time></trkpt><trkpt lat="46.0006501" lon="8.7386729"><ele>205.0</ele><time>2026-05-01T14:01:16.849Z</time></trkpt><trkpt lat="46.0005997" lon="8.7385452"><ele>205.0</ele><time>2026-05-01T14:01:17.85Z</time></trkpt><trkpt lat="46.0005501" lon="8.7384252"><ele>205.0</ele><time>2026-05-01T14:01:18.848Z</time></trkpt><trkpt lat="46.0004961" lon="8.7382938"><ele>205.0</ele><time>2026-05-01T14:01:19.85Z</time></trkpt><trkpt lat="46.0004446" lon="8.7381577"><ele>205.0</ele><time>2026-05-01T14:01:20.85Z</time></trkpt><trkpt lat="46.0003896" lon="8.7380192"><ele>205.0</ele><time>2026-05-01T14:01:21.849Z</time></trkpt><trkpt lat="46.0003382" lon="8.7378822"><ele>205.0</ele><time>2026-05-01T14:01:22.849Z</time></trkpt><trkpt lat="46.0002813" lon="8.737748"><ele>205.0</ele><time>2026-05-01T14:01:23.85Z</time></trkpt><trkpt lat="46.0002231" lon="8.7376097"><ele>205.0</ele><time>2026-05-01T14:01:24.849Z</time></trkpt><trkpt lat="46.0001692" lon="8.7374742"><ele>205.4</ele><time>2026-05-01T14:01:25.85Z</time></trkpt><trkpt lat="46.0001155" lon="8.7373569"><ele>205.8</ele><time>2026-05-01T14:01:26.85Z</time></trkpt><trkpt lat="46.0000629" lon="8.7372462"><ele>206.2</ele><time>2026-05-01T14:01:27.848Z</time></trkpt><trkpt lat="46.0000138" lon="8.7371352"><ele>206.6</ele><time>2026-05-01T14:01:28.849Z</time></trkpt><trkpt lat="45.9999712" lon="8.7370329"><ele>207.0</ele><time>2026-05-01T14:01:29.848Z</time></trkpt><trkpt lat="45.9999252" lon="8.7369237"><ele>206.0</ele><time>2026-05-01T14:01:30.849Z</time></trkpt><trkpt lat="45.9998804" lon="8.7368152"><ele>205.0</ele><time>2026-05-01T14:01:31.847Z</time></trkpt><trkpt lat="45.9998336" lon="8.7367116"><ele>204.0</ele><time>2026-05-01T14:01:32.849Z</time></trkpt><trkpt lat="45.9997878" lon="8.7366059"><ele>203.0</ele><time>2026-05-01T14:01:33.85Z</time></trkpt><trkpt lat="45.9997455" lon="8.7365176"><ele>202.0</ele><time>2026-05-01T14:01:34.849Z</time></trkpt><trkpt lat="45.9996822" lon="8.7363702"><ele>202.0</ele><time>2026-05-01T14:01:36.85Z</time></trkpt><trkpt lat="45.999622" lon="8.7362421"><ele>202.0</ele><time>2026-05-01T14:01:38.849Z</time></trkpt><trkpt lat="45.9995602" lon="8.7361228"><ele>202.0</ele><time>2026-05-01T14:01:40.849Z</time></trkpt><trkpt lat="45.9995058" lon="8.736003"><ele>202.0</ele><time>2026-05-01T14:01:42.849Z</time></trkpt><trkpt lat="45.9994707" lon="8.7359121"><ele>202.0</ele><time>2026-05-01T14:01:44.85Z</time></trkpt><trkpt lat="45.9994384" lon="8.7357866"><ele>202.49999999999997</ele><time>2026-05-01T14:01:46.849Z</time></trkpt><trkpt lat="45.9993579" lon="8.7356496"><ele>203.0</ele><time>2026-05-01T14:01:48.848Z</time></trkpt><trkpt lat="45.9993037" lon="8.7355803"><ele>203.5</ele><time>2026-05-01T14:01:49.85Z</time></trkpt><trkpt lat="45.99925" lon="8.7355166"><ele>204.0</ele><time>2026-05-01T14:01:50.85Z</time></trkpt><trkpt lat="45.999195" lon="8.7354381"><ele>204.49999999999997</ele><time>2026-05-01T14:01:51.849Z</time></trkpt><trkpt lat="45.9991395" lon="8.735357"><ele>205.0</ele><time>2026-05-01T14:01:52.849Z</time></trkpt><trkpt lat="45.9990801" lon="8.7352865"><ele>205.0</ele><time>2026-05-01T14:01:53.851Z</time></trkpt><trkpt lat="45.9990226" lon="8.7352207"><ele>205.0</ele><time>2026-05-01T14:01:54.85Z</time></trkpt><trkpt lat="45.9989724" lon="8.7351571"><ele>205.0</ele><time>2026-05-01T14:01:55.848Z</time></trkpt><trkpt lat="45.9989108" lon="8.735113"><ele>205.0</ele><time>2026-05-01T14:01:56.85Z</time></trkpt><trkpt lat="45.9988495" lon="8.735073"><ele>205.0</ele><time>2026-05-01T14:01:57.85Z</time></trkpt><trkpt lat="45.9987872" lon="8.7350413"><ele>205.0</ele><time>2026-05-01T14:01:58.85Z</time></trkpt><trkpt lat="45.9987229" lon="8.7350055"><ele>205.0</ele><time>2026-05-01T14:01:59.85Z</time></trkpt><trkpt lat="45.9986535" lon="8.7349683"><ele>204.16666666666666</ele><time>2026-05-01T14:02:00.85Z</time></trkpt><trkpt lat="45.9985782" lon="8.734932"><ele>203.33333333333331</ele><time>2026-05-01T14:02:01.85Z</time></trkpt><trkpt lat="45.9984985" lon="8.7348889"><ele>202.5</ele><time>2026-05-01T14:02:02.849Z</time></trkpt><trkpt lat="45.9984131" lon="8.7348431"><ele>201.66666666666669</ele><time>2026-05-01T14:02:03.85Z</time></trkpt><trkpt lat="45.9983302" lon="8.7348"><ele>200.83333333333334</ele><time>2026-05-01T14:02:04.849Z</time></trkpt><trkpt lat="45.9982454" lon="8.7347566"><ele>200.0</ele><time>2026-05-01T14:02:05.849Z</time></trkpt><trkpt lat="45.9981698" lon="8.7347024"><ele>200.00000000000003</ele><time>2026-05-01T14:02:06.85Z</time></trkpt><trkpt lat="45.99809" lon="8.7346487"><ele>200.0</ele><time>2026-05-01T14:02:07.849Z</time></trkpt><trkpt lat="45.9980032" lon="8.7346105"><ele>200.0</ele><time>2026-05-01T14:02:08.85Z</time></trkpt><trkpt lat="45.9979197" lon="8.734561"><ele>200.0</ele><time>2026-05-01T14:02:09.85Z</time></trkpt><trkpt lat="45.9978366" lon="8.7345335"><ele>200.00000000000003</ele><time>2026-05-01T14:02:10.85Z</time></trkpt><trkpt lat="45.9977596" lon="8.7344923"><ele>200.0</ele><time>2026-05-01T14:02:11.848Z</time></trkpt><trkpt lat="45.9976861" lon="8.7344358"><ele>199.8</ele><time>2026-05-01T14:02:12.849Z</time></trkpt><trkpt lat="45.9976062" lon="8.734375"><ele>199.6</ele><time>2026-05-01T14:02:13.849Z</time></trkpt><trkpt lat="45.9975267" lon="8.7343144"><ele>199.39999999999998</ele><time>2026-05-01T14:02:14.848Z</time></trkpt><trkpt lat="45.9974354" lon="8.7342329"><ele>199.2</ele><time>2026-05-01T14:02:15.848Z</time></trkpt><trkpt lat="45.99734" lon="8.7341439"><ele>199.0</ele><time>2026-05-01T14:02:16.85Z</time></trkpt><trkpt lat="45.9972422" lon="8.7340562"><ele>199.0</ele><time>2026-05-01T14:02:17.849Z</time></trkpt><trkpt lat="45.9971534" lon="8.7339739"><ele>199.0</ele><time>2026-05-01T14:02:18.85Z</time></trkpt><trkpt lat="45.9970734" lon="8.7339036"><ele>199.0</ele><time>2026-05-01T14:02:19.848Z</time></trkpt><trkpt lat="45.9969961" lon="8.7338302"><ele>199.0</ele><time>2026-05-01T14:02:20.849Z</time></trkpt><trkpt lat="45.9969364" lon="8.733768"><ele>199.0</ele><time>2026-05-01T14:02:21.848Z</time></trkpt><trkpt lat="45.9968607" lon="8.7336922"><ele>199.0</ele><time>2026-05-01T14:02:23.85Z</time></trkpt><trkpt lat="45.9967854" lon="8.733607"><ele>199.0</ele><time>2026-05-01T14:02:27.849Z</time></trkpt><trkpt lat="45.9967003" lon="8.7335196"><ele>199.0</ele><time>2026-05-01T14:02:29.849Z</time></trkpt><trkpt lat="45.9965989" lon="8.7334079"><ele>199.0</ele><time>2026-05-01T14:02:31.848Z</time></trkpt><trkpt lat="45.9965524" lon="8.733339"><ele>199.0</ele><time>2026-05-01T14:02:32.85Z</time></trkpt><trkpt lat="45.9964998" lon="8.7332752"><ele>199.79999999999998</ele><time>2026-05-01T14:02:33.849Z</time></trkpt><trkpt lat="45.9964448" lon="8.7332233"><ele>200.6</ele><time>2026-05-01T14:02:34.85Z</time></trkpt><trkpt lat="45.996349" lon="8.7331155"><ele>201.4</ele><time>2026-05-01T14:02:36.849Z</time></trkpt><trkpt lat="45.9962633" lon="8.7330359"><ele>202.2</ele><time>2026-05-01T14:02:38.85Z</time></trkpt><trkpt lat="45.9961913" lon="8.7329594"><ele>203.0</ele><time>2026-05-01T14:02:40.847Z</time></trkpt><trkpt lat="45.9961318" lon="8.7328734"><ele>203.00000000000003</ele><time>2026-05-01T14:02:42.85Z</time></trkpt><trkpt lat="45.9960683" lon="8.7327957"><ele>203.0</ele><time>2026-05-01T14:02:44.85Z</time></trkpt><trkpt lat="45.9960118" lon="8.7327266"><ele>203.0</ele><time>2026-05-01T14:02:47.849Z</time></trkpt><trkpt lat="45.9959463" lon="8.7326391"><ele>203.0</ele><time>2026-05-01T14:02:54.849Z</time></trkpt><trkpt lat="45.9958963" lon="8.7325485"><ele>203.00000000000003</ele><time>2026-05-01T14:02:59.85Z</time></trkpt><trkpt lat="45.9958737" lon="8.7324196"><ele>203.0</ele><time>2026-05-01T14:03:01.849Z</time></trkpt><trkpt lat="45.9958384" lon="8.7322625"><ele>202.66666666666669</ele><time>2026-05-01T14:03:03.85Z</time></trkpt><trkpt lat="45.9958196" lon="8.7321643"><ele>202.33333333333334</ele><time>2026-05-01T14:03:04.85Z</time></trkpt><trkpt lat="45.9958044" lon="8.732066"><ele>202.0</ele><time>2026-05-01T14:03:05.848Z</time></trkpt><trkpt lat="45.9957853" lon="8.7319597"><ele>201.66666666666669</ele><time>2026-05-01T14:03:06.848Z</time></trkpt><trkpt lat="45.9957567" lon="8.7318432"><ele>201.33333333333334</ele><time>2026-05-01T14:03:07.849Z</time></trkpt><trkpt lat="45.9957328" lon="8.7317149"><ele>201.0</ele><time>2026-05-01T14:03:08.849Z</time></trkpt><trkpt lat="45.9957019" lon="8.7315795"><ele>201.0</ele><time>2026-05-01T14:03:09.849Z</time></trkpt><trkpt lat="45.9956699" lon="8.7314487"><ele>201.0</ele><time>2026-05-01T14:03:10.849Z</time></trkpt><trkpt lat="45.9956417" lon="8.7313159"><ele>201.0</ele><time>2026-05-01T14:03:11.849Z</time></trkpt><trkpt lat="45.9956121" lon="8.7311874"><ele>201.0</ele><time>2026-05-01T14:03:12.849Z</time></trkpt><trkpt lat="45.9955884" lon="8.7310635"><ele>201.0</ele><time>2026-05-01T14:03:13.85Z</time></trkpt><trkpt lat="45.9955587" lon="8.7309397"><ele>200.8</ele><time>2026-05-01T14:03:14.848Z</time></trkpt><trkpt lat="45.9955297" lon="8.7308214"><ele>200.60000000000002</ele><time>2026-05-01T14:03:15.849Z</time></trkpt><trkpt lat="45.9955029" lon="8.7306887"><ele>200.4</ele><time>2026-05-01T14:03:16.85Z</time></trkpt><trkpt lat="45.9954773" lon="8.7305518"><ele>200.2</ele><time>2026-05-01T14:03:17.85Z</time></trkpt><trkpt lat="45.9954444" lon="8.7304202"><ele>200.0</ele><time>2026-05-01T14:03:18.849Z</time></trkpt><trkpt lat="45.9954162" lon="8.7302919"><ele>200.6</ele><time>2026-05-01T14:03:19.849Z</time></trkpt><trkpt lat="45.9953859" lon="8.7301611"><ele>201.2</ele><time>2026-05-01T14:03:20.849Z</time></trkpt><trkpt lat="45.9953541" lon="8.7300231"><ele>201.8</ele><time>2026-05-01T14:03:21.849Z</time></trkpt><trkpt lat="45.9953271" lon="8.7298844"><ele>202.4</ele><time>2026-05-01T14:03:22.85Z</time></trkpt><trkpt lat="45.9952918" lon="8.7297555"><ele>203.0</ele><time>2026-05-01T14:03:23.85Z</time></trkpt><trkpt lat="45.9952577" lon="8.7296327"><ele>203.00000000000003</ele><time>2026-05-01T14:03:24.849Z</time></trkpt><trkpt lat="45.9952237" lon="8.7295159"><ele>203.0</ele><time>2026-05-01T14:03:25.849Z</time></trkpt><trkpt lat="45.9951943" lon="8.7293984"><ele>203.0</ele><time>2026-05-01T14:03:26.849Z</time></trkpt><trkpt lat="45.9951648" lon="8.7292819"><ele>203.0</ele><time>2026-05-01T14:03:27.849Z</time></trkpt><trkpt lat="45.9951339" lon="8.7291642"><ele>203.00000000000003</ele><time>2026-05-01T14:03:28.849Z</time></trkpt><trkpt lat="45.9951071" lon="8.7290512"><ele>203.0</ele><time>2026-05-01T14:03:29.849Z</time></trkpt><trkpt lat="45.995079" lon="8.7289342"><ele>202.83333333333334</ele><time>2026-05-01T14:03:30.85Z</time></trkpt><trkpt lat="45.9950518" lon="8.7288154"><ele>202.66666666666669</ele><time>2026-05-01T14:03:31.849Z</time></trkpt><trkpt lat="45.9950225" lon="8.7287019"><ele>202.5</ele><time>2026-05-01T14:03:32.85Z</time></trkpt><trkpt lat="45.9949938" lon="8.7285908"><ele>202.33333333333331</ele><time>2026-05-01T14:03:33.848Z</time></trkpt><trkpt lat="45.9949701" lon="8.7284848"><ele>202.16666666666666</ele><time>2026-05-01T14:03:34.849Z</time></trkpt><trkpt lat="45.9949493" lon="8.7283908"><ele>202.0</ele><time>2026-05-01T14:03:35.849Z</time></trkpt><trkpt lat="45.9949105" lon="8.7282147"><ele>201.6</ele><time>2026-05-01T14:03:37.849Z</time></trkpt><trkpt lat="45.9948876" lon="8.7281167"><ele>201.2</ele><time>2026-05-01T14:03:38.849Z</time></trkpt><trkpt lat="45.9948511" lon="8.7279604"><ele>200.8</ele><time>2026-05-01T14:03:40.849Z</time></trkpt><trkpt lat="45.9948063" lon="8.7278065"><ele>200.4</ele><time>2026-05-01T14:03:42.85Z</time></trkpt><trkpt lat="45.9947664" lon="8.7276427"><ele>200.0</ele><time>2026-05-01T14:03:44.848Z</time></trkpt><trkpt lat="45.9947558" lon="8.7275525"><ele>200.00000000000003</ele><time>2026-05-01T14:03:45.848Z</time></trkpt><trkpt lat="45.9947679" lon="8.7273949"><ele>200.0</ele><time>2026-05-01T14:03:47.849Z</time></trkpt><trkpt lat="45.9947976" lon="8.7273092"><ele>200.0</ele><time>2026-05-01T14:03:48.849Z</time></trkpt><trkpt lat="45.9948345" lon="8.7272234"><ele>200.0</ele><time>2026-05-01T14:03:49.849Z</time></trkpt><trkpt lat="45.9948753" lon="8.7271147"><ele>200.00000000000003</ele><time>2026-05-01T14:03:50.85Z</time></trkpt><trkpt lat="45.9949167" lon="8.7270113"><ele>200.0</ele><time>2026-05-01T14:03:51.849Z</time></trkpt><trkpt lat="45.9949666" lon="8.7268993"><ele>199.33333333333334</ele><time>2026-05-01T14:03:52.85Z</time></trkpt><trkpt lat="45.9950225" lon="8.7267781"><ele>198.66666666666669</ele><time>2026-05-01T14:03:53.85Z</time></trkpt><trkpt lat="45.9950751" lon="8.7266583"><ele>198.0</ele><time>2026-05-01T14:03:54.849Z</time></trkpt><trkpt lat="45.9951231" lon="8.7265435"><ele>197.33333333333331</ele><time>2026-05-01T14:03:55.849Z</time></trkpt><trkpt lat="45.9951713" lon="8.7264349"><ele>196.66666666666666</ele><time>2026-05-01T14:03:56.85Z</time></trkpt><trkpt lat="45.9952039" lon="8.726351"><ele>196.0</ele><time>2026-05-01T14:03:57.849Z</time></trkpt><trkpt lat="45.9952442" lon="8.7262644"><ele>196.0</ele><time>2026-05-01T14:03:58.85Z</time></trkpt><trkpt lat="45.9952818" lon="8.7261809"><ele>196.0</ele><time>2026-05-01T14:03:59.85Z</time></trkpt><trkpt lat="45.9953166" lon="8.7260971"><ele>196.0</ele><time>2026-05-01T14:04:00.848Z</time></trkpt><trkpt lat="45.9953609" lon="8.7260093"><ele>196.0</ele><time>2026-05-01T14:04:01.848Z</time></trkpt><trkpt lat="45.9953975" lon="8.7259194"><ele>196.0</ele><time>2026-05-01T14:04:02.849Z</time></trkpt><trkpt lat="45.9954378" lon="8.7258263"><ele>196.0</ele><time>2026-05-01T14:04:03.85Z</time></trkpt><trkpt lat="45.9954745" lon="8.7257495"><ele>196.0</ele><time>2026-05-01T14:04:04.849Z</time></trkpt><trkpt lat="45.9955127" lon="8.7256687"><ele>196.66666666666666</ele><time>2026-05-01T14:04:05.848Z</time></trkpt><trkpt lat="45.9955773" lon="8.7255259"><ele>197.33333333333331</ele><time>2026-05-01T14:04:07.849Z</time></trkpt><trkpt lat="45.9956218" lon="8.7254184"><ele>198.0</ele><time>2026-05-01T14:04:09.849Z</time></trkpt><trkpt lat="45.9956549" lon="8.725332"><ele>198.66666666666669</ele><time>2026-05-01T14:04:11.849Z</time></trkpt><trkpt lat="45.9956679" lon="8.7252432"><ele>199.33333333333334</ele><time>2026-05-01T14:04:24.849Z</time></trkpt><trkpt lat="45.9957178" lon="8.7251263"><ele>200.0</ele><time>2026-05-01T14:04:27.848Z</time></trkpt><trkpt lat="45.9957691" lon="8.7249902"><ele>200.2</ele><time>2026-05-01T14:04:29.85Z</time></trkpt><trkpt lat="45.9958166" lon="8.7248576"><ele>200.4</ele><time>2026-05-01T14:04:31.848Z</time></trkpt><trkpt lat="45.9958402" lon="8.7246875"><ele>200.60000000000002</ele><time>2026-05-01T14:04:33.85Z</time></trkpt><trkpt lat="45.995843" lon="8.7245921"><ele>200.8</ele><time>2026-05-01T14:04:34.848Z</time></trkpt><trkpt lat="45.9958393" lon="8.7244923"><ele>201.0</ele><time>2026-05-01T14:04:35.849Z</time></trkpt><trkpt lat="45.9957992" lon="8.7243387"><ele>201.0</ele><time>2026-05-01T14:04:37.848Z</time></trkpt><trkpt lat="45.9957252" lon="8.7241953"><ele>201.0</ele><time>2026-05-01T14:04:39.849Z</time></trkpt><trkpt lat="45.9956763" lon="8.7241364"><ele>201.0</ele><time>2026-05-01T14:04:40.848Z</time></trkpt><trkpt lat="45.9956378" lon="8.7240596"><ele>201.0</ele><time>2026-05-01T14:04:41.85Z</time></trkpt><trkpt lat="45.9955971" lon="8.7239785"><ele>201.0</ele><time>2026-05-01T14:04:42.849Z</time></trkpt><trkpt lat="45.9955574" lon="8.7238971"><ele>201.0</ele><time>2026-05-01T14:04:43.85Z</time></trkpt><trkpt lat="45.9955127" lon="8.7238175"><ele>201.0</ele><time>2026-05-01T14:04:44.849Z</time></trkpt><trkpt lat="45.9954751" lon="8.7237413"><ele>201.0</ele><time>2026-05-01T14:04:45.849Z</time></trkpt><trkpt lat="45.9954314" lon="8.7236619"><ele>201.0</ele><time>2026-05-01T14:04:46.849Z</time></trkpt><trkpt lat="45.9953804" lon="8.7235761"><ele>201.0</ele><time>2026-05-01T14:04:47.849Z</time></trkpt><trkpt lat="45.99533" lon="8.7234861"><ele>201.0</ele><time>2026-05-01T14:04:48.85Z</time></trkpt><trkpt lat="45.9952737" lon="8.7233908"><ele>201.0</ele><time>2026-05-01T14:04:49.849Z</time></trkpt><trkpt lat="45.9952193" lon="8.7232923"><ele>201.0</ele><time>2026-05-01T14:04:50.849Z</time></trkpt><trkpt lat="45.9951692" lon="8.7231953"><ele>201.0</ele><time>2026-05-01T14:04:51.849Z</time></trkpt><trkpt lat="45.995121" lon="8.7231079"><ele>201.0</ele><time>2026-05-01T14:04:52.849Z</time></trkpt><trkpt lat="45.9950757" lon="8.7230286"><ele>201.0</ele><time>2026-05-01T14:04:53.849Z</time></trkpt><trkpt lat="45.9950306" lon="8.7229443"><ele>201.0</ele><time>2026-05-01T14:04:54.848Z</time></trkpt><trkpt lat="45.9949833" lon="8.7228502"><ele>201.0</ele><time>2026-05-01T14:04:55.849Z</time></trkpt><trkpt lat="45.9949298" lon="8.7227525"><ele>200.5</ele><time>2026-05-01T14:04:56.848Z</time></trkpt><trkpt lat="45.9948692" lon="8.7226521"><ele>200.0</ele><time>2026-05-01T14:04:57.85Z</time></trkpt><trkpt lat="45.9948142" lon="8.7225442"><ele>199.5</ele><time>2026-05-01T14:04:58.848Z</time></trkpt><trkpt lat="45.9947592" lon="8.7224358"><ele>199.0</ele><time>2026-05-01T14:04:59.848Z</time></trkpt><trkpt lat="45.9947074" lon="8.7223407"><ele>198.5</ele><time>2026-05-01T14:05:00.85Z</time></trkpt><trkpt lat="45.9946653" lon="8.7222575"><ele>198.0</ele><time>2026-05-01T14:05:01.848Z</time></trkpt><trkpt lat="45.9946181" lon="8.7221816"><ele>198.0</ele><time>2026-05-01T14:05:02.849Z</time></trkpt><trkpt lat="45.9945755" lon="8.7220956"><ele>198.0</ele><time>2026-05-01T14:05:03.849Z</time></trkpt><trkpt lat="45.9945305" lon="8.7220165"><ele>198.0</ele><time>2026-05-01T14:05:04.849Z</time></trkpt><trkpt lat="45.9944872" lon="8.7219322"><ele>198.0</ele><time>2026-05-01T14:05:05.85Z</time></trkpt><trkpt lat="45.9944426" lon="8.7218522"><ele>198.0</ele><time>2026-05-01T14:05:06.85Z</time></trkpt><trkpt lat="45.9943871" lon="8.7217611"><ele>198.0</ele><time>2026-05-01T14:05:07.85Z</time></trkpt><trkpt lat="45.9943325" lon="8.7216627"><ele>198.2</ele><time>2026-05-01T14:05:08.85Z</time></trkpt><trkpt lat="45.9942692" lon="8.7215494"><ele>198.4</ele><time>2026-05-01T14:05:09.849Z</time></trkpt><trkpt lat="45.9942" lon="8.7214335"><ele>198.6</ele><time>2026-05-01T14:05:10.849Z</time></trkpt><trkpt lat="45.9941356" lon="8.7213128"><ele>198.79999999999998</ele><time>2026-05-01T14:05:11.849Z</time></trkpt><trkpt lat="45.9940689" lon="8.7211822"><ele>199.0</ele><time>2026-05-01T14:05:12.85Z</time></trkpt><trkpt lat="45.9940012" lon="8.7210535"><ele>198.5</ele><time>2026-05-01T14:05:13.85Z</time></trkpt><trkpt lat="45.9939277" lon="8.7209197"><ele>198.0</ele><time>2026-05-01T14:05:14.85Z</time></trkpt><trkpt lat="45.993849" lon="8.7207857"><ele>197.5</ele><time>2026-05-01T14:05:15.849Z</time></trkpt><trkpt lat="45.99377" lon="8.7206565"><ele>197.0</ele><time>2026-05-01T14:05:16.85Z</time></trkpt><trkpt lat="45.9936981" lon="8.7205424"><ele>197.0</ele><time>2026-05-01T14:05:17.85Z</time></trkpt><trkpt lat="45.9936255" lon="8.7204466"><ele>197.0</ele><time>2026-05-01T14:05:18.85Z</time></trkpt><trkpt lat="45.9935479" lon="8.720356"><ele>197.0</ele><time>2026-05-01T14:05:19.848Z</time></trkpt><trkpt lat="45.993473" lon="8.7202677"><ele>197.0</ele><time>2026-05-01T14:05:20.849Z</time></trkpt><trkpt lat="45.9933892" lon="8.7201851"><ele>197.0</ele><time>2026-05-01T14:05:21.849Z</time></trkpt><trkpt lat="45.9933039" lon="8.7200949"><ele>196.5</ele><time>2026-05-01T14:05:22.85Z</time></trkpt><trkpt lat="45.9931883" lon="8.7200122"><ele>196.0</ele><time>2026-05-01T14:05:23.848Z</time></trkpt><trkpt lat="45.9930653" lon="8.719939"><ele>195.5</ele><time>2026-05-01T14:05:24.848Z</time></trkpt><trkpt lat="45.9929029" lon="8.7198602"><ele>195.0</ele><time>2026-05-01T14:05:25.849Z</time></trkpt><trkpt lat="45.9927289" lon="8.7197677"><ele>195.0</ele><time>2026-05-01T14:05:26.848Z</time></trkpt><trkpt lat="45.9925249" lon="8.719658"><ele>195.0</ele><time>2026-05-01T14:05:27.849Z</time></trkpt><trkpt lat="45.9923221" lon="8.7195581"><ele>195.0</ele><time>2026-05-01T14:05:28.848Z</time></trkpt><trkpt lat="45.9921091" lon="8.7194424"><ele>194.33333333333331</ele><time>2026-05-01T14:05:29.849Z</time></trkpt><trkpt lat="45.9919006" lon="8.7193265"><ele>193.66666666666666</ele><time>2026-05-01T14:05:30.849Z</time></trkpt><trkpt lat="45.9917124" lon="8.7192039"><ele>193.0</ele><time>2026-05-01T14:05:31.849Z</time></trkpt><trkpt lat="45.9915273" lon="8.7190911"><ele>194.66666666666666</ele><time>2026-05-01T14:05:32.85Z</time></trkpt><trkpt lat="45.9913732" lon="8.7189846"><ele>196.33333333333331</ele><time>2026-05-01T14:05:33.85Z</time></trkpt><trkpt lat="45.9912228" lon="8.7188881"><ele>198.0</ele><time>2026-05-01T14:05:34.849Z</time></trkpt><trkpt lat="45.9910792" lon="8.7188037"><ele>198.0</ele><time>2026-05-01T14:05:35.849Z</time></trkpt><trkpt lat="45.9909577" lon="8.7187222"><ele>198.0</ele><time>2026-05-01T14:05:36.848Z</time></trkpt><trkpt lat="45.9908321" lon="8.7186272"><ele>198.0</ele><time>2026-05-01T14:05:37.849Z</time></trkpt><trkpt lat="45.9907114" lon="8.7185205"><ele>198.0</ele><time>2026-05-01T14:05:38.848Z</time></trkpt><trkpt lat="45.9905965" lon="8.7184031"><ele>196.75</ele><time>2026-05-01T14:05:39.849Z</time></trkpt><trkpt lat="45.9904892" lon="8.7182729"><ele>195.5</ele><time>2026-05-01T14:05:40.849Z</time></trkpt><trkpt lat="45.9903888" lon="8.7181286"><ele>194.25</ele><time>2026-05-01T14:05:41.848Z</time></trkpt><trkpt lat="45.9902945" lon="8.7179707"><ele>193.0</ele><time>2026-05-01T14:05:42.848Z</time></trkpt><trkpt lat="45.9902046" lon="8.7178051"><ele>192.66666666666666</ele><time>2026-05-01T14:05:43.85Z</time></trkpt><trkpt lat="45.9901258" lon="8.7176254"><ele>192.33333333333331</ele><time>2026-05-01T14:05:44.848Z</time></trkpt><trkpt lat="45.9900452" lon="8.7174403"><ele>192.0</ele><time>2026-05-01T14:05:45.849Z</time></trkpt><trkpt lat="45.9899671" lon="8.7172537"><ele>193.75</ele><time>2026-05-01T14:05:46.848Z</time></trkpt><trkpt lat="45.9898917" lon="8.7170586"><ele>195.5</ele><time>2026-05-01T14:05:47.85Z</time></trkpt><trkpt lat="45.9898193" lon="8.7168717"><ele>197.25</ele><time>2026-05-01T14:05:48.849Z</time></trkpt><trkpt lat="45.9897471" lon="8.7167022"><ele>199.0</ele><time>2026-05-01T14:05:49.849Z</time></trkpt><trkpt lat="45.9896811" lon="8.7165331"><ele>199.0</ele><time>2026-05-01T14:05:50.849Z</time></trkpt><trkpt lat="45.9896133" lon="8.7163638"><ele>199.0</ele><time>2026-05-01T14:05:51.849Z</time></trkpt><trkpt lat="45.9895478" lon="8.7162003"><ele>199.0</ele><time>2026-05-01T14:05:52.85Z</time></trkpt><trkpt lat="45.9894823" lon="8.7160281"><ele>199.0</ele><time>2026-05-01T14:05:53.849Z</time></trkpt><trkpt lat="45.9894167" lon="8.7158624"><ele>199.25</ele><time>2026-05-01T14:05:54.849Z</time></trkpt><trkpt lat="45.989354" lon="8.7156887"><ele>199.5</ele><time>2026-05-01T14:05:55.849Z</time></trkpt><trkpt lat="45.9892875" lon="8.7155197"><ele>199.75</ele><time>2026-05-01T14:05:56.849Z</time></trkpt><trkpt lat="45.9892241" lon="8.7153491"><ele>200.0</ele><time>2026-05-01T14:05:57.849Z</time></trkpt><trkpt lat="45.9891559" lon="8.7151797"><ele>200.0</ele><time>2026-05-01T14:05:58.849Z</time></trkpt><trkpt lat="45.9890893" lon="8.7150195"><ele>200.0</ele><time>2026-05-01T14:05:59.849Z</time></trkpt><trkpt lat="45.9890274" lon="8.7148649"><ele>200.0</ele><time>2026-05-01T14:06:00.849Z</time></trkpt><trkpt lat="45.9889682" lon="8.714716"><ele>200.0</ele><time>2026-05-01T14:06:01.849Z</time></trkpt><trkpt lat="45.9889135" lon="8.7145647"><ele>200.0</ele><time>2026-05-01T14:06:02.849Z</time></trkpt><trkpt lat="45.9888537" lon="8.7144166"><ele>200.0</ele><time>2026-05-01T14:06:03.849Z</time></trkpt><trkpt lat="45.9887936" lon="8.714267"><ele>200.0</ele><time>2026-05-01T14:06:04.849Z</time></trkpt><trkpt lat="45.9887348" lon="8.7141102"><ele>200.0</ele><time>2026-05-01T14:06:05.849Z</time></trkpt><trkpt lat="45.9886774" lon="8.713953"><ele>199.5</ele><time>2026-05-01T14:06:06.849Z</time></trkpt><trkpt lat="45.9886152" lon="8.7137951"><ele>199.0</ele><time>2026-05-01T14:06:07.849Z</time></trkpt><trkpt lat="45.9885551" lon="8.7136306"><ele>198.5</ele><time>2026-05-01T14:06:08.849Z</time></trkpt><trkpt lat="45.9884963" lon="8.7134645"><ele>198.0</ele><time>2026-05-01T14:06:09.849Z</time></trkpt><trkpt lat="45.988432" lon="8.7132989"><ele>197.25</ele><time>2026-05-01T14:06:10.849Z</time></trkpt><trkpt lat="45.9883702" lon="8.7131323"><ele>196.5</ele><time>2026-05-01T14:06:11.85Z</time></trkpt><trkpt lat="45.9883078" lon="8.7129762"><ele>195.75</ele><time>2026-05-01T14:06:12.849Z</time></trkpt><trkpt lat="45.9882468" lon="8.7128324"><ele>195.0</ele><time>2026-05-01T14:06:13.849Z</time></trkpt><trkpt lat="45.9881781" lon="8.7127069"><ele>197.2</ele><time>2026-05-01T14:06:14.849Z</time></trkpt><trkpt lat="45.9881039" lon="8.7125898"><ele>199.4</ele><time>2026-05-01T14:06:15.849Z</time></trkpt><trkpt lat="45.9880229" lon="8.7124889"><ele>201.60000000000002</ele><time>2026-05-01T14:06:16.849Z</time></trkpt><trkpt lat="45.9879332" lon="8.71241"><ele>203.8</ele><time>2026-05-01T14:06:17.849Z</time></trkpt><trkpt lat="45.9878391" lon="8.7123516"><ele>206.0</ele><time>2026-05-01T14:06:18.849Z</time></trkpt><trkpt lat="45.9877402" lon="8.7123122"><ele>206.0</ele><time>2026-05-01T14:06:19.849Z</time></trkpt><trkpt lat="45.987637" lon="8.7122961"><ele>206.0</ele><time>2026-05-01T14:06:20.849Z</time></trkpt><trkpt lat="45.9875276" lon="8.7122796"><ele>206.0</ele><time>2026-05-01T14:06:21.847Z</time></trkpt><trkpt lat="45.9874169" lon="8.7122763"><ele>206.0</ele><time>2026-05-01T14:06:22.849Z</time></trkpt><trkpt lat="45.9873013" lon="8.7122626"><ele>206.0</ele><time>2026-05-01T14:06:23.847Z</time></trkpt><trkpt lat="45.9871881" lon="8.7122509"><ele>207.8</ele><time>2026-05-01T14:06:24.849Z</time></trkpt><trkpt lat="45.9870819" lon="8.712237"><ele>209.60000000000002</ele><time>2026-05-01T14:06:25.848Z</time></trkpt><trkpt lat="45.9869821" lon="8.7122224"><ele>211.4</ele><time>2026-05-01T14:06:26.849Z</time></trkpt><trkpt lat="45.9868824" lon="8.7122054"><ele>213.2</ele><time>2026-05-01T14:06:27.848Z</time></trkpt><trkpt lat="45.9867833" lon="8.7121835"><ele>215.0</ele><time>2026-05-01T14:06:28.849Z</time></trkpt><trkpt lat="45.9866887" lon="8.7121641"><ele>219.6</ele><time>2026-05-01T14:06:29.849Z</time></trkpt><trkpt lat="45.9865863" lon="8.7121407"><ele>224.2</ele><time>2026-05-01T14:06:30.848Z</time></trkpt><trkpt lat="45.9864871" lon="8.7121309"><ele>228.8</ele><time>2026-05-01T14:06:31.849Z</time></trkpt><trkpt lat="45.9863911" lon="8.7121362"><ele>233.4</ele><time>2026-05-01T14:06:32.85Z</time></trkpt><trkpt lat="45.9862971" lon="8.7121635"><ele>238.0</ele><time>2026-05-01T14:06:33.849Z</time></trkpt><trkpt lat="45.9862026" lon="8.7122083"><ele>238.0</ele><time>2026-05-01T14:06:34.849Z</time></trkpt><trkpt lat="45.986112" lon="8.7122484"><ele>238.0</ele><time>2026-05-01T14:06:35.849Z</time></trkpt><trkpt lat="45.9860079" lon="8.7123002"><ele>238.0</ele><time>2026-05-01T14:06:36.851Z</time></trkpt><trkpt lat="45.9859006" lon="8.7123401"><ele>238.0</ele><time>2026-05-01T14:06:37.849Z</time></trkpt><trkpt lat="45.9857935" lon="8.7123846"><ele>238.0</ele><time>2026-05-01T14:06:38.852Z</time></trkpt><trkpt lat="45.9856951" lon="8.7124318"><ele>237.2</ele><time>2026-05-01T14:06:39.848Z</time></trkpt><trkpt lat="45.9855993" lon="8.7124746"><ele>236.4</ele><time>2026-05-01T14:06:40.85Z</time></trkpt><trkpt lat="45.9855066" lon="8.7125074"><ele>235.59999999999997</ele><time>2026-05-01T14:06:41.849Z</time></trkpt><trkpt lat="45.9854055" lon="8.7125318"><ele>234.79999999999998</ele><time>2026-05-01T14:06:42.848Z</time></trkpt><trkpt lat="45.9853023" lon="8.7125428"><ele>234.0</ele><time>2026-05-01T14:06:43.849Z</time></trkpt><trkpt lat="45.9851926" lon="8.712546"><ele>234.0</ele><time>2026-05-01T14:06:44.849Z</time></trkpt><trkpt lat="45.9850736" lon="8.7125412"><ele>234.0</ele><time>2026-05-01T14:06:45.848Z</time></trkpt><trkpt lat="45.9849492" lon="8.712542"><ele>234.0</ele><time>2026-05-01T14:06:46.847Z</time></trkpt><trkpt lat="45.9848131" lon="8.7125334"><ele>234.0</ele><time>2026-05-01T14:06:47.849Z</time></trkpt><trkpt lat="45.984682" lon="8.7125267"><ele>232.25</ele><time>2026-05-01T14:06:48.849Z</time></trkpt><trkpt lat="45.9845492" lon="8.7125233"><ele>230.5</ele><time>2026-05-01T14:06:49.85Z</time></trkpt><trkpt lat="45.9844259" lon="8.7125252"><ele>228.75</ele><time>2026-05-01T14:06:50.85Z</time></trkpt><trkpt lat="45.9843061" lon="8.7125503"><ele>227.0</ele><time>2026-05-01T14:06:51.849Z</time></trkpt><trkpt lat="45.9841797" lon="8.7125397"><ele>225.25</ele><time>2026-05-01T14:06:52.85Z</time></trkpt><trkpt lat="45.9840555" lon="8.7125232"><ele>223.5</ele><time>2026-05-01T14:06:53.849Z</time></trkpt><trkpt lat="45.9839256" lon="8.7124813"><ele>221.75</ele><time>2026-05-01T14:06:54.85Z</time></trkpt><trkpt lat="45.9837933" lon="8.7124278"><ele>220.0</ele><time>2026-05-01T14:06:55.849Z</time></trkpt><trkpt lat="45.983648" lon="8.7123553"><ele>220.0</ele><time>2026-05-01T14:06:56.849Z</time></trkpt><trkpt lat="45.9835067" lon="8.7122925"><ele>220.0</ele><time>2026-05-01T14:06:57.848Z</time></trkpt><trkpt lat="45.9833616" lon="8.7122167"><ele>220.0</ele><time>2026-05-01T14:06:58.848Z</time></trkpt><trkpt lat="45.9832224" lon="8.7121355"><ele>221.75</ele><time>2026-05-01T14:06:59.849Z</time></trkpt><trkpt lat="45.9830922" lon="8.7120747"><ele>223.5</ele><time>2026-05-01T14:07:00.849Z</time></trkpt><trkpt lat="45.9829677" lon="8.7120161"><ele>225.25</ele><time>2026-05-01T14:07:01.849Z</time></trkpt><trkpt lat="45.9828473" lon="8.7119506"><ele>227.0</ele><time>2026-05-01T14:07:02.848Z</time></trkpt><trkpt lat="45.982737" lon="8.7118925"><ele>224.25</ele><time>2026-05-01T14:07:03.849Z</time></trkpt><trkpt lat="45.9826169" lon="8.7118307"><ele>221.5</ele><time>2026-05-01T14:07:04.849Z</time></trkpt><trkpt lat="45.982503" lon="8.711772"><ele>218.75</ele><time>2026-05-01T14:07:05.849Z</time></trkpt><trkpt lat="45.9823909" lon="8.7117165"><ele>216.0</ele><time>2026-05-01T14:07:06.848Z</time></trkpt><trkpt lat="45.9822774" lon="8.7116484"><ele>216.0</ele><time>2026-05-01T14:07:07.849Z</time></trkpt><trkpt lat="45.9821694" lon="8.7115744"><ele>216.00000000000003</ele><time>2026-05-01T14:07:08.85Z</time></trkpt><trkpt lat="45.9820659" lon="8.7115033"><ele>216.00000000000003</ele><time>2026-05-01T14:07:09.85Z</time></trkpt><trkpt lat="45.9819748" lon="8.7114437"><ele>216.0</ele><time>2026-05-01T14:07:10.849Z</time></trkpt><trkpt lat="45.9818791" lon="8.7113785"><ele>216.0</ele><time>2026-05-01T14:07:11.849Z</time></trkpt><trkpt lat="45.981782" lon="8.7113218"><ele>216.0</ele><time>2026-05-01T14:07:12.851Z</time></trkpt><trkpt lat="45.9816837" lon="8.7112749"><ele>216.00000000000003</ele><time>2026-05-01T14:07:13.849Z</time></trkpt><trkpt lat="45.9815839" lon="8.711235"><ele>216.00000000000003</ele><time>2026-05-01T14:07:14.849Z</time></trkpt><trkpt lat="45.9814916" lon="8.7112301"><ele>216.0</ele><time>2026-05-01T14:07:15.849Z</time></trkpt><trkpt lat="45.9814002" lon="8.7112248"><ele>216.0</ele><time>2026-05-01T14:07:16.848Z</time></trkpt><trkpt lat="45.9813107" lon="8.7112231"><ele>219.4</ele><time>2026-05-01T14:07:17.849Z</time></trkpt><trkpt lat="45.9812169" lon="8.711224"><ele>222.8</ele><time>2026-05-01T14:07:18.848Z</time></trkpt><trkpt lat="45.9811155" lon="8.711218"><ele>226.20000000000002</ele><time>2026-05-01T14:07:19.849Z</time></trkpt><trkpt lat="45.9810023" lon="8.7111971"><ele>229.60000000000002</ele><time>2026-05-01T14:07:20.848Z</time></trkpt><trkpt lat="45.9808884" lon="8.7111705"><ele>233.0</ele><time>2026-05-01T14:07:21.848Z</time></trkpt><trkpt lat="45.9807567" lon="8.7111104"><ele>225.0</ele><time>2026-05-01T14:07:22.849Z</time></trkpt><trkpt lat="45.9806283" lon="8.7110491"><ele>217.0</ele><time>2026-05-01T14:07:23.848Z</time></trkpt><trkpt lat="45.9804997" lon="8.7109854"><ele>209.0</ele><time>2026-05-01T14:07:24.849Z</time></trkpt><trkpt lat="45.9803748" lon="8.7109151"><ele>201.0</ele><time>2026-05-01T14:07:25.849Z</time></trkpt><trkpt lat="45.9802548" lon="8.7108444"><ele>201.0</ele><time>2026-05-01T14:07:26.849Z</time></trkpt><trkpt lat="45.9801337" lon="8.7107773"><ele>201.0</ele><time>2026-05-01T14:07:27.85Z</time></trkpt><trkpt lat="45.9800122" lon="8.7107048"><ele>201.0</ele><time>2026-05-01T14:07:28.848Z</time></trkpt><trkpt lat="45.9798907" lon="8.7106279"><ele>201.0</ele><time>2026-05-01T14:07:29.85Z</time></trkpt><trkpt lat="45.979756" lon="8.7105575"><ele>202.25</ele><time>2026-05-01T14:07:30.849Z</time></trkpt><trkpt lat="45.9796154" lon="8.7104896"><ele>203.5</ele><time>2026-05-01T14:07:31.85Z</time></trkpt><trkpt lat="45.9794803" lon="8.7104211"><ele>204.75</ele><time>2026-05-01T14:07:32.849Z</time></trkpt><trkpt lat="45.97936" lon="8.7103448"><ele>206.0</ele><time>2026-05-01T14:07:33.849Z</time></trkpt><trkpt lat="45.9792491" lon="8.7102753"><ele>205.0</ele><time>2026-05-01T14:07:34.849Z</time></trkpt><trkpt lat="45.9791383" lon="8.7102053"><ele>204.0</ele><time>2026-05-01T14:07:35.849Z</time></trkpt><trkpt lat="45.9790401" lon="8.7101197"><ele>203.0</ele><time>2026-05-01T14:07:36.849Z</time></trkpt><trkpt lat="45.9789491" lon="8.7100106"><ele>202.0</ele><time>2026-05-01T14:07:37.849Z</time></trkpt><trkpt lat="45.9788654" lon="8.7098778"><ele>202.0</ele><time>2026-05-01T14:07:38.849Z</time></trkpt><trkpt lat="45.9787916" lon="8.7097285"><ele>202.0</ele><time>2026-05-01T14:07:39.849Z</time></trkpt><trkpt lat="45.9787249" lon="8.7095755"><ele>202.0</ele><time>2026-05-01T14:07:40.849Z</time></trkpt><trkpt lat="45.9786582" lon="8.7094327"><ele>202.0</ele><time>2026-05-01T14:07:41.85Z</time></trkpt><trkpt lat="45.9785837" lon="8.7092907"><ele>202.75</ele><time>2026-05-01T14:07:42.849Z</time></trkpt><trkpt lat="45.9785083" lon="8.7091447"><ele>203.5</ele><time>2026-05-01T14:07:43.85Z</time></trkpt><trkpt lat="45.9784376" lon="8.7089952"><ele>204.25</ele><time>2026-05-01T14:07:44.849Z</time></trkpt><trkpt lat="45.9783675" lon="8.7088538"><ele>205.0</ele><time>2026-05-01T14:07:45.848Z</time></trkpt><trkpt lat="45.9783032" lon="8.7087166"><ele>205.0</ele><time>2026-05-01T14:07:46.849Z</time></trkpt><trkpt lat="45.9782346" lon="8.708589"><ele>205.0</ele><time>2026-05-01T14:07:47.848Z</time></trkpt><trkpt lat="45.9781565" lon="8.7084705"><ele>205.0</ele><time>2026-05-01T14:07:48.848Z</time></trkpt><trkpt lat="45.9780657" lon="8.708369"><ele>205.0</ele><time>2026-05-01T14:07:49.849Z</time></trkpt><trkpt lat="45.9779718" lon="8.7082646"><ele>203.0</ele><time>2026-05-01T14:07:50.849Z</time></trkpt><trkpt lat="45.9778702" lon="8.7081557"><ele>201.0</ele><time>2026-05-01T14:07:51.849Z</time></trkpt><trkpt lat="45.9777635" lon="8.7080517"><ele>199.0</ele><time>2026-05-01T14:07:52.849Z</time></trkpt><trkpt lat="45.9776533" lon="8.7079399"><ele>197.0</ele><time>2026-05-01T14:07:53.849Z</time></trkpt><trkpt lat="45.9775411" lon="8.7078273"><ele>197.25</ele><time>2026-05-01T14:07:54.85Z</time></trkpt><trkpt lat="45.97743" lon="8.7077255"><ele>197.5</ele><time>2026-05-01T14:07:55.849Z</time></trkpt><trkpt lat="45.9773228" lon="8.7076138"><ele>197.75</ele><time>2026-05-01T14:07:56.849Z</time></trkpt><trkpt lat="45.9772263" lon="8.7074837"><ele>198.0</ele><time>2026-05-01T14:07:57.849Z</time></trkpt><trkpt lat="45.9771375" lon="8.7073685"><ele>198.0</ele><time>2026-05-01T14:07:58.85Z</time></trkpt><trkpt lat="45.9770622" lon="8.7072604"><ele>198.0</ele><time>2026-05-01T14:07:59.849Z</time></trkpt><trkpt lat="45.9769847" lon="8.7071508"><ele>198.0</ele><time>2026-05-01T14:08:00.849Z</time></trkpt><trkpt lat="45.9769052" lon="8.707032"><ele>198.0</ele><time>2026-05-01T14:08:01.849Z</time></trkpt><trkpt lat="45.9768231" lon="8.7069054"><ele>198.75</ele><time>2026-05-01T14:08:02.849Z</time></trkpt><trkpt lat="45.9767366" lon="8.706779"><ele>199.5</ele><time>2026-05-01T14:08:03.848Z</time></trkpt><trkpt lat="45.9766397" lon="8.7066638"><ele>200.25</ele><time>2026-05-01T14:08:04.849Z</time></trkpt><trkpt lat="45.9765427" lon="8.7065487"><ele>201.0</ele><time>2026-05-01T14:08:05.849Z</time></trkpt><trkpt lat="45.9764387" lon="8.7064287"><ele>201.0</ele><time>2026-05-01T14:08:06.85Z</time></trkpt><trkpt lat="45.9763421" lon="8.7063219"><ele>201.0</ele><time>2026-05-01T14:08:07.849Z</time></trkpt><trkpt lat="45.9762481" lon="8.7062247"><ele>201.0</ele><time>2026-05-01T14:08:08.848Z</time></trkpt><trkpt lat="45.9761501" lon="8.7061392"><ele>201.0</ele><time>2026-05-01T14:08:09.849Z</time></trkpt><trkpt lat="45.9760497" lon="8.706055"><ele>201.25</ele><time>2026-05-01T14:08:10.849Z</time></trkpt><trkpt lat="45.9759446" lon="8.7059747"><ele>201.5</ele><time>2026-05-01T14:08:11.849Z</time></trkpt><trkpt lat="45.97584" lon="8.7058902"><ele>201.75</ele><time>2026-05-01T14:08:12.849Z</time></trkpt><trkpt lat="45.9757288" lon="8.7058064"><ele>202.0</ele><time>2026-05-01T14:08:13.849Z</time></trkpt><trkpt lat="45.9756185" lon="8.7057134"><ele>202.0</ele><time>2026-05-01T14:08:14.849Z</time></trkpt><trkpt lat="45.9755064" lon="8.7056117"><ele>202.0</ele><time>2026-05-01T14:08:15.849Z</time></trkpt><trkpt lat="45.9753995" lon="8.7054927"><ele>202.0</ele><time>2026-05-01T14:08:16.849Z</time></trkpt><trkpt lat="45.9752995" lon="8.7053608"><ele>202.0</ele><time>2026-05-01T14:08:17.849Z</time></trkpt><trkpt lat="45.9752083" lon="8.7052117"><ele>203.25</ele><time>2026-05-01T14:08:18.849Z</time></trkpt><trkpt lat="45.9751179" lon="8.7050562"><ele>204.5</ele><time>2026-05-01T14:08:19.849Z</time></trkpt><trkpt lat="45.9750331" lon="8.7049029"><ele>205.75</ele><time>2026-05-01T14:08:20.849Z</time></trkpt><trkpt lat="45.9749496" lon="8.7047548"><ele>207.0</ele><time>2026-05-01T14:08:21.848Z</time></trkpt><trkpt lat="45.9748688" lon="8.7046035"><ele>207.0</ele><time>2026-05-01T14:08:22.849Z</time></trkpt><trkpt lat="45.9747878" lon="8.7044548"><ele>207.0</ele><time>2026-05-01T14:08:23.849Z</time></trkpt><trkpt lat="45.9747009" lon="8.7042954"><ele>207.0</ele><time>2026-05-01T14:08:24.848Z</time></trkpt><trkpt lat="45.9746083" lon="8.704146"><ele>207.0</ele><time>2026-05-01T14:08:25.848Z</time></trkpt><trkpt lat="45.9745229" lon="8.703991"><ele>207.25</ele><time>2026-05-01T14:08:26.849Z</time></trkpt><trkpt lat="45.9744317" lon="8.7038407"><ele>207.5</ele><time>2026-05-01T14:08:27.849Z</time></trkpt><trkpt lat="45.9743407" lon="8.7036859"><ele>207.75</ele><time>2026-05-01T14:08:28.849Z</time></trkpt><trkpt lat="45.9742534" lon="8.7035305"><ele>208.0</ele><time>2026-05-01T14:08:29.85Z</time></trkpt><trkpt lat="45.974177" lon="8.7033694"><ele>208.0</ele><time>2026-05-01T14:08:30.849Z</time></trkpt><trkpt lat="45.9741081" lon="8.7032073"><ele>208.0</ele><time>2026-05-01T14:08:31.849Z</time></trkpt><trkpt lat="45.9740458" lon="8.7030507"><ele>208.0</ele><time>2026-05-01T14:08:32.847Z</time></trkpt><trkpt lat="45.9739847" lon="8.7029069"><ele>208.0</ele><time>2026-05-01T14:08:33.849Z</time></trkpt><trkpt lat="45.9739296" lon="8.7027733"><ele>206.60000000000002</ele><time>2026-05-01T14:08:34.85Z</time></trkpt><trkpt lat="45.9738779" lon="8.7026418"><ele>205.20000000000002</ele><time>2026-05-01T14:08:35.849Z</time></trkpt><trkpt lat="45.9738203" lon="8.7025143"><ele>203.8</ele><time>2026-05-01T14:08:36.848Z</time></trkpt><trkpt lat="45.9737549" lon="8.7023773"><ele>202.4</ele><time>2026-05-01T14:08:37.848Z</time></trkpt><trkpt lat="45.9736857" lon="8.7022408"><ele>201.0</ele><time>2026-05-01T14:08:38.848Z</time></trkpt><trkpt lat="45.9736118" lon="8.7021036"><ele>201.0</ele><time>2026-05-01T14:08:39.848Z</time></trkpt><trkpt lat="45.973535" lon="8.7019568"><ele>201.0</ele><time>2026-05-01T14:08:40.848Z</time></trkpt><trkpt lat="45.9734571" lon="8.7018094"><ele>201.0</ele><time>2026-05-01T14:08:41.848Z</time></trkpt><trkpt lat="45.9733757" lon="8.7016605"><ele>201.0</ele><time>2026-05-01T14:08:42.849Z</time></trkpt><trkpt lat="45.973289" lon="8.7015128"><ele>202.0</ele><time>2026-05-01T14:08:43.849Z</time></trkpt><trkpt lat="45.9731998" lon="8.7013731"><ele>203.0</ele><time>2026-05-01T14:08:44.85Z</time></trkpt><trkpt lat="45.9730979" lon="8.7012344"><ele>204.0</ele><time>2026-05-01T14:08:45.849Z</time></trkpt><trkpt lat="45.9729956" lon="8.7011012"><ele>205.0</ele><time>2026-05-01T14:08:46.849Z</time></trkpt><trkpt lat="45.9728921" lon="8.700965"><ele>205.0</ele><time>2026-05-01T14:08:47.849Z</time></trkpt><trkpt lat="45.9727911" lon="8.7008324"><ele>205.0</ele><time>2026-05-01T14:08:48.849Z</time></trkpt><trkpt lat="45.9726908" lon="8.7006968"><ele>205.0</ele><time>2026-05-01T14:08:49.849Z</time></trkpt><trkpt lat="45.9725906" lon="8.7005584"><ele>205.0</ele><time>2026-05-01T14:08:50.851Z</time></trkpt><trkpt lat="45.9724952" lon="8.7004143"><ele>205.0</ele><time>2026-05-01T14:08:51.848Z</time></trkpt><trkpt lat="45.9723922" lon="8.700276"><ele>205.0</ele><time>2026-05-01T14:08:52.849Z</time></trkpt><trkpt lat="45.9722949" lon="8.700137"><ele>205.0</ele><time>2026-05-01T14:08:53.85Z</time></trkpt><trkpt lat="45.9721936" lon="8.6999976"><ele>205.0</ele><time>2026-05-01T14:08:54.849Z</time></trkpt><trkpt lat="45.9720929" lon="8.6998607"><ele>203.25</ele><time>2026-05-01T14:08:55.848Z</time></trkpt><trkpt lat="45.9719969" lon="8.6997178"><ele>201.5</ele><time>2026-05-01T14:08:56.849Z</time></trkpt><trkpt lat="45.9718981" lon="8.6995721"><ele>199.75</ele><time>2026-05-01T14:08:57.849Z</time></trkpt><trkpt lat="45.9718044" lon="8.6994288"><ele>198.0</ele><time>2026-05-01T14:08:58.849Z</time></trkpt><trkpt lat="45.9717001" lon="8.6992827"><ele>199.75</ele><time>2026-05-01T14:08:59.849Z</time></trkpt><trkpt lat="45.9715991" lon="8.6991313"><ele>201.5</ele><time>2026-05-01T14:09:00.849Z</time></trkpt><trkpt lat="45.9714958" lon="8.6989826"><ele>203.25</ele><time>2026-05-01T14:09:01.848Z</time></trkpt><trkpt lat="45.9713932" lon="8.6988281"><ele>205.0</ele><time>2026-05-01T14:09:02.848Z</time></trkpt><trkpt lat="45.9712914" lon="8.6986761"><ele>203.0</ele><time>2026-05-01T14:09:03.85Z</time></trkpt><trkpt lat="45.9711925" lon="8.6985026"><ele>201.0</ele><time>2026-05-01T14:09:04.849Z</time></trkpt><trkpt lat="45.9711006" lon="8.6983206"><ele>199.0</ele><time>2026-05-01T14:09:05.849Z</time></trkpt><trkpt lat="45.9710074" lon="8.698139"><ele>199.0</ele><time>2026-05-01T14:09:06.849Z</time></trkpt><trkpt lat="45.9709081" lon="8.6979543"><ele>199.0</ele><time>2026-05-01T14:09:07.848Z</time></trkpt><trkpt lat="45.9708079" lon="8.6977728"><ele>199.0</ele><time>2026-05-01T14:09:08.847Z</time></trkpt><trkpt lat="45.9707062" lon="8.6975937"><ele>200.0</ele><time>2026-05-01T14:09:09.85Z</time></trkpt><trkpt lat="45.970595" lon="8.6974232"><ele>201.0</ele><time>2026-05-01T14:09:10.849Z</time></trkpt><trkpt lat="45.9704763" lon="8.6972551"><ele>202.0</ele><time>2026-05-01T14:09:11.848Z</time></trkpt><trkpt lat="45.9703581" lon="8.6970887"><ele>202.0</ele><time>2026-05-01T14:09:12.849Z</time></trkpt><trkpt lat="45.9702376" lon="8.6969194"><ele>202.0</ele><time>2026-05-01T14:09:13.849Z</time></trkpt><trkpt lat="45.9701133" lon="8.6967602"><ele>202.0</ele><time>2026-05-01T14:09:14.849Z</time></trkpt><trkpt lat="45.969996" lon="8.6966011"><ele>203.66666666666666</ele><time>2026-05-01T14:09:15.849Z</time></trkpt><trkpt lat="45.9698787" lon="8.6964429"><ele>205.33333333333331</ele><time>2026-05-01T14:09:16.849Z</time></trkpt><trkpt lat="45.9697537" lon="8.6962964"><ele>207.0</ele><time>2026-05-01T14:09:17.849Z</time></trkpt><trkpt lat="45.9696234" lon="8.6961542"><ele>203.66666666666669</ele><time>2026-05-01T14:09:18.848Z</time></trkpt><trkpt lat="45.9694904" lon="8.6960151"><ele>200.33333333333334</ele><time>2026-05-01T14:09:19.849Z</time></trkpt><trkpt lat="45.9693603" lon="8.695873"><ele>197.0</ele><time>2026-05-01T14:09:20.849Z</time></trkpt><trkpt lat="45.9692262" lon="8.6957337"><ele>202.0</ele><time>2026-05-01T14:09:21.849Z</time></trkpt><trkpt lat="45.9690928" lon="8.6955878"><ele>207.0</ele><time>2026-05-01T14:09:22.849Z</time></trkpt><trkpt lat="45.9689607" lon="8.6954418"><ele>212.0</ele><time>2026-05-01T14:09:23.849Z</time></trkpt><trkpt lat="45.9688226" lon="8.6952979"><ele>207.33333333333334</ele><time>2026-05-01T14:09:24.849Z</time></trkpt><trkpt lat="45.9686929" lon="8.6951456"><ele>202.66666666666669</ele><time>2026-05-01T14:09:25.849Z</time></trkpt><trkpt lat="45.9685687" lon="8.6949814"><ele>198.0</ele><time>2026-05-01T14:09:26.849Z</time></trkpt><trkpt lat="45.9684467" lon="8.6948104"><ele>201.0</ele><time>2026-05-01T14:09:27.849Z</time></trkpt><trkpt lat="45.9683369" lon="8.6946263"><ele>204.0</ele><time>2026-05-01T14:09:28.849Z</time></trkpt><trkpt lat="45.9682278" lon="8.6944388"><ele>207.0</ele><time>2026-05-01T14:09:29.849Z</time></trkpt><trkpt lat="45.968121" lon="8.6942502"><ele>207.0</ele><time>2026-05-01T14:09:30.848Z</time></trkpt><trkpt lat="45.9680129" lon="8.6940608"><ele>207.0</ele><time>2026-05-01T14:09:31.848Z</time></trkpt><trkpt lat="45.9679065" lon="8.6938604"><ele>207.0</ele><time>2026-05-01T14:09:32.849Z</time></trkpt><trkpt lat="45.9677926" lon="8.6936552"><ele>204.0</ele><time>2026-05-01T14:09:33.849Z</time></trkpt><trkpt lat="45.9676821" lon="8.6934512"><ele>201.0</ele><time>2026-05-01T14:09:34.849Z</time></trkpt><trkpt lat="45.9675763" lon="8.6932525"><ele>198.0</ele><time>2026-05-01T14:09:35.849Z</time></trkpt><trkpt lat="45.967473" lon="8.6930582"><ele>200.0</ele><time>2026-05-01T14:09:36.849Z</time></trkpt><trkpt lat="45.9673779" lon="8.6928678"><ele>202.0</ele><time>2026-05-01T14:09:37.849Z</time></trkpt><trkpt lat="45.9672854" lon="8.6926777"><ele>204.0</ele><time>2026-05-01T14:09:38.849Z</time></trkpt><trkpt lat="45.9671985" lon="8.692492"><ele>204.0</ele><time>2026-05-01T14:09:39.848Z</time></trkpt><trkpt lat="45.9671152" lon="8.6922948"><ele>204.0</ele><time>2026-05-01T14:09:40.849Z</time></trkpt><trkpt lat="45.9670338" lon="8.6921019"><ele>204.0</ele><time>2026-05-01T14:09:41.849Z</time></trkpt><trkpt lat="45.9669599" lon="8.6919104"><ele>201.0</ele><time>2026-05-01T14:09:42.849Z</time></trkpt><trkpt lat="45.9668844" lon="8.6917166"><ele>198.0</ele><time>2026-05-01T14:09:43.848Z</time></trkpt><trkpt lat="45.966809" lon="8.6915252"><ele>195.0</ele><time>2026-05-01T14:09:44.849Z</time></trkpt><trkpt lat="45.9667356" lon="8.6913347"><ele>198.33333333333331</ele><time>2026-05-01T14:09:45.849Z</time></trkpt><trkpt lat="45.9666588" lon="8.6911339"><ele>201.66666666666666</ele><time>2026-05-01T14:09:46.848Z</time></trkpt><trkpt lat="45.9665821" lon="8.6909381"><ele>205.0</ele><time>2026-05-01T14:09:47.849Z</time></trkpt><trkpt lat="45.9665074" lon="8.6907387"><ele>205.0</ele><time>2026-05-01T14:09:48.849Z</time></trkpt><trkpt lat="45.966433" lon="8.690536"><ele>205.0</ele><time>2026-05-01T14:09:49.849Z</time></trkpt><trkpt lat="45.9663577" lon="8.6903332"><ele>205.0</ele><time>2026-05-01T14:09:50.849Z</time></trkpt><trkpt lat="45.9662844" lon="8.6901323"><ele>202.0</ele><time>2026-05-01T14:09:51.849Z</time></trkpt><trkpt lat="45.9662092" lon="8.6899359"><ele>199.0</ele><time>2026-05-01T14:09:52.849Z</time></trkpt><trkpt lat="45.966136" lon="8.6897394"><ele>196.0</ele><time>2026-05-01T14:09:53.848Z</time></trkpt><trkpt lat="45.9660625" lon="8.6895419"><ele>195.5</ele><time>2026-05-01T14:09:54.849Z</time></trkpt><trkpt lat="45.9659916" lon="8.6893475"><ele>195.0</ele><time>2026-05-01T14:09:55.849Z</time></trkpt><trkpt lat="45.9659228" lon="8.6891557"><ele>194.5</ele><time>2026-05-01T14:09:56.849Z</time></trkpt><trkpt lat="45.9658474" lon="8.688982"><ele>194.0</ele><time>2026-05-01T14:09:57.849Z</time></trkpt><trkpt lat="45.9657696" lon="8.6888057"><ele>195.75</ele><time>2026-05-01T14:09:58.849Z</time></trkpt><trkpt lat="45.9656742" lon="8.6886591"><ele>197.5</ele><time>2026-05-01T14:09:59.849Z</time></trkpt><trkpt lat="45.9655694" lon="8.6885209"><ele>199.25</ele><time>2026-05-01T14:10:00.848Z</time></trkpt><trkpt lat="45.9654623" lon="8.6883907"><ele>201.0</ele><time>2026-05-01T14:10:01.849Z</time></trkpt><trkpt lat="45.9653525" lon="8.6882667"><ele>201.0</ele><time>2026-05-01T14:10:02.849Z</time></trkpt><trkpt lat="45.9652421" lon="8.6881403"><ele>201.0</ele><time>2026-05-01T14:10:03.849Z</time></trkpt><trkpt lat="45.9651303" lon="8.6880115"><ele>201.0</ele><time>2026-05-01T14:10:04.849Z</time></trkpt><trkpt lat="45.9650179" lon="8.6878817"><ele>201.0</ele><time>2026-05-01T14:10:05.849Z</time></trkpt><trkpt lat="45.9649028" lon="8.6877492"><ele>201.66666666666669</ele><time>2026-05-01T14:10:06.849Z</time></trkpt><trkpt lat="45.964782" lon="8.6876233"><ele>202.33333333333334</ele><time>2026-05-01T14:10:07.848Z</time></trkpt><trkpt lat="45.9646631" lon="8.6874813"><ele>203.0</ele><time>2026-05-01T14:10:08.848Z</time></trkpt><trkpt lat="45.9645425" lon="8.6873412"><ele>203.0</ele><time>2026-05-01T14:10:09.849Z</time></trkpt><trkpt lat="45.9644251" lon="8.6872001"><ele>203.0</ele><time>2026-05-01T14:10:10.848Z</time></trkpt><trkpt lat="45.9643026" lon="8.6870653"><ele>203.0</ele><time>2026-05-01T14:10:11.849Z</time></trkpt><trkpt lat="45.9641864" lon="8.6869432"><ele>204.25</ele><time>2026-05-01T14:10:12.848Z</time></trkpt><trkpt lat="45.9640669" lon="8.6868286"><ele>205.5</ele><time>2026-05-01T14:10:13.849Z</time></trkpt><trkpt lat="45.9639547" lon="8.6867156"><ele>206.75</ele><time>2026-05-01T14:10:14.849Z</time></trkpt><trkpt lat="45.9638373" lon="8.6866074"><ele>208.0</ele><time>2026-05-01T14:10:15.849Z</time></trkpt><trkpt lat="45.9637149" lon="8.686504"><ele>208.0</ele><time>2026-05-01T14:10:16.849Z</time></trkpt><trkpt lat="45.9635995" lon="8.6863996"><ele>208.0</ele><time>2026-05-01T14:10:17.848Z</time></trkpt><trkpt lat="45.9634911" lon="8.6862876"><ele>208.0</ele><time>2026-05-01T14:10:18.849Z</time></trkpt><trkpt lat="45.9633802" lon="8.6861795"><ele>208.0</ele><time>2026-05-01T14:10:19.848Z</time></trkpt><trkpt lat="45.9632665" lon="8.6860654"><ele>207.75</ele><time>2026-05-01T14:10:20.848Z</time></trkpt><trkpt lat="45.9631583" lon="8.6859365"><ele>207.5</ele><time>2026-05-01T14:10:21.849Z</time></trkpt><trkpt lat="45.9630558" lon="8.6857942"><ele>207.25</ele><time>2026-05-01T14:10:22.848Z</time></trkpt><trkpt lat="45.9629622" lon="8.6856441"><ele>207.0</ele><time>2026-05-01T14:10:23.849Z</time></trkpt><trkpt lat="45.9628784" lon="8.6854843"><ele>207.0</ele><time>2026-05-01T14:10:24.849Z</time></trkpt><trkpt lat="45.9628079" lon="8.6853234"><ele>207.0</ele><time>2026-05-01T14:10:25.849Z</time></trkpt><trkpt lat="45.9627448" lon="8.6851693"><ele>207.0</ele><time>2026-05-01T14:10:26.849Z</time></trkpt><trkpt lat="45.9626912" lon="8.6850066"><ele>207.0</ele><time>2026-05-01T14:10:27.848Z</time></trkpt><trkpt lat="45.9626375" lon="8.684845"><ele>207.25</ele><time>2026-05-01T14:10:28.849Z</time></trkpt><trkpt lat="45.9625944" lon="8.6846578"><ele>207.5</ele><time>2026-05-01T14:10:29.849Z</time></trkpt><trkpt lat="45.9625551" lon="8.6844623"><ele>207.75</ele><time>2026-05-01T14:10:30.849Z</time></trkpt><trkpt lat="45.9625222" lon="8.6842752"><ele>208.0</ele><time>2026-05-01T14:10:31.849Z</time></trkpt><trkpt lat="45.9624923" lon="8.6840934"><ele>208.0</ele><time>2026-05-01T14:10:32.849Z</time></trkpt><trkpt lat="45.9624726" lon="8.6839227"><ele>208.0</ele><time>2026-05-01T14:10:33.848Z</time></trkpt><trkpt lat="45.9624665" lon="8.6837511"><ele>208.0</ele><time>2026-05-01T14:10:34.849Z</time></trkpt><trkpt lat="45.9624742" lon="8.6835909"><ele>208.0</ele><time>2026-05-01T14:10:35.849Z</time></trkpt><trkpt lat="45.9624935" lon="8.6834346"><ele>207.8</ele><time>2026-05-01T14:10:36.849Z</time></trkpt><trkpt lat="45.9625203" lon="8.6832831"><ele>207.60000000000002</ele><time>2026-05-01T14:10:37.849Z</time></trkpt><trkpt lat="45.962549" lon="8.6831348"><ele>207.39999999999998</ele><time>2026-05-01T14:10:38.848Z</time></trkpt><trkpt lat="45.9625802" lon="8.6829908"><ele>207.2</ele><time>2026-05-01T14:10:39.848Z</time></trkpt><trkpt lat="45.9626133" lon="8.6828453"><ele>207.0</ele><time>2026-05-01T14:10:40.848Z</time></trkpt><trkpt lat="45.9626554" lon="8.6826946"><ele>206.0</ele><time>2026-05-01T14:10:41.848Z</time></trkpt><trkpt lat="45.9626889" lon="8.6825452"><ele>205.0</ele><time>2026-05-01T14:10:42.849Z</time></trkpt><trkpt lat="45.9627163" lon="8.682394"><ele>204.0</ele><time>2026-05-01T14:10:43.849Z</time></trkpt><trkpt lat="45.9627287" lon="8.6822418"><ele>203.0</ele><time>2026-05-01T14:10:44.848Z</time></trkpt><trkpt lat="45.9627265" lon="8.6820759"><ele>202.0</ele><time>2026-05-01T14:10:45.847Z</time></trkpt><trkpt lat="45.9627102" lon="8.6819095"><ele>201.8</ele><time>2026-05-01T14:10:46.849Z</time></trkpt><trkpt lat="45.9626906" lon="8.6817595"><ele>201.6</ele><time>2026-05-01T14:10:47.849Z</time></trkpt><trkpt lat="45.9626696" lon="8.6816514"><ele>201.4</ele><time>2026-05-01T14:10:48.849Z</time></trkpt><trkpt lat="45.9626281" lon="8.6815006"><ele>201.20000000000002</ele><time>2026-05-01T14:10:50.848Z</time></trkpt><trkpt lat="45.9625924" lon="8.6813834"><ele>201.0</ele><time>2026-05-01T14:10:52.849Z</time></trkpt><trkpt lat="45.9625515" lon="8.6812755"><ele>200.8</ele><time>2026-05-01T14:10:55.849Z</time></trkpt><trkpt lat="45.9625005" lon="8.6811745"><ele>200.60000000000002</ele><time>2026-05-01T14:11:14.849Z</time></trkpt><trkpt lat="45.9624345" lon="8.6810229"><ele>200.4</ele><time>2026-05-01T14:11:16.849Z</time></trkpt><trkpt lat="45.962357" lon="8.6808872"><ele>200.2</ele><time>2026-05-01T14:11:18.849Z</time></trkpt><trkpt lat="45.9623091" lon="8.6808184"><ele>200.0</ele><time>2026-05-01T14:11:19.848Z</time></trkpt><trkpt lat="45.9622577" lon="8.680753"><ele>200.0</ele><time>2026-05-01T14:11:20.849Z</time></trkpt><trkpt lat="45.9621968" lon="8.680698"><ele>200.0</ele><time>2026-05-01T14:11:21.848Z</time></trkpt><trkpt lat="45.9621235" lon="8.6806377"><ele>200.0</ele><time>2026-05-01T14:11:22.849Z</time></trkpt><trkpt lat="45.9620226" lon="8.6805991"><ele>200.0</ele><time>2026-05-01T14:11:23.849Z</time></trkpt><trkpt lat="45.9619315" lon="8.680551"><ele>200.0</ele><time>2026-05-01T14:11:24.849Z</time></trkpt><trkpt lat="45.961842" lon="8.6805126"><ele>200.0</ele><time>2026-05-01T14:11:25.848Z</time></trkpt><trkpt lat="45.9617511" lon="8.6804758"><ele>200.0</ele><time>2026-05-01T14:11:26.849Z</time></trkpt><trkpt lat="45.9616566" lon="8.6804288"><ele>200.0</ele><time>2026-05-01T14:11:27.849Z</time></trkpt><trkpt lat="45.9615649" lon="8.6803716"><ele>200.0</ele><time>2026-05-01T14:11:28.848Z</time></trkpt><trkpt lat="45.9614745" lon="8.6802975"><ele>200.0</ele><time>2026-05-01T14:11:29.849Z</time></trkpt><trkpt lat="45.9613887" lon="8.6802158"><ele>199.4</ele><time>2026-05-01T14:11:30.849Z</time></trkpt><trkpt lat="45.9613054" lon="8.6801151"><ele>198.8</ele><time>2026-05-01T14:11:31.848Z</time></trkpt><trkpt lat="45.9612336" lon="8.6800135"><ele>198.2</ele><time>2026-05-01T14:11:32.849Z</time></trkpt><trkpt lat="45.9611724" lon="8.6799045"><ele>197.6</ele><time>2026-05-01T14:11:33.849Z</time></trkpt><trkpt lat="45.9611204" lon="8.6797871"><ele>197.0</ele><time>2026-05-01T14:11:34.85Z</time></trkpt><trkpt lat="45.9610763" lon="8.6796518"><ele>197.0</ele><time>2026-05-01T14:11:35.849Z</time></trkpt><trkpt lat="45.9610389" lon="8.6795229"><ele>197.0</ele><time>2026-05-01T14:11:36.848Z</time></trkpt><trkpt lat="45.961011" lon="8.6793778"><ele>197.0</ele><time>2026-05-01T14:11:37.848Z</time></trkpt><trkpt lat="45.960988" lon="8.6792327"><ele>197.0</ele><time>2026-05-01T14:11:38.849Z</time></trkpt><trkpt lat="45.9609717" lon="8.6790656"><ele>197.0</ele><time>2026-05-01T14:11:39.848Z</time></trkpt><trkpt lat="45.9609594" lon="8.6788882"><ele>196.75</ele><time>2026-05-01T14:11:40.849Z</time></trkpt><trkpt lat="45.960945" lon="8.6787037"><ele>196.5</ele><time>2026-05-01T14:11:41.849Z</time></trkpt><trkpt lat="45.9609377" lon="8.6785114"><ele>196.25</ele><time>2026-05-01T14:11:42.849Z</time></trkpt><trkpt lat="45.9609269" lon="8.6783098"><ele>196.0</ele><time>2026-05-01T14:11:43.848Z</time></trkpt><trkpt lat="45.960914" lon="8.6781136"><ele>195.0</ele><time>2026-05-01T14:11:44.849Z</time></trkpt><trkpt lat="45.9609052" lon="8.6779038"><ele>194.0</ele><time>2026-05-01T14:11:45.848Z</time></trkpt><trkpt lat="45.9608902" lon="8.677694"><ele>193.0</ele><time>2026-05-01T14:11:46.849Z</time></trkpt><trkpt lat="45.9608756" lon="8.6774871"><ele>192.0</ele><time>2026-05-01T14:11:47.849Z</time></trkpt><trkpt lat="45.9608627" lon="8.6772843"><ele>194.0</ele><time>2026-05-01T14:11:48.849Z</time></trkpt><trkpt lat="45.9608467" lon="8.6770799"><ele>196.0</ele><time>2026-05-01T14:11:49.849Z</time></trkpt><trkpt lat="45.9608359" lon="8.6768884"><ele>198.0</ele><time>2026-05-01T14:11:50.849Z</time></trkpt><trkpt lat="45.9608248" lon="8.6767058"><ele>200.0</ele><time>2026-05-01T14:11:51.849Z</time></trkpt><trkpt lat="45.9608189" lon="8.6765309"><ele>200.0</ele><time>2026-05-01T14:11:52.849Z</time></trkpt><trkpt lat="45.960803" lon="8.6763732"><ele>200.0</ele><time>2026-05-01T14:11:53.849Z</time></trkpt><trkpt lat="45.9607827" lon="8.6762246"><ele>200.0</ele><time>2026-05-01T14:11:54.848Z</time></trkpt><trkpt lat="45.9607531" lon="8.6760889"><ele>200.0</ele><time>2026-05-01T14:11:55.847Z</time></trkpt><trkpt lat="45.9607249" lon="8.6759601"><ele>200.0</ele><time>2026-05-01T14:11:56.849Z</time></trkpt><trkpt lat="45.960688" lon="8.6758352"><ele>199.2</ele><time>2026-05-01T14:11:57.849Z</time></trkpt><trkpt lat="45.9606341" lon="8.6757308"><ele>198.4</ele><time>2026-05-01T14:11:58.849Z</time></trkpt><trkpt lat="45.9605612" lon="8.6756356"><ele>197.60000000000002</ele><time>2026-05-01T14:11:59.848Z</time></trkpt><trkpt lat="45.9604586" lon="8.675578"><ele>196.8</ele><time>2026-05-01T14:12:00.849Z</time></trkpt><trkpt lat="45.9603539" lon="8.6755499"><ele>196.0</ele><time>2026-05-01T14:12:01.849Z</time></trkpt><trkpt lat="45.960239" lon="8.6755619"><ele>196.0</ele><time>2026-05-01T14:12:02.848Z</time></trkpt><trkpt lat="45.9601164" lon="8.6755895"><ele>196.0</ele><time>2026-05-01T14:12:03.849Z</time></trkpt><trkpt lat="45.959989" lon="8.6756282"><ele>196.0</ele><time>2026-05-01T14:12:04.849Z</time></trkpt><trkpt lat="45.9598557" lon="8.6756716"><ele>196.0</ele><time>2026-05-01T14:12:05.849Z</time></trkpt><trkpt lat="45.9597045" lon="8.6757367"><ele>198.0</ele><time>2026-05-01T14:12:06.848Z</time></trkpt><trkpt lat="45.9595644" lon="8.6757824"><ele>200.0</ele><time>2026-05-01T14:12:07.849Z</time></trkpt><trkpt lat="45.9594257" lon="8.6758292"><ele>202.0</ele><time>2026-05-01T14:12:08.849Z</time></trkpt><trkpt lat="45.9592889" lon="8.6758821"><ele>204.0</ele><time>2026-05-01T14:12:09.849Z</time></trkpt><trkpt lat="45.9591612" lon="8.6759273"><ele>205.39999999999998</ele><time>2026-05-01T14:12:10.849Z</time></trkpt><trkpt lat="45.9590346" lon="8.6759855"><ele>206.8</ele><time>2026-05-01T14:12:11.848Z</time></trkpt><trkpt lat="45.9589353" lon="8.6760204"><ele>208.2</ele><time>2026-05-01T14:12:12.849Z</time></trkpt><trkpt lat="45.9588361" lon="8.6760553"><ele>209.60000000000002</ele><time>2026-05-01T14:12:13.849Z</time></trkpt><trkpt lat="45.9587548" lon="8.6760929"><ele>211.0</ele><time>2026-05-01T14:12:14.849Z</time></trkpt><trkpt lat="45.9586688" lon="8.6761398"><ele>211.4</ele><time>2026-05-01T14:12:15.849Z</time></trkpt><trkpt lat="45.9585706" lon="8.6761832"><ele>211.8</ele><time>2026-05-01T14:12:16.849Z</time></trkpt><trkpt lat="45.9584785" lon="8.6761951"><ele>212.20000000000002</ele><time>2026-05-01T14:12:17.85Z</time></trkpt><trkpt lat="45.9583887" lon="8.6761964"><ele>212.60000000000002</ele><time>2026-05-01T14:12:18.848Z</time></trkpt><trkpt lat="45.9583068" lon="8.6762039"><ele>213.0</ele><time>2026-05-01T14:12:19.848Z</time></trkpt><trkpt lat="45.9582205" lon="8.6762177"><ele>213.0</ele><time>2026-05-01T14:12:20.848Z</time></trkpt><trkpt lat="45.9581261" lon="8.6762582"><ele>213.0</ele><time>2026-05-01T14:12:21.848Z</time></trkpt><trkpt lat="45.9580276" lon="8.6763217"><ele>213.0</ele><time>2026-05-01T14:12:22.849Z</time></trkpt><trkpt lat="45.9579341" lon="8.6763897"><ele>213.0</ele><time>2026-05-01T14:12:23.848Z</time></trkpt><trkpt lat="45.9578442" lon="8.6764751"><ele>213.0</ele><time>2026-05-01T14:12:24.848Z</time></trkpt><trkpt lat="45.9577574" lon="8.676577"><ele>213.0</ele><time>2026-05-01T14:12:25.849Z</time></trkpt><trkpt lat="45.9576781" lon="8.6766933"><ele>213.0</ele><time>2026-05-01T14:12:26.848Z</time></trkpt><trkpt lat="45.9576037" lon="8.6768238"><ele>213.0</ele><time>2026-05-01T14:12:27.849Z</time></trkpt><trkpt lat="45.9575364" lon="8.676963"><ele>213.0</ele><time>2026-05-01T14:12:28.849Z</time></trkpt><trkpt lat="45.957481" lon="8.6771162"><ele>213.75</ele><time>2026-05-01T14:12:29.849Z</time></trkpt><trkpt lat="45.9574348" lon="8.6772792"><ele>214.5</ele><time>2026-05-01T14:12:30.849Z</time></trkpt><trkpt lat="45.9573895" lon="8.6774451"><ele>215.25</ele><time>2026-05-01T14:12:31.848Z</time></trkpt><trkpt lat="45.9573428" lon="8.6776067"><ele>216.0</ele><time>2026-05-01T14:12:32.849Z</time></trkpt><trkpt lat="45.9572976" lon="8.6777734"><ele>216.0</ele><time>2026-05-01T14:12:33.849Z</time></trkpt><trkpt lat="45.9572509" lon="8.6779311"><ele>216.00000000000003</ele><time>2026-05-01T14:12:34.848Z</time></trkpt><trkpt lat="45.9572118" lon="8.6780588"><ele>216.00000000000003</ele><time>2026-05-01T14:12:35.849Z</time></trkpt><trkpt lat="45.9571769" lon="8.6781813"><ele>216.0</ele><time>2026-05-01T14:12:36.849Z</time></trkpt><trkpt lat="45.95714" lon="8.6783057"><ele>216.0</ele><time>2026-05-01T14:12:37.848Z</time></trkpt><trkpt lat="45.9571077" lon="8.6784306"><ele>216.0</ele><time>2026-05-01T14:12:38.849Z</time></trkpt><trkpt lat="45.9570887" lon="8.6785628"><ele>216.00000000000003</ele><time>2026-05-01T14:12:39.848Z</time></trkpt><trkpt lat="45.9570776" lon="8.6787029"><ele>216.00000000000003</ele><time>2026-05-01T14:12:40.849Z</time></trkpt><trkpt lat="45.9570734" lon="8.6788435"><ele>216.0</ele><time>2026-05-01T14:12:41.849Z</time></trkpt><trkpt lat="45.9570786" lon="8.6789852"><ele>216.0</ele><time>2026-05-01T14:12:42.849Z</time></trkpt><trkpt lat="45.9570774" lon="8.6791305"><ele>217.5</ele><time>2026-05-01T14:12:43.849Z</time></trkpt><trkpt lat="45.9570761" lon="8.6792941"><ele>219.0</ele><time>2026-05-01T14:12:44.849Z</time></trkpt><trkpt lat="45.9570757" lon="8.6794514"><ele>220.5</ele><time>2026-05-01T14:12:45.849Z</time></trkpt><trkpt lat="45.9570702" lon="8.6796209"><ele>222.0</ele><time>2026-05-01T14:12:46.847Z</time></trkpt><trkpt lat="45.9570689" lon="8.6797948"><ele>223.5</ele><time>2026-05-01T14:12:47.848Z</time></trkpt><trkpt lat="45.9570612" lon="8.6799718"><ele>225.0</ele><time>2026-05-01T14:12:48.849Z</time></trkpt><trkpt lat="45.9570696" lon="8.6801593"><ele>226.5</ele><time>2026-05-01T14:12:49.849Z</time></trkpt><trkpt lat="45.9570852" lon="8.6803475"><ele>228.0</ele><time>2026-05-01T14:12:50.847Z</time></trkpt><trkpt lat="45.9571076" lon="8.6805341"><ele>230.0</ele><time>2026-05-01T14:12:51.849Z</time></trkpt><trkpt lat="45.9571386" lon="8.6807186"><ele>232.0</ele><time>2026-05-01T14:12:52.849Z</time></trkpt><trkpt lat="45.957168" lon="8.6809051"><ele>234.0</ele><time>2026-05-01T14:12:53.849Z</time></trkpt><trkpt lat="45.9572011" lon="8.681095"><ele>236.0</ele><time>2026-05-01T14:12:54.849Z</time></trkpt><trkpt lat="45.9572376" lon="8.6812726"><ele>236.60000000000002</ele><time>2026-05-01T14:12:55.849Z</time></trkpt><trkpt lat="45.9572667" lon="8.6814467"><ele>237.20000000000002</ele><time>2026-05-01T14:12:56.848Z</time></trkpt><trkpt lat="45.957284" lon="8.681593"><ele>237.79999999999998</ele><time>2026-05-01T14:12:57.849Z</time></trkpt><trkpt lat="45.9572959" lon="8.6817466"><ele>238.39999999999998</ele><time>2026-05-01T14:12:58.849Z</time></trkpt><trkpt lat="45.9572911" lon="8.6818974"><ele>239.0</ele><time>2026-05-01T14:12:59.849Z</time></trkpt><trkpt lat="45.9572612" lon="8.6820431"><ele>239.6</ele><time>2026-05-01T14:13:00.848Z</time></trkpt><trkpt lat="45.9572242" lon="8.6821621"><ele>240.2</ele><time>2026-05-01T14:13:01.849Z</time></trkpt><trkpt lat="45.9571516" lon="8.6822628"><ele>240.79999999999998</ele><time>2026-05-01T14:13:02.849Z</time></trkpt><trkpt lat="45.9570683" lon="8.6823421"><ele>241.39999999999998</ele><time>2026-05-01T14:13:03.849Z</time></trkpt><trkpt lat="45.9569722" lon="8.6823864"><ele>242.0</ele><time>2026-05-01T14:13:04.849Z</time></trkpt><trkpt lat="45.956875" lon="8.6824065"><ele>242.0</ele><time>2026-05-01T14:13:05.849Z</time></trkpt><trkpt lat="45.9567703" lon="8.6823888"><ele>242.0</ele><time>2026-05-01T14:13:06.848Z</time></trkpt><trkpt lat="45.9566735" lon="8.6823355"><ele>242.0</ele><time>2026-05-01T14:13:07.849Z</time></trkpt><trkpt lat="45.9565815" lon="8.6822499"><ele>242.0</ele><time>2026-05-01T14:13:08.849Z</time></trkpt><trkpt lat="45.9565063" lon="8.6821415"><ele>242.0</ele><time>2026-05-01T14:13:09.848Z</time></trkpt><trkpt lat="45.9564263" lon="8.6820227"><ele>239.75</ele><time>2026-05-01T14:13:10.849Z</time></trkpt><trkpt lat="45.9563401" lon="8.6818813"><ele>237.5</ele><time>2026-05-01T14:13:11.849Z</time></trkpt><trkpt lat="45.9562499" lon="8.6817339"><ele>235.25</ele><time>2026-05-01T14:13:12.848Z</time></trkpt><trkpt lat="45.956159" lon="8.6815718"><ele>233.0</ele><time>2026-05-01T14:13:13.848Z</time></trkpt><trkpt lat="45.9560683" lon="8.6814036"><ele>233.0</ele><time>2026-05-01T14:13:14.848Z</time></trkpt><trkpt lat="45.9559743" lon="8.681242"><ele>233.0</ele><time>2026-05-01T14:13:15.849Z</time></trkpt><trkpt lat="45.9558875" lon="8.681083"><ele>233.0</ele><time>2026-05-01T14:13:16.847Z</time></trkpt><trkpt lat="45.9558126" lon="8.6809415"><ele>233.0</ele><time>2026-05-01T14:13:17.848Z</time></trkpt><trkpt lat="45.9557417" lon="8.6808078"><ele>235.2</ele><time>2026-05-01T14:13:18.848Z</time></trkpt><trkpt lat="45.9556848" lon="8.6806767"><ele>237.4</ele><time>2026-05-01T14:13:19.849Z</time></trkpt><trkpt lat="45.9556398" lon="8.6805399"><ele>239.59999999999997</ele><time>2026-05-01T14:13:20.849Z</time></trkpt><trkpt lat="45.9556031" lon="8.6803948"><ele>241.79999999999998</ele><time>2026-05-01T14:13:21.848Z</time></trkpt><trkpt lat="45.9555763" lon="8.6802192"><ele>244.0</ele><time>2026-05-01T14:13:22.849Z</time></trkpt><trkpt lat="45.9555548" lon="8.6800299"><ele>244.75</ele><time>2026-05-01T14:13:23.849Z</time></trkpt><trkpt lat="45.9555304" lon="8.6798415"><ele>245.5</ele><time>2026-05-01T14:13:24.849Z</time></trkpt><trkpt lat="45.9555083" lon="8.6796414"><ele>246.25</ele><time>2026-05-01T14:13:25.848Z</time></trkpt><trkpt lat="45.955485" lon="8.6794467"><ele>247.0</ele><time>2026-05-01T14:13:26.849Z</time></trkpt><trkpt lat="45.9554591" lon="8.6792506"><ele>247.25</ele><time>2026-05-01T14:13:27.849Z</time></trkpt><trkpt lat="45.9554347" lon="8.6790499"><ele>247.5</ele><time>2026-05-01T14:13:28.848Z</time></trkpt><trkpt lat="45.9554055" lon="8.6788544"><ele>247.75</ele><time>2026-05-01T14:13:29.848Z</time></trkpt><trkpt lat="45.9553786" lon="8.6786554"><ele>248.0</ele><time>2026-05-01T14:13:30.849Z</time></trkpt><trkpt lat="45.9553534" lon="8.6784496"><ele>247.25</ele><time>2026-05-01T14:13:31.849Z</time></trkpt><trkpt lat="45.9553298" lon="8.6782428"><ele>246.5</ele><time>2026-05-01T14:13:32.849Z</time></trkpt><trkpt lat="45.9553056" lon="8.6780428"><ele>245.75</ele><time>2026-05-01T14:13:33.849Z</time></trkpt><trkpt lat="45.9552827" lon="8.6778474"><ele>245.0</ele><time>2026-05-01T14:13:34.849Z</time></trkpt><trkpt lat="45.9552626" lon="8.6776566"><ele>246.5</ele><time>2026-05-01T14:13:35.849Z</time></trkpt><trkpt lat="45.9552391" lon="8.6774857"><ele>248.0</ele><time>2026-05-01T14:13:36.849Z</time></trkpt><trkpt lat="45.9552149" lon="8.6773192"><ele>249.5</ele><time>2026-05-01T14:13:37.849Z</time></trkpt><trkpt lat="45.9551946" lon="8.6771585"><ele>251.0</ele><time>2026-05-01T14:13:38.848Z</time></trkpt><trkpt lat="45.9551794" lon="8.6770083"><ele>252.4</ele><time>2026-05-01T14:13:39.849Z</time></trkpt><trkpt lat="45.9551545" lon="8.6768678"><ele>253.8</ele><time>2026-05-01T14:13:40.848Z</time></trkpt><trkpt lat="45.9551307" lon="8.676727"><ele>255.20000000000002</ele><time>2026-05-01T14:13:41.848Z</time></trkpt><trkpt lat="45.9550921" lon="8.6765955"><ele>256.6</ele><time>2026-05-01T14:13:42.848Z</time></trkpt><trkpt lat="45.9550312" lon="8.676474"><ele>258.0</ele><time>2026-05-01T14:13:43.849Z</time></trkpt><trkpt lat="45.9549666" lon="8.6763583"><ele>258.0</ele><time>2026-05-01T14:13:44.849Z</time></trkpt><trkpt lat="45.9548917" lon="8.6762554"><ele>258.0</ele><time>2026-05-01T14:13:45.849Z</time></trkpt><trkpt lat="45.9548143" lon="8.6761529"><ele>258.0</ele><time>2026-05-01T14:13:46.849Z</time></trkpt><trkpt lat="45.9547273" lon="8.6760427"><ele>258.0</ele><time>2026-05-01T14:13:47.849Z</time></trkpt><trkpt lat="45.9546382" lon="8.6759226"><ele>258.0</ele><time>2026-05-01T14:13:48.849Z</time></trkpt><trkpt lat="45.9545449" lon="8.6758001"><ele>258.0</ele><time>2026-05-01T14:13:49.848Z</time></trkpt><trkpt lat="45.9544511" lon="8.675666"><ele>258.0</ele><time>2026-05-01T14:13:50.848Z</time></trkpt><trkpt lat="45.954366" lon="8.6755263"><ele>258.0</ele><time>2026-05-01T14:13:51.848Z</time></trkpt><trkpt lat="45.954303" lon="8.6753828"><ele>258.0</ele><time>2026-05-01T14:13:52.849Z</time></trkpt><trkpt lat="45.9542488" lon="8.6752286"><ele>257.75</ele><time>2026-05-01T14:13:53.847Z</time></trkpt><trkpt lat="45.954215" lon="8.6750628"><ele>257.5</ele><time>2026-05-01T14:13:54.849Z</time></trkpt><trkpt lat="45.9541899" lon="8.6748926"><ele>257.25</ele><time>2026-05-01T14:13:55.849Z</time></trkpt><trkpt lat="45.9541674" lon="8.6747215"><ele>257.0</ele><time>2026-05-01T14:13:56.849Z</time></trkpt><trkpt lat="45.9541483" lon="8.6745443"><ele>257.8</ele><time>2026-05-01T14:13:57.848Z</time></trkpt><trkpt lat="45.9541219" lon="8.6743724"><ele>258.6</ele><time>2026-05-01T14:13:58.849Z</time></trkpt><trkpt lat="45.9541025" lon="8.6742102"><ele>259.40000000000003</ele><time>2026-05-01T14:13:59.849Z</time></trkpt><trkpt lat="45.954084" lon="8.6740715"><ele>260.2</ele><time>2026-05-01T14:14:00.849Z</time></trkpt><trkpt lat="45.9540453" lon="8.6739373"><ele>261.0</ele><time>2026-05-01T14:14:01.848Z</time></trkpt><trkpt lat="45.953987" lon="8.673816"><ele>261.0</ele><time>2026-05-01T14:14:02.849Z</time></trkpt><trkpt lat="45.9539094" lon="8.6737157"><ele>261.0</ele><time>2026-05-01T14:14:03.849Z</time></trkpt><trkpt lat="45.953816" lon="8.6736403"><ele>261.0</ele><time>2026-05-01T14:14:04.849Z</time></trkpt><trkpt lat="45.9537075" lon="8.6735949"><ele>261.0</ele><time>2026-05-01T14:14:05.848Z</time></trkpt><trkpt lat="45.9535925" lon="8.6735628"><ele>261.0</ele><time>2026-05-01T14:14:06.847Z</time></trkpt><trkpt lat="45.9534747" lon="8.6735406"><ele>261.0</ele><time>2026-05-01T14:14:07.849Z</time></trkpt><trkpt lat="45.9533524" lon="8.673503"><ele>261.0</ele><time>2026-05-01T14:14:08.848Z</time></trkpt><trkpt lat="45.9532337" lon="8.6734807"><ele>261.0</ele><time>2026-05-01T14:14:09.848Z</time></trkpt><trkpt lat="45.9531162" lon="8.6734474"><ele>261.0</ele><time>2026-05-01T14:14:10.847Z</time></trkpt><trkpt lat="45.9529993" lon="8.6734157"><ele>261.0</ele><time>2026-05-01T14:14:11.849Z</time></trkpt><trkpt lat="45.9528848" lon="8.6733938"><ele>261.0</ele><time>2026-05-01T14:14:12.848Z</time></trkpt><trkpt lat="45.9527695" lon="8.6733627"><ele>261.0</ele><time>2026-05-01T14:14:13.848Z</time></trkpt><trkpt lat="45.9526547" lon="8.6733269"><ele>261.0</ele><time>2026-05-01T14:14:14.849Z</time></trkpt><trkpt lat="45.9525401" lon="8.6733006"><ele>259.75</ele><time>2026-05-01T14:14:15.848Z</time></trkpt><trkpt lat="45.9524193" lon="8.6732706"><ele>258.5</ele><time>2026-05-01T14:14:16.847Z</time></trkpt><trkpt lat="45.9523002" lon="8.673237"><ele>257.25</ele><time>2026-05-01T14:14:17.848Z</time></trkpt><trkpt lat="45.952192" lon="8.6732065"><ele>256.0</ele><time>2026-05-01T14:14:18.848Z</time></trkpt><trkpt lat="45.9520899" lon="8.673181"><ele>256.0</ele><time>2026-05-01T14:14:19.848Z</time></trkpt><trkpt lat="45.9519853" lon="8.673147"><ele>256.0</ele><time>2026-05-01T14:14:20.849Z</time></trkpt><trkpt lat="45.9518865" lon="8.6731023"><ele>256.0</ele><time>2026-05-01T14:14:21.849Z</time></trkpt><trkpt lat="45.95179" lon="8.6730354"><ele>256.0</ele><time>2026-05-01T14:14:22.849Z</time></trkpt><trkpt lat="45.9516919" lon="8.672942"><ele>256.0</ele><time>2026-05-01T14:14:23.849Z</time></trkpt><trkpt lat="45.9515998" lon="8.672839"><ele>255.5</ele><time>2026-05-01T14:14:24.849Z</time></trkpt><trkpt lat="45.9515016" lon="8.6727333"><ele>255.0</ele><time>2026-05-01T14:14:25.848Z</time></trkpt><trkpt lat="45.951403" lon="8.6726265"><ele>254.5</ele><time>2026-05-01T14:14:26.848Z</time></trkpt><trkpt lat="45.9512984" lon="8.6725382"><ele>254.0</ele><time>2026-05-01T14:14:27.848Z</time></trkpt><trkpt lat="45.9511995" lon="8.6724387"><ele>254.0</ele><time>2026-05-01T14:14:28.849Z</time></trkpt><trkpt lat="45.9510994" lon="8.6723388"><ele>254.0</ele><time>2026-05-01T14:14:29.849Z</time></trkpt><trkpt lat="45.9510041" lon="8.6722344"><ele>254.0</ele><time>2026-05-01T14:14:30.849Z</time></trkpt><trkpt lat="45.9509031" lon="8.6721317"><ele>254.0</ele><time>2026-05-01T14:14:31.848Z</time></trkpt><trkpt lat="45.9508055" lon="8.672019"><ele>253.0</ele><time>2026-05-01T14:14:32.849Z</time></trkpt><trkpt lat="45.950703" lon="8.6719069"><ele>252.0</ele><time>2026-05-01T14:14:33.848Z</time></trkpt><trkpt lat="45.9506047" lon="8.6717932"><ele>251.0</ele><time>2026-05-01T14:14:34.849Z</time></trkpt><trkpt lat="45.9505176" lon="8.6716739"><ele>250.0</ele><time>2026-05-01T14:14:35.848Z</time></trkpt><trkpt lat="45.9504352" lon="8.6715388"><ele>250.0</ele><time>2026-05-01T14:14:36.849Z</time></trkpt><trkpt lat="45.9503559" lon="8.6713906"><ele>250.0</ele><time>2026-05-01T14:14:37.849Z</time></trkpt><trkpt lat="45.9502842" lon="8.6712334"><ele>250.0</ele><time>2026-05-01T14:14:38.848Z</time></trkpt><trkpt lat="45.9502222" lon="8.6710872"><ele>250.0</ele><time>2026-05-01T14:14:39.848Z</time></trkpt><trkpt lat="45.9501525" lon="8.670957"><ele>249.6</ele><time>2026-05-01T14:14:40.848Z</time></trkpt><trkpt lat="45.9500874" lon="8.6708319"><ele>249.2</ele><time>2026-05-01T14:14:41.849Z</time></trkpt><trkpt lat="45.9500223" lon="8.6707018"><ele>248.8</ele><time>2026-05-01T14:14:42.849Z</time></trkpt><trkpt lat="45.9499568" lon="8.6705715"><ele>248.4</ele><time>2026-05-01T14:14:43.848Z</time></trkpt><trkpt lat="45.9498912" lon="8.6704406"><ele>248.0</ele><time>2026-05-01T14:14:44.849Z</time></trkpt><trkpt lat="45.9498248" lon="8.6703068"><ele>247.25</ele><time>2026-05-01T14:14:45.848Z</time></trkpt><trkpt lat="45.9497636" lon="8.6701706"><ele>246.5</ele><time>2026-05-01T14:14:46.847Z</time></trkpt><trkpt lat="45.9497116" lon="8.670015"><ele>245.75</ele><time>2026-05-01T14:14:47.848Z</time></trkpt><trkpt lat="45.9496706" lon="8.6698562"><ele>245.0</ele><time>2026-05-01T14:14:48.847Z</time></trkpt><trkpt lat="45.9496412" lon="8.6696942"><ele>245.0</ele><time>2026-05-01T14:14:49.848Z</time></trkpt><trkpt lat="45.9496172" lon="8.6695001"><ele>245.0</ele><time>2026-05-01T14:14:50.848Z</time></trkpt><trkpt lat="45.949592" lon="8.6693137"><ele>245.0</ele><time>2026-05-01T14:14:51.848Z</time></trkpt><trkpt lat="45.9495811" lon="8.669131"><ele>245.0</ele><time>2026-05-01T14:14:52.848Z</time></trkpt><trkpt lat="45.9495628" lon="8.6689569"><ele>245.0</ele><time>2026-05-01T14:14:53.847Z</time></trkpt><trkpt lat="45.9495389" lon="8.6687911"><ele>245.0</ele><time>2026-05-01T14:14:54.849Z</time></trkpt><trkpt lat="45.9495277" lon="8.6686171"><ele>245.0</ele><time>2026-05-01T14:14:55.848Z</time></trkpt><trkpt lat="45.9495053" lon="8.6684347"><ele>245.0</ele><time>2026-05-01T14:14:56.849Z</time></trkpt><trkpt lat="45.9494844" lon="8.6682336"><ele>244.25</ele><time>2026-05-01T14:14:57.848Z</time></trkpt><trkpt lat="45.9494585" lon="8.6680332"><ele>243.5</ele><time>2026-05-01T14:14:58.848Z</time></trkpt><trkpt lat="45.9494343" lon="8.6678442"><ele>242.75</ele><time>2026-05-01T14:14:59.849Z</time></trkpt><trkpt lat="45.9494115" lon="8.6676465"><ele>242.0</ele><time>2026-05-01T14:15:00.849Z</time></trkpt><trkpt lat="45.9493915" lon="8.6674798"><ele>241.2</ele><time>2026-05-01T14:15:01.848Z</time></trkpt><trkpt lat="45.9493776" lon="8.6673067"><ele>240.39999999999998</ele><time>2026-05-01T14:15:02.849Z</time></trkpt><trkpt lat="45.9493574" lon="8.6671387"><ele>239.60000000000002</ele><time>2026-05-01T14:15:03.849Z</time></trkpt><trkpt lat="45.9493447" lon="8.6669836"><ele>238.8</ele><time>2026-05-01T14:15:04.848Z</time></trkpt><trkpt lat="45.9493266" lon="8.6668425"><ele>238.0</ele><time>2026-05-01T14:15:05.849Z</time></trkpt><trkpt lat="45.9492874" lon="8.6667075"><ele>237.0</ele><time>2026-05-01T14:15:06.849Z</time></trkpt><trkpt lat="45.9492297" lon="8.666588"><ele>236.0</ele><time>2026-05-01T14:15:07.848Z</time></trkpt><trkpt lat="45.9491537" lon="8.6664881"><ele>235.0</ele><time>2026-05-01T14:15:08.849Z</time></trkpt><trkpt lat="45.9490602" lon="8.6664093"><ele>234.0</ele><time>2026-05-01T14:15:09.849Z</time></trkpt><trkpt lat="45.9489623" lon="8.666355"><ele>233.0</ele><time>2026-05-01T14:15:10.848Z</time></trkpt><trkpt lat="45.9488504" lon="8.6663432"><ele>232.25</ele><time>2026-05-01T14:15:11.849Z</time></trkpt><trkpt lat="45.9487446" lon="8.6663477"><ele>231.5</ele><time>2026-05-01T14:15:12.848Z</time></trkpt><trkpt lat="45.9486227" lon="8.6663655"><ele>230.75</ele><time>2026-05-01T14:15:13.849Z</time></trkpt><trkpt lat="45.9485008" lon="8.6663814"><ele>230.0</ele><time>2026-05-01T14:15:14.848Z</time></trkpt><trkpt lat="45.9483876" lon="8.6663874"><ele>229.0</ele><time>2026-05-01T14:15:15.849Z</time></trkpt><trkpt lat="45.9482753" lon="8.6663926"><ele>228.0</ele><time>2026-05-01T14:15:16.848Z</time></trkpt><trkpt lat="45.9481714" lon="8.6663925"><ele>227.0</ele><time>2026-05-01T14:15:17.849Z</time></trkpt><trkpt lat="45.9480727" lon="8.6664131"><ele>226.0</ele><time>2026-05-01T14:15:18.849Z</time></trkpt><trkpt lat="45.9479845" lon="8.6664302"><ele>225.0</ele><time>2026-05-01T14:15:19.847Z</time></trkpt><trkpt lat="45.9478913" lon="8.6664427"><ele>225.0</ele><time>2026-05-01T14:15:20.849Z</time></trkpt><trkpt lat="45.9478016" lon="8.6664483"><ele>225.0</ele><time>2026-05-01T14:15:21.849Z</time></trkpt><trkpt lat="45.9477071" lon="8.6664426"><ele>225.0</ele><time>2026-05-01T14:15:22.847Z</time></trkpt><trkpt lat="45.9476087" lon="8.6664133"><ele>225.0</ele><time>2026-05-01T14:15:23.848Z</time></trkpt><trkpt lat="45.9475153" lon="8.6663638"><ele>225.0</ele><time>2026-05-01T14:15:24.849Z</time></trkpt><trkpt lat="45.9474169" lon="8.6662989"><ele>224.75</ele><time>2026-05-01T14:15:25.847Z</time></trkpt><trkpt lat="45.9473225" lon="8.6662183"><ele>224.5</ele><time>2026-05-01T14:15:26.848Z</time></trkpt><trkpt lat="45.947235" lon="8.6661156"><ele>224.25</ele><time>2026-05-01T14:15:27.848Z</time></trkpt><trkpt lat="45.9471435" lon="8.6660038"><ele>224.0</ele><time>2026-05-01T14:15:28.849Z</time></trkpt><trkpt lat="45.9470506" lon="8.6658822"><ele>224.25</ele><time>2026-05-01T14:15:29.848Z</time></trkpt><trkpt lat="45.9469479" lon="8.6657598"><ele>224.5</ele><time>2026-05-01T14:15:30.849Z</time></trkpt><trkpt lat="45.9468461" lon="8.6656292"><ele>224.75</ele><time>2026-05-01T14:15:31.849Z</time></trkpt><trkpt lat="45.9467356" lon="8.665496"><ele>225.0</ele><time>2026-05-01T14:15:32.847Z</time></trkpt><trkpt lat="45.9466237" lon="8.6653584"><ele>223.5</ele><time>2026-05-01T14:15:33.849Z</time></trkpt><trkpt lat="45.9465136" lon="8.6652272"><ele>222.0</ele><time>2026-05-01T14:15:34.849Z</time></trkpt><trkpt lat="45.9464054" lon="8.6650949"><ele>220.5</ele><time>2026-05-01T14:15:35.848Z</time></trkpt><trkpt lat="45.9462954" lon="8.6649567"><ele>219.0</ele><time>2026-05-01T14:15:36.848Z</time></trkpt><trkpt lat="45.9461897" lon="8.6648067"><ele>219.0</ele><time>2026-05-01T14:15:37.849Z</time></trkpt><trkpt lat="45.9460742" lon="8.6646648"><ele>219.0</ele><time>2026-05-01T14:15:38.848Z</time></trkpt><trkpt lat="45.9459586" lon="8.6645242"><ele>219.0</ele><time>2026-05-01T14:15:39.849Z</time></trkpt><trkpt lat="45.9458411" lon="8.6643781"><ele>219.75</ele><time>2026-05-01T14:15:40.849Z</time></trkpt><trkpt lat="45.9457338" lon="8.6642428"><ele>220.5</ele><time>2026-05-01T14:15:41.849Z</time></trkpt><trkpt lat="45.9456317" lon="8.6641137"><ele>221.25</ele><time>2026-05-01T14:15:42.849Z</time></trkpt><trkpt lat="45.9455381" lon="8.6639933"><ele>222.0</ele><time>2026-05-01T14:15:43.848Z</time></trkpt><trkpt lat="45.9454437" lon="8.6638882"><ele>222.0</ele><time>2026-05-01T14:15:44.85Z</time></trkpt><trkpt lat="45.9453482" lon="8.6637936"><ele>222.0</ele><time>2026-05-01T14:15:45.849Z</time></trkpt><trkpt lat="45.9452425" lon="8.6637175"><ele>222.0</ele><time>2026-05-01T14:15:46.849Z</time></trkpt><trkpt lat="45.9451263" lon="8.6636695"><ele>222.0</ele><time>2026-05-01T14:15:47.849Z</time></trkpt><trkpt lat="45.9450023" lon="8.6636238"><ele>221.5</ele><time>2026-05-01T14:15:48.849Z</time></trkpt><trkpt lat="45.9448698" lon="8.663583"><ele>221.0</ele><time>2026-05-01T14:15:49.847Z</time></trkpt><trkpt lat="45.9447345" lon="8.663534"><ele>220.5</ele><time>2026-05-01T14:15:50.848Z</time></trkpt><trkpt lat="45.9446004" lon="8.6634877"><ele>220.0</ele><time>2026-05-01T14:15:51.848Z</time></trkpt><trkpt lat="45.9444679" lon="8.6634386"><ele>220.0</ele><time>2026-05-01T14:15:52.849Z</time></trkpt><trkpt lat="45.9443488" lon="8.6633793"><ele>220.0</ele><time>2026-05-01T14:15:53.848Z</time></trkpt><trkpt lat="45.9442268" lon="8.6633268"><ele>220.0</ele><time>2026-05-01T14:15:54.848Z</time></trkpt><trkpt lat="45.9441105" lon="8.6632656"><ele>220.0</ele><time>2026-05-01T14:15:55.849Z</time></trkpt><trkpt lat="45.9439988" lon="8.6631888"><ele>219.25</ele><time>2026-05-01T14:15:56.849Z</time></trkpt><trkpt lat="45.9438979" lon="8.6630964"><ele>218.5</ele><time>2026-05-01T14:15:57.848Z</time></trkpt><trkpt lat="45.9437979" lon="8.6629779"><ele>217.75</ele><time>2026-05-01T14:15:58.847Z</time></trkpt><trkpt lat="45.9436977" lon="8.6628494"><ele>217.0</ele><time>2026-05-01T14:15:59.848Z</time></trkpt><trkpt lat="45.9435972" lon="8.6627163"><ele>217.2</ele><time>2026-05-01T14:16:00.849Z</time></trkpt><trkpt lat="45.9434954" lon="8.6625944"><ele>217.39999999999998</ele><time>2026-05-01T14:16:01.848Z</time></trkpt><trkpt lat="45.9434075" lon="8.6624871"><ele>217.60000000000002</ele><time>2026-05-01T14:16:02.847Z</time></trkpt><trkpt lat="45.9433456" lon="8.6624071"><ele>217.8</ele><time>2026-05-01T14:16:03.849Z</time></trkpt><trkpt lat="45.943291" lon="8.6623575"><ele>218.0</ele><time>2026-05-01T14:16:04.849Z</time></trkpt><trkpt lat="45.9431863" lon="8.66228"><ele>218.0</ele><time>2026-05-01T14:16:06.848Z</time></trkpt><trkpt lat="45.9431327" lon="8.6622313"><ele>218.0</ele><time>2026-05-01T14:16:07.848Z</time></trkpt><trkpt lat="45.9430747" lon="8.6621829"><ele>218.0</ele><time>2026-05-01T14:16:08.849Z</time></trkpt><trkpt lat="45.9430133" lon="8.6621401"><ele>218.0</ele><time>2026-05-01T14:16:09.848Z</time></trkpt><trkpt lat="45.9429497" lon="8.6620885"><ele>218.0</ele><time>2026-05-01T14:16:10.848Z</time></trkpt><trkpt lat="45.9428751" lon="8.6620356"><ele>218.0</ele><time>2026-05-01T14:16:11.847Z</time></trkpt><trkpt lat="45.9427939" lon="8.6619881"><ele>218.0</ele><time>2026-05-01T14:16:12.847Z</time></trkpt><trkpt lat="45.9426965" lon="8.6619369"><ele>217.60000000000002</ele><time>2026-05-01T14:16:13.849Z</time></trkpt><trkpt lat="45.9426104" lon="8.6618673"><ele>217.20000000000002</ele><time>2026-05-01T14:16:14.849Z</time></trkpt><trkpt lat="45.9425277" lon="8.6618019"><ele>216.8</ele><time>2026-05-01T14:16:15.849Z</time></trkpt><trkpt lat="45.942436" lon="8.6617355"><ele>216.4</ele><time>2026-05-01T14:16:16.849Z</time></trkpt><trkpt lat="45.9423486" lon="8.6616672"><ele>216.0</ele><time>2026-05-01T14:16:17.848Z</time></trkpt><trkpt lat="45.9422608" lon="8.661591"><ele>216.0</ele><time>2026-05-01T14:16:18.848Z</time></trkpt><trkpt lat="45.9421774" lon="8.6615085"><ele>216.00000000000003</ele><time>2026-05-01T14:16:19.849Z</time></trkpt><trkpt lat="45.9420976" lon="8.661419"><ele>216.00000000000003</ele><time>2026-05-01T14:16:20.848Z</time></trkpt><trkpt lat="45.9420257" lon="8.6613112"><ele>216.0</ele><time>2026-05-01T14:16:21.848Z</time></trkpt><trkpt lat="45.9419549" lon="8.6611956"><ele>216.0</ele><time>2026-05-01T14:16:22.848Z</time></trkpt><trkpt lat="45.9418772" lon="8.6610695"><ele>217.8</ele><time>2026-05-01T14:16:23.849Z</time></trkpt><trkpt lat="45.9418077" lon="8.6609433"><ele>219.60000000000002</ele><time>2026-05-01T14:16:24.848Z</time></trkpt><trkpt lat="45.9417466" lon="8.6608138"><ele>221.4</ele><time>2026-05-01T14:16:25.849Z</time></trkpt><trkpt lat="45.9416789" lon="8.6606989"><ele>223.2</ele><time>2026-05-01T14:16:26.848Z</time></trkpt><trkpt lat="45.9416106" lon="8.6605884"><ele>225.0</ele><time>2026-05-01T14:16:27.849Z</time></trkpt><trkpt lat="45.941554" lon="8.6604758"><ele>225.0</ele><time>2026-05-01T14:16:28.85Z</time></trkpt><trkpt lat="45.9414848" lon="8.6603936"><ele>225.0</ele><time>2026-05-01T14:16:29.849Z</time></trkpt><trkpt lat="45.9414272" lon="8.6602739"><ele>225.0</ele><time>2026-05-01T14:16:30.848Z</time></trkpt><trkpt lat="45.9413632" lon="8.6601609"><ele>225.0</ele><time>2026-05-01T14:16:31.848Z</time></trkpt><trkpt lat="45.9412938" lon="8.6600501"><ele>225.0</ele><time>2026-05-01T14:16:32.849Z</time></trkpt><trkpt lat="45.9412266" lon="8.6599276"><ele>221.75</ele><time>2026-05-01T14:16:33.849Z</time></trkpt><trkpt lat="45.9411649" lon="8.659791"><ele>218.5</ele><time>2026-05-01T14:16:34.849Z</time></trkpt><trkpt lat="45.94111" lon="8.6596472"><ele>215.25</ele><time>2026-05-01T14:16:35.847Z</time></trkpt><trkpt lat="45.9410593" lon="8.6594929"><ele>212.0</ele><time>2026-05-01T14:16:36.849Z</time></trkpt><trkpt lat="45.9410107" lon="8.659357"><ele>210.39999999999998</ele><time>2026-05-01T14:16:37.847Z</time></trkpt><trkpt lat="45.94097" lon="8.6592153"><ele>208.79999999999998</ele><time>2026-05-01T14:16:38.848Z</time></trkpt><trkpt lat="45.9409309" lon="8.6590818"><ele>207.2</ele><time>2026-05-01T14:16:39.848Z</time></trkpt><trkpt lat="45.9408842" lon="8.6589601"><ele>205.6</ele><time>2026-05-01T14:16:40.849Z</time></trkpt><trkpt lat="45.9408403" lon="8.6588429"><ele>204.0</ele><time>2026-05-01T14:16:41.849Z</time></trkpt><trkpt lat="45.9407767" lon="8.6587243"><ele>205.79999999999998</ele><time>2026-05-01T14:16:42.849Z</time></trkpt><trkpt lat="45.9407056" lon="8.6586192"><ele>207.6</ele><time>2026-05-01T14:16:43.849Z</time></trkpt><trkpt lat="45.940632" lon="8.6585074"><ele>209.4</ele><time>2026-05-01T14:16:44.847Z</time></trkpt><trkpt lat="45.940555" lon="8.6583918"><ele>211.2</ele><time>2026-05-01T14:16:45.848Z</time></trkpt><trkpt lat="45.9404751" lon="8.6582619"><ele>213.0</ele><time>2026-05-01T14:16:46.848Z</time></trkpt><trkpt lat="45.9403997" lon="8.6581323"><ele>213.0</ele><time>2026-05-01T14:16:47.848Z</time></trkpt><trkpt lat="45.9403196" lon="8.6579938"><ele>213.0</ele><time>2026-05-01T14:16:48.849Z</time></trkpt><trkpt lat="45.9402462" lon="8.6578465"><ele>213.0</ele><time>2026-05-01T14:16:49.849Z</time></trkpt><trkpt lat="45.9401819" lon="8.6576968"><ele>213.0</ele><time>2026-05-01T14:16:50.848Z</time></trkpt><trkpt lat="45.9401177" lon="8.6575452"><ele>213.75</ele><time>2026-05-01T14:16:51.849Z</time></trkpt><trkpt lat="45.9400577" lon="8.6573884"><ele>214.5</ele><time>2026-05-01T14:16:52.849Z</time></trkpt><trkpt lat="45.9399938" lon="8.6572421"><ele>215.25</ele><time>2026-05-01T14:16:53.849Z</time></trkpt><trkpt lat="45.9399267" lon="8.6570968"><ele>216.0</ele><time>2026-05-01T14:16:54.849Z</time></trkpt><trkpt lat="45.9398662" lon="8.6569479"><ele>216.0</ele><time>2026-05-01T14:16:55.849Z</time></trkpt><trkpt lat="45.9398004" lon="8.6568015"><ele>216.0</ele><time>2026-05-01T14:16:56.849Z</time></trkpt><trkpt lat="45.9397338" lon="8.6566599"><ele>216.0</ele><time>2026-05-01T14:16:57.847Z</time></trkpt><trkpt lat="45.9396665" lon="8.6565239"><ele>216.0</ele><time>2026-05-01T14:16:58.849Z</time></trkpt><trkpt lat="45.9395923" lon="8.6563984"><ele>216.0</ele><time>2026-05-01T14:16:59.848Z</time></trkpt><trkpt lat="45.9395207" lon="8.6562761"><ele>216.00000000000003</ele><time>2026-05-01T14:17:00.848Z</time></trkpt><trkpt lat="45.939456" lon="8.6561829"><ele>216.00000000000003</ele><time>2026-05-01T14:17:01.849Z</time></trkpt><trkpt lat="45.9393947" lon="8.6560883"><ele>216.0</ele><time>2026-05-01T14:17:02.848Z</time></trkpt><trkpt lat="45.9393236" lon="8.6559958"><ele>216.0</ele><time>2026-05-01T14:17:03.849Z</time></trkpt><trkpt lat="45.9392514" lon="8.6558958"><ele>216.60000000000002</ele><time>2026-05-01T14:17:04.849Z</time></trkpt><trkpt lat="45.9391802" lon="8.6557852"><ele>217.20000000000002</ele><time>2026-05-01T14:17:05.848Z</time></trkpt><trkpt lat="45.9391156" lon="8.6556671"><ele>217.79999999999998</ele><time>2026-05-01T14:17:06.847Z</time></trkpt><trkpt lat="45.9390514" lon="8.6555338"><ele>218.39999999999998</ele><time>2026-05-01T14:17:07.848Z</time></trkpt><trkpt lat="45.9389965" lon="8.655385"><ele>219.0</ele><time>2026-05-01T14:17:08.849Z</time></trkpt><trkpt lat="45.9389633" lon="8.6552116"><ele>219.0</ele><time>2026-05-01T14:17:09.848Z</time></trkpt><trkpt lat="45.9389216" lon="8.6550565"><ele>218.99999999999997</ele><time>2026-05-01T14:17:10.849Z</time></trkpt><trkpt lat="45.9388838" lon="8.6549042"><ele>218.99999999999997</ele><time>2026-05-01T14:17:11.847Z</time></trkpt><trkpt lat="45.9388535" lon="8.6547578"><ele>219.0</ele><time>2026-05-01T14:17:12.848Z</time></trkpt><trkpt lat="45.9388324" lon="8.6546174"><ele>219.0</ele><time>2026-05-01T14:17:13.849Z</time></trkpt><trkpt lat="45.9388188" lon="8.6544716"><ele>218.39999999999998</ele><time>2026-05-01T14:17:14.847Z</time></trkpt><trkpt lat="45.9388159" lon="8.6543299"><ele>217.79999999999998</ele><time>2026-05-01T14:17:15.849Z</time></trkpt><trkpt lat="45.9388336" lon="8.6541764"><ele>217.20000000000002</ele><time>2026-05-01T14:17:16.849Z</time></trkpt><trkpt lat="45.9388606" lon="8.6540128"><ele>216.60000000000002</ele><time>2026-05-01T14:17:17.85Z</time></trkpt><trkpt lat="45.9388804" lon="8.6538656"><ele>216.0</ele><time>2026-05-01T14:17:18.847Z</time></trkpt><trkpt lat="45.9389045" lon="8.6537065"><ele>217.60000000000002</ele><time>2026-05-01T14:17:19.848Z</time></trkpt><trkpt lat="45.9389135" lon="8.6535625"><ele>219.20000000000002</ele><time>2026-05-01T14:17:20.849Z</time></trkpt><trkpt lat="45.9389386" lon="8.6534103"><ele>220.79999999999998</ele><time>2026-05-01T14:17:21.847Z</time></trkpt><trkpt lat="45.9389628" lon="8.6532726"><ele>222.39999999999998</ele><time>2026-05-01T14:17:22.849Z</time></trkpt><trkpt lat="45.9390058" lon="8.6531572"><ele>224.0</ele><time>2026-05-01T14:17:23.848Z</time></trkpt><trkpt lat="45.9390616" lon="8.6530554"><ele>224.00000000000003</ele><time>2026-05-01T14:17:24.849Z</time></trkpt><trkpt lat="45.9391309" lon="8.6529559"><ele>224.0</ele><time>2026-05-01T14:17:25.849Z</time></trkpt><trkpt lat="45.9392134" lon="8.6528862"><ele>224.0</ele><time>2026-05-01T14:17:26.849Z</time></trkpt><trkpt lat="45.9392935" lon="8.652822"><ele>224.0</ele><time>2026-05-01T14:17:27.849Z</time></trkpt><trkpt lat="45.9393681" lon="8.6527562"><ele>224.00000000000003</ele><time>2026-05-01T14:17:28.847Z</time></trkpt><trkpt lat="45.9394205" lon="8.6526833"><ele>224.0</ele><time>2026-05-01T14:17:29.849Z</time></trkpt><trkpt lat="45.9394656" lon="8.6525921"><ele>221.2</ele><time>2026-05-01T14:17:30.848Z</time></trkpt><trkpt lat="45.9394903" lon="8.6524664"><ele>218.39999999999998</ele><time>2026-05-01T14:17:31.85Z</time></trkpt><trkpt lat="45.9394885" lon="8.6523265"><ele>215.6</ele><time>2026-05-01T14:17:32.847Z</time></trkpt><trkpt lat="45.9394688" lon="8.652184"><ele>212.8</ele><time>2026-05-01T14:17:33.849Z</time></trkpt><trkpt lat="45.9394552" lon="8.6520265"><ele>210.0</ele><time>2026-05-01T14:17:34.848Z</time></trkpt><trkpt lat="45.9394511" lon="8.6518458"><ele>210.0</ele><time>2026-05-01T14:17:35.848Z</time></trkpt><trkpt lat="45.9394315" lon="8.6516756"><ele>210.0</ele><time>2026-05-01T14:17:36.849Z</time></trkpt><trkpt lat="45.9394232" lon="8.6515086"><ele>210.0</ele><time>2026-05-01T14:17:37.848Z</time></trkpt><trkpt lat="45.9394051" lon="8.6513479"><ele>210.0</ele><time>2026-05-01T14:17:38.848Z</time></trkpt><trkpt lat="45.9394018" lon="8.6511879"><ele>206.5</ele><time>2026-05-01T14:17:39.848Z</time></trkpt><trkpt lat="45.9393858" lon="8.6510259"><ele>203.0</ele><time>2026-05-01T14:17:40.848Z</time></trkpt><trkpt lat="45.9393709" lon="8.6508641"><ele>199.5</ele><time>2026-05-01T14:17:41.849Z</time></trkpt><trkpt lat="45.9393573" lon="8.6507071"><ele>196.0</ele><time>2026-05-01T14:17:42.848Z</time></trkpt><trkpt lat="45.9393441" lon="8.6505467"><ele>196.0</ele><time>2026-05-01T14:17:43.848Z</time></trkpt><trkpt lat="45.9393235" lon="8.6503988"><ele>196.0</ele><time>2026-05-01T14:17:44.849Z</time></trkpt><trkpt lat="45.9393183" lon="8.6502456"><ele>196.0</ele><time>2026-05-01T14:17:45.849Z</time></trkpt><trkpt lat="45.9393102" lon="8.6500868"><ele>196.0</ele><time>2026-05-01T14:17:46.848Z</time></trkpt><trkpt lat="45.9392935" lon="8.6499365"><ele>196.0</ele><time>2026-05-01T14:17:47.849Z</time></trkpt><trkpt lat="45.9392678" lon="8.649786"><ele>195.8</ele><time>2026-05-01T14:17:48.849Z</time></trkpt><trkpt lat="45.9392362" lon="8.649634"><ele>195.60000000000002</ele><time>2026-05-01T14:17:49.849Z</time></trkpt><trkpt lat="45.9391855" lon="8.6494918"><ele>195.4</ele><time>2026-05-01T14:17:50.848Z</time></trkpt><trkpt lat="45.9391232" lon="8.6493614"><ele>195.2</ele><time>2026-05-01T14:17:51.848Z</time></trkpt><trkpt lat="45.9390535" lon="8.6492346"><ele>195.0</ele><time>2026-05-01T14:17:52.848Z</time></trkpt><trkpt lat="45.9389765" lon="8.6491021"><ele>195.75</ele><time>2026-05-01T14:17:53.849Z</time></trkpt><trkpt lat="45.9388939" lon="8.6489722"><ele>196.5</ele><time>2026-05-01T14:17:54.848Z</time></trkpt><trkpt lat="45.9388012" lon="8.6488254"><ele>197.25</ele><time>2026-05-01T14:17:55.849Z</time></trkpt><trkpt lat="45.9387093" lon="8.6486764"><ele>198.0</ele><time>2026-05-01T14:17:56.849Z</time></trkpt><trkpt lat="45.9386127" lon="8.6485331"><ele>198.0</ele><time>2026-05-01T14:17:57.848Z</time></trkpt><trkpt lat="45.9385196" lon="8.6483923"><ele>198.0</ele><time>2026-05-01T14:17:58.849Z</time></trkpt><trkpt lat="45.9384244" lon="8.6482389"><ele>198.0</ele><time>2026-05-01T14:17:59.848Z</time></trkpt><trkpt lat="45.9383362" lon="8.6480872"><ele>198.0</ele><time>2026-05-01T14:18:00.847Z</time></trkpt><trkpt lat="45.9382473" lon="8.6479571"><ele>198.5</ele><time>2026-05-01T14:18:01.849Z</time></trkpt><trkpt lat="45.938164" lon="8.6478235"><ele>199.0</ele><time>2026-05-01T14:18:02.848Z</time></trkpt><trkpt lat="45.9380843" lon="8.6476977"><ele>199.5</ele><time>2026-05-01T14:18:03.848Z</time></trkpt><trkpt lat="45.9379995" lon="8.6475994"><ele>200.0</ele><time>2026-05-01T14:18:04.848Z</time></trkpt><trkpt lat="45.9379152" lon="8.6474732"><ele>200.0</ele><time>2026-05-01T14:18:05.849Z</time></trkpt><trkpt lat="45.9378343" lon="8.6473413"><ele>200.0</ele><time>2026-05-01T14:18:06.848Z</time></trkpt><trkpt lat="45.9377588" lon="8.6472091"><ele>200.0</ele><time>2026-05-01T14:18:07.847Z</time></trkpt><trkpt lat="45.9376807" lon="8.6470895"><ele>200.0</ele><time>2026-05-01T14:18:08.848Z</time></trkpt><trkpt lat="45.9376088" lon="8.6469763"><ele>201.2</ele><time>2026-05-01T14:18:09.849Z</time></trkpt><trkpt lat="45.9375355" lon="8.6468625"><ele>202.4</ele><time>2026-05-01T14:18:10.849Z</time></trkpt><trkpt lat="45.9374708" lon="8.6467463"><ele>203.60000000000002</ele><time>2026-05-01T14:18:11.848Z</time></trkpt><trkpt lat="45.9374083" lon="8.646624"><ele>204.8</ele><time>2026-05-01T14:18:12.85Z</time></trkpt><trkpt lat="45.9373493" lon="8.6464848"><ele>206.0</ele><time>2026-05-01T14:18:13.848Z</time></trkpt><trkpt lat="45.9373163" lon="8.6463153"><ele>206.0</ele><time>2026-05-01T14:18:14.848Z</time></trkpt><trkpt lat="45.9372707" lon="8.6461535"><ele>206.0</ele><time>2026-05-01T14:18:15.849Z</time></trkpt><trkpt lat="45.9372314" lon="8.6459972"><ele>206.0</ele><time>2026-05-01T14:18:16.847Z</time></trkpt><trkpt lat="45.9371884" lon="8.6458529"><ele>206.0</ele><time>2026-05-01T14:18:17.848Z</time></trkpt><trkpt lat="45.9371497" lon="8.6456987"><ele>204.0</ele><time>2026-05-01T14:18:18.849Z</time></trkpt><trkpt lat="45.9371058" lon="8.6455525"><ele>202.0</ele><time>2026-05-01T14:18:19.849Z</time></trkpt><trkpt lat="45.9370809" lon="8.645423"><ele>200.0</ele><time>2026-05-01T14:18:20.849Z</time></trkpt><trkpt lat="45.9370331" lon="8.6452924"><ele>198.0</ele><time>2026-05-01T14:18:21.849Z</time></trkpt><trkpt lat="45.9369821" lon="8.6451681"><ele>196.0</ele><time>2026-05-01T14:18:22.847Z</time></trkpt><trkpt lat="45.9369196" lon="8.6450465"><ele>195.0</ele><time>2026-05-01T14:18:23.848Z</time></trkpt><trkpt lat="45.9368437" lon="8.6449311"><ele>194.0</ele><time>2026-05-01T14:18:24.849Z</time></trkpt><trkpt lat="45.9367616" lon="8.6447998"><ele>193.0</ele><time>2026-05-01T14:18:25.847Z</time></trkpt><trkpt lat="45.9366789" lon="8.6446807"><ele>192.0</ele><time>2026-05-01T14:18:26.848Z</time></trkpt><trkpt lat="45.9365943" lon="8.6445587"><ele>193.8</ele><time>2026-05-01T14:18:27.849Z</time></trkpt><trkpt lat="45.936518" lon="8.6444457"><ele>195.6</ele><time>2026-05-01T14:18:28.847Z</time></trkpt><trkpt lat="45.9364643" lon="8.6443658"><ele>197.4</ele><time>2026-05-01T14:18:29.848Z</time></trkpt><trkpt lat="45.9364023" lon="8.6442909"><ele>199.20000000000002</ele><time>2026-05-01T14:18:30.848Z</time></trkpt><trkpt lat="45.9363045" lon="8.6441765"><ele>201.0</ele><time>2026-05-01T14:18:32.848Z</time></trkpt><trkpt lat="45.9362532" lon="8.6441015"><ele>201.0</ele><time>2026-05-01T14:18:33.849Z</time></trkpt><trkpt lat="45.9362052" lon="8.6440076"><ele>201.0</ele><time>2026-05-01T14:18:34.849Z</time></trkpt><trkpt lat="45.9361524" lon="8.6439013"><ele>201.0</ele><time>2026-05-01T14:18:35.848Z</time></trkpt><trkpt lat="45.9360973" lon="8.6437847"><ele>201.0</ele><time>2026-05-01T14:18:36.849Z</time></trkpt><trkpt lat="45.9360451" lon="8.6436632"><ele>201.0</ele><time>2026-05-01T14:18:37.849Z</time></trkpt><trkpt lat="45.9359862" lon="8.6435401"><ele>199.60000000000002</ele><time>2026-05-01T14:18:38.848Z</time></trkpt><trkpt lat="45.9359227" lon="8.6434275"><ele>198.2</ele><time>2026-05-01T14:18:39.849Z</time></trkpt><trkpt lat="45.9358608" lon="8.6433104"><ele>196.8</ele><time>2026-05-01T14:18:40.849Z</time></trkpt><trkpt lat="45.9358098" lon="8.6431941"><ele>195.39999999999998</ele><time>2026-05-01T14:18:41.848Z</time></trkpt><trkpt lat="45.9357571" lon="8.6430768"><ele>194.0</ele><time>2026-05-01T14:18:42.848Z</time></trkpt><trkpt lat="45.935701" lon="8.6429794"><ele>196.0</ele><time>2026-05-01T14:18:43.849Z</time></trkpt><trkpt lat="45.9356437" lon="8.6428909"><ele>198.0</ele><time>2026-05-01T14:18:44.848Z</time></trkpt><trkpt lat="45.9355857" lon="8.642795"><ele>200.0</ele><time>2026-05-01T14:18:45.849Z</time></trkpt><trkpt lat="45.9355276" lon="8.6426986"><ele>202.0</ele><time>2026-05-01T14:18:46.848Z</time></trkpt><trkpt lat="45.9354615" lon="8.6425985"><ele>204.0</ele><time>2026-05-01T14:18:47.848Z</time></trkpt><trkpt lat="45.9353911" lon="8.6424922"><ele>204.0</ele><time>2026-05-01T14:18:48.848Z</time></trkpt><trkpt lat="45.9353176" lon="8.6423791"><ele>204.0</ele><time>2026-05-01T14:18:49.848Z</time></trkpt><trkpt lat="45.9352365" lon="8.6422723"><ele>204.0</ele><time>2026-05-01T14:18:50.848Z</time></trkpt><trkpt lat="45.9351557" lon="8.6421487"><ele>204.0</ele><time>2026-05-01T14:18:51.848Z</time></trkpt><trkpt lat="45.9350726" lon="8.6420286"><ele>204.2</ele><time>2026-05-01T14:18:52.848Z</time></trkpt><trkpt lat="45.9349975" lon="8.6419071"><ele>204.39999999999998</ele><time>2026-05-01T14:18:53.85Z</time></trkpt><trkpt lat="45.9349175" lon="8.6417965"><ele>204.6</ele><time>2026-05-01T14:18:54.849Z</time></trkpt><trkpt lat="45.9348461" lon="8.6416926"><ele>204.8</ele><time>2026-05-01T14:18:55.849Z</time></trkpt><trkpt lat="45.9347777" lon="8.6415858"><ele>205.0</ele><time>2026-05-01T14:18:56.848Z</time></trkpt><trkpt lat="45.9347027" lon="8.641473"><ele>205.0</ele><time>2026-05-01T14:18:57.847Z</time></trkpt><trkpt lat="45.9346222" lon="8.6413693"><ele>205.0</ele><time>2026-05-01T14:18:58.848Z</time></trkpt><trkpt lat="45.9345354" lon="8.6412567"><ele>205.0</ele><time>2026-05-01T14:18:59.848Z</time></trkpt><trkpt lat="45.9344556" lon="8.6411455"><ele>205.0</ele><time>2026-05-01T14:19:00.849Z</time></trkpt><trkpt lat="45.9343672" lon="8.6410451"><ele>205.0</ele><time>2026-05-01T14:19:01.848Z</time></trkpt><trkpt lat="45.934269" lon="8.6409337"><ele>206.0</ele><time>2026-05-01T14:19:02.849Z</time></trkpt><trkpt lat="45.9341737" lon="8.6408247"><ele>207.0</ele><time>2026-05-01T14:19:03.848Z</time></trkpt><trkpt lat="45.934075" lon="8.6407174"><ele>208.0</ele><time>2026-05-01T14:19:04.848Z</time></trkpt><trkpt lat="45.9339748" lon="8.6405998"><ele>209.0</ele><time>2026-05-01T14:19:05.849Z</time></trkpt><trkpt lat="45.9338682" lon="8.6404946"><ele>209.0</ele><time>2026-05-01T14:19:06.848Z</time></trkpt><trkpt lat="45.9337589" lon="8.6403887"><ele>209.0</ele><time>2026-05-01T14:19:07.848Z</time></trkpt><trkpt lat="45.9336456" lon="8.6402894"><ele>209.0</ele><time>2026-05-01T14:19:08.849Z</time></trkpt><trkpt lat="45.9335342" lon="8.6402003"><ele>209.0</ele><time>2026-05-01T14:19:09.849Z</time></trkpt><trkpt lat="45.9334235" lon="8.6401237"><ele>208.6</ele><time>2026-05-01T14:19:10.848Z</time></trkpt><trkpt lat="45.9333178" lon="8.6400468"><ele>208.2</ele><time>2026-05-01T14:19:11.849Z</time></trkpt><trkpt lat="45.9332229" lon="8.6399846"><ele>207.79999999999998</ele><time>2026-05-01T14:19:12.848Z</time></trkpt><trkpt lat="45.9331293" lon="8.6399282"><ele>207.39999999999998</ele><time>2026-05-01T14:19:13.849Z</time></trkpt><trkpt lat="45.9330427" lon="8.6398755"><ele>207.0</ele><time>2026-05-01T14:19:14.849Z</time></trkpt><trkpt lat="45.9329658" lon="8.6398309"><ele>207.0</ele><time>2026-05-01T14:19:15.848Z</time></trkpt><trkpt lat="45.9328838" lon="8.6397755"><ele>207.0</ele><time>2026-05-01T14:19:16.849Z</time></trkpt><trkpt lat="45.9328031" lon="8.639722"><ele>207.0</ele><time>2026-05-01T14:19:17.848Z</time></trkpt><trkpt lat="45.9327118" lon="8.6396678"><ele>207.0</ele><time>2026-05-01T14:19:18.849Z</time></trkpt><trkpt lat="45.9326212" lon="8.6396174"><ele>207.0</ele><time>2026-05-01T14:19:19.848Z</time></trkpt><trkpt lat="45.9325184" lon="8.6395736"><ele>205.5</ele><time>2026-05-01T14:19:20.849Z</time></trkpt><trkpt lat="45.9324202" lon="8.6395211"><ele>204.0</ele><time>2026-05-01T14:19:21.848Z</time></trkpt><trkpt lat="45.9323123" lon="8.6394662"><ele>202.5</ele><time>2026-05-01T14:19:22.848Z</time></trkpt><trkpt lat="45.9322122" lon="8.63941"><ele>201.0</ele><time>2026-05-01T14:19:23.848Z</time></trkpt><trkpt lat="45.9320977" lon="8.6393449"><ele>201.0</ele><time>2026-05-01T14:19:24.849Z</time></trkpt><trkpt lat="45.9319765" lon="8.6392657"><ele>201.0</ele><time>2026-05-01T14:19:25.848Z</time></trkpt><trkpt lat="45.9318646" lon="8.6391738"><ele>201.0</ele><time>2026-05-01T14:19:26.848Z</time></trkpt><trkpt lat="45.9317533" lon="8.6390903"><ele>201.0</ele><time>2026-05-01T14:19:27.849Z</time></trkpt><trkpt lat="45.9316685" lon="8.6390066"><ele>201.20000000000002</ele><time>2026-05-01T14:19:28.848Z</time></trkpt><trkpt lat="45.9315729" lon="8.6389195"><ele>201.4</ele><time>2026-05-01T14:19:29.849Z</time></trkpt><trkpt lat="45.9314815" lon="8.6388411"><ele>201.6</ele><time>2026-05-01T14:19:30.849Z</time></trkpt><trkpt lat="45.9313857" lon="8.6387625"><ele>201.8</ele><time>2026-05-01T14:19:31.848Z</time></trkpt><trkpt lat="45.9312848" lon="8.6386771"><ele>202.0</ele><time>2026-05-01T14:19:32.847Z</time></trkpt><trkpt lat="45.9311811" lon="8.6385864"><ele>202.0</ele><time>2026-05-01T14:19:33.847Z</time></trkpt><trkpt lat="45.9310849" lon="8.6384962"><ele>202.0</ele><time>2026-05-01T14:19:34.847Z</time></trkpt><trkpt lat="45.9309848" lon="8.6384014"><ele>202.0</ele><time>2026-05-01T14:19:35.848Z</time></trkpt><trkpt lat="45.9308906" lon="8.6383067"><ele>202.0</ele><time>2026-05-01T14:19:36.848Z</time></trkpt><trkpt lat="45.9307993" lon="8.6382156"><ele>207.25</ele><time>2026-05-01T14:19:37.847Z</time></trkpt><trkpt lat="45.9307086" lon="8.6381233"><ele>212.5</ele><time>2026-05-01T14:19:38.847Z</time></trkpt><trkpt lat="45.930626" lon="8.6380351"><ele>217.75</ele><time>2026-05-01T14:19:39.847Z</time></trkpt><trkpt lat="45.9305225" lon="8.6379889"><ele>223.0</ele><time>2026-05-01T14:19:40.847Z</time></trkpt><trkpt lat="45.930329" lon="8.6376983"><ele>223.0</ele><time>2026-05-01T14:19:42.848Z</time></trkpt><trkpt lat="45.9302512" lon="8.6375952"><ele>223.0</ele><time>2026-05-01T14:19:43.848Z</time></trkpt><trkpt lat="45.9301715" lon="8.6374868"><ele>223.0</ele><time>2026-05-01T14:19:44.848Z</time></trkpt><trkpt lat="45.9300922" lon="8.6373754"><ele>223.0</ele><time>2026-05-01T14:19:45.847Z</time></trkpt><trkpt lat="45.9300176" lon="8.6372656"><ele>223.0</ele><time>2026-05-01T14:19:46.848Z</time></trkpt><trkpt lat="45.9290643" lon="8.6354277"><ele>222.0</ele><time>2026-05-01T14:19:53.848Z</time></trkpt><trkpt lat="45.9289616" lon="8.6353459"><ele>221.0</ele><time>2026-05-01T14:19:54.847Z</time></trkpt><trkpt lat="45.928809" lon="8.6352935"><ele>220.0</ele><time>2026-05-01T14:19:55.848Z</time></trkpt><trkpt lat="45.9287351" lon="8.635202"><ele>219.0</ele><time>2026-05-01T14:19:56.848Z</time></trkpt><trkpt lat="45.9286413" lon="8.6351065"><ele>223.25</ele><time>2026-05-01T14:19:57.848Z</time></trkpt><trkpt lat="45.9285542" lon="8.6350293"><ele>227.5</ele><time>2026-05-01T14:19:58.847Z</time></trkpt><trkpt lat="45.9284425" lon="8.6348997"><ele>231.75</ele><time>2026-05-01T14:19:59.847Z</time></trkpt><trkpt lat="45.9283347" lon="8.634807"><ele>236.0</ele><time>2026-05-01T14:20:00.848Z</time></trkpt><trkpt lat="45.9282264" lon="8.6347063"><ele>236.0</ele><time>2026-05-01T14:20:01.848Z</time></trkpt><trkpt lat="45.9281177" lon="8.6346083"><ele>236.0</ele><time>2026-05-01T14:20:02.848Z</time></trkpt><trkpt lat="45.9280225" lon="8.6345109"><ele>236.0</ele><time>2026-05-01T14:20:03.847Z</time></trkpt><trkpt lat="45.9279148" lon="8.6344139"><ele>236.0</ele><time>2026-05-01T14:20:04.848Z</time></trkpt><trkpt lat="45.9278307" lon="8.6343081"><ele>221.0</ele><time>2026-05-01T14:20:05.848Z</time></trkpt><trkpt lat="45.9277792" lon="8.634209"><ele>206.0</ele><time>2026-05-01T14:20:06.848Z</time></trkpt><trkpt lat="45.9268246" lon="8.6323635"><ele>212.5</ele><time>2026-05-01T14:20:17.848Z</time></trkpt><trkpt lat="45.9267067" lon="8.6322127"><ele>219.0</ele><time>2026-05-01T14:20:18.848Z</time></trkpt><trkpt lat="45.9266198" lon="8.6320947"><ele>225.5</ele><time>2026-05-01T14:20:19.847Z</time></trkpt><trkpt lat="45.9265023" lon="8.6319153"><ele>232.0</ele><time>2026-05-01T14:20:20.848Z</time></trkpt><trkpt lat="45.9264979" lon="8.6317359"><ele>232.0</ele><time>2026-05-01T14:20:21.848Z</time></trkpt><trkpt lat="45.9265267" lon="8.6316092"><ele>232.0</ele><time>2026-05-01T14:20:22.848Z</time></trkpt><trkpt lat="45.9265183" lon="8.6314842"><ele>232.0</ele><time>2026-05-01T14:20:23.848Z</time></trkpt><trkpt lat="45.9265012" lon="8.6313341"><ele>232.0</ele><time>2026-05-01T14:20:24.848Z</time></trkpt><trkpt lat="45.9264841" lon="8.6311978"><ele>232.0</ele><time>2026-05-01T14:20:25.847Z</time></trkpt><trkpt lat="45.9264674" lon="8.6310433"><ele>228.2</ele><time>2026-05-01T14:20:26.848Z</time></trkpt><trkpt lat="45.9264496" lon="8.6309011"><ele>224.39999999999998</ele><time>2026-05-01T14:20:27.848Z</time></trkpt><trkpt lat="45.926431" lon="8.6307592"><ele>220.60000000000002</ele><time>2026-05-01T14:20:28.848Z</time></trkpt><trkpt lat="45.926413" lon="8.6306167"><ele>216.8</ele><time>2026-05-01T14:20:29.848Z</time></trkpt><trkpt lat="45.9263939" lon="8.6304764"><ele>213.0</ele><time>2026-05-01T14:20:30.848Z</time></trkpt><trkpt lat="45.926365" lon="8.6302696"><ele>210.0</ele><time>2026-05-01T14:20:31.847Z</time></trkpt><trkpt lat="45.9263097" lon="8.6299215"><ele>207.0</ele><time>2026-05-01T14:20:32.848Z</time></trkpt><trkpt lat="45.9262569" lon="8.6297074"><ele>204.0</ele><time>2026-05-01T14:20:33.848Z</time></trkpt><trkpt lat="45.9261993" lon="8.6295451"><ele>200.75</ele><time>2026-05-01T14:20:34.848Z</time></trkpt><trkpt lat="45.9261345" lon="8.6293746"><ele>197.5</ele><time>2026-05-01T14:20:35.848Z</time></trkpt><trkpt lat="45.9260283" lon="8.6292447"><ele>194.25</ele><time>2026-05-01T14:20:36.848Z</time></trkpt><trkpt lat="45.925954" lon="8.6291376"><ele>191.0</ele><time>2026-05-01T14:20:37.848Z</time></trkpt><trkpt lat="45.9258718" lon="8.6290363"><ele>194.5</ele><time>2026-05-01T14:20:38.848Z</time></trkpt><trkpt lat="45.9257876" lon="8.628942"><ele>198.0</ele><time>2026-05-01T14:20:39.847Z</time></trkpt><trkpt lat="45.9257026" lon="8.6288458"><ele>201.5</ele><time>2026-05-01T14:20:40.848Z</time></trkpt><trkpt lat="45.9256241" lon="8.6287483"><ele>205.0</ele><time>2026-05-01T14:20:41.847Z</time></trkpt><trkpt lat="45.925498" lon="8.6286036"><ele>205.0</ele><time>2026-05-01T14:20:42.848Z</time></trkpt><trkpt lat="45.9253138" lon="8.6283833"><ele>205.0</ele><time>2026-05-01T14:20:43.847Z</time></trkpt><trkpt lat="45.9252587" lon="8.6281964"><ele>205.0</ele><time>2026-05-01T14:20:44.848Z</time></trkpt><trkpt lat="45.9252696" lon="8.6279431"><ele>205.0</ele><time>2026-05-01T14:20:45.848Z</time></trkpt><trkpt lat="45.9252679" lon="8.6278324"><ele>205.0</ele><time>2026-05-01T14:20:46.848Z</time></trkpt><trkpt lat="45.9252565" lon="8.6276541"><ele>205.0</ele><time>2026-05-01T14:20:47.847Z</time></trkpt><trkpt lat="45.9252437" lon="8.6274936"><ele>205.0</ele><time>2026-05-01T14:20:48.847Z</time></trkpt><trkpt lat="45.9252269" lon="8.627362"><ele>205.0</ele><time>2026-05-01T14:20:49.848Z</time></trkpt><trkpt lat="45.9252044" lon="8.6272044"><ele>202.75</ele><time>2026-05-01T14:20:50.848Z</time></trkpt><trkpt lat="45.925169" lon="8.6270534"><ele>200.5</ele><time>2026-05-01T14:20:51.848Z</time></trkpt><trkpt lat="45.9251" lon="8.6268891"><ele>198.25</ele><time>2026-05-01T14:20:52.847Z</time></trkpt><trkpt lat="45.9250388" lon="8.6267319"><ele>196.0</ele><time>2026-05-01T14:20:53.848Z</time></trkpt><trkpt lat="45.9249802" lon="8.6265468"><ele>197.75</ele><time>2026-05-01T14:20:54.847Z</time></trkpt><trkpt lat="45.9249044" lon="8.6263727"><ele>199.5</ele><time>2026-05-01T14:20:55.848Z</time></trkpt><trkpt lat="45.9248451" lon="8.6261944"><ele>201.25</ele><time>2026-05-01T14:20:56.846Z</time></trkpt><trkpt lat="45.9247869" lon="8.626015"><ele>203.0</ele><time>2026-05-01T14:20:57.848Z</time></trkpt><trkpt lat="45.9247031" lon="8.6257797"><ele>203.0</ele><time>2026-05-01T14:20:58.848Z</time></trkpt><trkpt lat="45.9246283" lon="8.6255743"><ele>203.0</ele><time>2026-05-01T14:20:59.848Z</time></trkpt><trkpt lat="45.9245749" lon="8.6253846"><ele>203.0</ele><time>2026-05-01T14:21:00.848Z</time></trkpt><trkpt lat="45.9245202" lon="8.6252047"><ele>203.0</ele><time>2026-05-01T14:21:01.847Z</time></trkpt><trkpt lat="45.9244748" lon="8.6250458"><ele>201.25</ele><time>2026-05-01T14:21:02.848Z</time></trkpt><trkpt lat="45.9244271" lon="8.6248877"><ele>199.5</ele><time>2026-05-01T14:21:03.848Z</time></trkpt><trkpt lat="45.9243503" lon="8.6247434"><ele>197.75</ele><time>2026-05-01T14:21:04.847Z</time></trkpt><trkpt lat="45.9242708" lon="8.6245808"><ele>196.0</ele><time>2026-05-01T14:21:05.847Z</time></trkpt><trkpt lat="45.9242291" lon="8.6244321"><ele>204.20000000000002</ele><time>2026-05-01T14:21:06.848Z</time></trkpt><trkpt lat="45.924192" lon="8.6243125"><ele>212.4</ele><time>2026-05-01T14:21:07.848Z</time></trkpt><trkpt lat="45.9241589" lon="8.6241842"><ele>220.6</ele><time>2026-05-01T14:21:08.847Z</time></trkpt><trkpt lat="45.9241244" lon="8.6239966"><ele>228.8</ele><time>2026-05-01T14:21:10.847Z</time></trkpt><trkpt lat="45.9241017" lon="8.6238624"><ele>237.0</ele><time>2026-05-01T14:21:11.848Z</time></trkpt><trkpt lat="45.9241358" lon="8.6237089"><ele>233.39999999999998</ele><time>2026-05-01T14:21:12.848Z</time></trkpt><trkpt lat="45.9241691" lon="8.6235579"><ele>229.79999999999998</ele><time>2026-05-01T14:21:13.847Z</time></trkpt><trkpt lat="45.9241988" lon="8.6234099"><ele>226.2</ele><time>2026-05-01T14:21:14.848Z</time></trkpt><trkpt lat="45.9242162" lon="8.6232732"><ele>222.6</ele><time>2026-05-01T14:21:15.848Z</time></trkpt><trkpt lat="45.9242253" lon="8.6231466"><ele>219.0</ele><time>2026-05-01T14:21:16.848Z</time></trkpt><trkpt lat="45.9242128" lon="8.6230093"><ele>219.0</ele><time>2026-05-01T14:21:17.848Z</time></trkpt><trkpt lat="45.9241809" lon="8.6228774"><ele>218.99999999999997</ele><time>2026-05-01T14:21:18.848Z</time></trkpt><trkpt lat="45.9241363" lon="8.6227465"><ele>218.99999999999997</ele><time>2026-05-01T14:21:19.847Z</time></trkpt><trkpt lat="45.9240872" lon="8.6226095"><ele>219.0</ele><time>2026-05-01T14:21:20.848Z</time></trkpt><trkpt lat="45.9240382" lon="8.6224687"><ele>219.0</ele><time>2026-05-01T14:21:21.848Z</time></trkpt><trkpt lat="45.9239855" lon="8.6223203"><ele>216.75</ele><time>2026-05-01T14:21:22.848Z</time></trkpt><trkpt lat="45.9239349" lon="8.6221618"><ele>214.5</ele><time>2026-05-01T14:21:23.847Z</time></trkpt><trkpt lat="45.9238789" lon="8.6220012"><ele>212.25</ele><time>2026-05-01T14:21:24.848Z</time></trkpt><trkpt lat="45.9238199" lon="8.6218342"><ele>210.0</ele><time>2026-05-01T14:21:25.848Z</time></trkpt><trkpt lat="45.923765" lon="8.6216793"><ele>208.4</ele><time>2026-05-01T14:21:26.848Z</time></trkpt><trkpt lat="45.9237127" lon="8.6215366"><ele>206.8</ele><time>2026-05-01T14:21:27.848Z</time></trkpt><trkpt lat="45.9236634" lon="8.6214074"><ele>205.2</ele><time>2026-05-01T14:21:28.848Z</time></trkpt><trkpt lat="45.92361" lon="8.6212831"><ele>203.6</ele><time>2026-05-01T14:21:29.848Z</time></trkpt><trkpt lat="45.9235521" lon="8.6211629"><ele>202.0</ele><time>2026-05-01T14:21:30.847Z</time></trkpt><trkpt lat="45.9234908" lon="8.6210437"><ele>200.0</ele><time>2026-05-01T14:21:31.848Z</time></trkpt><trkpt lat="45.9234265" lon="8.6209263"><ele>198.0</ele><time>2026-05-01T14:21:32.848Z</time></trkpt><trkpt lat="45.9233616" lon="8.62082"><ele>196.0</ele><time>2026-05-01T14:21:33.847Z</time></trkpt><trkpt lat="45.9232954" lon="8.6207284"><ele>194.0</ele><time>2026-05-01T14:21:34.848Z</time></trkpt><trkpt lat="45.9232337" lon="8.6206453"><ele>192.0</ele><time>2026-05-01T14:21:35.848Z</time></trkpt><trkpt lat="45.9231779" lon="8.6205682"><ele>194.5</ele><time>2026-05-01T14:21:36.847Z</time></trkpt><trkpt lat="45.923127" lon="8.6204978"><ele>197.0</ele><time>2026-05-01T14:21:37.847Z</time></trkpt><trkpt lat="45.9230475" lon="8.6203827"><ele>199.5</ele><time>2026-05-01T14:21:39.848Z</time></trkpt><trkpt lat="45.9229793" lon="8.62026"><ele>202.0</ele><time>2026-05-01T14:21:41.848Z</time></trkpt><trkpt lat="45.922947" lon="8.6201775"><ele>204.5</ele><time>2026-05-01T14:21:42.848Z</time></trkpt><trkpt lat="45.9229192" lon="8.620077"><ele>207.0</ele><time>2026-05-01T14:21:43.848Z</time></trkpt><trkpt lat="45.9228903" lon="8.619964"><ele>207.0</ele><time>2026-05-01T14:21:44.848Z</time></trkpt><trkpt lat="45.9228581" lon="8.619837"><ele>207.0</ele><time>2026-05-01T14:21:45.848Z</time></trkpt><trkpt lat="45.9228223" lon="8.6196971"><ele>207.0</ele><time>2026-05-01T14:21:46.847Z</time></trkpt><trkpt lat="45.9227851" lon="8.6195512"><ele>207.0</ele><time>2026-05-01T14:21:47.848Z</time></trkpt><trkpt lat="45.9227504" lon="8.61941"><ele>207.0</ele><time>2026-05-01T14:21:48.848Z</time></trkpt><trkpt lat="45.9227137" lon="8.6192815"><ele>204.8</ele><time>2026-05-01T14:21:49.848Z</time></trkpt><trkpt lat="45.9226689" lon="8.6191555"><ele>202.6</ele><time>2026-05-01T14:21:50.848Z</time></trkpt><trkpt lat="45.9226206" lon="8.6190271"><ele>200.4</ele><time>2026-05-01T14:21:51.847Z</time></trkpt><trkpt lat="45.9225718" lon="8.6188973"><ele>198.20000000000002</ele><time>2026-05-01T14:21:52.847Z</time></trkpt><trkpt lat="45.9225231" lon="8.6187787"><ele>196.0</ele><time>2026-05-01T14:21:53.848Z</time></trkpt><trkpt lat="45.922475" lon="8.6186668"><ele>198.83333333333331</ele><time>2026-05-01T14:21:54.847Z</time></trkpt><trkpt lat="45.9224304" lon="8.6185561"><ele>201.66666666666666</ele><time>2026-05-01T14:21:55.848Z</time></trkpt><trkpt lat="45.9223823" lon="8.6184422"><ele>204.5</ele><time>2026-05-01T14:21:56.848Z</time></trkpt><trkpt lat="45.922334" lon="8.6183372"><ele>207.33333333333331</ele><time>2026-05-01T14:21:57.848Z</time></trkpt><trkpt lat="45.9222896" lon="8.6182326"><ele>210.16666666666666</ele><time>2026-05-01T14:21:58.848Z</time></trkpt><trkpt lat="45.9222491" lon="8.6181348"><ele>213.0</ele><time>2026-05-01T14:21:59.847Z</time></trkpt><trkpt lat="45.9222035" lon="8.6180339"><ele>213.0</ele><time>2026-05-01T14:22:00.847Z</time></trkpt><trkpt lat="45.9221514" lon="8.6179349"><ele>213.0</ele><time>2026-05-01T14:22:01.848Z</time></trkpt><trkpt lat="45.9220888" lon="8.6178462"><ele>213.0</ele><time>2026-05-01T14:22:02.848Z</time></trkpt><trkpt lat="45.922018" lon="8.6177576"><ele>213.0</ele><time>2026-05-01T14:22:03.847Z</time></trkpt><trkpt lat="45.9219315" lon="8.6176662"><ele>213.0</ele><time>2026-05-01T14:22:04.848Z</time></trkpt><trkpt lat="45.9218267" lon="8.6175822"><ele>213.75</ele><time>2026-05-01T14:22:05.848Z</time></trkpt><trkpt lat="45.9217244" lon="8.6174818"><ele>214.5</ele><time>2026-05-01T14:22:06.847Z</time></trkpt><trkpt lat="45.9216035" lon="8.6173848"><ele>215.25</ele><time>2026-05-01T14:22:07.847Z</time></trkpt><trkpt lat="45.921494" lon="8.6172862"><ele>216.0</ele><time>2026-05-01T14:22:08.848Z</time></trkpt><trkpt lat="45.921396" lon="8.6171913"><ele>216.0</ele><time>2026-05-01T14:22:09.849Z</time></trkpt><trkpt lat="45.9213037" lon="8.6171052"><ele>216.00000000000003</ele><time>2026-05-01T14:22:10.849Z</time></trkpt><trkpt lat="45.921208" lon="8.6170168"><ele>216.00000000000003</ele><time>2026-05-01T14:22:11.846Z</time></trkpt><trkpt lat="45.9211157" lon="8.6169322"><ele>216.0</ele><time>2026-05-01T14:22:12.849Z</time></trkpt><trkpt lat="45.9210171" lon="8.6168513"><ele>216.0</ele><time>2026-05-01T14:22:13.848Z</time></trkpt><trkpt lat="45.9209275" lon="8.6167745"><ele>216.4</ele><time>2026-05-01T14:22:14.848Z</time></trkpt><trkpt lat="45.9208355" lon="8.6166942"><ele>216.8</ele><time>2026-05-01T14:22:15.848Z</time></trkpt><trkpt lat="45.9207486" lon="8.6166157"><ele>217.20000000000002</ele><time>2026-05-01T14:22:16.849Z</time></trkpt><trkpt lat="45.9206553" lon="8.6165486"><ele>217.60000000000002</ele><time>2026-05-01T14:22:17.847Z</time></trkpt><trkpt lat="45.9205682" lon="8.616493"><ele>218.0</ele><time>2026-05-01T14:22:18.848Z</time></trkpt><trkpt lat="45.9204866" lon="8.6164496"><ele>218.0</ele><time>2026-05-01T14:22:19.848Z</time></trkpt><trkpt lat="45.9203935" lon="8.6164272"><ele>218.0</ele><time>2026-05-01T14:22:20.848Z</time></trkpt><trkpt lat="45.9202917" lon="8.6164017"><ele>218.0</ele><time>2026-05-01T14:22:21.847Z</time></trkpt><trkpt lat="45.920196" lon="8.6163699"><ele>218.0</ele><time>2026-05-01T14:22:22.847Z</time></trkpt><trkpt lat="45.9200927" lon="8.6163447"><ele>218.0</ele><time>2026-05-01T14:22:23.848Z</time></trkpt><trkpt lat="45.9199908" lon="8.616323"><ele>220.8</ele><time>2026-05-01T14:22:24.848Z</time></trkpt><trkpt lat="45.9198898" lon="8.616295"><ele>223.60000000000002</ele><time>2026-05-01T14:22:25.849Z</time></trkpt><trkpt lat="45.9197864" lon="8.616256"><ele>226.39999999999998</ele><time>2026-05-01T14:22:26.849Z</time></trkpt><trkpt lat="45.9196731" lon="8.6162367"><ele>229.2</ele><time>2026-05-01T14:22:27.848Z</time></trkpt><trkpt lat="45.9195666" lon="8.6162202"><ele>232.0</ele><time>2026-05-01T14:22:28.849Z</time></trkpt><trkpt lat="45.9194772" lon="8.6162039"><ele>232.0</ele><time>2026-05-01T14:22:29.848Z</time></trkpt><trkpt lat="45.9193854" lon="8.6162079"><ele>232.0</ele><time>2026-05-01T14:22:30.846Z</time></trkpt><trkpt lat="45.9192894" lon="8.6162164"><ele>232.0</ele><time>2026-05-01T14:22:31.848Z</time></trkpt><trkpt lat="45.9191959" lon="8.6162508"><ele>232.0</ele><time>2026-05-01T14:22:32.848Z</time></trkpt><trkpt lat="45.919104" lon="8.6162951"><ele>232.0</ele><time>2026-05-01T14:22:33.847Z</time></trkpt><trkpt lat="45.9190049" lon="8.6163737"><ele>230.8</ele><time>2026-05-01T14:22:34.849Z</time></trkpt><trkpt lat="45.9189117" lon="8.6164587"><ele>229.6</ele><time>2026-05-01T14:22:35.849Z</time></trkpt><trkpt lat="45.9188211" lon="8.6165561"><ele>228.40000000000003</ele><time>2026-05-01T14:22:36.849Z</time></trkpt><trkpt lat="45.9187331" lon="8.6166449"><ele>227.20000000000002</ele><time>2026-05-01T14:22:37.847Z</time></trkpt><trkpt lat="45.9186417" lon="8.6167382"><ele>226.0</ele><time>2026-05-01T14:22:38.849Z</time></trkpt><trkpt lat="45.918552" lon="8.6168365"><ele>226.0</ele><time>2026-05-01T14:22:39.847Z</time></trkpt><trkpt lat="45.9184565" lon="8.6169312"><ele>226.0</ele><time>2026-05-01T14:22:40.849Z</time></trkpt><trkpt lat="45.9183548" lon="8.6170283"><ele>226.0</ele><time>2026-05-01T14:22:41.848Z</time></trkpt><trkpt lat="45.9182462" lon="8.6171002"><ele>226.0</ele><time>2026-05-01T14:22:42.849Z</time></trkpt><trkpt lat="45.9181221" lon="8.6171847"><ele>225.25</ele><time>2026-05-01T14:22:43.848Z</time></trkpt><trkpt lat="45.9179936" lon="8.6172443"><ele>224.5</ele><time>2026-05-01T14:22:44.847Z</time></trkpt><trkpt lat="45.9178672" lon="8.6173074"><ele>223.75</ele><time>2026-05-01T14:22:45.848Z</time></trkpt><trkpt lat="45.9177392" lon="8.6173613"><ele>223.0</ele><time>2026-05-01T14:22:46.848Z</time></trkpt><trkpt lat="45.9176083" lon="8.6174094"><ele>222.5</ele><time>2026-05-01T14:22:47.848Z</time></trkpt><trkpt lat="45.9174766" lon="8.617461"><ele>222.0</ele><time>2026-05-01T14:22:48.848Z</time></trkpt><trkpt lat="45.9173466" lon="8.6175063"><ele>221.5</ele><time>2026-05-01T14:22:49.849Z</time></trkpt><trkpt lat="45.9172077" lon="8.6175467"><ele>221.0</ele><time>2026-05-01T14:22:50.848Z</time></trkpt><trkpt lat="45.9170803" lon="8.6175927"><ele>221.0</ele><time>2026-05-01T14:22:51.848Z</time></trkpt><trkpt lat="45.9169629" lon="8.617635"><ele>221.0</ele><time>2026-05-01T14:22:52.848Z</time></trkpt><trkpt lat="45.9168511" lon="8.6176771"><ele>221.0</ele><time>2026-05-01T14:22:53.848Z</time></trkpt><trkpt lat="45.916739" lon="8.6177131"><ele>221.0</ele><time>2026-05-01T14:22:54.848Z</time></trkpt><trkpt lat="45.9166333" lon="8.6177459"><ele>221.5</ele><time>2026-05-01T14:22:55.849Z</time></trkpt><trkpt lat="45.9165305" lon="8.617787"><ele>222.0</ele><time>2026-05-01T14:22:56.847Z</time></trkpt><trkpt lat="45.916421" lon="8.617839"><ele>222.5</ele><time>2026-05-01T14:22:57.847Z</time></trkpt><trkpt lat="45.9163102" lon="8.6178688"><ele>223.0</ele><time>2026-05-01T14:22:58.847Z</time></trkpt><trkpt lat="45.9161915" lon="8.617915"><ele>222.8</ele><time>2026-05-01T14:22:59.848Z</time></trkpt><trkpt lat="45.9160716" lon="8.6179634"><ele>222.60000000000002</ele><time>2026-05-01T14:23:00.848Z</time></trkpt><trkpt lat="45.9159595" lon="8.6179949"><ele>222.39999999999998</ele><time>2026-05-01T14:23:01.848Z</time></trkpt><trkpt lat="45.9158648" lon="8.6180161"><ele>222.2</ele><time>2026-05-01T14:23:02.847Z</time></trkpt><trkpt lat="45.915765" lon="8.6180248"><ele>222.0</ele><time>2026-05-01T14:23:03.848Z</time></trkpt><trkpt lat="45.9156538" lon="8.6180201"><ele>222.0</ele><time>2026-05-01T14:23:04.846Z</time></trkpt><trkpt lat="45.9155354" lon="8.6179995"><ele>222.0</ele><time>2026-05-01T14:23:05.848Z</time></trkpt><trkpt lat="45.9154199" lon="8.6179791"><ele>222.0</ele><time>2026-05-01T14:23:06.847Z</time></trkpt><trkpt lat="45.9152868" lon="8.6179645"><ele>222.0</ele><time>2026-05-01T14:23:07.848Z</time></trkpt><trkpt lat="45.9151559" lon="8.6179565"><ele>221.25</ele><time>2026-05-01T14:23:08.849Z</time></trkpt><trkpt lat="45.9150387" lon="8.6179404"><ele>220.5</ele><time>2026-05-01T14:23:09.847Z</time></trkpt><trkpt lat="45.9149223" lon="8.6179303"><ele>219.75</ele><time>2026-05-01T14:23:10.848Z</time></trkpt><trkpt lat="45.9148072" lon="8.6179249"><ele>219.0</ele><time>2026-05-01T14:23:11.848Z</time></trkpt><trkpt lat="45.9146974" lon="8.6179145"><ele>219.0</ele><time>2026-05-01T14:23:12.848Z</time></trkpt><trkpt lat="45.914586" lon="8.6179038"><ele>219.0</ele><time>2026-05-01T14:23:13.847Z</time></trkpt><trkpt lat="45.9144881" lon="8.617891"><ele>219.0</ele><time>2026-05-01T14:23:14.848Z</time></trkpt><trkpt lat="45.9143935" lon="8.617882"><ele>219.0</ele><time>2026-05-01T14:23:15.848Z</time></trkpt><trkpt lat="45.9143192" lon="8.6178713"><ele>219.0</ele><time>2026-05-01T14:23:16.848Z</time></trkpt><trkpt lat="45.9142508" lon="8.6178716"><ele>219.0</ele><time>2026-05-01T14:23:17.849Z</time></trkpt><trkpt lat="45.9141488" lon="8.617862"><ele>218.39999999999998</ele><time>2026-05-01T14:23:19.848Z</time></trkpt><trkpt lat="45.9140412" lon="8.6178302"><ele>217.79999999999998</ele><time>2026-05-01T14:23:21.848Z</time></trkpt><trkpt lat="45.9139817" lon="8.6177955"><ele>217.20000000000002</ele><time>2026-05-01T14:23:22.849Z</time></trkpt><trkpt lat="45.913881" lon="8.6177239"><ele>216.60000000000002</ele><time>2026-05-01T14:23:24.847Z</time></trkpt><trkpt lat="45.9137625" lon="8.6176453"><ele>216.0</ele><time>2026-05-01T14:23:26.848Z</time></trkpt><trkpt lat="45.9136905" lon="8.6175993"><ele>215.5</ele><time>2026-05-01T14:23:27.849Z</time></trkpt><trkpt lat="45.9136162" lon="8.6175411"><ele>215.0</ele><time>2026-05-01T14:23:28.848Z</time></trkpt><trkpt lat="45.9135411" lon="8.6174733"><ele>214.5</ele><time>2026-05-01T14:23:29.848Z</time></trkpt><trkpt lat="45.9134586" lon="8.6174134"><ele>214.0</ele><time>2026-05-01T14:23:30.848Z</time></trkpt><trkpt lat="45.9133759" lon="8.6173742"><ele>213.5</ele><time>2026-05-01T14:23:31.847Z</time></trkpt><trkpt lat="45.9132947" lon="8.6173435"><ele>213.0</ele><time>2026-05-01T14:23:32.848Z</time></trkpt><trkpt lat="45.9132039" lon="8.6173371"><ele>212.4</ele><time>2026-05-01T14:23:33.848Z</time></trkpt><trkpt lat="45.9131112" lon="8.6173518"><ele>211.8</ele><time>2026-05-01T14:23:34.846Z</time></trkpt><trkpt lat="45.9130206" lon="8.6173848"><ele>211.2</ele><time>2026-05-01T14:23:35.848Z</time></trkpt><trkpt lat="45.9129306" lon="8.6174347"><ele>210.6</ele><time>2026-05-01T14:23:36.847Z</time></trkpt><trkpt lat="45.9128471" lon="8.6174827"><ele>210.0</ele><time>2026-05-01T14:23:37.847Z</time></trkpt><trkpt lat="45.9127641" lon="8.6175348"><ele>210.0</ele><time>2026-05-01T14:23:38.848Z</time></trkpt><trkpt lat="45.9126736" lon="8.6175924"><ele>210.0</ele><time>2026-05-01T14:23:39.848Z</time></trkpt><trkpt lat="45.9125858" lon="8.6176529"><ele>210.0</ele><time>2026-05-01T14:23:40.848Z</time></trkpt><trkpt lat="45.9125063" lon="8.6177026"><ele>210.0</ele><time>2026-05-01T14:23:41.848Z</time></trkpt><trkpt lat="45.9124317" lon="8.6177519"><ele>210.0</ele><time>2026-05-01T14:23:42.849Z</time></trkpt><trkpt lat="45.9123572" lon="8.6177993"><ele>210.0</ele><time>2026-05-01T14:23:43.848Z</time></trkpt><trkpt lat="45.9122817" lon="8.6178491"><ele>211.5</ele><time>2026-05-01T14:23:44.849Z</time></trkpt><trkpt lat="45.9122056" lon="8.6178939"><ele>213.0</ele><time>2026-05-01T14:23:45.848Z</time></trkpt><trkpt lat="45.9121191" lon="8.6179409"><ele>214.5</ele><time>2026-05-01T14:23:46.847Z</time></trkpt><trkpt lat="45.9120367" lon="8.6179868"><ele>216.0</ele><time>2026-05-01T14:23:47.848Z</time></trkpt><trkpt lat="45.9119556" lon="8.6180307"><ele>217.5</ele><time>2026-05-01T14:23:48.849Z</time></trkpt><trkpt lat="45.9118798" lon="8.6180922"><ele>219.0</ele><time>2026-05-01T14:23:49.847Z</time></trkpt><trkpt lat="45.9118126" lon="8.6181576"><ele>219.0</ele><time>2026-05-01T14:23:50.848Z</time></trkpt><trkpt lat="45.9117542" lon="8.6182266"><ele>219.0</ele><time>2026-05-01T14:23:51.848Z</time></trkpt><trkpt lat="45.911703" lon="8.6182909"><ele>219.0</ele><time>2026-05-01T14:23:52.848Z</time></trkpt><trkpt lat="45.9116473" lon="8.6183557"><ele>219.0</ele><time>2026-05-01T14:23:53.848Z</time></trkpt><trkpt lat="45.9115937" lon="8.6184047"><ele>219.0</ele><time>2026-05-01T14:23:54.847Z</time></trkpt><trkpt lat="45.9114765" lon="8.6184618"><ele>219.0</ele><time>2026-05-01T14:23:56.848Z</time></trkpt><trkpt lat="45.9114057" lon="8.6184735"><ele>217.16666666666666</ele><time>2026-05-01T14:23:57.846Z</time></trkpt><trkpt lat="45.9113321" lon="8.6184724"><ele>215.33333333333331</ele><time>2026-05-01T14:23:58.849Z</time></trkpt><trkpt lat="45.9112644" lon="8.618451"><ele>213.5</ele><time>2026-05-01T14:23:59.847Z</time></trkpt><trkpt lat="45.911204" lon="8.6184237"><ele>211.66666666666666</ele><time>2026-05-01T14:24:00.847Z</time></trkpt><trkpt lat="45.9111334" lon="8.6183537"><ele>209.83333333333331</ele><time>2026-05-01T14:24:02.849Z</time></trkpt><trkpt lat="45.9110674" lon="8.6182757"><ele>208.0</ele><time>2026-05-01T14:24:04.848Z</time></trkpt><trkpt lat="45.9109994" lon="8.6182159"><ele>207.99999999999997</ele><time>2026-05-01T14:24:06.849Z</time></trkpt><trkpt lat="45.9109199" lon="8.6181861"><ele>208.0</ele><time>2026-05-01T14:24:08.849Z</time></trkpt><trkpt lat="45.9108386" lon="8.6181748"><ele>208.0</ele><time>2026-05-01T14:24:10.849Z</time></trkpt><trkpt lat="45.9107631" lon="8.6181968"><ele>208.0</ele><time>2026-05-01T14:24:12.847Z</time></trkpt><trkpt lat="45.91069" lon="8.6182388"><ele>207.99999999999997</ele><time>2026-05-01T14:24:14.847Z</time></trkpt><trkpt lat="45.9106354" lon="8.6183"><ele>208.0</ele><time>2026-05-01T14:24:16.848Z</time></trkpt><trkpt lat="45.9105693" lon="8.6183998"><ele>207.4</ele><time>2026-05-01T14:24:18.849Z</time></trkpt><trkpt lat="45.9105015" lon="8.618535"><ele>206.8</ele><time>2026-05-01T14:24:20.848Z</time></trkpt><trkpt lat="45.9104363" lon="8.6186607"><ele>206.2</ele><time>2026-05-01T14:24:22.848Z</time></trkpt><trkpt lat="45.9103866" lon="8.618758"><ele>205.6</ele><time>2026-05-01T14:24:24.848Z</time></trkpt><trkpt lat="45.9103365" lon="8.6188641"><ele>205.0</ele><time>2026-05-01T14:24:26.848Z</time></trkpt><trkpt lat="45.9102925" lon="8.6189602"><ele>205.0</ele><time>2026-05-01T14:24:28.849Z</time></trkpt><trkpt lat="45.9102367" lon="8.6190541"><ele>205.0</ele><time>2026-05-01T14:24:31.847Z</time></trkpt><trkpt lat="45.9101924" lon="8.6191327"><ele>205.0</ele><time>2026-05-01T14:24:34.848Z</time></trkpt><trkpt lat="45.9101522" lon="8.6192124"><ele>205.0</ele><time>2026-05-01T14:24:42.848Z</time></trkpt><trkpt lat="45.9100938" lon="8.6192616"><ele>205.0</ele><time>2026-05-01T14:24:50.848Z</time></trkpt><trkpt lat="45.9100274" lon="8.619304"><ele>205.0</ele><time>2026-05-01T14:24:59.848Z</time></trkpt><trkpt lat="45.9099735" lon="8.6193513"><ele>205.0</ele><time>2026-05-01T14:25:12.849Z</time></trkpt><trkpt lat="45.9099139" lon="8.6193821"><ele>203.66666666666666</ele><time>2026-05-01T14:25:23.848Z</time></trkpt><trkpt lat="45.9098336" lon="8.6194127"><ele>202.33333333333331</ele><time>2026-05-01T14:25:27.848Z</time></trkpt><trkpt lat="45.9097512" lon="8.6194313"><ele>201.0</ele><time>2026-05-01T14:25:30.847Z</time></trkpt><trkpt lat="45.9096723" lon="8.6194447"><ele>199.66666666666669</ele><time>2026-05-01T14:25:32.849Z</time></trkpt><trkpt lat="45.9095957" lon="8.6194513"><ele>198.33333333333334</ele><time>2026-05-01T14:25:34.847Z</time></trkpt><trkpt lat="45.9095268" lon="8.6194503"><ele>197.0</ele><time>2026-05-01T14:25:37.848Z</time></trkpt><trkpt lat="45.9094633" lon="8.6194544"><ele>197.00000000000003</ele><time>2026-05-01T14:25:56.848Z</time></trkpt><trkpt lat="45.9094012" lon="8.6194224"><ele>197.0</ele><time>2026-05-01T14:25:58.849Z</time></trkpt><trkpt lat="45.9093329" lon="8.6193801"><ele>197.0</ele><time>2026-05-01T14:26:00.848Z</time></trkpt><trkpt lat="45.90926" lon="8.6193405"><ele>197.0</ele><time>2026-05-01T14:26:01.847Z</time></trkpt><trkpt lat="45.9091994" lon="8.6193026"><ele>197.00000000000003</ele><time>2026-05-01T14:26:02.848Z</time></trkpt><trkpt lat="45.909137" lon="8.6192387"><ele>197.0</ele><time>2026-05-01T14:26:03.848Z</time></trkpt><trkpt lat="45.9090515" lon="8.6191572"><ele>197.16666666666669</ele><time>2026-05-01T14:26:05.848Z</time></trkpt><trkpt lat="45.9089852" lon="8.6190909"><ele>197.33333333333334</ele><time>2026-05-01T14:26:07.848Z</time></trkpt><trkpt lat="45.9089256" lon="8.6190175"><ele>197.5</ele><time>2026-05-01T14:26:09.848Z</time></trkpt><trkpt lat="45.9088682" lon="8.6189222"><ele>197.66666666666669</ele><time>2026-05-01T14:26:12.847Z</time></trkpt><trkpt lat="45.90882" lon="8.6188413"><ele>197.83333333333334</ele><time>2026-05-01T14:26:14.848Z</time></trkpt><trkpt lat="45.9087435" lon="8.6187412"><ele>198.0</ele><time>2026-05-01T14:26:16.848Z</time></trkpt><trkpt lat="45.9086629" lon="8.6188317"><ele>198.0</ele><time>2026-05-01T14:26:18.847Z</time></trkpt><trkpt lat="45.9086291" lon="8.6189172"><ele>198.0</ele><time>2026-05-01T14:26:19.848Z</time></trkpt><trkpt lat="45.9085973" lon="8.6190043"><ele>198.0</ele><time>2026-05-01T14:26:20.848Z</time></trkpt><trkpt lat="45.9085461" lon="8.6191095"><ele>198.0</ele><time>2026-05-01T14:26:21.847Z</time></trkpt><trkpt lat="45.9085089" lon="8.6192062"><ele>198.0</ele><time>2026-05-01T14:26:22.848Z</time></trkpt><trkpt lat="45.9084675" lon="8.6193037"><ele>198.0</ele><time>2026-05-01T14:26:23.848Z</time></trkpt><trkpt lat="45.9084238" lon="8.6194176"><ele>198.60000000000002</ele><time>2026-05-01T14:26:24.848Z</time></trkpt><trkpt lat="45.9083673" lon="8.6195249"><ele>199.20000000000002</ele><time>2026-05-01T14:26:25.848Z</time></trkpt><trkpt lat="45.908312" lon="8.6196548"><ele>199.8</ele><time>2026-05-01T14:26:26.848Z</time></trkpt><trkpt lat="45.9082497" lon="8.6197845"><ele>200.4</ele><time>2026-05-01T14:26:27.848Z</time></trkpt><trkpt lat="45.9081898" lon="8.6199224"><ele>201.0</ele><time>2026-05-01T14:26:28.847Z</time></trkpt><trkpt lat="45.9081243" lon="8.6200542"><ele>201.0</ele><time>2026-05-01T14:26:29.848Z</time></trkpt><trkpt lat="45.9080589" lon="8.6201926"><ele>201.0</ele><time>2026-05-01T14:26:30.848Z</time></trkpt><trkpt lat="45.9079937" lon="8.620323"><ele>201.0</ele><time>2026-05-01T14:26:31.848Z</time></trkpt><trkpt lat="45.9079274" lon="8.6204597"><ele>201.0</ele><time>2026-05-01T14:26:32.848Z</time></trkpt><trkpt lat="45.9078696" lon="8.6205819"><ele>201.0</ele><time>2026-05-01T14:26:33.848Z</time></trkpt><trkpt lat="45.9078212" lon="8.6207003"><ele>201.0</ele><time>2026-05-01T14:26:34.848Z</time></trkpt><trkpt lat="45.9077723" lon="8.620795"><ele>201.0</ele><time>2026-05-01T14:26:35.848Z</time></trkpt><trkpt lat="45.9077315" lon="8.6208804"><ele>201.0</ele><time>2026-05-01T14:26:36.848Z</time></trkpt><trkpt lat="45.907675" lon="8.6210237"><ele>201.0</ele><time>2026-05-01T14:26:38.848Z</time></trkpt><trkpt lat="45.9076214" lon="8.6211385"><ele>201.0</ele><time>2026-05-01T14:26:40.848Z</time></trkpt><trkpt lat="45.9075635" lon="8.6211953"><ele>201.0</ele><time>2026-05-01T14:26:42.848Z</time></trkpt><trkpt lat="45.9074682" lon="8.621198"><ele>200.83333333333334</ele><time>2026-05-01T14:26:44.848Z</time></trkpt><trkpt lat="45.9074057" lon="8.6211676"><ele>200.66666666666669</ele><time>2026-05-01T14:26:45.847Z</time></trkpt><trkpt lat="45.9073475" lon="8.6211201"><ele>200.5</ele><time>2026-05-01T14:26:46.848Z</time></trkpt><trkpt lat="45.9072814" lon="8.6210641"><ele>200.33333333333334</ele><time>2026-05-01T14:26:47.848Z</time></trkpt><trkpt lat="45.9072142" lon="8.6209994"><ele>200.16666666666669</ele><time>2026-05-01T14:26:48.848Z</time></trkpt><trkpt lat="45.907141" lon="8.6209386"><ele>200.0</ele><time>2026-05-01T14:26:49.848Z</time></trkpt><trkpt lat="45.9070597" lon="8.6208574"><ele>200.00000000000003</ele><time>2026-05-01T14:26:50.846Z</time></trkpt><trkpt lat="45.9069792" lon="8.620783"><ele>200.0</ele><time>2026-05-01T14:26:51.848Z</time></trkpt><trkpt lat="45.9069048" lon="8.6207138"><ele>200.0</ele><time>2026-05-01T14:26:52.848Z</time></trkpt><trkpt lat="45.9068307" lon="8.6206507"><ele>200.0</ele><time>2026-05-01T14:26:53.848Z</time></trkpt><trkpt lat="45.9067627" lon="8.6206033"><ele>200.00000000000003</ele><time>2026-05-01T14:26:54.848Z</time></trkpt><trkpt lat="45.9066973" lon="8.6205403"><ele>200.0</ele><time>2026-05-01T14:26:55.847Z</time></trkpt><trkpt lat="45.9066357" lon="8.6204859"><ele>199.8</ele><time>2026-05-01T14:26:56.848Z</time></trkpt><trkpt lat="45.9065501" lon="8.6203814"><ele>199.6</ele><time>2026-05-01T14:26:58.848Z</time></trkpt><trkpt lat="45.9064987" lon="8.6202753"><ele>199.39999999999998</ele><time>2026-05-01T14:27:00.848Z</time></trkpt><trkpt lat="45.906447" lon="8.6201769"><ele>199.2</ele><time>2026-05-01T14:27:02.848Z</time></trkpt><trkpt lat="45.9063837" lon="8.620072"><ele>199.0</ele><time>2026-05-01T14:27:04.848Z</time></trkpt><trkpt lat="45.9062926" lon="8.6199456"><ele>198.99999999999997</ele><time>2026-05-01T14:27:06.846Z</time></trkpt><trkpt lat="45.9062552" lon="8.6198715"><ele>199.0</ele><time>2026-05-01T14:27:07.848Z</time></trkpt><trkpt lat="45.9061809" lon="8.619754"><ele>199.0</ele><time>2026-05-01T14:27:09.848Z</time></trkpt><trkpt lat="45.9061444" lon="8.6196754"><ele>199.0</ele><time>2026-05-01T14:27:10.847Z</time></trkpt><trkpt lat="45.9060691" lon="8.6195532"><ele>198.99999999999997</ele><time>2026-05-01T14:27:12.848Z</time></trkpt><trkpt lat="45.9060157" lon="8.6194655"><ele>199.0</ele><time>2026-05-01T14:27:14.848Z</time></trkpt><trkpt lat="45.9059603" lon="8.6193529"><ele>199.49999999999997</ele><time>2026-05-01T14:27:16.847Z</time></trkpt><trkpt lat="45.9059107" lon="8.6192117"><ele>200.0</ele><time>2026-05-01T14:27:18.847Z</time></trkpt><trkpt lat="45.9058943" lon="8.6191183"><ele>200.5</ele><time>2026-05-01T14:27:19.848Z</time></trkpt><trkpt lat="45.9058852" lon="8.6190221"><ele>201.0</ele><time>2026-05-01T14:27:20.848Z</time></trkpt><trkpt lat="45.905876" lon="8.6189061"><ele>201.49999999999997</ele><time>2026-05-01T14:27:21.848Z</time></trkpt><trkpt lat="45.9058716" lon="8.6187869"><ele>202.0</ele><time>2026-05-01T14:27:22.847Z</time></trkpt><trkpt lat="45.9058709" lon="8.6186562"><ele>202.39999999999998</ele><time>2026-05-01T14:27:23.847Z</time></trkpt><trkpt lat="45.9058812" lon="8.6185108"><ele>202.79999999999998</ele><time>2026-05-01T14:27:24.848Z</time></trkpt><trkpt lat="45.905904" lon="8.6183628"><ele>203.2</ele><time>2026-05-01T14:27:25.847Z</time></trkpt><trkpt lat="45.9059319" lon="8.6182178"><ele>203.6</ele><time>2026-05-01T14:27:26.848Z</time></trkpt><trkpt lat="45.9059734" lon="8.6180655"><ele>204.0</ele><time>2026-05-01T14:27:27.846Z</time></trkpt><trkpt lat="45.9060258" lon="8.6179097"><ele>203.2</ele><time>2026-05-01T14:27:28.848Z</time></trkpt><trkpt lat="45.9060797" lon="8.6177509"><ele>202.39999999999998</ele><time>2026-05-01T14:27:29.848Z</time></trkpt><trkpt lat="45.9061231" lon="8.617615"><ele>201.6</ele><time>2026-05-01T14:27:30.848Z</time></trkpt><trkpt lat="45.9061734" lon="8.6174784"><ele>200.8</ele><time>2026-05-01T14:27:31.847Z</time></trkpt><trkpt lat="45.9062267" lon="8.6173406"><ele>200.0</ele><time>2026-05-01T14:27:32.847Z</time></trkpt><trkpt lat="45.9062817" lon="8.617205"><ele>200.0</ele><time>2026-05-01T14:27:33.848Z</time></trkpt><trkpt lat="45.9063593" lon="8.6170467"><ele>200.0</ele><time>2026-05-01T14:27:34.848Z</time></trkpt><trkpt lat="45.9064376" lon="8.6169007"><ele>200.0</ele><time>2026-05-01T14:27:35.848Z</time></trkpt><trkpt lat="45.9065111" lon="8.61677"><ele>200.0</ele><time>2026-05-01T14:27:36.847Z</time></trkpt><trkpt lat="45.9065946" lon="8.616655"><ele>200.75</ele><time>2026-05-01T14:27:37.847Z</time></trkpt><trkpt lat="45.9066919" lon="8.6165573"><ele>201.5</ele><time>2026-05-01T14:27:38.848Z</time></trkpt><trkpt lat="45.9067802" lon="8.6164609"><ele>202.25</ele><time>2026-05-01T14:27:39.848Z</time></trkpt><trkpt lat="45.906868" lon="8.6163649"><ele>203.0</ele><time>2026-05-01T14:27:40.848Z</time></trkpt><trkpt lat="45.9069573" lon="8.6162686"><ele>201.5</ele><time>2026-05-01T14:27:41.847Z</time></trkpt><trkpt lat="45.9070342" lon="8.6161586"><ele>200.0</ele><time>2026-05-01T14:27:42.847Z</time></trkpt><trkpt lat="45.9070959" lon="8.6160308"><ele>198.5</ele><time>2026-05-01T14:27:43.848Z</time></trkpt><trkpt lat="45.907154" lon="8.6158853"><ele>197.0</ele><time>2026-05-01T14:27:44.847Z</time></trkpt><trkpt lat="45.9072028" lon="8.6157204"><ele>196.75</ele><time>2026-05-01T14:27:45.848Z</time></trkpt><trkpt lat="45.9072543" lon="8.615545"><ele>196.5</ele><time>2026-05-01T14:27:46.847Z</time></trkpt><trkpt lat="45.9072966" lon="8.6153578"><ele>196.25</ele><time>2026-05-01T14:27:47.847Z</time></trkpt><trkpt lat="45.9073363" lon="8.6151779"><ele>196.0</ele><time>2026-05-01T14:27:48.848Z</time></trkpt><trkpt lat="45.9073581" lon="8.6150194"><ele>196.60000000000002</ele><time>2026-05-01T14:27:49.848Z</time></trkpt><trkpt lat="45.9073591" lon="8.6148624"><ele>197.2</ele><time>2026-05-01T14:27:50.848Z</time></trkpt><trkpt lat="45.9073382" lon="8.6147077"><ele>197.8</ele><time>2026-05-01T14:27:51.848Z</time></trkpt><trkpt lat="45.9072945" lon="8.614563"><ele>198.39999999999998</ele><time>2026-05-01T14:27:52.848Z</time></trkpt><trkpt lat="45.9072276" lon="8.6144355"><ele>199.0</ele><time>2026-05-01T14:27:53.848Z</time></trkpt><trkpt lat="45.907137" lon="8.6143242"><ele>199.0</ele><time>2026-05-01T14:27:54.848Z</time></trkpt><trkpt lat="45.907028" lon="8.6142279"><ele>199.0</ele><time>2026-05-01T14:27:55.847Z</time></trkpt><trkpt lat="45.906909" lon="8.6141353"><ele>199.0</ele><time>2026-05-01T14:27:56.847Z</time></trkpt><trkpt lat="45.9067937" lon="8.6140315"><ele>199.0</ele><time>2026-05-01T14:27:57.848Z</time></trkpt><trkpt lat="45.906711" lon="8.613905"><ele>200.5</ele><time>2026-05-01T14:27:58.847Z</time></trkpt><trkpt lat="45.9066255" lon="8.6137733"><ele>202.0</ele><time>2026-05-01T14:27:59.848Z</time></trkpt><trkpt lat="45.906548" lon="8.6136255"><ele>203.5</ele><time>2026-05-01T14:28:00.848Z</time></trkpt><trkpt lat="45.9065106" lon="8.6134506"><ele>205.0</ele><time>2026-05-01T14:28:01.848Z</time></trkpt><trkpt lat="45.906474" lon="8.61328"><ele>205.0</ele><time>2026-05-01T14:28:02.848Z</time></trkpt><trkpt lat="45.9064373" lon="8.6131097"><ele>205.0</ele><time>2026-05-01T14:28:03.848Z</time></trkpt><trkpt lat="45.9064262" lon="8.6129503"><ele>205.0</ele><time>2026-05-01T14:28:04.848Z</time></trkpt><trkpt lat="45.9064105" lon="8.6127904"><ele>205.0</ele><time>2026-05-01T14:28:05.847Z</time></trkpt><trkpt lat="45.9064118" lon="8.6126341"><ele>204.75</ele><time>2026-05-01T14:28:06.847Z</time></trkpt><trkpt lat="45.9064259" lon="8.6124763"><ele>204.5</ele><time>2026-05-01T14:28:07.848Z</time></trkpt><trkpt lat="45.9064443" lon="8.6123135"><ele>204.25</ele><time>2026-05-01T14:28:08.847Z</time></trkpt><trkpt lat="45.9064547" lon="8.612142"><ele>204.0</ele><time>2026-05-01T14:28:09.847Z</time></trkpt><trkpt lat="45.9064671" lon="8.6119621"><ele>206.0</ele><time>2026-05-01T14:28:10.848Z</time></trkpt><trkpt lat="45.9064777" lon="8.6117919"><ele>208.0</ele><time>2026-05-01T14:28:11.848Z</time></trkpt><trkpt lat="45.906483" lon="8.6116228"><ele>210.0</ele><time>2026-05-01T14:28:12.848Z</time></trkpt><trkpt lat="45.9064819" lon="8.6114405"><ele>212.0</ele><time>2026-05-01T14:28:13.848Z</time></trkpt><trkpt lat="45.9064758" lon="8.6112769"><ele>213.0</ele><time>2026-05-01T14:28:14.848Z</time></trkpt><trkpt lat="45.9064807" lon="8.6111149"><ele>214.0</ele><time>2026-05-01T14:28:15.848Z</time></trkpt><trkpt lat="45.9064744" lon="8.610956"><ele>215.0</ele><time>2026-05-01T14:28:16.849Z</time></trkpt><trkpt lat="45.9064711" lon="8.6107933"><ele>216.0</ele><time>2026-05-01T14:28:17.848Z</time></trkpt><trkpt lat="45.906469" lon="8.6106383"><ele>217.0</ele><time>2026-05-01T14:28:18.848Z</time></trkpt><trkpt lat="45.9064671" lon="8.6104729"><ele>216.8</ele><time>2026-05-01T14:28:19.848Z</time></trkpt><trkpt lat="45.9064697" lon="8.6103193"><ele>216.6</ele><time>2026-05-01T14:28:20.848Z</time></trkpt><trkpt lat="45.9064845" lon="8.6101597"><ele>216.40000000000003</ele><time>2026-05-01T14:28:21.848Z</time></trkpt><trkpt lat="45.9064985" lon="8.6100043"><ele>216.20000000000002</ele><time>2026-05-01T14:28:22.847Z</time></trkpt><trkpt lat="45.9064943" lon="8.609864"><ele>216.0</ele><time>2026-05-01T14:28:23.847Z</time></trkpt><trkpt lat="45.9064788" lon="8.6097064"><ele>216.0</ele><time>2026-05-01T14:28:24.848Z</time></trkpt><trkpt lat="45.9064667" lon="8.6095517"><ele>216.0</ele><time>2026-05-01T14:28:25.846Z</time></trkpt><trkpt lat="45.9064488" lon="8.6093882"><ele>216.0</ele><time>2026-05-01T14:28:26.848Z</time></trkpt><trkpt lat="45.9064222" lon="8.609226"><ele>216.0</ele><time>2026-05-01T14:28:27.846Z</time></trkpt><trkpt lat="45.9063977" lon="8.6090588"><ele>214.5</ele><time>2026-05-01T14:28:28.848Z</time></trkpt><trkpt lat="45.9063739" lon="8.6088843"><ele>213.0</ele><time>2026-05-01T14:28:29.848Z</time></trkpt><trkpt lat="45.9063529" lon="8.6087047"><ele>211.5</ele><time>2026-05-01T14:28:30.848Z</time></trkpt><trkpt lat="45.9063449" lon="8.6085186"><ele>210.0</ele><time>2026-05-01T14:28:31.847Z</time></trkpt><trkpt lat="45.9063334" lon="8.6083514"><ele>210.0</ele><time>2026-05-01T14:28:32.847Z</time></trkpt><trkpt lat="45.9063211" lon="8.608183"><ele>210.0</ele><time>2026-05-01T14:28:33.848Z</time></trkpt><trkpt lat="45.9063067" lon="8.6080287"><ele>210.0</ele><time>2026-05-01T14:28:34.847Z</time></trkpt><trkpt lat="45.9062917" lon="8.6078695"><ele>210.0</ele><time>2026-05-01T14:28:35.848Z</time></trkpt><trkpt lat="45.9062816" lon="8.6077237"><ele>210.0</ele><time>2026-05-01T14:28:36.848Z</time></trkpt><trkpt lat="45.9062805" lon="8.6075829"><ele>211.0</ele><time>2026-05-01T14:28:37.848Z</time></trkpt><trkpt lat="45.9062858" lon="8.6074469"><ele>212.0</ele><time>2026-05-01T14:28:38.848Z</time></trkpt><trkpt lat="45.9063044" lon="8.6073105"><ele>213.0</ele><time>2026-05-01T14:28:39.848Z</time></trkpt><trkpt lat="45.9063358" lon="8.6071712"><ele>214.0</ele><time>2026-05-01T14:28:40.847Z</time></trkpt><trkpt lat="45.9063699" lon="8.6070349"><ele>215.0</ele><time>2026-05-01T14:28:41.848Z</time></trkpt><trkpt lat="45.9064186" lon="8.6068964"><ele>215.6</ele><time>2026-05-01T14:28:42.847Z</time></trkpt><trkpt lat="45.9064739" lon="8.6067581"><ele>216.2</ele><time>2026-05-01T14:28:43.847Z</time></trkpt><trkpt lat="45.9065229" lon="8.6066353"><ele>216.8</ele><time>2026-05-01T14:28:44.848Z</time></trkpt><trkpt lat="45.9065711" lon="8.6065097"><ele>217.4</ele><time>2026-05-01T14:28:45.848Z</time></trkpt><trkpt lat="45.9066139" lon="8.6063812"><ele>218.0</ele><time>2026-05-01T14:28:46.848Z</time></trkpt><trkpt lat="45.9066491" lon="8.6062395"><ele>218.8</ele><time>2026-05-01T14:28:47.848Z</time></trkpt><trkpt lat="45.9066784" lon="8.6060933"><ele>219.60000000000002</ele><time>2026-05-01T14:28:48.847Z</time></trkpt><trkpt lat="45.9066913" lon="8.6059411"><ele>220.39999999999998</ele><time>2026-05-01T14:28:49.848Z</time></trkpt><trkpt lat="45.9066903" lon="8.6057828"><ele>221.2</ele><time>2026-05-01T14:28:50.847Z</time></trkpt><trkpt lat="45.9066772" lon="8.6056222"><ele>222.0</ele><time>2026-05-01T14:28:51.848Z</time></trkpt><trkpt lat="45.9066622" lon="8.6054668"><ele>220.25</ele><time>2026-05-01T14:28:52.847Z</time></trkpt><trkpt lat="45.9066362" lon="8.6053037"><ele>218.5</ele><time>2026-05-01T14:28:53.847Z</time></trkpt><trkpt lat="45.9066115" lon="8.6051327"><ele>216.75</ele><time>2026-05-01T14:28:54.847Z</time></trkpt><trkpt lat="45.9065863" lon="8.6049648"><ele>215.0</ele><time>2026-05-01T14:28:55.847Z</time></trkpt><trkpt lat="45.9065592" lon="8.6048033"><ele>215.0</ele><time>2026-05-01T14:28:56.848Z</time></trkpt><trkpt lat="45.9065296" lon="8.6046319"><ele>215.0</ele><time>2026-05-01T14:28:57.847Z</time></trkpt><trkpt lat="45.9064968" lon="8.6044566"><ele>215.0</ele><time>2026-05-01T14:28:58.848Z</time></trkpt><trkpt lat="45.9064493" lon="8.6042865"><ele>215.0</ele><time>2026-05-01T14:28:59.846Z</time></trkpt><trkpt lat="45.906401" lon="8.6041266"><ele>214.5</ele><time>2026-05-01T14:29:00.848Z</time></trkpt><trkpt lat="45.9063418" lon="8.6039631"><ele>214.0</ele><time>2026-05-01T14:29:01.847Z</time></trkpt><trkpt lat="45.9062765" lon="8.6038098"><ele>213.5</ele><time>2026-05-01T14:29:02.848Z</time></trkpt><trkpt lat="45.9062041" lon="8.6036629"><ele>213.0</ele><time>2026-05-01T14:29:03.848Z</time></trkpt><trkpt lat="45.906127" lon="8.6035174"><ele>211.5</ele><time>2026-05-01T14:29:04.846Z</time></trkpt><trkpt lat="45.9060503" lon="8.6033719"><ele>210.0</ele><time>2026-05-01T14:29:05.847Z</time></trkpt><trkpt lat="45.9059779" lon="8.6032287"><ele>208.5</ele><time>2026-05-01T14:29:06.848Z</time></trkpt><trkpt lat="45.9059098" lon="8.6030855"><ele>207.0</ele><time>2026-05-01T14:29:07.848Z</time></trkpt><trkpt lat="45.9058511" lon="8.6029398"><ele>210.75</ele><time>2026-05-01T14:29:08.847Z</time></trkpt><trkpt lat="45.9057951" lon="8.6028028"><ele>214.5</ele><time>2026-05-01T14:29:09.848Z</time></trkpt><trkpt lat="45.9057521" lon="8.6026474"><ele>218.25</ele><time>2026-05-01T14:29:10.847Z</time></trkpt><trkpt lat="45.9057121" lon="8.6024833"><ele>222.0</ele><time>2026-05-01T14:29:11.848Z</time></trkpt><trkpt lat="45.9056885" lon="8.6023108"><ele>222.0</ele><time>2026-05-01T14:29:12.847Z</time></trkpt><trkpt lat="45.9056603" lon="8.6021323"><ele>222.0</ele><time>2026-05-01T14:29:13.848Z</time></trkpt><trkpt lat="45.9056417" lon="8.6019487"><ele>222.0</ele><time>2026-05-01T14:29:14.847Z</time></trkpt><trkpt lat="45.905623" lon="8.601767"><ele>222.0</ele><time>2026-05-01T14:29:15.849Z</time></trkpt><trkpt lat="45.9056102" lon="8.6015799"><ele>221.0</ele><time>2026-05-01T14:29:16.847Z</time></trkpt><trkpt lat="45.905599" lon="8.6013859"><ele>220.0</ele><time>2026-05-01T14:29:17.847Z</time></trkpt><trkpt lat="45.9055943" lon="8.6012099"><ele>219.0</ele><time>2026-05-01T14:29:18.847Z</time></trkpt><trkpt lat="45.9055812" lon="8.601043"><ele>218.0</ele><time>2026-05-01T14:29:19.848Z</time></trkpt><trkpt lat="45.9055631" lon="8.6008813"><ele>218.0</ele><time>2026-05-01T14:29:20.848Z</time></trkpt><trkpt lat="45.9055301" lon="8.6007279"><ele>218.0</ele><time>2026-05-01T14:29:21.848Z</time></trkpt><trkpt lat="45.9054964" lon="8.6005698"><ele>218.0</ele><time>2026-05-01T14:29:22.847Z</time></trkpt><trkpt lat="45.9054574" lon="8.6004175"><ele>218.0</ele><time>2026-05-01T14:29:23.848Z</time></trkpt><trkpt lat="45.9054119" lon="8.6002774"><ele>218.0</ele><time>2026-05-01T14:29:24.847Z</time></trkpt><trkpt lat="45.9053611" lon="8.6001485"><ele>218.8</ele><time>2026-05-01T14:29:25.848Z</time></trkpt><trkpt lat="45.9052892" lon="8.6000366"><ele>219.60000000000002</ele><time>2026-05-01T14:29:26.847Z</time></trkpt><trkpt lat="45.9052097" lon="8.5999287"><ele>220.39999999999998</ele><time>2026-05-01T14:29:27.848Z</time></trkpt><trkpt lat="45.9051294" lon="8.5998231"><ele>221.2</ele><time>2026-05-01T14:29:28.847Z</time></trkpt><trkpt lat="45.9050491" lon="8.5997236"><ele>222.0</ele><time>2026-05-01T14:29:29.847Z</time></trkpt><trkpt lat="45.9049672" lon="8.5996292"><ele>222.0</ele><time>2026-05-01T14:29:30.848Z</time></trkpt><trkpt lat="45.9048864" lon="8.5995308"><ele>222.0</ele><time>2026-05-01T14:29:31.847Z</time></trkpt><trkpt lat="45.9047949" lon="8.5994425"><ele>222.0</ele><time>2026-05-01T14:29:32.847Z</time></trkpt><trkpt lat="45.904706" lon="8.5993452"><ele>222.0</ele><time>2026-05-01T14:29:33.848Z</time></trkpt><trkpt lat="45.9046133" lon="8.5992677"><ele>222.0</ele><time>2026-05-01T14:29:34.846Z</time></trkpt><trkpt lat="45.9045152" lon="8.5992009"><ele>221.8</ele><time>2026-05-01T14:29:35.847Z</time></trkpt><trkpt lat="45.9044182" lon="8.5991404"><ele>221.6</ele><time>2026-05-01T14:29:36.847Z</time></trkpt><trkpt lat="45.904335" lon="8.5990887"><ele>221.40000000000003</ele><time>2026-05-01T14:29:37.848Z</time></trkpt><trkpt lat="45.9042501" lon="8.5990449"><ele>221.20000000000002</ele><time>2026-05-01T14:29:38.848Z</time></trkpt><trkpt lat="45.9041626" lon="8.5989979"><ele>221.0</ele><time>2026-05-01T14:29:39.848Z</time></trkpt><trkpt lat="45.9040754" lon="8.5989487"><ele>221.00000000000003</ele><time>2026-05-01T14:29:40.848Z</time></trkpt><trkpt lat="45.9039875" lon="8.5989001"><ele>221.0</ele><time>2026-05-01T14:29:41.848Z</time></trkpt><trkpt lat="45.9039046" lon="8.598858"><ele>221.0</ele><time>2026-05-01T14:29:42.847Z</time></trkpt><trkpt lat="45.9038241" lon="8.5988169"><ele>221.0</ele><time>2026-05-01T14:29:43.848Z</time></trkpt><trkpt lat="45.9037409" lon="8.5987892"><ele>221.00000000000003</ele><time>2026-05-01T14:29:44.848Z</time></trkpt><trkpt lat="45.9036505" lon="8.5987752"><ele>221.0</ele><time>2026-05-01T14:29:45.848Z</time></trkpt><trkpt lat="45.9035649" lon="8.5987743"><ele>221.0</ele><time>2026-05-01T14:29:46.848Z</time></trkpt><trkpt lat="45.9034666" lon="8.5987869"><ele>221.00000000000003</ele><time>2026-05-01T14:29:47.848Z</time></trkpt><trkpt lat="45.9033747" lon="8.5988056"><ele>221.00000000000003</ele><time>2026-05-01T14:29:48.848Z</time></trkpt><trkpt lat="45.9032803" lon="8.5988228"><ele>221.0</ele><time>2026-05-01T14:29:49.848Z</time></trkpt><trkpt lat="45.9031788" lon="8.5988392"><ele>221.0</ele><time>2026-05-01T14:29:50.848Z</time></trkpt><trkpt lat="45.9030737" lon="8.5988515"><ele>221.8</ele><time>2026-05-01T14:29:51.848Z</time></trkpt><trkpt lat="45.9029717" lon="8.5988918"><ele>222.60000000000002</ele><time>2026-05-01T14:29:52.847Z</time></trkpt><trkpt lat="45.9028773" lon="8.5989039"><ele>223.4</ele><time>2026-05-01T14:29:53.847Z</time></trkpt><trkpt lat="45.9027816" lon="8.5989152"><ele>224.2</ele><time>2026-05-01T14:29:54.848Z</time></trkpt><trkpt lat="45.9026833" lon="8.5989046"><ele>225.0</ele><time>2026-05-01T14:29:55.846Z</time></trkpt><trkpt lat="45.9025818" lon="8.5988705"><ele>227.0</ele><time>2026-05-01T14:29:56.848Z</time></trkpt><trkpt lat="45.9024747" lon="8.5988354"><ele>229.0</ele><time>2026-05-01T14:29:57.847Z</time></trkpt><trkpt lat="45.9023777" lon="8.5987746"><ele>231.0</ele><time>2026-05-01T14:29:58.848Z</time></trkpt><trkpt lat="45.9022786" lon="8.5987065"><ele>233.0</ele><time>2026-05-01T14:29:59.847Z</time></trkpt><trkpt lat="45.9021742" lon="8.5986338"><ele>235.0</ele><time>2026-05-01T14:30:00.847Z</time></trkpt><trkpt lat="45.9020713" lon="8.598546"><ele>232.75</ele><time>2026-05-01T14:30:01.848Z</time></trkpt><trkpt lat="45.9019633" lon="8.5984567"><ele>230.5</ele><time>2026-05-01T14:30:02.848Z</time></trkpt><trkpt lat="45.901849" lon="8.5983672"><ele>228.25</ele><time>2026-05-01T14:30:03.848Z</time></trkpt><trkpt lat="45.9017334" lon="8.5982836"><ele>226.0</ele><time>2026-05-01T14:30:04.848Z</time></trkpt><trkpt lat="45.9016145" lon="8.5982012"><ele>226.0</ele><time>2026-05-01T14:30:05.847Z</time></trkpt><trkpt lat="45.9014918" lon="8.5981288"><ele>226.0</ele><time>2026-05-01T14:30:06.848Z</time></trkpt><trkpt lat="45.90137" lon="8.5980534"><ele>226.0</ele><time>2026-05-01T14:30:07.848Z</time></trkpt><trkpt lat="45.9012531" lon="8.5979904"><ele>226.0</ele><time>2026-05-01T14:30:08.846Z</time></trkpt><trkpt lat="45.9011354" lon="8.5979305"><ele>226.0</ele><time>2026-05-01T14:30:09.847Z</time></trkpt><trkpt lat="45.9010123" lon="8.5978709"><ele>226.0</ele><time>2026-05-01T14:30:10.847Z</time></trkpt><trkpt lat="45.9008854" lon="8.5978147"><ele>226.0</ele><time>2026-05-01T14:30:11.847Z</time></trkpt><trkpt lat="45.9007539" lon="8.5977647"><ele>226.0</ele><time>2026-05-01T14:30:12.846Z</time></trkpt><trkpt lat="45.9006239" lon="8.597714"><ele>222.75</ele><time>2026-05-01T14:30:13.848Z</time></trkpt><trkpt lat="45.9004892" lon="8.597679"><ele>219.5</ele><time>2026-05-01T14:30:14.848Z</time></trkpt><trkpt lat="45.9003592" lon="8.5976351"><ele>216.25</ele><time>2026-05-01T14:30:15.847Z</time></trkpt><trkpt lat="45.9002346" lon="8.5975977"><ele>213.0</ele><time>2026-05-01T14:30:16.848Z</time></trkpt><trkpt lat="45.9001243" lon="8.5975592"><ele>214.0</ele><time>2026-05-01T14:30:17.848Z</time></trkpt><trkpt lat="45.9000157" lon="8.5975242"><ele>215.0</ele><time>2026-05-01T14:30:18.847Z</time></trkpt><trkpt lat="45.8999141" lon="8.5974924"><ele>216.0</ele><time>2026-05-01T14:30:19.847Z</time></trkpt><trkpt lat="45.8998086" lon="8.5974525"><ele>217.0</ele><time>2026-05-01T14:30:20.848Z</time></trkpt><trkpt lat="45.8997046" lon="8.5974106"><ele>218.0</ele><time>2026-05-01T14:30:21.848Z</time></trkpt><trkpt lat="45.8995989" lon="8.5973688"><ele>218.0</ele><time>2026-05-01T14:30:22.847Z</time></trkpt><trkpt lat="45.8994964" lon="8.5973214"><ele>218.0</ele><time>2026-05-01T14:30:23.848Z</time></trkpt><trkpt lat="45.8994139" lon="8.5972986"><ele>218.0</ele><time>2026-05-01T14:30:24.847Z</time></trkpt><trkpt lat="45.8993235" lon="8.5972787"><ele>218.0</ele><time>2026-05-01T14:30:25.848Z</time></trkpt><trkpt lat="45.8992381" lon="8.5972434"><ele>218.0</ele><time>2026-05-01T14:30:26.847Z</time></trkpt><trkpt lat="45.8991482" lon="8.5972139"><ele>218.4</ele><time>2026-05-01T14:30:27.848Z</time></trkpt><trkpt lat="45.8990547" lon="8.5971862"><ele>218.8</ele><time>2026-05-01T14:30:28.848Z</time></trkpt><trkpt lat="45.8989648" lon="8.5971777"><ele>219.2</ele><time>2026-05-01T14:30:29.848Z</time></trkpt><trkpt lat="45.898881" lon="8.5972086"><ele>219.6</ele><time>2026-05-01T14:30:30.848Z</time></trkpt><trkpt lat="45.8987895" lon="8.597251"><ele>220.0</ele><time>2026-05-01T14:30:31.847Z</time></trkpt><trkpt lat="45.8986951" lon="8.5973037"><ele>220.0</ele><time>2026-05-01T14:30:32.847Z</time></trkpt><trkpt lat="45.898596" lon="8.597353"><ele>220.0</ele><time>2026-05-01T14:30:33.847Z</time></trkpt><trkpt lat="45.8984869" lon="8.5974173"><ele>220.0</ele><time>2026-05-01T14:30:34.848Z</time></trkpt><trkpt lat="45.8983801" lon="8.5974787"><ele>220.0</ele><time>2026-05-01T14:30:35.847Z</time></trkpt><trkpt lat="45.8982676" lon="8.5975421"><ele>217.75</ele><time>2026-05-01T14:30:36.848Z</time></trkpt><trkpt lat="45.8981579" lon="8.5976089"><ele>215.5</ele><time>2026-05-01T14:30:37.848Z</time></trkpt><trkpt lat="45.8980459" lon="8.597659"><ele>213.25</ele><time>2026-05-01T14:30:38.847Z</time></trkpt><trkpt lat="45.8979334" lon="8.5977098"><ele>211.0</ele><time>2026-05-01T14:30:39.848Z</time></trkpt><trkpt lat="45.8978167" lon="8.59777"><ele>211.0</ele><time>2026-05-01T14:30:40.848Z</time></trkpt><trkpt lat="45.8976907" lon="8.5978266"><ele>211.0</ele><time>2026-05-01T14:30:41.848Z</time></trkpt><trkpt lat="45.8975625" lon="8.5978951"><ele>211.0</ele><time>2026-05-01T14:30:42.848Z</time></trkpt><trkpt lat="45.8974316" lon="8.5979538"><ele>211.0</ele><time>2026-05-01T14:30:43.847Z</time></trkpt><trkpt lat="45.8972933" lon="8.5980052"><ele>211.75</ele><time>2026-05-01T14:30:44.848Z</time></trkpt><trkpt lat="45.8971564" lon="8.5980651"><ele>212.5</ele><time>2026-05-01T14:30:45.848Z</time></trkpt><trkpt lat="45.8970312" lon="8.5981192"><ele>213.25</ele><time>2026-05-01T14:30:46.848Z</time></trkpt><trkpt lat="45.8968966" lon="8.5981767"><ele>214.0</ele><time>2026-05-01T14:30:47.848Z</time></trkpt><trkpt lat="45.8967636" lon="8.5982373"><ele>213.25</ele><time>2026-05-01T14:30:48.848Z</time></trkpt><trkpt lat="45.8966411" lon="8.598285"><ele>212.5</ele><time>2026-05-01T14:30:49.848Z</time></trkpt><trkpt lat="45.896528" lon="8.5983336"><ele>211.75</ele><time>2026-05-01T14:30:50.848Z</time></trkpt><trkpt lat="45.8964243" lon="8.5983832"><ele>211.0</ele><time>2026-05-01T14:30:51.847Z</time></trkpt><trkpt lat="45.8963261" lon="8.5984265"><ele>211.0</ele><time>2026-05-01T14:30:52.847Z</time></trkpt><trkpt lat="45.8962275" lon="8.5984657"><ele>211.0</ele><time>2026-05-01T14:30:53.848Z</time></trkpt><trkpt lat="45.8961301" lon="8.5984978"><ele>211.0</ele><time>2026-05-01T14:30:54.848Z</time></trkpt><trkpt lat="45.8960301" lon="8.5985122"><ele>211.0</ele><time>2026-05-01T14:30:55.847Z</time></trkpt><trkpt lat="45.8959379" lon="8.5985198"><ele>211.0</ele><time>2026-05-01T14:30:56.848Z</time></trkpt><trkpt lat="45.895839" lon="8.5985142"><ele>211.0</ele><time>2026-05-01T14:30:57.848Z</time></trkpt><trkpt lat="45.8957331" lon="8.5985024"><ele>211.0</ele><time>2026-05-01T14:30:58.847Z</time></trkpt><trkpt lat="45.8956293" lon="8.5984804"><ele>211.0</ele><time>2026-05-01T14:30:59.848Z</time></trkpt><trkpt lat="45.8955321" lon="8.59845"><ele>211.0</ele><time>2026-05-01T14:31:00.847Z</time></trkpt><trkpt lat="45.8954313" lon="8.5984142"><ele>211.0</ele><time>2026-05-01T14:31:01.847Z</time></trkpt><trkpt lat="45.8953308" lon="8.5983752"><ele>211.0</ele><time>2026-05-01T14:31:02.848Z</time></trkpt><trkpt lat="45.8952236" lon="8.5983401"><ele>211.0</ele><time>2026-05-01T14:31:03.848Z</time></trkpt><trkpt lat="45.8951184" lon="8.5983045"><ele>211.0</ele><time>2026-05-01T14:31:04.848Z</time></trkpt><trkpt lat="45.8950134" lon="8.5982674"><ele>211.0</ele><time>2026-05-01T14:31:05.848Z</time></trkpt><trkpt lat="45.8949076" lon="8.5982369"><ele>211.0</ele><time>2026-05-01T14:31:06.847Z</time></trkpt><trkpt lat="45.8947968" lon="8.5982005"><ele>213.0</ele><time>2026-05-01T14:31:07.847Z</time></trkpt><trkpt lat="45.8946844" lon="8.598172"><ele>215.0</ele><time>2026-05-01T14:31:08.848Z</time></trkpt><trkpt lat="45.8945722" lon="8.5981497"><ele>217.00000000000003</ele><time>2026-05-01T14:31:09.847Z</time></trkpt><trkpt lat="45.8944628" lon="8.5981332"><ele>219.0</ele><time>2026-05-01T14:31:10.847Z</time></trkpt><trkpt lat="45.8943525" lon="8.5981188"><ele>221.0</ele><time>2026-05-01T14:31:11.847Z</time></trkpt><trkpt lat="45.8942424" lon="8.5981102"><ele>221.25</ele><time>2026-05-01T14:31:12.848Z</time></trkpt><trkpt lat="45.8941274" lon="8.5981113"><ele>221.5</ele><time>2026-05-01T14:31:13.847Z</time></trkpt><trkpt lat="45.8940053" lon="8.5981128"><ele>221.75</ele><time>2026-05-01T14:31:14.848Z</time></trkpt><trkpt lat="45.8938783" lon="8.5981165"><ele>222.0</ele><time>2026-05-01T14:31:15.848Z</time></trkpt><trkpt lat="45.8937431" lon="8.5981135"><ele>222.0</ele><time>2026-05-01T14:31:16.847Z</time></trkpt><trkpt lat="45.8936032" lon="8.5981124"><ele>222.0</ele><time>2026-05-01T14:31:17.847Z</time></trkpt><trkpt lat="45.8934569" lon="8.5981074"><ele>222.0</ele><time>2026-05-01T14:31:18.847Z</time></trkpt><trkpt lat="45.8933154" lon="8.5981005"><ele>222.0</ele><time>2026-05-01T14:31:19.847Z</time></trkpt><trkpt lat="45.8931767" lon="8.5980991"><ele>222.0</ele><time>2026-05-01T14:31:20.846Z</time></trkpt><trkpt lat="45.8930382" lon="8.5981007"><ele>222.0</ele><time>2026-05-01T14:31:21.848Z</time></trkpt><trkpt lat="45.8929129" lon="8.5980978"><ele>222.0</ele><time>2026-05-01T14:31:22.848Z</time></trkpt><trkpt lat="45.8927984" lon="8.5980944"><ele>222.0</ele><time>2026-05-01T14:31:23.847Z</time></trkpt><trkpt lat="45.8926704" lon="8.5981026"><ele>220.75</ele><time>2026-05-01T14:31:24.847Z</time></trkpt><trkpt lat="45.8925496" lon="8.5980944"><ele>219.5</ele><time>2026-05-01T14:31:25.848Z</time></trkpt><trkpt lat="45.8924163" lon="8.5980996"><ele>218.25</ele><time>2026-05-01T14:31:26.848Z</time></trkpt><trkpt lat="45.8922829" lon="8.5980984"><ele>217.0</ele><time>2026-05-01T14:31:27.847Z</time></trkpt><trkpt lat="45.8921488" lon="8.5980967"><ele>217.0</ele><time>2026-05-01T14:31:28.847Z</time></trkpt><trkpt lat="45.8920063" lon="8.598097"><ele>217.0</ele><time>2026-05-01T14:31:29.847Z</time></trkpt><trkpt lat="45.8918682" lon="8.5980912"><ele>217.0</ele><time>2026-05-01T14:31:30.847Z</time></trkpt><trkpt lat="45.8917293" lon="8.5980914"><ele>217.0</ele><time>2026-05-01T14:31:31.848Z</time></trkpt><trkpt lat="45.8915904" lon="8.5980929"><ele>216.0</ele><time>2026-05-01T14:31:32.848Z</time></trkpt><trkpt lat="45.8914498" lon="8.5981038"><ele>215.0</ele><time>2026-05-01T14:31:33.848Z</time></trkpt><trkpt lat="45.8913215" lon="8.5981127"><ele>214.0</ele><time>2026-05-01T14:31:34.848Z</time></trkpt><trkpt lat="45.8911883" lon="8.5981384"><ele>213.0</ele><time>2026-05-01T14:31:35.848Z</time></trkpt><trkpt lat="45.891057" lon="8.5981657"><ele>212.75</ele><time>2026-05-01T14:31:36.848Z</time></trkpt><trkpt lat="45.8909229" lon="8.5981985"><ele>212.5</ele><time>2026-05-01T14:31:37.848Z</time></trkpt><trkpt lat="45.8907798" lon="8.5982467"><ele>212.25</ele><time>2026-05-01T14:31:38.848Z</time></trkpt><trkpt lat="45.8906369" lon="8.5982936"><ele>212.0</ele><time>2026-05-01T14:31:39.846Z</time></trkpt><trkpt lat="45.890502" lon="8.5983414"><ele>212.0</ele><time>2026-05-01T14:31:40.848Z</time></trkpt><trkpt lat="45.8903592" lon="8.5983963"><ele>212.0</ele><time>2026-05-01T14:31:41.846Z</time></trkpt><trkpt lat="45.8902172" lon="8.5984572"><ele>212.0</ele><time>2026-05-01T14:31:42.848Z</time></trkpt><trkpt lat="45.8900819" lon="8.5985048"><ele>212.0</ele><time>2026-05-01T14:31:43.848Z</time></trkpt><trkpt lat="45.8899471" lon="8.5985621"><ele>212.5</ele><time>2026-05-01T14:31:44.848Z</time></trkpt><trkpt lat="45.8898187" lon="8.5986095"><ele>213.0</ele><time>2026-05-01T14:31:45.847Z</time></trkpt><trkpt lat="45.8896918" lon="8.5986451"><ele>213.5</ele><time>2026-05-01T14:31:46.847Z</time></trkpt><trkpt lat="45.8895611" lon="8.5986953"><ele>214.0</ele><time>2026-05-01T14:31:47.847Z</time></trkpt><trkpt lat="45.8894253" lon="8.598737"><ele>216.0</ele><time>2026-05-01T14:31:48.846Z</time></trkpt><trkpt lat="45.8892957" lon="8.5987771"><ele>218.0</ele><time>2026-05-01T14:31:49.848Z</time></trkpt><trkpt lat="45.8891566" lon="8.5988306"><ele>220.0</ele><time>2026-05-01T14:31:50.848Z</time></trkpt><trkpt lat="45.889012" lon="8.5988755"><ele>222.0</ele><time>2026-05-01T14:31:51.846Z</time></trkpt><trkpt lat="45.8888731" lon="8.5989196"><ele>222.0</ele><time>2026-05-01T14:31:52.848Z</time></trkpt><trkpt lat="45.8887336" lon="8.5989708"><ele>222.0</ele><time>2026-05-01T14:31:53.847Z</time></trkpt><trkpt lat="45.8886087" lon="8.599025"><ele>222.0</ele><time>2026-05-01T14:31:54.848Z</time></trkpt><trkpt lat="45.8884979" lon="8.5990627"><ele>222.0</ele><time>2026-05-01T14:31:55.848Z</time></trkpt><trkpt lat="45.888384" lon="8.5991013"><ele>219.75</ele><time>2026-05-01T14:31:56.847Z</time></trkpt><trkpt lat="45.8882685" lon="8.5991562"><ele>217.5</ele><time>2026-05-01T14:31:57.847Z</time></trkpt><trkpt lat="45.8881467" lon="8.5992116"><ele>215.25</ele><time>2026-05-01T14:31:58.847Z</time></trkpt><trkpt lat="45.8880194" lon="8.5992539"><ele>213.0</ele><time>2026-05-01T14:31:59.846Z</time></trkpt><trkpt lat="45.8878926" lon="8.5993019"><ele>213.0</ele><time>2026-05-01T14:32:00.848Z</time></trkpt><trkpt lat="45.8877568" lon="8.5993679"><ele>213.0</ele><time>2026-05-01T14:32:01.847Z</time></trkpt><trkpt lat="45.8876345" lon="8.5994274"><ele>213.0</ele><time>2026-05-01T14:32:02.848Z</time></trkpt><trkpt lat="45.8875109" lon="8.5995008"><ele>213.0</ele><time>2026-05-01T14:32:03.847Z</time></trkpt><trkpt lat="45.8873854" lon="8.5995659"><ele>214.5</ele><time>2026-05-01T14:32:04.848Z</time></trkpt><trkpt lat="45.8872749" lon="8.5996228"><ele>216.0</ele><time>2026-05-01T14:32:05.846Z</time></trkpt><trkpt lat="45.8871709" lon="8.5996824"><ele>217.5</ele><time>2026-05-01T14:32:06.848Z</time></trkpt><trkpt lat="45.8870668" lon="8.5997367"><ele>219.0</ele><time>2026-05-01T14:32:07.848Z</time></trkpt><trkpt lat="45.8869616" lon="8.5997846"><ele>219.0</ele><time>2026-05-01T14:32:08.847Z</time></trkpt><trkpt lat="45.8868524" lon="8.5998378"><ele>219.0</ele><time>2026-05-01T14:32:09.848Z</time></trkpt><trkpt lat="45.8867428" lon="8.5998947"><ele>219.0</ele><time>2026-05-01T14:32:10.847Z</time></trkpt><trkpt lat="45.8866248" lon="8.5999645"><ele>219.0</ele><time>2026-05-01T14:32:11.846Z</time></trkpt><trkpt lat="45.8865134" lon="8.6000318"><ele>218.2</ele><time>2026-05-01T14:32:12.848Z</time></trkpt><trkpt lat="45.8864065" lon="8.6000861"><ele>217.39999999999998</ele><time>2026-05-01T14:32:13.848Z</time></trkpt><trkpt lat="45.8862994" lon="8.6001376"><ele>216.6</ele><time>2026-05-01T14:32:14.847Z</time></trkpt><trkpt lat="45.886196" lon="8.6001924"><ele>215.8</ele><time>2026-05-01T14:32:15.848Z</time></trkpt><trkpt lat="45.8860994" lon="8.6002432"><ele>215.0</ele><time>2026-05-01T14:32:16.848Z</time></trkpt><trkpt lat="45.8859955" lon="8.6002987"><ele>217.0</ele><time>2026-05-01T14:32:17.847Z</time></trkpt><trkpt lat="45.8858944" lon="8.6003533"><ele>219.0</ele><time>2026-05-01T14:32:18.846Z</time></trkpt><trkpt lat="45.8857891" lon="8.6004109"><ele>221.0</ele><time>2026-05-01T14:32:19.848Z</time></trkpt><trkpt lat="45.885678" lon="8.6004682"><ele>223.0</ele><time>2026-05-01T14:32:20.846Z</time></trkpt><trkpt lat="45.8855604" lon="8.6005361"><ele>223.0</ele><time>2026-05-01T14:32:21.848Z</time></trkpt><trkpt lat="45.8854481" lon="8.6005928"><ele>223.0</ele><time>2026-05-01T14:32:22.848Z</time></trkpt><trkpt lat="45.8853344" lon="8.6006579"><ele>223.0</ele><time>2026-05-01T14:32:23.848Z</time></trkpt><trkpt lat="45.8852175" lon="8.600713"><ele>223.0</ele><time>2026-05-01T14:32:24.848Z</time></trkpt><trkpt lat="45.8851" lon="8.600764"><ele>222.25</ele><time>2026-05-01T14:32:25.848Z</time></trkpt><trkpt lat="45.8849797" lon="8.6008003"><ele>221.5</ele><time>2026-05-01T14:32:26.847Z</time></trkpt><trkpt lat="45.8848575" lon="8.6008218"><ele>220.75</ele><time>2026-05-01T14:32:27.848Z</time></trkpt><trkpt lat="45.8847357" lon="8.6008334"><ele>220.0</ele><time>2026-05-01T14:32:28.848Z</time></trkpt><trkpt lat="45.8846158" lon="8.6008413"><ele>220.0</ele><time>2026-05-01T14:32:29.847Z</time></trkpt><trkpt lat="45.8844931" lon="8.6008253"><ele>220.0</ele><time>2026-05-01T14:32:30.848Z</time></trkpt><trkpt lat="45.8843732" lon="8.6008127"><ele>220.0</ele><time>2026-05-01T14:32:31.848Z</time></trkpt><trkpt lat="45.8842467" lon="8.6008033"><ele>220.0</ele><time>2026-05-01T14:32:32.847Z</time></trkpt><trkpt lat="45.884125" lon="8.6008108"><ele>220.5</ele><time>2026-05-01T14:32:33.847Z</time></trkpt><trkpt lat="45.8840055" lon="8.6008167"><ele>221.0</ele><time>2026-05-01T14:32:34.847Z</time></trkpt><trkpt lat="45.88388" lon="8.6008428"><ele>221.5</ele><time>2026-05-01T14:32:35.847Z</time></trkpt><trkpt lat="45.8837534" lon="8.6008658"><ele>222.0</ele><time>2026-05-01T14:32:36.848Z</time></trkpt><trkpt lat="45.8836293" lon="8.6008979"><ele>222.0</ele><time>2026-05-01T14:32:37.847Z</time></trkpt><trkpt lat="45.8835017" lon="8.600929"><ele>222.0</ele><time>2026-05-01T14:32:38.847Z</time></trkpt><trkpt lat="45.8833774" lon="8.6009645"><ele>222.0</ele><time>2026-05-01T14:32:39.847Z</time></trkpt><trkpt lat="45.8832492" lon="8.6010117"><ele>222.0</ele><time>2026-05-01T14:32:40.847Z</time></trkpt><trkpt lat="45.8831244" lon="8.6010551"><ele>223.75</ele><time>2026-05-01T14:32:41.847Z</time></trkpt><trkpt lat="45.8830015" lon="8.6010982"><ele>225.5</ele><time>2026-05-01T14:32:42.847Z</time></trkpt><trkpt lat="45.8828812" lon="8.6011378"><ele>227.25</ele><time>2026-05-01T14:32:43.847Z</time></trkpt><trkpt lat="45.882759" lon="8.60117"><ele>229.0</ele><time>2026-05-01T14:32:44.848Z</time></trkpt><trkpt lat="45.8826413" lon="8.6011985"><ele>228.2</ele><time>2026-05-01T14:32:45.847Z</time></trkpt><trkpt lat="45.8825304" lon="8.6012026"><ele>227.39999999999998</ele><time>2026-05-01T14:32:46.847Z</time></trkpt><trkpt lat="45.8824218" lon="8.6011924"><ele>226.6</ele><time>2026-05-01T14:32:47.847Z</time></trkpt><trkpt lat="45.8823072" lon="8.6011813"><ele>225.8</ele><time>2026-05-01T14:32:48.847Z</time></trkpt><trkpt lat="45.8821938" lon="8.6011677"><ele>225.0</ele><time>2026-05-01T14:32:49.848Z</time></trkpt><trkpt lat="45.8820778" lon="8.6011578"><ele>224.8</ele><time>2026-05-01T14:32:50.847Z</time></trkpt><trkpt lat="45.8819691" lon="8.6011476"><ele>224.6</ele><time>2026-05-01T14:32:51.848Z</time></trkpt><trkpt lat="45.8818663" lon="8.601145"><ele>224.39999999999998</ele><time>2026-05-01T14:32:52.846Z</time></trkpt><trkpt lat="45.8817727" lon="8.601158"><ele>224.2</ele><time>2026-05-01T14:32:53.847Z</time></trkpt><trkpt lat="45.8816853" lon="8.6011867"><ele>224.0</ele><time>2026-05-01T14:32:54.848Z</time></trkpt><trkpt lat="45.8815984" lon="8.6012316"><ele>224.0</ele><time>2026-05-01T14:32:55.847Z</time></trkpt><trkpt lat="45.8815168" lon="8.6012788"><ele>223.99999999999997</ele><time>2026-05-01T14:32:56.848Z</time></trkpt><trkpt lat="45.8814439" lon="8.6013701"><ele>223.99999999999997</ele><time>2026-05-01T14:32:57.847Z</time></trkpt><trkpt lat="45.8813665" lon="8.6014757"><ele>224.0</ele><time>2026-05-01T14:32:58.848Z</time></trkpt><trkpt lat="45.8812878" lon="8.6015747"><ele>224.0</ele><time>2026-05-01T14:32:59.847Z</time></trkpt><trkpt lat="45.8812083" lon="8.6016813"><ele>224.0</ele><time>2026-05-01T14:33:00.848Z</time></trkpt><trkpt lat="45.8811244" lon="8.6017851"><ele>223.99999999999997</ele><time>2026-05-01T14:33:01.847Z</time></trkpt><trkpt lat="45.8810537" lon="8.6018791"><ele>223.99999999999997</ele><time>2026-05-01T14:33:02.847Z</time></trkpt><trkpt lat="45.8809811" lon="8.6019754"><ele>224.0</ele><time>2026-05-01T14:33:03.848Z</time></trkpt><trkpt lat="45.880918" lon="8.6020584"><ele>224.0</ele><time>2026-05-01T14:33:04.847Z</time></trkpt><trkpt lat="45.8808486" lon="8.6021488"><ele>223.6</ele><time>2026-05-01T14:33:05.846Z</time></trkpt><trkpt lat="45.88077" lon="8.6022292"><ele>223.2</ele><time>2026-05-01T14:33:06.848Z</time></trkpt><trkpt lat="45.8806837" lon="8.6023098"><ele>222.79999999999998</ele><time>2026-05-01T14:33:07.847Z</time></trkpt><trkpt lat="45.8805945" lon="8.6023878"><ele>222.39999999999998</ele><time>2026-05-01T14:33:08.847Z</time></trkpt><trkpt lat="45.8805171" lon="8.6024659"><ele>222.0</ele><time>2026-05-01T14:33:09.847Z</time></trkpt><trkpt lat="45.8804645" lon="8.602542"><ele>222.0</ele><time>2026-05-01T14:33:10.846Z</time></trkpt><trkpt lat="45.8804033" lon="8.6026444"><ele>222.0</ele><time>2026-05-01T14:33:11.846Z</time></trkpt><trkpt lat="45.8803515" lon="8.6027469"><ele>222.0</ele><time>2026-05-01T14:33:12.848Z</time></trkpt><trkpt lat="45.8803005" lon="8.6028663"><ele>222.0</ele><time>2026-05-01T14:33:13.847Z</time></trkpt><trkpt lat="45.8802622" lon="8.6029862"><ele>222.0</ele><time>2026-05-01T14:33:14.848Z</time></trkpt><trkpt lat="45.8802306" lon="8.6031158"><ele>223.25</ele><time>2026-05-01T14:33:15.847Z</time></trkpt><trkpt lat="45.8801953" lon="8.6032585"><ele>224.5</ele><time>2026-05-01T14:33:16.847Z</time></trkpt><trkpt lat="45.8801537" lon="8.6034097"><ele>225.75</ele><time>2026-05-01T14:33:17.848Z</time></trkpt><trkpt lat="45.8801143" lon="8.6035679"><ele>227.0</ele><time>2026-05-01T14:33:18.847Z</time></trkpt><trkpt lat="45.8800763" lon="8.6037314"><ele>228.8</ele><time>2026-05-01T14:33:19.848Z</time></trkpt><trkpt lat="45.8800351" lon="8.6038977"><ele>230.6</ele><time>2026-05-01T14:33:20.847Z</time></trkpt><trkpt lat="45.8799966" lon="8.6040576"><ele>232.40000000000003</ele><time>2026-05-01T14:33:21.847Z</time></trkpt><trkpt lat="45.8799652" lon="8.6042139"><ele>234.20000000000002</ele><time>2026-05-01T14:33:22.848Z</time></trkpt><trkpt lat="45.8799393" lon="8.6043449"><ele>236.0</ele><time>2026-05-01T14:33:23.848Z</time></trkpt><trkpt lat="45.8799072" lon="8.6044633"><ele>236.33333333333334</ele><time>2026-05-01T14:33:24.846Z</time></trkpt><trkpt lat="45.8798717" lon="8.6045803"><ele>236.66666666666669</ele><time>2026-05-01T14:33:25.847Z</time></trkpt><trkpt lat="45.8798438" lon="8.6046773"><ele>237.0</ele><time>2026-05-01T14:33:26.847Z</time></trkpt><trkpt lat="45.8798147" lon="8.6047824"><ele>237.33333333333331</ele><time>2026-05-01T14:33:27.848Z</time></trkpt><trkpt lat="45.8797757" lon="8.6048845"><ele>237.66666666666666</ele><time>2026-05-01T14:33:28.846Z</time></trkpt><trkpt lat="45.8797221" lon="8.6049984"><ele>238.0</ele><time>2026-05-01T14:33:29.847Z</time></trkpt><trkpt lat="45.8796562" lon="8.6051038"><ele>238.0</ele><time>2026-05-01T14:33:30.847Z</time></trkpt><trkpt lat="45.8795845" lon="8.6052009"><ele>238.0</ele><time>2026-05-01T14:33:31.847Z</time></trkpt><trkpt lat="45.8795006" lon="8.6052964"><ele>238.0</ele><time>2026-05-01T14:33:32.847Z</time></trkpt><trkpt lat="45.8794019" lon="8.6053889"><ele>238.0</ele><time>2026-05-01T14:33:33.848Z</time></trkpt><trkpt lat="45.8792878" lon="8.6054925"><ele>236.75</ele><time>2026-05-01T14:33:34.847Z</time></trkpt><trkpt lat="45.8791739" lon="8.605589"><ele>235.5</ele><time>2026-05-01T14:33:35.847Z</time></trkpt><trkpt lat="45.8790648" lon="8.6056883"><ele>234.25</ele><time>2026-05-01T14:33:36.848Z</time></trkpt><trkpt lat="45.87895" lon="8.6057815"><ele>233.0</ele><time>2026-05-01T14:33:37.848Z</time></trkpt><trkpt lat="45.8788353" lon="8.6058845"><ele>233.0</ele><time>2026-05-01T14:33:38.848Z</time></trkpt><trkpt lat="45.878715" lon="8.6059889"><ele>233.0</ele><time>2026-05-01T14:33:39.847Z</time></trkpt><trkpt lat="45.8785972" lon="8.6060956"><ele>233.0</ele><time>2026-05-01T14:33:40.848Z</time></trkpt><trkpt lat="45.8784755" lon="8.6062045"><ele>233.0</ele><time>2026-05-01T14:33:41.847Z</time></trkpt><trkpt lat="45.8783561" lon="8.6063066"><ele>232.75</ele><time>2026-05-01T14:33:42.847Z</time></trkpt><trkpt lat="45.8782403" lon="8.6064049"><ele>232.5</ele><time>2026-05-01T14:33:43.848Z</time></trkpt><trkpt lat="45.8781293" lon="8.6065021"><ele>232.25</ele><time>2026-05-01T14:33:44.847Z</time></trkpt><trkpt lat="45.8780213" lon="8.6065968"><ele>232.0</ele><time>2026-05-01T14:33:45.847Z</time></trkpt><trkpt lat="45.877913" lon="8.6066944"><ele>232.0</ele><time>2026-05-01T14:33:46.847Z</time></trkpt><trkpt lat="45.8778068" lon="8.6067887"><ele>232.0</ele><time>2026-05-01T14:33:47.846Z</time></trkpt><trkpt lat="45.877695" lon="8.6068875"><ele>232.0</ele><time>2026-05-01T14:33:48.848Z</time></trkpt><trkpt lat="45.8775963" lon="8.6069814"><ele>232.0</ele><time>2026-05-01T14:33:49.848Z</time></trkpt><trkpt lat="45.877495" lon="8.6070853"><ele>232.0</ele><time>2026-05-01T14:33:50.848Z</time></trkpt><trkpt lat="45.8773773" lon="8.6071934"><ele>232.0</ele><time>2026-05-01T14:33:51.847Z</time></trkpt><trkpt lat="45.8772522" lon="8.6072888"><ele>232.0</ele><time>2026-05-01T14:33:52.847Z</time></trkpt><trkpt lat="45.877129" lon="8.6073748"><ele>232.0</ele><time>2026-05-01T14:33:53.847Z</time></trkpt><trkpt lat="45.8770171" lon="8.6074474"><ele>232.0</ele><time>2026-05-01T14:33:54.848Z</time></trkpt><trkpt lat="45.8769068" lon="8.6075184"><ele>232.0</ele><time>2026-05-01T14:33:55.847Z</time></trkpt><trkpt lat="45.8768022" lon="8.6075847"><ele>232.0</ele><time>2026-05-01T14:33:56.847Z</time></trkpt><trkpt lat="45.8767083" lon="8.6076389"><ele>232.0</ele><time>2026-05-01T14:33:57.848Z</time></trkpt><trkpt lat="45.876617" lon="8.6076901"><ele>232.0</ele><time>2026-05-01T14:33:58.847Z</time></trkpt><trkpt lat="45.8765325" lon="8.6077336"><ele>232.66666666666666</ele><time>2026-05-01T14:33:59.848Z</time></trkpt><trkpt lat="45.8764592" lon="8.6077691"><ele>233.33333333333331</ele><time>2026-05-01T14:34:00.848Z</time></trkpt><trkpt lat="45.8763828" lon="8.6078121"><ele>234.0</ele><time>2026-05-01T14:34:01.847Z</time></trkpt><trkpt lat="45.8763004" lon="8.6078487"><ele>234.66666666666669</ele><time>2026-05-01T14:34:02.847Z</time></trkpt><trkpt lat="45.8762141" lon="8.6078847"><ele>235.33333333333334</ele><time>2026-05-01T14:34:03.846Z</time></trkpt><trkpt lat="45.8761197" lon="8.6079249"><ele>236.0</ele><time>2026-05-01T14:34:04.847Z</time></trkpt><trkpt lat="45.8760227" lon="8.6079662"><ele>236.75</ele><time>2026-05-01T14:34:05.845Z</time></trkpt><trkpt lat="45.875915" lon="8.6080099"><ele>237.5</ele><time>2026-05-01T14:34:06.847Z</time></trkpt><trkpt lat="45.8757997" lon="8.6080602"><ele>238.25</ele><time>2026-05-01T14:34:07.847Z</time></trkpt><trkpt lat="45.8756843" lon="8.6081094"><ele>239.0</ele><time>2026-05-01T14:34:08.846Z</time></trkpt><trkpt lat="45.8755679" lon="8.6081649"><ele>239.0</ele><time>2026-05-01T14:34:09.847Z</time></trkpt><trkpt lat="45.8754459" lon="8.6082164"><ele>239.0</ele><time>2026-05-01T14:34:10.848Z</time></trkpt><trkpt lat="45.8753082" lon="8.6082789"><ele>239.0</ele><time>2026-05-01T14:34:11.848Z</time></trkpt><trkpt lat="45.8751752" lon="8.6083454"><ele>239.0</ele><time>2026-05-01T14:34:12.848Z</time></trkpt><trkpt lat="45.8750595" lon="8.6083993"><ele>239.00000000000003</ele><time>2026-05-01T14:34:13.848Z</time></trkpt><trkpt lat="45.8749595" lon="8.6084424"><ele>239.0</ele><time>2026-05-01T14:34:14.848Z</time></trkpt><trkpt lat="45.8748728" lon="8.6084776"><ele>239.0</ele><time>2026-05-01T14:34:15.848Z</time></trkpt><trkpt lat="45.8747936" lon="8.6085101"><ele>239.0</ele><time>2026-05-01T14:34:16.847Z</time></trkpt><trkpt lat="45.8747213" lon="8.6085417"><ele>239.00000000000003</ele><time>2026-05-01T14:34:17.847Z</time></trkpt><trkpt lat="45.8746417" lon="8.6085818"><ele>239.0</ele><time>2026-05-01T14:34:18.847Z</time></trkpt><trkpt lat="45.8745554" lon="8.6086216"><ele>239.0</ele><time>2026-05-01T14:34:19.848Z</time></trkpt><trkpt lat="45.8744671" lon="8.6086559"><ele>238.99999999999997</ele><time>2026-05-01T14:34:20.847Z</time></trkpt><trkpt lat="45.8743814" lon="8.6086962"><ele>238.99999999999997</ele><time>2026-05-01T14:34:21.846Z</time></trkpt><trkpt lat="45.8742891" lon="8.6087365"><ele>239.0</ele><time>2026-05-01T14:34:22.847Z</time></trkpt><trkpt lat="45.8741893" lon="8.6087814"><ele>239.0</ele><time>2026-05-01T14:34:23.848Z</time></trkpt><trkpt lat="45.8740853" lon="8.6088222"><ele>239.25</ele><time>2026-05-01T14:34:24.848Z</time></trkpt><trkpt lat="45.8739709" lon="8.6088752"><ele>239.5</ele><time>2026-05-01T14:34:25.847Z</time></trkpt><trkpt lat="45.873846" lon="8.6089341"><ele>239.75</ele><time>2026-05-01T14:34:26.847Z</time></trkpt><trkpt lat="45.8737168" lon="8.6089938"><ele>240.0</ele><time>2026-05-01T14:34:27.848Z</time></trkpt><trkpt lat="45.8735938" lon="8.6090517"><ele>240.0</ele><time>2026-05-01T14:34:28.848Z</time></trkpt><trkpt lat="45.8734775" lon="8.6091103"><ele>240.0</ele><time>2026-05-01T14:34:29.848Z</time></trkpt><trkpt lat="45.873355" lon="8.6091644"><ele>240.0</ele><time>2026-05-01T14:34:30.848Z</time></trkpt><trkpt lat="45.8732282" lon="8.6092223"><ele>240.0</ele><time>2026-05-01T14:34:31.847Z</time></trkpt><trkpt lat="45.8730987" lon="8.6092809"><ele>241.5</ele><time>2026-05-01T14:34:32.848Z</time></trkpt><trkpt lat="45.8729753" lon="8.609328"><ele>243.0</ele><time>2026-05-01T14:34:33.847Z</time></trkpt><trkpt lat="45.8728509" lon="8.6093846"><ele>244.5</ele><time>2026-05-01T14:34:34.848Z</time></trkpt><trkpt lat="45.8727332" lon="8.6094359"><ele>246.0</ele><time>2026-05-01T14:34:35.847Z</time></trkpt><trkpt lat="45.8726191" lon="8.6094842"><ele>245.25</ele><time>2026-05-01T14:34:36.846Z</time></trkpt><trkpt lat="45.8725028" lon="8.6095396"><ele>244.5</ele><time>2026-05-01T14:34:37.847Z</time></trkpt><trkpt lat="45.8723883" lon="8.6095904"><ele>243.75</ele><time>2026-05-01T14:34:38.847Z</time></trkpt><trkpt lat="45.8722865" lon="8.6096312"><ele>243.0</ele><time>2026-05-01T14:34:39.847Z</time></trkpt><trkpt lat="45.8721696" lon="8.6096835"><ele>243.0</ele><time>2026-05-01T14:34:40.846Z</time></trkpt><trkpt lat="45.872042" lon="8.609733"><ele>243.0</ele><time>2026-05-01T14:34:41.847Z</time></trkpt><trkpt lat="45.8719097" lon="8.60978"><ele>243.0</ele><time>2026-05-01T14:34:42.847Z</time></trkpt><trkpt lat="45.8717748" lon="8.6098481"><ele>243.0</ele><time>2026-05-01T14:34:43.848Z</time></trkpt><trkpt lat="45.8716541" lon="8.6098916"><ele>243.5</ele><time>2026-05-01T14:34:44.847Z</time></trkpt><trkpt lat="45.8715237" lon="8.6099341"><ele>244.0</ele><time>2026-05-01T14:34:45.847Z</time></trkpt><trkpt lat="45.8714039" lon="8.609972"><ele>244.5</ele><time>2026-05-01T14:34:46.847Z</time></trkpt><trkpt lat="45.871292" lon="8.6100074"><ele>245.0</ele><time>2026-05-01T14:34:47.847Z</time></trkpt><trkpt lat="45.8711776" lon="8.6100383"><ele>245.0</ele><time>2026-05-01T14:34:48.847Z</time></trkpt><trkpt lat="45.8710596" lon="8.610055"><ele>245.0</ele><time>2026-05-01T14:34:49.848Z</time></trkpt><trkpt lat="45.8709427" lon="8.6100662"><ele>245.0</ele><time>2026-05-01T14:34:50.847Z</time></trkpt><trkpt lat="45.8708291" lon="8.6100493"><ele>245.0</ele><time>2026-05-01T14:34:51.847Z</time></trkpt><trkpt lat="45.8707188" lon="8.6100149"><ele>245.25</ele><time>2026-05-01T14:34:52.848Z</time></trkpt><trkpt lat="45.8706045" lon="8.6099726"><ele>245.5</ele><time>2026-05-01T14:34:53.848Z</time></trkpt><trkpt lat="45.8704766" lon="8.6099182"><ele>245.75</ele><time>2026-05-01T14:34:54.848Z</time></trkpt><trkpt lat="45.8703383" lon="8.6098627"><ele>246.0</ele><time>2026-05-01T14:34:55.846Z</time></trkpt><trkpt lat="45.8702041" lon="8.6098014"><ele>245.5</ele><time>2026-05-01T14:34:56.848Z</time></trkpt><trkpt lat="45.8700693" lon="8.6097372"><ele>245.0</ele><time>2026-05-01T14:34:57.847Z</time></trkpt><trkpt lat="45.8699476" lon="8.6096773"><ele>244.5</ele><time>2026-05-01T14:34:58.847Z</time></trkpt><trkpt lat="45.8698365" lon="8.609616"><ele>244.0</ele><time>2026-05-01T14:34:59.848Z</time></trkpt><trkpt lat="45.8697229" lon="8.6095587"><ele>244.0</ele><time>2026-05-01T14:35:00.848Z</time></trkpt><trkpt lat="45.8696099" lon="8.6094963"><ele>244.0</ele><time>2026-05-01T14:35:01.847Z</time></trkpt><trkpt lat="45.8694883" lon="8.6094407"><ele>244.0</ele><time>2026-05-01T14:35:02.847Z</time></trkpt><trkpt lat="45.8693675" lon="8.6093863"><ele>244.0</ele><time>2026-05-01T14:35:03.848Z</time></trkpt><trkpt lat="45.8692446" lon="8.6093356"><ele>244.75</ele><time>2026-05-01T14:35:04.848Z</time></trkpt><trkpt lat="45.8691165" lon="8.609285"><ele>245.5</ele><time>2026-05-01T14:35:05.847Z</time></trkpt><trkpt lat="45.8689931" lon="8.6092612"><ele>246.25</ele><time>2026-05-01T14:35:06.848Z</time></trkpt><trkpt lat="45.8688714" lon="8.6092383"><ele>247.0</ele><time>2026-05-01T14:35:07.847Z</time></trkpt><trkpt lat="45.8687465" lon="8.6092223"><ele>247.0</ele><time>2026-05-01T14:35:08.848Z</time></trkpt><trkpt lat="45.868613" lon="8.6092178"><ele>247.0</ele><time>2026-05-01T14:35:09.846Z</time></trkpt><trkpt lat="45.8684666" lon="8.6092211"><ele>247.0</ele><time>2026-05-01T14:35:10.847Z</time></trkpt><trkpt lat="45.868311" lon="8.6092329"><ele>247.0</ele><time>2026-05-01T14:35:11.847Z</time></trkpt><trkpt lat="45.8681529" lon="8.6092492"><ele>247.66666666666666</ele><time>2026-05-01T14:35:12.846Z</time></trkpt><trkpt lat="45.8679943" lon="8.6092725"><ele>248.33333333333331</ele><time>2026-05-01T14:35:13.847Z</time></trkpt><trkpt lat="45.8678281" lon="8.609298"><ele>249.0</ele><time>2026-05-01T14:35:14.848Z</time></trkpt><trkpt lat="45.8676666" lon="8.6093316"><ele>245.66666666666669</ele><time>2026-05-01T14:35:15.847Z</time></trkpt><trkpt lat="45.8675145" lon="8.6093492"><ele>242.33333333333334</ele><time>2026-05-01T14:35:16.847Z</time></trkpt><trkpt lat="45.8673602" lon="8.6093738"><ele>239.0</ele><time>2026-05-01T14:35:17.847Z</time></trkpt><trkpt lat="45.8672085" lon="8.6094005"><ele>239.0</ele><time>2026-05-01T14:35:18.848Z</time></trkpt><trkpt lat="45.8670646" lon="8.6094214"><ele>239.0</ele><time>2026-05-01T14:35:19.847Z</time></trkpt><trkpt lat="45.866932" lon="8.6094447"><ele>239.0</ele><time>2026-05-01T14:35:20.847Z</time></trkpt><trkpt lat="45.8667892" lon="8.6094688"><ele>239.0</ele><time>2026-05-01T14:35:21.848Z</time></trkpt><trkpt lat="45.8666503" lon="8.6094911"><ele>238.75</ele><time>2026-05-01T14:35:22.847Z</time></trkpt><trkpt lat="45.8665195" lon="8.6095147"><ele>238.5</ele><time>2026-05-01T14:35:23.847Z</time></trkpt><trkpt lat="45.8663978" lon="8.6095309"><ele>238.25</ele><time>2026-05-01T14:35:24.848Z</time></trkpt><trkpt lat="45.8662739" lon="8.6095425"><ele>238.0</ele><time>2026-05-01T14:35:25.847Z</time></trkpt><trkpt lat="45.8661373" lon="8.6095596"><ele>238.0</ele><time>2026-05-01T14:35:26.848Z</time></trkpt><trkpt lat="45.8660032" lon="8.6095749"><ele>238.0</ele><time>2026-05-01T14:35:27.847Z</time></trkpt><trkpt lat="45.8658691" lon="8.6096004"><ele>238.0</ele><time>2026-05-01T14:35:28.847Z</time></trkpt><trkpt lat="45.8657242" lon="8.6096382"><ele>238.0</ele><time>2026-05-01T14:35:29.846Z</time></trkpt><trkpt lat="45.8655862" lon="8.6096739"><ele>236.75</ele><time>2026-05-01T14:35:30.848Z</time></trkpt><trkpt lat="45.8654498" lon="8.6097324"><ele>235.5</ele><time>2026-05-01T14:35:31.847Z</time></trkpt><trkpt lat="45.8653146" lon="8.6097981"><ele>234.25</ele><time>2026-05-01T14:35:32.847Z</time></trkpt><trkpt lat="45.8651944" lon="8.6098673"><ele>233.0</ele><time>2026-05-01T14:35:33.848Z</time></trkpt><trkpt lat="45.8650836" lon="8.6099414"><ele>232.25</ele><time>2026-05-01T14:35:34.847Z</time></trkpt><trkpt lat="45.8649741" lon="8.6100167"><ele>231.5</ele><time>2026-05-01T14:35:35.848Z</time></trkpt><trkpt lat="45.8648635" lon="8.6100996"><ele>230.75</ele><time>2026-05-01T14:35:36.847Z</time></trkpt><trkpt lat="45.8647555" lon="8.610177"><ele>230.0</ele><time>2026-05-01T14:35:37.847Z</time></trkpt><trkpt lat="45.864651" lon="8.6102548"><ele>230.0</ele><time>2026-05-01T14:35:38.847Z</time></trkpt><trkpt lat="45.8645565" lon="8.6103221"><ele>230.0</ele><time>2026-05-01T14:35:39.847Z</time></trkpt><trkpt lat="45.8644642" lon="8.6103824"><ele>230.0</ele><time>2026-05-01T14:35:40.847Z</time></trkpt><trkpt lat="45.8643783" lon="8.6104451"><ele>230.0</ele><time>2026-05-01T14:35:41.846Z</time></trkpt><trkpt lat="45.8643071" lon="8.6105076"><ele>230.0</ele><time>2026-05-01T14:35:42.847Z</time></trkpt><trkpt lat="45.8642444" lon="8.6105464"><ele>229.99999999999997</ele><time>2026-05-01T14:35:43.847Z</time></trkpt><trkpt lat="45.8641849" lon="8.6105942"><ele>230.0</ele><time>2026-05-01T14:35:44.847Z</time></trkpt><trkpt lat="45.8641267" lon="8.6106359"><ele>229.99999999999997</ele><time>2026-05-01T14:35:45.847Z</time></trkpt><trkpt lat="45.8640652" lon="8.6106799"><ele>229.99999999999997</ele><time>2026-05-01T14:35:46.847Z</time></trkpt><trkpt lat="45.8639861" lon="8.6107329"><ele>230.0</ele><time>2026-05-01T14:35:48.847Z</time></trkpt><trkpt lat="45.8639279" lon="8.6107702"><ele>229.99999999999997</ele><time>2026-05-01T14:35:51.846Z</time></trkpt><trkpt lat="45.8638666" lon="8.6108028"><ele>229.99999999999997</ele><time>2026-05-01T14:35:54.847Z</time></trkpt><trkpt lat="45.8637999" lon="8.6108443"><ele>230.00000000000003</ele><time>2026-05-01T14:35:56.847Z</time></trkpt><trkpt lat="45.8637297" lon="8.6108883"><ele>230.0</ele><time>2026-05-01T14:35:57.847Z</time></trkpt><trkpt lat="45.8636083" lon="8.6109635"><ele>230.0</ele><time>2026-05-01T14:35:59.847Z</time></trkpt><trkpt lat="45.8635458" lon="8.6109939"><ele>230.0</ele><time>2026-05-01T14:36:00.846Z</time></trkpt><trkpt lat="45.8634802" lon="8.6110057"><ele>230.00000000000003</ele><time>2026-05-01T14:36:01.847Z</time></trkpt><trkpt lat="45.8634109" lon="8.6110288"><ele>230.0</ele><time>2026-05-01T14:36:02.847Z</time></trkpt><trkpt lat="45.8633312" lon="8.6110557"><ele>229.4</ele><time>2026-05-01T14:36:03.847Z</time></trkpt><trkpt lat="45.8632458" lon="8.6110816"><ele>228.8</ele><time>2026-05-01T14:36:04.847Z</time></trkpt><trkpt lat="45.8631541" lon="8.6111353"><ele>228.2</ele><time>2026-05-01T14:36:05.848Z</time></trkpt><trkpt lat="45.8630603" lon="8.6111709"><ele>227.6</ele><time>2026-05-01T14:36:06.847Z</time></trkpt><trkpt lat="45.8629687" lon="8.6112195"><ele>227.0</ele><time>2026-05-01T14:36:07.847Z</time></trkpt><trkpt lat="45.8628751" lon="8.6112548"><ele>227.0</ele><time>2026-05-01T14:36:08.847Z</time></trkpt><trkpt lat="45.8627726" lon="8.6112934"><ele>227.0</ele><time>2026-05-01T14:36:09.848Z</time></trkpt><trkpt lat="45.8626728" lon="8.611335"><ele>227.0</ele><time>2026-05-01T14:36:10.846Z</time></trkpt><trkpt lat="45.8625669" lon="8.611381"><ele>227.0</ele><time>2026-05-01T14:36:11.848Z</time></trkpt><trkpt lat="45.8624642" lon="8.6114508"><ele>227.0</ele><time>2026-05-01T14:36:12.847Z</time></trkpt><trkpt lat="45.8623662" lon="8.611544"><ele>227.0</ele><time>2026-05-01T14:36:13.846Z</time></trkpt><trkpt lat="45.8622772" lon="8.6116489"><ele>227.0</ele><time>2026-05-01T14:36:14.847Z</time></trkpt><trkpt lat="45.8621824" lon="8.6117772"><ele>227.0</ele><time>2026-05-01T14:36:15.847Z</time></trkpt><trkpt lat="45.8620981" lon="8.6118942"><ele>227.0</ele><time>2026-05-01T14:36:16.848Z</time></trkpt><trkpt lat="45.8620177" lon="8.6120039"><ele>227.0</ele><time>2026-05-01T14:36:17.847Z</time></trkpt><trkpt lat="45.8619367" lon="8.6121096"><ele>227.0</ele><time>2026-05-01T14:36:18.847Z</time></trkpt><trkpt lat="45.8618548" lon="8.6122097"><ele>227.0</ele><time>2026-05-01T14:36:19.847Z</time></trkpt><trkpt lat="45.8617708" lon="8.6123042"><ele>227.0</ele><time>2026-05-01T14:36:20.846Z</time></trkpt><trkpt lat="45.8616897" lon="8.6123603"><ele>227.0</ele><time>2026-05-01T14:36:21.847Z</time></trkpt><trkpt lat="45.8616069" lon="8.6123945"><ele>226.0</ele><time>2026-05-01T14:36:22.847Z</time></trkpt><trkpt lat="45.8615198" lon="8.6124127"><ele>225.0</ele><time>2026-05-01T14:36:23.847Z</time></trkpt><trkpt lat="45.8614272" lon="8.6124102"><ele>224.0</ele><time>2026-05-01T14:36:24.846Z</time></trkpt><trkpt lat="45.861329" lon="8.6123843"><ele>223.0</ele><time>2026-05-01T14:36:25.847Z</time></trkpt><trkpt lat="45.8612164" lon="8.6123411"><ele>222.0</ele><time>2026-05-01T14:36:26.847Z</time></trkpt><trkpt lat="45.8611076" lon="8.6122911"><ele>222.0</ele><time>2026-05-01T14:36:27.847Z</time></trkpt><trkpt lat="45.8610087" lon="8.6122261"><ele>222.0</ele><time>2026-05-01T14:36:28.848Z</time></trkpt><trkpt lat="45.8609169" lon="8.6121558"><ele>222.0</ele><time>2026-05-01T14:36:29.847Z</time></trkpt><trkpt lat="45.8608375" lon="8.6120824"><ele>222.0</ele><time>2026-05-01T14:36:30.847Z</time></trkpt><trkpt lat="45.8607718" lon="8.6119841"><ele>222.0</ele><time>2026-05-01T14:36:31.848Z</time></trkpt><trkpt lat="45.8607029" lon="8.611876"><ele>221.8</ele><time>2026-05-01T14:36:32.847Z</time></trkpt><trkpt lat="45.8606207" lon="8.6117829"><ele>221.6</ele><time>2026-05-01T14:36:33.846Z</time></trkpt><trkpt lat="45.8605274" lon="8.6117117"><ele>221.40000000000003</ele><time>2026-05-01T14:36:34.847Z</time></trkpt><trkpt lat="45.8604303" lon="8.6116603"><ele>221.20000000000002</ele><time>2026-05-01T14:36:35.847Z</time></trkpt><trkpt lat="45.8603322" lon="8.6116307"><ele>221.0</ele><time>2026-05-01T14:36:36.846Z</time></trkpt><trkpt lat="45.8602306" lon="8.6116377"><ele>221.0</ele><time>2026-05-01T14:36:37.846Z</time></trkpt><trkpt lat="45.8601368" lon="8.6116574"><ele>221.00000000000003</ele><time>2026-05-01T14:36:38.847Z</time></trkpt><trkpt lat="45.860043" lon="8.6117482"><ele>221.00000000000003</ele><time>2026-05-01T14:36:39.847Z</time></trkpt><trkpt lat="45.8599571" lon="8.6118448"><ele>221.0</ele><time>2026-05-01T14:36:40.847Z</time></trkpt><trkpt lat="45.8598781" lon="8.6119668"><ele>221.0</ele><time>2026-05-01T14:36:41.846Z</time></trkpt><trkpt lat="45.8597972" lon="8.6120981"><ele>217.25</ele><time>2026-05-01T14:36:42.847Z</time></trkpt><trkpt lat="45.8597131" lon="8.6122468"><ele>213.5</ele><time>2026-05-01T14:36:43.846Z</time></trkpt><trkpt lat="45.8596309" lon="8.6123987"><ele>209.75</ele><time>2026-05-01T14:36:44.847Z</time></trkpt><trkpt lat="45.8595573" lon="8.6125543"><ele>206.0</ele><time>2026-05-01T14:36:45.846Z</time></trkpt><trkpt lat="45.8594792" lon="8.6127057"><ele>206.0</ele><time>2026-05-01T14:36:46.847Z</time></trkpt><trkpt lat="45.8594037" lon="8.6128552"><ele>206.0</ele><time>2026-05-01T14:36:47.847Z</time></trkpt><trkpt lat="45.8593337" lon="8.6129874"><ele>206.0</ele><time>2026-05-01T14:36:48.848Z</time></trkpt><trkpt lat="45.8592673" lon="8.6131153"><ele>206.0</ele><time>2026-05-01T14:36:49.847Z</time></trkpt><trkpt lat="45.8592045" lon="8.6132368"><ele>206.20000000000002</ele><time>2026-05-01T14:36:50.847Z</time></trkpt><trkpt lat="45.8591448" lon="8.6133447"><ele>206.4</ele><time>2026-05-01T14:36:51.848Z</time></trkpt><trkpt lat="45.8590769" lon="8.6134471"><ele>206.6</ele><time>2026-05-01T14:36:52.847Z</time></trkpt><trkpt lat="45.8589991" lon="8.6135313"><ele>206.8</ele><time>2026-05-01T14:36:53.847Z</time></trkpt><trkpt lat="45.8589138" lon="8.6135841"><ele>207.0</ele><time>2026-05-01T14:36:54.847Z</time></trkpt><trkpt lat="45.8588166" lon="8.6136118"><ele>207.0</ele><time>2026-05-01T14:36:55.847Z</time></trkpt><trkpt lat="45.8587116" lon="8.6136086"><ele>207.0</ele><time>2026-05-01T14:36:56.847Z</time></trkpt><trkpt lat="45.8586056" lon="8.6135845"><ele>207.0</ele><time>2026-05-01T14:36:57.847Z</time></trkpt><trkpt lat="45.858491" lon="8.6135703"><ele>207.0</ele><time>2026-05-01T14:36:58.845Z</time></trkpt><trkpt lat="45.8583716" lon="8.6135615"><ele>207.0</ele><time>2026-05-01T14:36:59.847Z</time></trkpt><trkpt lat="45.8582494" lon="8.6135413"><ele>206.5</ele><time>2026-05-01T14:37:00.846Z</time></trkpt><trkpt lat="45.858114" lon="8.6135201"><ele>206.0</ele><time>2026-05-01T14:37:01.847Z</time></trkpt><trkpt lat="45.8579755" lon="8.6134989"><ele>205.5</ele><time>2026-05-01T14:37:02.846Z</time></trkpt><trkpt lat="45.8578393" lon="8.6134794"><ele>205.0</ele><time>2026-05-01T14:37:03.847Z</time></trkpt><trkpt lat="45.8577093" lon="8.6134526"><ele>206.66666666666666</ele><time>2026-05-01T14:37:04.847Z</time></trkpt><trkpt lat="45.8575466" lon="8.613449"><ele>208.33333333333331</ele><time>2026-05-01T14:37:05.848Z</time></trkpt><trkpt lat="45.8573624" lon="8.6134371"><ele>210.0</ele><time>2026-05-01T14:37:06.847Z</time></trkpt><trkpt lat="45.8571587" lon="8.6134109"><ele>210.0</ele><time>2026-05-01T14:37:07.848Z</time></trkpt><trkpt lat="45.8569367" lon="8.6133832"><ele>210.0</ele><time>2026-05-01T14:37:08.847Z</time></trkpt><trkpt lat="45.8567297" lon="8.6133645"><ele>210.0</ele><time>2026-05-01T14:37:09.846Z</time></trkpt><trkpt lat="45.8565288" lon="8.6133583"><ele>210.33333333333331</ele><time>2026-05-01T14:37:10.847Z</time></trkpt><trkpt lat="45.8563477" lon="8.6133431"><ele>210.66666666666666</ele><time>2026-05-01T14:37:11.846Z</time></trkpt><trkpt lat="45.8561751" lon="8.6133304"><ele>211.0</ele><time>2026-05-01T14:37:12.848Z</time></trkpt><trkpt lat="45.8560292" lon="8.6133216"><ele>211.0</ele><time>2026-05-01T14:37:13.848Z</time></trkpt><trkpt lat="45.8558831" lon="8.6133166"><ele>211.0</ele><time>2026-05-01T14:37:14.846Z</time></trkpt><trkpt lat="45.8557523" lon="8.6133069"><ele>211.0</ele><time>2026-05-01T14:37:15.846Z</time></trkpt><trkpt lat="45.8556263" lon="8.6132877"><ele>211.0</ele><time>2026-05-01T14:37:16.847Z</time></trkpt><trkpt lat="45.8554935" lon="8.6132762"><ele>211.0</ele><time>2026-05-01T14:37:17.847Z</time></trkpt><trkpt lat="45.8553553" lon="8.6132888"><ele>211.0</ele><time>2026-05-01T14:37:18.847Z</time></trkpt><trkpt lat="45.8552417" lon="8.6132857"><ele>211.0</ele><time>2026-05-01T14:37:19.847Z</time></trkpt><trkpt lat="45.8551171" lon="8.6132939"><ele>211.0</ele><time>2026-05-01T14:37:20.847Z</time></trkpt><trkpt lat="45.8549988" lon="8.6133153"><ele>211.0</ele><time>2026-05-01T14:37:21.848Z</time></trkpt><trkpt lat="45.8548854" lon="8.613354"><ele>211.0</ele><time>2026-05-01T14:37:22.847Z</time></trkpt><trkpt lat="45.8547734" lon="8.6134042"><ele>211.0</ele><time>2026-05-01T14:37:23.847Z</time></trkpt><trkpt lat="45.8546684" lon="8.613466"><ele>211.0</ele><time>2026-05-01T14:37:24.848Z</time></trkpt><trkpt lat="45.8545741" lon="8.6135473"><ele>211.0</ele><time>2026-05-01T14:37:25.847Z</time></trkpt><trkpt lat="45.8544705" lon="8.613637"><ele>211.0</ele><time>2026-05-01T14:37:26.847Z</time></trkpt><trkpt lat="45.8543606" lon="8.6137357"><ele>211.0</ele><time>2026-05-01T14:37:27.847Z</time></trkpt><trkpt lat="45.854254" lon="8.6138307"><ele>211.0</ele><time>2026-05-01T14:37:28.847Z</time></trkpt><trkpt lat="45.8541567" lon="8.6139237"><ele>211.20000000000002</ele><time>2026-05-01T14:37:29.847Z</time></trkpt><trkpt lat="45.8540649" lon="8.6140005"><ele>211.4</ele><time>2026-05-01T14:37:30.847Z</time></trkpt><trkpt lat="45.8539787" lon="8.6140759"><ele>211.6</ele><time>2026-05-01T14:37:31.846Z</time></trkpt><trkpt lat="45.8538955" lon="8.6141507"><ele>211.8</ele><time>2026-05-01T14:37:32.846Z</time></trkpt><trkpt lat="45.8538205" lon="8.6142193"><ele>212.0</ele><time>2026-05-01T14:37:33.847Z</time></trkpt><trkpt lat="45.8537508" lon="8.6142844"><ele>212.0</ele><time>2026-05-01T14:37:34.847Z</time></trkpt><trkpt lat="45.8536867" lon="8.6143456"><ele>212.0</ele><time>2026-05-01T14:37:35.847Z</time></trkpt><trkpt lat="45.8536353" lon="8.6144435"><ele>212.0</ele><time>2026-05-01T14:37:36.846Z</time></trkpt><trkpt lat="45.8535964" lon="8.6145552"><ele>212.0</ele><time>2026-05-01T14:37:37.847Z</time></trkpt><trkpt lat="45.8535952" lon="8.6146959"><ele>212.0</ele><time>2026-05-01T14:37:38.847Z</time></trkpt><trkpt lat="45.8536068" lon="8.6148466"><ele>215.0</ele><time>2026-05-01T14:37:39.847Z</time></trkpt><trkpt lat="45.8536406" lon="8.6150062"><ele>218.0</ele><time>2026-05-01T14:37:40.847Z</time></trkpt><trkpt lat="45.8536704" lon="8.6151651"><ele>221.0</ele><time>2026-05-01T14:37:41.847Z</time></trkpt><trkpt lat="45.8536926" lon="8.6153334"><ele>224.0</ele><time>2026-05-01T14:37:42.847Z</time></trkpt><trkpt lat="45.8537162" lon="8.6154963"><ele>225.5</ele><time>2026-05-01T14:37:43.846Z</time></trkpt><trkpt lat="45.8537462" lon="8.6156575"><ele>227.0</ele><time>2026-05-01T14:37:44.846Z</time></trkpt><trkpt lat="45.8537824" lon="8.6158178"><ele>228.5</ele><time>2026-05-01T14:37:45.848Z</time></trkpt><trkpt lat="45.8538158" lon="8.6159724"><ele>230.0</ele><time>2026-05-01T14:37:46.846Z</time></trkpt><trkpt lat="45.853857" lon="8.616134"><ele>228.75</ele><time>2026-05-01T14:37:47.847Z</time></trkpt><trkpt lat="45.8539006" lon="8.6162964"><ele>227.5</ele><time>2026-05-01T14:37:48.847Z</time></trkpt><trkpt lat="45.8539526" lon="8.616445"><ele>226.25</ele><time>2026-05-01T14:37:49.846Z</time></trkpt><trkpt lat="45.8540009" lon="8.6165858"><ele>225.0</ele><time>2026-05-01T14:37:50.847Z</time></trkpt><trkpt lat="45.8540527" lon="8.6167259"><ele>225.0</ele><time>2026-05-01T14:37:51.852Z</time></trkpt><trkpt lat="45.8541089" lon="8.6168624"><ele>225.0</ele><time>2026-05-01T14:37:52.847Z</time></trkpt><trkpt lat="45.8541599" lon="8.6170034"><ele>225.0</ele><time>2026-05-01T14:37:53.848Z</time></trkpt><trkpt lat="45.8542086" lon="8.6171427"><ele>225.0</ele><time>2026-05-01T14:37:54.847Z</time></trkpt><trkpt lat="45.8542643" lon="8.6172845"><ele>225.0</ele><time>2026-05-01T14:37:55.846Z</time></trkpt><trkpt lat="45.8543147" lon="8.6174277"><ele>225.2</ele><time>2026-05-01T14:37:56.846Z</time></trkpt><trkpt lat="45.8543664" lon="8.6175625"><ele>225.4</ele><time>2026-05-01T14:37:57.845Z</time></trkpt><trkpt lat="45.8544181" lon="8.6177002"><ele>225.60000000000002</ele><time>2026-05-01T14:37:58.846Z</time></trkpt><trkpt lat="45.854467" lon="8.6178342"><ele>225.8</ele><time>2026-05-01T14:37:59.847Z</time></trkpt><trkpt lat="45.8545093" lon="8.6179632"><ele>226.0</ele><time>2026-05-01T14:38:00.847Z</time></trkpt><trkpt lat="45.8545604" lon="8.6180726"><ele>226.0</ele><time>2026-05-01T14:38:01.846Z</time></trkpt><trkpt lat="45.8546195" lon="8.6181681"><ele>226.00000000000003</ele><time>2026-05-01T14:38:02.847Z</time></trkpt><trkpt lat="45.8546881" lon="8.6182716"><ele>226.00000000000003</ele><time>2026-05-01T14:38:03.847Z</time></trkpt><trkpt lat="45.8547588" lon="8.6183757"><ele>226.0</ele><time>2026-05-01T14:38:04.847Z</time></trkpt><trkpt lat="45.8548535" lon="8.6184999"><ele>226.0</ele><time>2026-05-01T14:38:05.847Z</time></trkpt><trkpt lat="45.8549524" lon="8.6186295"><ele>228.75</ele><time>2026-05-01T14:38:06.847Z</time></trkpt><trkpt lat="45.8550449" lon="8.6187489"><ele>231.5</ele><time>2026-05-01T14:38:07.847Z</time></trkpt><trkpt lat="45.8551255" lon="8.6188661"><ele>234.25</ele><time>2026-05-01T14:38:08.847Z</time></trkpt><trkpt lat="45.8552092" lon="8.6189733"><ele>237.0</ele><time>2026-05-01T14:38:09.847Z</time></trkpt><trkpt lat="45.8552986" lon="8.6190939"><ele>237.0</ele><time>2026-05-01T14:38:10.847Z</time></trkpt><trkpt lat="45.8553898" lon="8.6192152"><ele>237.0</ele><time>2026-05-01T14:38:11.847Z</time></trkpt><trkpt lat="45.8554892" lon="8.6193434"><ele>237.0</ele><time>2026-05-01T14:38:12.847Z</time></trkpt><trkpt lat="45.8555835" lon="8.6194847"><ele>237.0</ele><time>2026-05-01T14:38:13.847Z</time></trkpt><trkpt lat="45.8556705" lon="8.6196225"><ele>232.25</ele><time>2026-05-01T14:38:14.847Z</time></trkpt><trkpt lat="45.8557507" lon="8.6197603"><ele>227.5</ele><time>2026-05-01T14:38:15.848Z</time></trkpt><trkpt lat="45.8558197" lon="8.619905"><ele>222.75</ele><time>2026-05-01T14:38:16.847Z</time></trkpt><trkpt lat="45.8558819" lon="8.6200638"><ele>218.0</ele><time>2026-05-01T14:38:17.848Z</time></trkpt><trkpt lat="45.8559355" lon="8.6202359"><ele>223.0</ele><time>2026-05-01T14:38:18.847Z</time></trkpt><trkpt lat="45.8559816" lon="8.6204271"><ele>228.0</ele><time>2026-05-01T14:38:19.845Z</time></trkpt><trkpt lat="45.8560248" lon="8.6206273"><ele>233.0</ele><time>2026-05-01T14:38:20.846Z</time></trkpt><trkpt lat="45.8560614" lon="8.6208246"><ele>238.0</ele><time>2026-05-01T14:38:21.846Z</time></trkpt><trkpt lat="45.8560929" lon="8.6210389"><ele>237.0</ele><time>2026-05-01T14:38:22.847Z</time></trkpt><trkpt lat="45.8561044" lon="8.6212666"><ele>236.0</ele><time>2026-05-01T14:38:23.847Z</time></trkpt><trkpt lat="45.8561027" lon="8.6214999"><ele>235.0</ele><time>2026-05-01T14:38:24.847Z</time></trkpt><trkpt lat="45.8560845" lon="8.6217387"><ele>235.0</ele><time>2026-05-01T14:38:25.847Z</time></trkpt><trkpt lat="45.8560592" lon="8.6219595"><ele>235.0</ele><time>2026-05-01T14:38:26.847Z</time></trkpt><trkpt lat="45.8560286" lon="8.6221817"><ele>235.0</ele><time>2026-05-01T14:38:27.846Z</time></trkpt><trkpt lat="45.8559943" lon="8.6224021"><ele>233.5</ele><time>2026-05-01T14:38:28.847Z</time></trkpt><trkpt lat="45.8559679" lon="8.6226205"><ele>232.0</ele><time>2026-05-01T14:38:29.847Z</time></trkpt><trkpt lat="45.8559377" lon="8.622824"><ele>230.5</ele><time>2026-05-01T14:38:30.847Z</time></trkpt><trkpt lat="45.8559017" lon="8.6230248"><ele>229.0</ele><time>2026-05-01T14:38:31.847Z</time></trkpt><trkpt lat="45.8558606" lon="8.6232375"><ele>222.66666666666666</ele><time>2026-05-01T14:38:32.847Z</time></trkpt><trkpt lat="45.8558155" lon="8.6234505"><ele>216.33333333333331</ele><time>2026-05-01T14:38:33.846Z</time></trkpt><trkpt lat="45.8557696" lon="8.6236517"><ele>210.0</ele><time>2026-05-01T14:38:34.847Z</time></trkpt><trkpt lat="45.8557106" lon="8.623852"><ele>209.75</ele><time>2026-05-01T14:38:35.847Z</time></trkpt><trkpt lat="45.8556471" lon="8.62405"><ele>209.5</ele><time>2026-05-01T14:38:36.846Z</time></trkpt><trkpt lat="45.8555787" lon="8.6242358"><ele>209.25</ele><time>2026-05-01T14:38:37.847Z</time></trkpt><trkpt lat="45.855501" lon="8.6244031"><ele>209.0</ele><time>2026-05-01T14:38:38.847Z</time></trkpt><trkpt lat="45.8554282" lon="8.6245508"><ele>209.0</ele><time>2026-05-01T14:38:39.848Z</time></trkpt><trkpt lat="45.8553538" lon="8.6246852"><ele>209.0</ele><time>2026-05-01T14:38:40.847Z</time></trkpt><trkpt lat="45.8552836" lon="8.6248029"><ele>209.0</ele><time>2026-05-01T14:38:41.847Z</time></trkpt><trkpt lat="45.8552142" lon="8.6248993"><ele>209.0</ele><time>2026-05-01T14:38:42.846Z</time></trkpt><trkpt lat="45.8551413" lon="8.6249954"><ele>209.0</ele><time>2026-05-01T14:38:43.848Z</time></trkpt><trkpt lat="45.8550631" lon="8.6250959"><ele>209.25</ele><time>2026-05-01T14:38:44.848Z</time></trkpt><trkpt lat="45.8549724" lon="8.6251909"><ele>209.5</ele><time>2026-05-01T14:38:45.847Z</time></trkpt><trkpt lat="45.8548646" lon="8.6252957"><ele>209.75</ele><time>2026-05-01T14:38:46.846Z</time></trkpt><trkpt lat="45.8547514" lon="8.6253988"><ele>210.0</ele><time>2026-05-01T14:38:47.848Z</time></trkpt><trkpt lat="45.8546388" lon="8.6254905"><ele>210.0</ele><time>2026-05-01T14:38:48.847Z</time></trkpt><trkpt lat="45.8545255" lon="8.6255628"><ele>210.0</ele><time>2026-05-01T14:38:49.846Z</time></trkpt><trkpt lat="45.8544074" lon="8.625627"><ele>210.0</ele><time>2026-05-01T14:38:50.846Z</time></trkpt><trkpt lat="45.8542771" lon="8.6256773"><ele>210.0</ele><time>2026-05-01T14:38:51.847Z</time></trkpt><trkpt lat="45.8541367" lon="8.6257309"><ele>210.33333333333331</ele><time>2026-05-01T14:38:52.847Z</time></trkpt><trkpt lat="45.8539841" lon="8.6257817"><ele>210.66666666666666</ele><time>2026-05-01T14:38:53.847Z</time></trkpt><trkpt lat="45.8538185" lon="8.6258272"><ele>211.0</ele><time>2026-05-01T14:38:54.848Z</time></trkpt><trkpt lat="45.8536409" lon="8.6258721"><ele>210.33333333333331</ele><time>2026-05-01T14:38:55.848Z</time></trkpt><trkpt lat="45.8534198" lon="8.6259219"><ele>209.66666666666669</ele><time>2026-05-01T14:38:56.847Z</time></trkpt><trkpt lat="45.8532046" lon="8.6259634"><ele>209.0</ele><time>2026-05-01T14:38:57.847Z</time></trkpt><trkpt lat="45.8530155" lon="8.6259895"><ele>209.0</ele><time>2026-05-01T14:38:58.846Z</time></trkpt><trkpt lat="45.8528389" lon="8.6260276"><ele>209.0</ele><time>2026-05-01T14:38:59.846Z</time></trkpt><trkpt lat="45.8526794" lon="8.6260492"><ele>209.0</ele><time>2026-05-01T14:39:00.847Z</time></trkpt><trkpt lat="45.8525355" lon="8.6260799"><ele>208.75</ele><time>2026-05-01T14:39:01.847Z</time></trkpt><trkpt lat="45.8524117" lon="8.6261068"><ele>208.5</ele><time>2026-05-01T14:39:02.847Z</time></trkpt><trkpt lat="45.8522961" lon="8.6261259"><ele>208.25</ele><time>2026-05-01T14:39:03.846Z</time></trkpt><trkpt lat="45.8521875" lon="8.6261509"><ele>208.0</ele><time>2026-05-01T14:39:04.848Z</time></trkpt><trkpt lat="45.8520828" lon="8.6261701"><ele>208.4</ele><time>2026-05-01T14:39:05.846Z</time></trkpt><trkpt lat="45.8519811" lon="8.6261914"><ele>208.8</ele><time>2026-05-01T14:39:06.846Z</time></trkpt><trkpt lat="45.8518799" lon="8.6262125"><ele>209.2</ele><time>2026-05-01T14:39:07.847Z</time></trkpt><trkpt lat="45.8517883" lon="8.6262303"><ele>209.6</ele><time>2026-05-01T14:39:08.847Z</time></trkpt><trkpt lat="45.8516994" lon="8.6262481"><ele>210.0</ele><time>2026-05-01T14:39:09.847Z</time></trkpt><trkpt lat="45.85162" lon="8.6262533"><ele>210.0</ele><time>2026-05-01T14:39:10.847Z</time></trkpt><trkpt lat="45.8515481" lon="8.6262457"><ele>210.0</ele><time>2026-05-01T14:39:11.847Z</time></trkpt><trkpt lat="45.8514803" lon="8.6262302"><ele>210.0</ele><time>2026-05-01T14:39:12.847Z</time></trkpt><trkpt lat="45.8514142" lon="8.6262126"><ele>210.0</ele><time>2026-05-01T14:39:13.848Z</time></trkpt><trkpt lat="45.8512916" lon="8.6262309"><ele>210.0</ele><time>2026-05-01T14:39:15.847Z</time></trkpt><trkpt lat="45.8512396" lon="8.6262934"><ele>210.0</ele><time>2026-05-01T14:39:16.847Z</time></trkpt><trkpt lat="45.8511821" lon="8.6263682"><ele>210.0</ele><time>2026-05-01T14:39:17.846Z</time></trkpt><trkpt lat="45.8511159" lon="8.6264308"><ele>210.0</ele><time>2026-05-01T14:39:18.847Z</time></trkpt><trkpt lat="45.8510458" lon="8.6264843"><ele>210.0</ele><time>2026-05-01T14:39:19.847Z</time></trkpt><trkpt lat="45.8509662" lon="8.6265296"><ele>210.0</ele><time>2026-05-01T14:39:20.847Z</time></trkpt><trkpt lat="45.85088" lon="8.6265837"><ele>210.0</ele><time>2026-05-01T14:39:21.846Z</time></trkpt><trkpt lat="45.8507913" lon="8.6266464"><ele>210.0</ele><time>2026-05-01T14:39:22.846Z</time></trkpt><trkpt lat="45.8507011" lon="8.6267143"><ele>209.4</ele><time>2026-05-01T14:39:23.847Z</time></trkpt><trkpt lat="45.8506121" lon="8.6267898"><ele>208.8</ele><time>2026-05-01T14:39:24.847Z</time></trkpt><trkpt lat="45.8505234" lon="8.6268648"><ele>208.2</ele><time>2026-05-01T14:39:25.847Z</time></trkpt><trkpt lat="45.8504355" lon="8.6269464"><ele>207.6</ele><time>2026-05-01T14:39:26.847Z</time></trkpt><trkpt lat="45.8503365" lon="8.6270349"><ele>207.0</ele><time>2026-05-01T14:39:27.847Z</time></trkpt><trkpt lat="45.8502403" lon="8.6271336"><ele>207.0</ele><time>2026-05-01T14:39:28.847Z</time></trkpt><trkpt lat="45.8501373" lon="8.6272366"><ele>207.0</ele><time>2026-05-01T14:39:29.847Z</time></trkpt><trkpt lat="45.8500197" lon="8.6273488"><ele>207.0</ele><time>2026-05-01T14:39:30.847Z</time></trkpt><trkpt lat="45.8499061" lon="8.6274738"><ele>207.0</ele><time>2026-05-01T14:39:31.847Z</time></trkpt><trkpt lat="45.8497876" lon="8.6276033"><ele>207.0</ele><time>2026-05-01T14:39:32.848Z</time></trkpt><trkpt lat="45.8496707" lon="8.6277311"><ele>207.0</ele><time>2026-05-01T14:39:33.847Z</time></trkpt><trkpt lat="45.8495653" lon="8.6278379"><ele>207.0</ele><time>2026-05-01T14:39:34.847Z</time></trkpt><trkpt lat="45.8494595" lon="8.627946"><ele>207.0</ele><time>2026-05-01T14:39:35.847Z</time></trkpt><trkpt lat="45.8493588" lon="8.6280578"><ele>206.75</ele><time>2026-05-01T14:39:36.847Z</time></trkpt><trkpt lat="45.8492532" lon="8.6281689"><ele>206.5</ele><time>2026-05-01T14:39:37.847Z</time></trkpt><trkpt lat="45.849142" lon="8.6282841"><ele>206.25</ele><time>2026-05-01T14:39:38.847Z</time></trkpt><trkpt lat="45.8490238" lon="8.6284123"><ele>206.0</ele><time>2026-05-01T14:39:39.847Z</time></trkpt><trkpt lat="45.8489082" lon="8.6285397"><ele>206.66666666666669</ele><time>2026-05-01T14:39:40.847Z</time></trkpt><trkpt lat="45.8487855" lon="8.6286636"><ele>207.33333333333331</ele><time>2026-05-01T14:39:41.847Z</time></trkpt><trkpt lat="45.8486587" lon="8.6287918"><ele>208.0</ele><time>2026-05-01T14:39:42.847Z</time></trkpt><trkpt lat="45.8485338" lon="8.6289278"><ele>207.75</ele><time>2026-05-01T14:39:43.847Z</time></trkpt><trkpt lat="45.8484231" lon="8.629041"><ele>207.5</ele><time>2026-05-01T14:39:44.847Z</time></trkpt><trkpt lat="45.8483151" lon="8.6291428"><ele>207.25</ele><time>2026-05-01T14:39:45.847Z</time></trkpt><trkpt lat="45.8482027" lon="8.6292396"><ele>207.0</ele><time>2026-05-01T14:39:46.847Z</time></trkpt><trkpt lat="45.8480793" lon="8.6293155"><ele>207.0</ele><time>2026-05-01T14:39:47.847Z</time></trkpt><trkpt lat="45.8479579" lon="8.6293721"><ele>207.0</ele><time>2026-05-01T14:39:48.847Z</time></trkpt><trkpt lat="45.8478245" lon="8.6294199"><ele>207.0</ele><time>2026-05-01T14:39:49.846Z</time></trkpt><trkpt lat="45.847692" lon="8.6294547"><ele>207.0</ele><time>2026-05-01T14:39:50.847Z</time></trkpt><trkpt lat="45.8475444" lon="8.6294696"><ele>209.0</ele><time>2026-05-01T14:39:51.847Z</time></trkpt><trkpt lat="45.8473943" lon="8.6294635"><ele>211.0</ele><time>2026-05-01T14:39:52.847Z</time></trkpt><trkpt lat="45.847244" lon="8.6294501"><ele>213.0</ele><time>2026-05-01T14:39:53.847Z</time></trkpt><trkpt lat="45.847116" lon="8.6294274"><ele>215.0</ele><time>2026-05-01T14:39:54.846Z</time></trkpt><trkpt lat="45.847017" lon="8.6293879"><ele>215.0</ele><time>2026-05-01T14:39:55.846Z</time></trkpt><trkpt lat="45.8469398" lon="8.6293593"><ele>215.0</ele><time>2026-05-01T14:39:56.847Z</time></trkpt><trkpt lat="45.846877" lon="8.6293309"><ele>215.0</ele><time>2026-05-01T14:39:57.847Z</time></trkpt><trkpt lat="45.8467661" lon="8.6292806"><ele>215.0</ele><time>2026-05-01T14:39:59.847Z</time></trkpt><trkpt lat="45.8466581" lon="8.6292328"><ele>215.0</ele><time>2026-05-01T14:40:01.847Z</time></trkpt><trkpt lat="45.8465617" lon="8.6291873"><ele>214.85714285714286</ele><time>2026-05-01T14:40:03.847Z</time></trkpt><trkpt lat="45.8464952" lon="8.6291475"><ele>214.71428571428572</ele><time>2026-05-01T14:40:05.847Z</time></trkpt><trkpt lat="45.8464164" lon="8.6290894"><ele>214.57142857142858</ele><time>2026-05-01T14:45:04.844Z</time></trkpt><trkpt lat="45.8463429" lon="8.6290733"><ele>214.42857142857144</ele><time>2026-05-01T14:45:06.846Z</time></trkpt><trkpt lat="45.846281" lon="8.6290535"><ele>214.28571428571428</ele><time>2026-05-01T14:45:08.846Z</time></trkpt><trkpt lat="45.8462198" lon="8.6290131"><ele>214.14285714285717</ele><time>2026-05-01T14:45:10.845Z</time></trkpt><trkpt lat="45.846178" lon="8.6289394"><ele>214.0</ele><time>2026-05-01T14:45:12.847Z</time></trkpt><trkpt lat="45.8461761" lon="8.6288198"><ele>213.99999999999997</ele><time>2026-05-01T14:45:15.845Z</time></trkpt><trkpt lat="45.8462087" lon="8.6287279"><ele>214.0</ele><time>2026-05-01T14:45:19.845Z</time></trkpt><trkpt lat="45.8461998" lon="8.628637"><ele>214.0</ele><time>2026-05-01T14:45:23.846Z</time></trkpt><trkpt lat="45.8461262" lon="8.6286385"><ele>214.0</ele><time>2026-05-01T14:45:34.847Z</time></trkpt><trkpt lat="45.8460717" lon="8.6287084"><ele>213.99999999999997</ele><time>2026-05-01T14:45:36.847Z</time></trkpt><trkpt lat="45.8460304" lon="8.6287953"><ele>214.0</ele><time>2026-05-01T14:45:39.847Z</time></trkpt><trkpt lat="45.845963" lon="8.628898"><ele>213.49999999999997</ele><time>2026-05-01T14:45:42.846Z</time></trkpt><trkpt lat="45.8458663" lon="8.6289471"><ele>213.0</ele><time>2026-05-01T14:45:44.847Z</time></trkpt><trkpt lat="45.8457524" lon="8.6289511"><ele>212.5</ele><time>2026-05-01T14:45:46.846Z</time></trkpt><trkpt lat="45.845672" lon="8.6289532"><ele>212.0</ele><time>2026-05-01T14:45:47.845Z</time></trkpt><trkpt lat="45.8456076" lon="8.6289531"><ele>211.49999999999997</ele><time>2026-05-01T14:45:48.846Z</time></trkpt><trkpt lat="45.8455438" lon="8.6289629"><ele>211.0</ele><time>2026-05-01T14:45:49.846Z</time></trkpt><trkpt lat="45.8454763" lon="8.6289619"><ele>210.99999999999997</ele><time>2026-05-01T14:45:50.846Z</time></trkpt><trkpt lat="45.8453996" lon="8.6289611"><ele>211.0</ele><time>2026-05-01T14:45:51.846Z</time></trkpt><trkpt lat="45.8453277" lon="8.6289644"><ele>211.0</ele><time>2026-05-01T14:45:52.847Z</time></trkpt><trkpt lat="45.8452443" lon="8.6289679"><ele>211.0</ele><time>2026-05-01T14:45:53.845Z</time></trkpt><trkpt lat="45.8451605" lon="8.6289737"><ele>210.99999999999997</ele><time>2026-05-01T14:45:54.847Z</time></trkpt><trkpt lat="45.8450672" lon="8.6289696"><ele>211.0</ele><time>2026-05-01T14:45:55.847Z</time></trkpt><trkpt lat="45.8449782" lon="8.6289698"><ele>210.8</ele><time>2026-05-01T14:45:56.847Z</time></trkpt><trkpt lat="45.8448903" lon="8.6289704"><ele>210.60000000000002</ele><time>2026-05-01T14:45:57.846Z</time></trkpt><trkpt lat="45.8447982" lon="8.6289754"><ele>210.4</ele><time>2026-05-01T14:45:58.846Z</time></trkpt><trkpt lat="45.8447026" lon="8.6289769"><ele>210.2</ele><time>2026-05-01T14:45:59.847Z</time></trkpt><trkpt lat="45.8445992" lon="8.6289775"><ele>210.0</ele><time>2026-05-01T14:46:00.846Z</time></trkpt><trkpt lat="45.8444951" lon="8.6289775"><ele>210.0</ele><time>2026-05-01T14:46:01.846Z</time></trkpt><trkpt lat="45.844381" lon="8.6289868"><ele>210.0</ele><time>2026-05-01T14:46:02.845Z</time></trkpt><trkpt lat="45.8442597" lon="8.6289895"><ele>210.0</ele><time>2026-05-01T14:46:03.846Z</time></trkpt><trkpt lat="45.8441326" lon="8.6289912"><ele>210.0</ele><time>2026-05-01T14:46:04.847Z</time></trkpt><trkpt lat="45.8440055" lon="8.6289923"><ele>210.0</ele><time>2026-05-01T14:46:05.846Z</time></trkpt><trkpt lat="45.8438759" lon="8.6289913"><ele>210.0</ele><time>2026-05-01T14:46:06.846Z</time></trkpt><trkpt lat="45.8437439" lon="8.6290002"><ele>210.0</ele><time>2026-05-01T14:46:07.846Z</time></trkpt><trkpt lat="45.8436107" lon="8.628996"><ele>210.0</ele><time>2026-05-01T14:46:08.846Z</time></trkpt><trkpt lat="45.8434709" lon="8.6290102"><ele>210.0</ele><time>2026-05-01T14:46:09.847Z</time></trkpt><trkpt lat="45.8433232" lon="8.6290124"><ele>210.0</ele><time>2026-05-01T14:46:10.846Z</time></trkpt><trkpt lat="45.8431714" lon="8.6290104"><ele>210.0</ele><time>2026-05-01T14:46:11.846Z</time></trkpt><trkpt lat="45.8430149" lon="8.6290102"><ele>210.0</ele><time>2026-05-01T14:46:12.847Z</time></trkpt><trkpt lat="45.8428574" lon="8.6290153"><ele>210.0</ele><time>2026-05-01T14:46:13.845Z</time></trkpt><trkpt lat="45.8427138" lon="8.6290161"><ele>210.0</ele><time>2026-05-01T14:46:14.846Z</time></trkpt><trkpt lat="45.8425703" lon="8.6290173"><ele>210.0</ele><time>2026-05-01T14:46:15.846Z</time></trkpt><trkpt lat="45.8424147" lon="8.6290179"><ele>208.66666666666669</ele><time>2026-05-01T14:46:16.846Z</time></trkpt><trkpt lat="45.8422601" lon="8.62902"><ele>207.33333333333334</ele><time>2026-05-01T14:46:17.844Z</time></trkpt><trkpt lat="45.8421075" lon="8.629013"><ele>206.0</ele><time>2026-05-01T14:46:18.847Z</time></trkpt><trkpt lat="45.8419559" lon="8.6289998"><ele>206.0</ele><time>2026-05-01T14:46:19.846Z</time></trkpt><trkpt lat="45.8418058" lon="8.6289913"><ele>206.0</ele><time>2026-05-01T14:46:20.847Z</time></trkpt><trkpt lat="45.8416634" lon="8.6289804"><ele>206.0</ele><time>2026-05-01T14:46:21.846Z</time></trkpt><trkpt lat="45.8415263" lon="8.6289639"><ele>206.0</ele><time>2026-05-01T14:46:22.847Z</time></trkpt><trkpt lat="45.8413923" lon="8.6289476"><ele>205.25</ele><time>2026-05-01T14:46:23.846Z</time></trkpt><trkpt lat="45.8412596" lon="8.6289295"><ele>204.5</ele><time>2026-05-01T14:46:24.847Z</time></trkpt><trkpt lat="45.8411248" lon="8.6289115"><ele>203.75</ele><time>2026-05-01T14:46:25.846Z</time></trkpt><trkpt lat="45.8409876" lon="8.6288988"><ele>203.0</ele><time>2026-05-01T14:46:26.845Z</time></trkpt><trkpt lat="45.8408507" lon="8.6288848"><ele>202.5</ele><time>2026-05-01T14:46:27.847Z</time></trkpt><trkpt lat="45.8407134" lon="8.6288692"><ele>202.0</ele><time>2026-05-01T14:46:28.846Z</time></trkpt><trkpt lat="45.8405799" lon="8.6288453"><ele>201.5</ele><time>2026-05-01T14:46:29.847Z</time></trkpt><trkpt lat="45.8404452" lon="8.6288285"><ele>201.0</ele><time>2026-05-01T14:46:30.846Z</time></trkpt><trkpt lat="45.8403108" lon="8.6288223"><ele>201.0</ele><time>2026-05-01T14:46:31.847Z</time></trkpt><trkpt lat="45.8401667" lon="8.6288152"><ele>201.0</ele><time>2026-05-01T14:46:32.845Z</time></trkpt><trkpt lat="45.840024" lon="8.6288046"><ele>201.0</ele><time>2026-05-01T14:46:33.845Z</time></trkpt><trkpt lat="45.8398808" lon="8.6287881"><ele>201.0</ele><time>2026-05-01T14:46:34.846Z</time></trkpt><trkpt lat="45.8397281" lon="8.6287722"><ele>200.66666666666669</ele><time>2026-05-01T14:46:35.847Z</time></trkpt><trkpt lat="45.8395742" lon="8.6287624"><ele>200.33333333333334</ele><time>2026-05-01T14:46:36.845Z</time></trkpt><trkpt lat="45.8394261" lon="8.6287475"><ele>200.0</ele><time>2026-05-01T14:46:37.846Z</time></trkpt><trkpt lat="45.8392777" lon="8.6287319"><ele>200.0</ele><time>2026-05-01T14:46:38.846Z</time></trkpt><trkpt lat="45.8391273" lon="8.628711"><ele>200.0</ele><time>2026-05-01T14:46:39.846Z</time></trkpt><trkpt lat="45.8389751" lon="8.6287003"><ele>200.0</ele><time>2026-05-01T14:46:40.846Z</time></trkpt><trkpt lat="45.8388256" lon="8.6286853"><ele>200.0</ele><time>2026-05-01T14:46:41.846Z</time></trkpt><trkpt lat="45.8386777" lon="8.62867"><ele>200.0</ele><time>2026-05-01T14:46:42.846Z</time></trkpt><trkpt lat="45.8385296" lon="8.6286556"><ele>200.0</ele><time>2026-05-01T14:46:43.846Z</time></trkpt><trkpt lat="45.8383844" lon="8.6286446"><ele>200.0</ele><time>2026-05-01T14:46:44.846Z</time></trkpt><trkpt lat="45.8382438" lon="8.6286256"><ele>200.25</ele><time>2026-05-01T14:46:45.845Z</time></trkpt><trkpt lat="45.8381123" lon="8.6286129"><ele>200.5</ele><time>2026-05-01T14:46:46.847Z</time></trkpt><trkpt lat="45.8379873" lon="8.6286019"><ele>200.75</ele><time>2026-05-01T14:46:47.846Z</time></trkpt><trkpt lat="45.8378799" lon="8.6285902"><ele>201.0</ele><time>2026-05-01T14:46:48.845Z</time></trkpt><trkpt lat="45.8377941" lon="8.6285865"><ele>201.0</ele><time>2026-05-01T14:46:49.847Z</time></trkpt><trkpt lat="45.8377237" lon="8.6285882"><ele>201.0</ele><time>2026-05-01T14:46:50.846Z</time></trkpt><trkpt lat="45.8376286" lon="8.6285865"><ele>201.0</ele><time>2026-05-01T14:46:52.845Z</time></trkpt><trkpt lat="45.8375776" lon="8.6286823"><ele>201.0</ele><time>2026-05-01T14:46:54.846Z</time></trkpt><trkpt lat="45.8375816" lon="8.6288596"><ele>201.0</ele><time>2026-05-01T14:46:56.845Z</time></trkpt><trkpt lat="45.8375812" lon="8.6289698"><ele>201.0</ele><time>2026-05-01T14:46:57.847Z</time></trkpt><trkpt lat="45.8375792" lon="8.6291054"><ele>201.0</ele><time>2026-05-01T14:46:58.845Z</time></trkpt><trkpt lat="45.8375808" lon="8.6292468"><ele>201.0</ele><time>2026-05-01T14:46:59.847Z</time></trkpt><trkpt lat="45.8375807" lon="8.6293888"><ele>201.0</ele><time>2026-05-01T14:47:00.846Z</time></trkpt><trkpt lat="45.8375738" lon="8.6295345"><ele>201.0</ele><time>2026-05-01T14:47:01.846Z</time></trkpt><trkpt lat="45.8375668" lon="8.629676"><ele>201.20000000000002</ele><time>2026-05-01T14:47:02.845Z</time></trkpt><trkpt lat="45.8375581" lon="8.6298229"><ele>201.4</ele><time>2026-05-01T14:47:03.845Z</time></trkpt><trkpt lat="45.8375483" lon="8.629982"><ele>201.6</ele><time>2026-05-01T14:47:04.846Z</time></trkpt><trkpt lat="45.8375296" lon="8.6301459"><ele>201.8</ele><time>2026-05-01T14:47:05.847Z</time></trkpt><trkpt lat="45.8375055" lon="8.6303142"><ele>202.0</ele><time>2026-05-01T14:47:06.846Z</time></trkpt><trkpt lat="45.8374848" lon="8.6304823"><ele>202.75</ele><time>2026-05-01T14:47:07.847Z</time></trkpt><trkpt lat="45.8374673" lon="8.630655"><ele>203.5</ele><time>2026-05-01T14:47:08.846Z</time></trkpt><trkpt lat="45.8374466" lon="8.6308361"><ele>204.25</ele><time>2026-05-01T14:47:09.847Z</time></trkpt><trkpt lat="45.8374236" lon="8.6310207"><ele>205.0</ele><time>2026-05-01T14:47:10.847Z</time></trkpt><trkpt lat="45.8373982" lon="8.6312069"><ele>205.5</ele><time>2026-05-01T14:47:11.846Z</time></trkpt><trkpt lat="45.8373814" lon="8.6314012"><ele>206.0</ele><time>2026-05-01T14:47:12.846Z</time></trkpt><trkpt lat="45.8373627" lon="8.6315871"><ele>206.5</ele><time>2026-05-01T14:47:13.847Z</time></trkpt><trkpt lat="45.8373394" lon="8.6317875"><ele>207.0</ele><time>2026-05-01T14:47:14.845Z</time></trkpt><trkpt lat="45.8373218" lon="8.6319851"><ele>207.0</ele><time>2026-05-01T14:47:15.845Z</time></trkpt><trkpt lat="45.8373095" lon="8.6321811"><ele>207.0</ele><time>2026-05-01T14:47:16.847Z</time></trkpt><trkpt lat="45.8372925" lon="8.6323731"><ele>207.0</ele><time>2026-05-01T14:47:17.846Z</time></trkpt><trkpt lat="45.8372696" lon="8.6325791"><ele>207.0</ele><time>2026-05-01T14:47:18.846Z</time></trkpt><trkpt lat="45.8372488" lon="8.6327768"><ele>207.5</ele><time>2026-05-01T14:47:19.847Z</time></trkpt><trkpt lat="45.8372293" lon="8.6329764"><ele>208.0</ele><time>2026-05-01T14:47:20.846Z</time></trkpt><trkpt lat="45.837205" lon="8.6331679"><ele>208.5</ele><time>2026-05-01T14:47:21.846Z</time></trkpt><trkpt lat="45.8371847" lon="8.6333613"><ele>209.0</ele><time>2026-05-01T14:47:22.846Z</time></trkpt><trkpt lat="45.8371641" lon="8.6335509"><ele>210.0</ele><time>2026-05-01T14:47:23.846Z</time></trkpt><trkpt lat="45.8371387" lon="8.6337471"><ele>211.0</ele><time>2026-05-01T14:47:24.846Z</time></trkpt><trkpt lat="45.837117" lon="8.6339407"><ele>212.0</ele><time>2026-05-01T14:47:25.846Z</time></trkpt><trkpt lat="45.8370947" lon="8.6341328"><ele>213.0</ele><time>2026-05-01T14:47:26.847Z</time></trkpt><trkpt lat="45.8370824" lon="8.634335"><ele>213.75</ele><time>2026-05-01T14:47:27.845Z</time></trkpt><trkpt lat="45.8370715" lon="8.6345291"><ele>214.5</ele><time>2026-05-01T14:47:28.847Z</time></trkpt><trkpt lat="45.8370776" lon="8.6347315"><ele>215.25</ele><time>2026-05-01T14:47:29.847Z</time></trkpt><trkpt lat="45.8370949" lon="8.6349341"><ele>216.0</ele><time>2026-05-01T14:47:30.846Z</time></trkpt><trkpt lat="45.8371233" lon="8.6351265"><ele>216.25</ele><time>2026-05-01T14:47:31.847Z</time></trkpt><trkpt lat="45.83716" lon="8.6353196"><ele>216.5</ele><time>2026-05-01T14:47:32.846Z</time></trkpt><trkpt lat="45.8371967" lon="8.6355199"><ele>216.75</ele><time>2026-05-01T14:47:33.847Z</time></trkpt><trkpt lat="45.8372355" lon="8.6357202"><ele>217.0</ele><time>2026-05-01T14:47:34.845Z</time></trkpt><trkpt lat="45.8372762" lon="8.6359305"><ele>216.66666666666666</ele><time>2026-05-01T14:47:35.846Z</time></trkpt><trkpt lat="45.8373186" lon="8.636137"><ele>216.33333333333331</ele><time>2026-05-01T14:47:36.846Z</time></trkpt><trkpt lat="45.8373636" lon="8.6363459"><ele>216.0</ele><time>2026-05-01T14:47:37.847Z</time></trkpt><trkpt lat="45.8374051" lon="8.6365544"><ele>216.0</ele><time>2026-05-01T14:47:38.847Z</time></trkpt><trkpt lat="45.8374434" lon="8.6367649"><ele>216.0</ele><time>2026-05-01T14:47:39.846Z</time></trkpt><trkpt lat="45.8374857" lon="8.6369682"><ele>216.0</ele><time>2026-05-01T14:47:40.847Z</time></trkpt><trkpt lat="45.8375279" lon="8.6371709"><ele>216.0</ele><time>2026-05-01T14:47:41.846Z</time></trkpt><trkpt lat="45.8375645" lon="8.637358"><ele>216.0</ele><time>2026-05-01T14:47:42.845Z</time></trkpt><trkpt lat="45.8375924" lon="8.6375463"><ele>216.0</ele><time>2026-05-01T14:47:43.846Z</time></trkpt><trkpt lat="45.8376037" lon="8.6377437"><ele>216.0</ele><time>2026-05-01T14:47:44.847Z</time></trkpt><trkpt lat="45.8376146" lon="8.6379448"><ele>216.0</ele><time>2026-05-01T14:47:45.845Z</time></trkpt><trkpt lat="45.8376219" lon="8.6381502"><ele>216.0</ele><time>2026-05-01T14:47:46.847Z</time></trkpt><trkpt lat="45.8376305" lon="8.6383641"><ele>216.0</ele><time>2026-05-01T14:47:47.847Z</time></trkpt><trkpt lat="45.8376366" lon="8.6385666"><ele>216.0</ele><time>2026-05-01T14:47:48.846Z</time></trkpt><trkpt lat="45.8376413" lon="8.6387634"><ele>216.0</ele><time>2026-05-01T14:47:49.845Z</time></trkpt><trkpt lat="45.837625" lon="8.6389563"><ele>215.75</ele><time>2026-05-01T14:47:50.845Z</time></trkpt><trkpt lat="45.8376012" lon="8.6391455"><ele>215.5</ele><time>2026-05-01T14:47:51.846Z</time></trkpt><trkpt lat="45.8375685" lon="8.6393278"><ele>215.25</ele><time>2026-05-01T14:47:52.847Z</time></trkpt><trkpt lat="45.837523" lon="8.639511"><ele>215.0</ele><time>2026-05-01T14:47:53.846Z</time></trkpt><trkpt lat="45.8374632" lon="8.6396839"><ele>215.0</ele><time>2026-05-01T14:47:54.846Z</time></trkpt><trkpt lat="45.8373931" lon="8.6398499"><ele>215.0</ele><time>2026-05-01T14:47:55.847Z</time></trkpt><trkpt lat="45.8373159" lon="8.6400145"><ele>215.0</ele><time>2026-05-01T14:47:56.847Z</time></trkpt><trkpt lat="45.8372296" lon="8.6401653"><ele>215.0</ele><time>2026-05-01T14:47:57.846Z</time></trkpt><trkpt lat="45.8371382" lon="8.6403136"><ele>215.25</ele><time>2026-05-01T14:47:58.845Z</time></trkpt><trkpt lat="45.8370458" lon="8.6404623"><ele>215.5</ele><time>2026-05-01T14:47:59.847Z</time></trkpt><trkpt lat="45.8369593" lon="8.6405994"><ele>215.75</ele><time>2026-05-01T14:48:00.846Z</time></trkpt><trkpt lat="45.8368797" lon="8.640736"><ele>216.0</ele><time>2026-05-01T14:48:01.846Z</time></trkpt><trkpt lat="45.8368111" lon="8.6408655"><ele>216.0</ele><time>2026-05-01T14:48:02.846Z</time></trkpt><trkpt lat="45.8367559" lon="8.6410093"><ele>216.0</ele><time>2026-05-01T14:48:03.846Z</time></trkpt><trkpt lat="45.83672" lon="8.6411728"><ele>216.0</ele><time>2026-05-01T14:48:04.846Z</time></trkpt><trkpt lat="45.8366803" lon="8.6413387"><ele>216.0</ele><time>2026-05-01T14:48:05.847Z</time></trkpt><trkpt lat="45.8366411" lon="8.6415"><ele>216.25</ele><time>2026-05-01T14:48:06.847Z</time></trkpt><trkpt lat="45.8365986" lon="8.6416624"><ele>216.5</ele><time>2026-05-01T14:48:07.845Z</time></trkpt><trkpt lat="45.8365505" lon="8.641819"><ele>216.75</ele><time>2026-05-01T14:48:08.847Z</time></trkpt><trkpt lat="45.8364853" lon="8.6419718"><ele>217.0</ele><time>2026-05-01T14:48:09.846Z</time></trkpt><trkpt lat="45.8364083" lon="8.6421118"><ele>217.0</ele><time>2026-05-01T14:48:10.846Z</time></trkpt><trkpt lat="45.8363266" lon="8.6422386"><ele>217.0</ele><time>2026-05-01T14:48:11.845Z</time></trkpt><trkpt lat="45.8362404" lon="8.6423571"><ele>217.0</ele><time>2026-05-01T14:48:12.847Z</time></trkpt><trkpt lat="45.8361331" lon="8.6424605"><ele>217.0</ele><time>2026-05-01T14:48:13.847Z</time></trkpt><trkpt lat="45.8360293" lon="8.6425577"><ele>217.5</ele><time>2026-05-01T14:48:14.845Z</time></trkpt><trkpt lat="45.8359201" lon="8.6426507"><ele>218.0</ele><time>2026-05-01T14:48:15.847Z</time></trkpt><trkpt lat="45.8358145" lon="8.6427556"><ele>218.5</ele><time>2026-05-01T14:48:16.845Z</time></trkpt><trkpt lat="45.8357017" lon="8.6428612"><ele>219.0</ele><time>2026-05-01T14:48:17.845Z</time></trkpt><trkpt lat="45.8355862" lon="8.6429819"><ele>219.0</ele><time>2026-05-01T14:48:18.846Z</time></trkpt><trkpt lat="45.835471" lon="8.6430973"><ele>219.0</ele><time>2026-05-01T14:48:19.847Z</time></trkpt><trkpt lat="45.8353521" lon="8.6432198"><ele>219.0</ele><time>2026-05-01T14:48:20.846Z</time></trkpt><trkpt lat="45.8352308" lon="8.6433485"><ele>219.0</ele><time>2026-05-01T14:48:21.846Z</time></trkpt><trkpt lat="45.8351178" lon="8.6434725"><ele>219.5</ele><time>2026-05-01T14:48:22.847Z</time></trkpt><trkpt lat="45.8350054" lon="8.6435928"><ele>220.0</ele><time>2026-05-01T14:48:23.847Z</time></trkpt><trkpt lat="45.8348889" lon="8.6437079"><ele>220.5</ele><time>2026-05-01T14:48:24.847Z</time></trkpt><trkpt lat="45.8347746" lon="8.6438292"><ele>221.0</ele><time>2026-05-01T14:48:25.847Z</time></trkpt><trkpt lat="45.8346597" lon="8.6439493"><ele>221.0</ele><time>2026-05-01T14:48:26.846Z</time></trkpt><trkpt lat="45.8345392" lon="8.6440618"><ele>221.0</ele><time>2026-05-01T14:48:27.846Z</time></trkpt><trkpt lat="45.8344194" lon="8.6441631"><ele>221.0</ele><time>2026-05-01T14:48:28.846Z</time></trkpt><trkpt lat="45.8342926" lon="8.6442632"><ele>221.0</ele><time>2026-05-01T14:48:29.846Z</time></trkpt><trkpt lat="45.834162" lon="8.6443512"><ele>220.25</ele><time>2026-05-01T14:48:30.845Z</time></trkpt><trkpt lat="45.834018" lon="8.6444271"><ele>219.5</ele><time>2026-05-01T14:48:31.846Z</time></trkpt><trkpt lat="45.8338866" lon="8.6444974"><ele>218.75</ele><time>2026-05-01T14:48:32.846Z</time></trkpt><trkpt lat="45.8337518" lon="8.6445754"><ele>218.0</ele><time>2026-05-01T14:48:33.846Z</time></trkpt><trkpt lat="45.8336176" lon="8.6446556"><ele>218.0</ele><time>2026-05-01T14:48:34.846Z</time></trkpt><trkpt lat="45.8334827" lon="8.6447443"><ele>218.0</ele><time>2026-05-01T14:48:35.846Z</time></trkpt><trkpt lat="45.8333498" lon="8.6448317"><ele>218.0</ele><time>2026-05-01T14:48:36.847Z</time></trkpt><trkpt lat="45.8332118" lon="8.644924"><ele>218.0</ele><time>2026-05-01T14:48:37.845Z</time></trkpt><trkpt lat="45.8330812" lon="8.6450117"><ele>218.75</ele><time>2026-05-01T14:48:38.846Z</time></trkpt><trkpt lat="45.8329545" lon="8.6450988"><ele>219.5</ele><time>2026-05-01T14:48:39.846Z</time></trkpt><trkpt lat="45.8328355" lon="8.6451795"><ele>220.25</ele><time>2026-05-01T14:48:40.847Z</time></trkpt><trkpt lat="45.8327184" lon="8.6452556"><ele>221.0</ele><time>2026-05-01T14:48:41.845Z</time></trkpt><trkpt lat="45.8325988" lon="8.6453329"><ele>221.0</ele><time>2026-05-01T14:48:42.846Z</time></trkpt><trkpt lat="45.8324753" lon="8.6454143"><ele>221.0</ele><time>2026-05-01T14:48:43.844Z</time></trkpt><trkpt lat="45.8323606" lon="8.6455009"><ele>221.0</ele><time>2026-05-01T14:48:44.847Z</time></trkpt><trkpt lat="45.8322462" lon="8.6455987"><ele>221.0</ele><time>2026-05-01T14:48:45.846Z</time></trkpt><trkpt lat="45.8321347" lon="8.6457108"><ele>221.0</ele><time>2026-05-01T14:48:46.846Z</time></trkpt><trkpt lat="45.8320197" lon="8.6458417"><ele>221.0</ele><time>2026-05-01T14:48:47.845Z</time></trkpt><trkpt lat="45.8319051" lon="8.6459588"><ele>221.0</ele><time>2026-05-01T14:48:48.846Z</time></trkpt><trkpt lat="45.8317985" lon="8.6460852"><ele>221.0</ele><time>2026-05-01T14:48:49.846Z</time></trkpt><trkpt lat="45.8316783" lon="8.6462122"><ele>221.0</ele><time>2026-05-01T14:48:50.846Z</time></trkpt><trkpt lat="45.8315653" lon="8.6463303"><ele>221.0</ele><time>2026-05-01T14:48:51.847Z</time></trkpt><trkpt lat="45.8314499" lon="8.6464531"><ele>221.0</ele><time>2026-05-01T14:48:52.846Z</time></trkpt><trkpt lat="45.8313467" lon="8.6465612"><ele>221.0</ele><time>2026-05-01T14:48:53.846Z</time></trkpt><trkpt lat="45.8312379" lon="8.646669"><ele>221.0</ele><time>2026-05-01T14:48:54.846Z</time></trkpt><trkpt lat="45.8311421" lon="8.6467708"><ele>221.0</ele><time>2026-05-01T14:48:55.846Z</time></trkpt><trkpt lat="45.8310499" lon="8.6468778"><ele>221.0</ele><time>2026-05-01T14:48:56.846Z</time></trkpt><trkpt lat="45.8309589" lon="8.6469706"><ele>221.0</ele><time>2026-05-01T14:48:57.846Z</time></trkpt><trkpt lat="45.8308702" lon="8.6470648"><ele>221.0</ele><time>2026-05-01T14:48:58.846Z</time></trkpt><trkpt lat="45.8307774" lon="8.6471575"><ele>221.0</ele><time>2026-05-01T14:48:59.847Z</time></trkpt><trkpt lat="45.8306834" lon="8.6472556"><ele>221.0</ele><time>2026-05-01T14:49:00.846Z</time></trkpt><trkpt lat="45.8305875" lon="8.6473487"><ele>221.0</ele><time>2026-05-01T14:49:01.846Z</time></trkpt><trkpt lat="45.8304828" lon="8.647426"><ele>221.0</ele><time>2026-05-01T14:49:02.846Z</time></trkpt><trkpt lat="45.8303907" lon="8.6474981"><ele>221.00000000000003</ele><time>2026-05-01T14:49:03.846Z</time></trkpt><trkpt lat="45.8302942" lon="8.6475723"><ele>221.00000000000003</ele><time>2026-05-01T14:49:04.846Z</time></trkpt><trkpt lat="45.8301983" lon="8.6476453"><ele>221.0</ele><time>2026-05-01T14:49:05.846Z</time></trkpt><trkpt lat="45.8301009" lon="8.6477227"><ele>221.0</ele><time>2026-05-01T14:49:06.846Z</time></trkpt><trkpt lat="45.8299999" lon="8.6477871"><ele>221.4</ele><time>2026-05-01T14:49:07.846Z</time></trkpt><trkpt lat="45.8299038" lon="8.6478609"><ele>221.8</ele><time>2026-05-01T14:49:08.846Z</time></trkpt><trkpt lat="45.8298042" lon="8.6479372"><ele>222.20000000000002</ele><time>2026-05-01T14:49:09.846Z</time></trkpt><trkpt lat="45.8297081" lon="8.6480157"><ele>222.60000000000002</ele><time>2026-05-01T14:49:10.846Z</time></trkpt><trkpt lat="45.8296178" lon="8.6480838"><ele>223.0</ele><time>2026-05-01T14:49:11.846Z</time></trkpt><trkpt lat="45.82954" lon="8.6481451"><ele>222.99999999999997</ele><time>2026-05-01T14:49:12.846Z</time></trkpt><trkpt lat="45.8294605" lon="8.6482067"><ele>223.0</ele><time>2026-05-01T14:49:13.846Z</time></trkpt><trkpt lat="45.8293888" lon="8.6482691"><ele>223.0</ele><time>2026-05-01T14:49:14.846Z</time></trkpt><trkpt lat="45.8293301" lon="8.648319"><ele>223.0</ele><time>2026-05-01T14:49:15.847Z</time></trkpt><trkpt lat="45.8292447" lon="8.6484034"><ele>222.99999999999997</ele><time>2026-05-01T14:49:17.847Z</time></trkpt><trkpt lat="45.8291812" lon="8.6484827"><ele>223.0</ele><time>2026-05-01T14:49:19.846Z</time></trkpt><trkpt lat="45.8291265" lon="8.6485559"><ele>222.99999999999997</ele><time>2026-05-01T14:49:22.846Z</time></trkpt><trkpt lat="45.8290675" lon="8.648618"><ele>223.0</ele><time>2026-05-01T14:49:31.846Z</time></trkpt><trkpt lat="45.8290163" lon="8.6486761"><ele>223.0</ele><time>2026-05-01T14:49:33.846Z</time></trkpt><trkpt lat="45.8289249" lon="8.6487827"><ele>223.0</ele><time>2026-05-01T14:49:35.846Z</time></trkpt><trkpt lat="45.8288593" lon="8.6488661"><ele>222.99999999999997</ele><time>2026-05-01T14:49:37.846Z</time></trkpt><trkpt lat="45.8287891" lon="8.6489461"><ele>223.0</ele><time>2026-05-01T14:49:39.845Z</time></trkpt><trkpt lat="45.8287165" lon="8.6489355"><ele>223.0</ele><time>2026-05-01T14:49:41.847Z</time></trkpt><trkpt lat="45.828669" lon="8.6488148"><ele>223.0</ele><time>2026-05-01T14:49:43.846Z</time></trkpt><trkpt lat="45.8286322" lon="8.6486144"><ele>223.0</ele><time>2026-05-01T14:49:45.846Z</time></trkpt><trkpt lat="45.8286074" lon="8.6485157"><ele>223.0</ele><time>2026-05-01T14:49:46.845Z</time></trkpt><trkpt lat="45.8285737" lon="8.6484054"><ele>223.0</ele><time>2026-05-01T14:49:47.846Z</time></trkpt><trkpt lat="45.8285339" lon="8.6482924"><ele>223.4</ele><time>2026-05-01T14:49:48.847Z</time></trkpt><trkpt lat="45.8284952" lon="8.6481785"><ele>223.8</ele><time>2026-05-01T14:49:49.846Z</time></trkpt><trkpt lat="45.8284542" lon="8.6480399"><ele>224.2</ele><time>2026-05-01T14:49:50.845Z</time></trkpt><trkpt lat="45.828407" lon="8.6479006"><ele>224.6</ele><time>2026-05-01T14:49:51.847Z</time></trkpt><trkpt lat="45.8283642" lon="8.647767"><ele>225.0</ele><time>2026-05-01T14:49:52.846Z</time></trkpt><trkpt lat="45.8283136" lon="8.6476287"><ele>225.75</ele><time>2026-05-01T14:49:53.845Z</time></trkpt><trkpt lat="45.8282592" lon="8.6474785"><ele>226.5</ele><time>2026-05-01T14:49:54.847Z</time></trkpt><trkpt lat="45.8282007" lon="8.6473215"><ele>227.25</ele><time>2026-05-01T14:49:55.845Z</time></trkpt><trkpt lat="45.8281385" lon="8.6471568"><ele>228.0</ele><time>2026-05-01T14:49:56.846Z</time></trkpt><trkpt lat="45.8280815" lon="8.6469995"><ele>227.75</ele><time>2026-05-01T14:49:57.845Z</time></trkpt><trkpt lat="45.8280262" lon="8.6468403"><ele>227.5</ele><time>2026-05-01T14:49:58.846Z</time></trkpt><trkpt lat="45.8279595" lon="8.6466875"><ele>227.25</ele><time>2026-05-01T14:49:59.845Z</time></trkpt><trkpt lat="45.8278997" lon="8.6465236"><ele>227.0</ele><time>2026-05-01T14:50:00.845Z</time></trkpt><trkpt lat="45.8278388" lon="8.6463521"><ele>227.0</ele><time>2026-05-01T14:50:01.845Z</time></trkpt><trkpt lat="45.8277765" lon="8.646187"><ele>227.0</ele><time>2026-05-01T14:50:02.847Z</time></trkpt><trkpt lat="45.8277089" lon="8.6460219"><ele>227.0</ele><time>2026-05-01T14:50:03.846Z</time></trkpt><trkpt lat="45.8276496" lon="8.6458657"><ele>227.0</ele><time>2026-05-01T14:50:04.846Z</time></trkpt><trkpt lat="45.8275922" lon="8.6457194"><ele>226.39999999999998</ele><time>2026-05-01T14:50:05.847Z</time></trkpt><trkpt lat="45.8275406" lon="8.6455777"><ele>225.79999999999998</ele><time>2026-05-01T14:50:06.846Z</time></trkpt><trkpt lat="45.8274928" lon="8.6454338"><ele>225.2</ele><time>2026-05-01T14:50:07.846Z</time></trkpt><trkpt lat="45.8274431" lon="8.6452953"><ele>224.6</ele><time>2026-05-01T14:50:08.846Z</time></trkpt><trkpt lat="45.8273859" lon="8.6451635"><ele>224.0</ele><time>2026-05-01T14:50:09.846Z</time></trkpt><trkpt lat="45.8273295" lon="8.6450425"><ele>224.0</ele><time>2026-05-01T14:50:10.845Z</time></trkpt><trkpt lat="45.8272559" lon="8.6449334"><ele>223.99999999999997</ele><time>2026-05-01T14:50:11.845Z</time></trkpt><trkpt lat="45.8271769" lon="8.6448347"><ele>223.99999999999997</ele><time>2026-05-01T14:50:12.845Z</time></trkpt><trkpt lat="45.8270847" lon="8.6447424"><ele>224.0</ele><time>2026-05-01T14:50:13.846Z</time></trkpt><trkpt lat="45.8269782" lon="8.6446596"><ele>224.0</ele><time>2026-05-01T14:50:14.845Z</time></trkpt><trkpt lat="45.8268704" lon="8.6445759"><ele>223.75</ele><time>2026-05-01T14:50:15.847Z</time></trkpt><trkpt lat="45.8267534" lon="8.6444948"><ele>223.5</ele><time>2026-05-01T14:50:16.847Z</time></trkpt><trkpt lat="45.8266406" lon="8.644406"><ele>223.25</ele><time>2026-05-01T14:50:17.846Z</time></trkpt><trkpt lat="45.8265201" lon="8.644318"><ele>223.0</ele><time>2026-05-01T14:50:18.846Z</time></trkpt><trkpt lat="45.8264018" lon="8.6442208"><ele>223.0</ele><time>2026-05-01T14:50:19.846Z</time></trkpt><trkpt lat="45.8262786" lon="8.6441326"><ele>223.0</ele><time>2026-05-01T14:50:20.845Z</time></trkpt><trkpt lat="45.8261638" lon="8.6440517"><ele>223.0</ele><time>2026-05-01T14:50:21.845Z</time></trkpt><trkpt lat="45.8260533" lon="8.6439678"><ele>223.0</ele><time>2026-05-01T14:50:22.844Z</time></trkpt><trkpt lat="45.8259451" lon="8.6438821"><ele>223.25</ele><time>2026-05-01T14:50:23.845Z</time></trkpt><trkpt lat="45.8258355" lon="8.6437935"><ele>223.5</ele><time>2026-05-01T14:50:24.846Z</time></trkpt><trkpt lat="45.8257314" lon="8.6436848"><ele>223.75</ele><time>2026-05-01T14:50:25.846Z</time></trkpt><trkpt lat="45.8256272" lon="8.6435697"><ele>224.0</ele><time>2026-05-01T14:50:26.846Z</time></trkpt><trkpt lat="45.8255258" lon="8.6434377"><ele>224.0</ele><time>2026-05-01T14:50:27.846Z</time></trkpt><trkpt lat="45.8254251" lon="8.6432899"><ele>224.0</ele><time>2026-05-01T14:50:28.846Z</time></trkpt><trkpt lat="45.8253245" lon="8.6431521"><ele>224.0</ele><time>2026-05-01T14:50:29.846Z</time></trkpt><trkpt lat="45.8252281" lon="8.643004"><ele>224.0</ele><time>2026-05-01T14:50:30.847Z</time></trkpt><trkpt lat="45.8251277" lon="8.6428548"><ele>223.5</ele><time>2026-05-01T14:50:31.846Z</time></trkpt><trkpt lat="45.8250342" lon="8.642703"><ele>223.0</ele><time>2026-05-01T14:50:32.846Z</time></trkpt><trkpt lat="45.8249313" lon="8.642545"><ele>222.5</ele><time>2026-05-01T14:50:33.846Z</time></trkpt><trkpt lat="45.8248266" lon="8.6423978"><ele>222.0</ele><time>2026-05-01T14:50:34.845Z</time></trkpt><trkpt lat="45.8247161" lon="8.6422506"><ele>222.0</ele><time>2026-05-01T14:50:35.846Z</time></trkpt><trkpt lat="45.8246203" lon="8.642105"><ele>222.0</ele><time>2026-05-01T14:50:36.846Z</time></trkpt><trkpt lat="45.8245343" lon="8.6419716"><ele>222.0</ele><time>2026-05-01T14:50:37.845Z</time></trkpt><trkpt lat="45.8244532" lon="8.6418418"><ele>222.0</ele><time>2026-05-01T14:50:38.846Z</time></trkpt><trkpt lat="45.824373" lon="8.6417151"><ele>222.25</ele><time>2026-05-01T14:50:39.846Z</time></trkpt><trkpt lat="45.8243084" lon="8.6415676"><ele>222.5</ele><time>2026-05-01T14:50:40.845Z</time></trkpt><trkpt lat="45.8242701" lon="8.6413999"><ele>222.75</ele><time>2026-05-01T14:50:41.846Z</time></trkpt><trkpt lat="45.8242451" lon="8.6412257"><ele>223.0</ele><time>2026-05-01T14:50:42.847Z</time></trkpt><trkpt lat="45.8242446" lon="8.6410309"><ele>223.0</ele><time>2026-05-01T14:50:43.845Z</time></trkpt><trkpt lat="45.8242473" lon="8.640831"><ele>223.0</ele><time>2026-05-01T14:50:44.846Z</time></trkpt><trkpt lat="45.8242532" lon="8.6406234"><ele>223.0</ele><time>2026-05-01T14:50:45.847Z</time></trkpt><trkpt lat="45.8242582" lon="8.6404124"><ele>223.0</ele><time>2026-05-01T14:50:46.846Z</time></trkpt><trkpt lat="45.8242591" lon="8.6402164"><ele>223.0</ele><time>2026-05-01T14:50:47.846Z</time></trkpt><trkpt lat="45.8242519" lon="8.6400305"><ele>223.0</ele><time>2026-05-01T14:50:48.846Z</time></trkpt><trkpt lat="45.8242259" lon="8.6398439"><ele>223.0</ele><time>2026-05-01T14:50:49.845Z</time></trkpt><trkpt lat="45.8241845" lon="8.6396574"><ele>223.0</ele><time>2026-05-01T14:50:50.846Z</time></trkpt><trkpt lat="45.824121" lon="8.6394753"><ele>223.5</ele><time>2026-05-01T14:50:51.845Z</time></trkpt><trkpt lat="45.8240386" lon="8.6393054"><ele>224.0</ele><time>2026-05-01T14:50:52.846Z</time></trkpt><trkpt lat="45.8239455" lon="8.63914"><ele>224.5</ele><time>2026-05-01T14:50:53.846Z</time></trkpt><trkpt lat="45.8238372" lon="8.6389793"><ele>225.0</ele><time>2026-05-01T14:50:54.846Z</time></trkpt><trkpt lat="45.8237271" lon="8.6388182"><ele>225.0</ele><time>2026-05-01T14:50:55.846Z</time></trkpt><trkpt lat="45.823618" lon="8.6386562"><ele>225.0</ele><time>2026-05-01T14:50:56.846Z</time></trkpt><trkpt lat="45.8235163" lon="8.6384893"><ele>225.0</ele><time>2026-05-01T14:50:57.845Z</time></trkpt><trkpt lat="45.8234075" lon="8.638327"><ele>222.66666666666669</ele><time>2026-05-01T14:50:58.846Z</time></trkpt><trkpt lat="45.8232938" lon="8.638164"><ele>220.33333333333334</ele><time>2026-05-01T14:50:59.847Z</time></trkpt><trkpt lat="45.8231839" lon="8.6379953"><ele>218.0</ele><time>2026-05-01T14:51:00.846Z</time></trkpt><trkpt lat="45.8230704" lon="8.6378351"><ele>218.66666666666669</ele><time>2026-05-01T14:51:01.846Z</time></trkpt><trkpt lat="45.8229565" lon="8.6376733"><ele>219.33333333333331</ele><time>2026-05-01T14:51:02.846Z</time></trkpt><trkpt lat="45.8228463" lon="8.6375191"><ele>220.0</ele><time>2026-05-01T14:51:03.846Z</time></trkpt><trkpt lat="45.8227423" lon="8.6373584"><ele>218.5</ele><time>2026-05-01T14:51:04.846Z</time></trkpt><trkpt lat="45.8226388" lon="8.6372022"><ele>217.0</ele><time>2026-05-01T14:51:05.845Z</time></trkpt><trkpt lat="45.8225327" lon="8.6370504"><ele>215.5</ele><time>2026-05-01T14:51:06.845Z</time></trkpt><trkpt lat="45.8224284" lon="8.6369028"><ele>214.0</ele><time>2026-05-01T14:51:07.846Z</time></trkpt><trkpt lat="45.8223332" lon="8.636757"><ele>214.0</ele><time>2026-05-01T14:51:08.845Z</time></trkpt><trkpt lat="45.8222572" lon="8.6365993"><ele>214.0</ele><time>2026-05-01T14:51:09.844Z</time></trkpt><trkpt lat="45.8221883" lon="8.6364381"><ele>214.0</ele><time>2026-05-01T14:51:10.844Z</time></trkpt><trkpt lat="45.8221344" lon="8.6362577"><ele>214.0</ele><time>2026-05-01T14:51:11.847Z</time></trkpt><trkpt lat="45.8221041" lon="8.63607"><ele>213.25</ele><time>2026-05-01T14:51:12.846Z</time></trkpt><trkpt lat="45.8220652" lon="8.635875"><ele>212.5</ele><time>2026-05-01T14:51:13.844Z</time></trkpt><trkpt lat="45.8220218" lon="8.6356792"><ele>211.75</ele><time>2026-05-01T14:51:14.846Z</time></trkpt><trkpt lat="45.8219823" lon="8.6354845"><ele>211.0</ele><time>2026-05-01T14:51:15.846Z</time></trkpt><trkpt lat="45.8219429" lon="8.6352801"><ele>211.0</ele><time>2026-05-01T14:51:16.847Z</time></trkpt><trkpt lat="45.8219071" lon="8.6350775"><ele>211.0</ele><time>2026-05-01T14:51:17.846Z</time></trkpt><trkpt lat="45.8218671" lon="8.6348677"><ele>211.0</ele><time>2026-05-01T14:51:18.846Z</time></trkpt><trkpt lat="45.8218312" lon="8.6346629"><ele>211.0</ele><time>2026-05-01T14:51:19.847Z</time></trkpt><trkpt lat="45.8217976" lon="8.6344638"><ele>211.25</ele><time>2026-05-01T14:51:20.845Z</time></trkpt><trkpt lat="45.8217581" lon="8.6342697"><ele>211.5</ele><time>2026-05-01T14:51:21.846Z</time></trkpt><trkpt lat="45.8217194" lon="8.634077"><ele>211.75</ele><time>2026-05-01T14:51:22.846Z</time></trkpt><trkpt lat="45.8216807" lon="8.6338874"><ele>212.0</ele><time>2026-05-01T14:51:23.845Z</time></trkpt><trkpt lat="45.8216444" lon="8.6336989"><ele>212.25</ele><time>2026-05-01T14:51:24.846Z</time></trkpt><trkpt lat="45.8216061" lon="8.6335114"><ele>212.5</ele><time>2026-05-01T14:51:25.846Z</time></trkpt><trkpt lat="45.8215708" lon="8.6333235"><ele>212.75</ele><time>2026-05-01T14:51:26.846Z</time></trkpt><trkpt lat="45.8215341" lon="8.6331383"><ele>213.0</ele><time>2026-05-01T14:51:27.846Z</time></trkpt><trkpt lat="45.8214968" lon="8.6329513"><ele>212.75</ele><time>2026-05-01T14:51:28.846Z</time></trkpt><trkpt lat="45.8214608" lon="8.6327675"><ele>212.5</ele><time>2026-05-01T14:51:29.846Z</time></trkpt><trkpt lat="45.8214248" lon="8.6325839"><ele>212.25</ele><time>2026-05-01T14:51:30.846Z</time></trkpt><trkpt lat="45.8213856" lon="8.6323961"><ele>212.0</ele><time>2026-05-01T14:51:31.846Z</time></trkpt><trkpt lat="45.8213435" lon="8.6322049"><ele>212.0</ele><time>2026-05-01T14:51:32.846Z</time></trkpt><trkpt lat="45.8213049" lon="8.6320049"><ele>212.0</ele><time>2026-05-01T14:51:33.846Z</time></trkpt><trkpt lat="45.8212655" lon="8.6318047"><ele>212.0</ele><time>2026-05-01T14:51:34.845Z</time></trkpt><trkpt lat="45.8212244" lon="8.6315977"><ele>212.0</ele><time>2026-05-01T14:51:35.846Z</time></trkpt><trkpt lat="45.8211805" lon="8.6313901"><ele>211.66666666666669</ele><time>2026-05-01T14:51:36.846Z</time></trkpt><trkpt lat="45.8211355" lon="8.6311781"><ele>211.33333333333331</ele><time>2026-05-01T14:51:37.846Z</time></trkpt><trkpt lat="45.8210864" lon="8.6309578"><ele>211.0</ele><time>2026-05-01T14:51:38.846Z</time></trkpt><trkpt lat="45.8210349" lon="8.6307301"><ele>210.33333333333331</ele><time>2026-05-01T14:51:39.846Z</time></trkpt><trkpt lat="45.8209936" lon="8.6305001"><ele>209.66666666666669</ele><time>2026-05-01T14:51:40.846Z</time></trkpt><trkpt lat="45.8209469" lon="8.6302678"><ele>209.0</ele><time>2026-05-01T14:51:41.846Z</time></trkpt><trkpt lat="45.8209017" lon="8.630033"><ele>208.66666666666669</ele><time>2026-05-01T14:51:42.846Z</time></trkpt><trkpt lat="45.8208569" lon="8.6298137"><ele>208.33333333333331</ele><time>2026-05-01T14:51:43.846Z</time></trkpt><trkpt lat="45.820811" lon="8.6296052"><ele>208.0</ele><time>2026-05-01T14:51:44.845Z</time></trkpt><trkpt lat="45.8207716" lon="8.6294014"><ele>208.0</ele><time>2026-05-01T14:51:45.845Z</time></trkpt><trkpt lat="45.8207227" lon="8.6292095"><ele>208.0</ele><time>2026-05-01T14:51:46.846Z</time></trkpt><trkpt lat="45.8206659" lon="8.6290076"><ele>208.0</ele><time>2026-05-01T14:51:47.846Z</time></trkpt><trkpt lat="45.8206041" lon="8.6288113"><ele>208.0</ele><time>2026-05-01T14:51:48.846Z</time></trkpt><trkpt lat="45.8205456" lon="8.6286045"><ele>207.25</ele><time>2026-05-01T14:51:49.846Z</time></trkpt><trkpt lat="45.82049" lon="8.6284074"><ele>206.5</ele><time>2026-05-01T14:51:50.846Z</time></trkpt><trkpt lat="45.8204302" lon="8.6282223"><ele>205.75</ele><time>2026-05-01T14:51:51.846Z</time></trkpt><trkpt lat="45.8203541" lon="8.6280325"><ele>205.0</ele><time>2026-05-01T14:51:52.845Z</time></trkpt><trkpt lat="45.820283" lon="8.6278315"><ele>203.66666666666666</ele><time>2026-05-01T14:51:53.846Z</time></trkpt><trkpt lat="45.8202089" lon="8.6276273"><ele>202.33333333333331</ele><time>2026-05-01T14:51:54.846Z</time></trkpt><trkpt lat="45.820142" lon="8.6274162"><ele>201.0</ele><time>2026-05-01T14:51:55.845Z</time></trkpt><trkpt lat="45.8200728" lon="8.6272049"><ele>200.66666666666669</ele><time>2026-05-01T14:51:56.846Z</time></trkpt><trkpt lat="45.8199992" lon="8.6269941"><ele>200.33333333333334</ele><time>2026-05-01T14:51:57.846Z</time></trkpt><trkpt lat="45.8199335" lon="8.6267836"><ele>200.0</ele><time>2026-05-01T14:51:58.846Z</time></trkpt><trkpt lat="45.8198679" lon="8.6265746"><ele>200.66666666666669</ele><time>2026-05-01T14:51:59.846Z</time></trkpt><trkpt lat="45.8198006" lon="8.6263721"><ele>201.33333333333331</ele><time>2026-05-01T14:52:00.845Z</time></trkpt><trkpt lat="45.8197385" lon="8.6261789"><ele>202.0</ele><time>2026-05-01T14:52:01.846Z</time></trkpt><trkpt lat="45.8196748" lon="8.6259832"><ele>203.0</ele><time>2026-05-01T14:52:02.846Z</time></trkpt><trkpt lat="45.8196167" lon="8.6257997"><ele>204.0</ele><time>2026-05-01T14:52:03.845Z</time></trkpt><trkpt lat="45.8195539" lon="8.6256196"><ele>205.0</ele><time>2026-05-01T14:52:04.845Z</time></trkpt><trkpt lat="45.8194998" lon="8.6254393"><ele>206.0</ele><time>2026-05-01T14:52:05.845Z</time></trkpt><trkpt lat="45.8194343" lon="8.6252579"><ele>206.25</ele><time>2026-05-01T14:52:06.845Z</time></trkpt><trkpt lat="45.8193811" lon="8.6250829"><ele>206.5</ele><time>2026-05-01T14:52:07.845Z</time></trkpt><trkpt lat="45.8193273" lon="8.6249222"><ele>206.75</ele><time>2026-05-01T14:52:08.845Z</time></trkpt><trkpt lat="45.8192847" lon="8.6247601"><ele>207.0</ele><time>2026-05-01T14:52:09.846Z</time></trkpt><trkpt lat="45.8192489" lon="8.6246014"><ele>206.8</ele><time>2026-05-01T14:52:10.846Z</time></trkpt><trkpt lat="45.8192101" lon="8.6244603"><ele>206.6</ele><time>2026-05-01T14:52:11.846Z</time></trkpt><trkpt lat="45.8191885" lon="8.6243336"><ele>206.4</ele><time>2026-05-01T14:52:12.846Z</time></trkpt><trkpt lat="45.8191674" lon="8.6242129"><ele>206.20000000000002</ele><time>2026-05-01T14:52:13.846Z</time></trkpt><trkpt lat="45.8191497" lon="8.6241032"><ele>206.0</ele><time>2026-05-01T14:52:14.846Z</time></trkpt><trkpt lat="45.8191918" lon="8.6239417"><ele>206.0</ele><time>2026-05-01T14:52:16.846Z</time></trkpt><trkpt lat="45.8192413" lon="8.6238737"><ele>206.0</ele><time>2026-05-01T14:52:17.846Z</time></trkpt><trkpt lat="45.8193164" lon="8.6237587"><ele>206.0</ele><time>2026-05-01T14:52:19.846Z</time></trkpt><trkpt lat="45.8193171" lon="8.6236137"><ele>206.0</ele><time>2026-05-01T14:52:21.846Z</time></trkpt><trkpt lat="45.8192057" lon="8.6235054"><ele>206.0</ele><time>2026-05-01T14:52:23.846Z</time></trkpt><trkpt lat="45.8191244" lon="8.6234728"><ele>206.20000000000002</ele><time>2026-05-01T14:52:24.846Z</time></trkpt><trkpt lat="45.8190384" lon="8.6234363"><ele>206.4</ele><time>2026-05-01T14:52:25.845Z</time></trkpt><trkpt lat="45.8189432" lon="8.6234012"><ele>206.6</ele><time>2026-05-01T14:52:26.846Z</time></trkpt><trkpt lat="45.8188366" lon="8.6233893"><ele>206.8</ele><time>2026-05-01T14:52:27.846Z</time></trkpt><trkpt lat="45.8187203" lon="8.6233806"><ele>207.0</ele><time>2026-05-01T14:52:28.846Z</time></trkpt><trkpt lat="45.8186088" lon="8.6233697"><ele>207.0</ele><time>2026-05-01T14:52:29.845Z</time></trkpt><trkpt lat="45.8184898" lon="8.6233595"><ele>207.0</ele><time>2026-05-01T14:52:30.846Z</time></trkpt><trkpt lat="45.8183642" lon="8.6233448"><ele>207.0</ele><time>2026-05-01T14:52:31.846Z</time></trkpt><trkpt lat="45.8182376" lon="8.6233352"><ele>207.0</ele><time>2026-05-01T14:52:32.844Z</time></trkpt><trkpt lat="45.8181013" lon="8.6233231"><ele>207.0</ele><time>2026-05-01T14:52:33.846Z</time></trkpt><trkpt lat="45.8179577" lon="8.6233123"><ele>207.0</ele><time>2026-05-01T14:52:34.846Z</time></trkpt><trkpt lat="45.8178161" lon="8.6233033"><ele>207.0</ele><time>2026-05-01T14:52:35.845Z</time></trkpt><trkpt lat="45.8176707" lon="8.6232793"><ele>207.0</ele><time>2026-05-01T14:52:36.846Z</time></trkpt><trkpt lat="45.8175244" lon="8.6232564"><ele>207.25</ele><time>2026-05-01T14:52:37.846Z</time></trkpt><trkpt lat="45.8173795" lon="8.6232181"><ele>207.5</ele><time>2026-05-01T14:52:38.846Z</time></trkpt><trkpt lat="45.8172332" lon="8.6231762"><ele>207.75</ele><time>2026-05-01T14:52:39.846Z</time></trkpt><trkpt lat="45.8170898" lon="8.6231248"><ele>208.0</ele><time>2026-05-01T14:52:40.846Z</time></trkpt><trkpt lat="45.8169524" lon="8.6230725"><ele>208.0</ele><time>2026-05-01T14:52:41.845Z</time></trkpt><trkpt lat="45.8168213" lon="8.6230159"><ele>208.0</ele><time>2026-05-01T14:52:42.846Z</time></trkpt><trkpt lat="45.8166973" lon="8.6229507"><ele>208.0</ele><time>2026-05-01T14:52:43.846Z</time></trkpt><trkpt lat="45.8165734" lon="8.6228796"><ele>208.0</ele><time>2026-05-01T14:52:44.846Z</time></trkpt><trkpt lat="45.8164556" lon="8.6228058"><ele>208.0</ele><time>2026-05-01T14:52:45.846Z</time></trkpt><trkpt lat="45.8163489" lon="8.6227264"><ele>208.0</ele><time>2026-05-01T14:52:46.846Z</time></trkpt><trkpt lat="45.81624" lon="8.622658"><ele>208.0</ele><time>2026-05-01T14:52:47.845Z</time></trkpt><trkpt lat="45.8161396" lon="8.6225919"><ele>208.0</ele><time>2026-05-01T14:52:48.846Z</time></trkpt><trkpt lat="45.8160411" lon="8.6225221"><ele>209.0</ele><time>2026-05-01T14:52:49.846Z</time></trkpt><trkpt lat="45.8159436" lon="8.6224484"><ele>210.0</ele><time>2026-05-01T14:52:50.846Z</time></trkpt><trkpt lat="45.8158439" lon="8.6223793"><ele>211.0</ele><time>2026-05-01T14:52:51.845Z</time></trkpt><trkpt lat="45.8157407" lon="8.6223057"><ele>212.0</ele><time>2026-05-01T14:52:52.845Z</time></trkpt><trkpt lat="45.815634" lon="8.6222303"><ele>212.0</ele><time>2026-05-01T14:52:53.845Z</time></trkpt><trkpt lat="45.8155226" lon="8.6221532"><ele>212.0</ele><time>2026-05-01T14:52:54.846Z</time></trkpt><trkpt lat="45.8154087" lon="8.6220722"><ele>212.0</ele><time>2026-05-01T14:52:55.845Z</time></trkpt><trkpt lat="45.8152954" lon="8.6219903"><ele>212.0</ele><time>2026-05-01T14:52:56.846Z</time></trkpt><trkpt lat="45.8151805" lon="8.6219051"><ele>211.25</ele><time>2026-05-01T14:52:57.846Z</time></trkpt><trkpt lat="45.8150659" lon="8.6218241"><ele>210.5</ele><time>2026-05-01T14:52:58.845Z</time></trkpt><trkpt lat="45.8149621" lon="8.621744"><ele>209.75</ele><time>2026-05-01T14:52:59.846Z</time></trkpt><trkpt lat="45.8148651" lon="8.6216766"><ele>209.0</ele><time>2026-05-01T14:53:00.846Z</time></trkpt><trkpt lat="45.8147614" lon="8.6216009"><ele>209.0</ele><time>2026-05-01T14:53:01.846Z</time></trkpt><trkpt lat="45.8146548" lon="8.6215264"><ele>209.0</ele><time>2026-05-01T14:53:02.846Z</time></trkpt><trkpt lat="45.8145423" lon="8.6214472"><ele>209.0</ele><time>2026-05-01T14:53:03.845Z</time></trkpt><trkpt lat="45.8144355" lon="8.621368"><ele>209.0</ele><time>2026-05-01T14:53:04.846Z</time></trkpt><trkpt lat="45.8143294" lon="8.6212953"><ele>209.2</ele><time>2026-05-01T14:53:05.846Z</time></trkpt><trkpt lat="45.8142198" lon="8.6212224"><ele>209.39999999999998</ele><time>2026-05-01T14:53:06.845Z</time></trkpt><trkpt lat="45.8141165" lon="8.6211448"><ele>209.6</ele><time>2026-05-01T14:53:07.846Z</time></trkpt><trkpt lat="45.8140159" lon="8.6210761"><ele>209.8</ele><time>2026-05-01T14:53:08.845Z</time></trkpt><trkpt lat="45.8139253" lon="8.6210209"><ele>210.0</ele><time>2026-05-01T14:53:09.846Z</time></trkpt><trkpt lat="45.813839" lon="8.6209637"><ele>210.0</ele><time>2026-05-01T14:53:10.846Z</time></trkpt><trkpt lat="45.8137679" lon="8.6209143"><ele>210.0</ele><time>2026-05-01T14:53:11.846Z</time></trkpt><trkpt lat="45.8136919" lon="8.6208544"><ele>210.0</ele><time>2026-05-01T14:53:12.846Z</time></trkpt><trkpt lat="45.8136127" lon="8.6207875"><ele>210.0</ele><time>2026-05-01T14:53:13.844Z</time></trkpt><trkpt lat="45.8135299" lon="8.6207262"><ele>210.0</ele><time>2026-05-01T14:53:14.846Z</time></trkpt><trkpt lat="45.8134447" lon="8.6206538"><ele>210.2</ele><time>2026-05-01T14:53:15.846Z</time></trkpt><trkpt lat="45.8133537" lon="8.620573"><ele>210.4</ele><time>2026-05-01T14:53:16.846Z</time></trkpt><trkpt lat="45.8132549" lon="8.6204833"><ele>210.60000000000002</ele><time>2026-05-01T14:53:17.846Z</time></trkpt><trkpt lat="45.8131606" lon="8.620396"><ele>210.8</ele><time>2026-05-01T14:53:18.845Z</time></trkpt><trkpt lat="45.8130714" lon="8.6203169"><ele>211.0</ele><time>2026-05-01T14:53:19.845Z</time></trkpt><trkpt lat="45.8129962" lon="8.6202413"><ele>211.16666666666666</ele><time>2026-05-01T14:53:20.845Z</time></trkpt><trkpt lat="45.8129313" lon="8.6201698"><ele>211.33333333333331</ele><time>2026-05-01T14:53:21.846Z</time></trkpt><trkpt lat="45.812867" lon="8.6201064"><ele>211.5</ele><time>2026-05-01T14:53:22.845Z</time></trkpt><trkpt lat="45.8128044" lon="8.62005"><ele>211.66666666666669</ele><time>2026-05-01T14:53:23.846Z</time></trkpt><trkpt lat="45.8127495" lon="8.6200002"><ele>211.83333333333334</ele><time>2026-05-01T14:53:24.846Z</time></trkpt><trkpt lat="45.8126437" lon="8.619893"><ele>212.0</ele><time>2026-05-01T14:53:26.845Z</time></trkpt><trkpt lat="45.8125816" lon="8.6198344"><ele>212.00000000000003</ele><time>2026-05-01T14:53:27.845Z</time></trkpt><trkpt lat="45.8125167" lon="8.6197779"><ele>212.0</ele><time>2026-05-01T14:53:28.845Z</time></trkpt><trkpt lat="45.8124177" lon="8.6196807"><ele>212.0</ele><time>2026-05-01T14:53:30.844Z</time></trkpt><trkpt lat="45.8123678" lon="8.6196223"><ele>212.0</ele><time>2026-05-01T14:53:31.846Z</time></trkpt><trkpt lat="45.8123177" lon="8.6195537"><ele>212.00000000000003</ele><time>2026-05-01T14:53:32.846Z</time></trkpt><trkpt lat="45.8122618" lon="8.6194704"><ele>212.0</ele><time>2026-05-01T14:53:33.845Z</time></trkpt><trkpt lat="45.8122151" lon="8.6193987"><ele>211.83333333333334</ele><time>2026-05-01T14:53:34.846Z</time></trkpt><trkpt lat="45.8121032" lon="8.6193242"><ele>211.66666666666669</ele><time>2026-05-01T14:53:36.846Z</time></trkpt><trkpt lat="45.8120383" lon="8.6193254"><ele>211.5</ele><time>2026-05-01T14:53:37.846Z</time></trkpt><trkpt lat="45.8119672" lon="8.6193484"><ele>211.33333333333331</ele><time>2026-05-01T14:53:38.845Z</time></trkpt><trkpt lat="45.8118835" lon="8.6193811"><ele>211.16666666666666</ele><time>2026-05-01T14:53:39.846Z</time></trkpt><trkpt lat="45.8117938" lon="8.6194161"><ele>211.0</ele><time>2026-05-01T14:53:40.846Z</time></trkpt><trkpt lat="45.8117037" lon="8.6194548"><ele>211.0</ele><time>2026-05-01T14:53:41.845Z</time></trkpt><trkpt lat="45.8116158" lon="8.6194883"><ele>211.0</ele><time>2026-05-01T14:53:42.844Z</time></trkpt><trkpt lat="45.8115215" lon="8.6195305"><ele>211.0</ele><time>2026-05-01T14:53:43.846Z</time></trkpt><trkpt lat="45.8114282" lon="8.6195728"><ele>211.0</ele><time>2026-05-01T14:53:44.846Z</time></trkpt><trkpt lat="45.8113279" lon="8.6196173"><ele>211.0</ele><time>2026-05-01T14:53:45.845Z</time></trkpt><trkpt lat="45.8112401" lon="8.6196482"><ele>211.0</ele><time>2026-05-01T14:53:46.846Z</time></trkpt><trkpt lat="45.8111466" lon="8.6196668"><ele>211.0</ele><time>2026-05-01T14:53:47.844Z</time></trkpt><trkpt lat="45.8110522" lon="8.6196668"><ele>211.0</ele><time>2026-05-01T14:53:48.845Z</time></trkpt><trkpt lat="45.8109476" lon="8.6196513"><ele>211.0</ele><time>2026-05-01T14:53:49.846Z</time></trkpt><trkpt lat="45.8108334" lon="8.6196303"><ele>211.0</ele><time>2026-05-01T14:53:50.845Z</time></trkpt><trkpt lat="45.8107092" lon="8.6196126"><ele>211.0</ele><time>2026-05-01T14:53:51.845Z</time></trkpt><trkpt lat="45.8105837" lon="8.6195895"><ele>211.0</ele><time>2026-05-01T14:53:52.845Z</time></trkpt><trkpt lat="45.81046" lon="8.6195664"><ele>211.0</ele><time>2026-05-01T14:53:53.846Z</time></trkpt><trkpt lat="45.8103277" lon="8.6195346"><ele>211.0</ele><time>2026-05-01T14:53:54.846Z</time></trkpt><trkpt lat="45.8101935" lon="8.6194973"><ele>211.5</ele><time>2026-05-01T14:53:55.845Z</time></trkpt><trkpt lat="45.8100568" lon="8.6194497"><ele>212.0</ele><time>2026-05-01T14:53:56.845Z</time></trkpt><trkpt lat="45.8099186" lon="8.6193941"><ele>212.5</ele><time>2026-05-01T14:53:57.845Z</time></trkpt><trkpt lat="45.809781" lon="8.6193222"><ele>213.0</ele><time>2026-05-01T14:53:58.845Z</time></trkpt><trkpt lat="45.8096443" lon="8.6192323"><ele>213.0</ele><time>2026-05-01T14:53:59.845Z</time></trkpt><trkpt lat="45.8095088" lon="8.6191292"><ele>213.0</ele><time>2026-05-01T14:54:00.846Z</time></trkpt><trkpt lat="45.8093742" lon="8.6190126"><ele>213.0</ele><time>2026-05-01T14:54:01.845Z</time></trkpt><trkpt lat="45.8092472" lon="8.6188795"><ele>213.33333333333331</ele><time>2026-05-01T14:54:02.845Z</time></trkpt><trkpt lat="45.809128" lon="8.6187326"><ele>213.66666666666666</ele><time>2026-05-01T14:54:03.845Z</time></trkpt><trkpt lat="45.8090193" lon="8.6185775"><ele>214.0</ele><time>2026-05-01T14:54:04.845Z</time></trkpt><trkpt lat="45.8089169" lon="8.6184125"><ele>213.33333333333331</ele><time>2026-05-01T14:54:05.846Z</time></trkpt><trkpt lat="45.80882" lon="8.6182379"><ele>212.66666666666669</ele><time>2026-05-01T14:54:06.846Z</time></trkpt><trkpt lat="45.8087301" lon="8.6180523"><ele>212.0</ele><time>2026-05-01T14:54:07.846Z</time></trkpt><trkpt lat="45.8086499" lon="8.6178587"><ele>212.0</ele><time>2026-05-01T14:54:08.846Z</time></trkpt><trkpt lat="45.8085836" lon="8.6176496"><ele>212.0</ele><time>2026-05-01T14:54:09.846Z</time></trkpt><trkpt lat="45.8085263" lon="8.6174321"><ele>212.0</ele><time>2026-05-01T14:54:10.846Z</time></trkpt><trkpt lat="45.8084653" lon="8.6172182"><ele>212.0</ele><time>2026-05-01T14:54:11.846Z</time></trkpt><trkpt lat="45.8084168" lon="8.6170032"><ele>212.0</ele><time>2026-05-01T14:54:12.846Z</time></trkpt><trkpt lat="45.8083648" lon="8.6167807"><ele>212.0</ele><time>2026-05-01T14:54:13.845Z</time></trkpt><trkpt lat="45.8083101" lon="8.6165563"><ele>212.0</ele><time>2026-05-01T14:54:14.846Z</time></trkpt><trkpt lat="45.808256" lon="8.6163353"><ele>212.0</ele><time>2026-05-01T14:54:15.844Z</time></trkpt><trkpt lat="45.8082029" lon="8.6161084"><ele>212.0</ele><time>2026-05-01T14:54:16.846Z</time></trkpt><trkpt lat="45.8081472" lon="8.6158834"><ele>212.0</ele><time>2026-05-01T14:54:17.846Z</time></trkpt><trkpt lat="45.8080915" lon="8.615656"><ele>212.0</ele><time>2026-05-01T14:54:18.846Z</time></trkpt><trkpt lat="45.808038" lon="8.6154309"><ele>212.0</ele><time>2026-05-01T14:54:19.845Z</time></trkpt><trkpt lat="45.8079817" lon="8.6152064"><ele>211.66666666666669</ele><time>2026-05-01T14:54:20.846Z</time></trkpt><trkpt lat="45.8079254" lon="8.6149783"><ele>211.33333333333331</ele><time>2026-05-01T14:54:21.846Z</time></trkpt><trkpt lat="45.8078686" lon="8.6147543"><ele>211.0</ele><time>2026-05-01T14:54:22.846Z</time></trkpt><trkpt lat="45.8078161" lon="8.6145276"><ele>210.33333333333331</ele><time>2026-05-01T14:54:23.846Z</time></trkpt><trkpt lat="45.8077635" lon="8.6142969"><ele>209.66666666666669</ele><time>2026-05-01T14:54:24.846Z</time></trkpt><trkpt lat="45.8077084" lon="8.6140723"><ele>209.0</ele><time>2026-05-01T14:54:25.846Z</time></trkpt><trkpt lat="45.8076535" lon="8.6138493"><ele>209.33333333333334</ele><time>2026-05-01T14:54:26.846Z</time></trkpt><trkpt lat="45.8076059" lon="8.6136264"><ele>209.66666666666669</ele><time>2026-05-01T14:54:27.845Z</time></trkpt><trkpt lat="45.8075519" lon="8.6134004"><ele>210.0</ele><time>2026-05-01T14:54:28.846Z</time></trkpt><trkpt lat="45.8074929" lon="8.6131773"><ele>210.0</ele><time>2026-05-01T14:54:29.846Z</time></trkpt><trkpt lat="45.8074382" lon="8.6129499"><ele>210.0</ele><time>2026-05-01T14:54:30.846Z</time></trkpt><trkpt lat="45.8073825" lon="8.6127207"><ele>210.0</ele><time>2026-05-01T14:54:31.845Z</time></trkpt><trkpt lat="45.8073258" lon="8.6124939"><ele>210.66666666666669</ele><time>2026-05-01T14:54:32.846Z</time></trkpt><trkpt lat="45.8072719" lon="8.6122713"><ele>211.33333333333334</ele><time>2026-05-01T14:54:33.845Z</time></trkpt><trkpt lat="45.8072248" lon="8.6120636"><ele>212.0</ele><time>2026-05-01T14:54:34.846Z</time></trkpt><trkpt lat="45.8071701" lon="8.6118647"><ele>212.0</ele><time>2026-05-01T14:54:35.845Z</time></trkpt><trkpt lat="45.8071116" lon="8.6116635"><ele>212.0</ele><time>2026-05-01T14:54:36.846Z</time></trkpt><trkpt lat="45.8070495" lon="8.6114642"><ele>212.0</ele><time>2026-05-01T14:54:37.846Z</time></trkpt><trkpt lat="45.8069725" lon="8.6112774"><ele>211.66666666666669</ele><time>2026-05-01T14:54:38.845Z</time></trkpt><trkpt lat="45.806887" lon="8.6110903"><ele>211.33333333333331</ele><time>2026-05-01T14:54:39.845Z</time></trkpt><trkpt lat="45.8067917" lon="8.6109099"><ele>211.0</ele><time>2026-05-01T14:54:40.845Z</time></trkpt><trkpt lat="45.8066868" lon="8.6107364"><ele>210.0</ele><time>2026-05-01T14:54:41.846Z</time></trkpt><trkpt lat="45.8065788" lon="8.6105629"><ele>209.0</ele><time>2026-05-01T14:54:42.845Z</time></trkpt><trkpt lat="45.8064604" lon="8.6104061"><ele>208.0</ele><time>2026-05-01T14:54:43.846Z</time></trkpt><trkpt lat="45.8063408" lon="8.6102631"><ele>208.0</ele><time>2026-05-01T14:54:44.845Z</time></trkpt><trkpt lat="45.8062126" lon="8.6101308"><ele>208.0</ele><time>2026-05-01T14:54:45.846Z</time></trkpt><trkpt lat="45.8060729" lon="8.6100042"><ele>208.0</ele><time>2026-05-01T14:54:46.846Z</time></trkpt><trkpt lat="45.8059331" lon="8.6098957"><ele>207.66666666666666</ele><time>2026-05-01T14:54:47.846Z</time></trkpt><trkpt lat="45.8057918" lon="8.6097872"><ele>207.33333333333331</ele><time>2026-05-01T14:54:48.843Z</time></trkpt><trkpt lat="45.8056518" lon="8.6096993"><ele>207.0</ele><time>2026-05-01T14:54:49.846Z</time></trkpt><trkpt lat="45.805504" lon="8.6096253"><ele>207.0</ele><time>2026-05-01T14:54:50.846Z</time></trkpt><trkpt lat="45.8053564" lon="8.6095678"><ele>207.0</ele><time>2026-05-01T14:54:51.846Z</time></trkpt><trkpt lat="45.805207" lon="8.6095288"><ele>207.0</ele><time>2026-05-01T14:54:52.846Z</time></trkpt><trkpt lat="45.805057" lon="8.6095048"><ele>207.5</ele><time>2026-05-01T14:54:53.846Z</time></trkpt><trkpt lat="45.8049068" lon="8.6094903"><ele>208.0</ele><time>2026-05-01T14:54:54.844Z</time></trkpt><trkpt lat="45.8047661" lon="8.6094795"><ele>208.5</ele><time>2026-05-01T14:54:55.846Z</time></trkpt><trkpt lat="45.8046285" lon="8.6094755"><ele>209.0</ele><time>2026-05-01T14:54:56.846Z</time></trkpt><trkpt lat="45.8044995" lon="8.6094784"><ele>209.0</ele><time>2026-05-01T14:54:57.845Z</time></trkpt><trkpt lat="45.804373" lon="8.6094875"><ele>209.0</ele><time>2026-05-01T14:54:58.844Z</time></trkpt><trkpt lat="45.8042486" lon="8.6094936"><ele>209.0</ele><time>2026-05-01T14:54:59.845Z</time></trkpt><trkpt lat="45.8041255" lon="8.6095008"><ele>209.0</ele><time>2026-05-01T14:55:00.844Z</time></trkpt><trkpt lat="45.8040048" lon="8.6095076"><ele>209.39999999999998</ele><time>2026-05-01T14:55:01.845Z</time></trkpt><trkpt lat="45.803893" lon="8.6095096"><ele>209.8</ele><time>2026-05-01T14:55:02.846Z</time></trkpt><trkpt lat="45.8037847" lon="8.6095117"><ele>210.2</ele><time>2026-05-01T14:55:03.846Z</time></trkpt><trkpt lat="45.80367" lon="8.6095134"><ele>210.60000000000002</ele><time>2026-05-01T14:55:04.845Z</time></trkpt><trkpt lat="45.8035559" lon="8.609517"><ele>211.0</ele><time>2026-05-01T14:55:05.845Z</time></trkpt><trkpt lat="45.8034389" lon="8.6095234"><ele>211.25</ele><time>2026-05-01T14:55:06.846Z</time></trkpt><trkpt lat="45.8033119" lon="8.6095191"><ele>211.5</ele><time>2026-05-01T14:55:07.846Z</time></trkpt><trkpt lat="45.8031735" lon="8.6095243"><ele>211.75</ele><time>2026-05-01T14:55:08.845Z</time></trkpt><trkpt lat="45.8030277" lon="8.6095379"><ele>212.0</ele><time>2026-05-01T14:55:09.846Z</time></trkpt><trkpt lat="45.8028807" lon="8.6095403"><ele>212.0</ele><time>2026-05-01T14:55:10.845Z</time></trkpt><trkpt lat="45.8027362" lon="8.6095454"><ele>212.0</ele><time>2026-05-01T14:55:11.846Z</time></trkpt><trkpt lat="45.8025962" lon="8.6095518"><ele>212.0</ele><time>2026-05-01T14:55:12.846Z</time></trkpt><trkpt lat="45.8024661" lon="8.6095515"><ele>212.0</ele><time>2026-05-01T14:55:13.846Z</time></trkpt><trkpt lat="45.8023347" lon="8.609548"><ele>213.0</ele><time>2026-05-01T14:55:14.846Z</time></trkpt><trkpt lat="45.8022086" lon="8.609548"><ele>214.0</ele><time>2026-05-01T14:55:15.845Z</time></trkpt><trkpt lat="45.8020849" lon="8.6095533"><ele>215.0</ele><time>2026-05-01T14:55:16.846Z</time></trkpt><trkpt lat="45.8019525" lon="8.6095555"><ele>216.0</ele><time>2026-05-01T14:55:17.846Z</time></trkpt><trkpt lat="45.8018255" lon="8.6095619"><ele>216.5</ele><time>2026-05-01T14:55:18.846Z</time></trkpt><trkpt lat="45.8017089" lon="8.6095631"><ele>217.0</ele><time>2026-05-01T14:55:19.844Z</time></trkpt><trkpt lat="45.8015898" lon="8.6095677"><ele>217.5</ele><time>2026-05-01T14:55:20.846Z</time></trkpt><trkpt lat="45.8014716" lon="8.6095724"><ele>218.0</ele><time>2026-05-01T14:55:21.846Z</time></trkpt><trkpt lat="45.8013565" lon="8.6095762"><ele>218.0</ele><time>2026-05-01T14:55:22.846Z</time></trkpt><trkpt lat="45.8012481" lon="8.6095798"><ele>218.0</ele><time>2026-05-01T14:55:23.846Z</time></trkpt><trkpt lat="45.8011478" lon="8.6095794"><ele>218.0</ele><time>2026-05-01T14:55:24.845Z</time></trkpt><trkpt lat="45.8010505" lon="8.6095822"><ele>218.0</ele><time>2026-05-01T14:55:25.846Z</time></trkpt><trkpt lat="45.8009654" lon="8.609584"><ele>218.0</ele><time>2026-05-01T14:55:26.845Z</time></trkpt><trkpt lat="45.8008923" lon="8.6095849"><ele>217.60000000000002</ele><time>2026-05-01T14:55:27.846Z</time></trkpt><trkpt lat="45.8008241" lon="8.6095835"><ele>217.20000000000002</ele><time>2026-05-01T14:55:28.845Z</time></trkpt><trkpt lat="45.8007028" lon="8.6095758"><ele>216.8</ele><time>2026-05-01T14:55:30.846Z</time></trkpt><trkpt lat="45.8005904" lon="8.6095721"><ele>216.4</ele><time>2026-05-01T14:55:32.845Z</time></trkpt><trkpt lat="45.8005218" lon="8.6095612"><ele>216.0</ele><time>2026-05-01T14:55:34.846Z</time></trkpt><trkpt lat="45.8004375" lon="8.6095281"><ele>215.60000000000002</ele><time>2026-05-01T14:55:36.845Z</time></trkpt><trkpt lat="45.8003123" lon="8.6094675"><ele>215.20000000000002</ele><time>2026-05-01T14:55:38.846Z</time></trkpt><trkpt lat="45.8002385" lon="8.6094203"><ele>214.79999999999998</ele><time>2026-05-01T14:55:39.845Z</time></trkpt><trkpt lat="45.8001636" lon="8.6093585"><ele>214.39999999999998</ele><time>2026-05-01T14:55:40.845Z</time></trkpt><trkpt lat="45.8000942" lon="8.6093002"><ele>214.0</ele><time>2026-05-01T14:55:41.845Z</time></trkpt><trkpt lat="45.800026" lon="8.6092237"><ele>214.0</ele><time>2026-05-01T14:55:42.845Z</time></trkpt><trkpt lat="45.7999493" lon="8.6091446"><ele>213.99999999999997</ele><time>2026-05-01T14:55:43.846Z</time></trkpt><trkpt lat="45.7998762" lon="8.6090658"><ele>213.99999999999997</ele><time>2026-05-01T14:55:44.845Z</time></trkpt><trkpt lat="45.7997966" lon="8.6089681"><ele>214.0</ele><time>2026-05-01T14:55:45.846Z</time></trkpt><trkpt lat="45.7997154" lon="8.6088695"><ele>214.0</ele><time>2026-05-01T14:55:46.845Z</time></trkpt><trkpt lat="45.7996306" lon="8.60876"><ele>213.5</ele><time>2026-05-01T14:55:47.846Z</time></trkpt><trkpt lat="45.7995407" lon="8.608644"><ele>213.0</ele><time>2026-05-01T14:55:48.846Z</time></trkpt><trkpt lat="45.7994487" lon="8.6085275"><ele>212.5</ele><time>2026-05-01T14:55:49.846Z</time></trkpt><trkpt lat="45.7993564" lon="8.6084079"><ele>212.0</ele><time>2026-05-01T14:55:50.846Z</time></trkpt><trkpt lat="45.7992654" lon="8.6082908"><ele>211.75</ele><time>2026-05-01T14:55:51.846Z</time></trkpt><trkpt lat="45.7991688" lon="8.6081727"><ele>211.5</ele><time>2026-05-01T14:55:52.845Z</time></trkpt><trkpt lat="45.7990746" lon="8.6080565"><ele>211.25</ele><time>2026-05-01T14:55:53.845Z</time></trkpt><trkpt lat="45.7989796" lon="8.6079381"><ele>211.0</ele><time>2026-05-01T14:55:54.845Z</time></trkpt><trkpt lat="45.7988845" lon="8.6078208"><ele>211.5</ele><time>2026-05-01T14:55:55.845Z</time></trkpt><trkpt lat="45.7987906" lon="8.6077"><ele>212.0</ele><time>2026-05-01T14:55:56.845Z</time></trkpt><trkpt lat="45.798697" lon="8.6075839"><ele>212.5</ele><time>2026-05-01T14:55:57.846Z</time></trkpt><trkpt lat="45.7986002" lon="8.6074664"><ele>213.0</ele><time>2026-05-01T14:55:58.845Z</time></trkpt><trkpt lat="45.7985042" lon="8.6073516"><ele>213.0</ele><time>2026-05-01T14:55:59.846Z</time></trkpt><trkpt lat="45.7984137" lon="8.6072322"><ele>213.0</ele><time>2026-05-01T14:56:00.846Z</time></trkpt><trkpt lat="45.7983341" lon="8.6071206"><ele>213.0</ele><time>2026-05-01T14:56:01.845Z</time></trkpt><trkpt lat="45.7982528" lon="8.6070131"><ele>213.0</ele><time>2026-05-01T14:56:02.846Z</time></trkpt><trkpt lat="45.7981749" lon="8.6069116"><ele>213.60000000000002</ele><time>2026-05-01T14:56:03.846Z</time></trkpt><trkpt lat="45.7981016" lon="8.6068154"><ele>214.20000000000002</ele><time>2026-05-01T14:56:04.846Z</time></trkpt><trkpt lat="45.7980247" lon="8.6067196"><ele>214.8</ele><time>2026-05-01T14:56:05.846Z</time></trkpt><trkpt lat="45.7979437" lon="8.6066205"><ele>215.4</ele><time>2026-05-01T14:56:06.846Z</time></trkpt><trkpt lat="45.7978633" lon="8.606521"><ele>216.0</ele><time>2026-05-01T14:56:07.845Z</time></trkpt><trkpt lat="45.7977833" lon="8.6064151"><ele>216.0</ele><time>2026-05-01T14:56:08.845Z</time></trkpt><trkpt lat="45.7976941" lon="8.6063154"><ele>216.00000000000003</ele><time>2026-05-01T14:56:09.846Z</time></trkpt><trkpt lat="45.797609" lon="8.6062107"><ele>216.00000000000003</ele><time>2026-05-01T14:56:10.845Z</time></trkpt><trkpt lat="45.7975292" lon="8.6061097"><ele>216.0</ele><time>2026-05-01T14:56:11.845Z</time></trkpt><trkpt lat="45.7974537" lon="8.6060163"><ele>216.0</ele><time>2026-05-01T14:56:12.846Z</time></trkpt><trkpt lat="45.7973862" lon="8.605932"><ele>215.66666666666666</ele><time>2026-05-01T14:56:13.845Z</time></trkpt><trkpt lat="45.7973254" lon="8.6058593"><ele>215.33333333333331</ele><time>2026-05-01T14:56:14.845Z</time></trkpt><trkpt lat="45.797266" lon="8.6057816"><ele>215.0</ele><time>2026-05-01T14:56:15.845Z</time></trkpt><trkpt lat="45.7972014" lon="8.6057025"><ele>214.66666666666666</ele><time>2026-05-01T14:56:16.846Z</time></trkpt><trkpt lat="45.7971312" lon="8.6056162"><ele>214.33333333333331</ele><time>2026-05-01T14:56:17.846Z</time></trkpt><trkpt lat="45.7970622" lon="8.6055249"><ele>214.0</ele><time>2026-05-01T14:56:18.845Z</time></trkpt><trkpt lat="45.7969829" lon="8.6054354"><ele>214.0</ele><time>2026-05-01T14:56:19.846Z</time></trkpt><trkpt lat="45.7968987" lon="8.6053342"><ele>214.0</ele><time>2026-05-01T14:56:20.845Z</time></trkpt><trkpt lat="45.7968095" lon="8.6052265"><ele>214.0</ele><time>2026-05-01T14:56:21.846Z</time></trkpt><trkpt lat="45.796709" lon="8.6051098"><ele>214.0</ele><time>2026-05-01T14:56:22.846Z</time></trkpt><trkpt lat="45.7966007" lon="8.6049876"><ele>213.33333333333331</ele><time>2026-05-01T14:56:23.844Z</time></trkpt><trkpt lat="45.7964797" lon="8.6048589"><ele>212.66666666666669</ele><time>2026-05-01T14:56:24.845Z</time></trkpt><trkpt lat="45.7963482" lon="8.6047349"><ele>212.0</ele><time>2026-05-01T14:56:25.844Z</time></trkpt><trkpt lat="45.7962121" lon="8.6046112"><ele>211.66666666666669</ele><time>2026-05-01T14:56:26.846Z</time></trkpt><trkpt lat="45.7960767" lon="8.6044896"><ele>211.33333333333331</ele><time>2026-05-01T14:56:27.845Z</time></trkpt><trkpt lat="45.7959482" lon="8.6043741"><ele>211.0</ele><time>2026-05-01T14:56:28.846Z</time></trkpt><trkpt lat="45.795821" lon="8.6042674"><ele>211.75</ele><time>2026-05-01T14:56:29.846Z</time></trkpt><trkpt lat="45.7956994" lon="8.6041575"><ele>212.5</ele><time>2026-05-01T14:56:30.845Z</time></trkpt><trkpt lat="45.7955741" lon="8.6040505"><ele>213.25</ele><time>2026-05-01T14:56:31.845Z</time></trkpt><trkpt lat="45.7954503" lon="8.6039454"><ele>214.0</ele><time>2026-05-01T14:56:32.845Z</time></trkpt><trkpt lat="45.795326" lon="8.6038355"><ele>214.0</ele><time>2026-05-01T14:56:33.845Z</time></trkpt><trkpt lat="45.7951986" lon="8.6037199"><ele>214.0</ele><time>2026-05-01T14:56:34.846Z</time></trkpt><trkpt lat="45.7950684" lon="8.6036036"><ele>214.0</ele><time>2026-05-01T14:56:35.846Z</time></trkpt><trkpt lat="45.7949353" lon="8.6034839"><ele>214.33333333333331</ele><time>2026-05-01T14:56:36.846Z</time></trkpt><trkpt lat="45.7947979" lon="8.6033659"><ele>214.66666666666669</ele><time>2026-05-01T14:56:37.846Z</time></trkpt><trkpt lat="45.794663" lon="8.6032493"><ele>215.0</ele><time>2026-05-01T14:56:38.845Z</time></trkpt><trkpt lat="45.7945287" lon="8.6031285"><ele>215.0</ele><time>2026-05-01T14:56:39.846Z</time></trkpt><trkpt lat="45.7943955" lon="8.603008"><ele>215.0</ele><time>2026-05-01T14:56:40.846Z</time></trkpt><trkpt lat="45.7942641" lon="8.6028878"><ele>215.0</ele><time>2026-05-01T14:56:41.846Z</time></trkpt><trkpt lat="45.7941331" lon="8.6027674"><ele>215.33333333333334</ele><time>2026-05-01T14:56:42.846Z</time></trkpt><trkpt lat="45.7939983" lon="8.6026497"><ele>215.66666666666669</ele><time>2026-05-01T14:56:43.846Z</time></trkpt><trkpt lat="45.7938637" lon="8.6025339"><ele>216.0</ele><time>2026-05-01T14:56:44.845Z</time></trkpt><trkpt lat="45.7937298" lon="8.6024135"><ele>216.0</ele><time>2026-05-01T14:56:45.845Z</time></trkpt><trkpt lat="45.7935986" lon="8.602297"><ele>216.0</ele><time>2026-05-01T14:56:46.845Z</time></trkpt><trkpt lat="45.7934745" lon="8.6021786"><ele>216.0</ele><time>2026-05-01T14:56:47.846Z</time></trkpt><trkpt lat="45.7933508" lon="8.6020654"><ele>215.5</ele><time>2026-05-01T14:56:48.846Z</time></trkpt><trkpt lat="45.7932276" lon="8.6019617"><ele>215.0</ele><time>2026-05-01T14:56:49.846Z</time></trkpt><trkpt lat="45.7931011" lon="8.6018535"><ele>214.5</ele><time>2026-05-01T14:56:50.846Z</time></trkpt><trkpt lat="45.7929768" lon="8.6017419"><ele>214.0</ele><time>2026-05-01T14:56:51.846Z</time></trkpt><trkpt lat="45.7928483" lon="8.601625"><ele>214.0</ele><time>2026-05-01T14:56:52.845Z</time></trkpt><trkpt lat="45.7927139" lon="8.6015107"><ele>214.0</ele><time>2026-05-01T14:56:53.845Z</time></trkpt><trkpt lat="45.7925836" lon="8.6013887"><ele>214.0</ele><time>2026-05-01T14:56:54.845Z</time></trkpt><trkpt lat="45.7924608" lon="8.6012519"><ele>214.66666666666666</ele><time>2026-05-01T14:56:55.845Z</time></trkpt><trkpt lat="45.7923415" lon="8.6011048"><ele>215.33333333333331</ele><time>2026-05-01T14:56:56.844Z</time></trkpt><trkpt lat="45.7922209" lon="8.6009469"><ele>216.0</ele><time>2026-05-01T14:56:57.846Z</time></trkpt><trkpt lat="45.7921089" lon="8.6007823"><ele>216.0</ele><time>2026-05-01T14:56:58.846Z</time></trkpt><trkpt lat="45.7919962" lon="8.6006141"><ele>216.0</ele><time>2026-05-01T14:56:59.845Z</time></trkpt><trkpt lat="45.79188" lon="8.6004481"><ele>216.0</ele><time>2026-05-01T14:57:00.844Z</time></trkpt><trkpt lat="45.7917668" lon="8.6002829"><ele>214.75</ele><time>2026-05-01T14:57:01.846Z</time></trkpt><trkpt lat="45.7916617" lon="8.6001294"><ele>213.5</ele><time>2026-05-01T14:57:02.845Z</time></trkpt><trkpt lat="45.7915579" lon="8.5999712"><ele>212.25</ele><time>2026-05-01T14:57:03.844Z</time></trkpt><trkpt lat="45.7914558" lon="8.5998209"><ele>211.0</ele><time>2026-05-01T14:57:04.845Z</time></trkpt><trkpt lat="45.7913587" lon="8.5996716"><ele>211.0</ele><time>2026-05-01T14:57:05.844Z</time></trkpt><trkpt lat="45.7912605" lon="8.5995231"><ele>211.0</ele><time>2026-05-01T14:57:06.845Z</time></trkpt><trkpt lat="45.7911591" lon="8.5993804"><ele>211.0</ele><time>2026-05-01T14:57:07.845Z</time></trkpt><trkpt lat="45.7910563" lon="8.5992331"><ele>211.0</ele><time>2026-05-01T14:57:08.845Z</time></trkpt><trkpt lat="45.7909544" lon="8.5990802"><ele>210.5</ele><time>2026-05-01T14:57:09.845Z</time></trkpt><trkpt lat="45.790854" lon="8.5989247"><ele>210.0</ele><time>2026-05-01T14:57:10.844Z</time></trkpt><trkpt lat="45.7907537" lon="8.5987678"><ele>209.5</ele><time>2026-05-01T14:57:11.845Z</time></trkpt><trkpt lat="45.7906503" lon="8.5986183"><ele>209.0</ele><time>2026-05-01T14:57:12.845Z</time></trkpt><trkpt lat="45.7905447" lon="8.5984663"><ele>209.0</ele><time>2026-05-01T14:57:13.845Z</time></trkpt><trkpt lat="45.7904421" lon="8.5983161"><ele>209.0</ele><time>2026-05-01T14:57:14.845Z</time></trkpt><trkpt lat="45.7903443" lon="8.5981645"><ele>209.0</ele><time>2026-05-01T14:57:15.845Z</time></trkpt><trkpt lat="45.7902391" lon="8.5980123"><ele>209.0</ele><time>2026-05-01T14:57:16.845Z</time></trkpt><trkpt lat="45.7901391" lon="8.5978588"><ele>209.33333333333334</ele><time>2026-05-01T14:57:17.845Z</time></trkpt><trkpt lat="45.7900356" lon="8.5976997"><ele>209.66666666666669</ele><time>2026-05-01T14:57:18.845Z</time></trkpt><trkpt lat="45.7899336" lon="8.5975392"><ele>210.0</ele><time>2026-05-01T14:57:19.846Z</time></trkpt><trkpt lat="45.7898255" lon="8.5973841"><ele>210.0</ele><time>2026-05-01T14:57:20.844Z</time></trkpt><trkpt lat="45.7897208" lon="8.5972278"><ele>210.0</ele><time>2026-05-01T14:57:21.846Z</time></trkpt><trkpt lat="45.7896146" lon="8.5970644"><ele>210.0</ele><time>2026-05-01T14:57:22.846Z</time></trkpt><trkpt lat="45.7895056" lon="8.5968974"><ele>210.0</ele><time>2026-05-01T14:57:23.844Z</time></trkpt><trkpt lat="45.7893973" lon="8.596734"><ele>210.0</ele><time>2026-05-01T14:57:24.846Z</time></trkpt><trkpt lat="45.7892863" lon="8.596566"><ele>210.0</ele><time>2026-05-01T14:57:25.846Z</time></trkpt><trkpt lat="45.7891756" lon="8.5964"><ele>210.0</ele><time>2026-05-01T14:57:26.846Z</time></trkpt><trkpt lat="45.7890644" lon="8.5962333"><ele>210.0</ele><time>2026-05-01T14:57:27.845Z</time></trkpt><trkpt lat="45.7889499" lon="8.5960658"><ele>210.0</ele><time>2026-05-01T14:57:28.845Z</time></trkpt><trkpt lat="45.7888366" lon="8.5958915"><ele>209.66666666666669</ele><time>2026-05-01T14:57:29.844Z</time></trkpt><trkpt lat="45.788725" lon="8.5957168"><ele>209.33333333333334</ele><time>2026-05-01T14:57:30.846Z</time></trkpt><trkpt lat="45.7886179" lon="8.5955581"><ele>209.0</ele><time>2026-05-01T14:57:31.844Z</time></trkpt><trkpt lat="45.7885135" lon="8.5953987"><ele>209.5</ele><time>2026-05-01T14:57:32.845Z</time></trkpt><trkpt lat="45.7884082" lon="8.595252"><ele>210.0</ele><time>2026-05-01T14:57:33.845Z</time></trkpt><trkpt lat="45.7882958" lon="8.5951136"><ele>210.5</ele><time>2026-05-01T14:57:34.845Z</time></trkpt><trkpt lat="45.7881818" lon="8.5949885"><ele>211.0</ele><time>2026-05-01T14:57:35.845Z</time></trkpt><trkpt lat="45.7880635" lon="8.5948797"><ele>211.0</ele><time>2026-05-01T14:57:36.846Z</time></trkpt><trkpt lat="45.7879405" lon="8.5947828"><ele>211.0</ele><time>2026-05-01T14:57:37.845Z</time></trkpt><trkpt lat="45.7878208" lon="8.5946956"><ele>211.0</ele><time>2026-05-01T14:57:38.845Z</time></trkpt><trkpt lat="45.7876917" lon="8.5946352"><ele>211.0</ele><time>2026-05-01T14:57:39.844Z</time></trkpt><trkpt lat="45.7875661" lon="8.5945752"><ele>211.5</ele><time>2026-05-01T14:57:40.845Z</time></trkpt><trkpt lat="45.7874364" lon="8.59453"><ele>212.0</ele><time>2026-05-01T14:57:41.844Z</time></trkpt><trkpt lat="45.787316" lon="8.594487"><ele>212.5</ele><time>2026-05-01T14:57:42.846Z</time></trkpt><trkpt lat="45.7871988" lon="8.5944503"><ele>213.0</ele><time>2026-05-01T14:57:43.845Z</time></trkpt><trkpt lat="45.7870868" lon="8.5944125"><ele>213.2</ele><time>2026-05-01T14:57:44.845Z</time></trkpt><trkpt lat="45.7869754" lon="8.5943829"><ele>213.4</ele><time>2026-05-01T14:57:45.845Z</time></trkpt><trkpt lat="45.7868646" lon="8.5943519"><ele>213.59999999999997</ele><time>2026-05-01T14:57:46.846Z</time></trkpt><trkpt lat="45.7867632" lon="8.5943203"><ele>213.79999999999998</ele><time>2026-05-01T14:57:47.846Z</time></trkpt><trkpt lat="45.7866742" lon="8.5942923"><ele>214.0</ele><time>2026-05-01T14:57:48.846Z</time></trkpt><trkpt lat="45.7865841" lon="8.5942724"><ele>213.99999999999997</ele><time>2026-05-01T14:57:49.846Z</time></trkpt><trkpt lat="45.7865003" lon="8.594253"><ele>214.0</ele><time>2026-05-01T14:57:50.844Z</time></trkpt><trkpt lat="45.7864162" lon="8.5942405"><ele>214.0</ele><time>2026-05-01T14:57:51.844Z</time></trkpt><trkpt lat="45.7863544" lon="8.5942029"><ele>214.0</ele><time>2026-05-01T14:57:52.846Z</time></trkpt><trkpt lat="45.7862907" lon="8.5941419"><ele>213.99999999999997</ele><time>2026-05-01T14:57:53.846Z</time></trkpt><trkpt lat="45.7862375" lon="8.5940689"><ele>214.0</ele><time>2026-05-01T14:57:54.845Z</time></trkpt><trkpt lat="45.7861803" lon="8.5940149"><ele>214.0</ele><time>2026-05-01T14:57:55.845Z</time></trkpt><trkpt lat="45.7860992" lon="8.5939978"><ele>213.99999999999997</ele><time>2026-05-01T14:57:56.844Z</time></trkpt><trkpt lat="45.7860206" lon="8.594001"><ele>213.99999999999997</ele><time>2026-05-01T14:57:57.844Z</time></trkpt><trkpt lat="45.7859249" lon="8.5940011"><ele>214.0</ele><time>2026-05-01T14:57:58.845Z</time></trkpt><trkpt lat="45.7858206" lon="8.5939769"><ele>214.0</ele><time>2026-05-01T14:57:59.845Z</time></trkpt><trkpt lat="45.7857121" lon="8.5939466"><ele>214.0</ele><time>2026-05-01T14:58:00.844Z</time></trkpt><trkpt lat="45.7855992" lon="8.5939031"><ele>214.0</ele><time>2026-05-01T14:58:01.846Z</time></trkpt><trkpt lat="45.7854803" lon="8.5938564"><ele>214.0</ele><time>2026-05-01T14:58:02.844Z</time></trkpt><trkpt lat="45.7853575" lon="8.5937906"><ele>214.0</ele><time>2026-05-01T14:58:03.845Z</time></trkpt><trkpt lat="45.7852403" lon="8.593715"><ele>214.75</ele><time>2026-05-01T14:58:04.846Z</time></trkpt><trkpt lat="45.7851279" lon="8.593621"><ele>215.5</ele><time>2026-05-01T14:58:05.845Z</time></trkpt><trkpt lat="45.7850085" lon="8.5935219"><ele>216.25</ele><time>2026-05-01T14:58:06.844Z</time></trkpt><trkpt lat="45.7848931" lon="8.5934156"><ele>217.0</ele><time>2026-05-01T14:58:07.845Z</time></trkpt><trkpt lat="45.7847756" lon="8.5933042"><ele>217.0</ele><time>2026-05-01T14:58:08.844Z</time></trkpt><trkpt lat="45.7846538" lon="8.5931962"><ele>217.0</ele><time>2026-05-01T14:58:09.844Z</time></trkpt><trkpt lat="45.784536" lon="8.5930835"><ele>217.0</ele><time>2026-05-01T14:58:10.845Z</time></trkpt><trkpt lat="45.7844136" lon="8.5929746"><ele>217.0</ele><time>2026-05-01T14:58:11.845Z</time></trkpt><trkpt lat="45.7842849" lon="8.5928655"><ele>218.25</ele><time>2026-05-01T14:58:12.845Z</time></trkpt><trkpt lat="45.7841596" lon="8.592753"><ele>219.5</ele><time>2026-05-01T14:58:13.845Z</time></trkpt><trkpt lat="45.7840374" lon="8.592648"><ele>220.75</ele><time>2026-05-01T14:58:14.845Z</time></trkpt><trkpt lat="45.783921" lon="8.5925418"><ele>222.0</ele><time>2026-05-01T14:58:15.845Z</time></trkpt><trkpt lat="45.7838084" lon="8.5924385"><ele>222.0</ele><time>2026-05-01T14:58:16.846Z</time></trkpt><trkpt lat="45.7837047" lon="8.5923426"><ele>222.0</ele><time>2026-05-01T14:58:17.845Z</time></trkpt><trkpt lat="45.7835954" lon="8.5922382"><ele>222.0</ele><time>2026-05-01T14:58:18.845Z</time></trkpt><trkpt lat="45.7834852" lon="8.5921348"><ele>222.0</ele><time>2026-05-01T14:58:19.844Z</time></trkpt><trkpt lat="45.7833765" lon="8.59203"><ele>222.5</ele><time>2026-05-01T14:58:20.846Z</time></trkpt><trkpt lat="45.7832656" lon="8.5919201"><ele>223.0</ele><time>2026-05-01T14:58:21.845Z</time></trkpt><trkpt lat="45.783159" lon="8.5917986"><ele>223.5</ele><time>2026-05-01T14:58:22.846Z</time></trkpt><trkpt lat="45.783066" lon="8.5916688"><ele>224.0</ele><time>2026-05-01T14:58:23.845Z</time></trkpt><trkpt lat="45.7829742" lon="8.5915343"><ele>224.0</ele><time>2026-05-01T14:58:24.846Z</time></trkpt><trkpt lat="45.7828855" lon="8.5914095"><ele>224.0</ele><time>2026-05-01T14:58:25.845Z</time></trkpt><trkpt lat="45.7828061" lon="8.5912915"><ele>224.0</ele><time>2026-05-01T14:58:26.846Z</time></trkpt><trkpt lat="45.7827304" lon="8.5911764"><ele>224.0</ele><time>2026-05-01T14:58:27.846Z</time></trkpt><trkpt lat="45.782659" lon="8.591066"><ele>223.79999999999998</ele><time>2026-05-01T14:58:28.844Z</time></trkpt><trkpt lat="45.7825855" lon="8.5909551"><ele>223.59999999999997</ele><time>2026-05-01T14:58:29.846Z</time></trkpt><trkpt lat="45.7825064" lon="8.5908502"><ele>223.4</ele><time>2026-05-01T14:58:30.846Z</time></trkpt><trkpt lat="45.7824269" lon="8.5907411"><ele>223.2</ele><time>2026-05-01T14:58:31.844Z</time></trkpt><trkpt lat="45.7823468" lon="8.5906269"><ele>223.0</ele><time>2026-05-01T14:58:32.846Z</time></trkpt><trkpt lat="45.7822617" lon="8.5905046"><ele>223.0</ele><time>2026-05-01T14:58:33.845Z</time></trkpt><trkpt lat="45.7821783" lon="8.5903825"><ele>223.0</ele><time>2026-05-01T14:58:34.845Z</time></trkpt><trkpt lat="45.7820941" lon="8.5902536"><ele>223.0</ele><time>2026-05-01T14:58:35.844Z</time></trkpt><trkpt lat="45.7820069" lon="8.5901202"><ele>223.0</ele><time>2026-05-01T14:58:36.845Z</time></trkpt><trkpt lat="45.7819188" lon="8.5899928"><ele>222.8</ele><time>2026-05-01T14:58:37.846Z</time></trkpt><trkpt lat="45.7818377" lon="8.5898776"><ele>222.60000000000002</ele><time>2026-05-01T14:58:38.845Z</time></trkpt><trkpt lat="45.7817585" lon="8.5897662"><ele>222.39999999999998</ele><time>2026-05-01T14:58:39.846Z</time></trkpt><trkpt lat="45.7816802" lon="8.5896533"><ele>222.2</ele><time>2026-05-01T14:58:40.845Z</time></trkpt><trkpt lat="45.7816034" lon="8.5895381"><ele>222.0</ele><time>2026-05-01T14:58:41.845Z</time></trkpt><trkpt lat="45.7815233" lon="8.5894154"><ele>222.39999999999998</ele><time>2026-05-01T14:58:42.845Z</time></trkpt><trkpt lat="45.7814494" lon="8.5893091"><ele>222.79999999999998</ele><time>2026-05-01T14:58:43.845Z</time></trkpt><trkpt lat="45.7813688" lon="8.589197"><ele>223.2</ele><time>2026-05-01T14:58:44.845Z</time></trkpt><trkpt lat="45.7812903" lon="8.5890872"><ele>223.6</ele><time>2026-05-01T14:58:45.844Z</time></trkpt><trkpt lat="45.7812101" lon="8.5889732"><ele>224.0</ele><time>2026-05-01T14:58:46.846Z</time></trkpt><trkpt lat="45.7811252" lon="8.5888498"><ele>224.0</ele><time>2026-05-01T14:58:47.843Z</time></trkpt><trkpt lat="45.7810361" lon="8.5887259"><ele>224.0</ele><time>2026-05-01T14:58:48.845Z</time></trkpt><trkpt lat="45.7809449" lon="8.5885938"><ele>224.0</ele><time>2026-05-01T14:58:49.845Z</time></trkpt><trkpt lat="45.7808504" lon="8.5884562"><ele>224.0</ele><time>2026-05-01T14:58:50.845Z</time></trkpt><trkpt lat="45.7807582" lon="8.5883183"><ele>223.75</ele><time>2026-05-01T14:58:51.846Z</time></trkpt><trkpt lat="45.7806607" lon="8.5881766"><ele>223.5</ele><time>2026-05-01T14:58:52.846Z</time></trkpt><trkpt lat="45.7805645" lon="8.5880301"><ele>223.25</ele><time>2026-05-01T14:58:53.844Z</time></trkpt><trkpt lat="45.7804732" lon="8.5878925"><ele>223.0</ele><time>2026-05-01T14:58:54.845Z</time></trkpt><trkpt lat="45.7803878" lon="8.5877722"><ele>222.75</ele><time>2026-05-01T14:58:55.846Z</time></trkpt><trkpt lat="45.780304" lon="8.5876559"><ele>222.5</ele><time>2026-05-01T14:58:56.846Z</time></trkpt><trkpt lat="45.7802224" lon="8.5875329"><ele>222.25</ele><time>2026-05-01T14:58:57.846Z</time></trkpt><trkpt lat="45.780131" lon="8.5874009"><ele>222.0</ele><time>2026-05-01T14:58:58.846Z</time></trkpt><trkpt lat="45.7800409" lon="8.5872718"><ele>222.0</ele><time>2026-05-01T14:58:59.845Z</time></trkpt><trkpt lat="45.7799449" lon="8.5871345"><ele>222.0</ele><time>2026-05-01T14:59:00.845Z</time></trkpt><trkpt lat="45.7798457" lon="8.5869959"><ele>222.0</ele><time>2026-05-01T14:59:01.845Z</time></trkpt><trkpt lat="45.7797491" lon="8.5868591"><ele>222.0</ele><time>2026-05-01T14:59:02.845Z</time></trkpt><trkpt lat="45.7796545" lon="8.5867206"><ele>222.0</ele><time>2026-05-01T14:59:03.844Z</time></trkpt><trkpt lat="45.7795569" lon="8.5865868"><ele>222.0</ele><time>2026-05-01T14:59:04.846Z</time></trkpt><trkpt lat="45.7794567" lon="8.5864535"><ele>222.0</ele><time>2026-05-01T14:59:05.845Z</time></trkpt><trkpt lat="45.779352" lon="8.5863304"><ele>222.0</ele><time>2026-05-01T14:59:06.844Z</time></trkpt><trkpt lat="45.7792402" lon="8.5862141"><ele>221.5</ele><time>2026-05-01T14:59:07.845Z</time></trkpt><trkpt lat="45.7791266" lon="8.5860944"><ele>221.0</ele><time>2026-05-01T14:59:08.845Z</time></trkpt><trkpt lat="45.7790127" lon="8.5859758"><ele>220.5</ele><time>2026-05-01T14:59:09.844Z</time></trkpt><trkpt lat="45.7788986" lon="8.5858525"><ele>220.0</ele><time>2026-05-01T14:59:10.846Z</time></trkpt><trkpt lat="45.7787836" lon="8.5857262"><ele>220.0</ele><time>2026-05-01T14:59:11.845Z</time></trkpt><trkpt lat="45.778662" lon="8.5856008"><ele>220.0</ele><time>2026-05-01T14:59:12.846Z</time></trkpt><trkpt lat="45.7785448" lon="8.5854803"><ele>220.0</ele><time>2026-05-01T14:59:13.845Z</time></trkpt><trkpt lat="45.77843" lon="8.5853601"><ele>220.0</ele><time>2026-05-01T14:59:14.844Z</time></trkpt><trkpt lat="45.778315" lon="8.5852378"><ele>220.25</ele><time>2026-05-01T14:59:15.845Z</time></trkpt><trkpt lat="45.7782018" lon="8.5851162"><ele>220.5</ele><time>2026-05-01T14:59:16.846Z</time></trkpt><trkpt lat="45.7780948" lon="8.5850132"><ele>220.75</ele><time>2026-05-01T14:59:17.845Z</time></trkpt><trkpt lat="45.7779897" lon="8.5849053"><ele>221.0</ele><time>2026-05-01T14:59:18.844Z</time></trkpt><trkpt lat="45.777893" lon="8.5848043"><ele>221.0</ele><time>2026-05-01T14:59:19.845Z</time></trkpt><trkpt lat="45.7777907" lon="8.5847052"><ele>221.0</ele><time>2026-05-01T14:59:20.845Z</time></trkpt><trkpt lat="45.7776923" lon="8.5846049"><ele>221.0</ele><time>2026-05-01T14:59:21.846Z</time></trkpt><trkpt lat="45.7775952" lon="8.5845022"><ele>221.0</ele><time>2026-05-01T14:59:22.845Z</time></trkpt><trkpt lat="45.7775006" lon="8.5844009"><ele>221.5</ele><time>2026-05-01T14:59:23.845Z</time></trkpt><trkpt lat="45.7774047" lon="8.5842933"><ele>222.0</ele><time>2026-05-01T14:59:24.844Z</time></trkpt><trkpt lat="45.7773103" lon="8.5841942"><ele>222.5</ele><time>2026-05-01T14:59:25.845Z</time></trkpt><trkpt lat="45.7772216" lon="8.5840775"><ele>223.0</ele><time>2026-05-01T14:59:26.846Z</time></trkpt><trkpt lat="45.7771192" lon="8.5839818"><ele>223.0</ele><time>2026-05-01T14:59:27.845Z</time></trkpt><trkpt lat="45.7770189" lon="8.583885"><ele>223.0</ele><time>2026-05-01T14:59:28.846Z</time></trkpt><trkpt lat="45.7769184" lon="8.5837873"><ele>223.0</ele><time>2026-05-01T14:59:29.846Z</time></trkpt><trkpt lat="45.7768147" lon="8.5837019"><ele>223.0</ele><time>2026-05-01T14:59:30.846Z</time></trkpt><trkpt lat="45.7767146" lon="8.5836201"><ele>223.5</ele><time>2026-05-01T14:59:31.844Z</time></trkpt><trkpt lat="45.7766082" lon="8.5835448"><ele>224.0</ele><time>2026-05-01T14:59:32.845Z</time></trkpt><trkpt lat="45.7764987" lon="8.583469"><ele>224.5</ele><time>2026-05-01T14:59:33.845Z</time></trkpt><trkpt lat="45.7763886" lon="8.5833965"><ele>225.0</ele><time>2026-05-01T14:59:34.845Z</time></trkpt><trkpt lat="45.7762843" lon="8.5833258"><ele>225.0</ele><time>2026-05-01T14:59:35.845Z</time></trkpt><trkpt lat="45.7761778" lon="8.5832663"><ele>225.0</ele><time>2026-05-01T14:59:36.845Z</time></trkpt><trkpt lat="45.7760789" lon="8.5832085"><ele>225.0</ele><time>2026-05-01T14:59:37.845Z</time></trkpt><trkpt lat="45.7759812" lon="8.5831464"><ele>225.0</ele><time>2026-05-01T14:59:38.845Z</time></trkpt><trkpt lat="45.7758771" lon="8.5830893"><ele>225.0</ele><time>2026-05-01T14:59:39.845Z</time></trkpt><trkpt lat="45.7757709" lon="8.5830317"><ele>224.8</ele><time>2026-05-01T14:59:40.845Z</time></trkpt><trkpt lat="45.7756686" lon="8.5829681"><ele>224.6</ele><time>2026-05-01T14:59:41.845Z</time></trkpt><trkpt lat="45.7755664" lon="8.5829044"><ele>224.39999999999998</ele><time>2026-05-01T14:59:42.845Z</time></trkpt><trkpt lat="45.7754735" lon="8.5828435"><ele>224.2</ele><time>2026-05-01T14:59:43.844Z</time></trkpt><trkpt lat="45.7753912" lon="8.5827851"><ele>224.0</ele><time>2026-05-01T14:59:44.845Z</time></trkpt><trkpt lat="45.7753128" lon="8.5827297"><ele>224.0</ele><time>2026-05-01T14:59:45.845Z</time></trkpt><trkpt lat="45.7752405" lon="8.5826788"><ele>224.0</ele><time>2026-05-01T14:59:46.844Z</time></trkpt><trkpt lat="45.7751685" lon="8.5826296"><ele>224.0</ele><time>2026-05-01T14:59:47.844Z</time></trkpt><trkpt lat="45.7751017" lon="8.5825844"><ele>224.0</ele><time>2026-05-01T14:59:48.846Z</time></trkpt><trkpt lat="45.7750348" lon="8.582544"><ele>224.0</ele><time>2026-05-01T14:59:49.845Z</time></trkpt><trkpt lat="45.7749735" lon="8.5825035"><ele>224.0</ele><time>2026-05-01T14:59:50.845Z</time></trkpt><trkpt lat="45.7749018" lon="8.5824709"><ele>224.0</ele><time>2026-05-01T14:59:51.846Z</time></trkpt><trkpt lat="45.7748389" lon="8.5824334"><ele>222.71428571428572</ele><time>2026-05-01T14:59:52.844Z</time></trkpt><trkpt lat="45.7747805" lon="8.5823947"><ele>221.42857142857144</ele><time>2026-05-01T14:59:53.845Z</time></trkpt><trkpt lat="45.7747121" lon="8.5823537"><ele>220.14285714285714</ele><time>2026-05-01T14:59:54.845Z</time></trkpt><trkpt lat="45.7746471" lon="8.5823097"><ele>218.85714285714286</ele><time>2026-05-01T14:59:55.845Z</time></trkpt><trkpt lat="45.7745827" lon="8.5822649"><ele>217.57142857142858</ele><time>2026-05-01T14:59:56.844Z</time></trkpt><trkpt lat="45.7745212" lon="8.5822287"><ele>216.28571428571428</ele><time>2026-05-01T14:59:57.845Z</time></trkpt><trkpt lat="45.774463" lon="8.5821915"><ele>215.0</ele><time>2026-05-01T14:59:58.845Z</time></trkpt><trkpt lat="45.7743982" lon="8.5821457"><ele>214.33333333333334</ele><time>2026-05-01T14:59:59.845Z</time></trkpt><trkpt lat="45.7743348" lon="8.5821061"><ele>213.66666666666669</ele><time>2026-05-01T15:00:00.845Z</time></trkpt><trkpt lat="45.7742729" lon="8.5820668"><ele>213.0</ele><time>2026-05-01T15:00:01.845Z</time></trkpt><trkpt lat="45.7741666" lon="8.5820009"><ele>212.33333333333331</ele><time>2026-05-01T15:00:03.846Z</time></trkpt><trkpt lat="45.7740681" lon="8.5819369"><ele>211.66666666666666</ele><time>2026-05-01T15:00:05.843Z</time></trkpt><trkpt lat="45.7739877" lon="8.5818938"><ele>211.0</ele><time>2026-05-01T15:00:07.845Z</time></trkpt><trkpt lat="45.7739218" lon="8.5818357"><ele>211.0</ele><time>2026-05-01T15:00:09.845Z</time></trkpt><trkpt lat="45.7738637" lon="8.5817845"><ele>211.0</ele><time>2026-05-01T15:00:11.844Z</time></trkpt><trkpt lat="45.7737928" lon="8.5817316"><ele>211.0</ele><time>2026-05-01T15:00:16.845Z</time></trkpt><trkpt lat="45.7737453" lon="8.5816692"><ele>211.0</ele><time>2026-05-01T15:00:18.844Z</time></trkpt><trkpt lat="45.7736994" lon="8.5815358"><ele>211.0</ele><time>2026-05-01T15:00:20.845Z</time></trkpt><trkpt lat="45.7736797" lon="8.5814443"><ele>211.0</ele><time>2026-05-01T15:00:21.844Z</time></trkpt><trkpt lat="45.7736686" lon="8.5813517"><ele>211.0</ele><time>2026-05-01T15:00:22.845Z</time></trkpt><trkpt lat="45.7736566" lon="8.5812628"><ele>211.4</ele><time>2026-05-01T15:00:23.845Z</time></trkpt><trkpt lat="45.7736445" lon="8.5811142"><ele>211.8</ele><time>2026-05-01T15:00:25.845Z</time></trkpt><trkpt lat="45.7736295" lon="8.5809818"><ele>212.20000000000002</ele><time>2026-05-01T15:00:27.846Z</time></trkpt><trkpt lat="45.7736217" lon="8.5808246"><ele>212.60000000000002</ele><time>2026-05-01T15:00:29.845Z</time></trkpt><trkpt lat="45.7736153" lon="8.5806445"><ele>213.0</ele><time>2026-05-01T15:00:31.845Z</time></trkpt><trkpt lat="45.7736114" lon="8.5805443"><ele>213.0</ele><time>2026-05-01T15:00:32.845Z</time></trkpt><trkpt lat="45.7736084" lon="8.5804534"><ele>213.0</ele><time>2026-05-01T15:00:33.844Z</time></trkpt><trkpt lat="45.7735972" lon="8.5803044"><ele>213.0</ele><time>2026-05-01T15:00:35.844Z</time></trkpt><trkpt lat="45.7735953" lon="8.5801816"><ele>213.0</ele><time>2026-05-01T15:00:37.843Z</time></trkpt><trkpt lat="45.7735887" lon="8.5800817"><ele>213.0</ele><time>2026-05-01T15:00:39.844Z</time></trkpt><trkpt lat="45.7735813" lon="8.5799914"><ele>213.0</ele><time>2026-05-01T15:00:41.845Z</time></trkpt><trkpt lat="45.7735756" lon="8.5799011"><ele>212.5</ele><time>2026-05-01T15:00:43.845Z</time></trkpt><trkpt lat="45.773568" lon="8.579767"><ele>212.0</ele><time>2026-05-01T15:00:46.846Z</time></trkpt><trkpt lat="45.7735636" lon="8.5796767"><ele>211.5</ele><time>2026-05-01T15:00:48.845Z</time></trkpt><trkpt lat="45.7735505" lon="8.5795794"><ele>211.0</ele><time>2026-05-01T15:00:52.845Z</time></trkpt><trkpt lat="45.773544" lon="8.5794782"><ele>210.5</ele><time>2026-05-01T15:01:01.844Z</time></trkpt><trkpt lat="45.7735372" lon="8.5793578"><ele>210.0</ele><time>2026-05-01T15:01:05.845Z</time></trkpt><trkpt lat="45.7735293" lon="8.5792441"><ele>209.83333333333334</ele><time>2026-05-01T15:01:08.846Z</time></trkpt><trkpt lat="45.7735222" lon="8.5791353"><ele>209.66666666666669</ele><time>2026-05-01T15:01:11.845Z</time></trkpt><trkpt lat="45.7734587" lon="8.5790761"><ele>209.5</ele><time>2026-05-01T15:01:14.845Z</time></trkpt><trkpt lat="45.7733977" lon="8.5790464"><ele>209.33333333333334</ele><time>2026-05-01T15:01:15.846Z</time></trkpt><trkpt lat="45.7732688" lon="8.5790234"><ele>209.16666666666669</ele><time>2026-05-01T15:01:17.845Z</time></trkpt><trkpt lat="45.7731914" lon="8.5790163"><ele>209.0</ele><time>2026-05-01T15:01:18.845Z</time></trkpt><trkpt lat="45.7731116" lon="8.5790028"><ele>208.66666666666669</ele><time>2026-05-01T15:01:19.845Z</time></trkpt><trkpt lat="45.7730323" lon="8.578985"><ele>208.33333333333334</ele><time>2026-05-01T15:01:20.845Z</time></trkpt><trkpt lat="45.7729512" lon="8.5789725"><ele>208.0</ele><time>2026-05-01T15:01:21.844Z</time></trkpt><trkpt lat="45.7728607" lon="8.5789622"><ele>207.66666666666669</ele><time>2026-05-01T15:01:22.845Z</time></trkpt><trkpt lat="45.7727885" lon="8.5789461"><ele>207.33333333333334</ele><time>2026-05-01T15:01:23.844Z</time></trkpt><trkpt lat="45.7727059" lon="8.5789319"><ele>207.0</ele><time>2026-05-01T15:01:24.845Z</time></trkpt><trkpt lat="45.7726304" lon="8.5789094"><ele>206.5</ele><time>2026-05-01T15:01:25.845Z</time></trkpt><trkpt lat="45.7725575" lon="8.5788796"><ele>206.0</ele><time>2026-05-01T15:01:26.846Z</time></trkpt><trkpt lat="45.7724966" lon="8.5788301"><ele>205.5</ele><time>2026-05-01T15:01:27.844Z</time></trkpt><trkpt lat="45.7724457" lon="8.5787762"><ele>205.0</ele><time>2026-05-01T15:01:28.845Z</time></trkpt><trkpt lat="45.7723901" lon="8.5786493"><ele>204.5</ele><time>2026-05-01T15:01:30.845Z</time></trkpt><trkpt lat="45.7723649" lon="8.5784837"><ele>204.0</ele><time>2026-05-01T15:01:32.845Z</time></trkpt><trkpt lat="45.7723575" lon="8.5783889"><ele>204.0</ele><time>2026-05-01T15:01:33.845Z</time></trkpt><trkpt lat="45.7723499" lon="8.5782842"><ele>204.0</ele><time>2026-05-01T15:01:34.845Z</time></trkpt><trkpt lat="45.772347" lon="8.5781814"><ele>204.0</ele><time>2026-05-01T15:01:35.845Z</time></trkpt><trkpt lat="45.7723412" lon="8.5780825"><ele>204.0</ele><time>2026-05-01T15:01:36.844Z</time></trkpt><trkpt lat="45.7723401" lon="8.5779212"><ele>204.0</ele><time>2026-05-01T15:01:38.844Z</time></trkpt><trkpt lat="45.7723435" lon="8.577828"><ele>204.0</ele><time>2026-05-01T15:01:39.845Z</time></trkpt><trkpt lat="45.7723328" lon="8.5777337"><ele>204.16666666666666</ele><time>2026-05-01T15:01:40.845Z</time></trkpt><trkpt lat="45.7723365" lon="8.5776309"><ele>204.33333333333331</ele><time>2026-05-01T15:01:41.845Z</time></trkpt><trkpt lat="45.7723351" lon="8.5775314"><ele>204.5</ele><time>2026-05-01T15:01:42.845Z</time></trkpt><trkpt lat="45.7723493" lon="8.5773899"><ele>204.66666666666666</ele><time>2026-05-01T15:01:44.845Z</time></trkpt><trkpt lat="45.7723501" lon="8.5772385"><ele>204.83333333333331</ele><time>2026-05-01T15:01:46.846Z</time></trkpt><trkpt lat="45.7723662" lon="8.5771147"><ele>205.0</ele><time>2026-05-01T15:01:48.845Z</time></trkpt><trkpt lat="45.7723715" lon="8.57701"><ele>204.6</ele><time>2026-05-01T15:01:50.845Z</time></trkpt><trkpt lat="45.7723576" lon="8.5768798"><ele>204.2</ele><time>2026-05-01T15:01:53.845Z</time></trkpt><trkpt lat="45.7723429" lon="8.576754"><ele>203.8</ele><time>2026-05-01T15:01:56.845Z</time></trkpt><trkpt lat="45.7723225" lon="8.5766304"><ele>203.4</ele><time>2026-05-01T15:01:59.845Z</time></trkpt><trkpt lat="45.7722936" lon="8.5765261"><ele>203.0</ele><time>2026-05-01T15:02:01.845Z</time></trkpt><trkpt lat="45.7722485" lon="8.5763738"><ele>203.0</ele><time>2026-05-01T15:02:03.845Z</time></trkpt><trkpt lat="45.7722055" lon="8.5762157"><ele>203.0</ele><time>2026-05-01T15:02:05.844Z</time></trkpt><trkpt lat="45.7721628" lon="8.5760576"><ele>203.0</ele><time>2026-05-01T15:02:07.845Z</time></trkpt><trkpt lat="45.7721048" lon="8.5758847"><ele>203.0</ele><time>2026-05-01T15:02:09.845Z</time></trkpt><trkpt lat="45.7720778" lon="8.575799"><ele>203.0</ele><time>2026-05-01T15:02:10.844Z</time></trkpt><trkpt lat="45.7720465" lon="8.5757149"><ele>203.4</ele><time>2026-05-01T15:02:11.845Z</time></trkpt><trkpt lat="45.7720216" lon="8.5756161"><ele>203.8</ele><time>2026-05-01T15:02:12.845Z</time></trkpt><trkpt lat="45.7719814" lon="8.5754554"><ele>204.2</ele><time>2026-05-01T15:02:14.844Z</time></trkpt><trkpt lat="45.7719412" lon="8.5753188"><ele>204.6</ele><time>2026-05-01T15:02:16.844Z</time></trkpt><trkpt lat="45.7719196" lon="8.575187"><ele>205.0</ele><time>2026-05-01T15:02:18.845Z</time></trkpt><trkpt lat="45.7718835" lon="8.575086"><ele>204.83333333333331</ele><time>2026-05-01T15:02:20.844Z</time></trkpt><trkpt lat="45.7718445" lon="8.5749678"><ele>204.66666666666666</ele><time>2026-05-01T15:02:22.846Z</time></trkpt><trkpt lat="45.7718136" lon="8.5748404"><ele>204.5</ele><time>2026-05-01T15:02:24.845Z</time></trkpt><trkpt lat="45.7717852" lon="8.5747556"><ele>204.33333333333331</ele><time>2026-05-01T15:02:26.844Z</time></trkpt><trkpt lat="45.7717489" lon="8.5746499"><ele>204.16666666666666</ele><time>2026-05-01T15:02:30.845Z</time></trkpt><trkpt lat="45.7717317" lon="8.5745431"><ele>204.0</ele><time>2026-05-01T15:02:49.845Z</time></trkpt><trkpt lat="45.77169" lon="8.5744193"><ele>204.0</ele><time>2026-05-01T15:02:52.845Z</time></trkpt><trkpt lat="45.7716609" lon="8.5743362"><ele>204.0</ele><time>2026-05-01T15:02:56.845Z</time></trkpt><trkpt lat="45.7716396" lon="8.5742024"><ele>204.0</ele><time>2026-05-01T15:03:06.844Z</time></trkpt><trkpt lat="45.7715953" lon="8.5740725"><ele>204.0</ele><time>2026-05-01T15:03:08.844Z</time></trkpt><trkpt lat="45.771549" lon="8.5739295"><ele>204.0</ele><time>2026-05-01T15:03:10.844Z</time></trkpt><trkpt lat="45.7715148" lon="8.5738132"><ele>204.0</ele><time>2026-05-01T15:03:12.845Z</time></trkpt><trkpt lat="45.7714882" lon="8.5737199"><ele>204.0</ele><time>2026-05-01T15:03:14.845Z</time></trkpt><trkpt lat="45.7714474" lon="8.5736117"><ele>204.0</ele><time>2026-05-01T15:03:16.844Z</time></trkpt><trkpt lat="45.7714111" lon="8.57349"><ele>204.0</ele><time>2026-05-01T15:03:18.844Z</time></trkpt><trkpt lat="45.7713704" lon="8.5734122"><ele>204.0</ele><time>2026-05-01T15:03:21.845Z</time></trkpt><trkpt lat="45.7713223" lon="8.5732916"><ele>204.0</ele><time>2026-05-01T15:03:41.845Z</time></trkpt><trkpt lat="45.7712892" lon="8.5732091"><ele>204.79999999999998</ele><time>2026-05-01T15:03:42.844Z</time></trkpt><trkpt lat="45.7712322" lon="8.5730659"><ele>205.6</ele><time>2026-05-01T15:03:44.845Z</time></trkpt><trkpt lat="45.7711636" lon="8.5729287"><ele>206.4</ele><time>2026-05-01T15:03:46.845Z</time></trkpt><trkpt lat="45.7711469" lon="8.5728383"><ele>207.2</ele><time>2026-05-01T15:03:47.844Z</time></trkpt><trkpt lat="45.7711283" lon="8.5727507"><ele>208.0</ele><time>2026-05-01T15:03:48.845Z</time></trkpt><trkpt lat="45.7710948" lon="8.5725811"><ele>208.16666666666666</ele><time>2026-05-01T15:03:50.843Z</time></trkpt><trkpt lat="45.7710566" lon="8.5724107"><ele>208.33333333333331</ele><time>2026-05-01T15:03:52.845Z</time></trkpt><trkpt lat="45.771033" lon="8.5723263"><ele>208.5</ele><time>2026-05-01T15:03:53.845Z</time></trkpt><trkpt lat="45.7710087" lon="8.5722377"><ele>208.66666666666669</ele><time>2026-05-01T15:03:54.845Z</time></trkpt><trkpt lat="45.7709886" lon="8.5721516"><ele>208.83333333333334</ele><time>2026-05-01T15:03:55.845Z</time></trkpt><trkpt lat="45.7709743" lon="8.5720579"><ele>209.0</ele><time>2026-05-01T15:03:56.845Z</time></trkpt><trkpt lat="45.7709455" lon="8.5719639"><ele>207.6</ele><time>2026-05-01T15:03:57.845Z</time></trkpt><trkpt lat="45.7709328" lon="8.5718735"><ele>206.2</ele><time>2026-05-01T15:03:58.845Z</time></trkpt><trkpt lat="45.7709213" lon="8.5717821"><ele>204.79999999999998</ele><time>2026-05-01T15:03:59.845Z</time></trkpt><trkpt lat="45.7708985" lon="8.5716199"><ele>203.39999999999998</ele><time>2026-05-01T15:04:01.844Z</time></trkpt><trkpt lat="45.7708784" lon="8.5714754"><ele>202.0</ele><time>2026-05-01T15:04:03.845Z</time></trkpt><trkpt lat="45.7708542" lon="8.5713184"><ele>201.99999999999997</ele><time>2026-05-01T15:04:05.845Z</time></trkpt><trkpt lat="45.7708433" lon="8.5712045"><ele>202.0</ele><time>2026-05-01T15:04:07.845Z</time></trkpt><trkpt lat="45.7708345" lon="8.5711131"><ele>202.0</ele><time>2026-05-01T15:04:09.845Z</time></trkpt><trkpt lat="45.7708317" lon="8.5710206"><ele>202.0</ele><time>2026-05-01T15:04:12.845Z</time></trkpt><trkpt lat="45.7708238" lon="8.570886"><ele>201.99999999999997</ele><time>2026-05-01T15:04:15.842Z</time></trkpt><trkpt lat="45.7708143" lon="8.5707716"><ele>202.0</ele><time>2026-05-01T15:04:18.845Z</time></trkpt><trkpt lat="45.7708114" lon="8.5706631"><ele>202.0</ele><time>2026-05-01T15:04:22.844Z</time></trkpt><trkpt lat="45.770796" lon="8.5705109"><ele>202.0</ele><time>2026-05-01T15:04:28.845Z</time></trkpt><trkpt lat="45.7707913" lon="8.5703929"><ele>202.0</ele><time>2026-05-01T15:04:30.844Z</time></trkpt><trkpt lat="45.7707917" lon="8.570285"><ele>202.0</ele><time>2026-05-01T15:04:32.845Z</time></trkpt><trkpt lat="45.7707988" lon="8.5701392"><ele>202.0</ele><time>2026-05-01T15:04:34.845Z</time></trkpt><trkpt lat="45.7708175" lon="8.5699912"><ele>202.0</ele><time>2026-05-01T15:04:36.845Z</time></trkpt><trkpt lat="45.7708509" lon="8.5698581"><ele>202.0</ele><time>2026-05-01T15:04:38.845Z</time></trkpt><trkpt lat="45.7709095" lon="8.5697208"><ele>202.0</ele><time>2026-05-01T15:04:40.843Z</time></trkpt><trkpt lat="45.7710004" lon="8.5696021"><ele>202.0</ele><time>2026-05-01T15:04:42.845Z</time></trkpt><trkpt lat="45.771098" lon="8.5695204"><ele>202.0</ele><time>2026-05-01T15:04:44.845Z</time></trkpt><trkpt lat="45.7712023" lon="8.5694406"><ele>202.0</ele><time>2026-05-01T15:04:46.845Z</time></trkpt><trkpt lat="45.7712969" lon="8.5693718"><ele>202.0</ele><time>2026-05-01T15:04:48.844Z</time></trkpt><trkpt lat="45.771371" lon="8.569314"><ele>202.0</ele><time>2026-05-01T15:04:50.845Z</time></trkpt><trkpt lat="45.7714727" lon="8.5692354"><ele>202.0</ele><time>2026-05-01T15:04:52.845Z</time></trkpt><trkpt lat="45.7715647" lon="8.5691619"><ele>202.0</ele><time>2026-05-01T15:04:54.845Z</time></trkpt><trkpt lat="45.7716423" lon="8.5691141"><ele>202.0</ele><time>2026-05-01T15:04:56.845Z</time></trkpt><trkpt lat="45.7717286" lon="8.5690561"><ele>202.0</ele><time>2026-05-01T15:04:58.845Z</time></trkpt><trkpt lat="45.7718082" lon="8.5689993"><ele>202.0</ele><time>2026-05-01T15:05:00.844Z</time></trkpt><trkpt lat="45.7718805" lon="8.5689505"><ele>202.0</ele><time>2026-05-01T15:05:02.844Z</time></trkpt><trkpt lat="45.7719519" lon="8.5688941"><ele>202.0</ele><time>2026-05-01T15:05:04.845Z</time></trkpt><trkpt lat="45.7720442" lon="8.5688172"><ele>202.2</ele><time>2026-05-01T15:05:06.844Z</time></trkpt><trkpt lat="45.7721205" lon="8.568763"><ele>202.39999999999998</ele><time>2026-05-01T15:05:08.844Z</time></trkpt><trkpt lat="45.7721892" lon="8.568712"><ele>202.60000000000002</ele><time>2026-05-01T15:05:10.844Z</time></trkpt><trkpt lat="45.7722886" lon="8.5686389"><ele>202.8</ele><time>2026-05-01T15:05:12.845Z</time></trkpt><trkpt lat="45.7723753" lon="8.5685821"><ele>203.0</ele><time>2026-05-01T15:05:14.844Z</time></trkpt><trkpt lat="45.7724608" lon="8.5685219"><ele>202.83333333333334</ele><time>2026-05-01T15:05:16.844Z</time></trkpt><trkpt lat="45.7725459" lon="8.5684631"><ele>202.66666666666669</ele><time>2026-05-01T15:05:18.845Z</time></trkpt><trkpt lat="45.7726212" lon="8.5684028"><ele>202.5</ele><time>2026-05-01T15:05:20.844Z</time></trkpt><trkpt lat="45.7726898" lon="8.5683508"><ele>202.33333333333331</ele><time>2026-05-01T15:05:22.844Z</time></trkpt><trkpt lat="45.7727659" lon="8.5683051"><ele>202.16666666666666</ele><time>2026-05-01T15:05:24.845Z</time></trkpt><trkpt lat="45.7728651" lon="8.5682517"><ele>202.0</ele><time>2026-05-01T15:05:26.844Z</time></trkpt><trkpt lat="45.7729445" lon="8.5682256"><ele>201.99999999999997</ele><time>2026-05-01T15:05:28.845Z</time></trkpt><trkpt lat="45.7730155" lon="8.5682077"><ele>202.0</ele><time>2026-05-01T15:05:30.845Z</time></trkpt><trkpt lat="45.7730869" lon="8.5682055"><ele>202.0</ele><time>2026-05-01T15:05:32.845Z</time></trkpt><trkpt lat="45.7731622" lon="8.5681936"><ele>202.0</ele><time>2026-05-01T15:05:34.844Z</time></trkpt><trkpt lat="45.7732386" lon="8.5681741"><ele>201.99999999999997</ele><time>2026-05-01T15:05:36.845Z</time></trkpt><trkpt lat="45.7733153" lon="8.5681499"><ele>202.0</ele><time>2026-05-01T15:05:38.844Z</time></trkpt><trkpt lat="45.7733895" lon="8.5681371"><ele>202.0</ele><time>2026-05-01T15:05:40.844Z</time></trkpt><trkpt lat="45.7734703" lon="8.5681231"><ele>202.0</ele><time>2026-05-01T15:05:42.844Z</time></trkpt><trkpt lat="45.7735823" lon="8.568082"><ele>202.0</ele><time>2026-05-01T15:05:44.844Z</time></trkpt><trkpt lat="45.7736927" lon="8.5680508"><ele>202.0</ele><time>2026-05-01T15:05:46.845Z</time></trkpt><trkpt lat="45.7737737" lon="8.5680427"><ele>202.0</ele><time>2026-05-01T15:05:48.844Z</time></trkpt><trkpt lat="45.7738529" lon="8.5680443"><ele>202.83333333333331</ele><time>2026-05-01T15:05:50.845Z</time></trkpt><trkpt lat="45.7739354" lon="8.5680416"><ele>203.66666666666666</ele><time>2026-05-01T15:05:53.844Z</time></trkpt><trkpt lat="45.7740069" lon="8.5680396"><ele>204.5</ele><time>2026-05-01T15:05:56.845Z</time></trkpt><trkpt lat="45.7741025" lon="8.5680333"><ele>205.33333333333331</ele><time>2026-05-01T15:05:59.845Z</time></trkpt><trkpt lat="45.7741711" lon="8.5680211"><ele>206.16666666666666</ele><time>2026-05-01T15:06:01.844Z</time></trkpt><trkpt lat="45.7742625" lon="8.5680082"><ele>207.0</ele><time>2026-05-01T15:06:03.844Z</time></trkpt><trkpt lat="45.7743343" lon="8.5679852"><ele>206.6</ele><time>2026-05-01T15:06:14.845Z</time></trkpt><trkpt lat="45.7744093" lon="8.5679541"><ele>206.2</ele><time>2026-05-01T15:06:16.845Z</time></trkpt><trkpt lat="45.7745211" lon="8.5678658"><ele>205.8</ele><time>2026-05-01T15:06:18.845Z</time></trkpt><trkpt lat="45.7745957" lon="8.5678173"><ele>205.4</ele><time>2026-05-01T15:06:19.843Z</time></trkpt><trkpt lat="45.7746767" lon="8.5677535"><ele>205.0</ele><time>2026-05-01T15:06:20.845Z</time></trkpt><trkpt lat="45.7747506" lon="8.5676917"><ele>205.0</ele><time>2026-05-01T15:06:21.844Z</time></trkpt><trkpt lat="45.77483" lon="8.5676178"><ele>205.0</ele><time>2026-05-01T15:06:22.844Z</time></trkpt><trkpt lat="45.7749075" lon="8.5675378"><ele>205.0</ele><time>2026-05-01T15:06:23.845Z</time></trkpt><trkpt lat="45.7749706" lon="8.5674612"><ele>205.0</ele><time>2026-05-01T15:06:24.845Z</time></trkpt><trkpt lat="45.7750337" lon="8.5673846"><ele>205.0</ele><time>2026-05-01T15:06:25.845Z</time></trkpt><trkpt lat="45.7751421" lon="8.5672619"><ele>204.49999999999997</ele><time>2026-05-01T15:06:27.844Z</time></trkpt><trkpt lat="45.7752027" lon="8.567186"><ele>204.0</ele><time>2026-05-01T15:06:28.845Z</time></trkpt><trkpt lat="45.7752704" lon="8.5671073"><ele>203.5</ele><time>2026-05-01T15:06:29.843Z</time></trkpt><trkpt lat="45.7753378" lon="8.5670333"><ele>203.0</ele><time>2026-05-01T15:06:30.843Z</time></trkpt><trkpt lat="45.7753962" lon="8.5669664"><ele>202.49999999999997</ele><time>2026-05-01T15:06:31.845Z</time></trkpt><trkpt lat="45.7754559" lon="8.566907"><ele>202.0</ele><time>2026-05-01T15:06:32.845Z</time></trkpt><trkpt lat="45.7755305" lon="8.5668578"><ele>202.0</ele><time>2026-05-01T15:06:33.845Z</time></trkpt><trkpt lat="45.7756083" lon="8.5668132"><ele>202.0</ele><time>2026-05-01T15:06:34.845Z</time></trkpt><trkpt lat="45.7756922" lon="8.5667833"><ele>202.0</ele><time>2026-05-01T15:06:35.844Z</time></trkpt><trkpt lat="45.7757958" lon="8.5667502"><ele>202.0</ele><time>2026-05-01T15:06:36.843Z</time></trkpt><trkpt lat="45.7758921" lon="8.5667177"><ele>202.0</ele><time>2026-05-01T15:06:37.844Z</time></trkpt><trkpt lat="45.775979" lon="8.5666912"><ele>203.66666666666666</ele><time>2026-05-01T15:06:38.845Z</time></trkpt><trkpt lat="45.7760656" lon="8.566658"><ele>205.33333333333331</ele><time>2026-05-01T15:06:39.844Z</time></trkpt><trkpt lat="45.7761489" lon="8.5666103"><ele>207.0</ele><time>2026-05-01T15:06:40.844Z</time></trkpt><trkpt lat="45.7762325" lon="8.5665537"><ele>208.66666666666669</ele><time>2026-05-01T15:06:41.844Z</time></trkpt><trkpt lat="45.7763045" lon="8.5664879"><ele>210.33333333333334</ele><time>2026-05-01T15:06:42.845Z</time></trkpt><trkpt lat="45.7763644" lon="8.5664273"><ele>212.0</ele><time>2026-05-01T15:06:43.844Z</time></trkpt><trkpt lat="45.7764284" lon="8.5663592"><ele>212.00000000000003</ele><time>2026-05-01T15:06:44.845Z</time></trkpt><trkpt lat="45.7764976" lon="8.5662936"><ele>212.0</ele><time>2026-05-01T15:06:45.845Z</time></trkpt><trkpt lat="45.7765617" lon="8.5662321"><ele>212.0</ele><time>2026-05-01T15:06:46.844Z</time></trkpt><trkpt lat="45.7766144" lon="8.5661788"><ele>212.0</ele><time>2026-05-01T15:06:47.844Z</time></trkpt><trkpt lat="45.7767" lon="8.566093"><ele>212.00000000000003</ele><time>2026-05-01T15:06:49.845Z</time></trkpt><trkpt lat="45.7767664" lon="8.5660183"><ele>212.0</ele><time>2026-05-01T15:06:52.844Z</time></trkpt><trkpt lat="45.7768365" lon="8.5659622"><ele>211.6</ele><time>2026-05-01T15:07:06.845Z</time></trkpt><trkpt lat="45.7769193" lon="8.5659013"><ele>211.2</ele><time>2026-05-01T15:07:10.844Z</time></trkpt><trkpt lat="45.7770144" lon="8.565834"><ele>210.8</ele><time>2026-05-01T15:07:12.844Z</time></trkpt><trkpt lat="45.7770916" lon="8.5657702"><ele>210.4</ele><time>2026-05-01T15:07:14.844Z</time></trkpt><trkpt lat="45.7771838" lon="8.5657243"><ele>210.0</ele><time>2026-05-01T15:07:17.844Z</time></trkpt><trkpt lat="45.7772935" lon="8.5656127"><ele>210.0</ele><time>2026-05-01T15:07:19.845Z</time></trkpt><trkpt lat="45.7773487" lon="8.5655614"><ele>210.0</ele><time>2026-05-01T15:07:20.845Z</time></trkpt><trkpt lat="45.7774369" lon="8.5654647"><ele>210.0</ele><time>2026-05-01T15:07:22.844Z</time></trkpt><trkpt lat="45.7775331" lon="8.5653774"><ele>210.0</ele><time>2026-05-01T15:07:24.844Z</time></trkpt><trkpt lat="45.777596" lon="8.5653215"><ele>210.0</ele><time>2026-05-01T15:07:25.845Z</time></trkpt><trkpt lat="45.7776636" lon="8.5652627"><ele>210.0</ele><time>2026-05-01T15:07:26.845Z</time></trkpt><trkpt lat="45.7777397" lon="8.5652081"><ele>211.0</ele><time>2026-05-01T15:07:27.844Z</time></trkpt><trkpt lat="45.7778116" lon="8.5651467"><ele>212.0</ele><time>2026-05-01T15:07:28.845Z</time></trkpt><trkpt lat="45.7778818" lon="8.5650848"><ele>213.0</ele><time>2026-05-01T15:07:29.844Z</time></trkpt><trkpt lat="45.7779535" lon="8.5650167"><ele>214.0</ele><time>2026-05-01T15:07:30.844Z</time></trkpt><trkpt lat="45.778035" lon="8.564935"><ele>215.0</ele><time>2026-05-01T15:07:31.845Z</time></trkpt><trkpt lat="45.7781181" lon="8.5648404"><ele>215.0</ele><time>2026-05-01T15:07:32.845Z</time></trkpt><trkpt lat="45.7781961" lon="8.5647487"><ele>215.0</ele><time>2026-05-01T15:07:33.845Z</time></trkpt><trkpt lat="45.7782744" lon="8.5646541"><ele>215.0</ele><time>2026-05-01T15:07:34.845Z</time></trkpt><trkpt lat="45.7783513" lon="8.5645553"><ele>215.0</ele><time>2026-05-01T15:07:35.844Z</time></trkpt><trkpt lat="45.778431" lon="8.564465"><ele>215.0</ele><time>2026-05-01T15:07:36.844Z</time></trkpt><trkpt lat="45.7785145" lon="8.5643819"><ele>214.8</ele><time>2026-05-01T15:07:37.844Z</time></trkpt><trkpt lat="45.778606" lon="8.564322"><ele>214.6</ele><time>2026-05-01T15:07:38.844Z</time></trkpt><trkpt lat="45.7787" lon="8.5642733"><ele>214.39999999999998</ele><time>2026-05-01T15:07:39.844Z</time></trkpt><trkpt lat="45.7787909" lon="8.564232"><ele>214.2</ele><time>2026-05-01T15:07:40.845Z</time></trkpt><trkpt lat="45.778885" lon="8.5641976"><ele>214.0</ele><time>2026-05-01T15:07:41.844Z</time></trkpt><trkpt lat="45.7789902" lon="8.5641687"><ele>214.0</ele><time>2026-05-01T15:07:42.844Z</time></trkpt><trkpt lat="45.779103" lon="8.5641495"><ele>214.0</ele><time>2026-05-01T15:07:43.844Z</time></trkpt><trkpt lat="45.7792199" lon="8.5641347"><ele>214.0</ele><time>2026-05-01T15:07:44.844Z</time></trkpt><trkpt lat="45.7793352" lon="8.5641141"><ele>214.0</ele><time>2026-05-01T15:07:45.845Z</time></trkpt><trkpt lat="45.7794469" lon="8.5641006"><ele>213.79999999999998</ele><time>2026-05-01T15:07:46.845Z</time></trkpt><trkpt lat="45.7795549" lon="8.5640795"><ele>213.59999999999997</ele><time>2026-05-01T15:07:47.845Z</time></trkpt><trkpt lat="45.7796597" lon="8.5640636"><ele>213.4</ele><time>2026-05-01T15:07:48.843Z</time></trkpt><trkpt lat="45.7797708" lon="8.5640598"><ele>213.2</ele><time>2026-05-01T15:07:49.845Z</time></trkpt><trkpt lat="45.779887" lon="8.5640739"><ele>213.0</ele><time>2026-05-01T15:07:50.844Z</time></trkpt><trkpt lat="45.7800048" lon="8.5641084"><ele>213.0</ele><time>2026-05-01T15:07:51.843Z</time></trkpt><trkpt lat="45.7801233" lon="8.5641435"><ele>213.0</ele><time>2026-05-01T15:07:52.845Z</time></trkpt><trkpt lat="45.7802431" lon="8.564183"><ele>213.0</ele><time>2026-05-01T15:07:53.845Z</time></trkpt><trkpt lat="45.7803546" lon="8.5642198"><ele>213.0</ele><time>2026-05-01T15:07:54.844Z</time></trkpt><trkpt lat="45.7804629" lon="8.5642499"><ele>211.2</ele><time>2026-05-01T15:07:55.845Z</time></trkpt><trkpt lat="45.7805692" lon="8.5642788"><ele>209.4</ele><time>2026-05-01T15:07:56.843Z</time></trkpt><trkpt lat="45.7806782" lon="8.5643135"><ele>207.6</ele><time>2026-05-01T15:07:57.845Z</time></trkpt><trkpt lat="45.7807885" lon="8.5643497"><ele>205.79999999999998</ele><time>2026-05-01T15:07:58.844Z</time></trkpt><trkpt lat="45.7808964" lon="8.5643865"><ele>204.0</ele><time>2026-05-01T15:07:59.845Z</time></trkpt><trkpt lat="45.7810027" lon="8.5644236"><ele>202.75</ele><time>2026-05-01T15:08:00.845Z</time></trkpt><trkpt lat="45.7811134" lon="8.5644537"><ele>201.5</ele><time>2026-05-01T15:08:01.845Z</time></trkpt><trkpt lat="45.7812299" lon="8.5644904"><ele>200.25</ele><time>2026-05-01T15:08:02.845Z</time></trkpt><trkpt lat="45.7813534" lon="8.5645183"><ele>199.0</ele><time>2026-05-01T15:08:03.844Z</time></trkpt><trkpt lat="45.7814797" lon="8.5645476"><ele>201.5</ele><time>2026-05-01T15:08:04.845Z</time></trkpt><trkpt lat="45.7816068" lon="8.5645705"><ele>204.0</ele><time>2026-05-01T15:08:05.844Z</time></trkpt><trkpt lat="45.7817397" lon="8.5645656"><ele>206.5</ele><time>2026-05-01T15:08:06.844Z</time></trkpt><trkpt lat="45.7818685" lon="8.5645619"><ele>209.0</ele><time>2026-05-01T15:08:07.845Z</time></trkpt><trkpt lat="45.7819905" lon="8.5645611"><ele>209.0</ele><time>2026-05-01T15:08:08.844Z</time></trkpt><trkpt lat="45.7821071" lon="8.5645752"><ele>209.0</ele><time>2026-05-01T15:08:09.844Z</time></trkpt><trkpt lat="45.782232" lon="8.5646133"><ele>209.0</ele><time>2026-05-01T15:08:10.844Z</time></trkpt><trkpt lat="45.7823563" lon="8.5646487"><ele>209.0</ele><time>2026-05-01T15:08:11.845Z</time></trkpt><trkpt lat="45.782486" lon="8.5646855"><ele>209.0</ele><time>2026-05-01T15:08:12.844Z</time></trkpt><trkpt lat="45.7826158" lon="8.5647205"><ele>209.0</ele><time>2026-05-01T15:08:13.845Z</time></trkpt><trkpt lat="45.7827495" lon="8.5647597"><ele>209.0</ele><time>2026-05-01T15:08:14.844Z</time></trkpt><trkpt lat="45.7828788" lon="8.5647946"><ele>209.0</ele><time>2026-05-01T15:08:15.844Z</time></trkpt><trkpt lat="45.7830084" lon="8.5648283"><ele>207.25</ele><time>2026-05-01T15:08:16.845Z</time></trkpt><trkpt lat="45.7831286" lon="8.5648628"><ele>205.5</ele><time>2026-05-01T15:08:17.845Z</time></trkpt><trkpt lat="45.7832463" lon="8.5648952"><ele>203.75</ele><time>2026-05-01T15:08:18.844Z</time></trkpt><trkpt lat="45.7833639" lon="8.5649352"><ele>202.0</ele><time>2026-05-01T15:08:19.845Z</time></trkpt><trkpt lat="45.7834671" lon="8.5649528"><ele>202.6</ele><time>2026-05-01T15:08:20.844Z</time></trkpt><trkpt lat="45.7835652" lon="8.564936"><ele>203.2</ele><time>2026-05-01T15:08:21.845Z</time></trkpt><trkpt lat="45.7836664" lon="8.5649069"><ele>203.8</ele><time>2026-05-01T15:08:22.843Z</time></trkpt><trkpt lat="45.7837739" lon="8.5648686"><ele>204.4</ele><time>2026-05-01T15:08:23.845Z</time></trkpt><trkpt lat="45.7838884" lon="8.5648108"><ele>205.0</ele><time>2026-05-01T15:08:24.844Z</time></trkpt><trkpt lat="45.7840061" lon="8.5647473"><ele>205.0</ele><time>2026-05-01T15:08:25.844Z</time></trkpt><trkpt lat="45.7841201" lon="8.5646899"><ele>205.0</ele><time>2026-05-01T15:08:26.844Z</time></trkpt><trkpt lat="45.784224" lon="8.564631"><ele>205.0</ele><time>2026-05-01T15:08:27.845Z</time></trkpt><trkpt lat="45.7843229" lon="8.564576"><ele>205.0</ele><time>2026-05-01T15:08:28.844Z</time></trkpt><trkpt lat="45.7844244" lon="8.5645218"><ele>205.0</ele><time>2026-05-01T15:08:29.845Z</time></trkpt><trkpt lat="45.7845323" lon="8.5644736"><ele>203.2</ele><time>2026-05-01T15:08:30.844Z</time></trkpt><trkpt lat="45.7846429" lon="8.564434"><ele>201.4</ele><time>2026-05-01T15:08:31.844Z</time></trkpt><trkpt lat="45.7847573" lon="8.5644155"><ele>199.60000000000002</ele><time>2026-05-01T15:08:32.845Z</time></trkpt><trkpt lat="45.7848666" lon="8.5644063"><ele>197.8</ele><time>2026-05-01T15:08:33.845Z</time></trkpt><trkpt lat="45.7849735" lon="8.564398"><ele>196.0</ele><time>2026-05-01T15:08:34.843Z</time></trkpt><trkpt lat="45.7850782" lon="8.5643992"><ele>196.0</ele><time>2026-05-01T15:08:35.844Z</time></trkpt><trkpt lat="45.7851882" lon="8.5644264"><ele>196.0</ele><time>2026-05-01T15:08:36.845Z</time></trkpt><trkpt lat="45.7852996" lon="8.5644697"><ele>196.0</ele><time>2026-05-01T15:08:37.844Z</time></trkpt><trkpt lat="45.7854114" lon="8.5645193"><ele>196.0</ele><time>2026-05-01T15:08:38.845Z</time></trkpt><trkpt lat="45.7855215" lon="8.5645737"><ele>199.25</ele><time>2026-05-01T15:08:39.844Z</time></trkpt><trkpt lat="45.7856382" lon="8.5646404"><ele>202.5</ele><time>2026-05-01T15:08:40.844Z</time></trkpt><trkpt lat="45.7857607" lon="8.564708"><ele>205.75</ele><time>2026-05-01T15:08:41.845Z</time></trkpt><trkpt lat="45.7858851" lon="8.5647727"><ele>209.0</ele><time>2026-05-01T15:08:42.843Z</time></trkpt><trkpt lat="45.7860086" lon="8.564843"><ele>207.0</ele><time>2026-05-01T15:08:43.845Z</time></trkpt><trkpt lat="45.786132" lon="8.5649071"><ele>205.0</ele><time>2026-05-01T15:08:44.845Z</time></trkpt><trkpt lat="45.7862486" lon="8.5649726"><ele>203.0</ele><time>2026-05-01T15:08:45.844Z</time></trkpt><trkpt lat="45.7863703" lon="8.565038"><ele>201.0</ele><time>2026-05-01T15:08:46.844Z</time></trkpt><trkpt lat="45.7864936" lon="8.5650994"><ele>201.0</ele><time>2026-05-01T15:08:47.844Z</time></trkpt><trkpt lat="45.7866146" lon="8.5651714"><ele>201.0</ele><time>2026-05-01T15:08:48.845Z</time></trkpt><trkpt lat="45.7867377" lon="8.5652461"><ele>201.0</ele><time>2026-05-01T15:08:49.844Z</time></trkpt><trkpt lat="45.78686" lon="8.5653214"><ele>201.0</ele><time>2026-05-01T15:08:50.843Z</time></trkpt><trkpt lat="45.7869756" lon="8.565406"><ele>201.5</ele><time>2026-05-01T15:08:51.844Z</time></trkpt><trkpt lat="45.7870883" lon="8.5654907"><ele>202.0</ele><time>2026-05-01T15:08:52.844Z</time></trkpt><trkpt lat="45.7871988" lon="8.5655793"><ele>202.5</ele><time>2026-05-01T15:08:53.845Z</time></trkpt><trkpt lat="45.7873047" lon="8.5656694"><ele>203.0</ele><time>2026-05-01T15:08:54.845Z</time></trkpt><trkpt lat="45.7874078" lon="8.5657456"><ele>203.0</ele><time>2026-05-01T15:08:55.844Z</time></trkpt><trkpt lat="45.7875107" lon="8.5658256"><ele>203.0</ele><time>2026-05-01T15:08:56.843Z</time></trkpt><trkpt lat="45.7876143" lon="8.5659012"><ele>203.0</ele><time>2026-05-01T15:08:57.844Z</time></trkpt><trkpt lat="45.7877202" lon="8.5659665"><ele>203.0</ele><time>2026-05-01T15:08:58.845Z</time></trkpt><trkpt lat="45.7878257" lon="8.566027"><ele>202.5</ele><time>2026-05-01T15:08:59.843Z</time></trkpt><trkpt lat="45.7879292" lon="8.5660811"><ele>202.0</ele><time>2026-05-01T15:09:00.844Z</time></trkpt><trkpt lat="45.7880353" lon="8.5661255"><ele>201.5</ele><time>2026-05-01T15:09:01.844Z</time></trkpt><trkpt lat="45.7881489" lon="8.5661646"><ele>201.0</ele><time>2026-05-01T15:09:02.844Z</time></trkpt><trkpt lat="45.78827" lon="8.5661884"><ele>202.5</ele><time>2026-05-01T15:09:03.844Z</time></trkpt><trkpt lat="45.7883951" lon="8.566206"><ele>204.0</ele><time>2026-05-01T15:09:04.844Z</time></trkpt><trkpt lat="45.788523" lon="8.5662153"><ele>205.5</ele><time>2026-05-01T15:09:05.844Z</time></trkpt><trkpt lat="45.7886505" lon="8.5662278"><ele>207.0</ele><time>2026-05-01T15:09:06.844Z</time></trkpt><trkpt lat="45.7887645" lon="8.566243"><ele>207.0</ele><time>2026-05-01T15:09:07.844Z</time></trkpt><trkpt lat="45.7888714" lon="8.5662732"><ele>207.0</ele><time>2026-05-01T15:09:08.844Z</time></trkpt><trkpt lat="45.7889835" lon="8.5663247"><ele>207.0</ele><time>2026-05-01T15:09:09.844Z</time></trkpt><trkpt lat="45.7890872" lon="8.566392"><ele>207.0</ele><time>2026-05-01T15:09:10.844Z</time></trkpt><trkpt lat="45.7891962" lon="8.5664698"><ele>207.0</ele><time>2026-05-01T15:09:11.844Z</time></trkpt><trkpt lat="45.7893069" lon="8.5665451"><ele>207.0</ele><time>2026-05-01T15:09:12.843Z</time></trkpt><trkpt lat="45.789421" lon="8.5666266"><ele>207.0</ele><time>2026-05-01T15:09:13.844Z</time></trkpt><trkpt lat="45.7895365" lon="8.5666987"><ele>207.0</ele><time>2026-05-01T15:09:14.843Z</time></trkpt><trkpt lat="45.7896518" lon="8.5667744"><ele>205.0</ele><time>2026-05-01T15:09:15.844Z</time></trkpt><trkpt lat="45.789772" lon="8.566836"><ele>203.0</ele><time>2026-05-01T15:09:16.845Z</time></trkpt><trkpt lat="45.7898821" lon="8.5668814"><ele>201.0</ele><time>2026-05-01T15:09:17.845Z</time></trkpt><trkpt lat="45.7899966" lon="8.5669215"><ele>199.0</ele><time>2026-05-01T15:09:18.844Z</time></trkpt><trkpt lat="45.7901104" lon="8.566965"><ele>198.25</ele><time>2026-05-01T15:09:19.843Z</time></trkpt><trkpt lat="45.7902248" lon="8.5670047"><ele>197.5</ele><time>2026-05-01T15:09:20.845Z</time></trkpt><trkpt lat="45.7903396" lon="8.5670502"><ele>196.75</ele><time>2026-05-01T15:09:21.845Z</time></trkpt><trkpt lat="45.7904548" lon="8.5670931"><ele>196.0</ele><time>2026-05-01T15:09:22.844Z</time></trkpt><trkpt lat="45.790573" lon="8.5671368"><ele>198.25</ele><time>2026-05-01T15:09:23.842Z</time></trkpt><trkpt lat="45.7906907" lon="8.5671812"><ele>200.5</ele><time>2026-05-01T15:09:24.844Z</time></trkpt><trkpt lat="45.7908064" lon="8.5672202"><ele>202.75</ele><time>2026-05-01T15:09:25.844Z</time></trkpt><trkpt lat="45.7909129" lon="8.5672504"><ele>205.0</ele><time>2026-05-01T15:09:26.844Z</time></trkpt><trkpt lat="45.7910178" lon="8.5672774"><ele>205.0</ele><time>2026-05-01T15:09:27.845Z</time></trkpt><trkpt lat="45.7911253" lon="8.5673"><ele>205.0</ele><time>2026-05-01T15:09:28.845Z</time></trkpt><trkpt lat="45.7912303" lon="8.567316"><ele>205.0</ele><time>2026-05-01T15:09:29.845Z</time></trkpt><trkpt lat="45.7913334" lon="8.5673345"><ele>205.0</ele><time>2026-05-01T15:09:30.844Z</time></trkpt><trkpt lat="45.7914327" lon="8.5673491"><ele>205.0</ele><time>2026-05-01T15:09:31.844Z</time></trkpt><trkpt lat="45.7915269" lon="8.567355"><ele>205.0</ele><time>2026-05-01T15:09:32.844Z</time></trkpt><trkpt lat="45.7916115" lon="8.5673645"><ele>205.0</ele><time>2026-05-01T15:09:33.844Z</time></trkpt><trkpt lat="45.7917002" lon="8.5673851"><ele>205.0</ele><time>2026-05-01T15:09:34.842Z</time></trkpt><trkpt lat="45.7917873" lon="8.5674164"><ele>205.0</ele><time>2026-05-01T15:09:35.845Z</time></trkpt><trkpt lat="45.7918788" lon="8.5674578"><ele>205.0</ele><time>2026-05-01T15:09:36.845Z</time></trkpt><trkpt lat="45.7919665" lon="8.5675257"><ele>204.0</ele><time>2026-05-01T15:09:37.844Z</time></trkpt><trkpt lat="45.7920571" lon="8.5676076"><ele>203.0</ele><time>2026-05-01T15:09:38.843Z</time></trkpt><trkpt lat="45.7921533" lon="8.5677044"><ele>202.0</ele><time>2026-05-01T15:09:39.843Z</time></trkpt><trkpt lat="45.7922531" lon="8.5677965"><ele>201.0</ele><time>2026-05-01T15:09:40.844Z</time></trkpt><trkpt lat="45.7923516" lon="8.5678917"><ele>201.0</ele><time>2026-05-01T15:09:41.843Z</time></trkpt><trkpt lat="45.7924487" lon="8.5679802"><ele>201.0</ele><time>2026-05-01T15:09:42.844Z</time></trkpt><trkpt lat="45.792541" lon="8.5680732"><ele>201.0</ele><time>2026-05-01T15:09:43.844Z</time></trkpt><trkpt lat="45.7926346" lon="8.5681602"><ele>201.0</ele><time>2026-05-01T15:09:44.845Z</time></trkpt><trkpt lat="45.7927262" lon="8.5682393"><ele>201.0</ele><time>2026-05-01T15:09:45.845Z</time></trkpt><trkpt lat="45.7928278" lon="8.5683004"><ele>201.0</ele><time>2026-05-01T15:09:46.844Z</time></trkpt><trkpt lat="45.7929378" lon="8.5683593"><ele>201.0</ele><time>2026-05-01T15:09:47.845Z</time></trkpt><trkpt lat="45.7930541" lon="8.568409"><ele>201.0</ele><time>2026-05-01T15:09:48.844Z</time></trkpt><trkpt lat="45.7931703" lon="8.5684697"><ele>201.0</ele><time>2026-05-01T15:09:49.844Z</time></trkpt><trkpt lat="45.7932794" lon="8.5685207"><ele>201.0</ele><time>2026-05-01T15:09:50.844Z</time></trkpt><trkpt lat="45.7933853" lon="8.5685683"><ele>201.0</ele><time>2026-05-01T15:09:51.843Z</time></trkpt><trkpt lat="45.7934847" lon="8.5686153"><ele>201.0</ele><time>2026-05-01T15:09:52.844Z</time></trkpt><trkpt lat="45.7935868" lon="8.5686594"><ele>201.0</ele><time>2026-05-01T15:09:53.845Z</time></trkpt><trkpt lat="45.7936926" lon="8.5687077"><ele>201.0</ele><time>2026-05-01T15:09:54.844Z</time></trkpt><trkpt lat="45.7938026" lon="8.5687637"><ele>201.75</ele><time>2026-05-01T15:09:55.843Z</time></trkpt><trkpt lat="45.7939122" lon="8.5688195"><ele>202.5</ele><time>2026-05-01T15:09:56.843Z</time></trkpt><trkpt lat="45.7940244" lon="8.5688769"><ele>203.25</ele><time>2026-05-01T15:09:57.843Z</time></trkpt><trkpt lat="45.7941413" lon="8.5689328"><ele>204.0</ele><time>2026-05-01T15:09:58.844Z</time></trkpt><trkpt lat="45.7942569" lon="8.5689879"><ele>203.6</ele><time>2026-05-01T15:09:59.844Z</time></trkpt><trkpt lat="45.7943666" lon="8.5690342"><ele>203.2</ele><time>2026-05-01T15:10:00.845Z</time></trkpt><trkpt lat="45.7944719" lon="8.5690806"><ele>202.79999999999998</ele><time>2026-05-01T15:10:01.844Z</time></trkpt><trkpt lat="45.7945753" lon="8.5691096"><ele>202.39999999999998</ele><time>2026-05-01T15:10:02.844Z</time></trkpt><trkpt lat="45.7946728" lon="8.569125"><ele>202.0</ele><time>2026-05-01T15:10:03.844Z</time></trkpt><trkpt lat="45.7947665" lon="8.5691225"><ele>202.0</ele><time>2026-05-01T15:10:04.844Z</time></trkpt><trkpt lat="45.7948564" lon="8.5691149"><ele>202.0</ele><time>2026-05-01T15:10:05.844Z</time></trkpt><trkpt lat="45.7949435" lon="8.5691067"><ele>202.0</ele><time>2026-05-01T15:10:06.844Z</time></trkpt><trkpt lat="45.7950302" lon="8.5690872"><ele>202.0</ele><time>2026-05-01T15:10:07.844Z</time></trkpt><trkpt lat="45.795127" lon="8.5690747"><ele>202.0</ele><time>2026-05-01T15:10:08.844Z</time></trkpt><trkpt lat="45.7952251" lon="8.5690687"><ele>202.33333333333331</ele><time>2026-05-01T15:10:09.844Z</time></trkpt><trkpt lat="45.795323" lon="8.5690645"><ele>202.66666666666666</ele><time>2026-05-01T15:10:10.845Z</time></trkpt><trkpt lat="45.7954116" lon="8.5690552"><ele>203.0</ele><time>2026-05-01T15:10:11.845Z</time></trkpt><trkpt lat="45.7954974" lon="8.5690438"><ele>203.33333333333331</ele><time>2026-05-01T15:10:12.843Z</time></trkpt><trkpt lat="45.7955833" lon="8.5690309"><ele>203.66666666666666</ele><time>2026-05-01T15:10:13.844Z</time></trkpt><trkpt lat="45.7956585" lon="8.5690189"><ele>204.0</ele><time>2026-05-01T15:10:14.844Z</time></trkpt><trkpt lat="45.7957355" lon="8.5690011"><ele>204.0</ele><time>2026-05-01T15:10:15.844Z</time></trkpt><trkpt lat="45.7958161" lon="8.5689753"><ele>204.0</ele><time>2026-05-01T15:10:16.843Z</time></trkpt><trkpt lat="45.7959021" lon="8.5689296"><ele>204.0</ele><time>2026-05-01T15:10:17.844Z</time></trkpt><trkpt lat="45.7959842" lon="8.5688746"><ele>204.0</ele><time>2026-05-01T15:10:18.845Z</time></trkpt><trkpt lat="45.7960707" lon="8.5688211"><ele>204.0</ele><time>2026-05-01T15:10:19.844Z</time></trkpt><trkpt lat="45.7961508" lon="8.5687834"><ele>204.0</ele><time>2026-05-01T15:10:20.844Z</time></trkpt><trkpt lat="45.7962279" lon="8.5687544"><ele>204.0</ele><time>2026-05-01T15:10:21.845Z</time></trkpt><trkpt lat="45.7963001" lon="8.5687397"><ele>204.0</ele><time>2026-05-01T15:10:22.844Z</time></trkpt><trkpt lat="45.7963716" lon="8.5687382"><ele>204.0</ele><time>2026-05-01T15:10:23.844Z</time></trkpt><trkpt lat="45.7964407" lon="8.5687413"><ele>204.0</ele><time>2026-05-01T15:10:24.844Z</time></trkpt><trkpt lat="45.7965082" lon="8.5687331"><ele>204.0</ele><time>2026-05-01T15:10:25.844Z</time></trkpt><trkpt lat="45.7966183" lon="8.5687322"><ele>204.0</ele><time>2026-05-01T15:10:27.845Z</time></trkpt><trkpt lat="45.7966829" lon="8.5687278"><ele>204.0</ele><time>2026-05-01T15:10:28.843Z</time></trkpt><trkpt lat="45.7967528" lon="8.5687218"><ele>204.0</ele><time>2026-05-01T15:10:29.844Z</time></trkpt><trkpt lat="45.7968283" lon="8.5687254"><ele>204.0</ele><time>2026-05-01T15:10:30.844Z</time></trkpt><trkpt lat="45.7969498" lon="8.5687295"><ele>204.0</ele><time>2026-05-01T15:10:32.845Z</time></trkpt><trkpt lat="45.7970473" lon="8.5687447"><ele>204.0</ele><time>2026-05-01T15:10:34.844Z</time></trkpt><trkpt lat="45.7971398" lon="8.5687671"><ele>204.33333333333334</ele><time>2026-05-01T15:10:36.845Z</time></trkpt><trkpt lat="45.7972433" lon="8.568777"><ele>204.66666666666669</ele><time>2026-05-01T15:10:38.844Z</time></trkpt><trkpt lat="45.7973456" lon="8.5687935"><ele>205.0</ele><time>2026-05-01T15:10:40.844Z</time></trkpt><trkpt lat="45.7974382" lon="8.568851"><ele>205.33333333333334</ele><time>2026-05-01T15:10:42.845Z</time></trkpt><trkpt lat="45.7974898" lon="8.5689115"><ele>205.66666666666669</ele><time>2026-05-01T15:10:43.844Z</time></trkpt><trkpt lat="45.7975397" lon="8.5689706"><ele>206.0</ele><time>2026-05-01T15:10:44.844Z</time></trkpt><trkpt lat="45.7975973" lon="8.5690384"><ele>206.33333333333334</ele><time>2026-05-01T15:10:45.845Z</time></trkpt><trkpt lat="45.7976852" lon="8.5691367"><ele>206.66666666666669</ele><time>2026-05-01T15:10:47.844Z</time></trkpt><trkpt lat="45.7977391" lon="8.5691951"><ele>207.0</ele><time>2026-05-01T15:10:49.844Z</time></trkpt><trkpt lat="45.7977899" lon="8.5692565"><ele>207.33333333333331</ele><time>2026-05-01T15:10:51.843Z</time></trkpt><trkpt lat="45.7978547" lon="8.5693237"><ele>207.66666666666666</ele><time>2026-05-01T15:10:53.844Z</time></trkpt><trkpt lat="45.7979271" lon="8.5693973"><ele>208.0</ele><time>2026-05-01T15:10:55.843Z</time></trkpt><trkpt lat="45.797995" lon="8.5694729"><ele>208.99999999999997</ele><time>2026-05-01T15:10:58.844Z</time></trkpt><trkpt lat="45.7980408" lon="8.5695423"><ele>210.0</ele><time>2026-05-01T15:11:00.844Z</time></trkpt><trkpt lat="45.7980604" lon="8.5696602"><ele>211.0</ele><time>2026-05-01T15:11:02.843Z</time></trkpt><trkpt lat="45.7980264" lon="8.5698194"><ele>212.0</ele><time>2026-05-01T15:11:04.843Z</time></trkpt><trkpt lat="45.7980105" lon="8.5699076"><ele>212.99999999999997</ele><time>2026-05-01T15:11:05.843Z</time></trkpt><trkpt lat="45.7979908" lon="8.5699946"><ele>214.0</ele><time>2026-05-01T15:11:06.844Z</time></trkpt><trkpt lat="45.7979359" lon="8.5701528"><ele>213.99999999999997</ele><time>2026-05-01T15:11:08.845Z</time></trkpt><trkpt lat="45.7979005" lon="8.5702371"><ele>214.0</ele><time>2026-05-01T15:11:09.844Z</time></trkpt><trkpt lat="45.7978667" lon="8.5703318"><ele>214.0</ele><time>2026-05-01T15:11:10.844Z</time></trkpt><trkpt lat="45.7978251" lon="8.570426"><ele>214.0</ele><time>2026-05-01T15:11:11.843Z</time></trkpt><trkpt lat="45.7977829" lon="8.570528"><ele>213.99999999999997</ele><time>2026-05-01T15:11:12.845Z</time></trkpt><trkpt lat="45.7977408" lon="8.5706263"><ele>214.0</ele><time>2026-05-01T15:11:13.844Z</time></trkpt><trkpt lat="45.7977086" lon="8.5707088"><ele>214.6</ele><time>2026-05-01T15:11:14.845Z</time></trkpt><trkpt lat="45.7976515" lon="8.5708487"><ele>215.2</ele><time>2026-05-01T15:11:16.843Z</time></trkpt><trkpt lat="45.7975924" lon="8.5710074"><ele>215.79999999999998</ele><time>2026-05-01T15:11:18.844Z</time></trkpt><trkpt lat="45.7975628" lon="8.571095"><ele>216.39999999999998</ele><time>2026-05-01T15:11:19.844Z</time></trkpt><trkpt lat="45.7975104" lon="8.5712536"><ele>217.0</ele><time>2026-05-01T15:11:21.844Z</time></trkpt><trkpt lat="45.797474" lon="8.571335"><ele>217.66666666666666</ele><time>2026-05-01T15:11:22.843Z</time></trkpt><trkpt lat="45.7974337" lon="8.5714198"><ele>218.33333333333331</ele><time>2026-05-01T15:11:23.844Z</time></trkpt><trkpt lat="45.7973796" lon="8.5714993"><ele>219.0</ele><time>2026-05-01T15:11:24.844Z</time></trkpt><trkpt lat="45.7973331" lon="8.571586"><ele>219.66666666666669</ele><time>2026-05-01T15:11:25.844Z</time></trkpt><trkpt lat="45.7972922" lon="8.5716879"><ele>220.33333333333334</ele><time>2026-05-01T15:11:26.843Z</time></trkpt><trkpt lat="45.7972549" lon="8.571789"><ele>221.0</ele><time>2026-05-01T15:11:27.845Z</time></trkpt><trkpt lat="45.7972255" lon="8.5718818"><ele>221.00000000000003</ele><time>2026-05-01T15:11:28.844Z</time></trkpt><trkpt lat="45.7972033" lon="8.5719715"><ele>221.0</ele><time>2026-05-01T15:11:29.844Z</time></trkpt><trkpt lat="45.7972047" lon="8.5720641"><ele>221.0</ele><time>2026-05-01T15:11:30.844Z</time></trkpt><trkpt lat="45.7972379" lon="8.5721721"><ele>221.0</ele><time>2026-05-01T15:11:31.844Z</time></trkpt><trkpt lat="45.797284" lon="8.5722643"><ele>221.00000000000003</ele><time>2026-05-01T15:11:32.844Z</time></trkpt><trkpt lat="45.7973394" lon="8.5723469"><ele>221.0</ele><time>2026-05-01T15:11:33.844Z</time></trkpt><trkpt lat="45.7974014" lon="8.5724192"><ele>221.33333333333334</ele><time>2026-05-01T15:11:34.844Z</time></trkpt><trkpt lat="45.7974667" lon="8.5724974"><ele>221.66666666666669</ele><time>2026-05-01T15:11:35.844Z</time></trkpt><trkpt lat="45.797533" lon="8.5725732"><ele>222.0</ele><time>2026-05-01T15:11:36.843Z</time></trkpt><trkpt lat="45.7975893" lon="8.5726471"><ele>222.33333333333331</ele><time>2026-05-01T15:11:37.843Z</time></trkpt><trkpt lat="45.7976394" lon="8.5727342"><ele>222.66666666666666</ele><time>2026-05-01T15:11:38.844Z</time></trkpt><trkpt lat="45.7976705" lon="8.572833"><ele>223.0</ele><time>2026-05-01T15:11:39.844Z</time></trkpt><trkpt lat="45.7976868" lon="8.5729322"><ele>223.33333333333331</ele><time>2026-05-01T15:11:40.844Z</time></trkpt><trkpt lat="45.7976997" lon="8.5730406"><ele>223.66666666666666</ele><time>2026-05-01T15:11:41.843Z</time></trkpt><trkpt lat="45.7977024" lon="8.5731515"><ele>224.0</ele><time>2026-05-01T15:11:42.845Z</time></trkpt><trkpt lat="45.7976845" lon="8.5732614"><ele>224.33333333333331</ele><time>2026-05-01T15:11:43.844Z</time></trkpt><trkpt lat="45.797652" lon="8.5733669"><ele>224.66666666666666</ele><time>2026-05-01T15:11:44.843Z</time></trkpt><trkpt lat="45.7976035" lon="8.5734833"><ele>225.0</ele><time>2026-05-01T15:11:45.844Z</time></trkpt><trkpt lat="45.7975428" lon="8.5736148"><ele>227.0</ele><time>2026-05-01T15:11:46.844Z</time></trkpt><trkpt lat="45.7974732" lon="8.573754"><ele>229.0</ele><time>2026-05-01T15:11:47.844Z</time></trkpt><trkpt lat="45.7974159" lon="8.5738763"><ele>231.0</ele><time>2026-05-01T15:11:48.844Z</time></trkpt><trkpt lat="45.797361" lon="8.5739942"><ele>233.0</ele><time>2026-05-01T15:11:49.844Z</time></trkpt><trkpt lat="45.7973081" lon="8.5741176"><ele>235.0</ele><time>2026-05-01T15:11:50.845Z</time></trkpt><trkpt lat="45.7972604" lon="8.5742695"><ele>235.0</ele><time>2026-05-01T15:11:51.843Z</time></trkpt><trkpt lat="45.7972105" lon="8.5744043"><ele>235.0</ele><time>2026-05-01T15:11:52.844Z</time></trkpt><trkpt lat="45.7971673" lon="8.5745305"><ele>235.0</ele><time>2026-05-01T15:11:53.843Z</time></trkpt><trkpt lat="45.7971257" lon="8.5746575"><ele>235.0</ele><time>2026-05-01T15:11:54.843Z</time></trkpt><trkpt lat="45.7970858" lon="8.5747759"><ele>235.0</ele><time>2026-05-01T15:11:55.844Z</time></trkpt><trkpt lat="45.7970428" lon="8.5749033"><ele>234.4</ele><time>2026-05-01T15:11:56.845Z</time></trkpt><trkpt lat="45.7969994" lon="8.5750317"><ele>233.8</ele><time>2026-05-01T15:11:57.844Z</time></trkpt><trkpt lat="45.7969543" lon="8.5751719"><ele>233.2</ele><time>2026-05-01T15:11:58.844Z</time></trkpt><trkpt lat="45.7969064" lon="8.575316"><ele>232.6</ele><time>2026-05-01T15:11:59.843Z</time></trkpt><trkpt lat="45.7968645" lon="8.5754523"><ele>232.0</ele><time>2026-05-01T15:12:00.843Z</time></trkpt><trkpt lat="45.79682" lon="8.5755811"><ele>233.39999999999998</ele><time>2026-05-01T15:12:01.843Z</time></trkpt><trkpt lat="45.7967814" lon="8.5757085"><ele>234.79999999999998</ele><time>2026-05-01T15:12:02.842Z</time></trkpt><trkpt lat="45.7967308" lon="8.5758407"><ele>236.2</ele><time>2026-05-01T15:12:03.844Z</time></trkpt><trkpt lat="45.7966811" lon="8.5759765"><ele>237.6</ele><time>2026-05-01T15:12:04.844Z</time></trkpt><trkpt lat="45.7966296" lon="8.5761141"><ele>239.0</ele><time>2026-05-01T15:12:05.844Z</time></trkpt><trkpt lat="45.796564" lon="8.5762496"><ele>239.0</ele><time>2026-05-01T15:12:06.844Z</time></trkpt><trkpt lat="45.7964941" lon="8.5763904"><ele>239.0</ele><time>2026-05-01T15:12:07.844Z</time></trkpt><trkpt lat="45.7964268" lon="8.5765428"><ele>239.0</ele><time>2026-05-01T15:12:08.844Z</time></trkpt><trkpt lat="45.7963598" lon="8.5766939"><ele>239.0</ele><time>2026-05-01T15:12:09.843Z</time></trkpt><trkpt lat="45.7962985" lon="8.57684"><ele>239.0</ele><time>2026-05-01T15:12:10.845Z</time></trkpt><trkpt lat="45.7962366" lon="8.5769816"><ele>239.0</ele><time>2026-05-01T15:12:11.844Z</time></trkpt><trkpt lat="45.7961783" lon="8.5771201"><ele>239.0</ele><time>2026-05-01T15:12:12.844Z</time></trkpt><trkpt lat="45.7961141" lon="8.5772576"><ele>239.0</ele><time>2026-05-01T15:12:13.844Z</time></trkpt><trkpt lat="45.7960556" lon="8.5773932"><ele>239.79999999999998</ele><time>2026-05-01T15:12:14.845Z</time></trkpt><trkpt lat="45.7959943" lon="8.5775336"><ele>240.59999999999997</ele><time>2026-05-01T15:12:15.844Z</time></trkpt><trkpt lat="45.7959353" lon="8.5776668"><ele>241.4</ele><time>2026-05-01T15:12:16.844Z</time></trkpt><trkpt lat="45.7958733" lon="8.5777977"><ele>242.2</ele><time>2026-05-01T15:12:17.845Z</time></trkpt><trkpt lat="45.795813" lon="8.5779332"><ele>243.0</ele><time>2026-05-01T15:12:18.844Z</time></trkpt><trkpt lat="45.7957521" lon="8.5780641"><ele>243.0</ele><time>2026-05-01T15:12:19.844Z</time></trkpt><trkpt lat="45.7956867" lon="8.5782002"><ele>243.0</ele><time>2026-05-01T15:12:20.845Z</time></trkpt><trkpt lat="45.7956156" lon="8.5783518"><ele>243.0</ele><time>2026-05-01T15:12:21.843Z</time></trkpt><trkpt lat="45.7955442" lon="8.578517"><ele>243.0</ele><time>2026-05-01T15:12:22.844Z</time></trkpt><trkpt lat="45.7954675" lon="8.5786914"><ele>242.75</ele><time>2026-05-01T15:12:23.844Z</time></trkpt><trkpt lat="45.7953881" lon="8.5788766"><ele>242.5</ele><time>2026-05-01T15:12:24.844Z</time></trkpt><trkpt lat="45.7953075" lon="8.5790577"><ele>242.25</ele><time>2026-05-01T15:12:25.843Z</time></trkpt><trkpt lat="45.7952278" lon="8.5792267"><ele>242.0</ele><time>2026-05-01T15:12:26.843Z</time></trkpt><trkpt lat="45.7951528" lon="8.5793873"><ele>241.75</ele><time>2026-05-01T15:12:27.844Z</time></trkpt><trkpt lat="45.7950817" lon="8.579534"><ele>241.5</ele><time>2026-05-01T15:12:28.844Z</time></trkpt><trkpt lat="45.7950179" lon="8.5796762"><ele>241.25</ele><time>2026-05-01T15:12:29.844Z</time></trkpt><trkpt lat="45.7949554" lon="8.5798189"><ele>241.0</ele><time>2026-05-01T15:12:30.843Z</time></trkpt><trkpt lat="45.7948879" lon="8.5799651"><ele>241.0</ele><time>2026-05-01T15:12:31.844Z</time></trkpt><trkpt lat="45.7948172" lon="8.5801158"><ele>241.0</ele><time>2026-05-01T15:12:32.844Z</time></trkpt><trkpt lat="45.7947477" lon="8.5802625"><ele>241.0</ele><time>2026-05-01T15:12:33.843Z</time></trkpt><trkpt lat="45.7946756" lon="8.5804113"><ele>241.0</ele><time>2026-05-01T15:12:34.843Z</time></trkpt><trkpt lat="45.7946017" lon="8.5805561"><ele>240.75</ele><time>2026-05-01T15:12:35.844Z</time></trkpt><trkpt lat="45.794528" lon="8.5807048"><ele>240.5</ele><time>2026-05-01T15:12:36.844Z</time></trkpt><trkpt lat="45.7944521" lon="8.5808481"><ele>240.25</ele><time>2026-05-01T15:12:37.844Z</time></trkpt><trkpt lat="45.7943759" lon="8.580998"><ele>240.0</ele><time>2026-05-01T15:12:38.843Z</time></trkpt><trkpt lat="45.7943028" lon="8.5811494"><ele>239.25</ele><time>2026-05-01T15:12:39.843Z</time></trkpt><trkpt lat="45.7942266" lon="8.5812972"><ele>238.5</ele><time>2026-05-01T15:12:40.843Z</time></trkpt><trkpt lat="45.7941485" lon="8.5814436"><ele>237.75</ele><time>2026-05-01T15:12:41.844Z</time></trkpt><trkpt lat="45.794072" lon="8.581595"><ele>237.0</ele><time>2026-05-01T15:12:42.844Z</time></trkpt><trkpt lat="45.7939975" lon="8.5817352"><ele>237.0</ele><time>2026-05-01T15:12:43.843Z</time></trkpt><trkpt lat="45.7939243" lon="8.5818731"><ele>237.0</ele><time>2026-05-01T15:12:44.844Z</time></trkpt><trkpt lat="45.7938605" lon="8.5820056"><ele>237.0</ele><time>2026-05-01T15:12:45.844Z</time></trkpt><trkpt lat="45.7937924" lon="8.5821334"><ele>237.0</ele><time>2026-05-01T15:12:46.843Z</time></trkpt><trkpt lat="45.793723" lon="8.5822652"><ele>237.25</ele><time>2026-05-01T15:12:47.844Z</time></trkpt><trkpt lat="45.7936562" lon="8.5823993"><ele>237.5</ele><time>2026-05-01T15:12:48.844Z</time></trkpt><trkpt lat="45.7935847" lon="8.5825349"><ele>237.75</ele><time>2026-05-01T15:12:49.844Z</time></trkpt><trkpt lat="45.7935119" lon="8.582672"><ele>238.0</ele><time>2026-05-01T15:12:50.844Z</time></trkpt><trkpt lat="45.7934337" lon="8.5828133"><ele>237.5</ele><time>2026-05-01T15:12:51.843Z</time></trkpt><trkpt lat="45.7933521" lon="8.5829548"><ele>237.0</ele><time>2026-05-01T15:12:52.844Z</time></trkpt><trkpt lat="45.7932641" lon="8.5831033"><ele>236.5</ele><time>2026-05-01T15:12:53.844Z</time></trkpt><trkpt lat="45.7931716" lon="8.5832525"><ele>236.0</ele><time>2026-05-01T15:12:54.844Z</time></trkpt><trkpt lat="45.7930781" lon="8.5833957"><ele>236.0</ele><time>2026-05-01T15:12:55.844Z</time></trkpt><trkpt lat="45.7929822" lon="8.5835281"><ele>236.0</ele><time>2026-05-01T15:12:56.844Z</time></trkpt><trkpt lat="45.7928852" lon="8.5836567"><ele>236.0</ele><time>2026-05-01T15:12:57.844Z</time></trkpt><trkpt lat="45.7927958" lon="8.5837959"><ele>236.0</ele><time>2026-05-01T15:12:58.844Z</time></trkpt><trkpt lat="45.7927056" lon="8.5839273"><ele>237.5</ele><time>2026-05-01T15:12:59.844Z</time></trkpt><trkpt lat="45.7926131" lon="8.5840543"><ele>239.0</ele><time>2026-05-01T15:13:00.844Z</time></trkpt><trkpt lat="45.792521" lon="8.5841791"><ele>240.5</ele><time>2026-05-01T15:13:01.844Z</time></trkpt><trkpt lat="45.7924281" lon="8.5843054"><ele>242.0</ele><time>2026-05-01T15:13:02.844Z</time></trkpt><trkpt lat="45.7923309" lon="8.584436"><ele>240.5</ele><time>2026-05-01T15:13:03.844Z</time></trkpt><trkpt lat="45.7922278" lon="8.5845641"><ele>239.0</ele><time>2026-05-01T15:13:04.844Z</time></trkpt><trkpt lat="45.7921333" lon="8.5846916"><ele>237.5</ele><time>2026-05-01T15:13:05.844Z</time></trkpt><trkpt lat="45.792043" lon="8.5848151"><ele>236.0</ele><time>2026-05-01T15:13:06.844Z</time></trkpt><trkpt lat="45.7919628" lon="8.5849364"><ele>236.0</ele><time>2026-05-01T15:13:07.843Z</time></trkpt><trkpt lat="45.7918973" lon="8.5850632"><ele>236.00000000000003</ele><time>2026-05-01T15:13:08.844Z</time></trkpt><trkpt lat="45.7918412" lon="8.5851842"><ele>236.00000000000003</ele><time>2026-05-01T15:13:09.843Z</time></trkpt><trkpt lat="45.7917927" lon="8.5852995"><ele>236.0</ele><time>2026-05-01T15:13:10.843Z</time></trkpt><trkpt lat="45.7917475" lon="8.585411"><ele>236.0</ele><time>2026-05-01T15:13:11.844Z</time></trkpt><trkpt lat="45.7917006" lon="8.5855286"><ele>235.60000000000002</ele><time>2026-05-01T15:13:12.843Z</time></trkpt><trkpt lat="45.7916486" lon="8.5856555"><ele>235.20000000000002</ele><time>2026-05-01T15:13:13.844Z</time></trkpt><trkpt lat="45.791592" lon="8.5857885"><ele>234.79999999999998</ele><time>2026-05-01T15:13:14.844Z</time></trkpt><trkpt lat="45.7915371" lon="8.5859308"><ele>234.39999999999998</ele><time>2026-05-01T15:13:15.844Z</time></trkpt><trkpt lat="45.7914818" lon="8.5860675"><ele>234.0</ele><time>2026-05-01T15:13:16.843Z</time></trkpt><trkpt lat="45.7914318" lon="8.586198"><ele>234.0</ele><time>2026-05-01T15:13:17.844Z</time></trkpt><trkpt lat="45.791377" lon="8.5863143"><ele>233.99999999999997</ele><time>2026-05-01T15:13:18.843Z</time></trkpt><trkpt lat="45.7913234" lon="8.5864436"><ele>233.99999999999997</ele><time>2026-05-01T15:13:19.844Z</time></trkpt><trkpt lat="45.7912683" lon="8.5865886"><ele>234.0</ele><time>2026-05-01T15:13:20.843Z</time></trkpt><trkpt lat="45.7912125" lon="8.5867349"><ele>234.0</ele><time>2026-05-01T15:13:21.844Z</time></trkpt><trkpt lat="45.7911578" lon="8.5868767"><ele>233.0</ele><time>2026-05-01T15:13:22.844Z</time></trkpt><trkpt lat="45.7911036" lon="8.5870177"><ele>231.99999999999997</ele><time>2026-05-01T15:13:23.844Z</time></trkpt><trkpt lat="45.7910425" lon="8.5871535"><ele>230.99999999999997</ele><time>2026-05-01T15:13:24.844Z</time></trkpt><trkpt lat="45.7909846" lon="8.5872852"><ele>230.0</ele><time>2026-05-01T15:13:25.844Z</time></trkpt><trkpt lat="45.7909295" lon="8.5874221"><ele>229.0</ele><time>2026-05-01T15:13:26.844Z</time></trkpt><trkpt lat="45.7908753" lon="8.5875568"><ele>229.5</ele><time>2026-05-01T15:13:27.844Z</time></trkpt><trkpt lat="45.7908178" lon="8.5876912"><ele>230.0</ele><time>2026-05-01T15:13:28.844Z</time></trkpt><trkpt lat="45.7907627" lon="8.5878282"><ele>230.5</ele><time>2026-05-01T15:13:29.844Z</time></trkpt><trkpt lat="45.7907108" lon="8.5879719"><ele>231.0</ele><time>2026-05-01T15:13:30.843Z</time></trkpt><trkpt lat="45.7906476" lon="8.5881142"><ele>231.0</ele><time>2026-05-01T15:13:31.844Z</time></trkpt><trkpt lat="45.7905867" lon="8.5882586"><ele>231.00000000000003</ele><time>2026-05-01T15:13:32.844Z</time></trkpt><trkpt lat="45.7905245" lon="8.5883948"><ele>231.00000000000003</ele><time>2026-05-01T15:13:33.843Z</time></trkpt><trkpt lat="45.790469" lon="8.5885148"><ele>231.0</ele><time>2026-05-01T15:13:34.844Z</time></trkpt><trkpt lat="45.7904172" lon="8.588629"><ele>231.0</ele><time>2026-05-01T15:13:35.844Z</time></trkpt><trkpt lat="45.790373" lon="8.5887259"><ele>230.33333333333334</ele><time>2026-05-01T15:13:36.844Z</time></trkpt><trkpt lat="45.7903314" lon="8.5888156"><ele>229.66666666666669</ele><time>2026-05-01T15:13:37.844Z</time></trkpt><trkpt lat="45.7902943" lon="8.5889003"><ele>229.0</ele><time>2026-05-01T15:13:38.843Z</time></trkpt><trkpt lat="45.790259" lon="8.5889796"><ele>228.33333333333334</ele><time>2026-05-01T15:13:39.844Z</time></trkpt><trkpt lat="45.7901929" lon="8.5891166"><ele>227.66666666666669</ele><time>2026-05-01T15:13:41.844Z</time></trkpt><trkpt lat="45.7901485" lon="8.589201"><ele>227.0</ele><time>2026-05-01T15:13:42.843Z</time></trkpt><trkpt lat="45.7901038" lon="8.5892957"><ele>227.6</ele><time>2026-05-01T15:13:43.843Z</time></trkpt><trkpt lat="45.7900512" lon="8.5894046"><ele>228.2</ele><time>2026-05-01T15:13:44.843Z</time></trkpt><trkpt lat="45.7899895" lon="8.5895061"><ele>228.8</ele><time>2026-05-01T15:13:45.844Z</time></trkpt><trkpt lat="45.7899116" lon="8.5896226"><ele>229.4</ele><time>2026-05-01T15:13:46.843Z</time></trkpt><trkpt lat="45.7898288" lon="8.5897293"><ele>230.0</ele><time>2026-05-01T15:13:47.843Z</time></trkpt><trkpt lat="45.7897379" lon="8.5898581"><ele>230.0</ele><time>2026-05-01T15:13:48.844Z</time></trkpt><trkpt lat="45.7896501" lon="8.5899786"><ele>230.0</ele><time>2026-05-01T15:13:49.842Z</time></trkpt><trkpt lat="45.7895634" lon="8.5900907"><ele>230.0</ele><time>2026-05-01T15:13:50.844Z</time></trkpt><trkpt lat="45.7894784" lon="8.590197"><ele>230.0</ele><time>2026-05-01T15:13:51.844Z</time></trkpt><trkpt lat="45.7894057" lon="8.5902983"><ele>230.0</ele><time>2026-05-01T15:13:52.843Z</time></trkpt><trkpt lat="45.7893352" lon="8.5903958"><ele>230.0</ele><time>2026-05-01T15:13:53.844Z</time></trkpt><trkpt lat="45.7892611" lon="8.5904983"><ele>230.0</ele><time>2026-05-01T15:13:54.844Z</time></trkpt><trkpt lat="45.7891866" lon="8.5906008"><ele>230.0</ele><time>2026-05-01T15:13:55.844Z</time></trkpt><trkpt lat="45.7891056" lon="8.5907096"><ele>230.0</ele><time>2026-05-01T15:13:56.844Z</time></trkpt><trkpt lat="45.789024" lon="8.5908246"><ele>230.0</ele><time>2026-05-01T15:13:57.844Z</time></trkpt><trkpt lat="45.7889407" lon="8.5909351"><ele>230.0</ele><time>2026-05-01T15:13:58.844Z</time></trkpt><trkpt lat="45.7888626" lon="8.5910425"><ele>230.0</ele><time>2026-05-01T15:13:59.843Z</time></trkpt><trkpt lat="45.7887933" lon="8.5911463"><ele>230.0</ele><time>2026-05-01T15:14:00.842Z</time></trkpt><trkpt lat="45.7887247" lon="8.5912432"><ele>230.0</ele><time>2026-05-01T15:14:01.844Z</time></trkpt><trkpt lat="45.7886577" lon="8.5913338"><ele>229.2</ele><time>2026-05-01T15:14:02.844Z</time></trkpt><trkpt lat="45.788587" lon="8.5914122"><ele>228.4</ele><time>2026-05-01T15:14:03.844Z</time></trkpt><trkpt lat="45.7885076" lon="8.5915025"><ele>227.60000000000002</ele><time>2026-05-01T15:14:04.844Z</time></trkpt><trkpt lat="45.7884212" lon="8.5916048"><ele>226.8</ele><time>2026-05-01T15:14:05.844Z</time></trkpt><trkpt lat="45.7883363" lon="8.5916964"><ele>226.0</ele><time>2026-05-01T15:14:06.844Z</time></trkpt><trkpt lat="45.7882516" lon="8.5917821"><ele>226.0</ele><time>2026-05-01T15:14:07.844Z</time></trkpt><trkpt lat="45.7881655" lon="8.5918604"><ele>226.00000000000003</ele><time>2026-05-01T15:14:08.844Z</time></trkpt><trkpt lat="45.788075" lon="8.5919429"><ele>226.00000000000003</ele><time>2026-05-01T15:14:09.844Z</time></trkpt><trkpt lat="45.7879797" lon="8.5920243"><ele>226.0</ele><time>2026-05-01T15:14:10.844Z</time></trkpt><trkpt lat="45.7878837" lon="8.5921126"><ele>226.0</ele><time>2026-05-01T15:14:11.843Z</time></trkpt><trkpt lat="45.7877852" lon="8.5922019"><ele>225.0</ele><time>2026-05-01T15:14:12.843Z</time></trkpt><trkpt lat="45.7876871" lon="8.5922952"><ele>224.0</ele><time>2026-05-01T15:14:13.843Z</time></trkpt><trkpt lat="45.7875892" lon="8.5923829"><ele>223.0</ele><time>2026-05-01T15:14:14.843Z</time></trkpt><trkpt lat="45.7874939" lon="8.5924722"><ele>222.0</ele><time>2026-05-01T15:14:15.843Z</time></trkpt><trkpt lat="45.7874018" lon="8.5925543"><ele>222.0</ele><time>2026-05-01T15:14:16.844Z</time></trkpt><trkpt lat="45.7873041" lon="8.5926432"><ele>222.0</ele><time>2026-05-01T15:14:17.844Z</time></trkpt><trkpt lat="45.7872065" lon="8.5927324"><ele>222.0</ele><time>2026-05-01T15:14:18.844Z</time></trkpt><trkpt lat="45.7871101" lon="8.5928137"><ele>222.0</ele><time>2026-05-01T15:14:19.844Z</time></trkpt><trkpt lat="45.7870169" lon="8.5928942"><ele>221.0</ele><time>2026-05-01T15:14:20.843Z</time></trkpt><trkpt lat="45.7869281" lon="8.5929744"><ele>220.0</ele><time>2026-05-01T15:14:21.843Z</time></trkpt><trkpt lat="45.7868413" lon="8.5930559"><ele>219.0</ele><time>2026-05-01T15:14:22.844Z</time></trkpt><trkpt lat="45.7867624" lon="8.5931355"><ele>218.0</ele><time>2026-05-01T15:14:23.844Z</time></trkpt><trkpt lat="45.7866857" lon="8.5932227"><ele>217.0</ele><time>2026-05-01T15:14:24.844Z</time></trkpt><trkpt lat="45.7866271" lon="8.5933044"><ele>216.99999999999997</ele><time>2026-05-01T15:14:25.844Z</time></trkpt><trkpt lat="45.7865682" lon="8.5933876"><ele>217.0</ele><time>2026-05-01T15:14:26.844Z</time></trkpt><trkpt lat="45.7865207" lon="8.5934665"><ele>217.0</ele><time>2026-05-01T15:14:27.843Z</time></trkpt><trkpt lat="45.7864646" lon="8.5935531"><ele>217.0</ele><time>2026-05-01T15:14:28.844Z</time></trkpt><trkpt lat="45.7864121" lon="8.5936356"><ele>216.99999999999997</ele><time>2026-05-01T15:14:29.843Z</time></trkpt><trkpt lat="45.7863645" lon="8.5937054"><ele>217.0</ele><time>2026-05-01T15:14:30.843Z</time></trkpt><trkpt lat="45.7862784" lon="8.5938245"><ele>216.39999999999998</ele><time>2026-05-01T15:14:32.844Z</time></trkpt><trkpt lat="45.7861938" lon="8.5939206"><ele>215.79999999999998</ele><time>2026-05-01T15:14:34.844Z</time></trkpt><trkpt lat="45.7860719" lon="8.5939745"><ele>215.2</ele><time>2026-05-01T15:14:36.843Z</time></trkpt><trkpt lat="45.7859749" lon="8.5940052"><ele>214.6</ele><time>2026-05-01T15:14:38.842Z</time></trkpt><trkpt lat="45.7858976" lon="8.5940403"><ele>214.0</ele><time>2026-05-01T15:14:45.844Z</time></trkpt><trkpt lat="45.7858118" lon="8.5941577"><ele>214.0</ele><time>2026-05-01T15:14:47.843Z</time></trkpt><trkpt lat="45.7857526" lon="8.5942342"><ele>213.99999999999997</ele><time>2026-05-01T15:14:48.844Z</time></trkpt><trkpt lat="45.7856629" lon="8.5942926"><ele>213.99999999999997</ele><time>2026-05-01T15:14:49.844Z</time></trkpt><trkpt lat="45.7855805" lon="8.5943529"><ele>214.0</ele><time>2026-05-01T15:14:50.844Z</time></trkpt><trkpt lat="45.7854917" lon="8.5944197"><ele>214.0</ele><time>2026-05-01T15:14:51.844Z</time></trkpt><trkpt lat="45.7854022" lon="8.5944931"><ele>213.75</ele><time>2026-05-01T15:14:52.844Z</time></trkpt><trkpt lat="45.7853015" lon="8.5945753"><ele>213.5</ele><time>2026-05-01T15:14:53.844Z</time></trkpt><trkpt lat="45.7851843" lon="8.5946523"><ele>213.25</ele><time>2026-05-01T15:14:54.844Z</time></trkpt><trkpt lat="45.7850689" lon="8.5947286"><ele>213.0</ele><time>2026-05-01T15:14:55.844Z</time></trkpt><trkpt lat="45.7849504" lon="8.5948133"><ele>213.0</ele><time>2026-05-01T15:14:56.844Z</time></trkpt><trkpt lat="45.7848278" lon="8.5948955"><ele>213.0</ele><time>2026-05-01T15:14:57.843Z</time></trkpt><trkpt lat="45.7847169" lon="8.5949816"><ele>213.0</ele><time>2026-05-01T15:14:58.844Z</time></trkpt><trkpt lat="45.7846107" lon="8.5950616"><ele>213.0</ele><time>2026-05-01T15:14:59.843Z</time></trkpt><trkpt lat="45.7845024" lon="8.5951454"><ele>213.0</ele><time>2026-05-01T15:15:00.843Z</time></trkpt><trkpt lat="45.7843858" lon="8.5952257"><ele>213.0</ele><time>2026-05-01T15:15:01.844Z</time></trkpt><trkpt lat="45.7842564" lon="8.5952988"><ele>213.0</ele><time>2026-05-01T15:15:02.844Z</time></trkpt><trkpt lat="45.7841284" lon="8.5953807"><ele>213.0</ele><time>2026-05-01T15:15:03.844Z</time></trkpt><trkpt lat="45.784002" lon="8.5954555"><ele>213.0</ele><time>2026-05-01T15:15:04.843Z</time></trkpt><trkpt lat="45.7838759" lon="8.5955411"><ele>213.0</ele><time>2026-05-01T15:15:05.844Z</time></trkpt><trkpt lat="45.7837514" lon="8.5956281"><ele>213.0</ele><time>2026-05-01T15:15:06.843Z</time></trkpt><trkpt lat="45.7836267" lon="8.5957003"><ele>213.0</ele><time>2026-05-01T15:15:07.843Z</time></trkpt><trkpt lat="45.783501" lon="8.5957701"><ele>212.75</ele><time>2026-05-01T15:15:08.843Z</time></trkpt><trkpt lat="45.7833718" lon="8.5958484"><ele>212.5</ele><time>2026-05-01T15:15:09.844Z</time></trkpt><trkpt lat="45.7832376" lon="8.5959169"><ele>212.25</ele><time>2026-05-01T15:15:10.844Z</time></trkpt><trkpt lat="45.7831074" lon="8.5959669"><ele>212.0</ele><time>2026-05-01T15:15:11.842Z</time></trkpt><trkpt lat="45.7829758" lon="8.5959914"><ele>212.0</ele><time>2026-05-01T15:15:12.844Z</time></trkpt><trkpt lat="45.7828389" lon="8.5960026"><ele>212.0</ele><time>2026-05-01T15:15:13.843Z</time></trkpt><trkpt lat="45.7827021" lon="8.5959967"><ele>212.0</ele><time>2026-05-01T15:15:14.844Z</time></trkpt><trkpt lat="45.7825691" lon="8.5959758"><ele>212.0</ele><time>2026-05-01T15:15:15.844Z</time></trkpt><trkpt lat="45.7824373" lon="8.5959641"><ele>212.0</ele><time>2026-05-01T15:15:16.843Z</time></trkpt><trkpt lat="45.7823014" lon="8.5959493"><ele>212.0</ele><time>2026-05-01T15:15:17.844Z</time></trkpt><trkpt lat="45.7821692" lon="8.5959392"><ele>212.0</ele><time>2026-05-01T15:15:18.844Z</time></trkpt><trkpt lat="45.7820383" lon="8.5959284"><ele>212.0</ele><time>2026-05-01T15:15:19.844Z</time></trkpt><trkpt lat="45.781906" lon="8.5959279"><ele>212.0</ele><time>2026-05-01T15:15:20.844Z</time></trkpt><trkpt lat="45.7817745" lon="8.595926"><ele>212.0</ele><time>2026-05-01T15:15:21.844Z</time></trkpt><trkpt lat="45.7816547" lon="8.5959227"><ele>212.0</ele><time>2026-05-01T15:15:22.843Z</time></trkpt><trkpt lat="45.7815359" lon="8.5959202"><ele>212.0</ele><time>2026-05-01T15:15:23.844Z</time></trkpt><trkpt lat="45.7814258" lon="8.5959231"><ele>212.0</ele><time>2026-05-01T15:15:24.844Z</time></trkpt><trkpt lat="45.7813356" lon="8.5959165"><ele>212.0</ele><time>2026-05-01T15:15:25.843Z</time></trkpt><trkpt lat="45.7812423" lon="8.5959036"><ele>212.0</ele><time>2026-05-01T15:15:26.844Z</time></trkpt><trkpt lat="45.7811445" lon="8.5958802"><ele>212.0</ele><time>2026-05-01T15:15:27.843Z</time></trkpt><trkpt lat="45.7810499" lon="8.5958487"><ele>212.0</ele><time>2026-05-01T15:15:28.843Z</time></trkpt><trkpt lat="45.7809438" lon="8.5958156"><ele>212.5</ele><time>2026-05-01T15:15:29.843Z</time></trkpt><trkpt lat="45.7808324" lon="8.5957806"><ele>213.0</ele><time>2026-05-01T15:15:30.843Z</time></trkpt><trkpt lat="45.7807177" lon="8.5957402"><ele>213.5</ele><time>2026-05-01T15:15:31.844Z</time></trkpt><trkpt lat="45.7805978" lon="8.595699"><ele>214.0</ele><time>2026-05-01T15:15:32.844Z</time></trkpt><trkpt lat="45.780476" lon="8.5956528"><ele>214.0</ele><time>2026-05-01T15:15:33.844Z</time></trkpt><trkpt lat="45.780368" lon="8.595589"><ele>214.0</ele><time>2026-05-01T15:15:34.843Z</time></trkpt><trkpt lat="45.7802658" lon="8.5955259"><ele>214.0</ele><time>2026-05-01T15:15:35.843Z</time></trkpt><trkpt lat="45.7801686" lon="8.5954671"><ele>214.0</ele><time>2026-05-01T15:15:36.844Z</time></trkpt><trkpt lat="45.7800628" lon="8.5953985"><ele>213.75</ele><time>2026-05-01T15:15:37.844Z</time></trkpt><trkpt lat="45.7799384" lon="8.5953191"><ele>213.5</ele><time>2026-05-01T15:15:38.844Z</time></trkpt><trkpt lat="45.7798065" lon="8.5952466"><ele>213.25</ele><time>2026-05-01T15:15:39.844Z</time></trkpt><trkpt lat="45.7796773" lon="8.5951841"><ele>213.0</ele><time>2026-05-01T15:15:40.844Z</time></trkpt><trkpt lat="45.7795492" lon="8.595134"><ele>213.0</ele><time>2026-05-01T15:15:41.844Z</time></trkpt><trkpt lat="45.779423" lon="8.5950847"><ele>213.0</ele><time>2026-05-01T15:15:42.843Z</time></trkpt><trkpt lat="45.7792945" lon="8.5950359"><ele>213.0</ele><time>2026-05-01T15:15:43.842Z</time></trkpt><trkpt lat="45.7791638" lon="8.5949935"><ele>213.0</ele><time>2026-05-01T15:15:44.844Z</time></trkpt><trkpt lat="45.7790447" lon="8.5949692"><ele>213.25</ele><time>2026-05-01T15:15:45.842Z</time></trkpt><trkpt lat="45.7789261" lon="8.594938"><ele>213.5</ele><time>2026-05-01T15:15:46.844Z</time></trkpt><trkpt lat="45.7788171" lon="8.5949242"><ele>213.75</ele><time>2026-05-01T15:15:47.841Z</time></trkpt><trkpt lat="45.7787078" lon="8.5948995"><ele>214.0</ele><time>2026-05-01T15:15:48.844Z</time></trkpt><trkpt lat="45.7785978" lon="8.5948706"><ele>213.83333333333331</ele><time>2026-05-01T15:15:49.843Z</time></trkpt><trkpt lat="45.7784958" lon="8.5948367"><ele>213.66666666666666</ele><time>2026-05-01T15:15:50.844Z</time></trkpt><trkpt lat="45.7784052" lon="8.5948031"><ele>213.5</ele><time>2026-05-01T15:15:51.844Z</time></trkpt><trkpt lat="45.7783283" lon="8.5947789"><ele>213.33333333333331</ele><time>2026-05-01T15:15:52.844Z</time></trkpt><trkpt lat="45.7782474" lon="8.594758"><ele>213.16666666666666</ele><time>2026-05-01T15:15:53.844Z</time></trkpt><trkpt lat="45.7781693" lon="8.5947426"><ele>213.0</ele><time>2026-05-01T15:15:54.844Z</time></trkpt><trkpt lat="45.7780846" lon="8.594707"><ele>213.0</ele><time>2026-05-01T15:15:55.842Z</time></trkpt><trkpt lat="45.7780054" lon="8.594641"><ele>213.0</ele><time>2026-05-01T15:15:56.844Z</time></trkpt><trkpt lat="45.7779311" lon="8.5945585"><ele>213.0</ele><time>2026-05-01T15:15:57.844Z</time></trkpt><trkpt lat="45.7778541" lon="8.5944928"><ele>213.0</ele><time>2026-05-01T15:15:58.843Z</time></trkpt><trkpt lat="45.7777759" lon="8.5944365"><ele>213.0</ele><time>2026-05-01T15:15:59.843Z</time></trkpt><trkpt lat="45.7776863" lon="8.594406"><ele>213.2</ele><time>2026-05-01T15:16:00.844Z</time></trkpt><trkpt lat="45.7775947" lon="8.5943831"><ele>213.4</ele><time>2026-05-01T15:16:01.843Z</time></trkpt><trkpt lat="45.7774946" lon="8.5943576"><ele>213.59999999999997</ele><time>2026-05-01T15:16:02.844Z</time></trkpt><trkpt lat="45.7773913" lon="8.594322"><ele>213.79999999999998</ele><time>2026-05-01T15:16:03.843Z</time></trkpt><trkpt lat="45.7772891" lon="8.5942895"><ele>214.0</ele><time>2026-05-01T15:16:04.844Z</time></trkpt><trkpt lat="45.777194" lon="8.5942572"><ele>213.99999999999997</ele><time>2026-05-01T15:16:05.844Z</time></trkpt><trkpt lat="45.7771102" lon="8.5942258"><ele>214.0</ele><time>2026-05-01T15:16:06.844Z</time></trkpt><trkpt lat="45.7770346" lon="8.5941955"><ele>214.0</ele><time>2026-05-01T15:16:07.843Z</time></trkpt><trkpt lat="45.7769674" lon="8.5941724"><ele>214.0</ele><time>2026-05-01T15:16:08.844Z</time></trkpt><trkpt lat="45.7768648" lon="8.5941391"><ele>213.99999999999997</ele><time>2026-05-01T15:16:10.844Z</time></trkpt><trkpt lat="45.7768051" lon="8.5941103"><ele>214.0</ele><time>2026-05-01T15:16:13.842Z</time></trkpt><trkpt lat="45.7767278" lon="8.5941948"><ele>213.99999999999997</ele><time>2026-05-01T15:16:25.844Z</time></trkpt><trkpt lat="45.7767263" lon="8.5942914"><ele>214.0</ele><time>2026-05-01T15:16:26.843Z</time></trkpt><trkpt lat="45.7767286" lon="8.5943907"><ele>214.0</ele><time>2026-05-01T15:16:27.841Z</time></trkpt><trkpt lat="45.7767343" lon="8.594498"><ele>214.0</ele><time>2026-05-01T15:16:28.844Z</time></trkpt><trkpt lat="45.7767383" lon="8.5946093"><ele>213.99999999999997</ele><time>2026-05-01T15:16:29.844Z</time></trkpt><trkpt lat="45.7767408" lon="8.5947403"><ele>214.0</ele><time>2026-05-01T15:16:30.843Z</time></trkpt><trkpt lat="45.7767467" lon="8.5948904"><ele>213.5</ele><time>2026-05-01T15:16:31.844Z</time></trkpt><trkpt lat="45.7767511" lon="8.5950525"><ele>213.0</ele><time>2026-05-01T15:16:32.844Z</time></trkpt><trkpt lat="45.7767561" lon="8.5952148"><ele>212.5</ele><time>2026-05-01T15:16:33.843Z</time></trkpt><trkpt lat="45.7767563" lon="8.5953844"><ele>212.0</ele><time>2026-05-01T15:16:34.844Z</time></trkpt><trkpt lat="45.7767505" lon="8.5955627"><ele>211.75</ele><time>2026-05-01T15:16:35.844Z</time></trkpt><trkpt lat="45.7767524" lon="8.5957446"><ele>211.5</ele><time>2026-05-01T15:16:36.843Z</time></trkpt><trkpt lat="45.7767563" lon="8.5959174"><ele>211.25</ele><time>2026-05-01T15:16:37.844Z</time></trkpt><trkpt lat="45.7767639" lon="8.5960798"><ele>211.0</ele><time>2026-05-01T15:16:38.842Z</time></trkpt><trkpt lat="45.7767686" lon="8.5962387"><ele>211.0</ele><time>2026-05-01T15:16:39.843Z</time></trkpt><trkpt lat="45.7767759" lon="8.5964084"><ele>211.0</ele><time>2026-05-01T15:16:40.844Z</time></trkpt><trkpt lat="45.7767751" lon="8.5966288"><ele>211.0</ele><time>2026-05-01T15:16:41.843Z</time></trkpt><trkpt lat="45.7767819" lon="8.5968587"><ele>211.0</ele><time>2026-05-01T15:16:42.843Z</time></trkpt><trkpt lat="45.7767812" lon="8.5971045"><ele>211.33333333333331</ele><time>2026-05-01T15:16:43.844Z</time></trkpt><trkpt lat="45.7767872" lon="8.5973776"><ele>211.66666666666669</ele><time>2026-05-01T15:16:44.843Z</time></trkpt><trkpt lat="45.7767977" lon="8.5976891"><ele>212.0</ele><time>2026-05-01T15:16:45.844Z</time></trkpt><trkpt lat="45.7768045" lon="8.5979874"><ele>212.0</ele><time>2026-05-01T15:16:46.843Z</time></trkpt><trkpt lat="45.7768142" lon="8.5982805"><ele>212.0</ele><time>2026-05-01T15:16:47.843Z</time></trkpt><trkpt lat="45.7768107" lon="8.5985449"><ele>212.0</ele><time>2026-05-01T15:16:48.843Z</time></trkpt><trkpt lat="45.7768072" lon="8.5988083"><ele>211.66666666666669</ele><time>2026-05-01T15:16:49.844Z</time></trkpt><trkpt lat="45.7767921" lon="8.5990668"><ele>211.33333333333331</ele><time>2026-05-01T15:16:50.843Z</time></trkpt><trkpt lat="45.7767788" lon="8.5993413"><ele>211.0</ele><time>2026-05-01T15:16:51.844Z</time></trkpt><trkpt lat="45.7767673" lon="8.599602"><ele>211.0</ele><time>2026-05-01T15:16:52.843Z</time></trkpt><trkpt lat="45.7767561" lon="8.5998691"><ele>211.0</ele><time>2026-05-01T15:16:53.844Z</time></trkpt><trkpt lat="45.7767463" lon="8.6001356"><ele>211.0</ele><time>2026-05-01T15:16:54.844Z</time></trkpt><trkpt lat="45.7767357" lon="8.6004016"><ele>211.0</ele><time>2026-05-01T15:16:55.844Z</time></trkpt><trkpt lat="45.776725" lon="8.6006698"><ele>211.0</ele><time>2026-05-01T15:16:56.844Z</time></trkpt><trkpt lat="45.7767157" lon="8.6009348"><ele>211.0</ele><time>2026-05-01T15:16:57.844Z</time></trkpt><trkpt lat="45.7767084" lon="8.6012056"><ele>210.33333333333331</ele><time>2026-05-01T15:16:58.843Z</time></trkpt><trkpt lat="45.7766963" lon="8.6014743"><ele>209.66666666666669</ele><time>2026-05-01T15:16:59.844Z</time></trkpt><trkpt lat="45.7766884" lon="8.6017381"><ele>209.0</ele><time>2026-05-01T15:17:00.844Z</time></trkpt><trkpt lat="45.7766803" lon="8.601998"><ele>208.33333333333334</ele><time>2026-05-01T15:17:01.843Z</time></trkpt><trkpt lat="45.7766743" lon="8.6022523"><ele>207.66666666666669</ele><time>2026-05-01T15:17:02.843Z</time></trkpt><trkpt lat="45.7766652" lon="8.6024916"><ele>207.0</ele><time>2026-05-01T15:17:03.843Z</time></trkpt><trkpt lat="45.7766589" lon="8.6027199"><ele>207.5</ele><time>2026-05-01T15:17:04.844Z</time></trkpt><trkpt lat="45.7766581" lon="8.6029342"><ele>208.0</ele><time>2026-05-01T15:17:05.842Z</time></trkpt><trkpt lat="45.7766559" lon="8.6031381"><ele>208.5</ele><time>2026-05-01T15:17:06.844Z</time></trkpt><trkpt lat="45.7766428" lon="8.6033421"><ele>209.0</ele><time>2026-05-01T15:17:07.844Z</time></trkpt><trkpt lat="45.7766228" lon="8.603544"><ele>208.66666666666669</ele><time>2026-05-01T15:17:08.843Z</time></trkpt><trkpt lat="45.7765883" lon="8.6037521"><ele>208.33333333333331</ele><time>2026-05-01T15:17:09.844Z</time></trkpt><trkpt lat="45.7765495" lon="8.6039636"><ele>208.0</ele><time>2026-05-01T15:17:10.843Z</time></trkpt><trkpt lat="45.776502" lon="8.6041703"><ele>208.0</ele><time>2026-05-01T15:17:11.844Z</time></trkpt><trkpt lat="45.7764582" lon="8.6043812"><ele>208.0</ele><time>2026-05-01T15:17:12.842Z</time></trkpt><trkpt lat="45.7764097" lon="8.6045975"><ele>208.0</ele><time>2026-05-01T15:17:13.844Z</time></trkpt><trkpt lat="45.7763606" lon="8.6048195"><ele>208.66666666666666</ele><time>2026-05-01T15:17:14.843Z</time></trkpt><trkpt lat="45.776313" lon="8.6050412"><ele>209.33333333333331</ele><time>2026-05-01T15:17:15.844Z</time></trkpt><trkpt lat="45.7762655" lon="8.6052639"><ele>210.0</ele><time>2026-05-01T15:17:16.842Z</time></trkpt><trkpt lat="45.7762162" lon="8.6054873"><ele>210.33333333333331</ele><time>2026-05-01T15:17:17.844Z</time></trkpt><trkpt lat="45.7761706" lon="8.6057143"><ele>210.66666666666666</ele><time>2026-05-01T15:17:18.843Z</time></trkpt><trkpt lat="45.7761194" lon="8.6059399"><ele>211.0</ele><time>2026-05-01T15:17:19.843Z</time></trkpt><trkpt lat="45.7760748" lon="8.606149"><ele>210.75</ele><time>2026-05-01T15:17:20.843Z</time></trkpt><trkpt lat="45.7760307" lon="8.6063371"><ele>210.5</ele><time>2026-05-01T15:17:21.843Z</time></trkpt><trkpt lat="45.7759878" lon="8.6065232"><ele>210.25</ele><time>2026-05-01T15:17:22.842Z</time></trkpt><trkpt lat="45.7759468" lon="8.6067006"><ele>210.0</ele><time>2026-05-01T15:17:23.843Z</time></trkpt><trkpt lat="45.7759086" lon="8.6068636"><ele>210.4</ele><time>2026-05-01T15:17:24.844Z</time></trkpt><trkpt lat="45.7758719" lon="8.6070239"><ele>210.8</ele><time>2026-05-01T15:17:25.844Z</time></trkpt><trkpt lat="45.7758361" lon="8.6071547"><ele>211.2</ele><time>2026-05-01T15:17:26.844Z</time></trkpt><trkpt lat="45.775801" lon="8.6072795"><ele>211.6</ele><time>2026-05-01T15:17:27.843Z</time></trkpt><trkpt lat="45.7757703" lon="8.6073985"><ele>212.0</ele><time>2026-05-01T15:17:28.844Z</time></trkpt><trkpt lat="45.7757366" lon="8.6075335"><ele>212.0</ele><time>2026-05-01T15:17:29.844Z</time></trkpt><trkpt lat="45.7756958" lon="8.6076727"><ele>212.0</ele><time>2026-05-01T15:17:30.844Z</time></trkpt><trkpt lat="45.7756521" lon="8.6078237"><ele>212.0</ele><time>2026-05-01T15:17:31.844Z</time></trkpt><trkpt lat="45.7756081" lon="8.6079794"><ele>212.0</ele><time>2026-05-01T15:17:32.843Z</time></trkpt><trkpt lat="45.7755698" lon="8.6081365"><ele>212.25</ele><time>2026-05-01T15:17:33.843Z</time></trkpt><trkpt lat="45.7755285" lon="8.6082928"><ele>212.5</ele><time>2026-05-01T15:17:34.844Z</time></trkpt><trkpt lat="45.7754845" lon="8.6084492"><ele>212.75</ele><time>2026-05-01T15:17:35.842Z</time></trkpt><trkpt lat="45.7754433" lon="8.6086044"><ele>213.0</ele><time>2026-05-01T15:17:36.844Z</time></trkpt><trkpt lat="45.7754057" lon="8.6087569"><ele>213.0</ele><time>2026-05-01T15:17:37.844Z</time></trkpt><trkpt lat="45.7753726" lon="8.6088815"><ele>213.0</ele><time>2026-05-01T15:17:38.842Z</time></trkpt><trkpt lat="45.7753447" lon="8.6089962"><ele>213.0</ele><time>2026-05-01T15:17:39.843Z</time></trkpt><trkpt lat="45.7753223" lon="8.6091166"><ele>213.0</ele><time>2026-05-01T15:17:40.844Z</time></trkpt><trkpt lat="45.7753026" lon="8.6092392"><ele>213.0</ele><time>2026-05-01T15:17:41.843Z</time></trkpt><trkpt lat="45.775288" lon="8.6093781"><ele>213.0</ele><time>2026-05-01T15:17:42.844Z</time></trkpt><trkpt lat="45.7752746" lon="8.6095185"><ele>213.0</ele><time>2026-05-01T15:17:43.844Z</time></trkpt><trkpt lat="45.7752707" lon="8.6096596"><ele>213.0</ele><time>2026-05-01T15:17:44.843Z</time></trkpt><trkpt lat="45.7752711" lon="8.6097782"><ele>213.0</ele><time>2026-05-01T15:17:45.843Z</time></trkpt><trkpt lat="45.7752757" lon="8.6098965"><ele>213.0</ele><time>2026-05-01T15:17:46.841Z</time></trkpt><trkpt lat="45.7752873" lon="8.6100192"><ele>213.0</ele><time>2026-05-01T15:17:47.842Z</time></trkpt><trkpt lat="45.775301" lon="8.6101299"><ele>213.0</ele><time>2026-05-01T15:17:48.844Z</time></trkpt><trkpt lat="45.7753238" lon="8.6102337"><ele>213.0</ele><time>2026-05-01T15:17:49.843Z</time></trkpt><trkpt lat="45.7753571" lon="8.6103337"><ele>213.0</ele><time>2026-05-01T15:17:50.844Z</time></trkpt><trkpt lat="45.7753984" lon="8.6104323"><ele>213.0</ele><time>2026-05-01T15:17:51.842Z</time></trkpt><trkpt lat="45.7754593" lon="8.6105205"><ele>213.0</ele><time>2026-05-01T15:17:52.843Z</time></trkpt><trkpt lat="45.7755389" lon="8.6106139"><ele>213.0</ele><time>2026-05-01T15:17:53.844Z</time></trkpt><trkpt lat="45.7756186" lon="8.6106985"><ele>213.0</ele><time>2026-05-01T15:17:54.844Z</time></trkpt><trkpt lat="45.7757076" lon="8.6107937"><ele>213.0</ele><time>2026-05-01T15:17:55.844Z</time></trkpt><trkpt lat="45.7757968" lon="8.6108956"><ele>213.0</ele><time>2026-05-01T15:17:56.842Z</time></trkpt><trkpt lat="45.7758779" lon="8.61099"><ele>213.0</ele><time>2026-05-01T15:17:57.843Z</time></trkpt><trkpt lat="45.7759553" lon="8.6110789"><ele>213.0</ele><time>2026-05-01T15:17:58.842Z</time></trkpt><trkpt lat="45.7760329" lon="8.6111664"><ele>213.0</ele><time>2026-05-01T15:17:59.844Z</time></trkpt><trkpt lat="45.7761087" lon="8.6112512"><ele>213.0</ele><time>2026-05-01T15:18:00.844Z</time></trkpt><trkpt lat="45.7761903" lon="8.6113434"><ele>213.0</ele><time>2026-05-01T15:18:01.842Z</time></trkpt><trkpt lat="45.7762777" lon="8.6114417"><ele>213.0</ele><time>2026-05-01T15:18:02.843Z</time></trkpt><trkpt lat="45.7763721" lon="8.6115426"><ele>213.0</ele><time>2026-05-01T15:18:03.844Z</time></trkpt><trkpt lat="45.7764697" lon="8.6116458"><ele>213.0</ele><time>2026-05-01T15:18:04.843Z</time></trkpt><trkpt lat="45.7765717" lon="8.6117544"><ele>213.0</ele><time>2026-05-01T15:18:05.843Z</time></trkpt><trkpt lat="45.776672" lon="8.6118617"><ele>213.0</ele><time>2026-05-01T15:18:06.843Z</time></trkpt><trkpt lat="45.7767713" lon="8.6119717"><ele>213.0</ele><time>2026-05-01T15:18:07.844Z</time></trkpt><trkpt lat="45.7768701" lon="8.6120801"><ele>214.0</ele><time>2026-05-01T15:18:08.844Z</time></trkpt><trkpt lat="45.7769694" lon="8.6121862"><ele>215.0</ele><time>2026-05-01T15:18:09.844Z</time></trkpt><trkpt lat="45.777067" lon="8.6122965"><ele>216.0</ele><time>2026-05-01T15:18:10.843Z</time></trkpt><trkpt lat="45.777163" lon="8.6123995"><ele>217.0</ele><time>2026-05-01T15:18:11.843Z</time></trkpt><trkpt lat="45.7772563" lon="8.6125049"><ele>217.0</ele><time>2026-05-01T15:18:12.844Z</time></trkpt><trkpt lat="45.7773548" lon="8.6126118"><ele>217.0</ele><time>2026-05-01T15:18:13.843Z</time></trkpt><trkpt lat="45.7774512" lon="8.612724"><ele>217.0</ele><time>2026-05-01T15:18:14.842Z</time></trkpt><trkpt lat="45.7775485" lon="8.6128373"><ele>217.0</ele><time>2026-05-01T15:18:15.842Z</time></trkpt><trkpt lat="45.7776448" lon="8.6129516"><ele>216.5</ele><time>2026-05-01T15:18:16.844Z</time></trkpt><trkpt lat="45.7777465" lon="8.6130564"><ele>216.0</ele><time>2026-05-01T15:18:17.843Z</time></trkpt><trkpt lat="45.777846" lon="8.6131661"><ele>215.5</ele><time>2026-05-01T15:18:18.843Z</time></trkpt><trkpt lat="45.7779434" lon="8.6132772"><ele>215.0</ele><time>2026-05-01T15:18:19.844Z</time></trkpt><trkpt lat="45.7780442" lon="8.6133937"><ele>215.0</ele><time>2026-05-01T15:18:20.843Z</time></trkpt><trkpt lat="45.7781467" lon="8.6135091"><ele>215.0</ele><time>2026-05-01T15:18:21.844Z</time></trkpt><trkpt lat="45.7782493" lon="8.6136315"><ele>215.0</ele><time>2026-05-01T15:18:22.844Z</time></trkpt><trkpt lat="45.7783516" lon="8.6137481"><ele>215.0</ele><time>2026-05-01T15:18:23.843Z</time></trkpt><trkpt lat="45.7784559" lon="8.6138659"><ele>215.0</ele><time>2026-05-01T15:18:24.843Z</time></trkpt><trkpt lat="45.7785592" lon="8.6139866"><ele>215.0</ele><time>2026-05-01T15:18:25.844Z</time></trkpt><trkpt lat="45.7786626" lon="8.6141064"><ele>215.0</ele><time>2026-05-01T15:18:26.843Z</time></trkpt><trkpt lat="45.77876" lon="8.6142391"><ele>215.0</ele><time>2026-05-01T15:18:27.843Z</time></trkpt><trkpt lat="45.7788529" lon="8.6143764"><ele>217.25</ele><time>2026-05-01T15:18:28.843Z</time></trkpt><trkpt lat="45.7789419" lon="8.6145184"><ele>219.5</ele><time>2026-05-01T15:18:29.843Z</time></trkpt><trkpt lat="45.7790278" lon="8.6146603"><ele>221.75</ele><time>2026-05-01T15:18:30.843Z</time></trkpt><trkpt lat="45.7791117" lon="8.6147997"><ele>224.0</ele><time>2026-05-01T15:18:31.843Z</time></trkpt><trkpt lat="45.7791952" lon="8.6149369"><ele>224.0</ele><time>2026-05-01T15:18:32.844Z</time></trkpt><trkpt lat="45.7792823" lon="8.6150766"><ele>224.0</ele><time>2026-05-01T15:18:33.844Z</time></trkpt><trkpt lat="45.779369" lon="8.6152152"><ele>224.0</ele><time>2026-05-01T15:18:34.843Z</time></trkpt><trkpt lat="45.779455" lon="8.6153452"><ele>224.0</ele><time>2026-05-01T15:18:35.843Z</time></trkpt><trkpt lat="45.7795413" lon="8.6154584"><ele>224.25</ele><time>2026-05-01T15:18:36.844Z</time></trkpt><trkpt lat="45.7796395" lon="8.6155426"><ele>224.5</ele><time>2026-05-01T15:18:37.844Z</time></trkpt><trkpt lat="45.7797484" lon="8.6156115"><ele>224.75</ele><time>2026-05-01T15:18:38.843Z</time></trkpt><trkpt lat="45.779864" lon="8.6156652"><ele>225.0</ele><time>2026-05-01T15:18:39.842Z</time></trkpt><trkpt lat="45.7799821" lon="8.615712"><ele>225.0</ele><time>2026-05-01T15:18:40.843Z</time></trkpt><trkpt lat="45.7801129" lon="8.6157538"><ele>225.0</ele><time>2026-05-01T15:18:41.844Z</time></trkpt><trkpt lat="45.7802362" lon="8.6158054"><ele>225.0</ele><time>2026-05-01T15:18:42.843Z</time></trkpt><trkpt lat="45.7803644" lon="8.6158592"><ele>225.0</ele><time>2026-05-01T15:18:43.843Z</time></trkpt><trkpt lat="45.7804999" lon="8.6159163"><ele>225.25</ele><time>2026-05-01T15:18:44.843Z</time></trkpt><trkpt lat="45.7806425" lon="8.6159756"><ele>225.5</ele><time>2026-05-01T15:18:45.844Z</time></trkpt><trkpt lat="45.7807855" lon="8.6160332"><ele>225.75</ele><time>2026-05-01T15:18:46.842Z</time></trkpt><trkpt lat="45.7809308" lon="8.6160901"><ele>226.0</ele><time>2026-05-01T15:18:47.844Z</time></trkpt><trkpt lat="45.7810694" lon="8.6161429"><ele>226.5</ele><time>2026-05-01T15:18:48.844Z</time></trkpt><trkpt lat="45.7811944" lon="8.6161944"><ele>227.0</ele><time>2026-05-01T15:18:49.844Z</time></trkpt><trkpt lat="45.7813236" lon="8.6162516"><ele>227.5</ele><time>2026-05-01T15:18:50.843Z</time></trkpt><trkpt lat="45.7814576" lon="8.6163048"><ele>228.0</ele><time>2026-05-01T15:18:51.843Z</time></trkpt><trkpt lat="45.7815771" lon="8.6163494"><ele>228.0</ele><time>2026-05-01T15:18:52.843Z</time></trkpt><trkpt lat="45.781685" lon="8.6163954"><ele>228.0</ele><time>2026-05-01T15:18:53.843Z</time></trkpt><trkpt lat="45.7817828" lon="8.6164374"><ele>228.0</ele><time>2026-05-01T15:18:54.844Z</time></trkpt><trkpt lat="45.7818716" lon="8.6164789"><ele>228.0</ele><time>2026-05-01T15:18:55.843Z</time></trkpt><trkpt lat="45.7819496" lon="8.6165133"><ele>228.0</ele><time>2026-05-01T15:18:56.843Z</time></trkpt><trkpt lat="45.7820219" lon="8.6165465"><ele>228.0</ele><time>2026-05-01T15:18:57.843Z</time></trkpt><trkpt lat="45.782084" lon="8.6165754"><ele>228.0</ele><time>2026-05-01T15:18:58.843Z</time></trkpt><trkpt lat="45.7821807" lon="8.6166244"><ele>228.0</ele><time>2026-05-01T15:19:00.844Z</time></trkpt><trkpt lat="45.7822511" lon="8.616768"><ele>228.0</ele><time>2026-05-01T15:19:02.844Z</time></trkpt><trkpt lat="45.782241" lon="8.6168809"><ele>228.0</ele><time>2026-05-01T15:19:03.843Z</time></trkpt><trkpt lat="45.7822257" lon="8.6169995"><ele>227.60000000000002</ele><time>2026-05-01T15:19:04.842Z</time></trkpt><trkpt lat="45.7822124" lon="8.6171256"><ele>227.20000000000002</ele><time>2026-05-01T15:19:05.844Z</time></trkpt><trkpt lat="45.7822018" lon="8.6172756"><ele>226.8</ele><time>2026-05-01T15:19:06.843Z</time></trkpt><trkpt lat="45.7821949" lon="8.617419"><ele>226.4</ele><time>2026-05-01T15:19:07.844Z</time></trkpt><trkpt lat="45.7821828" lon="8.6175686"><ele>226.0</ele><time>2026-05-01T15:19:08.843Z</time></trkpt><trkpt lat="45.7821689" lon="8.6177241"><ele>226.4</ele><time>2026-05-01T15:19:09.842Z</time></trkpt><trkpt lat="45.7821592" lon="8.6178887"><ele>226.8</ele><time>2026-05-01T15:19:10.841Z</time></trkpt><trkpt lat="45.7821447" lon="8.6180517"><ele>227.20000000000002</ele><time>2026-05-01T15:19:11.844Z</time></trkpt><trkpt lat="45.7821313" lon="8.6182058"><ele>227.60000000000002</ele><time>2026-05-01T15:19:12.843Z</time></trkpt><trkpt lat="45.7821166" lon="8.6183492"><ele>228.0</ele><time>2026-05-01T15:19:13.843Z</time></trkpt><trkpt lat="45.7821028" lon="8.6184925"><ele>228.0</ele><time>2026-05-01T15:19:14.844Z</time></trkpt><trkpt lat="45.7820888" lon="8.6186456"><ele>228.0</ele><time>2026-05-01T15:19:15.843Z</time></trkpt><trkpt lat="45.7820775" lon="8.6188047"><ele>228.0</ele><time>2026-05-01T15:19:16.843Z</time></trkpt><trkpt lat="45.7820665" lon="8.6189737"><ele>228.0</ele><time>2026-05-01T15:19:17.843Z</time></trkpt><trkpt lat="45.7820539" lon="8.6191377"><ele>228.0</ele><time>2026-05-01T15:19:18.842Z</time></trkpt><trkpt lat="45.7820407" lon="8.6193036"><ele>228.0</ele><time>2026-05-01T15:19:19.844Z</time></trkpt><trkpt lat="45.7820288" lon="8.6194691"><ele>228.0</ele><time>2026-05-01T15:19:20.843Z</time></trkpt><trkpt lat="45.7820171" lon="8.6196494"><ele>228.0</ele><time>2026-05-01T15:19:21.844Z</time></trkpt><trkpt lat="45.7820172" lon="8.6198363"><ele>228.0</ele><time>2026-05-01T15:19:22.842Z</time></trkpt><trkpt lat="45.7820288" lon="8.6200307"><ele>228.0</ele><time>2026-05-01T15:19:23.843Z</time></trkpt><trkpt lat="45.7820477" lon="8.6202297"><ele>228.0</ele><time>2026-05-01T15:19:24.844Z</time></trkpt><trkpt lat="45.7820687" lon="8.6204323"><ele>228.0</ele><time>2026-05-01T15:19:25.844Z</time></trkpt><trkpt lat="45.78209" lon="8.6206362"><ele>228.25</ele><time>2026-05-01T15:19:26.843Z</time></trkpt><trkpt lat="45.7821102" lon="8.6208413"><ele>228.5</ele><time>2026-05-01T15:19:27.843Z</time></trkpt><trkpt lat="45.7821343" lon="8.6210484"><ele>228.75</ele><time>2026-05-01T15:19:28.843Z</time></trkpt><trkpt lat="45.7821618" lon="8.6212536"><ele>229.0</ele><time>2026-05-01T15:19:29.843Z</time></trkpt><trkpt lat="45.7821862" lon="8.6214645"><ele>229.0</ele><time>2026-05-01T15:19:30.843Z</time></trkpt><trkpt lat="45.7822089" lon="8.6216594"><ele>229.0</ele><time>2026-05-01T15:19:31.844Z</time></trkpt><trkpt lat="45.7822313" lon="8.6218545"><ele>229.0</ele><time>2026-05-01T15:19:32.842Z</time></trkpt><trkpt lat="45.7822529" lon="8.622051"><ele>229.0</ele><time>2026-05-01T15:19:33.843Z</time></trkpt><trkpt lat="45.7822668" lon="8.6222495"><ele>229.0</ele><time>2026-05-01T15:19:34.844Z</time></trkpt><trkpt lat="45.7822727" lon="8.6224494"><ele>229.0</ele><time>2026-05-01T15:19:35.841Z</time></trkpt><trkpt lat="45.7822694" lon="8.6226549"><ele>229.0</ele><time>2026-05-01T15:19:36.844Z</time></trkpt><trkpt lat="45.7822635" lon="8.6228603"><ele>229.0</ele><time>2026-05-01T15:19:37.842Z</time></trkpt><trkpt lat="45.782254" lon="8.6230717"><ele>229.0</ele><time>2026-05-01T15:19:38.843Z</time></trkpt><trkpt lat="45.7822483" lon="8.6232858"><ele>229.0</ele><time>2026-05-01T15:19:39.844Z</time></trkpt><trkpt lat="45.7822419" lon="8.6235039"><ele>229.0</ele><time>2026-05-01T15:19:40.844Z</time></trkpt><trkpt lat="45.7822334" lon="8.623722"><ele>228.75</ele><time>2026-05-01T15:19:41.843Z</time></trkpt><trkpt lat="45.7822254" lon="8.6239426"><ele>228.5</ele><time>2026-05-01T15:19:42.843Z</time></trkpt><trkpt lat="45.7822151" lon="8.6241508"><ele>228.25</ele><time>2026-05-01T15:19:43.843Z</time></trkpt><trkpt lat="45.7822046" lon="8.6243469"><ele>228.0</ele><time>2026-05-01T15:19:44.843Z</time></trkpt><trkpt lat="45.7821967" lon="8.6245455"><ele>229.0</ele><time>2026-05-01T15:19:45.843Z</time></trkpt><trkpt lat="45.7821903" lon="8.6247442"><ele>230.0</ele><time>2026-05-01T15:19:46.843Z</time></trkpt><trkpt lat="45.7821799" lon="8.6249383"><ele>231.0</ele><time>2026-05-01T15:19:47.843Z</time></trkpt><trkpt lat="45.7821686" lon="8.6251326"><ele>232.0</ele><time>2026-05-01T15:19:48.844Z</time></trkpt><trkpt lat="45.7821587" lon="8.6253287"><ele>232.75</ele><time>2026-05-01T15:19:49.842Z</time></trkpt><trkpt lat="45.7821522" lon="8.6255222"><ele>233.5</ele><time>2026-05-01T15:19:50.844Z</time></trkpt><trkpt lat="45.7821436" lon="8.6256906"><ele>234.25</ele><time>2026-05-01T15:19:51.843Z</time></trkpt><trkpt lat="45.7821311" lon="8.6258614"><ele>235.0</ele><time>2026-05-01T15:19:52.844Z</time></trkpt><trkpt lat="45.7821187" lon="8.6260321"><ele>235.8</ele><time>2026-05-01T15:19:53.843Z</time></trkpt><trkpt lat="45.7821026" lon="8.6262033"><ele>236.6</ele><time>2026-05-01T15:19:54.844Z</time></trkpt><trkpt lat="45.7820901" lon="8.6263661"><ele>237.39999999999998</ele><time>2026-05-01T15:19:55.843Z</time></trkpt><trkpt lat="45.7820811" lon="8.6265048"><ele>238.2</ele><time>2026-05-01T15:19:56.843Z</time></trkpt><trkpt lat="45.7820823" lon="8.6266413"><ele>239.0</ele><time>2026-05-01T15:19:57.842Z</time></trkpt><trkpt lat="45.7820942" lon="8.6267802"><ele>239.0</ele><time>2026-05-01T15:19:58.843Z</time></trkpt><trkpt lat="45.7821283" lon="8.626923"><ele>239.0</ele><time>2026-05-01T15:19:59.844Z</time></trkpt><trkpt lat="45.7821742" lon="8.6270744"><ele>239.0</ele><time>2026-05-01T15:20:00.843Z</time></trkpt><trkpt lat="45.7822237" lon="8.6272315"><ele>239.0</ele><time>2026-05-01T15:20:01.844Z</time></trkpt><trkpt lat="45.7822759" lon="8.6273936"><ele>239.6</ele><time>2026-05-01T15:20:02.844Z</time></trkpt><trkpt lat="45.7823247" lon="8.6275601"><ele>240.2</ele><time>2026-05-01T15:20:03.844Z</time></trkpt><trkpt lat="45.7823691" lon="8.6277147"><ele>240.79999999999998</ele><time>2026-05-01T15:20:04.844Z</time></trkpt><trkpt lat="45.7824136" lon="8.6278477"><ele>241.39999999999998</ele><time>2026-05-01T15:20:05.843Z</time></trkpt><trkpt lat="45.7824482" lon="8.6279583"><ele>242.0</ele><time>2026-05-01T15:20:06.844Z</time></trkpt><trkpt lat="45.7824813" lon="8.6280804"><ele>242.66666666666669</ele><time>2026-05-01T15:20:07.843Z</time></trkpt><trkpt lat="45.7825002" lon="8.6282009"><ele>243.33333333333334</ele><time>2026-05-01T15:20:08.844Z</time></trkpt><trkpt lat="45.7824963" lon="8.6282994"><ele>244.0</ele><time>2026-05-01T15:20:09.843Z</time></trkpt><trkpt lat="45.78247" lon="8.6284139"><ele>244.66666666666669</ele><time>2026-05-01T15:20:11.843Z</time></trkpt><trkpt lat="45.7823695" lon="8.6284788"><ele>245.33333333333334</ele><time>2026-05-01T15:20:13.843Z</time></trkpt><trkpt lat="45.7822897" lon="8.6284908"><ele>246.0</ele><time>2026-05-01T15:20:14.842Z</time></trkpt><trkpt lat="45.782213" lon="8.6284977"><ele>246.0</ele><time>2026-05-01T15:20:15.843Z</time></trkpt><trkpt lat="45.7821368" lon="8.6285092"><ele>246.0</ele><time>2026-05-01T15:20:16.843Z</time></trkpt><trkpt lat="45.7820711" lon="8.6285313"><ele>246.0</ele><time>2026-05-01T15:20:17.844Z</time></trkpt><trkpt lat="45.7819758" lon="8.6285679"><ele>246.0</ele><time>2026-05-01T15:20:19.844Z</time></trkpt><trkpt lat="45.7819384" lon="8.6286802"><ele>246.0</ele><time>2026-05-01T15:20:21.844Z</time></trkpt><trkpt lat="45.7819028" lon="8.6288127"><ele>246.0</ele><time>2026-05-01T15:20:22.842Z</time></trkpt><trkpt lat="45.781881" lon="8.6289403"><ele>245.83333333333334</ele><time>2026-05-01T15:20:23.843Z</time></trkpt><trkpt lat="45.7818534" lon="8.6290607"><ele>245.66666666666669</ele><time>2026-05-01T15:20:24.842Z</time></trkpt><trkpt lat="45.7818056" lon="8.6291641"><ele>245.5</ele><time>2026-05-01T15:20:25.842Z</time></trkpt><trkpt lat="45.7817479" lon="8.6292709"><ele>245.33333333333334</ele><time>2026-05-01T15:20:26.843Z</time></trkpt><trkpt lat="45.7816965" lon="8.6293822"><ele>245.16666666666669</ele><time>2026-05-01T15:20:27.843Z</time></trkpt><trkpt lat="45.7816521" lon="8.6294771"><ele>245.0</ele><time>2026-05-01T15:20:28.843Z</time></trkpt><trkpt lat="45.7816119" lon="8.6295765"><ele>246.6</ele><time>2026-05-01T15:20:29.843Z</time></trkpt><trkpt lat="45.7815659" lon="8.6296819"><ele>248.2</ele><time>2026-05-01T15:20:30.843Z</time></trkpt><trkpt lat="45.7815222" lon="8.6297936"><ele>249.8</ele><time>2026-05-01T15:20:31.844Z</time></trkpt><trkpt lat="45.7814731" lon="8.6299133"><ele>251.4</ele><time>2026-05-01T15:20:32.843Z</time></trkpt><trkpt lat="45.7814214" lon="8.6300404"><ele>253.0</ele><time>2026-05-01T15:20:33.842Z</time></trkpt><trkpt lat="45.7813731" lon="8.6301699"><ele>253.0</ele><time>2026-05-01T15:20:34.843Z</time></trkpt><trkpt lat="45.7813202" lon="8.6303043"><ele>253.0</ele><time>2026-05-01T15:20:35.843Z</time></trkpt><trkpt lat="45.7812622" lon="8.6304419"><ele>253.0</ele><time>2026-05-01T15:20:36.843Z</time></trkpt><trkpt lat="45.781201" lon="8.6305841"><ele>253.0</ele><time>2026-05-01T15:20:37.842Z</time></trkpt><trkpt lat="45.7811336" lon="8.6307247"><ele>253.5</ele><time>2026-05-01T15:20:38.843Z</time></trkpt><trkpt lat="45.7810571" lon="8.6308626"><ele>254.0</ele><time>2026-05-01T15:20:39.843Z</time></trkpt><trkpt lat="45.7809852" lon="8.6309967"><ele>254.5</ele><time>2026-05-01T15:20:40.843Z</time></trkpt><trkpt lat="45.7809087" lon="8.6311362"><ele>255.0</ele><time>2026-05-01T15:20:41.844Z</time></trkpt><trkpt lat="45.7808359" lon="8.6312751"><ele>259.25</ele><time>2026-05-01T15:20:42.844Z</time></trkpt><trkpt lat="45.7807701" lon="8.631412"><ele>263.5</ele><time>2026-05-01T15:20:43.844Z</time></trkpt><trkpt lat="45.7807173" lon="8.6315428"><ele>267.75</ele><time>2026-05-01T15:20:44.843Z</time></trkpt><trkpt lat="45.7806754" lon="8.6316932"><ele>272.0</ele><time>2026-05-01T15:20:45.844Z</time></trkpt><trkpt lat="45.7806432" lon="8.6318618"><ele>272.0</ele><time>2026-05-01T15:20:46.843Z</time></trkpt><trkpt lat="45.7806122" lon="8.6320406"><ele>272.0</ele><time>2026-05-01T15:20:47.842Z</time></trkpt><trkpt lat="45.780574" lon="8.6322212"><ele>272.0</ele><time>2026-05-01T15:20:48.842Z</time></trkpt><trkpt lat="45.7805317" lon="8.6323977"><ele>272.0</ele><time>2026-05-01T15:20:49.843Z</time></trkpt><trkpt lat="45.7804803" lon="8.6325607"><ele>272.0</ele><time>2026-05-01T15:20:50.843Z</time></trkpt><trkpt lat="45.7804196" lon="8.6327146"><ele>272.0</ele><time>2026-05-01T15:20:51.843Z</time></trkpt><trkpt lat="45.7803562" lon="8.6328706"><ele>272.0</ele><time>2026-05-01T15:20:52.843Z</time></trkpt><trkpt lat="45.7802859" lon="8.633029"><ele>272.0</ele><time>2026-05-01T15:20:53.842Z</time></trkpt><trkpt lat="45.7802115" lon="8.6331786"><ele>272.5</ele><time>2026-05-01T15:20:54.843Z</time></trkpt><trkpt lat="45.7801372" lon="8.6333207"><ele>273.0</ele><time>2026-05-01T15:20:55.843Z</time></trkpt><trkpt lat="45.7800598" lon="8.6334644"><ele>273.5</ele><time>2026-05-01T15:20:56.843Z</time></trkpt><trkpt lat="45.7799823" lon="8.633608"><ele>274.0</ele><time>2026-05-01T15:20:57.844Z</time></trkpt><trkpt lat="45.7799072" lon="8.6337599"><ele>274.0</ele><time>2026-05-01T15:20:58.842Z</time></trkpt><trkpt lat="45.7798361" lon="8.6339262"><ele>274.0</ele><time>2026-05-01T15:20:59.842Z</time></trkpt><trkpt lat="45.7797633" lon="8.6340976"><ele>274.0</ele><time>2026-05-01T15:21:00.843Z</time></trkpt><trkpt lat="45.7796888" lon="8.634272"><ele>274.0</ele><time>2026-05-01T15:21:01.843Z</time></trkpt><trkpt lat="45.7796137" lon="8.6344381"><ele>273.75</ele><time>2026-05-01T15:21:02.843Z</time></trkpt><trkpt lat="45.779535" lon="8.6345895"><ele>273.5</ele><time>2026-05-01T15:21:03.844Z</time></trkpt><trkpt lat="45.7794573" lon="8.6347424"><ele>273.25</ele><time>2026-05-01T15:21:04.844Z</time></trkpt><trkpt lat="45.7793739" lon="8.6348892"><ele>273.0</ele><time>2026-05-01T15:21:05.843Z</time></trkpt><trkpt lat="45.779288" lon="8.6350278"><ele>273.0</ele><time>2026-05-01T15:21:06.843Z</time></trkpt><trkpt lat="45.7791955" lon="8.6351628"><ele>273.0</ele><time>2026-05-01T15:21:07.844Z</time></trkpt><trkpt lat="45.7791055" lon="8.6352857"><ele>273.0</ele><time>2026-05-01T15:21:08.843Z</time></trkpt><trkpt lat="45.7790196" lon="8.6353896"><ele>273.0</ele><time>2026-05-01T15:21:09.844Z</time></trkpt><trkpt lat="45.7789446" lon="8.6354768"><ele>272.2</ele><time>2026-05-01T15:21:10.843Z</time></trkpt><trkpt lat="45.7788774" lon="8.6355527"><ele>271.4</ele><time>2026-05-01T15:21:11.844Z</time></trkpt><trkpt lat="45.7788228" lon="8.6356163"><ele>270.59999999999997</ele><time>2026-05-01T15:21:12.843Z</time></trkpt><trkpt lat="45.778756" lon="8.6357746"><ele>269.8</ele><time>2026-05-01T15:21:14.843Z</time></trkpt><trkpt lat="45.7787571" lon="8.6358917"><ele>269.0</ele><time>2026-05-01T15:21:15.844Z</time></trkpt><trkpt lat="45.7787735" lon="8.6360254"><ele>269.4</ele><time>2026-05-01T15:21:16.844Z</time></trkpt><trkpt lat="45.778792" lon="8.636188"><ele>269.79999999999995</ele><time>2026-05-01T15:21:17.844Z</time></trkpt><trkpt lat="45.7788075" lon="8.6363444"><ele>270.20000000000005</ele><time>2026-05-01T15:21:18.843Z</time></trkpt><trkpt lat="45.778822" lon="8.6365079"><ele>270.6</ele><time>2026-05-01T15:21:19.843Z</time></trkpt><trkpt lat="45.7788355" lon="8.6366571"><ele>271.0</ele><time>2026-05-01T15:21:20.843Z</time></trkpt><trkpt lat="45.7788517" lon="8.6367966"><ele>271.0</ele><time>2026-05-01T15:21:21.844Z</time></trkpt><trkpt lat="45.7788891" lon="8.6369285"><ele>271.0</ele><time>2026-05-01T15:21:22.843Z</time></trkpt><trkpt lat="45.7789384" lon="8.6370629"><ele>271.0</ele><time>2026-05-01T15:21:23.844Z</time></trkpt><trkpt lat="45.7789968" lon="8.6371953"><ele>271.0</ele><time>2026-05-01T15:21:24.843Z</time></trkpt><trkpt lat="45.7790611" lon="8.6373044"><ele>271.0</ele><time>2026-05-01T15:21:25.843Z</time></trkpt><trkpt lat="45.7791364" lon="8.6374079"><ele>271.25</ele><time>2026-05-01T15:21:26.843Z</time></trkpt><trkpt lat="45.7792204" lon="8.6374971"><ele>271.5</ele><time>2026-05-01T15:21:27.843Z</time></trkpt><trkpt lat="45.7793292" lon="8.6375823"><ele>271.75</ele><time>2026-05-01T15:21:28.844Z</time></trkpt><trkpt lat="45.7794364" lon="8.6376637"><ele>272.0</ele><time>2026-05-01T15:21:29.843Z</time></trkpt><trkpt lat="45.7795499" lon="8.6377467"><ele>272.0</ele><time>2026-05-01T15:21:30.843Z</time></trkpt><trkpt lat="45.7796739" lon="8.6378442"><ele>272.0</ele><time>2026-05-01T15:21:31.842Z</time></trkpt><trkpt lat="45.7797955" lon="8.6379379"><ele>272.0</ele><time>2026-05-01T15:21:32.842Z</time></trkpt><trkpt lat="45.7799127" lon="8.6380305"><ele>272.0</ele><time>2026-05-01T15:21:33.842Z</time></trkpt><trkpt lat="45.7800295" lon="8.6381232"><ele>272.0</ele><time>2026-05-01T15:21:34.843Z</time></trkpt><trkpt lat="45.7801467" lon="8.6382159"><ele>272.0</ele><time>2026-05-01T15:21:35.842Z</time></trkpt><trkpt lat="45.7802669" lon="8.6383013"><ele>272.0</ele><time>2026-05-01T15:21:36.843Z</time></trkpt><trkpt lat="45.7803874" lon="8.6383873"><ele>272.0</ele><time>2026-05-01T15:21:37.843Z</time></trkpt><trkpt lat="45.7805116" lon="8.638468"><ele>272.5</ele><time>2026-05-01T15:21:38.843Z</time></trkpt><trkpt lat="45.7806399" lon="8.6385554"><ele>273.0</ele><time>2026-05-01T15:21:39.843Z</time></trkpt><trkpt lat="45.7807767" lon="8.6386386"><ele>273.5</ele><time>2026-05-01T15:21:40.843Z</time></trkpt><trkpt lat="45.7808971" lon="8.6387165"><ele>274.0</ele><time>2026-05-01T15:21:41.842Z</time></trkpt><trkpt lat="45.781008" lon="8.6387743"><ele>274.5</ele><time>2026-05-01T15:21:42.843Z</time></trkpt><trkpt lat="45.781128" lon="8.6388354"><ele>275.0</ele><time>2026-05-01T15:21:43.843Z</time></trkpt><trkpt lat="45.7812561" lon="8.6388823"><ele>275.5</ele><time>2026-05-01T15:21:44.844Z</time></trkpt><trkpt lat="45.7813921" lon="8.6389099"><ele>276.0</ele><time>2026-05-01T15:21:45.842Z</time></trkpt><trkpt lat="45.781528" lon="8.6389264"><ele>276.0</ele><time>2026-05-01T15:21:46.843Z</time></trkpt><trkpt lat="45.7816736" lon="8.6389431"><ele>276.0</ele><time>2026-05-01T15:21:47.844Z</time></trkpt><trkpt lat="45.781819" lon="8.6389492"><ele>276.0</ele><time>2026-05-01T15:21:48.842Z</time></trkpt><trkpt lat="45.7819749" lon="8.6389486"><ele>276.0</ele><time>2026-05-01T15:21:49.844Z</time></trkpt><trkpt lat="45.7821371" lon="8.6389644"><ele>276.75</ele><time>2026-05-01T15:21:50.843Z</time></trkpt><trkpt lat="45.7822937" lon="8.6389867"><ele>277.5</ele><time>2026-05-01T15:21:51.843Z</time></trkpt><trkpt lat="45.7824374" lon="8.639003"><ele>278.25</ele><time>2026-05-01T15:21:52.842Z</time></trkpt><trkpt lat="45.7825776" lon="8.6390294"><ele>279.0</ele><time>2026-05-01T15:21:53.843Z</time></trkpt><trkpt lat="45.7827158" lon="8.6390622"><ele>281.25</ele><time>2026-05-01T15:21:54.844Z</time></trkpt><trkpt lat="45.7828514" lon="8.6391127"><ele>283.5</ele><time>2026-05-01T15:21:55.844Z</time></trkpt><trkpt lat="45.782987" lon="8.6391586"><ele>285.75</ele><time>2026-05-01T15:21:56.842Z</time></trkpt><trkpt lat="45.783127" lon="8.6392074"><ele>288.0</ele><time>2026-05-01T15:21:57.843Z</time></trkpt><trkpt lat="45.7832552" lon="8.6392577"><ele>288.0</ele><time>2026-05-01T15:21:58.843Z</time></trkpt><trkpt lat="45.7833836" lon="8.6393189"><ele>288.0</ele><time>2026-05-01T15:21:59.844Z</time></trkpt><trkpt lat="45.7835033" lon="8.6393807"><ele>288.0</ele><time>2026-05-01T15:22:00.843Z</time></trkpt><trkpt lat="45.7836225" lon="8.6394487"><ele>288.0</ele><time>2026-05-01T15:22:01.843Z</time></trkpt><trkpt lat="45.7837464" lon="8.6395293"><ele>287.75</ele><time>2026-05-01T15:22:02.842Z</time></trkpt><trkpt lat="45.7838653" lon="8.6395981"><ele>287.5</ele><time>2026-05-01T15:22:03.843Z</time></trkpt><trkpt lat="45.7839911" lon="8.6396566"><ele>287.25</ele><time>2026-05-01T15:22:04.843Z</time></trkpt><trkpt lat="45.7841084" lon="8.6396945"><ele>287.0</ele><time>2026-05-01T15:22:05.843Z</time></trkpt><trkpt lat="45.7842182" lon="8.639741"><ele>287.0</ele><time>2026-05-01T15:22:06.843Z</time></trkpt><trkpt lat="45.7843332" lon="8.6397648"><ele>287.0</ele><time>2026-05-01T15:22:07.843Z</time></trkpt><trkpt lat="45.784445" lon="8.6397969"><ele>287.0</ele><time>2026-05-01T15:22:08.842Z</time></trkpt><trkpt lat="45.784563" lon="8.6397875"><ele>287.0</ele><time>2026-05-01T15:22:09.843Z</time></trkpt><trkpt lat="45.7846963" lon="8.6397614"><ele>286.25</ele><time>2026-05-01T15:22:10.842Z</time></trkpt><trkpt lat="45.784828" lon="8.6397419"><ele>285.5</ele><time>2026-05-01T15:22:11.842Z</time></trkpt><trkpt lat="45.7849534" lon="8.639735"><ele>284.75</ele><time>2026-05-01T15:22:12.842Z</time></trkpt><trkpt lat="45.7850812" lon="8.6397252"><ele>284.0</ele><time>2026-05-01T15:22:13.843Z</time></trkpt><trkpt lat="45.7852071" lon="8.6397512"><ele>280.75</ele><time>2026-05-01T15:22:14.843Z</time></trkpt><trkpt lat="45.7853337" lon="8.6397829"><ele>277.5</ele><time>2026-05-01T15:22:15.842Z</time></trkpt><trkpt lat="45.7854647" lon="8.6398017"><ele>274.25</ele><time>2026-05-01T15:22:16.842Z</time></trkpt><trkpt lat="45.7855906" lon="8.639839"><ele>271.0</ele><time>2026-05-01T15:22:17.842Z</time></trkpt><trkpt lat="45.7857243" lon="8.6398942"><ele>271.0</ele><time>2026-05-01T15:22:18.843Z</time></trkpt><trkpt lat="45.7858606" lon="8.6399515"><ele>271.0</ele><time>2026-05-01T15:22:19.843Z</time></trkpt><trkpt lat="45.7860007" lon="8.6400229"><ele>271.0</ele><time>2026-05-01T15:22:20.842Z</time></trkpt><trkpt lat="45.7861361" lon="8.6400843"><ele>271.0</ele><time>2026-05-01T15:22:21.843Z</time></trkpt><trkpt lat="45.7862615" lon="8.6401342"><ele>271.5</ele><time>2026-05-01T15:22:22.843Z</time></trkpt><trkpt lat="45.7863907" lon="8.6401653"><ele>272.0</ele><time>2026-05-01T15:22:23.842Z</time></trkpt><trkpt lat="45.7865258" lon="8.6401801"><ele>272.5</ele><time>2026-05-01T15:22:24.842Z</time></trkpt><trkpt lat="45.7866654" lon="8.640189"><ele>273.0</ele><time>2026-05-01T15:22:25.842Z</time></trkpt><trkpt lat="45.7868094" lon="8.6401957"><ele>272.75</ele><time>2026-05-01T15:22:26.843Z</time></trkpt><trkpt lat="45.7869514" lon="8.6402036"><ele>272.5</ele><time>2026-05-01T15:22:27.843Z</time></trkpt><trkpt lat="45.7870851" lon="8.6402189"><ele>272.25</ele><time>2026-05-01T15:22:28.843Z</time></trkpt><trkpt lat="45.7872141" lon="8.6402389"><ele>272.0</ele><time>2026-05-01T15:22:29.842Z</time></trkpt><trkpt lat="45.7873417" lon="8.6402826"><ele>270.75</ele><time>2026-05-01T15:22:30.842Z</time></trkpt><trkpt lat="45.7874653" lon="8.6403419"><ele>269.5</ele><time>2026-05-01T15:22:31.842Z</time></trkpt><trkpt lat="45.7875877" lon="8.6404162"><ele>268.25</ele><time>2026-05-01T15:22:32.843Z</time></trkpt><trkpt lat="45.7877185" lon="8.6404964"><ele>267.0</ele><time>2026-05-01T15:22:33.843Z</time></trkpt><trkpt lat="45.7878632" lon="8.6405718"><ele>267.0</ele><time>2026-05-01T15:22:34.843Z</time></trkpt><trkpt lat="45.7880072" lon="8.6406608"><ele>267.0</ele><time>2026-05-01T15:22:35.842Z</time></trkpt><trkpt lat="45.7881347" lon="8.6407501"><ele>267.0</ele><time>2026-05-01T15:22:36.843Z</time></trkpt><trkpt lat="45.7882531" lon="8.6408306"><ele>267.0</ele><time>2026-05-01T15:22:37.843Z</time></trkpt><trkpt lat="45.788369" lon="8.6408954"><ele>267.0</ele><time>2026-05-01T15:22:38.843Z</time></trkpt><trkpt lat="45.7884829" lon="8.6409581"><ele>267.0</ele><time>2026-05-01T15:22:39.843Z</time></trkpt><trkpt lat="45.7886003" lon="8.6409999"><ele>267.0</ele><time>2026-05-01T15:22:40.844Z</time></trkpt><trkpt lat="45.7887225" lon="8.6410099"><ele>267.0</ele><time>2026-05-01T15:22:41.843Z</time></trkpt><trkpt lat="45.7888522" lon="8.6410103"><ele>267.0</ele><time>2026-05-01T15:22:42.843Z</time></trkpt><trkpt lat="45.7889825" lon="8.6410161"><ele>267.0</ele><time>2026-05-01T15:22:43.843Z</time></trkpt><trkpt lat="45.7891127" lon="8.6410392"><ele>267.0</ele><time>2026-05-01T15:22:44.843Z</time></trkpt><trkpt lat="45.7892379" lon="8.6410782"><ele>267.0</ele><time>2026-05-01T15:22:45.843Z</time></trkpt><trkpt lat="45.7893609" lon="8.6411134"><ele>267.5</ele><time>2026-05-01T15:22:46.844Z</time></trkpt><trkpt lat="45.789482" lon="8.6411348"><ele>268.0</ele><time>2026-05-01T15:22:47.843Z</time></trkpt><trkpt lat="45.7896211" lon="8.641124"><ele>268.5</ele><time>2026-05-01T15:22:48.842Z</time></trkpt><trkpt lat="45.7897594" lon="8.6411248"><ele>269.0</ele><time>2026-05-01T15:22:49.843Z</time></trkpt><trkpt lat="45.7898996" lon="8.641111"><ele>269.0</ele><time>2026-05-01T15:22:50.842Z</time></trkpt><trkpt lat="45.7900452" lon="8.641103"><ele>269.0</ele><time>2026-05-01T15:22:51.842Z</time></trkpt><trkpt lat="45.7901955" lon="8.6411002"><ele>269.0</ele><time>2026-05-01T15:22:52.842Z</time></trkpt><trkpt lat="45.7903356" lon="8.6410923"><ele>269.0</ele><time>2026-05-01T15:22:53.843Z</time></trkpt><trkpt lat="45.7904687" lon="8.6410875"><ele>270.75</ele><time>2026-05-01T15:22:54.843Z</time></trkpt><trkpt lat="45.7905964" lon="8.6410761"><ele>272.5</ele><time>2026-05-01T15:22:55.842Z</time></trkpt><trkpt lat="45.7907268" lon="8.6410712"><ele>274.25</ele><time>2026-05-01T15:22:56.842Z</time></trkpt><trkpt lat="45.7908473" lon="8.6410576"><ele>276.0</ele><time>2026-05-01T15:22:57.843Z</time></trkpt><trkpt lat="45.790957" lon="8.6410484"><ele>277.2</ele><time>2026-05-01T15:22:58.843Z</time></trkpt><trkpt lat="45.7910657" lon="8.6410506"><ele>278.40000000000003</ele><time>2026-05-01T15:22:59.843Z</time></trkpt><trkpt lat="45.7911725" lon="8.641054"><ele>279.6</ele><time>2026-05-01T15:23:00.843Z</time></trkpt><trkpt lat="45.7912805" lon="8.6410642"><ele>280.8</ele><time>2026-05-01T15:23:01.843Z</time></trkpt><trkpt lat="45.7913882" lon="8.641077"><ele>282.0</ele><time>2026-05-01T15:23:02.841Z</time></trkpt><trkpt lat="45.7914999" lon="8.6410828"><ele>282.0</ele><time>2026-05-01T15:23:03.843Z</time></trkpt><trkpt lat="45.7916148" lon="8.6410904"><ele>282.0</ele><time>2026-05-01T15:23:04.842Z</time></trkpt><trkpt lat="45.7917267" lon="8.6411044"><ele>282.0</ele><time>2026-05-01T15:23:05.843Z</time></trkpt><trkpt lat="45.7918401" lon="8.6411134"><ele>282.0</ele><time>2026-05-01T15:23:06.843Z</time></trkpt><trkpt lat="45.7919397" lon="8.6411238"><ele>282.0</ele><time>2026-05-01T15:23:07.842Z</time></trkpt><trkpt lat="45.7920284" lon="8.6411279"><ele>283.0</ele><time>2026-05-01T15:23:08.843Z</time></trkpt><trkpt lat="45.7921116" lon="8.6411428"><ele>284.0</ele><time>2026-05-01T15:23:09.842Z</time></trkpt><trkpt lat="45.7921907" lon="8.6411611"><ele>285.0</ele><time>2026-05-01T15:23:10.844Z</time></trkpt><trkpt lat="45.792273" lon="8.6411767"><ele>286.0</ele><time>2026-05-01T15:23:11.843Z</time></trkpt><trkpt lat="45.7923538" lon="8.6412118"><ele>287.0</ele><time>2026-05-01T15:23:12.843Z</time></trkpt><trkpt lat="45.79244" lon="8.641257"><ele>288.0</ele><time>2026-05-01T15:23:13.844Z</time></trkpt><trkpt lat="45.7925237" lon="8.641315"><ele>288.0</ele><time>2026-05-01T15:23:14.842Z</time></trkpt><trkpt lat="45.7926203" lon="8.6413983"><ele>288.0</ele><time>2026-05-01T15:23:15.843Z</time></trkpt><trkpt lat="45.7927227" lon="8.6414793"><ele>288.0</ele><time>2026-05-01T15:23:16.843Z</time></trkpt><trkpt lat="45.7928198" lon="8.6415688"><ele>288.0</ele><time>2026-05-01T15:23:17.842Z</time></trkpt><trkpt lat="45.7929038" lon="8.6416435"><ele>288.0</ele><time>2026-05-01T15:23:18.843Z</time></trkpt><trkpt lat="45.7929938" lon="8.6417201"><ele>286.6</ele><time>2026-05-01T15:23:19.843Z</time></trkpt><trkpt lat="45.7930841" lon="8.641802"><ele>285.20000000000005</ele><time>2026-05-01T15:23:20.843Z</time></trkpt><trkpt lat="45.7931709" lon="8.6418807"><ele>283.8</ele><time>2026-05-01T15:23:21.843Z</time></trkpt><trkpt lat="45.7932486" lon="8.6419635"><ele>282.40000000000003</ele><time>2026-05-01T15:23:22.843Z</time></trkpt><trkpt lat="45.7933269" lon="8.6420364"><ele>281.0</ele><time>2026-05-01T15:23:23.842Z</time></trkpt><trkpt lat="45.7934095" lon="8.6421141"><ele>281.0</ele><time>2026-05-01T15:23:24.843Z</time></trkpt><trkpt lat="45.7934966" lon="8.6422076"><ele>281.0</ele><time>2026-05-01T15:23:25.843Z</time></trkpt><trkpt lat="45.7935884" lon="8.6423002"><ele>281.0</ele><time>2026-05-01T15:23:26.842Z</time></trkpt><trkpt lat="45.7936849" lon="8.6424029"><ele>281.0</ele><time>2026-05-01T15:23:27.843Z</time></trkpt><trkpt lat="45.7937779" lon="8.6425078"><ele>280.5</ele><time>2026-05-01T15:23:28.843Z</time></trkpt><trkpt lat="45.7938701" lon="8.6426132"><ele>280.0</ele><time>2026-05-01T15:23:29.843Z</time></trkpt><trkpt lat="45.7939597" lon="8.6427243"><ele>279.5</ele><time>2026-05-01T15:23:30.843Z</time></trkpt><trkpt lat="45.7940399" lon="8.6428305"><ele>279.0</ele><time>2026-05-01T15:23:31.843Z</time></trkpt><trkpt lat="45.7941184" lon="8.642944"><ele>279.0</ele><time>2026-05-01T15:23:32.843Z</time></trkpt><trkpt lat="45.7941953" lon="8.6430394"><ele>279.0</ele><time>2026-05-01T15:23:33.843Z</time></trkpt><trkpt lat="45.7942798" lon="8.6431342"><ele>279.0</ele><time>2026-05-01T15:23:34.843Z</time></trkpt><trkpt lat="45.7943597" lon="8.6432306"><ele>279.0</ele><time>2026-05-01T15:23:35.843Z</time></trkpt><trkpt lat="45.7944377" lon="8.6433241"><ele>279.0</ele><time>2026-05-01T15:23:36.842Z</time></trkpt><trkpt lat="45.7945268" lon="8.6433884"><ele>278.0</ele><time>2026-05-01T15:23:37.842Z</time></trkpt><trkpt lat="45.7946357" lon="8.6434527"><ele>277.0</ele><time>2026-05-01T15:23:38.842Z</time></trkpt><trkpt lat="45.7947491" lon="8.6434993"><ele>276.0</ele><time>2026-05-01T15:23:39.843Z</time></trkpt><trkpt lat="45.7948665" lon="8.6435424"><ele>275.0</ele><time>2026-05-01T15:23:40.843Z</time></trkpt><trkpt lat="45.7949778" lon="8.64358"><ele>275.0</ele><time>2026-05-01T15:23:41.843Z</time></trkpt><trkpt lat="45.7950883" lon="8.6435929"><ele>275.0</ele><time>2026-05-01T15:23:42.842Z</time></trkpt><trkpt lat="45.7951952" lon="8.6436013"><ele>275.0</ele><time>2026-05-01T15:23:43.843Z</time></trkpt><trkpt lat="45.7952946" lon="8.6435988"><ele>275.0</ele><time>2026-05-01T15:23:44.843Z</time></trkpt><trkpt lat="45.7953861" lon="8.6435955"><ele>275.0</ele><time>2026-05-01T15:23:45.843Z</time></trkpt><trkpt lat="45.795464" lon="8.643587"><ele>275.2</ele><time>2026-05-01T15:23:46.843Z</time></trkpt><trkpt lat="45.7955275" lon="8.6435863"><ele>275.4</ele><time>2026-05-01T15:23:47.843Z</time></trkpt><trkpt lat="45.7956419" lon="8.6435903"><ele>275.6</ele><time>2026-05-01T15:23:49.844Z</time></trkpt><trkpt lat="45.7957028" lon="8.6436139"><ele>275.8</ele><time>2026-05-01T15:23:50.843Z</time></trkpt><trkpt lat="45.7957655" lon="8.6437267"><ele>276.0</ele><time>2026-05-01T15:23:52.842Z</time></trkpt><trkpt lat="45.7957709" lon="8.6438829"><ele>276.1666666666667</ele><time>2026-05-01T15:23:54.843Z</time></trkpt><trkpt lat="45.7957694" lon="8.644057"><ele>276.3333333333333</ele><time>2026-05-01T15:23:56.843Z</time></trkpt><trkpt lat="45.7957705" lon="8.6442002"><ele>276.5</ele><time>2026-05-01T15:23:58.843Z</time></trkpt><trkpt lat="45.7957659" lon="8.6442962"><ele>276.66666666666663</ele><time>2026-05-01T15:24:00.842Z</time></trkpt><trkpt lat="45.7957609" lon="8.6443909"><ele>276.8333333333333</ele><time>2026-05-01T15:24:03.842Z</time></trkpt><trkpt lat="45.7957703" lon="8.6445105"><ele>277.0</ele><time>2026-05-01T15:24:38.843Z</time></trkpt><trkpt lat="45.7958724" lon="8.6445326"><ele>277.3333333333333</ele><time>2026-05-01T15:24:41.843Z</time></trkpt><trkpt lat="45.7959787" lon="8.6444581"><ele>277.66666666666663</ele><time>2026-05-01T15:24:43.843Z</time></trkpt><trkpt lat="45.7960401" lon="8.6444082"><ele>278.0</ele><time>2026-05-01T15:24:44.842Z</time></trkpt><trkpt lat="45.7961004" lon="8.644364"><ele>278.3333333333333</ele><time>2026-05-01T15:24:45.843Z</time></trkpt><trkpt lat="45.7961612" lon="8.6443163"><ele>278.6666666666667</ele><time>2026-05-01T15:24:46.843Z</time></trkpt><trkpt lat="45.7962346" lon="8.6442641"><ele>279.0</ele><time>2026-05-01T15:24:47.843Z</time></trkpt><trkpt lat="45.7963172" lon="8.6442111"><ele>279.0</ele><time>2026-05-01T15:24:48.843Z</time></trkpt><trkpt lat="45.7964059" lon="8.6441439"><ele>279.0</ele><time>2026-05-01T15:24:49.843Z</time></trkpt><trkpt lat="45.7964964" lon="8.6440914"><ele>279.0</ele><time>2026-05-01T15:24:50.843Z</time></trkpt><trkpt lat="45.7965794" lon="8.6440504"><ele>279.0</ele><time>2026-05-01T15:24:51.843Z</time></trkpt><trkpt lat="45.7966524" lon="8.6439992"><ele>279.0</ele><time>2026-05-01T15:24:52.843Z</time></trkpt><trkpt lat="45.7967282" lon="8.6439556"><ele>279.0</ele><time>2026-05-01T15:24:53.843Z</time></trkpt><trkpt lat="45.7968004" lon="8.6439227"><ele>278.3333333333333</ele><time>2026-05-01T15:24:54.843Z</time></trkpt><trkpt lat="45.7968773" lon="8.643867"><ele>277.6666666666667</ele><time>2026-05-01T15:24:55.842Z</time></trkpt><trkpt lat="45.7969492" lon="8.6438092"><ele>277.0</ele><time>2026-05-01T15:24:56.843Z</time></trkpt><trkpt lat="45.797014" lon="8.6437643"><ele>276.33333333333337</ele><time>2026-05-01T15:24:57.843Z</time></trkpt><trkpt lat="45.797069" lon="8.6437201"><ele>275.6666666666667</ele><time>2026-05-01T15:24:58.843Z</time></trkpt><trkpt lat="45.7971685" lon="8.6436679"><ele>275.0</ele><time>2026-05-01T15:25:00.842Z</time></trkpt><trkpt lat="45.7972486" lon="8.6436549"><ele>275.0</ele><time>2026-05-01T15:25:02.842Z</time></trkpt><trkpt lat="45.7973285" lon="8.6437052"><ele>275.0</ele><time>2026-05-01T15:25:05.842Z</time></trkpt><trkpt lat="45.7973953" lon="8.6438271"><ele>275.0</ele><time>2026-05-01T15:25:07.843Z</time></trkpt><trkpt lat="45.797437" lon="8.6439014"><ele>275.0</ele><time>2026-05-01T15:25:08.843Z</time></trkpt><trkpt lat="45.7974888" lon="8.6439841"><ele>275.0</ele><time>2026-05-01T15:25:09.843Z</time></trkpt><trkpt lat="45.7975537" lon="8.6440724"><ele>275.0</ele><time>2026-05-01T15:25:10.843Z</time></trkpt><trkpt lat="45.7976233" lon="8.6441658"><ele>275.0</ele><time>2026-05-01T15:25:11.843Z</time></trkpt><trkpt lat="45.7976834" lon="8.6442652"><ele>275.0</ele><time>2026-05-01T15:25:12.842Z</time></trkpt><trkpt lat="45.7977407" lon="8.6443444"><ele>275.0</ele><time>2026-05-01T15:25:13.843Z</time></trkpt><trkpt lat="45.7978321" lon="8.6444809"><ele>275.0</ele><time>2026-05-01T15:25:15.843Z</time></trkpt><trkpt lat="45.797886" lon="8.6445563"><ele>275.0</ele><time>2026-05-01T15:25:16.843Z</time></trkpt><trkpt lat="45.7979365" lon="8.6446264"><ele>275.0</ele><time>2026-05-01T15:25:17.843Z</time></trkpt><trkpt lat="45.7980003" lon="8.6446812"><ele>274.8</ele><time>2026-05-01T15:25:18.843Z</time></trkpt><trkpt lat="45.7980747" lon="8.6447266"><ele>274.6</ele><time>2026-05-01T15:25:19.842Z</time></trkpt><trkpt lat="45.7981624" lon="8.6447723"><ele>274.4</ele><time>2026-05-01T15:25:20.842Z</time></trkpt><trkpt lat="45.7982533" lon="8.6448194"><ele>274.2</ele><time>2026-05-01T15:25:21.843Z</time></trkpt><trkpt lat="45.7983524" lon="8.6448704"><ele>274.0</ele><time>2026-05-01T15:25:22.843Z</time></trkpt><trkpt lat="45.7984636" lon="8.644927"><ele>274.0</ele><time>2026-05-01T15:25:23.843Z</time></trkpt><trkpt lat="45.7985655" lon="8.6449761"><ele>274.0</ele><time>2026-05-01T15:25:24.843Z</time></trkpt><trkpt lat="45.7986646" lon="8.6450295"><ele>274.0</ele><time>2026-05-01T15:25:25.843Z</time></trkpt><trkpt lat="45.7987585" lon="8.6450934"><ele>274.0</ele><time>2026-05-01T15:25:26.843Z</time></trkpt><trkpt lat="45.7988511" lon="8.64518"><ele>274.0</ele><time>2026-05-01T15:25:27.843Z</time></trkpt><trkpt lat="45.7989397" lon="8.6452932"><ele>273.75</ele><time>2026-05-01T15:25:28.843Z</time></trkpt><trkpt lat="45.7990326" lon="8.6454144"><ele>273.5</ele><time>2026-05-01T15:25:29.842Z</time></trkpt><trkpt lat="45.7991211" lon="8.6455376"><ele>273.25</ele><time>2026-05-01T15:25:30.843Z</time></trkpt><trkpt lat="45.7992079" lon="8.6456667"><ele>273.0</ele><time>2026-05-01T15:25:31.843Z</time></trkpt><trkpt lat="45.7992932" lon="8.6457959"><ele>273.1666666666667</ele><time>2026-05-01T15:25:32.842Z</time></trkpt><trkpt lat="45.7993671" lon="8.6459016"><ele>273.3333333333333</ele><time>2026-05-01T15:25:33.843Z</time></trkpt><trkpt lat="45.7994285" lon="8.6459875"><ele>273.5</ele><time>2026-05-01T15:25:34.842Z</time></trkpt><trkpt lat="45.799473" lon="8.6460514"><ele>273.66666666666663</ele><time>2026-05-01T15:25:35.842Z</time></trkpt><trkpt lat="45.7995354" lon="8.6461476"><ele>273.8333333333333</ele><time>2026-05-01T15:25:37.842Z</time></trkpt><trkpt lat="45.7995811" lon="8.6462181"><ele>274.0</ele><time>2026-05-01T15:25:39.842Z</time></trkpt><trkpt lat="45.7996344" lon="8.6462954"><ele>274.0</ele><time>2026-05-01T15:25:41.843Z</time></trkpt><trkpt lat="45.79973" lon="8.6463004"><ele>274.0</ele><time>2026-05-01T15:25:43.843Z</time></trkpt><trkpt lat="45.7997922" lon="8.6462498"><ele>274.0</ele><time>2026-05-01T15:25:44.843Z</time></trkpt><trkpt lat="45.7998641" lon="8.6462045"><ele>274.0</ele><time>2026-05-01T15:25:45.841Z</time></trkpt><trkpt lat="45.7999484" lon="8.6461589"><ele>274.0</ele><time>2026-05-01T15:25:46.84Z</time></trkpt><trkpt lat="45.8000459" lon="8.6461173"><ele>274.0</ele><time>2026-05-01T15:25:47.842Z</time></trkpt><trkpt lat="45.8001598" lon="8.6460716"><ele>273.5</ele><time>2026-05-01T15:25:48.843Z</time></trkpt><trkpt lat="45.8002832" lon="8.646011"><ele>273.0</ele><time>2026-05-01T15:25:49.842Z</time></trkpt><trkpt lat="45.8003952" lon="8.6459648"><ele>272.5</ele><time>2026-05-01T15:25:50.843Z</time></trkpt><trkpt lat="45.8005102" lon="8.6459173"><ele>272.0</ele><time>2026-05-01T15:25:51.843Z</time></trkpt><trkpt lat="45.8006358" lon="8.6458676"><ele>272.0</ele><time>2026-05-01T15:25:52.843Z</time></trkpt><trkpt lat="45.8007643" lon="8.6458248"><ele>272.0</ele><time>2026-05-01T15:25:53.843Z</time></trkpt><trkpt lat="45.8008945" lon="8.645772"><ele>272.0</ele><time>2026-05-01T15:25:54.841Z</time></trkpt><trkpt lat="45.8010305" lon="8.6457154"><ele>272.0</ele><time>2026-05-01T15:25:55.843Z</time></trkpt><trkpt lat="45.8011665" lon="8.6456577"><ele>271.25</ele><time>2026-05-01T15:25:56.843Z</time></trkpt><trkpt lat="45.8013007" lon="8.6455985"><ele>270.5</ele><time>2026-05-01T15:25:57.843Z</time></trkpt><trkpt lat="45.8014369" lon="8.6455476"><ele>269.75</ele><time>2026-05-01T15:25:58.843Z</time></trkpt><trkpt lat="45.8015657" lon="8.6454933"><ele>269.0</ele><time>2026-05-01T15:25:59.843Z</time></trkpt><trkpt lat="45.8016854" lon="8.6454314"><ele>269.0</ele><time>2026-05-01T15:26:00.843Z</time></trkpt><trkpt lat="45.8018004" lon="8.6453564"><ele>269.0</ele><time>2026-05-01T15:26:01.843Z</time></trkpt><trkpt lat="45.801904" lon="8.645269"><ele>269.0</ele><time>2026-05-01T15:26:02.843Z</time></trkpt><trkpt lat="45.8020007" lon="8.6451812"><ele>269.0</ele><time>2026-05-01T15:26:03.843Z</time></trkpt><trkpt lat="45.8020852" lon="8.6450988"><ele>269.0</ele><time>2026-05-01T15:26:04.843Z</time></trkpt><trkpt lat="45.8021621" lon="8.6450274"><ele>269.0</ele><time>2026-05-01T15:26:05.843Z</time></trkpt><trkpt lat="45.8022292" lon="8.6449617"><ele>269.0</ele><time>2026-05-01T15:26:06.843Z</time></trkpt><trkpt lat="45.8022873" lon="8.6449058"><ele>269.0</ele><time>2026-05-01T15:26:07.843Z</time></trkpt><trkpt lat="45.802344" lon="8.6448646"><ele>269.0</ele><time>2026-05-01T15:26:08.842Z</time></trkpt><trkpt lat="45.802432" lon="8.6449081"><ele>269.0</ele><time>2026-05-01T15:26:10.843Z</time></trkpt><trkpt lat="45.8024677" lon="8.6449859"><ele>269.0</ele><time>2026-05-01T15:26:11.843Z</time></trkpt><trkpt lat="45.8025012" lon="8.6450776"><ele>269.0</ele><time>2026-05-01T15:26:12.841Z</time></trkpt><trkpt lat="45.8025156" lon="8.6451968"><ele>269.0</ele><time>2026-05-01T15:26:13.843Z</time></trkpt><trkpt lat="45.8025109" lon="8.6453276"><ele>269.0</ele><time>2026-05-01T15:26:14.843Z</time></trkpt><trkpt lat="45.8025023" lon="8.6454788"><ele>269.0</ele><time>2026-05-01T15:26:15.843Z</time></trkpt><trkpt lat="45.8024947" lon="8.64564"><ele>269.2</ele><time>2026-05-01T15:26:16.843Z</time></trkpt><trkpt lat="45.8024898" lon="8.6457999"><ele>269.4</ele><time>2026-05-01T15:26:17.843Z</time></trkpt><trkpt lat="45.8024885" lon="8.6459429"><ele>269.6</ele><time>2026-05-01T15:26:18.842Z</time></trkpt><trkpt lat="45.8024807" lon="8.6460746"><ele>269.8</ele><time>2026-05-01T15:26:19.843Z</time></trkpt><trkpt lat="45.8024764" lon="8.6462058"><ele>270.0</ele><time>2026-05-01T15:26:20.842Z</time></trkpt><trkpt lat="45.8024678" lon="8.6463354"><ele>270.4</ele><time>2026-05-01T15:26:21.841Z</time></trkpt><trkpt lat="45.802457" lon="8.6464572"><ele>270.8</ele><time>2026-05-01T15:26:22.841Z</time></trkpt><trkpt lat="45.8024363" lon="8.6465758"><ele>271.2</ele><time>2026-05-01T15:26:23.841Z</time></trkpt><trkpt lat="45.802393" lon="8.6466916"><ele>271.6</ele><time>2026-05-01T15:26:24.843Z</time></trkpt><trkpt lat="45.8023486" lon="8.6468183"><ele>272.0</ele><time>2026-05-01T15:26:25.842Z</time></trkpt><trkpt lat="45.8023027" lon="8.6469314"><ele>272.4</ele><time>2026-05-01T15:26:26.843Z</time></trkpt><trkpt lat="45.8022653" lon="8.6470323"><ele>272.79999999999995</ele><time>2026-05-01T15:26:27.842Z</time></trkpt><trkpt lat="45.8022193" lon="8.6471629"><ele>273.2</ele><time>2026-05-01T15:26:29.843Z</time></trkpt><trkpt lat="45.8021498" lon="8.6472458"><ele>273.59999999999997</ele><time>2026-05-01T15:26:32.842Z</time></trkpt><trkpt lat="45.8020424" lon="8.6471956"><ele>274.0</ele><time>2026-05-01T15:26:34.843Z</time></trkpt><trkpt lat="45.801971" lon="8.6471629"><ele>274.0</ele><time>2026-05-01T15:26:35.84Z</time></trkpt><trkpt lat="45.8018956" lon="8.6471262"><ele>274.0</ele><time>2026-05-01T15:26:36.843Z</time></trkpt><trkpt lat="45.8018163" lon="8.6470942"><ele>274.0</ele><time>2026-05-01T15:26:37.842Z</time></trkpt><trkpt lat="45.8017255" lon="8.6470661"><ele>274.0</ele><time>2026-05-01T15:26:38.842Z</time></trkpt><trkpt lat="45.8016304" lon="8.6470378"><ele>274.0</ele><time>2026-05-01T15:26:39.842Z</time></trkpt><trkpt lat="45.8015381" lon="8.6470145"><ele>274.0</ele><time>2026-05-01T15:26:40.843Z</time></trkpt><trkpt lat="45.8014388" lon="8.647001"><ele>273.8</ele><time>2026-05-01T15:26:41.843Z</time></trkpt><trkpt lat="45.8013443" lon="8.6469949"><ele>273.59999999999997</ele><time>2026-05-01T15:26:42.842Z</time></trkpt><trkpt lat="45.8012421" lon="8.6469914"><ele>273.4</ele><time>2026-05-01T15:26:43.841Z</time></trkpt><trkpt lat="45.801137" lon="8.6469923"><ele>273.2</ele><time>2026-05-01T15:26:44.842Z</time></trkpt><trkpt lat="45.8010257" lon="8.6469989"><ele>273.0</ele><time>2026-05-01T15:26:45.843Z</time></trkpt><trkpt lat="45.8009195" lon="8.6470093"><ele>273.5</ele><time>2026-05-01T15:26:46.842Z</time></trkpt><trkpt lat="45.8008172" lon="8.6470288"><ele>274.0</ele><time>2026-05-01T15:26:47.842Z</time></trkpt><trkpt lat="45.8007271" lon="8.6470403"><ele>274.5</ele><time>2026-05-01T15:26:48.843Z</time></trkpt><trkpt lat="45.8006463" lon="8.6470564"><ele>275.0</ele><time>2026-05-01T15:26:49.843Z</time></trkpt><trkpt lat="45.8005767" lon="8.6470704"><ele>275.5</ele><time>2026-05-01T15:26:50.842Z</time></trkpt><trkpt lat="45.8004779" lon="8.6471071"><ele>276.0</ele><time>2026-05-01T15:26:52.843Z</time></trkpt><trkpt lat="45.8004031" lon="8.6471473"><ele>276.0</ele><time>2026-05-01T15:26:55.841Z</time></trkpt><trkpt lat="45.8003127" lon="8.6471447"><ele>276.0</ele><time>2026-05-01T15:27:03.842Z</time></trkpt><trkpt lat="45.8002394" lon="8.6470526"><ele>276.0</ele><time>2026-05-01T15:27:05.842Z</time></trkpt><trkpt lat="45.8001745" lon="8.6469753"><ele>276.0</ele><time>2026-05-01T15:27:06.842Z</time></trkpt><trkpt lat="45.8001104" lon="8.6468923"><ele>276.0</ele><time>2026-05-01T15:27:07.841Z</time></trkpt><trkpt lat="45.8000462" lon="8.6468105"><ele>276.0</ele><time>2026-05-01T15:27:08.842Z</time></trkpt><trkpt lat="45.7999837" lon="8.6467247"><ele>275.8</ele><time>2026-05-01T15:27:09.842Z</time></trkpt><trkpt lat="45.7999142" lon="8.6466383"><ele>275.6</ele><time>2026-05-01T15:27:10.842Z</time></trkpt><trkpt lat="45.7998409" lon="8.6465458"><ele>275.4</ele><time>2026-05-01T15:27:11.843Z</time></trkpt><trkpt lat="45.7997708" lon="8.6464458"><ele>275.2</ele><time>2026-05-01T15:27:12.843Z</time></trkpt><trkpt lat="45.7997008" lon="8.6463356"><ele>275.0</ele><time>2026-05-01T15:27:13.843Z</time></trkpt><trkpt lat="45.7996271" lon="8.6462216"><ele>274.75</ele><time>2026-05-01T15:27:14.843Z</time></trkpt><trkpt lat="45.7995501" lon="8.6461129"><ele>274.5</ele><time>2026-05-01T15:27:15.843Z</time></trkpt><trkpt lat="45.7994687" lon="8.6459851"><ele>274.25</ele><time>2026-05-01T15:27:16.842Z</time></trkpt><trkpt lat="45.7993842" lon="8.6458514"><ele>274.0</ele><time>2026-05-01T15:27:17.843Z</time></trkpt><trkpt lat="45.7992949" lon="8.6457141"><ele>274.0</ele><time>2026-05-01T15:27:18.842Z</time></trkpt><trkpt lat="45.7992068" lon="8.6455812"><ele>274.0</ele><time>2026-05-01T15:27:19.843Z</time></trkpt><trkpt lat="45.799125" lon="8.6454602"><ele>274.0</ele><time>2026-05-01T15:27:20.842Z</time></trkpt><trkpt lat="45.7990442" lon="8.6453413"><ele>274.0</ele><time>2026-05-01T15:27:21.842Z</time></trkpt><trkpt lat="45.7989532" lon="8.6452263"><ele>274.0</ele><time>2026-05-01T15:27:22.841Z</time></trkpt><trkpt lat="45.7988669" lon="8.6451308"><ele>274.0</ele><time>2026-05-01T15:27:23.842Z</time></trkpt><trkpt lat="45.7987705" lon="8.6450408"><ele>274.0</ele><time>2026-05-01T15:27:24.842Z</time></trkpt><trkpt lat="45.7986705" lon="8.6449751"><ele>274.0</ele><time>2026-05-01T15:27:25.843Z</time></trkpt><trkpt lat="45.7985673" lon="8.6449186"><ele>274.0</ele><time>2026-05-01T15:27:26.843Z</time></trkpt><trkpt lat="45.7984686" lon="8.6448679"><ele>274.0</ele><time>2026-05-01T15:27:27.843Z</time></trkpt><trkpt lat="45.7983798" lon="8.6448185"><ele>274.0</ele><time>2026-05-01T15:27:28.843Z</time></trkpt><trkpt lat="45.7983" lon="8.6447786"><ele>274.0</ele><time>2026-05-01T15:27:29.843Z</time></trkpt><trkpt lat="45.7982301" lon="8.6447423"><ele>274.0</ele><time>2026-05-01T15:27:30.842Z</time></trkpt><trkpt lat="45.7981268" lon="8.6446431"><ele>274.0</ele><time>2026-05-01T15:27:32.842Z</time></trkpt><trkpt lat="45.798036" lon="8.6445127"><ele>274.0</ele><time>2026-05-01T15:27:34.843Z</time></trkpt><trkpt lat="45.797949" lon="8.6444812"><ele>274.0</ele><time>2026-05-01T15:27:35.843Z</time></trkpt><trkpt lat="45.7978738" lon="8.6444201"><ele>274.0</ele><time>2026-05-01T15:27:36.843Z</time></trkpt><trkpt lat="45.7978058" lon="8.6443429"><ele>274.0</ele><time>2026-05-01T15:27:37.842Z</time></trkpt><trkpt lat="45.797733" lon="8.644253"><ele>274.0</ele><time>2026-05-01T15:27:38.843Z</time></trkpt><trkpt lat="45.7976569" lon="8.6441495"><ele>274.16666666666663</ele><time>2026-05-01T15:27:39.842Z</time></trkpt><trkpt lat="45.7975749" lon="8.6440509"><ele>274.3333333333333</ele><time>2026-05-01T15:27:40.843Z</time></trkpt><trkpt lat="45.7975086" lon="8.6439551"><ele>274.5</ele><time>2026-05-01T15:27:41.843Z</time></trkpt><trkpt lat="45.7974432" lon="8.6438665"><ele>274.6666666666667</ele><time>2026-05-01T15:27:42.842Z</time></trkpt><trkpt lat="45.7973932" lon="8.643779"><ele>274.83333333333337</ele><time>2026-05-01T15:27:43.843Z</time></trkpt><trkpt lat="45.7973658" lon="8.6436816"><ele>275.0</ele><time>2026-05-01T15:27:44.843Z</time></trkpt><trkpt lat="45.7973655" lon="8.6435501"><ele>275.0</ele><time>2026-05-01T15:27:45.842Z</time></trkpt><trkpt lat="45.7973867" lon="8.6434358"><ele>275.0</ele><time>2026-05-01T15:27:46.843Z</time></trkpt><trkpt lat="45.7974271" lon="8.6433261"><ele>275.0</ele><time>2026-05-01T15:27:47.843Z</time></trkpt><trkpt lat="45.7974874" lon="8.6432167"><ele>275.0</ele><time>2026-05-01T15:27:48.842Z</time></trkpt><trkpt lat="45.7975557" lon="8.643103"><ele>275.0</ele><time>2026-05-01T15:27:49.843Z</time></trkpt><trkpt lat="45.7976274" lon="8.6429815"><ele>275.75</ele><time>2026-05-01T15:27:50.841Z</time></trkpt><trkpt lat="45.7976969" lon="8.6428483"><ele>276.5</ele><time>2026-05-01T15:27:51.843Z</time></trkpt><trkpt lat="45.7977598" lon="8.6426962"><ele>277.25</ele><time>2026-05-01T15:27:52.843Z</time></trkpt><trkpt lat="45.7978164" lon="8.6425454"><ele>278.0</ele><time>2026-05-01T15:27:53.842Z</time></trkpt><trkpt lat="45.7978687" lon="8.6424088"><ele>278.0</ele><time>2026-05-01T15:27:54.843Z</time></trkpt><trkpt lat="45.7979168" lon="8.6422527"><ele>278.0</ele><time>2026-05-01T15:27:55.843Z</time></trkpt><trkpt lat="45.7979562" lon="8.6421041"><ele>278.0</ele><time>2026-05-01T15:27:56.842Z</time></trkpt><trkpt lat="45.797959" lon="8.6419274"><ele>278.0</ele><time>2026-05-01T15:27:57.843Z</time></trkpt><trkpt lat="45.7979476" lon="8.6417513"><ele>276.5</ele><time>2026-05-01T15:27:58.843Z</time></trkpt><trkpt lat="45.797922" lon="8.6415885"><ele>275.0</ele><time>2026-05-01T15:27:59.842Z</time></trkpt><trkpt lat="45.797857" lon="8.6414018"><ele>273.5</ele><time>2026-05-01T15:28:00.841Z</time></trkpt><trkpt lat="45.7977965" lon="8.6412167"><ele>272.0</ele><time>2026-05-01T15:28:01.842Z</time></trkpt><trkpt lat="45.7977338" lon="8.6410268"><ele>271.25</ele><time>2026-05-01T15:28:02.842Z</time></trkpt><trkpt lat="45.7976727" lon="8.6408457"><ele>270.5</ele><time>2026-05-01T15:28:03.842Z</time></trkpt><trkpt lat="45.7976162" lon="8.6406702"><ele>269.75</ele><time>2026-05-01T15:28:04.843Z</time></trkpt><trkpt lat="45.7975801" lon="8.640493"><ele>269.0</ele><time>2026-05-01T15:28:05.843Z</time></trkpt><trkpt lat="45.7975671" lon="8.6403204"><ele>266.75</ele><time>2026-05-01T15:28:06.843Z</time></trkpt><trkpt lat="45.7975696" lon="8.640145"><ele>264.5</ele><time>2026-05-01T15:28:07.843Z</time></trkpt><trkpt lat="45.7975837" lon="8.6399708"><ele>262.25</ele><time>2026-05-01T15:28:08.843Z</time></trkpt><trkpt lat="45.7976091" lon="8.6397699"><ele>260.0</ele><time>2026-05-01T15:28:09.841Z</time></trkpt><trkpt lat="45.7976411" lon="8.6395647"><ele>260.33333333333337</ele><time>2026-05-01T15:28:10.843Z</time></trkpt><trkpt lat="45.7976736" lon="8.639347"><ele>260.6666666666667</ele><time>2026-05-01T15:28:11.842Z</time></trkpt><trkpt lat="45.797707" lon="8.6391196"><ele>261.0</ele><time>2026-05-01T15:28:12.843Z</time></trkpt><trkpt lat="45.7977421" lon="8.638891"><ele>261.0</ele><time>2026-05-01T15:28:13.843Z</time></trkpt><trkpt lat="45.7977773" lon="8.638651"><ele>261.0</ele><time>2026-05-01T15:28:14.843Z</time></trkpt><trkpt lat="45.797812" lon="8.6383968"><ele>261.0</ele><time>2026-05-01T15:28:15.843Z</time></trkpt><trkpt lat="45.7978483" lon="8.6381409"><ele>259.0</ele><time>2026-05-01T15:28:16.843Z</time></trkpt><trkpt lat="45.7978827" lon="8.6378821"><ele>257.0</ele><time>2026-05-01T15:28:17.842Z</time></trkpt><trkpt lat="45.7979243" lon="8.6376175"><ele>255.0</ele><time>2026-05-01T15:28:18.84Z</time></trkpt><trkpt lat="45.7979609" lon="8.6373578"><ele>252.66666666666669</ele><time>2026-05-01T15:28:19.842Z</time></trkpt><trkpt lat="45.797998" lon="8.6371062"><ele>250.33333333333334</ele><time>2026-05-01T15:28:20.842Z</time></trkpt><trkpt lat="45.7980399" lon="8.6368788"><ele>248.0</ele><time>2026-05-01T15:28:21.843Z</time></trkpt><trkpt lat="45.7980919" lon="8.636662"><ele>246.0</ele><time>2026-05-01T15:28:22.843Z</time></trkpt><trkpt lat="45.798156" lon="8.6364567"><ele>244.0</ele><time>2026-05-01T15:28:23.843Z</time></trkpt><trkpt lat="45.7982309" lon="8.6362554"><ele>242.0</ele><time>2026-05-01T15:28:24.843Z</time></trkpt><trkpt lat="45.7983162" lon="8.6360487"><ele>242.0</ele><time>2026-05-01T15:28:25.843Z</time></trkpt><trkpt lat="45.7984123" lon="8.6358452"><ele>242.0</ele><time>2026-05-01T15:28:26.843Z</time></trkpt><trkpt lat="45.7985103" lon="8.6356381"><ele>242.0</ele><time>2026-05-01T15:28:27.842Z</time></trkpt><trkpt lat="45.7986109" lon="8.6354339"><ele>239.33333333333334</ele><time>2026-05-01T15:28:28.843Z</time></trkpt><trkpt lat="45.7987095" lon="8.6352354"><ele>236.66666666666669</ele><time>2026-05-01T15:28:29.843Z</time></trkpt><trkpt lat="45.7988143" lon="8.6350333"><ele>234.0</ele><time>2026-05-01T15:28:30.843Z</time></trkpt><trkpt lat="45.7989128" lon="8.6348241"><ele>234.0</ele><time>2026-05-01T15:28:31.842Z</time></trkpt><trkpt lat="45.7990209" lon="8.6346151"><ele>234.0</ele><time>2026-05-01T15:28:32.843Z</time></trkpt><trkpt lat="45.7991304" lon="8.6344052"><ele>234.0</ele><time>2026-05-01T15:28:33.843Z</time></trkpt><trkpt lat="45.7992328" lon="8.6341962"><ele>233.33333333333331</ele><time>2026-05-01T15:28:34.843Z</time></trkpt><trkpt lat="45.7993409" lon="8.6339895"><ele>232.66666666666666</ele><time>2026-05-01T15:28:35.842Z</time></trkpt><trkpt lat="45.7994441" lon="8.6337803"><ele>232.0</ele><time>2026-05-01T15:28:36.843Z</time></trkpt><trkpt lat="45.7995537" lon="8.6335751"><ele>231.66666666666666</ele><time>2026-05-01T15:28:37.842Z</time></trkpt><trkpt lat="45.7996592" lon="8.6333598"><ele>231.33333333333331</ele><time>2026-05-01T15:28:38.843Z</time></trkpt><trkpt lat="45.7997676" lon="8.6331498"><ele>231.0</ele><time>2026-05-01T15:28:39.843Z</time></trkpt><trkpt lat="45.7998714" lon="8.6329324"><ele>231.0</ele><time>2026-05-01T15:28:40.843Z</time></trkpt><trkpt lat="45.7999732" lon="8.6327099"><ele>231.0</ele><time>2026-05-01T15:28:41.843Z</time></trkpt><trkpt lat="45.8000779" lon="8.6324945"><ele>231.0</ele><time>2026-05-01T15:28:42.842Z</time></trkpt><trkpt lat="45.8001878" lon="8.6322794"><ele>231.0</ele><time>2026-05-01T15:28:43.842Z</time></trkpt><trkpt lat="45.800296" lon="8.6320665"><ele>231.0</ele><time>2026-05-01T15:28:44.843Z</time></trkpt><trkpt lat="45.8004015" lon="8.6318519"><ele>231.0</ele><time>2026-05-01T15:28:45.843Z</time></trkpt><trkpt lat="45.8005062" lon="8.6316531"><ele>230.33333333333331</ele><time>2026-05-01T15:28:46.842Z</time></trkpt><trkpt lat="45.8006104" lon="8.6314684"><ele>229.66666666666666</ele><time>2026-05-01T15:28:47.843Z</time></trkpt><trkpt lat="45.8007184" lon="8.6312985"><ele>229.0</ele><time>2026-05-01T15:28:48.843Z</time></trkpt><trkpt lat="45.8008372" lon="8.6311444"><ele>229.0</ele><time>2026-05-01T15:28:49.843Z</time></trkpt><trkpt lat="45.8009668" lon="8.6310087"><ele>229.0</ele><time>2026-05-01T15:28:50.842Z</time></trkpt><trkpt lat="45.8011023" lon="8.6308889"><ele>229.0</ele><time>2026-05-01T15:28:51.843Z</time></trkpt><trkpt lat="45.8012456" lon="8.6307813"><ele>231.66666666666666</ele><time>2026-05-01T15:28:52.842Z</time></trkpt><trkpt lat="45.8013931" lon="8.6306916"><ele>234.33333333333331</ele><time>2026-05-01T15:28:53.842Z</time></trkpt><trkpt lat="45.8015437" lon="8.630603"><ele>237.0</ele><time>2026-05-01T15:28:54.843Z</time></trkpt><trkpt lat="45.8016969" lon="8.6305214"><ele>236.0</ele><time>2026-05-01T15:28:55.842Z</time></trkpt><trkpt lat="45.8018539" lon="8.6304446"><ele>235.0</ele><time>2026-05-01T15:28:56.842Z</time></trkpt><trkpt lat="45.8020095" lon="8.6303643"><ele>234.0</ele><time>2026-05-01T15:28:57.842Z</time></trkpt><trkpt lat="45.8021683" lon="8.6302845"><ele>234.0</ele><time>2026-05-01T15:28:58.842Z</time></trkpt><trkpt lat="45.8023189" lon="8.6302085"><ele>234.0</ele><time>2026-05-01T15:28:59.843Z</time></trkpt><trkpt lat="45.8024638" lon="8.6301403"><ele>234.0</ele><time>2026-05-01T15:29:00.842Z</time></trkpt><trkpt lat="45.8025941" lon="8.6300751"><ele>233.6</ele><time>2026-05-01T15:29:01.843Z</time></trkpt><trkpt lat="45.8027114" lon="8.630003"><ele>233.2</ele><time>2026-05-01T15:29:02.842Z</time></trkpt><trkpt lat="45.8028146" lon="8.6299322"><ele>232.79999999999998</ele><time>2026-05-01T15:29:03.842Z</time></trkpt><trkpt lat="45.8029086" lon="8.6298643"><ele>232.39999999999998</ele><time>2026-05-01T15:29:04.842Z</time></trkpt><trkpt lat="45.8029915" lon="8.6297992"><ele>232.0</ele><time>2026-05-01T15:29:05.843Z</time></trkpt><trkpt lat="45.8030548" lon="8.6297534"><ele>231.99999999999997</ele><time>2026-05-01T15:29:06.843Z</time></trkpt><trkpt lat="45.8031183" lon="8.6297138"><ele>232.0</ele><time>2026-05-01T15:29:07.842Z</time></trkpt><trkpt lat="45.8032323" lon="8.6296451"><ele>232.0</ele><time>2026-05-01T15:29:09.843Z</time></trkpt><trkpt lat="45.8032968" lon="8.6296136"><ele>232.0</ele><time>2026-05-01T15:29:10.842Z</time></trkpt><trkpt lat="45.8033604" lon="8.6295848"><ele>231.99999999999997</ele><time>2026-05-01T15:29:11.843Z</time></trkpt><trkpt lat="45.8034217" lon="8.6295206"><ele>232.0</ele><time>2026-05-01T15:29:12.842Z</time></trkpt><trkpt lat="45.8034799" lon="8.6294445"><ele>232.99999999999997</ele><time>2026-05-01T15:29:13.842Z</time></trkpt><trkpt lat="45.8035253" lon="8.629339"><ele>234.0</ele><time>2026-05-01T15:29:14.843Z</time></trkpt><trkpt lat="45.8035623" lon="8.6292173"><ele>235.0</ele><time>2026-05-01T15:29:15.843Z</time></trkpt><trkpt lat="45.8036049" lon="8.6291117"><ele>236.0</ele><time>2026-05-01T15:29:16.841Z</time></trkpt><trkpt lat="45.8036511" lon="8.6290081"><ele>236.99999999999997</ele><time>2026-05-01T15:29:17.842Z</time></trkpt><trkpt lat="45.8037146" lon="8.6289234"><ele>238.0</ele><time>2026-05-01T15:29:18.842Z</time></trkpt><trkpt lat="45.8037818" lon="8.6288344"><ele>237.99999999999997</ele><time>2026-05-01T15:29:19.843Z</time></trkpt><trkpt lat="45.8038454" lon="8.628753"><ele>238.0</ele><time>2026-05-01T15:29:20.842Z</time></trkpt><trkpt lat="45.8039074" lon="8.6286868"><ele>238.0</ele><time>2026-05-01T15:29:21.842Z</time></trkpt><trkpt lat="45.8039728" lon="8.6286116"><ele>238.0</ele><time>2026-05-01T15:29:22.843Z</time></trkpt><trkpt lat="45.8040318" lon="8.628537"><ele>237.99999999999997</ele><time>2026-05-01T15:29:23.842Z</time></trkpt><trkpt lat="45.8040992" lon="8.6284566"><ele>238.0</ele><time>2026-05-01T15:29:24.843Z</time></trkpt><trkpt lat="45.8041698" lon="8.6283726"><ele>237.60000000000002</ele><time>2026-05-01T15:29:25.843Z</time></trkpt><trkpt lat="45.8042466" lon="8.6282757"><ele>237.20000000000002</ele><time>2026-05-01T15:29:26.841Z</time></trkpt><trkpt lat="45.8043142" lon="8.6281704"><ele>236.8</ele><time>2026-05-01T15:29:27.842Z</time></trkpt><trkpt lat="45.8043923" lon="8.6280744"><ele>236.4</ele><time>2026-05-01T15:29:28.842Z</time></trkpt><trkpt lat="45.8044698" lon="8.6279853"><ele>236.0</ele><time>2026-05-01T15:29:29.842Z</time></trkpt><trkpt lat="45.8045451" lon="8.6278857"><ele>236.60000000000002</ele><time>2026-05-01T15:29:30.842Z</time></trkpt><trkpt lat="45.8046243" lon="8.6277906"><ele>237.20000000000002</ele><time>2026-05-01T15:29:31.842Z</time></trkpt><trkpt lat="45.8047095" lon="8.6276869"><ele>237.79999999999998</ele><time>2026-05-01T15:29:32.842Z</time></trkpt><trkpt lat="45.8047941" lon="8.6275856"><ele>238.39999999999998</ele><time>2026-05-01T15:29:33.842Z</time></trkpt><trkpt lat="45.804874" lon="8.6274693"><ele>239.0</ele><time>2026-05-01T15:29:34.84Z</time></trkpt><trkpt lat="45.8049649" lon="8.6273484"><ele>239.0</ele><time>2026-05-01T15:29:35.842Z</time></trkpt><trkpt lat="45.8050657" lon="8.6272071"><ele>239.0</ele><time>2026-05-01T15:29:36.843Z</time></trkpt><trkpt lat="45.8051946" lon="8.6270449"><ele>239.0</ele><time>2026-05-01T15:29:37.841Z</time></trkpt><trkpt lat="45.8053534" lon="8.626873"><ele>236.66666666666669</ele><time>2026-05-01T15:29:38.843Z</time></trkpt><trkpt lat="45.8055118" lon="8.6266949"><ele>234.33333333333331</ele><time>2026-05-01T15:29:39.842Z</time></trkpt><trkpt lat="45.8056601" lon="8.6265083"><ele>232.0</ele><time>2026-05-01T15:29:40.842Z</time></trkpt><trkpt lat="45.8057994" lon="8.626333"><ele>232.0</ele><time>2026-05-01T15:29:41.843Z</time></trkpt><trkpt lat="45.8059363" lon="8.6261636"><ele>232.0</ele><time>2026-05-01T15:29:42.842Z</time></trkpt><trkpt lat="45.8060654" lon="8.6260088"><ele>232.0</ele><time>2026-05-01T15:29:43.842Z</time></trkpt><trkpt lat="45.8061905" lon="8.6258577"><ele>229.0</ele><time>2026-05-01T15:29:44.842Z</time></trkpt><trkpt lat="45.8062973" lon="8.6257"><ele>226.0</ele><time>2026-05-01T15:29:45.842Z</time></trkpt><trkpt lat="45.8063996" lon="8.6255353"><ele>223.0</ele><time>2026-05-01T15:29:46.84Z</time></trkpt><trkpt lat="45.806495" lon="8.6253475"><ele>223.33333333333331</ele><time>2026-05-01T15:29:47.842Z</time></trkpt><trkpt lat="45.8065856" lon="8.6251474"><ele>223.66666666666669</ele><time>2026-05-01T15:29:48.842Z</time></trkpt><trkpt lat="45.8066679" lon="8.6249433"><ele>224.0</ele><time>2026-05-01T15:29:49.841Z</time></trkpt><trkpt lat="45.8067495" lon="8.6247553"><ele>223.0</ele><time>2026-05-01T15:29:50.841Z</time></trkpt><trkpt lat="45.8068279" lon="8.6245774"><ele>222.0</ele><time>2026-05-01T15:29:51.842Z</time></trkpt><trkpt lat="45.8069004" lon="8.6244184"><ele>221.0</ele><time>2026-05-01T15:29:52.843Z</time></trkpt><trkpt lat="45.8069744" lon="8.6242685"><ele>220.0</ele><time>2026-05-01T15:29:53.843Z</time></trkpt><trkpt lat="45.8070494" lon="8.6241353"><ele>219.5</ele><time>2026-05-01T15:29:54.843Z</time></trkpt><trkpt lat="45.8071414" lon="8.6240188"><ele>219.0</ele><time>2026-05-01T15:29:55.842Z</time></trkpt><trkpt lat="45.8072547" lon="8.623937"><ele>218.5</ele><time>2026-05-01T15:29:56.841Z</time></trkpt><trkpt lat="45.807385" lon="8.6238622"><ele>218.0</ele><time>2026-05-01T15:29:57.842Z</time></trkpt><trkpt lat="45.8075232" lon="8.6237898"><ele>218.0</ele><time>2026-05-01T15:29:58.842Z</time></trkpt><trkpt lat="45.807659" lon="8.6237134"><ele>218.0</ele><time>2026-05-01T15:29:59.841Z</time></trkpt><trkpt lat="45.8077953" lon="8.6236345"><ele>218.0</ele><time>2026-05-01T15:30:00.842Z</time></trkpt><trkpt lat="45.807935" lon="8.6235563"><ele>218.0</ele><time>2026-05-01T15:30:01.841Z</time></trkpt><trkpt lat="45.8080674" lon="8.6234844"><ele>217.75</ele><time>2026-05-01T15:30:02.842Z</time></trkpt><trkpt lat="45.8081973" lon="8.6234132"><ele>217.5</ele><time>2026-05-01T15:30:03.842Z</time></trkpt><trkpt lat="45.8083134" lon="8.6233432"><ele>217.25</ele><time>2026-05-01T15:30:04.842Z</time></trkpt><trkpt lat="45.8084187" lon="8.6232597"><ele>217.0</ele><time>2026-05-01T15:30:05.842Z</time></trkpt><trkpt lat="45.8085135" lon="8.6231608"><ele>216.75</ele><time>2026-05-01T15:30:06.843Z</time></trkpt><trkpt lat="45.8085978" lon="8.6230383"><ele>216.5</ele><time>2026-05-01T15:30:07.842Z</time></trkpt><trkpt lat="45.808683" lon="8.6229023"><ele>216.25</ele><time>2026-05-01T15:30:08.842Z</time></trkpt><trkpt lat="45.8087833" lon="8.6227465"><ele>216.0</ele><time>2026-05-01T15:30:09.843Z</time></trkpt><trkpt lat="45.8088874" lon="8.6225814"><ele>215.0</ele><time>2026-05-01T15:30:10.842Z</time></trkpt><trkpt lat="45.809003" lon="8.6223929"><ele>214.0</ele><time>2026-05-01T15:30:11.842Z</time></trkpt><trkpt lat="45.809116" lon="8.6222279"><ele>213.0</ele><time>2026-05-01T15:30:12.842Z</time></trkpt><trkpt lat="45.8092217" lon="8.6220675"><ele>213.0</ele><time>2026-05-01T15:30:13.842Z</time></trkpt><trkpt lat="45.8093231" lon="8.6219172"><ele>213.0</ele><time>2026-05-01T15:30:14.843Z</time></trkpt><trkpt lat="45.8094197" lon="8.6217749"><ele>213.0</ele><time>2026-05-01T15:30:15.843Z</time></trkpt><trkpt lat="45.809514" lon="8.6216305"><ele>213.0</ele><time>2026-05-01T15:30:16.843Z</time></trkpt><trkpt lat="45.8096084" lon="8.6214806"><ele>212.5</ele><time>2026-05-01T15:30:17.843Z</time></trkpt><trkpt lat="45.8097034" lon="8.6213285"><ele>212.0</ele><time>2026-05-01T15:30:18.843Z</time></trkpt><trkpt lat="45.8098008" lon="8.6211916"><ele>211.5</ele><time>2026-05-01T15:30:19.842Z</time></trkpt><trkpt lat="45.809902" lon="8.6210695"><ele>211.0</ele><time>2026-05-01T15:30:20.842Z</time></trkpt><trkpt lat="45.8100008" lon="8.6209724"><ele>211.0</ele><time>2026-05-01T15:30:21.842Z</time></trkpt><trkpt lat="45.8100959" lon="8.620876"><ele>211.0</ele><time>2026-05-01T15:30:22.842Z</time></trkpt><trkpt lat="45.810188" lon="8.6207899"><ele>211.0</ele><time>2026-05-01T15:30:23.843Z</time></trkpt><trkpt lat="45.8102717" lon="8.620708"><ele>211.0</ele><time>2026-05-01T15:30:24.842Z</time></trkpt><trkpt lat="45.8103484" lon="8.6206345"><ele>211.0</ele><time>2026-05-01T15:30:25.842Z</time></trkpt><trkpt lat="45.8104326" lon="8.6205525"><ele>211.0</ele><time>2026-05-01T15:30:26.843Z</time></trkpt><trkpt lat="45.8105268" lon="8.6204672"><ele>211.0</ele><time>2026-05-01T15:30:27.842Z</time></trkpt><trkpt lat="45.810613" lon="8.6203822"><ele>211.0</ele><time>2026-05-01T15:30:28.843Z</time></trkpt><trkpt lat="45.8106927" lon="8.6203068"><ele>211.0</ele><time>2026-05-01T15:30:29.842Z</time></trkpt><trkpt lat="45.8107669" lon="8.6202362"><ele>211.0</ele><time>2026-05-01T15:30:30.841Z</time></trkpt><trkpt lat="45.8108339" lon="8.620171"><ele>210.99999999999997</ele><time>2026-05-01T15:30:31.842Z</time></trkpt><trkpt lat="45.8108867" lon="8.6201001"><ele>211.0</ele><time>2026-05-01T15:30:32.842Z</time></trkpt><trkpt lat="45.8109441" lon="8.6200226"><ele>211.0</ele><time>2026-05-01T15:30:33.842Z</time></trkpt><trkpt lat="45.811014" lon="8.6199553"><ele>211.0</ele><time>2026-05-01T15:30:34.841Z</time></trkpt><trkpt lat="45.8110927" lon="8.6198828"><ele>210.99999999999997</ele><time>2026-05-01T15:30:35.843Z</time></trkpt><trkpt lat="45.811178" lon="8.6198141"><ele>211.0</ele><time>2026-05-01T15:30:36.842Z</time></trkpt><trkpt lat="45.811265" lon="8.6197632"><ele>211.0</ele><time>2026-05-01T15:30:37.842Z</time></trkpt><trkpt lat="45.811344" lon="8.6197266"><ele>211.0</ele><time>2026-05-01T15:30:38.842Z</time></trkpt><trkpt lat="45.8114184" lon="8.6196925"><ele>211.0</ele><time>2026-05-01T15:30:39.841Z</time></trkpt><trkpt lat="45.8114858" lon="8.6196664"><ele>211.0</ele><time>2026-05-01T15:30:40.842Z</time></trkpt><trkpt lat="45.8115972" lon="8.6196205"><ele>211.0</ele><time>2026-05-01T15:30:42.842Z</time></trkpt><trkpt lat="45.8117018" lon="8.6195832"><ele>210.99999999999997</ele><time>2026-05-01T15:30:44.842Z</time></trkpt><trkpt lat="45.811819" lon="8.6195234"><ele>211.0</ele><time>2026-05-01T15:30:46.842Z</time></trkpt><trkpt lat="45.8118844" lon="8.6195171"><ele>211.0</ele><time>2026-05-01T15:30:47.841Z</time></trkpt><trkpt lat="45.8119496" lon="8.6195419"><ele>211.0</ele><time>2026-05-01T15:30:48.842Z</time></trkpt><trkpt lat="45.8120152" lon="8.6195702"><ele>210.99999999999997</ele><time>2026-05-01T15:30:49.841Z</time></trkpt><trkpt lat="45.8121251" lon="8.6195872"><ele>211.0</ele><time>2026-05-01T15:30:51.842Z</time></trkpt><trkpt lat="45.8121975" lon="8.6194465"><ele>212.0</ele><time>2026-05-01T15:30:53.842Z</time></trkpt><trkpt lat="45.812202" lon="8.6193416"><ele>213.0</ele><time>2026-05-01T15:30:54.842Z</time></trkpt><trkpt lat="45.8122022" lon="8.6192048"><ele>214.00000000000003</ele><time>2026-05-01T15:30:55.842Z</time></trkpt><trkpt lat="45.8122385" lon="8.6190704"><ele>215.0</ele><time>2026-05-01T15:30:56.842Z</time></trkpt><trkpt lat="45.8122728" lon="8.6189412"><ele>216.0</ele><time>2026-05-01T15:30:57.841Z</time></trkpt><trkpt lat="45.8123066" lon="8.6188032"><ele>216.0</ele><time>2026-05-01T15:30:58.842Z</time></trkpt><trkpt lat="45.8123438" lon="8.6186613"><ele>216.0</ele><time>2026-05-01T15:30:59.841Z</time></trkpt><trkpt lat="45.8123865" lon="8.6185114"><ele>216.0</ele><time>2026-05-01T15:31:00.842Z</time></trkpt><trkpt lat="45.8124399" lon="8.6183411"><ele>216.0</ele><time>2026-05-01T15:31:01.842Z</time></trkpt><trkpt lat="45.8124861" lon="8.6181704"><ele>216.0</ele><time>2026-05-01T15:31:02.843Z</time></trkpt><trkpt lat="45.8125225" lon="8.6179869"><ele>216.0</ele><time>2026-05-01T15:31:03.841Z</time></trkpt><trkpt lat="45.8125555" lon="8.6178033"><ele>216.0</ele><time>2026-05-01T15:31:04.842Z</time></trkpt><trkpt lat="45.8125938" lon="8.617642"><ele>216.0</ele><time>2026-05-01T15:31:05.843Z</time></trkpt><trkpt lat="45.8126362" lon="8.617472"><ele>215.25</ele><time>2026-05-01T15:31:06.842Z</time></trkpt><trkpt lat="45.8126787" lon="8.617301"><ele>214.5</ele><time>2026-05-01T15:31:07.842Z</time></trkpt><trkpt lat="45.81272" lon="8.6171298"><ele>213.75</ele><time>2026-05-01T15:31:08.843Z</time></trkpt><trkpt lat="45.8127666" lon="8.6169632"><ele>213.0</ele><time>2026-05-01T15:31:09.843Z</time></trkpt><trkpt lat="45.8128039" lon="8.6167881"><ele>213.0</ele><time>2026-05-01T15:31:10.842Z</time></trkpt><trkpt lat="45.8128469" lon="8.6166258"><ele>213.0</ele><time>2026-05-01T15:31:11.842Z</time></trkpt><trkpt lat="45.8128893" lon="8.6164603"><ele>213.0</ele><time>2026-05-01T15:31:12.842Z</time></trkpt><trkpt lat="45.8129303" lon="8.6162996"><ele>213.0</ele><time>2026-05-01T15:31:13.842Z</time></trkpt><trkpt lat="45.8129729" lon="8.6161427"><ele>213.25</ele><time>2026-05-01T15:31:14.843Z</time></trkpt><trkpt lat="45.8130159" lon="8.6159874"><ele>213.5</ele><time>2026-05-01T15:31:15.843Z</time></trkpt><trkpt lat="45.8130571" lon="8.6158265"><ele>213.75</ele><time>2026-05-01T15:31:16.842Z</time></trkpt><trkpt lat="45.8130993" lon="8.6156731"><ele>214.0</ele><time>2026-05-01T15:31:17.84Z</time></trkpt><trkpt lat="45.8131398" lon="8.6155211"><ele>214.0</ele><time>2026-05-01T15:31:18.842Z</time></trkpt><trkpt lat="45.8131809" lon="8.6153698"><ele>214.0</ele><time>2026-05-01T15:31:19.842Z</time></trkpt><trkpt lat="45.8132208" lon="8.615217"><ele>214.0</ele><time>2026-05-01T15:31:20.841Z</time></trkpt><trkpt lat="45.8132602" lon="8.6150611"><ele>214.0</ele><time>2026-05-01T15:31:21.843Z</time></trkpt><trkpt lat="45.8133002" lon="8.6149108"><ele>214.2</ele><time>2026-05-01T15:31:22.841Z</time></trkpt><trkpt lat="45.813338" lon="8.6147624"><ele>214.39999999999998</ele><time>2026-05-01T15:31:23.842Z</time></trkpt><trkpt lat="45.813376" lon="8.6146092"><ele>214.6</ele><time>2026-05-01T15:31:24.842Z</time></trkpt><trkpt lat="45.8134163" lon="8.6144718"><ele>214.8</ele><time>2026-05-01T15:31:25.842Z</time></trkpt><trkpt lat="45.8134522" lon="8.6143298"><ele>215.0</ele><time>2026-05-01T15:31:26.842Z</time></trkpt><trkpt lat="45.8134895" lon="8.6141849"><ele>215.75</ele><time>2026-05-01T15:31:27.841Z</time></trkpt><trkpt lat="45.8135194" lon="8.6140321"><ele>216.5</ele><time>2026-05-01T15:31:28.842Z</time></trkpt><trkpt lat="45.813556" lon="8.6138819"><ele>217.25</ele><time>2026-05-01T15:31:29.843Z</time></trkpt><trkpt lat="45.8135968" lon="8.6137268"><ele>218.0</ele><time>2026-05-01T15:31:30.841Z</time></trkpt><trkpt lat="45.8136355" lon="8.6135588"><ele>218.25</ele><time>2026-05-01T15:31:31.842Z</time></trkpt><trkpt lat="45.8136786" lon="8.6133883"><ele>218.5</ele><time>2026-05-01T15:31:32.842Z</time></trkpt><trkpt lat="45.8137221" lon="8.6132227"><ele>218.75</ele><time>2026-05-01T15:31:33.842Z</time></trkpt><trkpt lat="45.8137629" lon="8.6130782"><ele>219.0</ele><time>2026-05-01T15:31:34.842Z</time></trkpt><trkpt lat="45.813797" lon="8.6129386"><ele>219.33333333333334</ele><time>2026-05-01T15:31:35.842Z</time></trkpt><trkpt lat="45.8138284" lon="8.6128128"><ele>219.66666666666669</ele><time>2026-05-01T15:31:36.843Z</time></trkpt><trkpt lat="45.8138575" lon="8.612711"><ele>220.0</ele><time>2026-05-01T15:31:37.841Z</time></trkpt><trkpt lat="45.8138836" lon="8.6126112"><ele>220.33333333333334</ele><time>2026-05-01T15:31:38.842Z</time></trkpt><trkpt lat="45.8139237" lon="8.612454"><ele>220.66666666666669</ele><time>2026-05-01T15:31:40.843Z</time></trkpt><trkpt lat="45.813958" lon="8.6123536"><ele>221.0</ele><time>2026-05-01T15:31:42.843Z</time></trkpt><trkpt lat="45.8139962" lon="8.6122761"><ele>221.00000000000003</ele><time>2026-05-01T15:31:44.842Z</time></trkpt><trkpt lat="45.8140364" lon="8.6121939"><ele>221.0</ele><time>2026-05-01T15:32:01.842Z</time></trkpt><trkpt lat="45.8140594" lon="8.6120251"><ele>221.0</ele><time>2026-05-01T15:32:03.843Z</time></trkpt><trkpt lat="45.8140698" lon="8.6119166"><ele>221.0</ele><time>2026-05-01T15:32:04.841Z</time></trkpt><trkpt lat="45.81409" lon="8.6117979"><ele>221.00000000000003</ele><time>2026-05-01T15:32:05.842Z</time></trkpt><trkpt lat="45.8141249" lon="8.6116816"><ele>221.0</ele><time>2026-05-01T15:32:06.842Z</time></trkpt><trkpt lat="45.8141504" lon="8.611562"><ele>221.14285714285717</ele><time>2026-05-01T15:32:07.842Z</time></trkpt><trkpt lat="45.8141828" lon="8.6114617"><ele>221.28571428571428</ele><time>2026-05-01T15:32:08.843Z</time></trkpt><trkpt lat="45.8142302" lon="8.6113898"><ele>221.42857142857144</ele><time>2026-05-01T15:32:09.843Z</time></trkpt><trkpt lat="45.8142907" lon="8.6113298"><ele>221.57142857142858</ele><time>2026-05-01T15:32:10.842Z</time></trkpt><trkpt lat="45.8143525" lon="8.6112765"><ele>221.71428571428572</ele><time>2026-05-01T15:32:11.843Z</time></trkpt><trkpt lat="45.8144206" lon="8.6112312"><ele>221.85714285714286</ele><time>2026-05-01T15:32:12.843Z</time></trkpt><trkpt lat="45.8144782" lon="8.6111892"><ele>222.0</ele><time>2026-05-01T15:32:13.842Z</time></trkpt><trkpt lat="45.8145601" lon="8.6111291"><ele>222.66666666666666</ele><time>2026-05-01T15:32:15.841Z</time></trkpt><trkpt lat="45.8146483" lon="8.6110692"><ele>223.33333333333331</ele><time>2026-05-01T15:32:17.842Z</time></trkpt><trkpt lat="45.8147312" lon="8.6110058"><ele>224.0</ele><time>2026-05-01T15:32:19.841Z</time></trkpt><trkpt lat="45.8148093" lon="8.6109474"><ele>224.66666666666666</ele><time>2026-05-01T15:32:21.842Z</time></trkpt><trkpt lat="45.8148837" lon="8.6108896"><ele>225.33333333333331</ele><time>2026-05-01T15:32:23.843Z</time></trkpt><trkpt lat="45.814954" lon="8.6108404"><ele>226.0</ele><time>2026-05-01T15:32:25.842Z</time></trkpt><trkpt lat="45.8150314" lon="8.6107781"><ele>225.99999999999997</ele><time>2026-05-01T15:32:27.843Z</time></trkpt><trkpt lat="45.8151117" lon="8.6107163"><ele>226.0</ele><time>2026-05-01T15:32:29.842Z</time></trkpt><trkpt lat="45.8151873" lon="8.6106733"><ele>226.0</ele><time>2026-05-01T15:32:31.841Z</time></trkpt><trkpt lat="45.815252" lon="8.6106326"><ele>226.0</ele><time>2026-05-01T15:32:35.842Z</time></trkpt><trkpt lat="45.8153167" lon="8.6105756"><ele>225.99999999999997</ele><time>2026-05-01T15:32:39.843Z</time></trkpt><trkpt lat="45.8153653" lon="8.6104646"><ele>226.0</ele><time>2026-05-01T15:32:42.841Z</time></trkpt><trkpt lat="45.8153914" lon="8.6103438"><ele>226.33333333333331</ele><time>2026-05-01T15:32:45.842Z</time></trkpt><trkpt lat="45.8154181" lon="8.6102331"><ele>226.66666666666666</ele><time>2026-05-01T15:32:48.842Z</time></trkpt><trkpt lat="45.8154162" lon="8.6101151"><ele>227.0</ele><time>2026-05-01T15:32:51.842Z</time></trkpt><trkpt lat="45.8153263" lon="8.610062"><ele>227.33333333333331</ele><time>2026-05-01T15:32:53.842Z</time></trkpt><trkpt lat="45.8152308" lon="8.6100371"><ele>227.66666666666666</ele><time>2026-05-01T15:32:55.842Z</time></trkpt><trkpt lat="45.8151618" lon="8.6100401"><ele>228.0</ele><time>2026-05-01T15:32:57.841Z</time></trkpt><trkpt lat="45.8150946" lon="8.6100405"><ele>228.0</ele><time>2026-05-01T15:32:58.842Z</time></trkpt><trkpt lat="45.8150267" lon="8.6100247"><ele>228.0</ele><time>2026-05-01T15:32:59.842Z</time></trkpt><trkpt lat="45.8149262" lon="8.6100335"><ele>228.0</ele><time>2026-05-01T15:33:01.842Z</time></trkpt><trkpt lat="45.8148416" lon="8.6100472"><ele>228.0</ele><time>2026-05-01T15:33:03.842Z</time></trkpt><trkpt lat="45.8147463" lon="8.6100449"><ele>228.0</ele><time>2026-05-01T15:33:05.842Z</time></trkpt><trkpt lat="45.8146678" lon="8.6100363"><ele>228.0</ele><time>2026-05-01T15:33:07.842Z</time></trkpt><trkpt lat="45.8145921" lon="8.6100376"><ele>228.0</ele><time>2026-05-01T15:33:09.841Z</time></trkpt><trkpt lat="45.8145289" lon="8.6100424"><ele>228.0</ele><time>2026-05-01T15:33:11.841Z</time></trkpt><trkpt lat="45.8144578" lon="8.6100458"><ele>228.0</ele><time>2026-05-01T15:33:13.843Z</time></trkpt><trkpt lat="45.8143437" lon="8.6100518"><ele>228.0</ele><time>2026-05-01T15:33:15.841Z</time></trkpt><trkpt lat="45.8142805" lon="8.6100558"><ele>228.0</ele><time>2026-05-01T15:33:16.843Z</time></trkpt><trkpt lat="45.8141782" lon="8.6100573"><ele>228.0</ele><time>2026-05-01T15:33:18.842Z</time></trkpt><trkpt lat="45.8140701" lon="8.6100549"><ele>227.4</ele><time>2026-05-01T15:33:20.842Z</time></trkpt><trkpt lat="45.8139785" lon="8.6100567"><ele>226.8</ele><time>2026-05-01T15:33:22.842Z</time></trkpt><trkpt lat="45.8138695" lon="8.6100516"><ele>226.2</ele><time>2026-05-01T15:33:24.842Z</time></trkpt><trkpt lat="45.8137707" lon="8.610041"><ele>225.6</ele><time>2026-05-01T15:33:26.842Z</time></trkpt><trkpt lat="45.8136494" lon="8.6099959"><ele>225.0</ele><time>2026-05-01T15:33:28.842Z</time></trkpt><trkpt lat="45.8135918" lon="8.609956"><ele>225.00000000000003</ele><time>2026-05-01T15:33:29.841Z</time></trkpt><trkpt lat="45.8135341" lon="8.6098958"><ele>225.0</ele><time>2026-05-01T15:33:30.842Z</time></trkpt><trkpt lat="45.8134764" lon="8.6098505"><ele>225.00000000000003</ele><time>2026-05-01T15:33:31.842Z</time></trkpt><trkpt lat="45.8134214" lon="8.609785"><ele>225.00000000000003</ele><time>2026-05-01T15:33:33.843Z</time></trkpt><trkpt lat="45.8133693" lon="8.6097268"><ele>225.0</ele><time>2026-05-01T15:33:35.842Z</time></trkpt><trkpt lat="45.8133375" lon="8.6096401"><ele>225.00000000000003</ele><time>2026-05-01T15:33:37.842Z</time></trkpt><trkpt lat="45.8133236" lon="8.6095438"><ele>225.00000000000003</ele><time>2026-05-01T15:33:39.841Z</time></trkpt><trkpt lat="45.8133136" lon="8.609445"><ele>223.6</ele><time>2026-05-01T15:33:43.842Z</time></trkpt><trkpt lat="45.8133005" lon="8.6093499"><ele>222.2</ele><time>2026-05-01T15:33:46.842Z</time></trkpt><trkpt lat="45.8132657" lon="8.6092316"><ele>220.8</ele><time>2026-05-01T15:33:48.843Z</time></trkpt><trkpt lat="45.8132444" lon="8.6090713"><ele>219.4</ele><time>2026-05-01T15:33:50.842Z</time></trkpt><trkpt lat="45.8132433" lon="8.6089032"><ele>218.0</ele><time>2026-05-01T15:33:52.842Z</time></trkpt><trkpt lat="45.8132556" lon="8.608767"><ele>216.66666666666669</ele><time>2026-05-01T15:33:54.841Z</time></trkpt><trkpt lat="45.8132762" lon="8.6086393"><ele>215.33333333333334</ele><time>2026-05-01T15:33:56.842Z</time></trkpt><trkpt lat="45.8132994" lon="8.608519"><ele>214.0</ele><time>2026-05-01T15:33:58.842Z</time></trkpt><trkpt lat="45.8133292" lon="8.6084184"><ele>212.66666666666669</ele><time>2026-05-01T15:34:00.842Z</time></trkpt><trkpt lat="45.8133563" lon="8.6083235"><ele>211.33333333333334</ele><time>2026-05-01T15:34:02.842Z</time></trkpt><trkpt lat="45.8133631" lon="8.608223"><ele>210.0</ele><time>2026-05-01T15:34:04.842Z</time></trkpt><trkpt lat="45.8133356" lon="8.608092"><ele>210.0</ele><time>2026-05-01T15:34:06.842Z</time></trkpt><trkpt lat="45.8133122" lon="8.6079491"><ele>210.0</ele><time>2026-05-01T15:34:08.842Z</time></trkpt><trkpt lat="45.8132876" lon="8.6078137"><ele>210.0</ele><time>2026-05-01T15:34:11.841Z</time></trkpt><trkpt lat="45.8132644" lon="8.6077208"><ele>210.0</ele><time>2026-05-01T15:34:13.842Z</time></trkpt><trkpt lat="45.8132415" lon="8.6076021"><ele>210.0</ele><time>2026-05-01T15:34:16.842Z</time></trkpt><trkpt lat="45.8132302" lon="8.6074864"><ele>210.0</ele><time>2026-05-01T15:34:19.841Z</time></trkpt><trkpt lat="45.8133011" lon="8.607449"><ele>200.0</ele><time>2026-05-01T15:34:23.841Z</time></trkpt><trkpt lat="45.813364" lon="8.6074362"><ele>200.0</ele><time>2026-05-01T15:34:26.842Z</time></trkpt><trkpt lat="45.8134285" lon="8.6074264"><ele>200.0</ele><time>2026-05-01T15:34:29.84Z</time></trkpt><trkpt lat="45.8134977" lon="8.607421"><ele>206.0</ele><time>2026-05-01T15:34:32.842Z</time></trkpt><trkpt lat="45.8135656" lon="8.6074132"><ele>206.0</ele><time>2026-05-01T15:34:35.842Z</time></trkpt><trkpt lat="45.8136296" lon="8.6073798"><ele>206.0</ele><time>2026-05-01T15:37:13.842Z</time></trkpt><trkpt lat="45.8136965" lon="8.6073643"><ele>206.0</ele><time>2026-05-01T15:37:40.842Z</time></trkpt></trkseg><trkseg><trkpt lat="45.8136391" lon="8.6073603"><ele>206.00000000000003</ele><time>2026-05-01T16:05:04.837Z</time></trkpt><trkpt lat="45.8135747" lon="8.6073013"><ele>206.0</ele><time>2026-05-01T16:06:24.84Z</time></trkpt><trkpt lat="45.81345" lon="8.6073678"><ele>206.0</ele><time>2026-05-01T16:06:26.832Z</time></trkpt><trkpt lat="45.8133869" lon="8.6074123"><ele>206.0</ele><time>2026-05-01T16:06:27.837Z</time></trkpt><trkpt lat="45.8133226" lon="8.6074352"><ele>206.00000000000003</ele><time>2026-05-01T16:06:29.842Z</time></trkpt><trkpt lat="45.8132471" lon="8.6074291"><ele>206.0</ele><time>2026-05-01T16:06:32.841Z</time></trkpt><trkpt lat="45.8131721" lon="8.6074653"><ele>206.66666666666669</ele><time>2026-05-01T16:06:36.84Z</time></trkpt><trkpt lat="45.81322" lon="8.6076594"><ele>207.33333333333334</ele><time>2026-05-01T16:06:39.832Z</time></trkpt><trkpt lat="45.8132455" lon="8.6077515"><ele>208.0</ele><time>2026-05-01T16:06:40.836Z</time></trkpt><trkpt lat="45.8132676" lon="8.6078462"><ele>208.66666666666669</ele><time>2026-05-01T16:06:41.832Z</time></trkpt><trkpt lat="45.8132905" lon="8.6079465"><ele>209.33333333333334</ele><time>2026-05-01T16:06:42.837Z</time></trkpt><trkpt lat="45.8133124" lon="8.6080492"><ele>210.0</ele><time>2026-05-01T16:06:43.838Z</time></trkpt><trkpt lat="45.8133305" lon="8.6081449"><ele>210.0</ele><time>2026-05-01T16:06:44.838Z</time></trkpt><trkpt lat="45.8133186" lon="8.6083064"><ele>210.0</ele><time>2026-05-01T16:06:46.838Z</time></trkpt><trkpt lat="45.8132783" lon="8.6084514"><ele>210.0</ele><time>2026-05-01T16:06:48.838Z</time></trkpt><trkpt lat="45.8132391" lon="8.6086093"><ele>210.0</ele><time>2026-05-01T16:06:50.834Z</time></trkpt><trkpt lat="45.8132298" lon="8.6087901"><ele>211.14285714285714</ele><time>2026-05-01T16:06:52.834Z</time></trkpt><trkpt lat="45.8132278" lon="8.6088885"><ele>212.28571428571428</ele><time>2026-05-01T16:06:53.843Z</time></trkpt><trkpt lat="45.8132271" lon="8.6089896"><ele>213.42857142857144</ele><time>2026-05-01T16:06:54.835Z</time></trkpt><trkpt lat="45.8132375" lon="8.6090876"><ele>214.57142857142856</ele><time>2026-05-01T16:06:55.838Z</time></trkpt><trkpt lat="45.8132574" lon="8.6091822"><ele>215.71428571428572</ele><time>2026-05-01T16:06:56.832Z</time></trkpt><trkpt lat="45.8132751" lon="8.6092852"><ele>216.85714285714286</ele><time>2026-05-01T16:06:57.844Z</time></trkpt><trkpt lat="45.8133003" lon="8.6093849"><ele>218.0</ele><time>2026-05-01T16:06:58.835Z</time></trkpt><trkpt lat="45.8133269" lon="8.6094749"><ele>219.00000000000003</ele><time>2026-05-01T16:06:59.836Z</time></trkpt><trkpt lat="45.8133521" lon="8.6095579"><ele>220.0</ele><time>2026-05-01T16:07:00.832Z</time></trkpt><trkpt lat="45.8133853" lon="8.6096368"><ele>221.0</ele><time>2026-05-01T16:07:01.834Z</time></trkpt><trkpt lat="45.8134505" lon="8.6097661"><ele>222.0</ele><time>2026-05-01T16:07:03.84Z</time></trkpt><trkpt lat="45.8134913" lon="8.6098785"><ele>223.00000000000003</ele><time>2026-05-01T16:07:06.84Z</time></trkpt><trkpt lat="45.81346" lon="8.6099897"><ele>224.0</ele><time>2026-05-01T16:07:08.831Z</time></trkpt><trkpt lat="45.8133626" lon="8.6100103"><ele>224.00000000000003</ele><time>2026-05-01T16:07:10.836Z</time></trkpt><trkpt lat="45.8132443" lon="8.610016"><ele>224.0</ele><time>2026-05-01T16:07:12.843Z</time></trkpt><trkpt lat="45.8131774" lon="8.6100154"><ele>224.0</ele><time>2026-05-01T16:07:13.836Z</time></trkpt><trkpt lat="45.8131106" lon="8.6100162"><ele>224.0</ele><time>2026-05-01T16:07:14.838Z</time></trkpt><trkpt lat="45.8130426" lon="8.6100288"><ele>224.00000000000003</ele><time>2026-05-01T16:07:15.834Z</time></trkpt><trkpt lat="45.8129759" lon="8.6100303"><ele>224.0</ele><time>2026-05-01T16:07:16.834Z</time></trkpt><trkpt lat="45.812911" lon="8.6100296"><ele>224.00000000000003</ele><time>2026-05-01T16:07:17.833Z</time></trkpt><trkpt lat="45.812839" lon="8.6100294"><ele>224.0</ele><time>2026-05-01T16:07:18.837Z</time></trkpt><trkpt lat="45.8127643" lon="8.6100369"><ele>224.0</ele><time>2026-05-01T16:07:19.834Z</time></trkpt><trkpt lat="45.812692" lon="8.6100344"><ele>224.0</ele><time>2026-05-01T16:07:20.843Z</time></trkpt><trkpt lat="45.8126253" lon="8.6100451"><ele>224.00000000000003</ele><time>2026-05-01T16:07:21.841Z</time></trkpt><trkpt lat="45.8125581" lon="8.6100428"><ele>224.0</ele><time>2026-05-01T16:07:22.837Z</time></trkpt><trkpt lat="45.8124359" lon="8.6100384"><ele>223.83333333333334</ele><time>2026-05-01T16:07:24.844Z</time></trkpt><trkpt lat="45.8123377" lon="8.6100395"><ele>223.66666666666669</ele><time>2026-05-01T16:07:26.837Z</time></trkpt><trkpt lat="45.8122726" lon="8.6100399"><ele>223.5</ele><time>2026-05-01T16:07:28.838Z</time></trkpt><trkpt lat="45.812204" lon="8.6100308"><ele>223.33333333333331</ele><time>2026-05-01T16:07:31.84Z</time></trkpt><trkpt lat="45.8121267" lon="8.6100317"><ele>223.16666666666666</ele><time>2026-05-01T16:07:34.841Z</time></trkpt><trkpt lat="45.8120707" lon="8.610087"><ele>223.0</ele><time>2026-05-01T16:07:47.843Z</time></trkpt><trkpt lat="45.8121024" lon="8.610217"><ele>223.0</ele><time>2026-05-01T16:07:50.832Z</time></trkpt><trkpt lat="45.8122127" lon="8.6103189"><ele>223.0</ele><time>2026-05-01T16:07:52.843Z</time></trkpt><trkpt lat="45.8122771" lon="8.6103779"><ele>223.0</ele><time>2026-05-01T16:07:53.839Z</time></trkpt><trkpt lat="45.8123513" lon="8.6104507"><ele>223.0</ele><time>2026-05-01T16:07:54.833Z</time></trkpt><trkpt lat="45.8124312" lon="8.6105324"><ele>223.0</ele><time>2026-05-01T16:07:55.835Z</time></trkpt><trkpt lat="45.8125173" lon="8.6106138"><ele>223.0</ele><time>2026-05-01T16:07:56.831Z</time></trkpt><trkpt lat="45.8125979" lon="8.6106916"><ele>223.0</ele><time>2026-05-01T16:07:57.839Z</time></trkpt><trkpt lat="45.812688" lon="8.6107778"><ele>223.0</ele><time>2026-05-01T16:07:58.841Z</time></trkpt><trkpt lat="45.8127812" lon="8.6108714"><ele>223.0</ele><time>2026-05-01T16:07:59.84Z</time></trkpt><trkpt lat="45.8128745" lon="8.6109642"><ele>223.0</ele><time>2026-05-01T16:08:00.844Z</time></trkpt><trkpt lat="45.8129609" lon="8.6110479"><ele>222.83333333333331</ele><time>2026-05-01T16:08:01.832Z</time></trkpt><trkpt lat="45.8130383" lon="8.6111306"><ele>222.66666666666666</ele><time>2026-05-01T16:08:02.84Z</time></trkpt><trkpt lat="45.8131178" lon="8.611207"><ele>222.5</ele><time>2026-05-01T16:08:03.838Z</time></trkpt><trkpt lat="45.8131959" lon="8.6112798"><ele>222.33333333333331</ele><time>2026-05-01T16:08:04.831Z</time></trkpt><trkpt lat="45.8132691" lon="8.6113511"><ele>222.16666666666666</ele><time>2026-05-01T16:08:05.843Z</time></trkpt><trkpt lat="45.8133309" lon="8.611413"><ele>222.0</ele><time>2026-05-01T16:08:06.837Z</time></trkpt><trkpt lat="45.8133904" lon="8.6114677"><ele>222.0</ele><time>2026-05-01T16:08:07.842Z</time></trkpt><trkpt lat="45.8134449" lon="8.6115192"><ele>222.0</ele><time>2026-05-01T16:08:08.832Z</time></trkpt><trkpt lat="45.813544" lon="8.6116104"><ele>222.0</ele><time>2026-05-01T16:08:10.834Z</time></trkpt><trkpt lat="45.8136413" lon="8.611703"><ele>222.0</ele><time>2026-05-01T16:08:12.842Z</time></trkpt><trkpt lat="45.8137063" lon="8.6117659"><ele>222.0</ele><time>2026-05-01T16:08:14.841Z</time></trkpt><trkpt lat="45.8137554" lon="8.6118267"><ele>222.0</ele><time>2026-05-01T16:08:18.833Z</time></trkpt><trkpt lat="45.813859" lon="8.6119222"><ele>221.8</ele><time>2026-05-01T16:08:49.84Z</time></trkpt><trkpt lat="45.8139565" lon="8.6120261"><ele>221.6</ele><time>2026-05-01T16:08:51.832Z</time></trkpt><trkpt lat="45.8139567" lon="8.612153"><ele>221.40000000000003</ele><time>2026-05-01T16:08:53.841Z</time></trkpt><trkpt lat="45.8139299" lon="8.6122407"><ele>221.20000000000002</ele><time>2026-05-01T16:08:54.833Z</time></trkpt><trkpt lat="45.8138995" lon="8.6123516"><ele>221.0</ele><time>2026-05-01T16:08:55.839Z</time></trkpt><trkpt lat="45.8138685" lon="8.6124796"><ele>221.0</ele><time>2026-05-01T16:08:56.83Z</time></trkpt><trkpt lat="45.8138365" lon="8.6126096"><ele>221.00000000000003</ele><time>2026-05-01T16:08:57.833Z</time></trkpt><trkpt lat="45.8138015" lon="8.6127523"><ele>221.00000000000003</ele><time>2026-05-01T16:08:58.843Z</time></trkpt><trkpt lat="45.8137621" lon="8.6128991"><ele>221.0</ele><time>2026-05-01T16:08:59.842Z</time></trkpt><trkpt lat="45.8137241" lon="8.6130635"><ele>221.0</ele><time>2026-05-01T16:09:00.834Z</time></trkpt><trkpt lat="45.8136834" lon="8.613221"><ele>220.5</ele><time>2026-05-01T16:09:01.843Z</time></trkpt><trkpt lat="45.813643" lon="8.6133798"><ele>220.0</ele><time>2026-05-01T16:09:02.84Z</time></trkpt><trkpt lat="45.8136005" lon="8.6135544"><ele>219.5</ele><time>2026-05-01T16:09:03.833Z</time></trkpt><trkpt lat="45.8135612" lon="8.6137232"><ele>219.0</ele><time>2026-05-01T16:09:04.837Z</time></trkpt><trkpt lat="45.8135267" lon="8.6138921"><ele>218.79999999999998</ele><time>2026-05-01T16:09:05.844Z</time></trkpt><trkpt lat="45.8134892" lon="8.614032"><ele>218.59999999999997</ele><time>2026-05-01T16:09:06.843Z</time></trkpt><trkpt lat="45.8134577" lon="8.6141606"><ele>218.4</ele><time>2026-05-01T16:09:07.833Z</time></trkpt><trkpt lat="45.8134216" lon="8.6142959"><ele>218.2</ele><time>2026-05-01T16:09:08.842Z</time></trkpt><trkpt lat="45.8133853" lon="8.6144339"><ele>218.0</ele><time>2026-05-01T16:09:09.84Z</time></trkpt><trkpt lat="45.8133509" lon="8.6145611"><ele>217.25</ele><time>2026-05-01T16:09:10.835Z</time></trkpt><trkpt lat="45.8133106" lon="8.6147044"><ele>216.5</ele><time>2026-05-01T16:09:11.831Z</time></trkpt><trkpt lat="45.813276" lon="8.6148545"><ele>215.75</ele><time>2026-05-01T16:09:12.833Z</time></trkpt><trkpt lat="45.8132343" lon="8.6150188"><ele>215.0</ele><time>2026-05-01T16:09:13.843Z</time></trkpt><trkpt lat="45.813193" lon="8.6151803"><ele>214.75</ele><time>2026-05-01T16:09:14.84Z</time></trkpt><trkpt lat="45.8131478" lon="8.6153453"><ele>214.5</ele><time>2026-05-01T16:09:15.831Z</time></trkpt><trkpt lat="45.8131076" lon="8.6155053"><ele>214.25</ele><time>2026-05-01T16:09:16.838Z</time></trkpt><trkpt lat="45.8130647" lon="8.6156598"><ele>214.0</ele><time>2026-05-01T16:09:17.837Z</time></trkpt><trkpt lat="45.813024" lon="8.6158226"><ele>214.0</ele><time>2026-05-01T16:09:18.834Z</time></trkpt><trkpt lat="45.8129804" lon="8.6159888"><ele>214.0</ele><time>2026-05-01T16:09:19.832Z</time></trkpt><trkpt lat="45.8129364" lon="8.6161535"><ele>214.0</ele><time>2026-05-01T16:09:20.837Z</time></trkpt><trkpt lat="45.8128876" lon="8.6163272"><ele>214.0</ele><time>2026-05-01T16:09:21.842Z</time></trkpt><trkpt lat="45.8128403" lon="8.6165015"><ele>213.75</ele><time>2026-05-01T16:09:22.84Z</time></trkpt><trkpt lat="45.8127974" lon="8.6166759"><ele>213.5</ele><time>2026-05-01T16:09:23.835Z</time></trkpt><trkpt lat="45.8127552" lon="8.6168416"><ele>213.25</ele><time>2026-05-01T16:09:24.843Z</time></trkpt><trkpt lat="45.8127173" lon="8.6170009"><ele>213.0</ele><time>2026-05-01T16:09:25.841Z</time></trkpt><trkpt lat="45.8126769" lon="8.617152"><ele>212.8</ele><time>2026-05-01T16:09:26.834Z</time></trkpt><trkpt lat="45.8126366" lon="8.6173026"><ele>212.60000000000002</ele><time>2026-05-01T16:09:27.836Z</time></trkpt><trkpt lat="45.8126036" lon="8.6174543"><ele>212.39999999999998</ele><time>2026-05-01T16:09:28.841Z</time></trkpt><trkpt lat="45.8125638" lon="8.6176009"><ele>212.2</ele><time>2026-05-01T16:09:29.837Z</time></trkpt><trkpt lat="45.8125264" lon="8.6177534"><ele>212.0</ele><time>2026-05-01T16:09:30.84Z</time></trkpt><trkpt lat="45.8124892" lon="8.617904"><ele>212.8</ele><time>2026-05-01T16:09:31.834Z</time></trkpt><trkpt lat="45.8124498" lon="8.6180506"><ele>213.6</ele><time>2026-05-01T16:09:32.838Z</time></trkpt><trkpt lat="45.8124116" lon="8.6182039"><ele>214.40000000000003</ele><time>2026-05-01T16:09:33.843Z</time></trkpt><trkpt lat="45.812375" lon="8.618351"><ele>215.20000000000002</ele><time>2026-05-01T16:09:34.84Z</time></trkpt><trkpt lat="45.812344" lon="8.6184827"><ele>216.0</ele><time>2026-05-01T16:09:35.834Z</time></trkpt><trkpt lat="45.8123159" lon="8.6186044"><ele>216.0</ele><time>2026-05-01T16:09:36.837Z</time></trkpt><trkpt lat="45.812283" lon="8.6187148"><ele>216.0</ele><time>2026-05-01T16:09:37.841Z</time></trkpt><trkpt lat="45.8122562" lon="8.6188067"><ele>216.0</ele><time>2026-05-01T16:09:38.835Z</time></trkpt><trkpt lat="45.812232" lon="8.6188922"><ele>216.0</ele><time>2026-05-01T16:09:39.841Z</time></trkpt><trkpt lat="45.8122082" lon="8.618981"><ele>216.0</ele><time>2026-05-01T16:09:40.837Z</time></trkpt><trkpt lat="45.8121767" lon="8.6190755"><ele>216.0</ele><time>2026-05-01T16:09:41.834Z</time></trkpt><trkpt lat="45.8121402" lon="8.6191651"><ele>216.0</ele><time>2026-05-01T16:09:42.832Z</time></trkpt><trkpt lat="45.8120901" lon="8.619242"><ele>216.0</ele><time>2026-05-01T16:09:43.844Z</time></trkpt><trkpt lat="45.8120244" lon="8.6193099"><ele>216.00000000000003</ele><time>2026-05-01T16:09:44.836Z</time></trkpt><trkpt lat="45.8119445" lon="8.6193621"><ele>216.00000000000003</ele><time>2026-05-01T16:09:45.833Z</time></trkpt><trkpt lat="45.8118579" lon="8.6194038"><ele>216.0</ele><time>2026-05-01T16:09:46.832Z</time></trkpt><trkpt lat="45.8117583" lon="8.6194405"><ele>216.0</ele><time>2026-05-01T16:09:47.843Z</time></trkpt><trkpt lat="45.8116558" lon="8.6194956"><ele>215.16666666666666</ele><time>2026-05-01T16:09:48.832Z</time></trkpt><trkpt lat="45.8115594" lon="8.6195373"><ele>214.33333333333331</ele><time>2026-05-01T16:09:49.841Z</time></trkpt><trkpt lat="45.8114721" lon="8.6195782"><ele>213.5</ele><time>2026-05-01T16:09:50.841Z</time></trkpt><trkpt lat="45.8113864" lon="8.6196152"><ele>212.66666666666666</ele><time>2026-05-01T16:09:51.832Z</time></trkpt><trkpt lat="45.8113041" lon="8.6196495"><ele>211.83333333333331</ele><time>2026-05-01T16:09:52.835Z</time></trkpt><trkpt lat="45.8112256" lon="8.6196806"><ele>211.0</ele><time>2026-05-01T16:09:53.832Z</time></trkpt><trkpt lat="45.8111466" lon="8.6196998"><ele>210.99999999999997</ele><time>2026-05-01T16:09:54.839Z</time></trkpt><trkpt lat="45.8110726" lon="8.6197028"><ele>211.0</ele><time>2026-05-01T16:09:55.832Z</time></trkpt><trkpt lat="45.8110045" lon="8.6196987"><ele>211.0</ele><time>2026-05-01T16:09:56.832Z</time></trkpt><trkpt lat="45.8109029" lon="8.6197486"><ele>211.0</ele><time>2026-05-01T16:09:58.838Z</time></trkpt><trkpt lat="45.8108747" lon="8.6198327"><ele>210.99999999999997</ele><time>2026-05-01T16:09:59.834Z</time></trkpt><trkpt lat="45.8108604" lon="8.6199464"><ele>211.0</ele><time>2026-05-01T16:10:00.836Z</time></trkpt><trkpt lat="45.8108433" lon="8.6200482"><ele>210.99999999999997</ele><time>2026-05-01T16:10:01.832Z</time></trkpt><trkpt lat="45.8107969" lon="8.6201266"><ele>211.0</ele><time>2026-05-01T16:10:02.837Z</time></trkpt><trkpt lat="45.8107436" lon="8.6202016"><ele>211.0</ele><time>2026-05-01T16:10:03.837Z</time></trkpt><trkpt lat="45.8106703" lon="8.6202721"><ele>211.0</ele><time>2026-05-01T16:10:04.84Z</time></trkpt><trkpt lat="45.810591" lon="8.6203583"><ele>210.99999999999997</ele><time>2026-05-01T16:10:05.841Z</time></trkpt><trkpt lat="45.8104993" lon="8.6204451"><ele>211.0</ele><time>2026-05-01T16:10:06.843Z</time></trkpt><trkpt lat="45.8104113" lon="8.6205379"><ele>211.0</ele><time>2026-05-01T16:10:07.838Z</time></trkpt><trkpt lat="45.8103149" lon="8.6206338"><ele>211.0</ele><time>2026-05-01T16:10:08.836Z</time></trkpt><trkpt lat="45.8102158" lon="8.6207258"><ele>211.0</ele><time>2026-05-01T16:10:09.835Z</time></trkpt><trkpt lat="45.8101133" lon="8.6208281"><ele>211.0</ele><time>2026-05-01T16:10:10.836Z</time></trkpt><trkpt lat="45.8100156" lon="8.6209263"><ele>211.0</ele><time>2026-05-01T16:10:11.837Z</time></trkpt><trkpt lat="45.8099181" lon="8.6210269"><ele>211.0</ele><time>2026-05-01T16:10:12.835Z</time></trkpt><trkpt lat="45.8098219" lon="8.6211349"><ele>211.0</ele><time>2026-05-01T16:10:13.836Z</time></trkpt><trkpt lat="45.8097274" lon="8.6212647"><ele>211.0</ele><time>2026-05-01T16:10:14.835Z</time></trkpt><trkpt lat="45.8096349" lon="8.6214004"><ele>211.0</ele><time>2026-05-01T16:10:15.842Z</time></trkpt><trkpt lat="45.8095395" lon="8.6215396"><ele>211.0</ele><time>2026-05-01T16:10:16.84Z</time></trkpt><trkpt lat="45.8094402" lon="8.621692"><ele>211.0</ele><time>2026-05-01T16:10:17.842Z</time></trkpt><trkpt lat="45.8093415" lon="8.6218509"><ele>211.0</ele><time>2026-05-01T16:10:18.842Z</time></trkpt><trkpt lat="45.8092398" lon="8.6220108"><ele>211.66666666666666</ele><time>2026-05-01T16:10:19.841Z</time></trkpt><trkpt lat="45.8091388" lon="8.6221747"><ele>212.33333333333331</ele><time>2026-05-01T16:10:20.842Z</time></trkpt><trkpt lat="45.8090359" lon="8.6223311"><ele>213.0</ele><time>2026-05-01T16:10:21.842Z</time></trkpt><trkpt lat="45.8089325" lon="8.6224912"><ele>213.0</ele><time>2026-05-01T16:10:22.842Z</time></trkpt><trkpt lat="45.8088237" lon="8.6226518"><ele>213.0</ele><time>2026-05-01T16:10:23.842Z</time></trkpt><trkpt lat="45.8087247" lon="8.6228157"><ele>213.0</ele><time>2026-05-01T16:10:24.842Z</time></trkpt><trkpt lat="45.8086206" lon="8.6229729"><ele>213.75</ele><time>2026-05-01T16:10:25.842Z</time></trkpt><trkpt lat="45.8085139" lon="8.6231129"><ele>214.5</ele><time>2026-05-01T16:10:26.842Z</time></trkpt><trkpt lat="45.8084051" lon="8.6232172"><ele>215.25</ele><time>2026-05-01T16:10:27.841Z</time></trkpt><trkpt lat="45.8082844" lon="8.6233089"><ele>216.0</ele><time>2026-05-01T16:10:28.841Z</time></trkpt><trkpt lat="45.8081528" lon="8.6233817"><ele>216.25</ele><time>2026-05-01T16:10:29.842Z</time></trkpt><trkpt lat="45.808019" lon="8.6234592"><ele>216.5</ele><time>2026-05-01T16:10:30.841Z</time></trkpt><trkpt lat="45.8078773" lon="8.6235317"><ele>216.75</ele><time>2026-05-01T16:10:31.842Z</time></trkpt><trkpt lat="45.8077421" lon="8.6236081"><ele>217.0</ele><time>2026-05-01T16:10:32.842Z</time></trkpt><trkpt lat="45.8076098" lon="8.62368"><ele>217.25</ele><time>2026-05-01T16:10:33.842Z</time></trkpt><trkpt lat="45.8074849" lon="8.6237533"><ele>217.5</ele><time>2026-05-01T16:10:34.842Z</time></trkpt><trkpt lat="45.8073524" lon="8.6238203"><ele>217.75</ele><time>2026-05-01T16:10:35.842Z</time></trkpt><trkpt lat="45.8072241" lon="8.623893"><ele>218.0</ele><time>2026-05-01T16:10:36.842Z</time></trkpt><trkpt lat="45.8071053" lon="8.6239858"><ele>218.0</ele><time>2026-05-01T16:10:37.842Z</time></trkpt><trkpt lat="45.8070074" lon="8.6241113"><ele>218.0</ele><time>2026-05-01T16:10:38.842Z</time></trkpt><trkpt lat="45.8069225" lon="8.6242599"><ele>218.0</ele><time>2026-05-01T16:10:39.842Z</time></trkpt><trkpt lat="45.8068459" lon="8.6244252"><ele>218.0</ele><time>2026-05-01T16:10:40.842Z</time></trkpt><trkpt lat="45.8067757" lon="8.6245963"><ele>219.5</ele><time>2026-05-01T16:10:41.842Z</time></trkpt><trkpt lat="45.8067012" lon="8.6247713"><ele>221.0</ele><time>2026-05-01T16:10:42.842Z</time></trkpt><trkpt lat="45.8066266" lon="8.6249433"><ele>222.5</ele><time>2026-05-01T16:10:43.842Z</time></trkpt><trkpt lat="45.8065513" lon="8.6251163"><ele>224.0</ele><time>2026-05-01T16:10:44.842Z</time></trkpt><trkpt lat="45.8064728" lon="8.6252864"><ele>223.75</ele><time>2026-05-01T16:10:45.842Z</time></trkpt><trkpt lat="45.806397" lon="8.6254707"><ele>223.5</ele><time>2026-05-01T16:10:46.842Z</time></trkpt><trkpt lat="45.8063066" lon="8.6256342"><ele>223.25</ele><time>2026-05-01T16:10:47.842Z</time></trkpt><trkpt lat="45.8062085" lon="8.6257761"><ele>223.0</ele><time>2026-05-01T16:10:48.842Z</time></trkpt><trkpt lat="45.8060995" lon="8.6259137"><ele>226.0</ele><time>2026-05-01T16:10:49.842Z</time></trkpt><trkpt lat="45.8059862" lon="8.6260536"><ele>229.0</ele><time>2026-05-01T16:10:50.842Z</time></trkpt><trkpt lat="45.8058686" lon="8.6261965"><ele>232.0</ele><time>2026-05-01T16:10:51.842Z</time></trkpt><trkpt lat="45.8057561" lon="8.6263364"><ele>232.0</ele><time>2026-05-01T16:10:52.842Z</time></trkpt><trkpt lat="45.8056422" lon="8.6264776"><ele>232.0</ele><time>2026-05-01T16:10:53.842Z</time></trkpt><trkpt lat="45.8055254" lon="8.626625"><ele>232.0</ele><time>2026-05-01T16:10:54.841Z</time></trkpt><trkpt lat="45.8054069" lon="8.6267679"><ele>232.0</ele><time>2026-05-01T16:10:55.842Z</time></trkpt><trkpt lat="45.8052886" lon="8.626913"><ele>232.0</ele><time>2026-05-01T16:10:56.842Z</time></trkpt><trkpt lat="45.8051725" lon="8.6270561"><ele>232.0</ele><time>2026-05-01T16:10:57.842Z</time></trkpt><trkpt lat="45.8050572" lon="8.6272025"><ele>234.33333333333331</ele><time>2026-05-01T16:10:58.841Z</time></trkpt><trkpt lat="45.8049366" lon="8.627344"><ele>236.66666666666669</ele><time>2026-05-01T16:10:59.842Z</time></trkpt><trkpt lat="45.8048129" lon="8.6274856"><ele>239.0</ele><time>2026-05-01T16:11:00.841Z</time></trkpt><trkpt lat="45.8046871" lon="8.6276226"><ele>239.0</ele><time>2026-05-01T16:11:01.842Z</time></trkpt><trkpt lat="45.8045665" lon="8.6277643"><ele>239.0</ele><time>2026-05-01T16:11:02.842Z</time></trkpt><trkpt lat="45.8044442" lon="8.6279126"><ele>239.0</ele><time>2026-05-01T16:11:03.841Z</time></trkpt><trkpt lat="45.804327" lon="8.6280768"><ele>240.33333333333334</ele><time>2026-05-01T16:11:04.842Z</time></trkpt><trkpt lat="45.8042087" lon="8.628231"><ele>241.66666666666669</ele><time>2026-05-01T16:11:05.841Z</time></trkpt><trkpt lat="45.8040931" lon="8.6283832"><ele>243.0</ele><time>2026-05-01T16:11:06.842Z</time></trkpt><trkpt lat="45.8039873" lon="8.6285207"><ele>241.75</ele><time>2026-05-01T16:11:07.842Z</time></trkpt><trkpt lat="45.8038774" lon="8.6286581"><ele>240.5</ele><time>2026-05-01T16:11:08.841Z</time></trkpt><trkpt lat="45.8037787" lon="8.6287744"><ele>239.25</ele><time>2026-05-01T16:11:09.842Z</time></trkpt><trkpt lat="45.8036887" lon="8.6288833"><ele>238.0</ele><time>2026-05-01T16:11:10.842Z</time></trkpt><trkpt lat="45.8036213" lon="8.6289767"><ele>237.99999999999997</ele><time>2026-05-01T16:11:11.842Z</time></trkpt><trkpt lat="45.803543" lon="8.6290472"><ele>238.0</ele><time>2026-05-01T16:11:12.842Z</time></trkpt><trkpt lat="45.803459" lon="8.629101"><ele>238.0</ele><time>2026-05-01T16:11:13.842Z</time></trkpt><trkpt lat="45.8033762" lon="8.6291443"><ele>238.0</ele><time>2026-05-01T16:11:14.842Z</time></trkpt><trkpt lat="45.8033006" lon="8.6291883"><ele>237.99999999999997</ele><time>2026-05-01T16:11:15.842Z</time></trkpt><trkpt lat="45.8032375" lon="8.629264"><ele>238.0</ele><time>2026-05-01T16:11:16.842Z</time></trkpt><trkpt lat="45.803195" lon="8.629379"><ele>236.99999999999997</ele><time>2026-05-01T16:11:17.842Z</time></trkpt><trkpt lat="45.8031573" lon="8.629488"><ele>236.0</ele><time>2026-05-01T16:11:18.841Z</time></trkpt><trkpt lat="45.8031115" lon="8.6295809"><ele>235.0</ele><time>2026-05-01T16:11:19.842Z</time></trkpt><trkpt lat="45.8030466" lon="8.6296633"><ele>234.0</ele><time>2026-05-01T16:11:20.842Z</time></trkpt><trkpt lat="45.8029718" lon="8.6297311"><ele>232.99999999999997</ele><time>2026-05-01T16:11:21.842Z</time></trkpt><trkpt lat="45.8028932" lon="8.6297983"><ele>232.0</ele><time>2026-05-01T16:11:22.842Z</time></trkpt><trkpt lat="45.802809" lon="8.6298603"><ele>232.0</ele><time>2026-05-01T16:11:23.842Z</time></trkpt><trkpt lat="45.8027143" lon="8.6299267"><ele>232.0</ele><time>2026-05-01T16:11:24.841Z</time></trkpt><trkpt lat="45.8026056" lon="8.629994"><ele>232.0</ele><time>2026-05-01T16:11:25.842Z</time></trkpt><trkpt lat="45.8024937" lon="8.6300564"><ele>232.0</ele><time>2026-05-01T16:11:26.842Z</time></trkpt><trkpt lat="45.8023728" lon="8.6301203"><ele>232.5</ele><time>2026-05-01T16:11:27.842Z</time></trkpt><trkpt lat="45.8022483" lon="8.6301803"><ele>233.0</ele><time>2026-05-01T16:11:28.842Z</time></trkpt><trkpt lat="45.8021108" lon="8.6302507"><ele>233.5</ele><time>2026-05-01T16:11:29.842Z</time></trkpt><trkpt lat="45.8019813" lon="8.6303174"><ele>234.0</ele><time>2026-05-01T16:11:30.842Z</time></trkpt><trkpt lat="45.8018517" lon="8.6303842"><ele>234.75</ele><time>2026-05-01T16:11:31.841Z</time></trkpt><trkpt lat="45.8017188" lon="8.6304489"><ele>235.5</ele><time>2026-05-01T16:11:32.842Z</time></trkpt><trkpt lat="45.8015849" lon="8.6305168"><ele>236.25</ele><time>2026-05-01T16:11:33.842Z</time></trkpt><trkpt lat="45.8014469" lon="8.6305925"><ele>237.0</ele><time>2026-05-01T16:11:34.842Z</time></trkpt><trkpt lat="45.8013133" lon="8.6306741"><ele>237.0</ele><time>2026-05-01T16:11:35.842Z</time></trkpt><trkpt lat="45.8011799" lon="8.6307619"><ele>237.0</ele><time>2026-05-01T16:11:36.842Z</time></trkpt><trkpt lat="45.801056" lon="8.6308552"><ele>237.0</ele><time>2026-05-01T16:11:37.842Z</time></trkpt><trkpt lat="45.8009436" lon="8.6309567"><ele>237.0</ele><time>2026-05-01T16:11:38.842Z</time></trkpt><trkpt lat="45.800843" lon="8.6310614"><ele>235.0</ele><time>2026-05-01T16:11:39.842Z</time></trkpt><trkpt lat="45.8007526" lon="8.6311824"><ele>233.0</ele><time>2026-05-01T16:11:40.841Z</time></trkpt><trkpt lat="45.8006661" lon="8.6313093"><ele>231.0</ele><time>2026-05-01T16:11:41.841Z</time></trkpt><trkpt lat="45.8005747" lon="8.6314749"><ele>229.0</ele><time>2026-05-01T16:11:42.842Z</time></trkpt><trkpt lat="45.8004683" lon="8.6316576"><ele>229.0</ele><time>2026-05-01T16:11:43.842Z</time></trkpt><trkpt lat="45.8003572" lon="8.6318973"><ele>229.0</ele><time>2026-05-01T16:11:44.841Z</time></trkpt><trkpt lat="45.8002368" lon="8.6321361"><ele>229.0</ele><time>2026-05-01T16:11:45.842Z</time></trkpt><trkpt lat="45.800115" lon="8.6323743"><ele>229.0</ele><time>2026-05-01T16:11:46.841Z</time></trkpt><trkpt lat="45.7999944" lon="8.6326104"><ele>229.0</ele><time>2026-05-01T16:11:47.842Z</time></trkpt><trkpt lat="45.7998726" lon="8.6328466"><ele>229.0</ele><time>2026-05-01T16:11:48.842Z</time></trkpt><trkpt lat="45.7997511" lon="8.633082"><ele>229.66666666666666</ele><time>2026-05-01T16:11:49.842Z</time></trkpt><trkpt lat="45.7996341" lon="8.6333158"><ele>230.33333333333331</ele><time>2026-05-01T16:11:50.842Z</time></trkpt><trkpt lat="45.7995214" lon="8.6335385"><ele>231.0</ele><time>2026-05-01T16:11:51.841Z</time></trkpt><trkpt lat="45.7994104" lon="8.6337562"><ele>231.33333333333331</ele><time>2026-05-01T16:11:52.842Z</time></trkpt><trkpt lat="45.7992986" lon="8.6339702"><ele>231.66666666666666</ele><time>2026-05-01T16:11:53.842Z</time></trkpt><trkpt lat="45.799194" lon="8.6341845"><ele>232.0</ele><time>2026-05-01T16:11:54.842Z</time></trkpt><trkpt lat="45.799088" lon="8.6344013"><ele>232.66666666666666</ele><time>2026-05-01T16:11:55.842Z</time></trkpt><trkpt lat="45.7989784" lon="8.6346169"><ele>233.33333333333331</ele><time>2026-05-01T16:11:56.841Z</time></trkpt><trkpt lat="45.798871" lon="8.6348284"><ele>234.0</ele><time>2026-05-01T16:11:57.841Z</time></trkpt><trkpt lat="45.7987643" lon="8.6350404"><ele>234.0</ele><time>2026-05-01T16:11:58.842Z</time></trkpt><trkpt lat="45.7986599" lon="8.6352529"><ele>234.0</ele><time>2026-05-01T16:11:59.842Z</time></trkpt><trkpt lat="45.7985605" lon="8.6354517"><ele>234.0</ele><time>2026-05-01T16:12:00.842Z</time></trkpt><trkpt lat="45.798463" lon="8.6356341"><ele>235.25</ele><time>2026-05-01T16:12:01.841Z</time></trkpt><trkpt lat="45.7983742" lon="8.6358093"><ele>236.5</ele><time>2026-05-01T16:12:02.842Z</time></trkpt><trkpt lat="45.7982909" lon="8.6359812"><ele>237.75</ele><time>2026-05-01T16:12:03.842Z</time></trkpt><trkpt lat="45.7982194" lon="8.6361521"><ele>239.0</ele><time>2026-05-01T16:12:04.842Z</time></trkpt><trkpt lat="45.79815" lon="8.6363286"><ele>239.75</ele><time>2026-05-01T16:12:05.842Z</time></trkpt><trkpt lat="45.7980899" lon="8.6365016"><ele>240.5</ele><time>2026-05-01T16:12:06.841Z</time></trkpt><trkpt lat="45.7980433" lon="8.6366941"><ele>241.25</ele><time>2026-05-01T16:12:07.842Z</time></trkpt><trkpt lat="45.798001" lon="8.6368847"><ele>242.0</ele><time>2026-05-01T16:12:08.842Z</time></trkpt><trkpt lat="45.7979658" lon="8.6370872"><ele>244.0</ele><time>2026-05-01T16:12:09.842Z</time></trkpt><trkpt lat="45.7979315" lon="8.6372975"><ele>246.0</ele><time>2026-05-01T16:12:10.842Z</time></trkpt><trkpt lat="45.7979037" lon="8.6375139"><ele>248.0</ele><time>2026-05-01T16:12:11.841Z</time></trkpt><trkpt lat="45.7978736" lon="8.6377244"><ele>249.75</ele><time>2026-05-01T16:12:12.841Z</time></trkpt><trkpt lat="45.7978424" lon="8.6379338"><ele>251.5</ele><time>2026-05-01T16:12:13.842Z</time></trkpt><trkpt lat="45.7978116" lon="8.6381446"><ele>253.25</ele><time>2026-05-01T16:12:14.842Z</time></trkpt><trkpt lat="45.7977803" lon="8.6383438"><ele>255.0</ele><time>2026-05-01T16:12:15.842Z</time></trkpt><trkpt lat="45.7977532" lon="8.638539"><ele>255.25</ele><time>2026-05-01T16:12:16.841Z</time></trkpt><trkpt lat="45.7977259" lon="8.6387349"><ele>255.5</ele><time>2026-05-01T16:12:17.841Z</time></trkpt><trkpt lat="45.7976979" lon="8.6389292"><ele>255.75</ele><time>2026-05-01T16:12:18.841Z</time></trkpt><trkpt lat="45.7976686" lon="8.6391228"><ele>256.0</ele><time>2026-05-01T16:12:19.842Z</time></trkpt><trkpt lat="45.7976419" lon="8.6393036"><ele>257.0</ele><time>2026-05-01T16:12:20.842Z</time></trkpt><trkpt lat="45.7976167" lon="8.6394917"><ele>258.0</ele><time>2026-05-01T16:12:21.841Z</time></trkpt><trkpt lat="45.7975908" lon="8.6396766"><ele>259.0</ele><time>2026-05-01T16:12:22.841Z</time></trkpt><trkpt lat="45.7975678" lon="8.6398498"><ele>260.0</ele><time>2026-05-01T16:12:23.842Z</time></trkpt><trkpt lat="45.797546" lon="8.6400034"><ele>260.0</ele><time>2026-05-01T16:12:24.842Z</time></trkpt><trkpt lat="45.797529" lon="8.6401696"><ele>260.0</ele><time>2026-05-01T16:12:25.841Z</time></trkpt><trkpt lat="45.7975318" lon="8.6403316"><ele>260.0</ele><time>2026-05-01T16:12:26.842Z</time></trkpt><trkpt lat="45.7975513" lon="8.6404956"><ele>260.0</ele><time>2026-05-01T16:12:27.842Z</time></trkpt><trkpt lat="45.7975888" lon="8.6406554"><ele>261.25</ele><time>2026-05-01T16:12:28.842Z</time></trkpt><trkpt lat="45.7976357" lon="8.6408117"><ele>262.5</ele><time>2026-05-01T16:12:29.842Z</time></trkpt><trkpt lat="45.7976863" lon="8.6409711"><ele>263.75</ele><time>2026-05-01T16:12:30.842Z</time></trkpt><trkpt lat="45.7977366" lon="8.6411272"><ele>265.0</ele><time>2026-05-01T16:12:31.842Z</time></trkpt><trkpt lat="45.7977876" lon="8.6412824"><ele>266.4</ele><time>2026-05-01T16:12:32.842Z</time></trkpt><trkpt lat="45.7978395" lon="8.6414231"><ele>267.8</ele><time>2026-05-01T16:12:33.842Z</time></trkpt><trkpt lat="45.7978858" lon="8.6415566"><ele>269.2</ele><time>2026-05-01T16:12:34.841Z</time></trkpt><trkpt lat="45.7979243" lon="8.6416887"><ele>270.6</ele><time>2026-05-01T16:12:35.842Z</time></trkpt><trkpt lat="45.797943" lon="8.6418292"><ele>272.0</ele><time>2026-05-01T16:12:36.842Z</time></trkpt><trkpt lat="45.7979425" lon="8.6419754"><ele>273.2</ele><time>2026-05-01T16:12:37.842Z</time></trkpt><trkpt lat="45.7979249" lon="8.6421167"><ele>274.4</ele><time>2026-05-01T16:12:38.841Z</time></trkpt><trkpt lat="45.7978934" lon="8.6422587"><ele>275.6</ele><time>2026-05-01T16:12:39.842Z</time></trkpt><trkpt lat="45.7978536" lon="8.642395"><ele>276.8</ele><time>2026-05-01T16:12:40.842Z</time></trkpt><trkpt lat="45.7978109" lon="8.6425258"><ele>278.0</ele><time>2026-05-01T16:12:41.842Z</time></trkpt><trkpt lat="45.7977643" lon="8.6426454"><ele>278.0</ele><time>2026-05-01T16:12:42.841Z</time></trkpt><trkpt lat="45.7977173" lon="8.6427516"><ele>278.0</ele><time>2026-05-01T16:12:43.842Z</time></trkpt><trkpt lat="45.7976701" lon="8.6428524"><ele>278.0</ele><time>2026-05-01T16:12:44.842Z</time></trkpt><trkpt lat="45.7976179" lon="8.6429425"><ele>278.0</ele><time>2026-05-01T16:12:45.842Z</time></trkpt><trkpt lat="45.7975596" lon="8.6430277"><ele>278.0</ele><time>2026-05-01T16:12:46.842Z</time></trkpt><trkpt lat="45.7975029" lon="8.6431065"><ele>278.0</ele><time>2026-05-01T16:12:47.841Z</time></trkpt><trkpt lat="45.7974442" lon="8.6431973"><ele>277.5</ele><time>2026-05-01T16:12:48.842Z</time></trkpt><trkpt lat="45.7973951" lon="8.643305"><ele>277.0</ele><time>2026-05-01T16:12:49.841Z</time></trkpt><trkpt lat="45.7973628" lon="8.6434183"><ele>276.5</ele><time>2026-05-01T16:12:50.841Z</time></trkpt><trkpt lat="45.7973465" lon="8.6435395"><ele>276.0</ele><time>2026-05-01T16:12:51.842Z</time></trkpt><trkpt lat="45.7973561" lon="8.6436612"><ele>275.5</ele><time>2026-05-01T16:12:52.842Z</time></trkpt><trkpt lat="45.7973921" lon="8.6437762"><ele>275.0</ele><time>2026-05-01T16:12:53.842Z</time></trkpt><trkpt lat="45.7974407" lon="8.643873"><ele>275.0</ele><time>2026-05-01T16:12:54.841Z</time></trkpt><trkpt lat="45.797511" lon="8.643973"><ele>275.0</ele><time>2026-05-01T16:12:55.842Z</time></trkpt><trkpt lat="45.7975757" lon="8.6440643"><ele>275.0</ele><time>2026-05-01T16:12:56.842Z</time></trkpt><trkpt lat="45.7976403" lon="8.6441446"><ele>275.0</ele><time>2026-05-01T16:12:57.842Z</time></trkpt><trkpt lat="45.797696" lon="8.644223"><ele>275.0</ele><time>2026-05-01T16:12:58.842Z</time></trkpt><trkpt lat="45.7977476" lon="8.6442985"><ele>275.0</ele><time>2026-05-01T16:12:59.842Z</time></trkpt><trkpt lat="45.7977902" lon="8.6443674"><ele>274.8</ele><time>2026-05-01T16:13:00.842Z</time></trkpt><trkpt lat="45.7978615" lon="8.6444847"><ele>274.6</ele><time>2026-05-01T16:13:02.841Z</time></trkpt><trkpt lat="45.7979316" lon="8.6446038"><ele>274.4</ele><time>2026-05-01T16:13:04.841Z</time></trkpt><trkpt lat="45.7979984" lon="8.6446529"><ele>274.2</ele><time>2026-05-01T16:13:05.842Z</time></trkpt><trkpt lat="45.7980569" lon="8.6446868"><ele>274.0</ele><time>2026-05-01T16:13:06.842Z</time></trkpt><trkpt lat="45.7981612" lon="8.6447409"><ele>274.0</ele><time>2026-05-01T16:13:08.842Z</time></trkpt><trkpt lat="45.798283" lon="8.6447892"><ele>274.0</ele><time>2026-05-01T16:13:10.842Z</time></trkpt><trkpt lat="45.7983459" lon="8.6448257"><ele>274.0</ele><time>2026-05-01T16:13:11.842Z</time></trkpt><trkpt lat="45.7984204" lon="8.6448586"><ele>274.0</ele><time>2026-05-01T16:13:12.842Z</time></trkpt><trkpt lat="45.7985017" lon="8.6448987"><ele>274.0</ele><time>2026-05-01T16:13:13.842Z</time></trkpt><trkpt lat="45.7985837" lon="8.6449438"><ele>274.0</ele><time>2026-05-01T16:13:14.842Z</time></trkpt><trkpt lat="45.7986625" lon="8.6449917"><ele>274.0</ele><time>2026-05-01T16:13:15.842Z</time></trkpt><trkpt lat="45.7987417" lon="8.6450514"><ele>274.0</ele><time>2026-05-01T16:13:16.842Z</time></trkpt><trkpt lat="45.7988222" lon="8.6451262"><ele>274.0</ele><time>2026-05-01T16:13:17.842Z</time></trkpt><trkpt lat="45.7989033" lon="8.645213"><ele>274.0</ele><time>2026-05-01T16:13:18.841Z</time></trkpt><trkpt lat="45.7989822" lon="8.6453124"><ele>274.0</ele><time>2026-05-01T16:13:19.842Z</time></trkpt><trkpt lat="45.7990558" lon="8.6454255"><ele>274.0</ele><time>2026-05-01T16:13:20.842Z</time></trkpt><trkpt lat="45.7991351" lon="8.6455464"><ele>274.0</ele><time>2026-05-01T16:13:21.842Z</time></trkpt><trkpt lat="45.7992189" lon="8.6456705"><ele>274.0</ele><time>2026-05-01T16:13:22.842Z</time></trkpt><trkpt lat="45.7992954" lon="8.6457866"><ele>274.0</ele><time>2026-05-01T16:13:23.842Z</time></trkpt><trkpt lat="45.799367" lon="8.645894"><ele>274.0</ele><time>2026-05-01T16:13:24.842Z</time></trkpt><trkpt lat="45.7994281" lon="8.6459845"><ele>274.0</ele><time>2026-05-01T16:13:25.842Z</time></trkpt><trkpt lat="45.7994852" lon="8.6460681"><ele>274.0</ele><time>2026-05-01T16:13:26.842Z</time></trkpt><trkpt lat="45.799563" lon="8.6461936"><ele>274.0</ele><time>2026-05-01T16:13:28.841Z</time></trkpt><trkpt lat="45.7996393" lon="8.6462702"><ele>274.0</ele><time>2026-05-01T16:13:30.842Z</time></trkpt><trkpt lat="45.7997092" lon="8.6462502"><ele>274.0</ele><time>2026-05-01T16:13:31.842Z</time></trkpt><trkpt lat="45.7997879" lon="8.6462295"><ele>274.0</ele><time>2026-05-01T16:13:32.842Z</time></trkpt><trkpt lat="45.7999138" lon="8.6461682"><ele>274.0</ele><time>2026-05-01T16:13:33.842Z</time></trkpt><trkpt lat="45.8000387" lon="8.6461093"><ele>274.0</ele><time>2026-05-01T16:13:34.842Z</time></trkpt><trkpt lat="45.8001718" lon="8.6460496"><ele>273.3333333333333</ele><time>2026-05-01T16:13:35.842Z</time></trkpt><trkpt lat="45.8003187" lon="8.6459937"><ele>272.6666666666667</ele><time>2026-05-01T16:13:36.842Z</time></trkpt><trkpt lat="45.8004623" lon="8.645927"><ele>272.0</ele><time>2026-05-01T16:13:37.841Z</time></trkpt><trkpt lat="45.8006143" lon="8.6458707"><ele>272.0</ele><time>2026-05-01T16:13:38.842Z</time></trkpt><trkpt lat="45.8007661" lon="8.6458049"><ele>272.0</ele><time>2026-05-01T16:13:39.842Z</time></trkpt><trkpt lat="45.8009256" lon="8.6457497"><ele>272.0</ele><time>2026-05-01T16:13:40.842Z</time></trkpt><trkpt lat="45.8010813" lon="8.645685"><ele>271.0</ele><time>2026-05-01T16:13:41.842Z</time></trkpt><trkpt lat="45.8012315" lon="8.6456212"><ele>270.0</ele><time>2026-05-01T16:13:42.842Z</time></trkpt><trkpt lat="45.801375" lon="8.6455649"><ele>269.0</ele><time>2026-05-01T16:13:43.842Z</time></trkpt><trkpt lat="45.8015156" lon="8.6455076"><ele>269.0</ele><time>2026-05-01T16:13:44.842Z</time></trkpt><trkpt lat="45.8016613" lon="8.645442"><ele>269.0</ele><time>2026-05-01T16:13:45.842Z</time></trkpt><trkpt lat="45.8017929" lon="8.6453617"><ele>269.0</ele><time>2026-05-01T16:13:46.842Z</time></trkpt><trkpt lat="45.8019205" lon="8.6452667"><ele>269.0</ele><time>2026-05-01T16:13:47.842Z</time></trkpt><trkpt lat="45.8020441" lon="8.6451569"><ele>269.0</ele><time>2026-05-01T16:13:48.842Z</time></trkpt><trkpt lat="45.8021665" lon="8.6450459"><ele>269.0</ele><time>2026-05-01T16:13:49.842Z</time></trkpt><trkpt lat="45.8022871" lon="8.6449303"><ele>269.0</ele><time>2026-05-01T16:13:50.842Z</time></trkpt><trkpt lat="45.802411" lon="8.64481"><ele>269.0</ele><time>2026-05-01T16:13:51.842Z</time></trkpt><trkpt lat="45.8025342" lon="8.644693"><ele>269.0</ele><time>2026-05-01T16:13:52.842Z</time></trkpt><trkpt lat="45.8026609" lon="8.644573"><ele>269.0</ele><time>2026-05-01T16:13:53.842Z</time></trkpt><trkpt lat="45.8027894" lon="8.6444524"><ele>269.0</ele><time>2026-05-01T16:13:54.842Z</time></trkpt><trkpt lat="45.8029188" lon="8.6443355"><ele>269.6666666666667</ele><time>2026-05-01T16:13:55.842Z</time></trkpt><trkpt lat="45.8030483" lon="8.6442161"><ele>270.3333333333333</ele><time>2026-05-01T16:13:56.842Z</time></trkpt><trkpt lat="45.8031738" lon="8.6440988"><ele>271.0</ele><time>2026-05-01T16:13:57.842Z</time></trkpt><trkpt lat="45.8032986" lon="8.6439811"><ele>271.0</ele><time>2026-05-01T16:13:58.841Z</time></trkpt><trkpt lat="45.8034162" lon="8.6438698"><ele>271.0</ele><time>2026-05-01T16:13:59.842Z</time></trkpt><trkpt lat="45.8035336" lon="8.6437577"><ele>271.0</ele><time>2026-05-01T16:14:00.842Z</time></trkpt><trkpt lat="45.8036518" lon="8.6436454"><ele>271.0</ele><time>2026-05-01T16:14:01.842Z</time></trkpt><trkpt lat="45.8037722" lon="8.6435243"><ele>270.75</ele><time>2026-05-01T16:14:02.842Z</time></trkpt><trkpt lat="45.8038956" lon="8.6434039"><ele>270.5</ele><time>2026-05-01T16:14:03.842Z</time></trkpt><trkpt lat="45.8040151" lon="8.6432854"><ele>270.25</ele><time>2026-05-01T16:14:04.842Z</time></trkpt><trkpt lat="45.8041335" lon="8.6431732"><ele>270.0</ele><time>2026-05-01T16:14:05.842Z</time></trkpt><trkpt lat="45.8042529" lon="8.6430635"><ele>270.0</ele><time>2026-05-01T16:14:06.842Z</time></trkpt><trkpt lat="45.8043763" lon="8.6429529"><ele>270.0</ele><time>2026-05-01T16:14:07.842Z</time></trkpt><trkpt lat="45.8044986" lon="8.6428611"><ele>270.0</ele><time>2026-05-01T16:14:08.841Z</time></trkpt><trkpt lat="45.8046223" lon="8.642783"><ele>270.0</ele><time>2026-05-01T16:14:09.842Z</time></trkpt><trkpt lat="45.8047455" lon="8.6427274"><ele>269.0</ele><time>2026-05-01T16:14:10.842Z</time></trkpt><trkpt lat="45.8048703" lon="8.6426833"><ele>268.0</ele><time>2026-05-01T16:14:11.842Z</time></trkpt><trkpt lat="45.8049875" lon="8.6426498"><ele>267.0</ele><time>2026-05-01T16:14:12.842Z</time></trkpt><trkpt lat="45.8051035" lon="8.6426366"><ele>266.0</ele><time>2026-05-01T16:14:13.841Z</time></trkpt><trkpt lat="45.8052158" lon="8.6426551"><ele>264.5</ele><time>2026-05-01T16:14:14.842Z</time></trkpt><trkpt lat="45.8053297" lon="8.642691"><ele>263.0</ele><time>2026-05-01T16:14:15.842Z</time></trkpt><trkpt lat="45.8054375" lon="8.6427624"><ele>261.5</ele><time>2026-05-01T16:14:16.842Z</time></trkpt><trkpt lat="45.8055471" lon="8.6428596"><ele>260.0</ele><time>2026-05-01T16:14:17.842Z</time></trkpt><trkpt lat="45.8056659" lon="8.6429668"><ele>260.0</ele><time>2026-05-01T16:14:18.842Z</time></trkpt><trkpt lat="45.8057962" lon="8.6430794"><ele>260.0</ele><time>2026-05-01T16:14:19.841Z</time></trkpt><trkpt lat="45.8059262" lon="8.6432003"><ele>260.0</ele><time>2026-05-01T16:14:20.841Z</time></trkpt><trkpt lat="45.8060686" lon="8.6433303"><ele>255.66666666666669</ele><time>2026-05-01T16:14:21.841Z</time></trkpt><trkpt lat="45.8062284" lon="8.6434702"><ele>251.33333333333331</ele><time>2026-05-01T16:14:22.842Z</time></trkpt><trkpt lat="45.8063881" lon="8.6436027"><ele>247.0</ele><time>2026-05-01T16:14:23.842Z</time></trkpt><trkpt lat="45.8065456" lon="8.6437489"><ele>247.0</ele><time>2026-05-01T16:14:24.842Z</time></trkpt><trkpt lat="45.8067054" lon="8.6438925"><ele>247.0</ele><time>2026-05-01T16:14:25.841Z</time></trkpt><trkpt lat="45.806863" lon="8.6440314"><ele>247.0</ele><time>2026-05-01T16:14:26.842Z</time></trkpt><trkpt lat="45.8070168" lon="8.6441668"><ele>245.66666666666666</ele><time>2026-05-01T16:14:27.842Z</time></trkpt><trkpt lat="45.8071629" lon="8.6442942"><ele>244.33333333333331</ele><time>2026-05-01T16:14:28.842Z</time></trkpt><trkpt lat="45.8073011" lon="8.6444146"><ele>243.0</ele><time>2026-05-01T16:14:29.842Z</time></trkpt><trkpt lat="45.807431" lon="8.6445194"><ele>243.0</ele><time>2026-05-01T16:14:30.842Z</time></trkpt><trkpt lat="45.8075565" lon="8.644598"><ele>243.0</ele><time>2026-05-01T16:14:31.842Z</time></trkpt><trkpt lat="45.8076912" lon="8.6446568"><ele>243.0</ele><time>2026-05-01T16:14:32.842Z</time></trkpt><trkpt lat="45.8078267" lon="8.6446957"><ele>243.0</ele><time>2026-05-01T16:14:33.842Z</time></trkpt><trkpt lat="45.8079684" lon="8.6447228"><ele>238.0</ele><time>2026-05-01T16:14:34.842Z</time></trkpt><trkpt lat="45.8081255" lon="8.6447245"><ele>233.0</ele><time>2026-05-01T16:14:35.842Z</time></trkpt><trkpt lat="45.8082856" lon="8.6447095"><ele>228.0</ele><time>2026-05-01T16:14:36.842Z</time></trkpt><trkpt lat="45.808454" lon="8.6446818"><ele>226.33333333333331</ele><time>2026-05-01T16:14:37.842Z</time></trkpt><trkpt lat="45.8086201" lon="8.6446347"><ele>224.66666666666666</ele><time>2026-05-01T16:14:38.841Z</time></trkpt><trkpt lat="45.8087888" lon="8.6445687"><ele>223.0</ele><time>2026-05-01T16:14:39.842Z</time></trkpt><trkpt lat="45.8089556" lon="8.6444858"><ele>224.0</ele><time>2026-05-01T16:14:40.842Z</time></trkpt><trkpt lat="45.8091281" lon="8.6443963"><ele>225.0</ele><time>2026-05-01T16:14:41.842Z</time></trkpt><trkpt lat="45.8093073" lon="8.6443024"><ele>226.0</ele><time>2026-05-01T16:14:42.842Z</time></trkpt><trkpt lat="45.8094911" lon="8.6442089"><ele>227.0</ele><time>2026-05-01T16:14:43.842Z</time></trkpt><trkpt lat="45.8096747" lon="8.6441092"><ele>228.0</ele><time>2026-05-01T16:14:44.842Z</time></trkpt><trkpt lat="45.8098592" lon="8.6440093"><ele>229.0</ele><time>2026-05-01T16:14:45.842Z</time></trkpt><trkpt lat="45.8100423" lon="8.6439054"><ele>228.66666666666666</ele><time>2026-05-01T16:14:46.842Z</time></trkpt><trkpt lat="45.81023" lon="8.6438086"><ele>228.33333333333331</ele><time>2026-05-01T16:14:47.842Z</time></trkpt><trkpt lat="45.8104149" lon="8.6437098"><ele>228.0</ele><time>2026-05-01T16:14:48.842Z</time></trkpt><trkpt lat="45.8106008" lon="8.6436131"><ele>227.66666666666669</ele><time>2026-05-01T16:14:49.841Z</time></trkpt><trkpt lat="45.810789" lon="8.6435178"><ele>227.33333333333334</ele><time>2026-05-01T16:14:50.841Z</time></trkpt><trkpt lat="45.8109774" lon="8.6434222"><ele>227.0</ele><time>2026-05-01T16:14:51.841Z</time></trkpt><trkpt lat="45.8111628" lon="8.6433187"><ele>227.66666666666669</ele><time>2026-05-01T16:14:52.842Z</time></trkpt><trkpt lat="45.8113541" lon="8.6432161"><ele>228.33333333333331</ele><time>2026-05-01T16:14:53.842Z</time></trkpt><trkpt lat="45.8115452" lon="8.6431142"><ele>229.0</ele><time>2026-05-01T16:14:54.842Z</time></trkpt><trkpt lat="45.8117322" lon="8.6430139"><ele>228.0</ele><time>2026-05-01T16:14:55.842Z</time></trkpt><trkpt lat="45.811922" lon="8.642916"><ele>227.0</ele><time>2026-05-01T16:14:56.842Z</time></trkpt><trkpt lat="45.8121168" lon="8.6428082"><ele>226.0</ele><time>2026-05-01T16:14:57.841Z</time></trkpt><trkpt lat="45.812311" lon="8.642699"><ele>225.33333333333331</ele><time>2026-05-01T16:14:58.842Z</time></trkpt><trkpt lat="45.8124981" lon="8.6426035"><ele>224.66666666666669</ele><time>2026-05-01T16:14:59.841Z</time></trkpt><trkpt lat="45.8126832" lon="8.6424984"><ele>224.0</ele><time>2026-05-01T16:15:00.842Z</time></trkpt><trkpt lat="45.812867" lon="8.642404"><ele>221.33333333333334</ele><time>2026-05-01T16:15:01.842Z</time></trkpt><trkpt lat="45.813045" lon="8.6423001"><ele>218.66666666666669</ele><time>2026-05-01T16:15:02.842Z</time></trkpt><trkpt lat="45.813204" lon="8.6422021"><ele>216.0</ele><time>2026-05-01T16:15:03.842Z</time></trkpt><trkpt lat="45.8133484" lon="8.6421101"><ele>215.75</ele><time>2026-05-01T16:15:04.842Z</time></trkpt><trkpt lat="45.813493" lon="8.6420195"><ele>215.5</ele><time>2026-05-01T16:15:05.842Z</time></trkpt><trkpt lat="45.8136307" lon="8.6419566"><ele>215.25</ele><time>2026-05-01T16:15:06.842Z</time></trkpt><trkpt lat="45.8137705" lon="8.6419251"><ele>215.0</ele><time>2026-05-01T16:15:07.842Z</time></trkpt><trkpt lat="45.8139065" lon="8.6419228"><ele>215.0</ele><time>2026-05-01T16:15:08.842Z</time></trkpt><trkpt lat="45.8140462" lon="8.6419517"><ele>215.0</ele><time>2026-05-01T16:15:09.842Z</time></trkpt><trkpt lat="45.8141925" lon="8.6419918"><ele>215.0</ele><time>2026-05-01T16:15:10.842Z</time></trkpt><trkpt lat="45.8143397" lon="8.6420318"><ele>215.0</ele><time>2026-05-01T16:15:11.842Z</time></trkpt><trkpt lat="45.8144858" lon="8.6420798"><ele>217.0</ele><time>2026-05-01T16:15:12.842Z</time></trkpt><trkpt lat="45.8146317" lon="8.6421354"><ele>219.0</ele><time>2026-05-01T16:15:13.842Z</time></trkpt><trkpt lat="45.8147695" lon="8.6422103"><ele>221.0</ele><time>2026-05-01T16:15:14.842Z</time></trkpt><trkpt lat="45.8148972" lon="8.6423059"><ele>223.0</ele><time>2026-05-01T16:15:15.842Z</time></trkpt><trkpt lat="45.8150321" lon="8.6424395"><ele>222.66666666666666</ele><time>2026-05-01T16:15:16.842Z</time></trkpt><trkpt lat="45.8151584" lon="8.6425783"><ele>222.33333333333331</ele><time>2026-05-01T16:15:17.842Z</time></trkpt><trkpt lat="45.8152891" lon="8.6427142"><ele>222.0</ele><time>2026-05-01T16:15:18.841Z</time></trkpt><trkpt lat="45.8154346" lon="8.6428627"><ele>221.33333333333331</ele><time>2026-05-01T16:15:19.842Z</time></trkpt><trkpt lat="45.8155761" lon="8.6430034"><ele>220.66666666666666</ele><time>2026-05-01T16:15:20.842Z</time></trkpt><trkpt lat="45.8157247" lon="8.6431435"><ele>220.0</ele><time>2026-05-01T16:15:21.842Z</time></trkpt><trkpt lat="45.8158603" lon="8.6432788"><ele>219.66666666666666</ele><time>2026-05-01T16:15:22.842Z</time></trkpt><trkpt lat="45.8160014" lon="8.6434122"><ele>219.33333333333331</ele><time>2026-05-01T16:15:23.842Z</time></trkpt><trkpt lat="45.8161458" lon="8.6435498"><ele>219.0</ele><time>2026-05-01T16:15:24.841Z</time></trkpt><trkpt lat="45.8162967" lon="8.6436736"><ele>220.0</ele><time>2026-05-01T16:15:25.842Z</time></trkpt><trkpt lat="45.8164492" lon="8.6437795"><ele>221.0</ele><time>2026-05-01T16:15:26.841Z</time></trkpt><trkpt lat="45.8166036" lon="8.643881"><ele>222.0</ele><time>2026-05-01T16:15:27.842Z</time></trkpt><trkpt lat="45.8167716" lon="8.6439644"><ele>222.33333333333331</ele><time>2026-05-01T16:15:28.842Z</time></trkpt><trkpt lat="45.816933" lon="8.6440436"><ele>222.66666666666666</ele><time>2026-05-01T16:15:29.842Z</time></trkpt><trkpt lat="45.8170934" lon="8.6441182"><ele>223.0</ele><time>2026-05-01T16:15:30.842Z</time></trkpt><trkpt lat="45.8172598" lon="8.6441874"><ele>223.0</ele><time>2026-05-01T16:15:31.842Z</time></trkpt><trkpt lat="45.8174288" lon="8.6442566"><ele>223.0</ele><time>2026-05-01T16:15:32.842Z</time></trkpt><trkpt lat="45.8176078" lon="8.6443286"><ele>223.0</ele><time>2026-05-01T16:15:33.842Z</time></trkpt><trkpt lat="45.8177909" lon="8.6443931"><ele>223.33333333333331</ele><time>2026-05-01T16:15:34.842Z</time></trkpt><trkpt lat="45.8179717" lon="8.644462"><ele>223.66666666666669</ele><time>2026-05-01T16:15:35.842Z</time></trkpt><trkpt lat="45.8181521" lon="8.6445356"><ele>224.0</ele><time>2026-05-01T16:15:36.842Z</time></trkpt><trkpt lat="45.8183322" lon="8.6446045"><ele>222.66666666666669</ele><time>2026-05-01T16:15:37.841Z</time></trkpt><trkpt lat="45.818512" lon="8.6446694"><ele>221.33333333333331</ele><time>2026-05-01T16:15:38.842Z</time></trkpt><trkpt lat="45.8186882" lon="8.6447364"><ele>220.0</ele><time>2026-05-01T16:15:39.842Z</time></trkpt><trkpt lat="45.8188617" lon="8.6448013"><ele>220.0</ele><time>2026-05-01T16:15:40.842Z</time></trkpt><trkpt lat="45.8190354" lon="8.6448647"><ele>220.0</ele><time>2026-05-01T16:15:41.842Z</time></trkpt><trkpt lat="45.8192107" lon="8.6449296"><ele>220.0</ele><time>2026-05-01T16:15:42.842Z</time></trkpt><trkpt lat="45.8193794" lon="8.6449936"><ele>220.33333333333331</ele><time>2026-05-01T16:15:43.841Z</time></trkpt><trkpt lat="45.8195519" lon="8.6450579"><ele>220.66666666666669</ele><time>2026-05-01T16:15:44.842Z</time></trkpt><trkpt lat="45.8197224" lon="8.6451216"><ele>221.0</ele><time>2026-05-01T16:15:45.842Z</time></trkpt><trkpt lat="45.8198936" lon="8.6451843"><ele>221.0</ele><time>2026-05-01T16:15:46.842Z</time></trkpt><trkpt lat="45.8200642" lon="8.6452547"><ele>221.0</ele><time>2026-05-01T16:15:47.842Z</time></trkpt><trkpt lat="45.8202285" lon="8.6453433"><ele>221.0</ele><time>2026-05-01T16:15:48.842Z</time></trkpt><trkpt lat="45.8203908" lon="8.6454393"><ele>221.0</ele><time>2026-05-01T16:15:49.842Z</time></trkpt><trkpt lat="45.8205563" lon="8.6455367"><ele>221.0</ele><time>2026-05-01T16:15:50.842Z</time></trkpt><trkpt lat="45.8207212" lon="8.6456333"><ele>221.0</ele><time>2026-05-01T16:15:51.842Z</time></trkpt><trkpt lat="45.8208901" lon="8.645732"><ele>221.66666666666669</ele><time>2026-05-01T16:15:52.842Z</time></trkpt><trkpt lat="45.8210625" lon="8.6458314"><ele>222.33333333333331</ele><time>2026-05-01T16:15:53.841Z</time></trkpt><trkpt lat="45.8212284" lon="8.6459188"><ele>223.0</ele><time>2026-05-01T16:15:54.842Z</time></trkpt><trkpt lat="45.8213995" lon="8.646004"><ele>223.0</ele><time>2026-05-01T16:15:55.842Z</time></trkpt><trkpt lat="45.8215709" lon="8.6460823"><ele>223.0</ele><time>2026-05-01T16:15:56.842Z</time></trkpt><trkpt lat="45.8217449" lon="8.646163"><ele>223.0</ele><time>2026-05-01T16:15:57.841Z</time></trkpt><trkpt lat="45.8219187" lon="8.6462351"><ele>223.33333333333331</ele><time>2026-05-01T16:15:58.842Z</time></trkpt><trkpt lat="45.8220944" lon="8.6463161"><ele>223.66666666666669</ele><time>2026-05-01T16:15:59.841Z</time></trkpt><trkpt lat="45.8222694" lon="8.6463922"><ele>224.0</ele><time>2026-05-01T16:16:00.842Z</time></trkpt><trkpt lat="45.8224457" lon="8.646462"><ele>224.0</ele><time>2026-05-01T16:16:01.841Z</time></trkpt><trkpt lat="45.8226235" lon="8.6465336"><ele>224.0</ele><time>2026-05-01T16:16:02.842Z</time></trkpt><trkpt lat="45.8227922" lon="8.6466055"><ele>224.0</ele><time>2026-05-01T16:16:03.842Z</time></trkpt><trkpt lat="45.8229504" lon="8.646676"><ele>224.0</ele><time>2026-05-01T16:16:04.842Z</time></trkpt><trkpt lat="45.823094" lon="8.6467419"><ele>224.0</ele><time>2026-05-01T16:16:05.842Z</time></trkpt><trkpt lat="45.8232256" lon="8.6468134"><ele>224.0</ele><time>2026-05-01T16:16:06.842Z</time></trkpt><trkpt lat="45.8233522" lon="8.6468865"><ele>224.0</ele><time>2026-05-01T16:16:07.842Z</time></trkpt><trkpt lat="45.82346" lon="8.6469562"><ele>224.0</ele><time>2026-05-01T16:16:08.841Z</time></trkpt><trkpt lat="45.8235558" lon="8.6470177"><ele>223.99999999999997</ele><time>2026-05-01T16:16:09.842Z</time></trkpt><trkpt lat="45.8236378" lon="8.6470854"><ele>223.99999999999997</ele><time>2026-05-01T16:16:10.842Z</time></trkpt><trkpt lat="45.8237013" lon="8.6471449"><ele>224.0</ele><time>2026-05-01T16:16:11.842Z</time></trkpt><trkpt lat="45.8237629" lon="8.6472017"><ele>224.0</ele><time>2026-05-01T16:16:12.841Z</time></trkpt><trkpt lat="45.8238918" lon="8.6472076"><ele>224.0</ele><time>2026-05-01T16:16:14.842Z</time></trkpt><trkpt lat="45.8239785" lon="8.6471856"><ele>223.99999999999997</ele><time>2026-05-01T16:16:15.842Z</time></trkpt><trkpt lat="45.8240816" lon="8.6471669"><ele>223.99999999999997</ele><time>2026-05-01T16:16:16.842Z</time></trkpt><trkpt lat="45.8241959" lon="8.6471449"><ele>224.0</ele><time>2026-05-01T16:16:17.842Z</time></trkpt><trkpt lat="45.8243094" lon="8.6471088"><ele>224.0</ele><time>2026-05-01T16:16:18.842Z</time></trkpt><trkpt lat="45.8244265" lon="8.6470612"><ele>224.0</ele><time>2026-05-01T16:16:19.842Z</time></trkpt><trkpt lat="45.8245503" lon="8.6470014"><ele>224.0</ele><time>2026-05-01T16:16:20.842Z</time></trkpt><trkpt lat="45.8246725" lon="8.6469393"><ele>224.0</ele><time>2026-05-01T16:16:21.842Z</time></trkpt><trkpt lat="45.8247961" lon="8.6468719"><ele>224.0</ele><time>2026-05-01T16:16:22.842Z</time></trkpt><trkpt lat="45.8249175" lon="8.6468065"><ele>223.5</ele><time>2026-05-01T16:16:23.842Z</time></trkpt><trkpt lat="45.8250355" lon="8.6467335"><ele>223.0</ele><time>2026-05-01T16:16:24.842Z</time></trkpt><trkpt lat="45.8251484" lon="8.6466712"><ele>222.5</ele><time>2026-05-01T16:16:25.842Z</time></trkpt><trkpt lat="45.8252539" lon="8.646617"><ele>222.0</ele><time>2026-05-01T16:16:26.842Z</time></trkpt><trkpt lat="45.8253534" lon="8.6465731"><ele>222.0</ele><time>2026-05-01T16:16:27.842Z</time></trkpt><trkpt lat="45.8254523" lon="8.6465393"><ele>222.0</ele><time>2026-05-01T16:16:28.841Z</time></trkpt><trkpt lat="45.8255567" lon="8.6465102"><ele>222.0</ele><time>2026-05-01T16:16:29.841Z</time></trkpt><trkpt lat="45.8256615" lon="8.6464764"><ele>222.0</ele><time>2026-05-01T16:16:30.842Z</time></trkpt><trkpt lat="45.825756" lon="8.6464451"><ele>222.0</ele><time>2026-05-01T16:16:31.841Z</time></trkpt><trkpt lat="45.8258451" lon="8.6464171"><ele>222.0</ele><time>2026-05-01T16:16:32.842Z</time></trkpt><trkpt lat="45.8259208" lon="8.6463886"><ele>222.0</ele><time>2026-05-01T16:16:33.842Z</time></trkpt><trkpt lat="45.8259888" lon="8.6463652"><ele>222.0</ele><time>2026-05-01T16:16:34.842Z</time></trkpt><trkpt lat="45.8261037" lon="8.6463476"><ele>222.0</ele><time>2026-05-01T16:16:36.841Z</time></trkpt><trkpt lat="45.8262018" lon="8.6463407"><ele>222.0</ele><time>2026-05-01T16:16:38.842Z</time></trkpt><trkpt lat="45.8262819" lon="8.6463224"><ele>222.0</ele><time>2026-05-01T16:16:41.841Z</time></trkpt><trkpt lat="45.8263331" lon="8.6462444"><ele>222.16666666666666</ele><time>2026-05-01T16:16:50.842Z</time></trkpt><trkpt lat="45.8263047" lon="8.6461099"><ele>222.33333333333331</ele><time>2026-05-01T16:16:52.842Z</time></trkpt><trkpt lat="45.8262733" lon="8.6459634"><ele>222.5</ele><time>2026-05-01T16:16:54.842Z</time></trkpt><trkpt lat="45.8262511" lon="8.645874"><ele>222.66666666666666</ele><time>2026-05-01T16:16:55.842Z</time></trkpt><trkpt lat="45.8262347" lon="8.6457818"><ele>222.83333333333331</ele><time>2026-05-01T16:16:56.842Z</time></trkpt><trkpt lat="45.8262164" lon="8.6456801"><ele>223.0</ele><time>2026-05-01T16:16:57.842Z</time></trkpt><trkpt lat="45.8262011" lon="8.6455822"><ele>223.0</ele><time>2026-05-01T16:16:58.842Z</time></trkpt><trkpt lat="45.8261813" lon="8.6454811"><ele>223.0</ele><time>2026-05-01T16:16:59.841Z</time></trkpt><trkpt lat="45.8261622" lon="8.6453699"><ele>223.0</ele><time>2026-05-01T16:17:00.841Z</time></trkpt><trkpt lat="45.8261429" lon="8.6452709"><ele>223.0</ele><time>2026-05-01T16:17:01.842Z</time></trkpt><trkpt lat="45.8261278" lon="8.6451763"><ele>223.0</ele><time>2026-05-01T16:17:02.842Z</time></trkpt><trkpt lat="45.8261159" lon="8.6450777"><ele>223.0</ele><time>2026-05-01T16:17:03.842Z</time></trkpt><trkpt lat="45.8261047" lon="8.6449646"><ele>223.0</ele><time>2026-05-01T16:17:04.842Z</time></trkpt><trkpt lat="45.8260974" lon="8.6448557"><ele>222.99999999999997</ele><time>2026-05-01T16:17:05.842Z</time></trkpt><trkpt lat="45.8260863" lon="8.6447432"><ele>223.0</ele><time>2026-05-01T16:17:06.842Z</time></trkpt><trkpt lat="45.8260781" lon="8.6446409"><ele>223.0</ele><time>2026-05-01T16:17:07.842Z</time></trkpt><trkpt lat="45.8260704" lon="8.6445509"><ele>223.0</ele><time>2026-05-01T16:17:08.842Z</time></trkpt><trkpt lat="45.8260608" lon="8.6444061"><ele>222.99999999999997</ele><time>2026-05-01T16:17:10.841Z</time></trkpt><trkpt lat="45.8260657" lon="8.6442809"><ele>223.0</ele><time>2026-05-01T16:17:12.842Z</time></trkpt><trkpt lat="45.82608" lon="8.6441714"><ele>223.0</ele><time>2026-05-01T16:17:15.842Z</time></trkpt><trkpt lat="45.8260742" lon="8.64403"><ele>223.0</ele><time>2026-05-01T16:17:25.842Z</time></trkpt><trkpt lat="45.8260243" lon="8.6439744"><ele>223.0</ele><time>2026-05-01T16:17:26.842Z</time></trkpt><trkpt lat="45.8259697" lon="8.6439259"><ele>223.0</ele><time>2026-05-01T16:17:27.842Z</time></trkpt><trkpt lat="45.8259056" lon="8.6438791"><ele>223.0</ele><time>2026-05-01T16:17:28.842Z</time></trkpt><trkpt lat="45.8258498" lon="8.6438287"><ele>223.0</ele><time>2026-05-01T16:17:29.842Z</time></trkpt><trkpt lat="45.8257936" lon="8.6437709"><ele>223.0</ele><time>2026-05-01T16:17:30.842Z</time></trkpt><trkpt lat="45.8257374" lon="8.6437086"><ele>223.16666666666666</ele><time>2026-05-01T16:17:31.842Z</time></trkpt><trkpt lat="45.825673" lon="8.6436307"><ele>223.33333333333331</ele><time>2026-05-01T16:17:32.842Z</time></trkpt><trkpt lat="45.8256135" lon="8.6435536"><ele>223.5</ele><time>2026-05-01T16:17:33.842Z</time></trkpt><trkpt lat="45.8255647" lon="8.6434875"><ele>223.66666666666669</ele><time>2026-05-01T16:17:34.842Z</time></trkpt><trkpt lat="45.8254883" lon="8.6433739"><ele>223.83333333333334</ele><time>2026-05-01T16:17:36.842Z</time></trkpt><trkpt lat="45.8254362" lon="8.6433067"><ele>224.0</ele><time>2026-05-01T16:17:39.842Z</time></trkpt><trkpt lat="45.8253649" lon="8.6432603"><ele>224.0</ele><time>2026-05-01T16:17:43.842Z</time></trkpt><trkpt lat="45.8253055" lon="8.6432273"><ele>224.0</ele><time>2026-05-01T16:17:46.842Z</time></trkpt><trkpt lat="45.8252563" lon="8.6431708"><ele>224.0</ele><time>2026-05-01T16:18:18.842Z</time></trkpt><trkpt lat="45.8251943" lon="8.6432077"><ele>224.0</ele><time>2026-05-01T16:19:31.842Z</time></trkpt><trkpt lat="45.8252192" lon="8.6431187"><ele>224.0</ele><time>2026-05-01T16:22:33.842Z</time></trkpt><trkpt lat="45.8252793" lon="8.6431687"><ele>224.0</ele><time>2026-05-01T16:22:47.841Z</time></trkpt><trkpt lat="45.8253487" lon="8.6432651"><ele>224.0</ele><time>2026-05-01T16:22:50.842Z</time></trkpt><trkpt lat="45.8253986" lon="8.6433288"><ele>224.00000000000003</ele><time>2026-05-01T16:22:51.842Z</time></trkpt><trkpt lat="45.8254838" lon="8.643453"><ele>224.0</ele><time>2026-05-01T16:22:53.842Z</time></trkpt><trkpt lat="45.8255339" lon="8.6435125"><ele>224.0</ele><time>2026-05-01T16:22:54.842Z</time></trkpt><trkpt lat="45.8255817" lon="8.6435772"><ele>224.0</ele><time>2026-05-01T16:22:55.842Z</time></trkpt><trkpt lat="45.8256293" lon="8.6436416"><ele>224.00000000000003</ele><time>2026-05-01T16:22:56.842Z</time></trkpt><trkpt lat="45.8256823" lon="8.6437043"><ele>224.0</ele><time>2026-05-01T16:22:57.842Z</time></trkpt><trkpt lat="45.8257399" lon="8.6437635"><ele>224.16666666666669</ele><time>2026-05-01T16:22:58.842Z</time></trkpt><trkpt lat="45.8258052" lon="8.6438275"><ele>224.33333333333334</ele><time>2026-05-01T16:22:59.842Z</time></trkpt><trkpt lat="45.8258673" lon="8.6438956"><ele>224.5</ele><time>2026-05-01T16:23:00.842Z</time></trkpt><trkpt lat="45.8259233" lon="8.6439719"><ele>224.66666666666669</ele><time>2026-05-01T16:23:01.842Z</time></trkpt><trkpt lat="45.825965" lon="8.6440734"><ele>224.83333333333334</ele><time>2026-05-01T16:23:02.841Z</time></trkpt><trkpt lat="45.825995" lon="8.6441821"><ele>225.0</ele><time>2026-05-01T16:23:03.842Z</time></trkpt><trkpt lat="45.8260098" lon="8.6442986"><ele>224.6</ele><time>2026-05-01T16:23:04.841Z</time></trkpt><trkpt lat="45.8260231" lon="8.6444365"><ele>224.2</ele><time>2026-05-01T16:23:05.842Z</time></trkpt><trkpt lat="45.826035" lon="8.644582"><ele>223.8</ele><time>2026-05-01T16:23:06.841Z</time></trkpt><trkpt lat="45.8260493" lon="8.644735"><ele>223.4</ele><time>2026-05-01T16:23:07.842Z</time></trkpt><trkpt lat="45.8260642" lon="8.6448807"><ele>223.0</ele><time>2026-05-01T16:23:08.842Z</time></trkpt><trkpt lat="45.8260825" lon="8.6450306"><ele>223.0</ele><time>2026-05-01T16:23:09.842Z</time></trkpt><trkpt lat="45.8261036" lon="8.6451797"><ele>223.0</ele><time>2026-05-01T16:23:10.842Z</time></trkpt><trkpt lat="45.8261282" lon="8.6453234"><ele>223.0</ele><time>2026-05-01T16:23:11.841Z</time></trkpt><trkpt lat="45.8261512" lon="8.645465"><ele>223.0</ele><time>2026-05-01T16:23:12.842Z</time></trkpt><trkpt lat="45.8261754" lon="8.6455915"><ele>223.0</ele><time>2026-05-01T16:23:13.842Z</time></trkpt><trkpt lat="45.8262008" lon="8.6457119"><ele>222.99999999999997</ele><time>2026-05-01T16:23:14.842Z</time></trkpt><trkpt lat="45.8262195" lon="8.6458073"><ele>223.0</ele><time>2026-05-01T16:23:15.841Z</time></trkpt><trkpt lat="45.8262398" lon="8.6458983"><ele>223.0</ele><time>2026-05-01T16:23:16.842Z</time></trkpt><trkpt lat="45.8262757" lon="8.6460497"><ele>223.0</ele><time>2026-05-01T16:23:18.842Z</time></trkpt><trkpt lat="45.8262899" lon="8.6461577"><ele>222.99999999999997</ele><time>2026-05-01T16:23:20.841Z</time></trkpt><trkpt lat="45.8262806" lon="8.6462643"><ele>223.0</ele><time>2026-05-01T16:23:22.842Z</time></trkpt><trkpt lat="45.8262231" lon="8.6463025"><ele>223.2</ele><time>2026-05-01T16:23:24.841Z</time></trkpt><trkpt lat="45.8260923" lon="8.6463227"><ele>223.4</ele><time>2026-05-01T16:23:26.842Z</time></trkpt><trkpt lat="45.8260052" lon="8.646327"><ele>223.59999999999997</ele><time>2026-05-01T16:23:27.842Z</time></trkpt><trkpt lat="45.8259219" lon="8.6463439"><ele>223.79999999999998</ele><time>2026-05-01T16:23:28.842Z</time></trkpt><trkpt lat="45.8258148" lon="8.6463775"><ele>224.0</ele><time>2026-05-01T16:23:29.842Z</time></trkpt><trkpt lat="45.8257186" lon="8.6464071"><ele>223.6</ele><time>2026-05-01T16:23:30.842Z</time></trkpt><trkpt lat="45.8256148" lon="8.6464423"><ele>223.2</ele><time>2026-05-01T16:23:31.841Z</time></trkpt><trkpt lat="45.8255156" lon="8.646477"><ele>222.79999999999998</ele><time>2026-05-01T16:23:32.842Z</time></trkpt><trkpt lat="45.82542" lon="8.6465071"><ele>222.39999999999998</ele><time>2026-05-01T16:23:33.842Z</time></trkpt><trkpt lat="45.8253434" lon="8.6465293"><ele>222.0</ele><time>2026-05-01T16:23:34.842Z</time></trkpt><trkpt lat="45.8252384" lon="8.6465636"><ele>222.0</ele><time>2026-05-01T16:23:36.841Z</time></trkpt><trkpt lat="45.8251468" lon="8.6466109"><ele>222.0</ele><time>2026-05-01T16:23:38.841Z</time></trkpt><trkpt lat="45.8250344" lon="8.6466935"><ele>222.0</ele><time>2026-05-01T16:23:40.841Z</time></trkpt><trkpt lat="45.8249594" lon="8.6467515"><ele>222.0</ele><time>2026-05-01T16:23:41.842Z</time></trkpt><trkpt lat="45.8248746" lon="8.6468096"><ele>222.0</ele><time>2026-05-01T16:23:42.842Z</time></trkpt><trkpt lat="45.8247821" lon="8.6468657"><ele>222.0</ele><time>2026-05-01T16:23:43.842Z</time></trkpt><trkpt lat="45.8246835" lon="8.6469131"><ele>222.0</ele><time>2026-05-01T16:23:44.842Z</time></trkpt><trkpt lat="45.8245795" lon="8.64696"><ele>222.0</ele><time>2026-05-01T16:23:45.842Z</time></trkpt><trkpt lat="45.8244742" lon="8.6470155"><ele>222.0</ele><time>2026-05-01T16:23:46.842Z</time></trkpt><trkpt lat="45.824376" lon="8.6470573"><ele>222.0</ele><time>2026-05-01T16:23:47.842Z</time></trkpt><trkpt lat="45.8242866" lon="8.6471008"><ele>222.33333333333334</ele><time>2026-05-01T16:23:48.842Z</time></trkpt><trkpt lat="45.8242034" lon="8.6471328"><ele>222.66666666666669</ele><time>2026-05-01T16:23:49.842Z</time></trkpt><trkpt lat="45.8241206" lon="8.6471486"><ele>223.0</ele><time>2026-05-01T16:23:50.842Z</time></trkpt><trkpt lat="45.8240426" lon="8.6471685"><ele>223.33333333333334</ele><time>2026-05-01T16:23:51.841Z</time></trkpt><trkpt lat="45.8239748" lon="8.6471759"><ele>223.66666666666669</ele><time>2026-05-01T16:23:52.842Z</time></trkpt><trkpt lat="45.8238989" lon="8.6471773"><ele>224.0</ele><time>2026-05-01T16:23:53.841Z</time></trkpt><trkpt lat="45.8238162" lon="8.647159"><ele>224.0</ele><time>2026-05-01T16:23:54.842Z</time></trkpt><trkpt lat="45.8237317" lon="8.6471028"><ele>223.99999999999997</ele><time>2026-05-01T16:23:55.842Z</time></trkpt><trkpt lat="45.8236354" lon="8.647036"><ele>223.99999999999997</ele><time>2026-05-01T16:23:56.841Z</time></trkpt><trkpt lat="45.8235292" lon="8.646959"><ele>224.0</ele><time>2026-05-01T16:23:57.842Z</time></trkpt><trkpt lat="45.8234122" lon="8.6468831"><ele>224.0</ele><time>2026-05-01T16:23:58.842Z</time></trkpt><trkpt lat="45.8232892" lon="8.6468032"><ele>224.0</ele><time>2026-05-01T16:23:59.842Z</time></trkpt><trkpt lat="45.8231619" lon="8.6467338"><ele>224.0</ele><time>2026-05-01T16:24:00.842Z</time></trkpt><trkpt lat="45.8230289" lon="8.6466611"><ele>224.0</ele><time>2026-05-01T16:24:01.842Z</time></trkpt><trkpt lat="45.8228933" lon="8.6465987"><ele>224.0</ele><time>2026-05-01T16:24:02.842Z</time></trkpt><trkpt lat="45.8227514" lon="8.646539"><ele>224.0</ele><time>2026-05-01T16:24:03.842Z</time></trkpt><trkpt lat="45.8226067" lon="8.6464761"><ele>224.0</ele><time>2026-05-01T16:24:04.842Z</time></trkpt><trkpt lat="45.8224528" lon="8.6464131"><ele>224.0</ele><time>2026-05-01T16:24:05.842Z</time></trkpt><trkpt lat="45.8222954" lon="8.646346"><ele>224.0</ele><time>2026-05-01T16:24:06.842Z</time></trkpt><trkpt lat="45.8221322" lon="8.6462761"><ele>224.0</ele><time>2026-05-01T16:24:07.842Z</time></trkpt><trkpt lat="45.8219773" lon="8.646212"><ele>224.0</ele><time>2026-05-01T16:24:08.842Z</time></trkpt><trkpt lat="45.8218239" lon="8.6461492"><ele>223.66666666666669</ele><time>2026-05-01T16:24:09.841Z</time></trkpt><trkpt lat="45.8216632" lon="8.6460819"><ele>223.33333333333331</ele><time>2026-05-01T16:24:10.842Z</time></trkpt><trkpt lat="45.8215009" lon="8.6460129"><ele>223.0</ele><time>2026-05-01T16:24:11.842Z</time></trkpt><trkpt lat="45.8213388" lon="8.6459413"><ele>223.0</ele><time>2026-05-01T16:24:12.842Z</time></trkpt><trkpt lat="45.8211746" lon="8.645859"><ele>223.0</ele><time>2026-05-01T16:24:13.842Z</time></trkpt><trkpt lat="45.8210098" lon="8.6457755"><ele>223.0</ele><time>2026-05-01T16:24:14.842Z</time></trkpt><trkpt lat="45.8208468" lon="8.6456799"><ele>222.33333333333331</ele><time>2026-05-01T16:24:15.842Z</time></trkpt><trkpt lat="45.8206878" lon="8.6455845"><ele>221.66666666666669</ele><time>2026-05-01T16:24:16.842Z</time></trkpt><trkpt lat="45.8205225" lon="8.6454932"><ele>221.0</ele><time>2026-05-01T16:24:17.842Z</time></trkpt><trkpt lat="45.8203592" lon="8.6453942"><ele>221.0</ele><time>2026-05-01T16:24:18.842Z</time></trkpt><trkpt lat="45.8201992" lon="8.6453024"><ele>221.0</ele><time>2026-05-01T16:24:19.842Z</time></trkpt><trkpt lat="45.8200329" lon="8.6452203"><ele>221.0</ele><time>2026-05-01T16:24:20.842Z</time></trkpt><trkpt lat="45.8198701" lon="8.6451478"><ele>221.0</ele><time>2026-05-01T16:24:21.842Z</time></trkpt><trkpt lat="45.8197056" lon="8.6450806"><ele>221.0</ele><time>2026-05-01T16:24:22.842Z</time></trkpt><trkpt lat="45.8195365" lon="8.6450069"><ele>221.0</ele><time>2026-05-01T16:24:23.842Z</time></trkpt><trkpt lat="45.819369" lon="8.6449423"><ele>220.66666666666669</ele><time>2026-05-01T16:24:24.841Z</time></trkpt><trkpt lat="45.8191983" lon="8.6448714"><ele>220.33333333333331</ele><time>2026-05-01T16:24:25.842Z</time></trkpt><trkpt lat="45.8190298" lon="8.644811"><ele>220.0</ele><time>2026-05-01T16:24:26.842Z</time></trkpt><trkpt lat="45.8188642" lon="8.6447537"><ele>220.0</ele><time>2026-05-01T16:24:27.842Z</time></trkpt><trkpt lat="45.818689" lon="8.6446776"><ele>220.0</ele><time>2026-05-01T16:24:28.842Z</time></trkpt><trkpt lat="45.8185175" lon="8.6446157"><ele>220.0</ele><time>2026-05-01T16:24:29.842Z</time></trkpt><trkpt lat="45.818346" lon="8.6445587"><ele>220.66666666666666</ele><time>2026-05-01T16:24:30.841Z</time></trkpt><trkpt lat="45.8181737" lon="8.6444949"><ele>221.33333333333331</ele><time>2026-05-01T16:24:31.842Z</time></trkpt><trkpt lat="45.818004" lon="8.6444257"><ele>222.0</ele><time>2026-05-01T16:24:32.842Z</time></trkpt><trkpt lat="45.8178292" lon="8.6443626"><ele>222.33333333333331</ele><time>2026-05-01T16:24:33.842Z</time></trkpt><trkpt lat="45.8176561" lon="8.6442975"><ele>222.66666666666666</ele><time>2026-05-01T16:24:34.842Z</time></trkpt><trkpt lat="45.817485" lon="8.644238"><ele>223.0</ele><time>2026-05-01T16:24:35.842Z</time></trkpt><trkpt lat="45.8173124" lon="8.6441707"><ele>223.0</ele><time>2026-05-01T16:24:36.842Z</time></trkpt><trkpt lat="45.8171386" lon="8.6441033"><ele>223.0</ele><time>2026-05-01T16:24:37.842Z</time></trkpt><trkpt lat="45.8169586" lon="8.6440237"><ele>223.0</ele><time>2026-05-01T16:24:38.842Z</time></trkpt><trkpt lat="45.8167818" lon="8.6439487"><ele>222.66666666666666</ele><time>2026-05-01T16:24:39.842Z</time></trkpt><trkpt lat="45.8166064" lon="8.6438563"><ele>222.33333333333331</ele><time>2026-05-01T16:24:40.842Z</time></trkpt><trkpt lat="45.81644" lon="8.6437542"><ele>222.0</ele><time>2026-05-01T16:24:41.842Z</time></trkpt><trkpt lat="45.8162794" lon="8.6436379"><ele>221.33333333333331</ele><time>2026-05-01T16:24:42.841Z</time></trkpt><trkpt lat="45.8161209" lon="8.6435105"><ele>220.66666666666666</ele><time>2026-05-01T16:24:43.842Z</time></trkpt><trkpt lat="45.8159694" lon="8.6433664"><ele>220.0</ele><time>2026-05-01T16:24:44.842Z</time></trkpt><trkpt lat="45.8158196" lon="8.6432252"><ele>220.0</ele><time>2026-05-01T16:24:45.841Z</time></trkpt><trkpt lat="45.8156669" lon="8.6430724"><ele>220.0</ele><time>2026-05-01T16:24:46.841Z</time></trkpt><trkpt lat="45.815523" lon="8.6429284"><ele>220.0</ele><time>2026-05-01T16:24:47.842Z</time></trkpt><trkpt lat="45.8153692" lon="8.6427813"><ele>220.66666666666666</ele><time>2026-05-01T16:24:48.842Z</time></trkpt><trkpt lat="45.8152213" lon="8.6426333"><ele>221.33333333333331</ele><time>2026-05-01T16:24:49.842Z</time></trkpt><trkpt lat="45.8150817" lon="8.6424948"><ele>222.0</ele><time>2026-05-01T16:24:50.842Z</time></trkpt><trkpt lat="45.814946" lon="8.642362"><ele>222.33333333333331</ele><time>2026-05-01T16:24:51.842Z</time></trkpt><trkpt lat="45.8148048" lon="8.6422422"><ele>222.66666666666666</ele><time>2026-05-01T16:24:52.841Z</time></trkpt><trkpt lat="45.8146621" lon="8.6421439"><ele>223.0</ele><time>2026-05-01T16:24:53.841Z</time></trkpt><trkpt lat="45.814512" lon="8.6420672"><ele>223.0</ele><time>2026-05-01T16:24:54.842Z</time></trkpt><trkpt lat="45.8143536" lon="8.6420083"><ele>223.0</ele><time>2026-05-01T16:24:55.842Z</time></trkpt><trkpt lat="45.8141953" lon="8.6419579"><ele>223.0</ele><time>2026-05-01T16:24:56.841Z</time></trkpt><trkpt lat="45.8140439" lon="8.6419167"><ele>221.25</ele><time>2026-05-01T16:24:57.842Z</time></trkpt><trkpt lat="45.8138962" lon="8.6418881"><ele>219.5</ele><time>2026-05-01T16:24:58.842Z</time></trkpt><trkpt lat="45.8137539" lon="8.6418926"><ele>217.75</ele><time>2026-05-01T16:24:59.842Z</time></trkpt><trkpt lat="45.8136082" lon="8.6419321"><ele>216.0</ele><time>2026-05-01T16:25:00.842Z</time></trkpt><trkpt lat="45.8134689" lon="8.6420015"><ele>216.0</ele><time>2026-05-01T16:25:01.842Z</time></trkpt><trkpt lat="45.8133322" lon="8.6420961"><ele>216.0</ele><time>2026-05-01T16:25:02.842Z</time></trkpt><trkpt lat="45.8131864" lon="8.6421853"><ele>216.0</ele><time>2026-05-01T16:25:03.842Z</time></trkpt><trkpt lat="45.8130358" lon="8.6422817"><ele>216.0</ele><time>2026-05-01T16:25:04.842Z</time></trkpt><trkpt lat="45.8128842" lon="8.6423661"><ele>216.0</ele><time>2026-05-01T16:25:05.842Z</time></trkpt><trkpt lat="45.8127178" lon="8.6424539"><ele>216.0</ele><time>2026-05-01T16:25:06.842Z</time></trkpt><trkpt lat="45.8125554" lon="8.6425429"><ele>218.66666666666669</ele><time>2026-05-01T16:25:07.842Z</time></trkpt><trkpt lat="45.8123914" lon="8.6426309"><ele>221.33333333333334</ele><time>2026-05-01T16:25:08.842Z</time></trkpt><trkpt lat="45.8122212" lon="8.6427172"><ele>224.0</ele><time>2026-05-01T16:25:09.842Z</time></trkpt><trkpt lat="45.8120468" lon="8.6428092"><ele>224.66666666666669</ele><time>2026-05-01T16:25:10.842Z</time></trkpt><trkpt lat="45.811881" lon="8.6429034"><ele>225.33333333333331</ele><time>2026-05-01T16:25:11.842Z</time></trkpt><trkpt lat="45.8117065" lon="8.6429964"><ele>226.0</ele><time>2026-05-01T16:25:12.842Z</time></trkpt><trkpt lat="45.8115231" lon="8.6430876"><ele>226.33333333333331</ele><time>2026-05-01T16:25:13.842Z</time></trkpt><trkpt lat="45.8113381" lon="8.6431826"><ele>226.66666666666669</ele><time>2026-05-01T16:25:14.841Z</time></trkpt><trkpt lat="45.8111466" lon="8.64329"><ele>227.0</ele><time>2026-05-01T16:25:15.842Z</time></trkpt><trkpt lat="45.8109558" lon="8.6433939"><ele>227.0</ele><time>2026-05-01T16:25:16.842Z</time></trkpt><trkpt lat="45.8107666" lon="8.6434937"><ele>227.0</ele><time>2026-05-01T16:25:17.842Z</time></trkpt><trkpt lat="45.8105789" lon="8.6435885"><ele>227.0</ele><time>2026-05-01T16:25:18.842Z</time></trkpt><trkpt lat="45.8103892" lon="8.6436847"><ele>227.33333333333334</ele><time>2026-05-01T16:25:19.842Z</time></trkpt><trkpt lat="45.8102024" lon="8.6437742"><ele>227.66666666666669</ele><time>2026-05-01T16:25:20.842Z</time></trkpt><trkpt lat="45.8100177" lon="8.6438736"><ele>228.0</ele><time>2026-05-01T16:25:21.842Z</time></trkpt><trkpt lat="45.8098275" lon="8.6439766"><ele>228.33333333333331</ele><time>2026-05-01T16:25:22.842Z</time></trkpt><trkpt lat="45.8096489" lon="8.6440734"><ele>228.66666666666666</ele><time>2026-05-01T16:25:23.842Z</time></trkpt><trkpt lat="45.8094747" lon="8.6441692"><ele>229.0</ele><time>2026-05-01T16:25:24.842Z</time></trkpt><trkpt lat="45.8093012" lon="8.6442597"><ele>228.0</ele><time>2026-05-01T16:25:25.842Z</time></trkpt><trkpt lat="45.809141" lon="8.6443469"><ele>227.0</ele><time>2026-05-01T16:25:26.841Z</time></trkpt><trkpt lat="45.8089783" lon="8.6444271"><ele>226.0</ele><time>2026-05-01T16:25:27.841Z</time></trkpt><trkpt lat="45.8088218" lon="8.6444988"><ele>226.66666666666666</ele><time>2026-05-01T16:25:28.841Z</time></trkpt><trkpt lat="45.8086687" lon="8.6445639"><ele>227.33333333333331</ele><time>2026-05-01T16:25:29.842Z</time></trkpt><trkpt lat="45.8085089" lon="8.6446159"><ele>228.0</ele><time>2026-05-01T16:25:30.842Z</time></trkpt><trkpt lat="45.8083409" lon="8.6446568"><ele>228.0</ele><time>2026-05-01T16:25:31.841Z</time></trkpt><trkpt lat="45.8081728" lon="8.6446724"><ele>228.0</ele><time>2026-05-01T16:25:32.842Z</time></trkpt><trkpt lat="45.8080022" lon="8.6446633"><ele>228.0</ele><time>2026-05-01T16:25:33.842Z</time></trkpt><trkpt lat="45.8078281" lon="8.6446377"><ele>228.0</ele><time>2026-05-01T16:25:34.842Z</time></trkpt><trkpt lat="45.8076671" lon="8.6445841"><ele>228.0</ele><time>2026-05-01T16:25:35.842Z</time></trkpt><trkpt lat="45.8075096" lon="8.644519"><ele>228.0</ele><time>2026-05-01T16:25:36.842Z</time></trkpt><trkpt lat="45.8073656" lon="8.6444074"><ele>231.66666666666669</ele><time>2026-05-01T16:25:37.841Z</time></trkpt><trkpt lat="45.8072214" lon="8.6442859"><ele>235.33333333333334</ele><time>2026-05-01T16:25:38.842Z</time></trkpt><trkpt lat="45.8070757" lon="8.6441537"><ele>239.0</ele><time>2026-05-01T16:25:39.842Z</time></trkpt><trkpt lat="45.8069256" lon="8.6440299"><ele>241.66666666666669</ele><time>2026-05-01T16:25:40.841Z</time></trkpt><trkpt lat="45.8067753" lon="8.6439092"><ele>244.33333333333331</ele><time>2026-05-01T16:25:41.842Z</time></trkpt><trkpt lat="45.8066325" lon="8.6437936"><ele>247.0</ele><time>2026-05-01T16:25:42.842Z</time></trkpt><trkpt lat="45.8064931" lon="8.6436659"><ele>245.33333333333331</ele><time>2026-05-01T16:25:43.842Z</time></trkpt><trkpt lat="45.8063499" lon="8.6435397"><ele>243.66666666666669</ele><time>2026-05-01T16:25:44.842Z</time></trkpt><trkpt lat="45.8062049" lon="8.6434149"><ele>242.0</ele><time>2026-05-01T16:25:45.842Z</time></trkpt><trkpt lat="45.8060572" lon="8.6432865"><ele>248.0</ele><time>2026-05-01T16:25:46.842Z</time></trkpt><trkpt lat="45.8059197" lon="8.6431636"><ele>254.0</ele><time>2026-05-01T16:25:47.842Z</time></trkpt><trkpt lat="45.8057797" lon="8.6430433"><ele>260.0</ele><time>2026-05-01T16:25:48.841Z</time></trkpt><trkpt lat="45.8056497" lon="8.6429221"><ele>260.0</ele><time>2026-05-01T16:25:49.841Z</time></trkpt><trkpt lat="45.8055327" lon="8.642817"><ele>260.0</ele><time>2026-05-01T16:25:50.842Z</time></trkpt><trkpt lat="45.8054262" lon="8.6427237"><ele>260.0</ele><time>2026-05-01T16:25:51.842Z</time></trkpt><trkpt lat="45.8053259" lon="8.6426559"><ele>260.0</ele><time>2026-05-01T16:25:52.842Z</time></trkpt><trkpt lat="45.8052169" lon="8.6426283"><ele>261.5</ele><time>2026-05-01T16:25:53.842Z</time></trkpt><trkpt lat="45.805107" lon="8.6426179"><ele>263.0</ele><time>2026-05-01T16:25:54.842Z</time></trkpt><trkpt lat="45.8049806" lon="8.6426353"><ele>264.5</ele><time>2026-05-01T16:25:55.841Z</time></trkpt><trkpt lat="45.8048519" lon="8.6426651"><ele>266.0</ele><time>2026-05-01T16:25:56.842Z</time></trkpt><trkpt lat="45.8047197" lon="8.6427096"><ele>266.0</ele><time>2026-05-01T16:25:57.841Z</time></trkpt><trkpt lat="45.8045866" lon="8.6427623"><ele>266.0</ele><time>2026-05-01T16:25:58.842Z</time></trkpt><trkpt lat="45.8044503" lon="8.6428437"><ele>266.0</ele><time>2026-05-01T16:25:59.842Z</time></trkpt><trkpt lat="45.8043094" lon="8.6429616"><ele>266.0</ele><time>2026-05-01T16:26:00.842Z</time></trkpt><trkpt lat="45.8041653" lon="8.6430997"><ele>267.33333333333337</ele><time>2026-05-01T16:26:01.842Z</time></trkpt><trkpt lat="45.80402" lon="8.6432434"><ele>268.6666666666667</ele><time>2026-05-01T16:26:02.842Z</time></trkpt><trkpt lat="45.8038783" lon="8.6433799"><ele>270.0</ele><time>2026-05-01T16:26:03.842Z</time></trkpt><trkpt lat="45.8037455" lon="8.6435105"><ele>270.0</ele><time>2026-05-01T16:26:04.842Z</time></trkpt><trkpt lat="45.8036172" lon="8.6436359"><ele>270.0</ele><time>2026-05-01T16:26:05.842Z</time></trkpt><trkpt lat="45.8034921" lon="8.6437585"><ele>270.0</ele><time>2026-05-01T16:26:06.842Z</time></trkpt><trkpt lat="45.8033709" lon="8.6438729"><ele>270.25</ele><time>2026-05-01T16:26:07.842Z</time></trkpt><trkpt lat="45.8032614" lon="8.6439684"><ele>270.5</ele><time>2026-05-01T16:26:08.842Z</time></trkpt><trkpt lat="45.8031485" lon="8.644068"><ele>270.75</ele><time>2026-05-01T16:26:09.842Z</time></trkpt><trkpt lat="45.8030395" lon="8.6441744"><ele>271.0</ele><time>2026-05-01T16:26:10.841Z</time></trkpt><trkpt lat="45.8029393" lon="8.6442672"><ele>271.0</ele><time>2026-05-01T16:26:11.842Z</time></trkpt><trkpt lat="45.8028436" lon="8.644357"><ele>271.0</ele><time>2026-05-01T16:26:12.842Z</time></trkpt><trkpt lat="45.8027522" lon="8.6444334"><ele>271.0</ele><time>2026-05-01T16:26:13.842Z</time></trkpt><trkpt lat="45.8026676" lon="8.6445168"><ele>271.0</ele><time>2026-05-01T16:26:14.841Z</time></trkpt><trkpt lat="45.8025811" lon="8.644604"><ele>271.0</ele><time>2026-05-01T16:26:15.842Z</time></trkpt><trkpt lat="45.802485" lon="8.6446941"><ele>270.5</ele><time>2026-05-01T16:26:16.842Z</time></trkpt><trkpt lat="45.8023928" lon="8.6447898"><ele>270.0</ele><time>2026-05-01T16:26:17.842Z</time></trkpt><trkpt lat="45.8022921" lon="8.6448786"><ele>269.5</ele><time>2026-05-01T16:26:18.842Z</time></trkpt><trkpt lat="45.8021938" lon="8.6449715"><ele>269.0</ele><time>2026-05-01T16:26:19.842Z</time></trkpt><trkpt lat="45.8020979" lon="8.64506"><ele>269.0</ele><time>2026-05-01T16:26:20.842Z</time></trkpt><trkpt lat="45.8020032" lon="8.6451437"><ele>269.0</ele><time>2026-05-01T16:26:21.842Z</time></trkpt><trkpt lat="45.8019102" lon="8.6452278"><ele>269.0</ele><time>2026-05-01T16:26:22.842Z</time></trkpt><trkpt lat="45.8018095" lon="8.6453151"><ele>269.0</ele><time>2026-05-01T16:26:23.842Z</time></trkpt><trkpt lat="45.801699" lon="8.6453909"><ele>269.0</ele><time>2026-05-01T16:26:24.842Z</time></trkpt><trkpt lat="45.8015771" lon="8.6454523"><ele>269.0</ele><time>2026-05-01T16:26:25.842Z</time></trkpt><trkpt lat="45.8014519" lon="8.6455074"><ele>269.0</ele><time>2026-05-01T16:26:26.842Z</time></trkpt><trkpt lat="45.8013258" lon="8.6455571"><ele>269.0</ele><time>2026-05-01T16:26:27.841Z</time></trkpt><trkpt lat="45.8012047" lon="8.645607"><ele>269.0</ele><time>2026-05-01T16:26:28.842Z</time></trkpt><trkpt lat="45.801086" lon="8.6456555"><ele>269.0</ele><time>2026-05-01T16:26:29.841Z</time></trkpt><trkpt lat="45.8009704" lon="8.6457035"><ele>269.0</ele><time>2026-05-01T16:26:30.842Z</time></trkpt><trkpt lat="45.8008516" lon="8.6457486"><ele>269.0</ele><time>2026-05-01T16:26:31.842Z</time></trkpt><trkpt lat="45.8007353" lon="8.6457947"><ele>269.75</ele><time>2026-05-01T16:26:32.842Z</time></trkpt><trkpt lat="45.8006126" lon="8.645842"><ele>270.5</ele><time>2026-05-01T16:26:33.842Z</time></trkpt><trkpt lat="45.8004946" lon="8.645888"><ele>271.25</ele><time>2026-05-01T16:26:34.841Z</time></trkpt><trkpt lat="45.800374" lon="8.6459305"><ele>272.0</ele><time>2026-05-01T16:26:35.842Z</time></trkpt><trkpt lat="45.8002549" lon="8.6459771"><ele>272.4</ele><time>2026-05-01T16:26:36.842Z</time></trkpt><trkpt lat="45.8001467" lon="8.6460207"><ele>272.79999999999995</ele><time>2026-05-01T16:26:37.842Z</time></trkpt><trkpt lat="45.8000458" lon="8.6460633"><ele>273.2</ele><time>2026-05-01T16:26:38.842Z</time></trkpt><trkpt lat="45.7999651" lon="8.6460865"><ele>273.59999999999997</ele><time>2026-05-01T16:26:39.842Z</time></trkpt><trkpt lat="45.7998839" lon="8.6461155"><ele>274.0</ele><time>2026-05-01T16:26:40.841Z</time></trkpt><trkpt lat="45.7998179" lon="8.6461442"><ele>274.2</ele><time>2026-05-01T16:26:41.842Z</time></trkpt><trkpt lat="45.7997489" lon="8.646174"><ele>274.4</ele><time>2026-05-01T16:26:43.84Z</time></trkpt><trkpt lat="45.7996996" lon="8.6462558"><ele>274.6</ele><time>2026-05-01T16:27:17.842Z</time></trkpt><trkpt lat="45.799719" lon="8.6463575"><ele>274.8</ele><time>2026-05-01T16:27:19.842Z</time></trkpt><trkpt lat="45.7997921" lon="8.6464728"><ele>275.0</ele><time>2026-05-01T16:27:21.841Z</time></trkpt><trkpt lat="45.7998791" lon="8.6466248"><ele>275.0</ele><time>2026-05-01T16:27:23.842Z</time></trkpt><trkpt lat="45.799924" lon="8.6467047"><ele>275.0</ele><time>2026-05-01T16:27:24.842Z</time></trkpt><trkpt lat="45.7999697" lon="8.6467794"><ele>275.0</ele><time>2026-05-01T16:27:25.842Z</time></trkpt><trkpt lat="45.8000152" lon="8.6468604"><ele>275.0</ele><time>2026-05-01T16:27:26.842Z</time></trkpt><trkpt lat="45.8000696" lon="8.6469404"><ele>275.0</ele><time>2026-05-01T16:27:27.842Z</time></trkpt><trkpt lat="45.8001218" lon="8.6470077"><ele>275.0</ele><time>2026-05-01T16:27:28.841Z</time></trkpt><trkpt lat="45.8001733" lon="8.6470604"><ele>275.0</ele><time>2026-05-01T16:27:29.842Z</time></trkpt><trkpt lat="45.800264" lon="8.6471547"><ele>275.2</ele><time>2026-05-01T16:27:31.842Z</time></trkpt><trkpt lat="45.8003318" lon="8.6472171"><ele>275.4</ele><time>2026-05-01T16:27:33.842Z</time></trkpt><trkpt lat="45.8004428" lon="8.6472647"><ele>275.6</ele><time>2026-05-01T16:27:35.842Z</time></trkpt><trkpt lat="45.8005481" lon="8.6471882"><ele>275.8</ele><time>2026-05-01T16:27:37.842Z</time></trkpt><trkpt lat="45.8006046" lon="8.6471225"><ele>276.0</ele><time>2026-05-01T16:27:38.841Z</time></trkpt><trkpt lat="45.8006757" lon="8.6470743"><ele>276.0</ele><time>2026-05-01T16:27:39.842Z</time></trkpt><trkpt lat="45.8007524" lon="8.6470452"><ele>276.0</ele><time>2026-05-01T16:27:40.842Z</time></trkpt><trkpt lat="45.8008392" lon="8.6470292"><ele>276.0</ele><time>2026-05-01T16:27:41.842Z</time></trkpt><trkpt lat="45.8009142" lon="8.6470111"><ele>276.0</ele><time>2026-05-01T16:27:42.841Z</time></trkpt><trkpt lat="45.801004" lon="8.6470028"><ele>276.0</ele><time>2026-05-01T16:27:43.842Z</time></trkpt><trkpt lat="45.8011005" lon="8.6469934"><ele>276.0</ele><time>2026-05-01T16:27:44.842Z</time></trkpt><trkpt lat="45.8012074" lon="8.6469919"><ele>275.40000000000003</ele><time>2026-05-01T16:27:45.842Z</time></trkpt><trkpt lat="45.8013122" lon="8.6469896"><ele>274.8</ele><time>2026-05-01T16:27:46.842Z</time></trkpt><trkpt lat="45.8014326" lon="8.6470142"><ele>274.20000000000005</ele><time>2026-05-01T16:27:47.842Z</time></trkpt><trkpt lat="45.8015391" lon="8.6470367"><ele>273.6</ele><time>2026-05-01T16:27:48.842Z</time></trkpt><trkpt lat="45.8016415" lon="8.6470603"><ele>273.0</ele><time>2026-05-01T16:27:49.842Z</time></trkpt><trkpt lat="45.801744" lon="8.6470855"><ele>273.1666666666667</ele><time>2026-05-01T16:27:50.842Z</time></trkpt><trkpt lat="45.8018415" lon="8.647127"><ele>273.3333333333333</ele><time>2026-05-01T16:27:51.842Z</time></trkpt><trkpt lat="45.8019373" lon="8.6471627"><ele>273.5</ele><time>2026-05-01T16:27:52.842Z</time></trkpt><trkpt lat="45.8020085" lon="8.6471934"><ele>273.66666666666663</ele><time>2026-05-01T16:27:53.842Z</time></trkpt><trkpt lat="45.8020699" lon="8.6472233"><ele>273.8333333333333</ele><time>2026-05-01T16:27:54.842Z</time></trkpt><trkpt lat="45.8021659" lon="8.6472378"><ele>274.0</ele><time>2026-05-01T16:27:56.842Z</time></trkpt><trkpt lat="45.8022429" lon="8.6471459"><ele>274.0</ele><time>2026-05-01T16:27:58.842Z</time></trkpt><trkpt lat="45.8022791" lon="8.647052"><ele>274.0</ele><time>2026-05-01T16:27:59.842Z</time></trkpt><trkpt lat="45.8023162" lon="8.6469513"><ele>274.0</ele><time>2026-05-01T16:28:00.841Z</time></trkpt><trkpt lat="45.8023597" lon="8.6468435"><ele>274.0</ele><time>2026-05-01T16:28:01.842Z</time></trkpt><trkpt lat="45.8023974" lon="8.6467384"><ele>274.0</ele><time>2026-05-01T16:28:02.842Z</time></trkpt><trkpt lat="45.8024396" lon="8.6466379"><ele>274.0</ele><time>2026-05-01T16:28:03.842Z</time></trkpt><trkpt lat="45.8024731" lon="8.6465433"><ele>273.59999999999997</ele><time>2026-05-01T16:28:04.842Z</time></trkpt><trkpt lat="45.8024897" lon="8.6463827"><ele>273.2</ele><time>2026-05-01T16:28:06.841Z</time></trkpt><trkpt lat="45.802499" lon="8.6462018"><ele>272.79999999999995</ele><time>2026-05-01T16:28:08.841Z</time></trkpt><trkpt lat="45.8025003" lon="8.6461005"><ele>272.4</ele><time>2026-05-01T16:28:09.842Z</time></trkpt><trkpt lat="45.8025094" lon="8.6459888"><ele>272.0</ele><time>2026-05-01T16:28:10.842Z</time></trkpt><trkpt lat="45.8025169" lon="8.6458699"><ele>271.6666666666667</ele><time>2026-05-01T16:28:11.842Z</time></trkpt><trkpt lat="45.8025223" lon="8.645748"><ele>271.33333333333337</ele><time>2026-05-01T16:28:12.842Z</time></trkpt><trkpt lat="45.8025246" lon="8.6456433"><ele>271.0</ele><time>2026-05-01T16:28:13.842Z</time></trkpt><trkpt lat="45.8025287" lon="8.645538"><ele>270.6666666666667</ele><time>2026-05-01T16:28:14.842Z</time></trkpt><trkpt lat="45.8025409" lon="8.6453957"><ele>270.3333333333333</ele><time>2026-05-01T16:28:16.842Z</time></trkpt><trkpt lat="45.8025445" lon="8.6452913"><ele>270.0</ele><time>2026-05-01T16:28:18.842Z</time></trkpt><trkpt lat="45.8025303" lon="8.6451532"><ele>269.8</ele><time>2026-05-01T16:28:20.842Z</time></trkpt><trkpt lat="45.8025117" lon="8.6450309"><ele>269.6</ele><time>2026-05-01T16:28:22.842Z</time></trkpt><trkpt lat="45.8025057" lon="8.6449159"><ele>269.4</ele><time>2026-05-01T16:28:24.842Z</time></trkpt><trkpt lat="45.8025454" lon="8.6448356"><ele>269.2</ele><time>2026-05-01T16:28:26.841Z</time></trkpt><trkpt lat="45.8026569" lon="8.6447836"><ele>269.0</ele><time>2026-05-01T16:28:28.841Z</time></trkpt><trkpt lat="45.8027607" lon="8.6447724"><ele>269.0</ele><time>2026-05-01T16:28:30.842Z</time></trkpt><trkpt lat="45.802828" lon="8.6447978"><ele>269.0</ele><time>2026-05-01T16:28:32.842Z</time></trkpt><trkpt lat="45.8028721" lon="8.6447151"><ele>269.0</ele><time>2026-05-01T16:28:35.841Z</time></trkpt><trkpt lat="45.8027973" lon="8.6446874"><ele>269.0</ele><time>2026-05-01T16:28:38.842Z</time></trkpt><trkpt lat="45.8027156" lon="8.644717"><ele>269.0</ele><time>2026-05-01T16:28:41.841Z</time></trkpt><trkpt lat="45.8026473" lon="8.6447416"><ele>269.0</ele><time>2026-05-01T16:28:44.841Z</time></trkpt><trkpt lat="45.8025807" lon="8.644763"><ele>269.0</ele><time>2026-05-01T16:28:47.842Z</time></trkpt><trkpt lat="45.8025023" lon="8.6447884"><ele>269.0</ele><time>2026-05-01T16:28:59.842Z</time></trkpt><trkpt lat="45.8024739" lon="8.6448941"><ele>269.0</ele><time>2026-05-01T16:29:01.841Z</time></trkpt><trkpt lat="45.8025022" lon="8.6450529"><ele>269.0</ele><time>2026-05-01T16:29:03.842Z</time></trkpt><trkpt lat="45.8025142" lon="8.6451456"><ele>269.0</ele><time>2026-05-01T16:29:04.842Z</time></trkpt><trkpt lat="45.802522" lon="8.6452473"><ele>269.0</ele><time>2026-05-01T16:29:05.841Z</time></trkpt><trkpt lat="45.8025235" lon="8.6453481"><ele>269.0</ele><time>2026-05-01T16:29:06.842Z</time></trkpt><trkpt lat="45.8025067" lon="8.6455245"><ele>269.1666666666667</ele><time>2026-05-01T16:29:08.842Z</time></trkpt><trkpt lat="45.8025016" lon="8.6456219"><ele>269.33333333333337</ele><time>2026-05-01T16:29:09.842Z</time></trkpt><trkpt lat="45.8024992" lon="8.6457209"><ele>269.5</ele><time>2026-05-01T16:29:10.842Z</time></trkpt><trkpt lat="45.8024929" lon="8.6458158"><ele>269.6666666666667</ele><time>2026-05-01T16:29:11.842Z</time></trkpt><trkpt lat="45.8024901" lon="8.6459137"><ele>269.8333333333333</ele><time>2026-05-01T16:29:12.842Z</time></trkpt><trkpt lat="45.802486" lon="8.6460145"><ele>270.0</ele><time>2026-05-01T16:29:13.842Z</time></trkpt><trkpt lat="45.8024811" lon="8.6461702"><ele>270.3333333333333</ele><time>2026-05-01T16:29:15.842Z</time></trkpt><trkpt lat="45.802477" lon="8.6463196"><ele>270.6666666666667</ele><time>2026-05-01T16:29:17.841Z</time></trkpt><trkpt lat="45.802464" lon="8.6464533"><ele>271.0</ele><time>2026-05-01T16:29:19.842Z</time></trkpt><trkpt lat="45.8024443" lon="8.6465655"><ele>271.33333333333337</ele><time>2026-05-01T16:29:21.841Z</time></trkpt><trkpt lat="45.8024794" lon="8.646647"><ele>271.6666666666667</ele><time>2026-05-01T16:29:23.842Z</time></trkpt><trkpt lat="45.8025545" lon="8.6465982"><ele>272.0</ele><time>2026-05-01T16:29:25.842Z</time></trkpt><trkpt lat="45.8026313" lon="8.6464911"><ele>272.2</ele><time>2026-05-01T16:29:27.842Z</time></trkpt><trkpt lat="45.802726" lon="8.6463993"><ele>272.4</ele><time>2026-05-01T16:29:29.842Z</time></trkpt><trkpt lat="45.8028163" lon="8.6462935"><ele>272.6</ele><time>2026-05-01T16:29:31.842Z</time></trkpt><trkpt lat="45.8028609" lon="8.6462289"><ele>272.8</ele><time>2026-05-01T16:29:32.842Z</time></trkpt><trkpt lat="45.8029184" lon="8.6460952"><ele>273.0</ele><time>2026-05-01T16:29:34.842Z</time></trkpt><trkpt lat="45.8029328" lon="8.6459293"><ele>272.8333333333333</ele><time>2026-05-01T16:29:36.842Z</time></trkpt><trkpt lat="45.8029316" lon="8.6458372"><ele>272.6666666666667</ele><time>2026-05-01T16:29:37.842Z</time></trkpt><trkpt lat="45.8029289" lon="8.6457348"><ele>272.5</ele><time>2026-05-01T16:29:38.842Z</time></trkpt><trkpt lat="45.8029349" lon="8.6456352"><ele>272.33333333333337</ele><time>2026-05-01T16:29:39.841Z</time></trkpt><trkpt lat="45.8029553" lon="8.6454973"><ele>272.1666666666667</ele><time>2026-05-01T16:29:41.842Z</time></trkpt><trkpt lat="45.8029742" lon="8.6454025"><ele>272.0</ele><time>2026-05-01T16:29:43.842Z</time></trkpt><trkpt lat="45.8029902" lon="8.6452626"><ele>272.0</ele><time>2026-05-01T16:29:45.842Z</time></trkpt><trkpt lat="45.8029824" lon="8.6451306"><ele>272.0</ele><time>2026-05-01T16:29:47.842Z</time></trkpt><trkpt lat="45.8029567" lon="8.6450317"><ele>272.0</ele><time>2026-05-01T16:29:49.842Z</time></trkpt><trkpt lat="45.8029041" lon="8.6449249"><ele>272.0</ele><time>2026-05-01T16:29:51.842Z</time></trkpt><trkpt lat="45.8028809" lon="8.6448315"><ele>272.0</ele><time>2026-05-01T16:29:53.842Z</time></trkpt><trkpt lat="45.802884" lon="8.6447396"><ele>272.0</ele><time>2026-05-01T16:29:56.842Z</time></trkpt><trkpt lat="45.8028472" lon="8.6446658"><ele>272.0</ele><time>2026-05-01T16:29:59.842Z</time></trkpt><trkpt lat="45.8027881" lon="8.6446"><ele>272.0</ele><time>2026-05-01T16:30:03.842Z</time></trkpt><trkpt lat="45.8027576" lon="8.6445082"><ele>272.0</ele><time>2026-05-01T16:30:13.842Z</time></trkpt><trkpt lat="45.8026933" lon="8.6445133"><ele>272.0</ele><time>2026-05-01T16:30:15.842Z</time></trkpt><trkpt lat="45.8026058" lon="8.6445904"><ele>272.0</ele><time>2026-05-01T16:30:17.841Z</time></trkpt><trkpt lat="45.8025114" lon="8.6446749"><ele>272.0</ele><time>2026-05-01T16:30:19.842Z</time></trkpt><trkpt lat="45.8024558" lon="8.6447256"><ele>271.5</ele><time>2026-05-01T16:30:20.842Z</time></trkpt><trkpt lat="45.8023904" lon="8.644786"><ele>271.0</ele><time>2026-05-01T16:30:21.842Z</time></trkpt><trkpt lat="45.8023202" lon="8.6448545"><ele>270.5</ele><time>2026-05-01T16:30:22.842Z</time></trkpt><trkpt lat="45.8022465" lon="8.6449234"><ele>270.0</ele><time>2026-05-01T16:30:23.842Z</time></trkpt><trkpt lat="45.8021771" lon="8.6449874"><ele>269.5</ele><time>2026-05-01T16:30:24.842Z</time></trkpt><trkpt lat="45.8021011" lon="8.6450583"><ele>269.0</ele><time>2026-05-01T16:30:25.842Z</time></trkpt><trkpt lat="45.8020253" lon="8.6451293"><ele>269.0</ele><time>2026-05-01T16:30:26.841Z</time></trkpt><trkpt lat="45.8019399" lon="8.6452093"><ele>269.0</ele><time>2026-05-01T16:30:27.84Z</time></trkpt><trkpt lat="45.8018536" lon="8.6452829"><ele>269.0</ele><time>2026-05-01T16:30:28.842Z</time></trkpt><trkpt lat="45.8017547" lon="8.64535"><ele>269.0</ele><time>2026-05-01T16:30:29.842Z</time></trkpt><trkpt lat="45.8016532" lon="8.6454031"><ele>269.0</ele><time>2026-05-01T16:30:30.842Z</time></trkpt><trkpt lat="45.8015452" lon="8.6454568"><ele>269.0</ele><time>2026-05-01T16:30:31.842Z</time></trkpt><trkpt lat="45.8014317" lon="8.645506"><ele>269.0</ele><time>2026-05-01T16:30:32.842Z</time></trkpt><trkpt lat="45.8013192" lon="8.6455571"><ele>269.0</ele><time>2026-05-01T16:30:33.842Z</time></trkpt><trkpt lat="45.8012011" lon="8.6456"><ele>269.0</ele><time>2026-05-01T16:30:34.842Z</time></trkpt><trkpt lat="45.8010829" lon="8.645647"><ele>269.75</ele><time>2026-05-01T16:30:35.841Z</time></trkpt><trkpt lat="45.8009609" lon="8.6456974"><ele>270.5</ele><time>2026-05-01T16:30:36.842Z</time></trkpt><trkpt lat="45.800831" lon="8.6457523"><ele>271.25</ele><time>2026-05-01T16:30:37.842Z</time></trkpt><trkpt lat="45.8007086" lon="8.645805"><ele>272.0</ele><time>2026-05-01T16:30:38.842Z</time></trkpt><trkpt lat="45.8005821" lon="8.6458535"><ele>272.0</ele><time>2026-05-01T16:30:39.842Z</time></trkpt><trkpt lat="45.800461" lon="8.6459002"><ele>272.0</ele><time>2026-05-01T16:30:40.842Z</time></trkpt><trkpt lat="45.8003375" lon="8.6459466"><ele>272.0</ele><time>2026-05-01T16:30:41.842Z</time></trkpt><trkpt lat="45.8002142" lon="8.645999"><ele>272.0</ele><time>2026-05-01T16:30:42.842Z</time></trkpt><trkpt lat="45.8000979" lon="8.6460491"><ele>272.33333333333337</ele><time>2026-05-01T16:30:43.841Z</time></trkpt><trkpt lat="45.7999856" lon="8.6460959"><ele>272.6666666666667</ele><time>2026-05-01T16:30:44.842Z</time></trkpt><trkpt lat="45.7998963" lon="8.6461299"><ele>273.0</ele><time>2026-05-01T16:30:45.841Z</time></trkpt><trkpt lat="45.7998212" lon="8.6461567"><ele>273.3333333333333</ele><time>2026-05-01T16:30:46.842Z</time></trkpt><trkpt lat="45.7997334" lon="8.6461917"><ele>273.66666666666663</ele><time>2026-05-01T16:30:48.841Z</time></trkpt><trkpt lat="45.7996845" lon="8.6462517"><ele>274.0</ele><time>2026-05-01T16:30:59.842Z</time></trkpt><trkpt lat="45.7997187" lon="8.6463686"><ele>274.2</ele><time>2026-05-01T16:31:01.842Z</time></trkpt><trkpt lat="45.7997958" lon="8.6465036"><ele>274.4</ele><time>2026-05-01T16:31:03.841Z</time></trkpt><trkpt lat="45.7998753" lon="8.6466492"><ele>274.6</ele><time>2026-05-01T16:31:05.842Z</time></trkpt><trkpt lat="45.7999282" lon="8.6467272"><ele>274.8</ele><time>2026-05-01T16:31:06.842Z</time></trkpt><trkpt lat="45.7999859" lon="8.6468099"><ele>275.0</ele><time>2026-05-01T16:31:07.841Z</time></trkpt><trkpt lat="45.8000424" lon="8.6468875"><ele>275.0</ele><time>2026-05-01T16:31:08.842Z</time></trkpt><trkpt lat="45.8000992" lon="8.6469569"><ele>275.0</ele><time>2026-05-01T16:31:09.841Z</time></trkpt><trkpt lat="45.8001586" lon="8.647027"><ele>275.0</ele><time>2026-05-01T16:31:10.842Z</time></trkpt><trkpt lat="45.800217" lon="8.6470932"><ele>275.0</ele><time>2026-05-01T16:31:11.842Z</time></trkpt><trkpt lat="45.8003186" lon="8.6471835"><ele>275.0</ele><time>2026-05-01T16:31:13.842Z</time></trkpt><trkpt lat="45.800402" lon="8.6472429"><ele>275.0</ele><time>2026-05-01T16:31:15.841Z</time></trkpt><trkpt lat="45.8005021" lon="8.6472263"><ele>275.1666666666667</ele><time>2026-05-01T16:31:17.841Z</time></trkpt><trkpt lat="45.8005896" lon="8.6471239"><ele>275.33333333333337</ele><time>2026-05-01T16:31:19.842Z</time></trkpt><trkpt lat="45.8006485" lon="8.647082"><ele>275.5</ele><time>2026-05-01T16:31:20.842Z</time></trkpt><trkpt lat="45.8007095" lon="8.6470469"><ele>275.6666666666667</ele><time>2026-05-01T16:31:21.842Z</time></trkpt><trkpt lat="45.8007844" lon="8.6470203"><ele>275.8333333333333</ele><time>2026-05-01T16:31:22.842Z</time></trkpt><trkpt lat="45.8008684" lon="8.6470035"><ele>276.0</ele><time>2026-05-01T16:31:23.842Z</time></trkpt><trkpt lat="45.8009551" lon="8.6469883"><ele>275.40000000000003</ele><time>2026-05-01T16:31:24.842Z</time></trkpt><trkpt lat="45.8010391" lon="8.6469829"><ele>274.8</ele><time>2026-05-01T16:31:25.842Z</time></trkpt><trkpt lat="45.8011356" lon="8.6469845"><ele>274.20000000000005</ele><time>2026-05-01T16:31:26.841Z</time></trkpt><trkpt lat="45.801236" lon="8.6469832"><ele>273.6</ele><time>2026-05-01T16:31:27.842Z</time></trkpt><trkpt lat="45.8013363" lon="8.6469915"><ele>273.0</ele><time>2026-05-01T16:31:28.842Z</time></trkpt><trkpt lat="45.8014325" lon="8.6470072"><ele>273.0</ele><time>2026-05-01T16:31:29.842Z</time></trkpt><trkpt lat="45.8015351" lon="8.6470264"><ele>273.0</ele><time>2026-05-01T16:31:30.842Z</time></trkpt><trkpt lat="45.801631" lon="8.6470492"><ele>273.0</ele><time>2026-05-01T16:31:31.842Z</time></trkpt><trkpt lat="45.801718" lon="8.6470699"><ele>273.0</ele><time>2026-05-01T16:31:32.842Z</time></trkpt><trkpt lat="45.8017923" lon="8.64709"><ele>273.0</ele><time>2026-05-01T16:31:33.842Z</time></trkpt><trkpt lat="45.8018658" lon="8.6471153"><ele>273.0</ele><time>2026-05-01T16:31:34.841Z</time></trkpt><trkpt lat="45.8019403" lon="8.6471481"><ele>273.1666666666667</ele><time>2026-05-01T16:31:35.842Z</time></trkpt><trkpt lat="45.802016" lon="8.6471839"><ele>273.3333333333333</ele><time>2026-05-01T16:31:36.842Z</time></trkpt><trkpt lat="45.8020791" lon="8.6472188"><ele>273.5</ele><time>2026-05-01T16:31:37.842Z</time></trkpt><trkpt lat="45.802178" lon="8.6472345"><ele>273.66666666666663</ele><time>2026-05-01T16:31:39.841Z</time></trkpt><trkpt lat="45.8022465" lon="8.6471462"><ele>273.8333333333333</ele><time>2026-05-01T16:31:41.842Z</time></trkpt><trkpt lat="45.8022803" lon="8.6470523"><ele>274.0</ele><time>2026-05-01T16:31:42.842Z</time></trkpt><trkpt lat="45.8023077" lon="8.6469684"><ele>273.66666666666663</ele><time>2026-05-01T16:31:43.841Z</time></trkpt><trkpt lat="45.8023426" lon="8.6468746"><ele>273.3333333333333</ele><time>2026-05-01T16:31:44.842Z</time></trkpt><trkpt lat="45.802388" lon="8.6467751"><ele>273.0</ele><time>2026-05-01T16:31:45.842Z</time></trkpt><trkpt lat="45.8024266" lon="8.6466763"><ele>272.6666666666667</ele><time>2026-05-01T16:31:46.842Z</time></trkpt><trkpt lat="45.8024655" lon="8.6465733"><ele>272.33333333333337</ele><time>2026-05-01T16:31:47.842Z</time></trkpt><trkpt lat="45.8024942" lon="8.6464565"><ele>272.0</ele><time>2026-05-01T16:31:48.842Z</time></trkpt><trkpt lat="45.8025039" lon="8.6463374"><ele>272.0</ele><time>2026-05-01T16:31:49.842Z</time></trkpt><trkpt lat="45.8025043" lon="8.6462293"><ele>272.0</ele><time>2026-05-01T16:31:50.842Z</time></trkpt><trkpt lat="45.8025072" lon="8.6461342"><ele>272.0</ele><time>2026-05-01T16:31:51.841Z</time></trkpt><trkpt lat="45.8025082" lon="8.6459728"><ele>272.0</ele><time>2026-05-01T16:31:53.842Z</time></trkpt><trkpt lat="45.8025018" lon="8.6458572"><ele>272.0</ele><time>2026-05-01T16:31:55.842Z</time></trkpt><trkpt lat="45.8024947" lon="8.6457357"><ele>272.0</ele><time>2026-05-01T16:31:57.842Z</time></trkpt><trkpt lat="45.8025003" lon="8.6456178"><ele>271.6666666666667</ele><time>2026-05-01T16:32:00.842Z</time></trkpt><trkpt lat="45.8025159" lon="8.645496"><ele>271.33333333333337</ele><time>2026-05-01T16:32:23.842Z</time></trkpt><trkpt lat="45.8025555" lon="8.6454235"><ele>271.0</ele><time>2026-05-01T16:32:25.842Z</time></trkpt><trkpt lat="45.8025596" lon="8.6453266"><ele>270.6666666666667</ele><time>2026-05-01T16:32:28.842Z</time></trkpt><trkpt lat="45.8025005" lon="8.6453655"><ele>270.3333333333333</ele><time>2026-05-01T16:32:38.842Z</time></trkpt><trkpt lat="45.8025243" lon="8.6454551"><ele>270.0</ele><time>2026-05-01T16:32:42.841Z</time></trkpt><trkpt lat="45.8025007" lon="8.6456162"><ele>270.0</ele><time>2026-05-01T16:33:13.841Z</time></trkpt><trkpt lat="45.8024945" lon="8.6457118"><ele>270.0</ele><time>2026-05-01T16:33:14.842Z</time></trkpt><trkpt lat="45.8024889" lon="8.6458131"><ele>270.0</ele><time>2026-05-01T16:33:15.842Z</time></trkpt><trkpt lat="45.8024838" lon="8.6459241"><ele>270.0</ele><time>2026-05-01T16:33:16.841Z</time></trkpt><trkpt lat="45.8024806" lon="8.6460164"><ele>270.0</ele><time>2026-05-01T16:33:17.842Z</time></trkpt><trkpt lat="45.8024727" lon="8.6461976"><ele>270.0</ele><time>2026-05-01T16:33:19.842Z</time></trkpt><trkpt lat="45.8024711" lon="8.6462927"><ele>270.3333333333333</ele><time>2026-05-01T16:33:20.842Z</time></trkpt><trkpt lat="45.8024573" lon="8.6464669"><ele>270.6666666666667</ele><time>2026-05-01T16:33:22.842Z</time></trkpt><trkpt lat="45.8024871" lon="8.6465827"><ele>271.0</ele><time>2026-05-01T16:33:24.842Z</time></trkpt><trkpt lat="45.8025492" lon="8.6466158"><ele>271.33333333333337</ele><time>2026-05-01T16:33:26.842Z</time></trkpt><trkpt lat="45.8026062" lon="8.6465532"><ele>271.6666666666667</ele><time>2026-05-01T16:33:27.841Z</time></trkpt><trkpt lat="45.8026647" lon="8.6464881"><ele>272.0</ele><time>2026-05-01T16:33:28.842Z</time></trkpt><trkpt lat="45.8027186" lon="8.6464213"><ele>272.1428571428571</ele><time>2026-05-01T16:33:29.842Z</time></trkpt><trkpt lat="45.8027721" lon="8.646362"><ele>272.2857142857143</ele><time>2026-05-01T16:33:30.842Z</time></trkpt><trkpt lat="45.8028202" lon="8.6462868"><ele>272.42857142857144</ele><time>2026-05-01T16:33:31.841Z</time></trkpt><trkpt lat="45.802865" lon="8.6462078"><ele>272.57142857142856</ele><time>2026-05-01T16:33:32.842Z</time></trkpt><trkpt lat="45.802908" lon="8.6461248"><ele>272.7142857142857</ele><time>2026-05-01T16:33:33.842Z</time></trkpt><trkpt lat="45.8029217" lon="8.646005"><ele>272.85714285714283</ele><time>2026-05-01T16:33:34.842Z</time></trkpt><trkpt lat="45.8029222" lon="8.6458954"><ele>273.0</ele><time>2026-05-01T16:33:35.841Z</time></trkpt><trkpt lat="45.802916" lon="8.6457938"><ele>272.8333333333333</ele><time>2026-05-01T16:33:36.841Z</time></trkpt><trkpt lat="45.8029257" lon="8.6456966"><ele>272.6666666666667</ele><time>2026-05-01T16:33:37.842Z</time></trkpt><trkpt lat="45.8029362" lon="8.6455963"><ele>272.5</ele><time>2026-05-01T16:33:38.842Z</time></trkpt><trkpt lat="45.8029609" lon="8.6454959"><ele>272.33333333333337</ele><time>2026-05-01T16:33:39.842Z</time></trkpt><trkpt lat="45.8029761" lon="8.6454075"><ele>272.1666666666667</ele><time>2026-05-01T16:33:40.842Z</time></trkpt><trkpt lat="45.8029948" lon="8.6452503"><ele>272.0</ele><time>2026-05-01T16:33:42.842Z</time></trkpt><trkpt lat="45.8029748" lon="8.6450983"><ele>272.0</ele><time>2026-05-01T16:33:44.841Z</time></trkpt><trkpt lat="45.8029268" lon="8.6449507"><ele>272.0</ele><time>2026-05-01T16:33:46.842Z</time></trkpt><trkpt lat="45.8028717" lon="8.6448497"><ele>272.0</ele><time>2026-05-01T16:33:48.842Z</time></trkpt><trkpt lat="45.8028268" lon="8.6447737"><ele>272.0</ele><time>2026-05-01T16:33:50.842Z</time></trkpt><trkpt lat="45.8027476" lon="8.6447424"><ele>272.0</ele><time>2026-05-01T16:33:52.842Z</time></trkpt><trkpt lat="45.8026492" lon="8.6447489"><ele>271.71428571428567</ele><time>2026-05-01T16:33:54.842Z</time></trkpt><trkpt lat="45.8025745" lon="8.6447657"><ele>271.42857142857144</ele><time>2026-05-01T16:33:56.842Z</time></trkpt><trkpt lat="45.8024949" lon="8.6448223"><ele>271.1428571428571</ele><time>2026-05-01T16:34:01.842Z</time></trkpt><trkpt lat="45.8024505" lon="8.6448989"><ele>270.85714285714283</ele><time>2026-05-01T16:34:03.842Z</time></trkpt><trkpt lat="45.8024357" lon="8.6449943"><ele>270.57142857142856</ele><time>2026-05-01T16:34:06.841Z</time></trkpt><trkpt lat="45.8024455" lon="8.6450968"><ele>270.2857142857143</ele><time>2026-05-01T16:34:16.841Z</time></trkpt><trkpt lat="45.8024577" lon="8.6451948"><ele>270.0</ele><time>2026-05-01T16:34:21.842Z</time></trkpt><trkpt lat="45.8024609" lon="8.6453013"><ele>270.0</ele><time>2026-05-01T16:34:51.842Z</time></trkpt><trkpt lat="45.8024085" lon="8.6453659"><ele>270.0</ele><time>2026-05-01T16:35:54.841Z</time></trkpt><trkpt lat="45.8024236" lon="8.6454657"><ele>270.0</ele><time>2026-05-01T16:37:48.841Z</time></trkpt></trkseg></trk></gpx>